<?xml version="1.0" encoding="UTF-8" standalone="no" ?>
<gpx xmlns="http://www.topografix.com/GPX/1/1" xmlns:xsi="http://www.w3.org/2001/XMLSchema-instance" xsi:schemaLocation="http://www.topografix.com/GPX/1/1 http://www.topografix.com/GPX/1/1/gpx.xsd" version="1.1" creator="VisuGPX - https://www.visugpx.com">
  <metadata>
    <name>Circuit Le Mesnilbus (Manche)</name>
    <desc><![CDATA[Circuit au départ de Mesnil bus passant par le Lorey et Montcuit]]></desc>
  </metadata>
  <trk>
    <name><![CDATA[Circuit Le Mesnilbus (Manche)_1]]></name>
    <trkseg>
      <trkpt lat="49.13349" lon="-1.35067">
        <ele>76.9</ele>
        <time>2015-06-04T09:18:16Z</time>
      </trkpt>
      <trkpt lat="49.13352" lon="-1.35066">
        <ele>76.9</ele>
        <time>2015-06-04T09:18:31Z</time>
      </trkpt>
      <trkpt lat="49.13353" lon="-1.35065">
        <ele>76.9</ele>
        <time>2015-06-04T09:18:36Z</time>
      </trkpt>
      <trkpt lat="49.13353" lon="-1.35064">
        <ele>76.9</ele>
        <time>2015-06-04T09:18:41Z</time>
      </trkpt>
      <trkpt lat="49.13354" lon="-1.35064">
        <ele>76.9</ele>
        <time>2015-06-04T09:18:46Z</time>
      </trkpt>
      <trkpt lat="49.13355" lon="-1.35065">
        <ele>76.9</ele>
        <time>2015-06-04T09:18:51Z</time>
      </trkpt>
      <trkpt lat="49.13355" lon="-1.35065">
        <ele>76.9</ele>
        <time>2015-06-04T09:18:56Z</time>
      </trkpt>
      <trkpt lat="49.13355" lon="-1.35065">
        <ele>76.9</ele>
        <time>2015-06-04T09:19:01Z</time>
      </trkpt>
      <trkpt lat="49.13354" lon="-1.35066">
        <ele>76.9</ele>
        <time>2015-06-04T09:19:06Z</time>
      </trkpt>
      <trkpt lat="49.13353" lon="-1.35066">
        <ele>81.513596</ele>
        <time>2015-06-04T09:19:11Z</time>
      </trkpt>
      <trkpt lat="49.13353" lon="-1.35066">
        <ele>81.513596</ele>
        <time>2015-06-04T09:19:16Z</time>
      </trkpt>
      <trkpt lat="49.13354" lon="-1.35065">
        <ele>81.513596</ele>
        <time>2015-06-04T09:19:21Z</time>
      </trkpt>
      <trkpt lat="49.13353" lon="-1.35065">
        <ele>81.513596</ele>
        <time>2015-06-04T09:19:26Z</time>
      </trkpt>
      <trkpt lat="49.13354" lon="-1.35065">
        <ele>81.513596</ele>
        <time>2015-06-04T09:19:31Z</time>
      </trkpt>
      <trkpt lat="49.13353" lon="-1.35064">
        <ele>81.513596</ele>
        <time>2015-06-04T09:19:36Z</time>
      </trkpt>
      <trkpt lat="49.13353" lon="-1.35064">
        <ele>81.513596</ele>
        <time>2015-06-04T09:19:41Z</time>
      </trkpt>
      <trkpt lat="49.13352" lon="-1.35064">
        <ele>81.513596</ele>
        <time>2015-06-04T09:19:46Z</time>
      </trkpt>
      <trkpt lat="49.13352" lon="-1.35064">
        <ele>81.513596</ele>
        <time>2015-06-04T09:19:51Z</time>
      </trkpt>
      <trkpt lat="49.13355" lon="-1.35064">
        <ele>81.513596</ele>
        <time>2015-06-04T09:19:56Z</time>
      </trkpt>
      <trkpt lat="49.13355" lon="-1.35063">
        <ele>81.513596</ele>
        <time>2015-06-04T09:20:01Z</time>
      </trkpt>
      <trkpt lat="49.13353" lon="-1.35062">
        <ele>81.504234</ele>
        <time>2015-06-04T09:20:06Z</time>
      </trkpt>
      <trkpt lat="49.13351" lon="-1.35062">
        <ele>81.504234</ele>
        <time>2015-06-04T09:20:11Z</time>
      </trkpt>
      <trkpt lat="49.1335" lon="-1.3506">
        <ele>81.504234</ele>
        <time>2015-06-04T09:20:16Z</time>
      </trkpt>
      <trkpt lat="49.1335" lon="-1.35059">
        <ele>81.504234</ele>
        <time>2015-06-04T09:20:21Z</time>
      </trkpt>
      <trkpt lat="49.13351" lon="-1.3506">
        <ele>81.504234</ele>
        <time>2015-06-04T09:20:26Z</time>
      </trkpt>
      <trkpt lat="49.13353" lon="-1.35062">
        <ele>81.504234</ele>
        <time>2015-06-04T09:20:31Z</time>
      </trkpt>
      <trkpt lat="49.13353" lon="-1.35063">
        <ele>81.504234</ele>
        <time>2015-06-04T09:20:36Z</time>
      </trkpt>
      <trkpt lat="49.13353" lon="-1.35064">
        <ele>81.504234</ele>
        <time>2015-06-04T09:20:41Z</time>
      </trkpt>
      <trkpt lat="49.13353" lon="-1.35061">
        <ele>80.984795</ele>
        <time>2015-06-04T09:20:46Z</time>
      </trkpt>
      <trkpt lat="49.13353" lon="-1.35058">
        <ele>80.984795</ele>
        <time>2015-06-04T09:20:51Z</time>
      </trkpt>
      <trkpt lat="49.13352" lon="-1.35055">
        <ele>80.984795</ele>
        <time>2015-06-04T09:20:56Z</time>
      </trkpt>
      <trkpt lat="49.13352" lon="-1.35054">
        <ele>80.984795</ele>
        <time>2015-06-04T09:21:01Z</time>
      </trkpt>
      <trkpt lat="49.13352" lon="-1.35054">
        <ele>80.984795</ele>
        <time>2015-06-04T09:21:06Z</time>
      </trkpt>
      <trkpt lat="49.13351" lon="-1.35055">
        <ele>80.984795</ele>
        <time>2015-06-04T09:21:11Z</time>
      </trkpt>
      <trkpt lat="49.13351" lon="-1.35056">
        <ele>80.984795</ele>
        <time>2015-06-04T09:21:16Z</time>
      </trkpt>
      <trkpt lat="49.1335" lon="-1.35056">
        <ele>80.984795</ele>
        <time>2015-06-04T09:21:21Z</time>
      </trkpt>
      <trkpt lat="49.13351" lon="-1.35057">
        <ele>80.984795</ele>
        <time>2015-06-04T09:21:26Z</time>
      </trkpt>
      <trkpt lat="49.13351" lon="-1.35058">
        <ele>80.984795</ele>
        <time>2015-06-04T09:21:31Z</time>
      </trkpt>
      <trkpt lat="49.1335" lon="-1.35057">
        <ele>80.68435</ele>
        <time>2015-06-04T09:21:36Z</time>
      </trkpt>
      <trkpt lat="49.13351" lon="-1.35058">
        <ele>80.68435</ele>
        <time>2015-06-04T09:21:41Z</time>
      </trkpt>
      <trkpt lat="49.13351" lon="-1.35058">
        <ele>80.68435</ele>
        <time>2015-06-04T09:21:46Z</time>
      </trkpt>
      <trkpt lat="49.13351" lon="-1.35058">
        <ele>80.68435</ele>
        <time>2015-06-04T09:21:51Z</time>
      </trkpt>
      <trkpt lat="49.13351" lon="-1.35057">
        <ele>80.68435</ele>
        <time>2015-06-04T09:21:56Z</time>
      </trkpt>
      <trkpt lat="49.13351" lon="-1.35056">
        <ele>80.68435</ele>
        <time>2015-06-04T09:22:01Z</time>
      </trkpt>
      <trkpt lat="49.13352" lon="-1.35057">
        <ele>80.68435</ele>
        <time>2015-06-04T09:22:06Z</time>
      </trkpt>
      <trkpt lat="49.13351" lon="-1.35057">
        <ele>80.68435</ele>
        <time>2015-06-04T09:22:11Z</time>
      </trkpt>
      <trkpt lat="49.13344" lon="-1.35057">
        <ele>80.30605</ele>
        <time>2015-06-04T09:22:16Z</time>
      </trkpt>
      <trkpt lat="49.13339" lon="-1.35056">
        <ele>80.30605</ele>
        <time>2015-06-04T09:22:21Z</time>
      </trkpt>
      <trkpt lat="49.13332" lon="-1.35053">
        <ele>80.19331</ele>
        <time>2015-06-04T09:22:26Z</time>
      </trkpt>
      <trkpt lat="49.13327" lon="-1.35053">
        <ele>80.19331</ele>
        <time>2015-06-04T09:22:31Z</time>
      </trkpt>
      <trkpt lat="49.13323" lon="-1.35052">
        <ele>80.272156</ele>
        <time>2015-06-04T09:22:36Z</time>
      </trkpt>
      <trkpt lat="49.13318" lon="-1.35052">
        <ele>80.272156</ele>
        <time>2015-06-04T09:22:41Z</time>
      </trkpt>
      <trkpt lat="49.13314" lon="-1.35052">
        <ele>80.48895</ele>
        <time>2015-06-04T09:22:46Z</time>
      </trkpt>
      <trkpt lat="49.13311" lon="-1.3505">
        <ele>80.48895</ele>
        <time>2015-06-04T09:22:51Z</time>
      </trkpt>
      <trkpt lat="49.13306" lon="-1.35049">
        <ele>80.48895</ele>
        <time>2015-06-04T09:22:56Z</time>
      </trkpt>
      <trkpt lat="49.133" lon="-1.35049">
        <ele>80.79053</ele>
        <time>2015-06-04T09:23:01Z</time>
      </trkpt>
      <trkpt lat="49.13294" lon="-1.35048">
        <ele>80.79053</ele>
        <time>2015-06-04T09:23:06Z</time>
      </trkpt>
      <trkpt lat="49.13286" lon="-1.35052">
        <ele>81.02765</ele>
        <time>2015-06-04T09:23:11Z</time>
      </trkpt>
      <trkpt lat="49.13283" lon="-1.35053">
        <ele>81.02765</ele>
        <time>2015-06-04T09:23:16Z</time>
      </trkpt>
      <trkpt lat="49.13277" lon="-1.35051">
        <ele>81.02765</ele>
        <time>2015-06-04T09:23:21Z</time>
      </trkpt>
      <trkpt lat="49.13271" lon="-1.35053">
        <ele>81.13778</ele>
        <time>2015-06-04T09:23:26Z</time>
      </trkpt>
      <trkpt lat="49.13266" lon="-1.35052">
        <ele>81.13778</ele>
        <time>2015-06-04T09:23:31Z</time>
      </trkpt>
      <trkpt lat="49.13259" lon="-1.35051">
        <ele>81.18249</ele>
        <time>2015-06-04T09:23:36Z</time>
      </trkpt>
      <trkpt lat="49.13254" lon="-1.35049">
        <ele>81.18249</ele>
        <time>2015-06-04T09:23:41Z</time>
      </trkpt>
      <trkpt lat="49.13248" lon="-1.35048">
        <ele>81.32061</ele>
        <time>2015-06-04T09:23:46Z</time>
      </trkpt>
      <trkpt lat="49.13242" lon="-1.35044">
        <ele>81.32061</ele>
        <time>2015-06-04T09:23:51Z</time>
      </trkpt>
      <trkpt lat="49.13238" lon="-1.3504">
        <ele>81.530945</ele>
        <time>2015-06-04T09:23:56Z</time>
      </trkpt>
      <trkpt lat="49.13234" lon="-1.35034">
        <ele>81.530945</ele>
        <time>2015-06-04T09:24:01Z</time>
      </trkpt>
      <trkpt lat="49.1323" lon="-1.3503">
        <ele>81.709885</ele>
        <time>2015-06-04T09:24:06Z</time>
      </trkpt>
      <trkpt lat="49.13226" lon="-1.35024">
        <ele>81.709885</ele>
        <time>2015-06-04T09:24:11Z</time>
      </trkpt>
      <trkpt lat="49.13223" lon="-1.35015">
        <ele>82.11018</ele>
        <time>2015-06-04T09:24:16Z</time>
      </trkpt>
      <trkpt lat="49.13221" lon="-1.35007">
        <ele>82.11018</ele>
        <time>2015-06-04T09:24:21Z</time>
      </trkpt>
      <trkpt lat="49.13221" lon="-1.35">
        <ele>82.676765</ele>
        <time>2015-06-04T09:24:26Z</time>
      </trkpt>
      <trkpt lat="49.13228" lon="-1.34994">
        <ele>82.676765</ele>
        <time>2015-06-04T09:24:31Z</time>
      </trkpt>
      <trkpt lat="49.13235" lon="-1.34986">
        <ele>83.213</ele>
        <time>2015-06-04T09:24:36Z</time>
      </trkpt>
      <trkpt lat="49.13239" lon="-1.34981">
        <ele>83.213</ele>
        <time>2015-06-04T09:24:41Z</time>
      </trkpt>
      <trkpt lat="49.13244" lon="-1.34976">
        <ele>83.83283</ele>
        <time>2015-06-04T09:24:46Z</time>
      </trkpt>
      <trkpt lat="49.13247" lon="-1.3497">
        <ele>83.83283</ele>
        <time>2015-06-04T09:24:51Z</time>
      </trkpt>
      <trkpt lat="49.13247" lon="-1.34962">
        <ele>84.525635</ele>
        <time>2015-06-04T09:24:56Z</time>
      </trkpt>
      <trkpt lat="49.13245" lon="-1.34954">
        <ele>84.525635</ele>
        <time>2015-06-04T09:25:01Z</time>
      </trkpt>
      <trkpt lat="49.13246" lon="-1.34949">
        <ele>85.20457</ele>
        <time>2015-06-04T09:25:06Z</time>
      </trkpt>
      <trkpt lat="49.13248" lon="-1.34944">
        <ele>85.20457</ele>
        <time>2015-06-04T09:25:11Z</time>
      </trkpt>
      <trkpt lat="49.13249" lon="-1.34934">
        <ele>85.733406</ele>
        <time>2015-06-04T09:25:16Z</time>
      </trkpt>
      <trkpt lat="49.13251" lon="-1.34922">
        <ele>85.733406</ele>
        <time>2015-06-04T09:25:21Z</time>
      </trkpt>
      <trkpt lat="49.13254" lon="-1.34913">
        <ele>86.039024</ele>
        <time>2015-06-04T09:25:26Z</time>
      </trkpt>
      <trkpt lat="49.13252" lon="-1.34905">
        <ele>86.039024</ele>
        <time>2015-06-04T09:25:31Z</time>
      </trkpt>
      <trkpt lat="49.1325" lon="-1.34895">
        <ele>86.33856</ele>
        <time>2015-06-04T09:25:36Z</time>
      </trkpt>
      <trkpt lat="49.1325" lon="-1.34884">
        <ele>86.33856</ele>
        <time>2015-06-04T09:25:41Z</time>
      </trkpt>
      <trkpt lat="49.13249" lon="-1.34875">
        <ele>86.60362</ele>
        <time>2015-06-04T09:25:46Z</time>
      </trkpt>
      <trkpt lat="49.13248" lon="-1.34865">
        <ele>86.60362</ele>
        <time>2015-06-04T09:25:51Z</time>
      </trkpt>
      <trkpt lat="49.13246" lon="-1.34856">
        <ele>86.8378</ele>
        <time>2015-06-04T09:25:56Z</time>
      </trkpt>
      <trkpt lat="49.13245" lon="-1.34847">
        <ele>86.8378</ele>
        <time>2015-06-04T09:26:01Z</time>
      </trkpt>
      <trkpt lat="49.13239" lon="-1.34841">
        <ele>87.07257</ele>
        <time>2015-06-04T09:26:06Z</time>
      </trkpt>
      <trkpt lat="49.13234" lon="-1.34838">
        <ele>87.07257</ele>
        <time>2015-06-04T09:26:11Z</time>
      </trkpt>
      <trkpt lat="49.13225" lon="-1.34834">
        <ele>87.29352</ele>
        <time>2015-06-04T09:26:16Z</time>
      </trkpt>
      <trkpt lat="49.13221" lon="-1.34832">
        <ele>87.29352</ele>
        <time>2015-06-04T09:26:21Z</time>
      </trkpt>
      <trkpt lat="49.13215" lon="-1.34828">
        <ele>87.473595</ele>
        <time>2015-06-04T09:26:26Z</time>
      </trkpt>
      <trkpt lat="49.13209" lon="-1.34823">
        <ele>87.473595</ele>
        <time>2015-06-04T09:26:31Z</time>
      </trkpt>
      <trkpt lat="49.13203" lon="-1.34818">
        <ele>87.56027</ele>
        <time>2015-06-04T09:26:36Z</time>
      </trkpt>
      <trkpt lat="49.13198" lon="-1.34816">
        <ele>87.56027</ele>
        <time>2015-06-04T09:26:41Z</time>
      </trkpt>
      <trkpt lat="49.13193" lon="-1.34813">
        <ele>87.53311</ele>
        <time>2015-06-04T09:26:46Z</time>
      </trkpt>
      <trkpt lat="49.13188" lon="-1.34807">
        <ele>87.53311</ele>
        <time>2015-06-04T09:26:51Z</time>
      </trkpt>
      <trkpt lat="49.13183" lon="-1.34801">
        <ele>87.47007</ele>
        <time>2015-06-04T09:26:56Z</time>
      </trkpt>
      <trkpt lat="49.1318" lon="-1.34795">
        <ele>87.47007</ele>
        <time>2015-06-04T09:27:01Z</time>
      </trkpt>
      <trkpt lat="49.13177" lon="-1.34789">
        <ele>87.51248</ele>
        <time>2015-06-04T09:27:06Z</time>
      </trkpt>
      <trkpt lat="49.13173" lon="-1.34784">
        <ele>87.51248</ele>
        <time>2015-06-04T09:27:11Z</time>
      </trkpt>
      <trkpt lat="49.1317" lon="-1.34779">
        <ele>87.58365</ele>
        <time>2015-06-04T09:27:16Z</time>
      </trkpt>
      <trkpt lat="49.13165" lon="-1.34771">
        <ele>87.58365</ele>
        <time>2015-06-04T09:27:21Z</time>
      </trkpt>
      <trkpt lat="49.13162" lon="-1.34762">
        <ele>87.77957</ele>
        <time>2015-06-04T09:27:26Z</time>
      </trkpt>
      <trkpt lat="49.1316" lon="-1.34754">
        <ele>87.77957</ele>
        <time>2015-06-04T09:27:31Z</time>
      </trkpt>
      <trkpt lat="49.1316" lon="-1.34745">
        <ele>88.036644</ele>
        <time>2015-06-04T09:27:36Z</time>
      </trkpt>
      <trkpt lat="49.13161" lon="-1.34743">
        <ele>88.036644</ele>
        <time>2015-06-04T09:27:41Z</time>
      </trkpt>
      <trkpt lat="49.13161" lon="-1.34744">
        <ele>88.036644</ele>
        <time>2015-06-04T09:27:46Z</time>
      </trkpt>
      <trkpt lat="49.13161" lon="-1.34743">
        <ele>88.036644</ele>
        <time>2015-06-04T09:27:51Z</time>
      </trkpt>
      <trkpt lat="49.13161" lon="-1.34743">
        <ele>88.036644</ele>
        <time>2015-06-04T09:27:56Z</time>
      </trkpt>
      <trkpt lat="49.13162" lon="-1.34744">
        <ele>88.036644</ele>
        <time>2015-06-04T09:28:01Z</time>
      </trkpt>
      <trkpt lat="49.13162" lon="-1.34744">
        <ele>88.036644</ele>
        <time>2015-06-04T09:28:06Z</time>
      </trkpt>
      <trkpt lat="49.13163" lon="-1.34743">
        <ele>88.036644</ele>
        <time>2015-06-04T09:28:11Z</time>
      </trkpt>
      <trkpt lat="49.13164" lon="-1.34744">
        <ele>88.036644</ele>
        <time>2015-06-04T09:28:16Z</time>
      </trkpt>
      <trkpt lat="49.13164" lon="-1.34744">
        <ele>88.036644</ele>
        <time>2015-06-04T09:28:21Z</time>
      </trkpt>
      <trkpt lat="49.13164" lon="-1.34745">
        <ele>88.036644</ele>
        <time>2015-06-04T09:28:26Z</time>
      </trkpt>
      <trkpt lat="49.13163" lon="-1.34746">
        <ele>88.01319</ele>
        <time>2015-06-04T09:28:31Z</time>
      </trkpt>
      <trkpt lat="49.13162" lon="-1.34745">
        <ele>88.01319</ele>
        <time>2015-06-04T09:28:36Z</time>
      </trkpt>
      <trkpt lat="49.13163" lon="-1.34744">
        <ele>88.01319</ele>
        <time>2015-06-04T09:28:41Z</time>
      </trkpt>
      <trkpt lat="49.13163" lon="-1.34743">
        <ele>88.01319</ele>
        <time>2015-06-04T09:28:46Z</time>
      </trkpt>
      <trkpt lat="49.13163" lon="-1.34742">
        <ele>88.01319</ele>
        <time>2015-06-04T09:28:51Z</time>
      </trkpt>
      <trkpt lat="49.13163" lon="-1.34742">
        <ele>88.01319</ele>
        <time>2015-06-04T09:28:56Z</time>
      </trkpt>
      <trkpt lat="49.13163" lon="-1.34741">
        <ele>88.01319</ele>
        <time>2015-06-04T09:29:01Z</time>
      </trkpt>
      <trkpt lat="49.13166" lon="-1.34735">
        <ele>88.02406</ele>
        <time>2015-06-04T09:29:06Z</time>
      </trkpt>
      <trkpt lat="49.13171" lon="-1.34731">
        <ele>88.02406</ele>
        <time>2015-06-04T09:29:11Z</time>
      </trkpt>
      <trkpt lat="49.13178" lon="-1.34724">
        <ele>87.93978</ele>
        <time>2015-06-04T09:29:16Z</time>
      </trkpt>
      <trkpt lat="49.13182" lon="-1.3472">
        <ele>87.93978</ele>
        <time>2015-06-04T09:29:21Z</time>
      </trkpt>
      <trkpt lat="49.13188" lon="-1.34715">
        <ele>87.88204</ele>
        <time>2015-06-04T09:29:26Z</time>
      </trkpt>
      <trkpt lat="49.13195" lon="-1.34709">
        <ele>87.88204</ele>
        <time>2015-06-04T09:29:31Z</time>
      </trkpt>
      <trkpt lat="49.132" lon="-1.34705">
        <ele>87.8797</ele>
        <time>2015-06-04T09:29:36Z</time>
      </trkpt>
      <trkpt lat="49.13205" lon="-1.34703">
        <ele>87.8797</ele>
        <time>2015-06-04T09:29:41Z</time>
      </trkpt>
      <trkpt lat="49.13209" lon="-1.34699">
        <ele>87.82884</ele>
        <time>2015-06-04T09:29:46Z</time>
      </trkpt>
      <trkpt lat="49.13215" lon="-1.34695">
        <ele>87.82884</ele>
        <time>2015-06-04T09:29:51Z</time>
      </trkpt>
      <trkpt lat="49.13221" lon="-1.34692">
        <ele>87.68976</ele>
        <time>2015-06-04T09:29:56Z</time>
      </trkpt>
      <trkpt lat="49.13227" lon="-1.34689">
        <ele>87.68976</ele>
        <time>2015-06-04T09:30:01Z</time>
      </trkpt>
      <trkpt lat="49.13232" lon="-1.34688">
        <ele>87.602295</ele>
        <time>2015-06-04T09:30:06Z</time>
      </trkpt>
      <trkpt lat="49.1324" lon="-1.34683">
        <ele>87.602295</ele>
        <time>2015-06-04T09:30:11Z</time>
      </trkpt>
      <trkpt lat="49.13245" lon="-1.34678">
        <ele>87.5204</ele>
        <time>2015-06-04T09:30:16Z</time>
      </trkpt>
      <trkpt lat="49.13251" lon="-1.34671">
        <ele>87.5204</ele>
        <time>2015-06-04T09:30:21Z</time>
      </trkpt>
      <trkpt lat="49.13256" lon="-1.34666">
        <ele>87.43036</ele>
        <time>2015-06-04T09:30:26Z</time>
      </trkpt>
      <trkpt lat="49.1326" lon="-1.34661">
        <ele>87.43036</ele>
        <time>2015-06-04T09:30:31Z</time>
      </trkpt>
      <trkpt lat="49.13265" lon="-1.34656">
        <ele>87.30427</ele>
        <time>2015-06-04T09:30:36Z</time>
      </trkpt>
      <trkpt lat="49.1327" lon="-1.34654">
        <ele>87.30427</ele>
        <time>2015-06-04T09:30:41Z</time>
      </trkpt>
      <trkpt lat="49.13274" lon="-1.34652">
        <ele>87.14612</ele>
        <time>2015-06-04T09:30:46Z</time>
      </trkpt>
      <trkpt lat="49.13278" lon="-1.34647">
        <ele>87.14612</ele>
        <time>2015-06-04T09:30:51Z</time>
      </trkpt>
      <trkpt lat="49.13282" lon="-1.34642">
        <ele>87.03498</ele>
        <time>2015-06-04T09:30:56Z</time>
      </trkpt>
      <trkpt lat="49.13287" lon="-1.34637">
        <ele>87.03498</ele>
        <time>2015-06-04T09:31:01Z</time>
      </trkpt>
      <trkpt lat="49.13291" lon="-1.34634">
        <ele>86.84827</ele>
        <time>2015-06-04T09:31:06Z</time>
      </trkpt>
      <trkpt lat="49.13293" lon="-1.34632">
        <ele>86.84827</ele>
        <time>2015-06-04T09:31:11Z</time>
      </trkpt>
      <trkpt lat="49.13297" lon="-1.34629">
        <ele>86.84827</ele>
        <time>2015-06-04T09:31:16Z</time>
      </trkpt>
      <trkpt lat="49.13302" lon="-1.34627">
        <ele>86.6685</ele>
        <time>2015-06-04T09:31:21Z</time>
      </trkpt>
      <trkpt lat="49.13305" lon="-1.34626">
        <ele>86.6685</ele>
        <time>2015-06-04T09:31:26Z</time>
      </trkpt>
      <trkpt lat="49.13308" lon="-1.34623">
        <ele>86.6685</ele>
        <time>2015-06-04T09:31:31Z</time>
      </trkpt>
      <trkpt lat="49.13313" lon="-1.34616">
        <ele>86.511696</ele>
        <time>2015-06-04T09:31:36Z</time>
      </trkpt>
      <trkpt lat="49.13318" lon="-1.34611">
        <ele>86.511696</ele>
        <time>2015-06-04T09:31:41Z</time>
      </trkpt>
      <trkpt lat="49.13322" lon="-1.34608">
        <ele>86.24147</ele>
        <time>2015-06-04T09:31:46Z</time>
      </trkpt>
      <trkpt lat="49.13327" lon="-1.346">
        <ele>86.24147</ele>
        <time>2015-06-04T09:31:51Z</time>
      </trkpt>
      <trkpt lat="49.13332" lon="-1.34597">
        <ele>85.732414</ele>
        <time>2015-06-04T09:31:56Z</time>
      </trkpt>
      <trkpt lat="49.13337" lon="-1.34593">
        <ele>85.732414</ele>
        <time>2015-06-04T09:32:01Z</time>
      </trkpt>
      <trkpt lat="49.13343" lon="-1.3459">
        <ele>85.20164</ele>
        <time>2015-06-04T09:32:06Z</time>
      </trkpt>
      <trkpt lat="49.13349" lon="-1.34585">
        <ele>85.20164</ele>
        <time>2015-06-04T09:32:11Z</time>
      </trkpt>
      <trkpt lat="49.13355" lon="-1.34583">
        <ele>84.71342</ele>
        <time>2015-06-04T09:32:16Z</time>
      </trkpt>
      <trkpt lat="49.13359" lon="-1.34583">
        <ele>84.71342</ele>
        <time>2015-06-04T09:32:21Z</time>
      </trkpt>
      <trkpt lat="49.13365" lon="-1.34581">
        <ele>84.32647</ele>
        <time>2015-06-04T09:32:26Z</time>
      </trkpt>
      <trkpt lat="49.13369" lon="-1.34578">
        <ele>84.32647</ele>
        <time>2015-06-04T09:32:31Z</time>
      </trkpt>
      <trkpt lat="49.13376" lon="-1.34576">
        <ele>83.9442</ele>
        <time>2015-06-04T09:32:36Z</time>
      </trkpt>
      <trkpt lat="49.13381" lon="-1.34571">
        <ele>83.9442</ele>
        <time>2015-06-04T09:32:41Z</time>
      </trkpt>
      <trkpt lat="49.13388" lon="-1.34567">
        <ele>83.552734</ele>
        <time>2015-06-04T09:32:46Z</time>
      </trkpt>
      <trkpt lat="49.13392" lon="-1.34565">
        <ele>83.552734</ele>
        <time>2015-06-04T09:32:51Z</time>
      </trkpt>
      <trkpt lat="49.13397" lon="-1.34563">
        <ele>83.25877</ele>
        <time>2015-06-04T09:32:56Z</time>
      </trkpt>
      <trkpt lat="49.13404" lon="-1.34559">
        <ele>83.25877</ele>
        <time>2015-06-04T09:33:01Z</time>
      </trkpt>
      <trkpt lat="49.1341" lon="-1.34555">
        <ele>82.93623</ele>
        <time>2015-06-04T09:33:06Z</time>
      </trkpt>
      <trkpt lat="49.13415" lon="-1.3455">
        <ele>82.93623</ele>
        <time>2015-06-04T09:33:11Z</time>
      </trkpt>
      <trkpt lat="49.13421" lon="-1.34548">
        <ele>82.58856</ele>
        <time>2015-06-04T09:33:16Z</time>
      </trkpt>
      <trkpt lat="49.13425" lon="-1.34546">
        <ele>82.58856</ele>
        <time>2015-06-04T09:33:21Z</time>
      </trkpt>
      <trkpt lat="49.13429" lon="-1.34542">
        <ele>82.32266</ele>
        <time>2015-06-04T09:33:26Z</time>
      </trkpt>
      <trkpt lat="49.13435" lon="-1.34536">
        <ele>82.32266</ele>
        <time>2015-06-04T09:33:31Z</time>
      </trkpt>
      <trkpt lat="49.13438" lon="-1.3453">
        <ele>82.073555</ele>
        <time>2015-06-04T09:33:36Z</time>
      </trkpt>
      <trkpt lat="49.13441" lon="-1.34525">
        <ele>82.073555</ele>
        <time>2015-06-04T09:33:41Z</time>
      </trkpt>
      <trkpt lat="49.13446" lon="-1.34516">
        <ele>81.84065</ele>
        <time>2015-06-04T09:33:46Z</time>
      </trkpt>
      <trkpt lat="49.13451" lon="-1.34508">
        <ele>81.84065</ele>
        <time>2015-06-04T09:33:51Z</time>
      </trkpt>
      <trkpt lat="49.13456" lon="-1.34503">
        <ele>81.66744</ele>
        <time>2015-06-04T09:33:56Z</time>
      </trkpt>
      <trkpt lat="49.13459" lon="-1.34497">
        <ele>81.66744</ele>
        <time>2015-06-04T09:34:01Z</time>
      </trkpt>
      <trkpt lat="49.13462" lon="-1.34491">
        <ele>81.47621</ele>
        <time>2015-06-04T09:34:06Z</time>
      </trkpt>
      <trkpt lat="49.13467" lon="-1.34482">
        <ele>81.47621</ele>
        <time>2015-06-04T09:34:11Z</time>
      </trkpt>
      <trkpt lat="49.13472" lon="-1.34475">
        <ele>81.15174</ele>
        <time>2015-06-04T09:34:16Z</time>
      </trkpt>
      <trkpt lat="49.13476" lon="-1.3447">
        <ele>81.15174</ele>
        <time>2015-06-04T09:34:21Z</time>
      </trkpt>
      <trkpt lat="49.13481" lon="-1.34463">
        <ele>80.690865</ele>
        <time>2015-06-04T09:34:26Z</time>
      </trkpt>
      <trkpt lat="49.13485" lon="-1.34455">
        <ele>80.690865</ele>
        <time>2015-06-04T09:34:31Z</time>
      </trkpt>
      <trkpt lat="49.13489" lon="-1.34447">
        <ele>80.16388</ele>
        <time>2015-06-04T09:34:36Z</time>
      </trkpt>
      <trkpt lat="49.13495" lon="-1.34439">
        <ele>80.16388</ele>
        <time>2015-06-04T09:34:41Z</time>
      </trkpt>
      <trkpt lat="49.13499" lon="-1.3443">
        <ele>79.562675</ele>
        <time>2015-06-04T09:34:46Z</time>
      </trkpt>
      <trkpt lat="49.13502" lon="-1.34422">
        <ele>79.562675</ele>
        <time>2015-06-04T09:34:51Z</time>
      </trkpt>
      <trkpt lat="49.13506" lon="-1.34415">
        <ele>78.92356</ele>
        <time>2015-06-04T09:34:56Z</time>
      </trkpt>
      <trkpt lat="49.1351" lon="-1.34406">
        <ele>78.92356</ele>
        <time>2015-06-04T09:35:01Z</time>
      </trkpt>
      <trkpt lat="49.13514" lon="-1.34398">
        <ele>78.30904</ele>
        <time>2015-06-04T09:35:06Z</time>
      </trkpt>
      <trkpt lat="49.13519" lon="-1.3439">
        <ele>78.30904</ele>
        <time>2015-06-04T09:35:11Z</time>
      </trkpt>
      <trkpt lat="49.13522" lon="-1.34382">
        <ele>77.63154</ele>
        <time>2015-06-04T09:35:16Z</time>
      </trkpt>
      <trkpt lat="49.13526" lon="-1.34375">
        <ele>77.63154</ele>
        <time>2015-06-04T09:35:21Z</time>
      </trkpt>
      <trkpt lat="49.13531" lon="-1.34367">
        <ele>76.882935</ele>
        <time>2015-06-04T09:35:26Z</time>
      </trkpt>
      <trkpt lat="49.13535" lon="-1.34359">
        <ele>76.882935</ele>
        <time>2015-06-04T09:35:31Z</time>
      </trkpt>
      <trkpt lat="49.13539" lon="-1.34352">
        <ele>76.12818</ele>
        <time>2015-06-04T09:35:36Z</time>
      </trkpt>
      <trkpt lat="49.13545" lon="-1.34348">
        <ele>76.12818</ele>
        <time>2015-06-04T09:35:41Z</time>
      </trkpt>
      <trkpt lat="49.13549" lon="-1.3434">
        <ele>75.26815</ele>
        <time>2015-06-04T09:35:46Z</time>
      </trkpt>
      <trkpt lat="49.13555" lon="-1.3433">
        <ele>74.384926</ele>
        <time>2015-06-04T09:35:51Z</time>
      </trkpt>
      <trkpt lat="49.13559" lon="-1.34321">
        <ele>74.384926</ele>
        <time>2015-06-04T09:35:56Z</time>
      </trkpt>
      <trkpt lat="49.13563" lon="-1.34311">
        <ele>73.45324</ele>
        <time>2015-06-04T09:36:01Z</time>
      </trkpt>
      <trkpt lat="49.13567" lon="-1.34305">
        <ele>73.45324</ele>
        <time>2015-06-04T09:36:06Z</time>
      </trkpt>
      <trkpt lat="49.13571" lon="-1.34294">
        <ele>72.53645</ele>
        <time>2015-06-04T09:36:11Z</time>
      </trkpt>
      <trkpt lat="49.13575" lon="-1.34286">
        <ele>72.53645</ele>
        <time>2015-06-04T09:36:16Z</time>
      </trkpt>
      <trkpt lat="49.13575" lon="-1.34286">
        <ele>72.53645</ele>
        <time>2015-06-04T09:36:21Z</time>
      </trkpt>
      <trkpt lat="49.13573" lon="-1.34285">
        <ele>71.57762</ele>
        <time>2015-06-04T09:36:26Z</time>
      </trkpt>
      <trkpt lat="49.13574" lon="-1.34286">
        <ele>71.57762</ele>
        <time>2015-06-04T09:36:31Z</time>
      </trkpt>
      <trkpt lat="49.13574" lon="-1.34286">
        <ele>71.57762</ele>
        <time>2015-06-04T09:36:36Z</time>
      </trkpt>
      <trkpt lat="49.13575" lon="-1.34286">
        <ele>71.57762</ele>
        <time>2015-06-04T09:36:41Z</time>
      </trkpt>
      <trkpt lat="49.13574" lon="-1.34286">
        <ele>71.57762</ele>
        <time>2015-06-04T09:36:46Z</time>
      </trkpt>
      <trkpt lat="49.13574" lon="-1.34286">
        <ele>71.57762</ele>
        <time>2015-06-04T09:36:51Z</time>
      </trkpt>
      <trkpt lat="49.13576" lon="-1.34284">
        <ele>71.57762</ele>
        <time>2015-06-04T09:36:56Z</time>
      </trkpt>
      <trkpt lat="49.13579" lon="-1.34274">
        <ele>70.30774</ele>
        <time>2015-06-04T09:37:01Z</time>
      </trkpt>
      <trkpt lat="49.13585" lon="-1.34265">
        <ele>70.30774</ele>
        <time>2015-06-04T09:37:06Z</time>
      </trkpt>
      <trkpt lat="49.13589" lon="-1.34258">
        <ele>69.1709</ele>
        <time>2015-06-04T09:37:11Z</time>
      </trkpt>
      <trkpt lat="49.13594" lon="-1.34251">
        <ele>69.1709</ele>
        <time>2015-06-04T09:37:16Z</time>
      </trkpt>
      <trkpt lat="49.13597" lon="-1.34243">
        <ele>68.145164</ele>
        <time>2015-06-04T09:37:21Z</time>
      </trkpt>
      <trkpt lat="49.13603" lon="-1.34233">
        <ele>68.145164</ele>
        <time>2015-06-04T09:37:26Z</time>
      </trkpt>
      <trkpt lat="49.13607" lon="-1.34228">
        <ele>67.19549</ele>
        <time>2015-06-04T09:37:31Z</time>
      </trkpt>
      <trkpt lat="49.13611" lon="-1.3422">
        <ele>67.19549</ele>
        <time>2015-06-04T09:37:36Z</time>
      </trkpt>
      <trkpt lat="49.13615" lon="-1.34214">
        <ele>66.303566</ele>
        <time>2015-06-04T09:37:41Z</time>
      </trkpt>
      <trkpt lat="49.13619" lon="-1.34208">
        <ele>66.303566</ele>
        <time>2015-06-04T09:37:46Z</time>
      </trkpt>
      <trkpt lat="49.13626" lon="-1.34198">
        <ele>65.40898</ele>
        <time>2015-06-04T09:37:51Z</time>
      </trkpt>
      <trkpt lat="49.13629" lon="-1.34193">
        <ele>65.40898</ele>
        <time>2015-06-04T09:37:56Z</time>
      </trkpt>
      <trkpt lat="49.13632" lon="-1.34184">
        <ele>64.585464</ele>
        <time>2015-06-04T09:38:01Z</time>
      </trkpt>
      <trkpt lat="49.13636" lon="-1.34177">
        <ele>64.585464</ele>
        <time>2015-06-04T09:38:06Z</time>
      </trkpt>
      <trkpt lat="49.13641" lon="-1.34171">
        <ele>63.742462</ele>
        <time>2015-06-04T09:38:11Z</time>
      </trkpt>
      <trkpt lat="49.13646" lon="-1.34165">
        <ele>63.742462</ele>
        <time>2015-06-04T09:38:16Z</time>
      </trkpt>
      <trkpt lat="49.13651" lon="-1.34156">
        <ele>62.95468</ele>
        <time>2015-06-04T09:38:21Z</time>
      </trkpt>
      <trkpt lat="49.13655" lon="-1.34149">
        <ele>62.95468</ele>
        <time>2015-06-04T09:38:26Z</time>
      </trkpt>
      <trkpt lat="49.1366" lon="-1.34143">
        <ele>62.262276</ele>
        <time>2015-06-04T09:38:31Z</time>
      </trkpt>
      <trkpt lat="49.13666" lon="-1.34136">
        <ele>62.262276</ele>
        <time>2015-06-04T09:38:36Z</time>
      </trkpt>
      <trkpt lat="49.1367" lon="-1.3413">
        <ele>61.68772</ele>
        <time>2015-06-04T09:38:41Z</time>
      </trkpt>
      <trkpt lat="49.13675" lon="-1.34124">
        <ele>61.68772</ele>
        <time>2015-06-04T09:38:46Z</time>
      </trkpt>
      <trkpt lat="49.1368" lon="-1.34118">
        <ele>61.164917</ele>
        <time>2015-06-04T09:38:51Z</time>
      </trkpt>
      <trkpt lat="49.13685" lon="-1.34113">
        <ele>61.164917</ele>
        <time>2015-06-04T09:38:56Z</time>
      </trkpt>
      <trkpt lat="49.13688" lon="-1.34106">
        <ele>60.762207</ele>
        <time>2015-06-04T09:39:01Z</time>
      </trkpt>
      <trkpt lat="49.13694" lon="-1.341">
        <ele>60.762207</ele>
        <time>2015-06-04T09:39:06Z</time>
      </trkpt>
      <trkpt lat="49.137" lon="-1.34091">
        <ele>60.643497</ele>
        <time>2015-06-04T09:39:11Z</time>
      </trkpt>
      <trkpt lat="49.13705" lon="-1.34086">
        <ele>60.643497</ele>
        <time>2015-06-04T09:39:16Z</time>
      </trkpt>
      <trkpt lat="49.1371" lon="-1.34082">
        <ele>60.62807</ele>
        <time>2015-06-04T09:39:21Z</time>
      </trkpt>
      <trkpt lat="49.13716" lon="-1.3408">
        <ele>60.62807</ele>
        <time>2015-06-04T09:39:26Z</time>
      </trkpt>
      <trkpt lat="49.13722" lon="-1.34075">
        <ele>60.663544</ele>
        <time>2015-06-04T09:39:31Z</time>
      </trkpt>
      <trkpt lat="49.13726" lon="-1.34067">
        <ele>60.663544</ele>
        <time>2015-06-04T09:39:36Z</time>
      </trkpt>
      <trkpt lat="49.13731" lon="-1.34057">
        <ele>60.730034</ele>
        <time>2015-06-04T09:39:41Z</time>
      </trkpt>
      <trkpt lat="49.13737" lon="-1.34047">
        <ele>60.780174</ele>
        <time>2015-06-04T09:39:46Z</time>
      </trkpt>
      <trkpt lat="49.13737" lon="-1.34041">
        <ele>60.780174</ele>
        <time>2015-06-04T09:39:51Z</time>
      </trkpt>
      <trkpt lat="49.13737" lon="-1.34041">
        <ele>60.780174</ele>
        <time>2015-06-04T09:39:56Z</time>
      </trkpt>
      <trkpt lat="49.13732" lon="-1.34036">
        <ele>60.972034</ele>
        <time>2015-06-04T09:40:01Z</time>
      </trkpt>
      <trkpt lat="49.13728" lon="-1.34029">
        <ele>60.972034</ele>
        <time>2015-06-04T09:40:06Z</time>
      </trkpt>
      <trkpt lat="49.13725" lon="-1.34019">
        <ele>61.32185</ele>
        <time>2015-06-04T09:40:11Z</time>
      </trkpt>
      <trkpt lat="49.1372" lon="-1.34011">
        <ele>61.32185</ele>
        <time>2015-06-04T09:40:16Z</time>
      </trkpt>
      <trkpt lat="49.13713" lon="-1.34005">
        <ele>61.613422</ele>
        <time>2015-06-04T09:40:21Z</time>
      </trkpt>
      <trkpt lat="49.1371" lon="-1.33999">
        <ele>61.613422</ele>
        <time>2015-06-04T09:40:26Z</time>
      </trkpt>
      <trkpt lat="49.13707" lon="-1.33994">
        <ele>61.819717</ele>
        <time>2015-06-04T09:40:31Z</time>
      </trkpt>
      <trkpt lat="49.13703" lon="-1.33984">
        <ele>61.819717</ele>
        <time>2015-06-04T09:40:36Z</time>
      </trkpt>
      <trkpt lat="49.13698" lon="-1.33978">
        <ele>61.786137</ele>
        <time>2015-06-04T09:40:41Z</time>
      </trkpt>
      <trkpt lat="49.13692" lon="-1.33968">
        <ele>61.786137</ele>
        <time>2015-06-04T09:40:46Z</time>
      </trkpt>
      <trkpt lat="49.13689" lon="-1.33963">
        <ele>61.4567</ele>
        <time>2015-06-04T09:40:51Z</time>
      </trkpt>
      <trkpt lat="49.13683" lon="-1.33957">
        <ele>61.4567</ele>
        <time>2015-06-04T09:40:56Z</time>
      </trkpt>
      <trkpt lat="49.13678" lon="-1.33951">
        <ele>60.99674</ele>
        <time>2015-06-04T09:41:01Z</time>
      </trkpt>
      <trkpt lat="49.13673" lon="-1.33945">
        <ele>60.99674</ele>
        <time>2015-06-04T09:41:06Z</time>
      </trkpt>
      <trkpt lat="49.13669" lon="-1.3394">
        <ele>60.50212</ele>
        <time>2015-06-04T09:41:11Z</time>
      </trkpt>
      <trkpt lat="49.13664" lon="-1.33934">
        <ele>60.50212</ele>
        <time>2015-06-04T09:41:16Z</time>
      </trkpt>
      <trkpt lat="49.13658" lon="-1.33929">
        <ele>60.07618</ele>
        <time>2015-06-04T09:41:21Z</time>
      </trkpt>
      <trkpt lat="49.13653" lon="-1.33929">
        <ele>60.07618</ele>
        <time>2015-06-04T09:41:26Z</time>
      </trkpt>
      <trkpt lat="49.1365" lon="-1.33927">
        <ele>59.713535</ele>
        <time>2015-06-04T09:41:31Z</time>
      </trkpt>
      <trkpt lat="49.13644" lon="-1.33921">
        <ele>59.713535</ele>
        <time>2015-06-04T09:41:36Z</time>
      </trkpt>
      <trkpt lat="49.13642" lon="-1.33915">
        <ele>59.351353</ele>
        <time>2015-06-04T09:41:41Z</time>
      </trkpt>
      <trkpt lat="49.13641" lon="-1.33911">
        <ele>59.351353</ele>
        <time>2015-06-04T09:41:46Z</time>
      </trkpt>
      <trkpt lat="49.1364" lon="-1.33906">
        <ele>59.351353</ele>
        <time>2015-06-04T09:41:51Z</time>
      </trkpt>
      <trkpt lat="49.13637" lon="-1.33902">
        <ele>58.657497</ele>
        <time>2015-06-04T09:41:56Z</time>
      </trkpt>
      <trkpt lat="49.13636" lon="-1.33901">
        <ele>58.657497</ele>
        <time>2015-06-04T09:42:01Z</time>
      </trkpt>
      <trkpt lat="49.13634" lon="-1.339">
        <ele>58.657497</ele>
        <time>2015-06-04T09:42:06Z</time>
      </trkpt>
      <trkpt lat="49.13632" lon="-1.33899">
        <ele>58.657497</ele>
        <time>2015-06-04T09:42:11Z</time>
      </trkpt>
      <trkpt lat="49.13627" lon="-1.33889">
        <ele>57.6857</ele>
        <time>2015-06-04T09:42:16Z</time>
      </trkpt>
      <trkpt lat="49.13625" lon="-1.3389">
        <ele>57.6857</ele>
        <time>2015-06-04T09:42:21Z</time>
      </trkpt>
      <trkpt lat="49.13623" lon="-1.33886">
        <ele>57.6857</ele>
        <time>2015-06-04T09:42:26Z</time>
      </trkpt>
      <trkpt lat="49.13622" lon="-1.33886">
        <ele>57.6857</ele>
        <time>2015-06-04T09:42:31Z</time>
      </trkpt>
      <trkpt lat="49.1362" lon="-1.33883">
        <ele>57.6857</ele>
        <time>2015-06-04T09:42:36Z</time>
      </trkpt>
      <trkpt lat="49.13622" lon="-1.33881">
        <ele>56.947887</ele>
        <time>2015-06-04T09:42:41Z</time>
      </trkpt>
      <trkpt lat="49.13622" lon="-1.33879">
        <ele>56.947887</ele>
        <time>2015-06-04T09:42:46Z</time>
      </trkpt>
      <trkpt lat="49.13622" lon="-1.33881">
        <ele>56.947887</ele>
        <time>2015-06-04T09:42:51Z</time>
      </trkpt>
      <trkpt lat="49.13623" lon="-1.33886">
        <ele>56.947887</ele>
        <time>2015-06-04T09:42:56Z</time>
      </trkpt>
      <trkpt lat="49.13624" lon="-1.33888">
        <ele>56.947887</ele>
        <time>2015-06-04T09:43:01Z</time>
      </trkpt>
      <trkpt lat="49.13627" lon="-1.33891">
        <ele>56.57162</ele>
        <time>2015-06-04T09:43:06Z</time>
      </trkpt>
      <trkpt lat="49.1363" lon="-1.3389">
        <ele>56.57162</ele>
        <time>2015-06-04T09:43:11Z</time>
      </trkpt>
      <trkpt lat="49.13631" lon="-1.33895">
        <ele>56.57162</ele>
        <time>2015-06-04T09:43:16Z</time>
      </trkpt>
      <trkpt lat="49.13632" lon="-1.33897">
        <ele>56.57162</ele>
        <time>2015-06-04T09:43:21Z</time>
      </trkpt>
      <trkpt lat="49.13634" lon="-1.33897">
        <ele>56.299263</ele>
        <time>2015-06-04T09:43:26Z</time>
      </trkpt>
      <trkpt lat="49.13637" lon="-1.33902">
        <ele>56.299263</ele>
        <time>2015-06-04T09:43:31Z</time>
      </trkpt>
      <trkpt lat="49.13641" lon="-1.33909">
        <ele>56.12251</ele>
        <time>2015-06-04T09:43:36Z</time>
      </trkpt>
      <trkpt lat="49.13642" lon="-1.33916">
        <ele>56.12251</ele>
        <time>2015-06-04T09:43:41Z</time>
      </trkpt>
      <trkpt lat="49.13645" lon="-1.33924">
        <ele>55.71629</ele>
        <time>2015-06-04T09:43:46Z</time>
      </trkpt>
      <trkpt lat="49.13651" lon="-1.33925">
        <ele>55.71629</ele>
        <time>2015-06-04T09:43:51Z</time>
      </trkpt>
      <trkpt lat="49.13656" lon="-1.33928">
        <ele>55.29903</ele>
        <time>2015-06-04T09:43:56Z</time>
      </trkpt>
      <trkpt lat="49.13661" lon="-1.3393">
        <ele>55.29903</ele>
        <time>2015-06-04T09:44:01Z</time>
      </trkpt>
      <trkpt lat="49.13664" lon="-1.33933">
        <ele>55.29903</ele>
        <time>2015-06-04T09:44:06Z</time>
      </trkpt>
      <trkpt lat="49.1367" lon="-1.3394">
        <ele>54.885735</ele>
        <time>2015-06-04T09:44:11Z</time>
      </trkpt>
      <trkpt lat="49.13675" lon="-1.33947">
        <ele>54.885735</ele>
        <time>2015-06-04T09:44:16Z</time>
      </trkpt>
      <trkpt lat="49.13677" lon="-1.3395">
        <ele>54.576794</ele>
        <time>2015-06-04T09:44:21Z</time>
      </trkpt>
      <trkpt lat="49.13684" lon="-1.33957">
        <ele>54.576794</ele>
        <time>2015-06-04T09:44:26Z</time>
      </trkpt>
      <trkpt lat="49.13688" lon="-1.33962">
        <ele>54.421688</ele>
        <time>2015-06-04T09:44:31Z</time>
      </trkpt>
      <trkpt lat="49.13692" lon="-1.33969">
        <ele>54.421688</ele>
        <time>2015-06-04T09:44:36Z</time>
      </trkpt>
      <trkpt lat="49.13696" lon="-1.33973">
        <ele>54.393787</ele>
        <time>2015-06-04T09:44:41Z</time>
      </trkpt>
      <trkpt lat="49.13699" lon="-1.3398">
        <ele>54.393787</ele>
        <time>2015-06-04T09:44:46Z</time>
      </trkpt>
      <trkpt lat="49.13702" lon="-1.33984">
        <ele>54.396004</ele>
        <time>2015-06-04T09:44:51Z</time>
      </trkpt>
      <trkpt lat="49.13709" lon="-1.33995">
        <ele>54.424812</ele>
        <time>2015-06-04T09:44:56Z</time>
      </trkpt>
      <trkpt lat="49.13714" lon="-1.34005">
        <ele>54.424812</ele>
        <time>2015-06-04T09:45:01Z</time>
      </trkpt>
      <trkpt lat="49.13718" lon="-1.34011">
        <ele>54.67864</ele>
        <time>2015-06-04T09:45:06Z</time>
      </trkpt>
      <trkpt lat="49.1372" lon="-1.34017">
        <ele>54.67864</ele>
        <time>2015-06-04T09:45:11Z</time>
      </trkpt>
      <trkpt lat="49.13725" lon="-1.34025">
        <ele>55.196617</ele>
        <time>2015-06-04T09:45:16Z</time>
      </trkpt>
      <trkpt lat="49.13728" lon="-1.34031">
        <ele>55.196617</ele>
        <time>2015-06-04T09:45:21Z</time>
      </trkpt>
      <trkpt lat="49.13732" lon="-1.34039">
        <ele>55.87017</ele>
        <time>2015-06-04T09:45:26Z</time>
      </trkpt>
      <trkpt lat="49.13739" lon="-1.34046">
        <ele>55.87017</ele>
        <time>2015-06-04T09:45:31Z</time>
      </trkpt>
      <trkpt lat="49.13743" lon="-1.34045">
        <ele>56.68477</ele>
        <time>2015-06-04T09:45:36Z</time>
      </trkpt>
      <trkpt lat="49.13747" lon="-1.34037">
        <ele>56.68477</ele>
        <time>2015-06-04T09:45:41Z</time>
      </trkpt>
      <trkpt lat="49.13752" lon="-1.3403">
        <ele>57.568947</ele>
        <time>2015-06-04T09:45:46Z</time>
      </trkpt>
      <trkpt lat="49.13757" lon="-1.34021">
        <ele>57.568947</ele>
        <time>2015-06-04T09:45:51Z</time>
      </trkpt>
      <trkpt lat="49.13761" lon="-1.34015">
        <ele>58.47076</ele>
        <time>2015-06-04T09:45:56Z</time>
      </trkpt>
      <trkpt lat="49.13766" lon="-1.34006">
        <ele>58.47076</ele>
        <time>2015-06-04T09:46:01Z</time>
      </trkpt>
      <trkpt lat="49.13769" lon="-1.33998">
        <ele>59.313263</ele>
        <time>2015-06-04T09:46:06Z</time>
      </trkpt>
      <trkpt lat="49.13773" lon="-1.33992">
        <ele>59.313263</ele>
        <time>2015-06-04T09:46:11Z</time>
      </trkpt>
      <trkpt lat="49.13777" lon="-1.33981">
        <ele>60.068615</ele>
        <time>2015-06-04T09:46:16Z</time>
      </trkpt>
      <trkpt lat="49.13781" lon="-1.33971">
        <ele>60.068615</ele>
        <time>2015-06-04T09:46:21Z</time>
      </trkpt>
      <trkpt lat="49.13785" lon="-1.33962">
        <ele>60.7978</ele>
        <time>2015-06-04T09:46:26Z</time>
      </trkpt>
      <trkpt lat="49.13788" lon="-1.33952">
        <ele>60.7978</ele>
        <time>2015-06-04T09:46:31Z</time>
      </trkpt>
      <trkpt lat="49.13792" lon="-1.33943">
        <ele>61.514233</ele>
        <time>2015-06-04T09:46:36Z</time>
      </trkpt>
      <trkpt lat="49.13796" lon="-1.33934">
        <ele>61.514233</ele>
        <time>2015-06-04T09:46:41Z</time>
      </trkpt>
      <trkpt lat="49.13799" lon="-1.33925">
        <ele>62.27369</ele>
        <time>2015-06-04T09:46:46Z</time>
      </trkpt>
      <trkpt lat="49.13803" lon="-1.33916">
        <ele>62.27369</ele>
        <time>2015-06-04T09:46:51Z</time>
      </trkpt>
      <trkpt lat="49.13806" lon="-1.33906">
        <ele>63.041332</ele>
        <time>2015-06-04T09:46:56Z</time>
      </trkpt>
      <trkpt lat="49.13809" lon="-1.339">
        <ele>63.041332</ele>
        <time>2015-06-04T09:47:01Z</time>
      </trkpt>
      <trkpt lat="49.13815" lon="-1.3389">
        <ele>63.79935</ele>
        <time>2015-06-04T09:47:06Z</time>
      </trkpt>
      <trkpt lat="49.1382" lon="-1.33882">
        <ele>63.79935</ele>
        <time>2015-06-04T09:47:11Z</time>
      </trkpt>
      <trkpt lat="49.13824" lon="-1.33875">
        <ele>64.4593</ele>
        <time>2015-06-04T09:47:16Z</time>
      </trkpt>
      <trkpt lat="49.13829" lon="-1.33867">
        <ele>64.4593</ele>
        <time>2015-06-04T09:47:21Z</time>
      </trkpt>
      <trkpt lat="49.13833" lon="-1.3386">
        <ele>64.96841</ele>
        <time>2015-06-04T09:47:26Z</time>
      </trkpt>
      <trkpt lat="49.13839" lon="-1.33852">
        <ele>64.96841</ele>
        <time>2015-06-04T09:47:31Z</time>
      </trkpt>
      <trkpt lat="49.13844" lon="-1.33844">
        <ele>65.39358</ele>
        <time>2015-06-04T09:47:36Z</time>
      </trkpt>
      <trkpt lat="49.13848" lon="-1.33837">
        <ele>65.39358</ele>
        <time>2015-06-04T09:47:41Z</time>
      </trkpt>
      <trkpt lat="49.13853" lon="-1.3383">
        <ele>65.7827</ele>
        <time>2015-06-04T09:47:46Z</time>
      </trkpt>
      <trkpt lat="49.13858" lon="-1.33823">
        <ele>65.7827</ele>
        <time>2015-06-04T09:47:51Z</time>
      </trkpt>
      <trkpt lat="49.13863" lon="-1.33814">
        <ele>66.16593</ele>
        <time>2015-06-04T09:47:56Z</time>
      </trkpt>
      <trkpt lat="49.13868" lon="-1.33808">
        <ele>66.16593</ele>
        <time>2015-06-04T09:48:01Z</time>
      </trkpt>
      <trkpt lat="49.13873" lon="-1.33801">
        <ele>66.54248</ele>
        <time>2015-06-04T09:48:06Z</time>
      </trkpt>
      <trkpt lat="49.13876" lon="-1.33796">
        <ele>66.54248</ele>
        <time>2015-06-04T09:48:11Z</time>
      </trkpt>
      <trkpt lat="49.1388" lon="-1.33788">
        <ele>66.94053</ele>
        <time>2015-06-04T09:48:16Z</time>
      </trkpt>
      <trkpt lat="49.13886" lon="-1.33778">
        <ele>66.94053</ele>
        <time>2015-06-04T09:48:21Z</time>
      </trkpt>
      <trkpt lat="49.13891" lon="-1.33771">
        <ele>67.285324</ele>
        <time>2015-06-04T09:48:26Z</time>
      </trkpt>
      <trkpt lat="49.13895" lon="-1.33765">
        <ele>67.285324</ele>
        <time>2015-06-04T09:48:31Z</time>
      </trkpt>
      <trkpt lat="49.139" lon="-1.33757">
        <ele>67.637535</ele>
        <time>2015-06-04T09:48:36Z</time>
      </trkpt>
      <trkpt lat="49.13904" lon="-1.3375">
        <ele>67.637535</ele>
        <time>2015-06-04T09:48:41Z</time>
      </trkpt>
      <trkpt lat="49.13908" lon="-1.33743">
        <ele>67.9093</ele>
        <time>2015-06-04T09:48:46Z</time>
      </trkpt>
      <trkpt lat="49.13912" lon="-1.33734">
        <ele>67.9093</ele>
        <time>2015-06-04T09:48:51Z</time>
      </trkpt>
      <trkpt lat="49.13915" lon="-1.33727">
        <ele>68.04834</ele>
        <time>2015-06-04T09:48:56Z</time>
      </trkpt>
      <trkpt lat="49.13919" lon="-1.3372">
        <ele>68.04834</ele>
        <time>2015-06-04T09:49:01Z</time>
      </trkpt>
      <trkpt lat="49.13924" lon="-1.33711">
        <ele>68.04987</ele>
        <time>2015-06-04T09:49:06Z</time>
      </trkpt>
      <trkpt lat="49.13928" lon="-1.33704">
        <ele>68.04987</ele>
        <time>2015-06-04T09:49:11Z</time>
      </trkpt>
      <trkpt lat="49.13933" lon="-1.33695">
        <ele>67.981964</ele>
        <time>2015-06-04T09:49:16Z</time>
      </trkpt>
      <trkpt lat="49.13936" lon="-1.33689">
        <ele>67.981964</ele>
        <time>2015-06-04T09:49:21Z</time>
      </trkpt>
      <trkpt lat="49.13941" lon="-1.33681">
        <ele>67.8503</ele>
        <time>2015-06-04T09:49:26Z</time>
      </trkpt>
      <trkpt lat="49.13944" lon="-1.33672">
        <ele>67.8503</ele>
        <time>2015-06-04T09:49:31Z</time>
      </trkpt>
      <trkpt lat="49.13946" lon="-1.33664">
        <ele>67.631546</ele>
        <time>2015-06-04T09:49:36Z</time>
      </trkpt>
      <trkpt lat="49.13944" lon="-1.33653">
        <ele>67.631546</ele>
        <time>2015-06-04T09:49:41Z</time>
      </trkpt>
      <trkpt lat="49.13941" lon="-1.33646">
        <ele>67.362</ele>
        <time>2015-06-04T09:49:46Z</time>
      </trkpt>
      <trkpt lat="49.13936" lon="-1.3364">
        <ele>67.362</ele>
        <time>2015-06-04T09:49:51Z</time>
      </trkpt>
      <trkpt lat="49.13932" lon="-1.33635">
        <ele>67.075485</ele>
        <time>2015-06-04T09:49:56Z</time>
      </trkpt>
      <trkpt lat="49.13926" lon="-1.33629">
        <ele>67.075485</ele>
        <time>2015-06-04T09:50:01Z</time>
      </trkpt>
      <trkpt lat="49.13922" lon="-1.33621">
        <ele>66.803406</ele>
        <time>2015-06-04T09:50:06Z</time>
      </trkpt>
      <trkpt lat="49.13917" lon="-1.33616">
        <ele>66.803406</ele>
        <time>2015-06-04T09:50:11Z</time>
      </trkpt>
      <trkpt lat="49.13912" lon="-1.33611">
        <ele>66.546036</ele>
        <time>2015-06-04T09:50:16Z</time>
      </trkpt>
      <trkpt lat="49.13908" lon="-1.33605">
        <ele>66.546036</ele>
        <time>2015-06-04T09:50:21Z</time>
      </trkpt>
      <trkpt lat="49.13902" lon="-1.33598">
        <ele>66.274765</ele>
        <time>2015-06-04T09:50:26Z</time>
      </trkpt>
      <trkpt lat="49.13897" lon="-1.33592">
        <ele>66.274765</ele>
        <time>2015-06-04T09:50:31Z</time>
      </trkpt>
      <trkpt lat="49.13892" lon="-1.33584">
        <ele>66.020775</ele>
        <time>2015-06-04T09:50:36Z</time>
      </trkpt>
      <trkpt lat="49.13887" lon="-1.33578">
        <ele>66.020775</ele>
        <time>2015-06-04T09:50:41Z</time>
      </trkpt>
      <trkpt lat="49.13885" lon="-1.33571">
        <ele>65.769714</ele>
        <time>2015-06-04T09:50:46Z</time>
      </trkpt>
      <trkpt lat="49.1388" lon="-1.33564">
        <ele>65.769714</ele>
        <time>2015-06-04T09:50:51Z</time>
      </trkpt>
      <trkpt lat="49.13875" lon="-1.33558">
        <ele>65.45059</ele>
        <time>2015-06-04T09:50:56Z</time>
      </trkpt>
      <trkpt lat="49.1387" lon="-1.33551">
        <ele>65.45059</ele>
        <time>2015-06-04T09:51:01Z</time>
      </trkpt>
      <trkpt lat="49.13866" lon="-1.33543">
        <ele>65.01227</ele>
        <time>2015-06-04T09:51:06Z</time>
      </trkpt>
      <trkpt lat="49.13862" lon="-1.33538">
        <ele>65.01227</ele>
        <time>2015-06-04T09:51:11Z</time>
      </trkpt>
      <trkpt lat="49.13857" lon="-1.33531">
        <ele>64.37884</ele>
        <time>2015-06-04T09:51:16Z</time>
      </trkpt>
      <trkpt lat="49.13854" lon="-1.33525">
        <ele>64.37884</ele>
        <time>2015-06-04T09:51:21Z</time>
      </trkpt>
      <trkpt lat="49.1385" lon="-1.33517">
        <ele>63.754333</ele>
        <time>2015-06-04T09:51:26Z</time>
      </trkpt>
      <trkpt lat="49.13846" lon="-1.33509">
        <ele>63.754333</ele>
        <time>2015-06-04T09:51:31Z</time>
      </trkpt>
      <trkpt lat="49.13841" lon="-1.33501">
        <ele>63.212475</ele>
        <time>2015-06-04T09:51:36Z</time>
      </trkpt>
      <trkpt lat="49.13837" lon="-1.33494">
        <ele>63.212475</ele>
        <time>2015-06-04T09:51:41Z</time>
      </trkpt>
      <trkpt lat="49.13832" lon="-1.33487">
        <ele>62.734825</ele>
        <time>2015-06-04T09:51:46Z</time>
      </trkpt>
      <trkpt lat="49.13828" lon="-1.33479">
        <ele>62.734825</ele>
        <time>2015-06-04T09:51:51Z</time>
      </trkpt>
      <trkpt lat="49.13823" lon="-1.33471">
        <ele>62.36175</ele>
        <time>2015-06-04T09:51:56Z</time>
      </trkpt>
      <trkpt lat="49.13821" lon="-1.33462">
        <ele>62.36175</ele>
        <time>2015-06-04T09:52:01Z</time>
      </trkpt>
      <trkpt lat="49.13818" lon="-1.33455">
        <ele>62.04386</ele>
        <time>2015-06-04T09:52:06Z</time>
      </trkpt>
      <trkpt lat="49.13815" lon="-1.33446">
        <ele>62.04386</ele>
        <time>2015-06-04T09:52:11Z</time>
      </trkpt>
      <trkpt lat="49.1381" lon="-1.3344">
        <ele>61.76403</ele>
        <time>2015-06-04T09:52:16Z</time>
      </trkpt>
      <trkpt lat="49.13806" lon="-1.33432">
        <ele>61.76403</ele>
        <time>2015-06-04T09:52:21Z</time>
      </trkpt>
      <trkpt lat="49.13804" lon="-1.33424">
        <ele>61.491837</ele>
        <time>2015-06-04T09:52:26Z</time>
      </trkpt>
      <trkpt lat="49.13798" lon="-1.33415">
        <ele>61.491837</ele>
        <time>2015-06-04T09:52:31Z</time>
      </trkpt>
      <trkpt lat="49.13794" lon="-1.33408">
        <ele>61.155796</ele>
        <time>2015-06-04T09:52:36Z</time>
      </trkpt>
      <trkpt lat="49.1379" lon="-1.33401">
        <ele>61.155796</ele>
        <time>2015-06-04T09:52:41Z</time>
      </trkpt>
      <trkpt lat="49.13786" lon="-1.33395">
        <ele>60.776295</ele>
        <time>2015-06-04T09:52:46Z</time>
      </trkpt>
      <trkpt lat="49.13783" lon="-1.33387">
        <ele>60.776295</ele>
        <time>2015-06-04T09:52:51Z</time>
      </trkpt>
      <trkpt lat="49.13777" lon="-1.3338">
        <ele>60.329063</ele>
        <time>2015-06-04T09:52:56Z</time>
      </trkpt>
      <trkpt lat="49.13772" lon="-1.33373">
        <ele>60.329063</ele>
        <time>2015-06-04T09:53:01Z</time>
      </trkpt>
      <trkpt lat="49.13768" lon="-1.33367">
        <ele>59.806183</ele>
        <time>2015-06-04T09:53:06Z</time>
      </trkpt>
      <trkpt lat="49.13763" lon="-1.33362">
        <ele>59.806183</ele>
        <time>2015-06-04T09:53:11Z</time>
      </trkpt>
      <trkpt lat="49.13758" lon="-1.33356">
        <ele>59.2149</ele>
        <time>2015-06-04T09:53:16Z</time>
      </trkpt>
      <trkpt lat="49.13754" lon="-1.33351">
        <ele>59.2149</ele>
        <time>2015-06-04T09:53:21Z</time>
      </trkpt>
      <trkpt lat="49.13749" lon="-1.33347">
        <ele>58.63413</ele>
        <time>2015-06-04T09:53:26Z</time>
      </trkpt>
      <trkpt lat="49.13743" lon="-1.3334">
        <ele>58.63413</ele>
        <time>2015-06-04T09:53:31Z</time>
      </trkpt>
      <trkpt lat="49.13737" lon="-1.33334">
        <ele>58.093678</ele>
        <time>2015-06-04T09:53:36Z</time>
      </trkpt>
      <trkpt lat="49.13732" lon="-1.3333">
        <ele>58.093678</ele>
        <time>2015-06-04T09:53:41Z</time>
      </trkpt>
      <trkpt lat="49.13726" lon="-1.33326">
        <ele>57.534542</ele>
        <time>2015-06-04T09:53:46Z</time>
      </trkpt>
      <trkpt lat="49.13722" lon="-1.33323">
        <ele>57.534542</ele>
        <time>2015-06-04T09:53:51Z</time>
      </trkpt>
      <trkpt lat="49.13716" lon="-1.33318">
        <ele>56.9597</ele>
        <time>2015-06-04T09:53:56Z</time>
      </trkpt>
      <trkpt lat="49.13711" lon="-1.33314">
        <ele>56.9597</ele>
        <time>2015-06-04T09:54:01Z</time>
      </trkpt>
      <trkpt lat="49.13706" lon="-1.33311">
        <ele>56.256622</ele>
        <time>2015-06-04T09:54:06Z</time>
      </trkpt>
      <trkpt lat="49.13699" lon="-1.33307">
        <ele>56.256622</ele>
        <time>2015-06-04T09:54:11Z</time>
      </trkpt>
      <trkpt lat="49.13691" lon="-1.33302">
        <ele>55.50869</ele>
        <time>2015-06-04T09:54:16Z</time>
      </trkpt>
      <trkpt lat="49.13682" lon="-1.33299">
        <ele>55.50869</ele>
        <time>2015-06-04T09:54:21Z</time>
      </trkpt>
      <trkpt lat="49.13676" lon="-1.33299">
        <ele>54.836468</ele>
        <time>2015-06-04T09:54:26Z</time>
      </trkpt>
      <trkpt lat="49.13669" lon="-1.33298">
        <ele>54.836468</ele>
        <time>2015-06-04T09:54:31Z</time>
      </trkpt>
      <trkpt lat="49.1366" lon="-1.33298">
        <ele>54.17847</ele>
        <time>2015-06-04T09:54:36Z</time>
      </trkpt>
      <trkpt lat="49.13655" lon="-1.33297">
        <ele>54.17847</ele>
        <time>2015-06-04T09:54:41Z</time>
      </trkpt>
      <trkpt lat="49.13649" lon="-1.333">
        <ele>53.62174</ele>
        <time>2015-06-04T09:54:46Z</time>
      </trkpt>
      <trkpt lat="49.13642" lon="-1.333">
        <ele>53.62174</ele>
        <time>2015-06-04T09:54:51Z</time>
      </trkpt>
      <trkpt lat="49.13635" lon="-1.33301">
        <ele>53.217762</ele>
        <time>2015-06-04T09:54:56Z</time>
      </trkpt>
      <trkpt lat="49.13628" lon="-1.33304">
        <ele>53.217762</ele>
        <time>2015-06-04T09:55:01Z</time>
      </trkpt>
      <trkpt lat="49.13621" lon="-1.33307">
        <ele>52.941704</ele>
        <time>2015-06-04T09:55:06Z</time>
      </trkpt>
      <trkpt lat="49.13616" lon="-1.33307">
        <ele>52.941704</ele>
        <time>2015-06-04T09:55:11Z</time>
      </trkpt>
      <trkpt lat="49.1361" lon="-1.33308">
        <ele>52.813385</ele>
        <time>2015-06-04T09:55:16Z</time>
      </trkpt>
      <trkpt lat="49.13604" lon="-1.33309">
        <ele>52.813385</ele>
        <time>2015-06-04T09:55:21Z</time>
      </trkpt>
      <trkpt lat="49.13598" lon="-1.3331">
        <ele>52.648933</ele>
        <time>2015-06-04T09:55:26Z</time>
      </trkpt>
      <trkpt lat="49.13591" lon="-1.33311">
        <ele>52.648933</ele>
        <time>2015-06-04T09:55:31Z</time>
      </trkpt>
      <trkpt lat="49.13584" lon="-1.33311">
        <ele>52.523045</ele>
        <time>2015-06-04T09:55:36Z</time>
      </trkpt>
      <trkpt lat="49.13579" lon="-1.33311">
        <ele>52.523045</ele>
        <time>2015-06-04T09:55:41Z</time>
      </trkpt>
      <trkpt lat="49.13572" lon="-1.3331">
        <ele>52.533585</ele>
        <time>2015-06-04T09:55:46Z</time>
      </trkpt>
      <trkpt lat="49.13569" lon="-1.33306">
        <ele>52.533585</ele>
        <time>2015-06-04T09:55:51Z</time>
      </trkpt>
      <trkpt lat="49.13563" lon="-1.333">
        <ele>52.511417</ele>
        <time>2015-06-04T09:55:56Z</time>
      </trkpt>
      <trkpt lat="49.1356" lon="-1.33295">
        <ele>52.511417</ele>
        <time>2015-06-04T09:56:01Z</time>
      </trkpt>
      <trkpt lat="49.13558" lon="-1.33288">
        <ele>52.415176</ele>
        <time>2015-06-04T09:56:06Z</time>
      </trkpt>
      <trkpt lat="49.13558" lon="-1.33284">
        <ele>52.415176</ele>
        <time>2015-06-04T09:56:11Z</time>
      </trkpt>
      <trkpt lat="49.13558" lon="-1.33282">
        <ele>52.415176</ele>
        <time>2015-06-04T09:56:16Z</time>
      </trkpt>
      <trkpt lat="49.13557" lon="-1.33281">
        <ele>52.415176</ele>
        <time>2015-06-04T09:56:21Z</time>
      </trkpt>
      <trkpt lat="49.13556" lon="-1.33281">
        <ele>52.415176</ele>
        <time>2015-06-04T09:56:26Z</time>
      </trkpt>
      <trkpt lat="49.13556" lon="-1.33283">
        <ele>52.415176</ele>
        <time>2015-06-04T09:56:31Z</time>
      </trkpt>
      <trkpt lat="49.13555" lon="-1.33283">
        <ele>52.415176</ele>
        <time>2015-06-04T09:56:36Z</time>
      </trkpt>
      <trkpt lat="49.13557" lon="-1.33284">
        <ele>52.415176</ele>
        <time>2015-06-04T09:56:41Z</time>
      </trkpt>
      <trkpt lat="49.13558" lon="-1.33284">
        <ele>51.976124</ele>
        <time>2015-06-04T09:56:46Z</time>
      </trkpt>
      <trkpt lat="49.13558" lon="-1.33285">
        <ele>51.976124</ele>
        <time>2015-06-04T09:56:51Z</time>
      </trkpt>
      <trkpt lat="49.13558" lon="-1.33287">
        <ele>51.976124</ele>
        <time>2015-06-04T09:56:56Z</time>
      </trkpt>
      <trkpt lat="49.13558" lon="-1.33289">
        <ele>51.976124</ele>
        <time>2015-06-04T09:57:01Z</time>
      </trkpt>
      <trkpt lat="49.13558" lon="-1.33287">
        <ele>51.976124</ele>
        <time>2015-06-04T09:57:06Z</time>
      </trkpt>
      <trkpt lat="49.13558" lon="-1.33286">
        <ele>51.976124</ele>
        <time>2015-06-04T09:57:11Z</time>
      </trkpt>
      <trkpt lat="49.13557" lon="-1.33284">
        <ele>51.976124</ele>
        <time>2015-06-04T09:57:16Z</time>
      </trkpt>
      <trkpt lat="49.13557" lon="-1.33276">
        <ele>51.436184</ele>
        <time>2015-06-04T09:57:21Z</time>
      </trkpt>
      <trkpt lat="49.13555" lon="-1.33275">
        <ele>51.436184</ele>
        <time>2015-06-04T09:57:26Z</time>
      </trkpt>
      <trkpt lat="49.13553" lon="-1.33274">
        <ele>51.436184</ele>
        <time>2015-06-04T09:57:31Z</time>
      </trkpt>
      <trkpt lat="49.13554" lon="-1.33275">
        <ele>51.436184</ele>
        <time>2015-06-04T09:57:36Z</time>
      </trkpt>
      <trkpt lat="49.13552" lon="-1.3327">
        <ele>51.436184</ele>
        <time>2015-06-04T09:57:41Z</time>
      </trkpt>
      <trkpt lat="49.1355" lon="-1.33266">
        <ele>50.96212</ele>
        <time>2015-06-04T09:57:46Z</time>
      </trkpt>
      <trkpt lat="49.13549" lon="-1.33262">
        <ele>50.96212</ele>
        <time>2015-06-04T09:57:51Z</time>
      </trkpt>
      <trkpt lat="49.13549" lon="-1.33265">
        <ele>50.96212</ele>
        <time>2015-06-04T09:57:56Z</time>
      </trkpt>
      <trkpt lat="49.13551" lon="-1.33266">
        <ele>50.96212</ele>
        <time>2015-06-04T09:58:01Z</time>
      </trkpt>
      <trkpt lat="49.13552" lon="-1.33264">
        <ele>50.96212</ele>
        <time>2015-06-04T09:58:06Z</time>
      </trkpt>
      <trkpt lat="49.13553" lon="-1.33265">
        <ele>50.96212</ele>
        <time>2015-06-04T09:58:11Z</time>
      </trkpt>
      <trkpt lat="49.13554" lon="-1.33265">
        <ele>50.679405</ele>
        <time>2015-06-04T09:58:16Z</time>
      </trkpt>
      <trkpt lat="49.13555" lon="-1.33266">
        <ele>50.679405</ele>
        <time>2015-06-04T09:58:21Z</time>
      </trkpt>
      <trkpt lat="49.13554" lon="-1.33266">
        <ele>50.679405</ele>
        <time>2015-06-04T09:58:26Z</time>
      </trkpt>
      <trkpt lat="49.13553" lon="-1.33266">
        <ele>50.679405</ele>
        <time>2015-06-04T09:58:31Z</time>
      </trkpt>
      <trkpt lat="49.13554" lon="-1.33265">
        <ele>50.679405</ele>
        <time>2015-06-04T09:58:36Z</time>
      </trkpt>
      <trkpt lat="49.13557" lon="-1.33263">
        <ele>50.679405</ele>
        <time>2015-06-04T09:58:41Z</time>
      </trkpt>
      <trkpt lat="49.13558" lon="-1.3326">
        <ele>50.57404</ele>
        <time>2015-06-04T09:58:46Z</time>
      </trkpt>
      <trkpt lat="49.13557" lon="-1.33255">
        <ele>50.57404</ele>
        <time>2015-06-04T09:58:51Z</time>
      </trkpt>
      <trkpt lat="49.13553" lon="-1.33246">
        <ele>50.416355</ele>
        <time>2015-06-04T09:58:56Z</time>
      </trkpt>
      <trkpt lat="49.1355" lon="-1.33237">
        <ele>50.416355</ele>
        <time>2015-06-04T09:59:01Z</time>
      </trkpt>
      <trkpt lat="49.13548" lon="-1.33227">
        <ele>50.209858</ele>
        <time>2015-06-04T09:59:06Z</time>
      </trkpt>
      <trkpt lat="49.13544" lon="-1.33215">
        <ele>50.209858</ele>
        <time>2015-06-04T09:59:11Z</time>
      </trkpt>
      <trkpt lat="49.13544" lon="-1.33207">
        <ele>50.015553</ele>
        <time>2015-06-04T09:59:16Z</time>
      </trkpt>
      <trkpt lat="49.13544" lon="-1.33198">
        <ele>50.015553</ele>
        <time>2015-06-04T09:59:21Z</time>
      </trkpt>
      <trkpt lat="49.13544" lon="-1.33193">
        <ele>49.78903</ele>
        <time>2015-06-04T09:59:26Z</time>
      </trkpt>
      <trkpt lat="49.13541" lon="-1.33187">
        <ele>49.78903</ele>
        <time>2015-06-04T09:59:31Z</time>
      </trkpt>
      <trkpt lat="49.13538" lon="-1.33181">
        <ele>49.330696</ele>
        <time>2015-06-04T09:59:36Z</time>
      </trkpt>
      <trkpt lat="49.13534" lon="-1.33174">
        <ele>49.330696</ele>
        <time>2015-06-04T09:59:41Z</time>
      </trkpt>
      <trkpt lat="49.13529" lon="-1.33166">
        <ele>48.70126</ele>
        <time>2015-06-04T09:59:46Z</time>
      </trkpt>
      <trkpt lat="49.13524" lon="-1.3316">
        <ele>48.70126</ele>
        <time>2015-06-04T09:59:51Z</time>
      </trkpt>
      <trkpt lat="49.13519" lon="-1.33154">
        <ele>48.101524</ele>
        <time>2015-06-04T09:59:56Z</time>
      </trkpt>
      <trkpt lat="49.13515" lon="-1.3315">
        <ele>48.101524</ele>
        <time>2015-06-04T10:00:01Z</time>
      </trkpt>
      <trkpt lat="49.13511" lon="-1.33148">
        <ele>48.101524</ele>
        <time>2015-06-04T10:00:06Z</time>
      </trkpt>
      <trkpt lat="49.13508" lon="-1.33149">
        <ele>47.6454</ele>
        <time>2015-06-04T10:00:11Z</time>
      </trkpt>
      <trkpt lat="49.13507" lon="-1.3315">
        <ele>47.6454</ele>
        <time>2015-06-04T10:00:16Z</time>
      </trkpt>
      <trkpt lat="49.13505" lon="-1.3315">
        <ele>47.6454</ele>
        <time>2015-06-04T10:00:21Z</time>
      </trkpt>
      <trkpt lat="49.13499" lon="-1.3315">
        <ele>47.164207</ele>
        <time>2015-06-04T10:00:26Z</time>
      </trkpt>
      <trkpt lat="49.13496" lon="-1.33154">
        <ele>47.164207</ele>
        <time>2015-06-04T10:00:31Z</time>
      </trkpt>
      <trkpt lat="49.13492" lon="-1.33157">
        <ele>47.164207</ele>
        <time>2015-06-04T10:00:36Z</time>
      </trkpt>
      <trkpt lat="49.1349" lon="-1.33159">
        <ele>46.71786</ele>
        <time>2015-06-04T10:00:41Z</time>
      </trkpt>
      <trkpt lat="49.13484" lon="-1.33161">
        <ele>46.71786</ele>
        <time>2015-06-04T10:00:46Z</time>
      </trkpt>
      <trkpt lat="49.1348" lon="-1.33158">
        <ele>46.289715</ele>
        <time>2015-06-04T10:00:51Z</time>
      </trkpt>
      <trkpt lat="49.13477" lon="-1.33148">
        <ele>46.289715</ele>
        <time>2015-06-04T10:00:56Z</time>
      </trkpt>
      <trkpt lat="49.13475" lon="-1.33141">
        <ele>45.90752</ele>
        <time>2015-06-04T10:01:01Z</time>
      </trkpt>
      <trkpt lat="49.13471" lon="-1.33133">
        <ele>45.90752</ele>
        <time>2015-06-04T10:01:06Z</time>
      </trkpt>
      <trkpt lat="49.13467" lon="-1.33124">
        <ele>45.59683</ele>
        <time>2015-06-04T10:01:11Z</time>
      </trkpt>
      <trkpt lat="49.13465" lon="-1.33117">
        <ele>45.59683</ele>
        <time>2015-06-04T10:01:16Z</time>
      </trkpt>
      <trkpt lat="49.13464" lon="-1.33113">
        <ele>45.59683</ele>
        <time>2015-06-04T10:01:21Z</time>
      </trkpt>
      <trkpt lat="49.13463" lon="-1.33103">
        <ele>45.337875</ele>
        <time>2015-06-04T10:01:26Z</time>
      </trkpt>
      <trkpt lat="49.13461" lon="-1.33095">
        <ele>45.337875</ele>
        <time>2015-06-04T10:01:31Z</time>
      </trkpt>
      <trkpt lat="49.13459" lon="-1.33092">
        <ele>45.337875</ele>
        <time>2015-06-04T10:01:36Z</time>
      </trkpt>
      <trkpt lat="49.13458" lon="-1.33084">
        <ele>45.256306</ele>
        <time>2015-06-04T10:01:41Z</time>
      </trkpt>
      <trkpt lat="49.13461" lon="-1.33077">
        <ele>45.256306</ele>
        <time>2015-06-04T10:01:46Z</time>
      </trkpt>
      <trkpt lat="49.13463" lon="-1.33073">
        <ele>45.256306</ele>
        <time>2015-06-04T10:01:51Z</time>
      </trkpt>
      <trkpt lat="49.13463" lon="-1.33067">
        <ele>45.280674</ele>
        <time>2015-06-04T10:01:56Z</time>
      </trkpt>
      <trkpt lat="49.13465" lon="-1.33064">
        <ele>45.280674</ele>
        <time>2015-06-04T10:02:01Z</time>
      </trkpt>
      <trkpt lat="49.13469" lon="-1.33058">
        <ele>45.280674</ele>
        <time>2015-06-04T10:02:06Z</time>
      </trkpt>
      <trkpt lat="49.13476" lon="-1.33052">
        <ele>45.286835</ele>
        <time>2015-06-04T10:02:11Z</time>
      </trkpt>
      <trkpt lat="49.13479" lon="-1.33044">
        <ele>45.286835</ele>
        <time>2015-06-04T10:02:16Z</time>
      </trkpt>
      <trkpt lat="49.1348" lon="-1.33042">
        <ele>45.286835</ele>
        <time>2015-06-04T10:02:21Z</time>
      </trkpt>
      <trkpt lat="49.13482" lon="-1.33038">
        <ele>45.433628</ele>
        <time>2015-06-04T10:02:26Z</time>
      </trkpt>
      <trkpt lat="49.13487" lon="-1.33034">
        <ele>45.433628</ele>
        <time>2015-06-04T10:02:31Z</time>
      </trkpt>
      <trkpt lat="49.13493" lon="-1.33024">
        <ele>45.939877</ele>
        <time>2015-06-04T10:02:36Z</time>
      </trkpt>
      <trkpt lat="49.13497" lon="-1.33015">
        <ele>45.939877</ele>
        <time>2015-06-04T10:02:41Z</time>
      </trkpt>
      <trkpt lat="49.13499" lon="-1.33009">
        <ele>46.661465</ele>
        <time>2015-06-04T10:02:46Z</time>
      </trkpt>
      <trkpt lat="49.13499" lon="-1.33009">
        <ele>46.661465</ele>
        <time>2015-06-04T10:02:51Z</time>
      </trkpt>
      <trkpt lat="49.135" lon="-1.33009">
        <ele>46.661465</ele>
        <time>2015-06-04T10:02:56Z</time>
      </trkpt>
      <trkpt lat="49.13499" lon="-1.33012">
        <ele>46.661465</ele>
        <time>2015-06-04T10:03:01Z</time>
      </trkpt>
      <trkpt lat="49.13499" lon="-1.33012">
        <ele>46.661465</ele>
        <time>2015-06-04T10:03:06Z</time>
      </trkpt>
      <trkpt lat="49.13499" lon="-1.33011">
        <ele>46.661465</ele>
        <time>2015-06-04T10:03:11Z</time>
      </trkpt>
      <trkpt lat="49.13499" lon="-1.33009">
        <ele>46.661465</ele>
        <time>2015-06-04T10:03:16Z</time>
      </trkpt>
      <trkpt lat="49.135" lon="-1.3301">
        <ele>46.661465</ele>
        <time>2015-06-04T10:03:21Z</time>
      </trkpt>
      <trkpt lat="49.13501" lon="-1.3301">
        <ele>46.661465</ele>
        <time>2015-06-04T10:03:26Z</time>
      </trkpt>
      <trkpt lat="49.13503" lon="-1.3301">
        <ele>46.661465</ele>
        <time>2015-06-04T10:03:31Z</time>
      </trkpt>
      <trkpt lat="49.13503" lon="-1.33009">
        <ele>47.911015</ele>
        <time>2015-06-04T10:03:36Z</time>
      </trkpt>
      <trkpt lat="49.13503" lon="-1.3301">
        <ele>47.911015</ele>
        <time>2015-06-04T10:03:41Z</time>
      </trkpt>
      <trkpt lat="49.13502" lon="-1.3301">
        <ele>47.911015</ele>
        <time>2015-06-04T10:03:46Z</time>
      </trkpt>
      <trkpt lat="49.13502" lon="-1.33011">
        <ele>47.911015</ele>
        <time>2015-06-04T10:03:51Z</time>
      </trkpt>
      <trkpt lat="49.13501" lon="-1.33012">
        <ele>47.911015</ele>
        <time>2015-06-04T10:03:56Z</time>
      </trkpt>
      <trkpt lat="49.135" lon="-1.33014">
        <ele>47.911015</ele>
        <time>2015-06-04T10:04:01Z</time>
      </trkpt>
      <trkpt lat="49.135" lon="-1.33013">
        <ele>47.911015</ele>
        <time>2015-06-04T10:04:06Z</time>
      </trkpt>
      <trkpt lat="49.13499" lon="-1.33011">
        <ele>47.911015</ele>
        <time>2015-06-04T10:04:11Z</time>
      </trkpt>
      <trkpt lat="49.13498" lon="-1.33007">
        <ele>49.270576</ele>
        <time>2015-06-04T10:04:16Z</time>
      </trkpt>
      <trkpt lat="49.13499" lon="-1.33006">
        <ele>49.270576</ele>
        <time>2015-06-04T10:04:21Z</time>
      </trkpt>
      <trkpt lat="49.13499" lon="-1.33006">
        <ele>49.270576</ele>
        <time>2015-06-04T10:04:26Z</time>
      </trkpt>
      <trkpt lat="49.13499" lon="-1.33005">
        <ele>49.270576</ele>
        <time>2015-06-04T10:04:31Z</time>
      </trkpt>
      <trkpt lat="49.13499" lon="-1.33005">
        <ele>49.270576</ele>
        <time>2015-06-04T10:04:36Z</time>
      </trkpt>
      <trkpt lat="49.135" lon="-1.33006">
        <ele>49.270576</ele>
        <time>2015-06-04T10:04:41Z</time>
      </trkpt>
      <trkpt lat="49.135" lon="-1.33007">
        <ele>49.270576</ele>
        <time>2015-06-04T10:04:46Z</time>
      </trkpt>
      <trkpt lat="49.135" lon="-1.33009">
        <ele>49.270576</ele>
        <time>2015-06-04T10:04:51Z</time>
      </trkpt>
      <trkpt lat="49.13501" lon="-1.33009">
        <ele>49.270576</ele>
        <time>2015-06-04T10:04:56Z</time>
      </trkpt>
      <trkpt lat="49.13501" lon="-1.33008">
        <ele>49.270576</ele>
        <time>2015-06-04T10:05:01Z</time>
      </trkpt>
      <trkpt lat="49.13502" lon="-1.33005">
        <ele>50.5688</ele>
        <time>2015-06-04T10:05:06Z</time>
      </trkpt>
      <trkpt lat="49.13501" lon="-1.32998">
        <ele>50.5688</ele>
        <time>2015-06-04T10:05:11Z</time>
      </trkpt>
      <trkpt lat="49.13499" lon="-1.32997">
        <ele>50.5688</ele>
        <time>2015-06-04T10:05:16Z</time>
      </trkpt>
      <trkpt lat="49.13499" lon="-1.32996">
        <ele>50.5688</ele>
        <time>2015-06-04T10:05:21Z</time>
      </trkpt>
      <trkpt lat="49.13498" lon="-1.32994">
        <ele>50.5688</ele>
        <time>2015-06-04T10:05:26Z</time>
      </trkpt>
      <trkpt lat="49.13499" lon="-1.32991">
        <ele>51.949764</ele>
        <time>2015-06-04T10:05:31Z</time>
      </trkpt>
      <trkpt lat="49.135" lon="-1.32986">
        <ele>51.949764</ele>
        <time>2015-06-04T10:05:36Z</time>
      </trkpt>
      <trkpt lat="49.13501" lon="-1.32982">
        <ele>51.949764</ele>
        <time>2015-06-04T10:05:41Z</time>
      </trkpt>
      <trkpt lat="49.13502" lon="-1.32975">
        <ele>53.40267</ele>
        <time>2015-06-04T10:05:46Z</time>
      </trkpt>
      <trkpt lat="49.13501" lon="-1.32964">
        <ele>53.40267</ele>
        <time>2015-06-04T10:05:51Z</time>
      </trkpt>
      <trkpt lat="49.13501" lon="-1.32954">
        <ele>54.61475</ele>
        <time>2015-06-04T10:05:56Z</time>
      </trkpt>
      <trkpt lat="49.13501" lon="-1.32945">
        <ele>54.61475</ele>
        <time>2015-06-04T10:06:01Z</time>
      </trkpt>
      <trkpt lat="49.13501" lon="-1.32938">
        <ele>55.729286</ele>
        <time>2015-06-04T10:06:06Z</time>
      </trkpt>
      <trkpt lat="49.135" lon="-1.32934">
        <ele>55.729286</ele>
        <time>2015-06-04T10:06:11Z</time>
      </trkpt>
      <trkpt lat="49.135" lon="-1.32924">
        <ele>56.807335</ele>
        <time>2015-06-04T10:06:16Z</time>
      </trkpt>
      <trkpt lat="49.13499" lon="-1.32915">
        <ele>56.807335</ele>
        <time>2015-06-04T10:06:21Z</time>
      </trkpt>
      <trkpt lat="49.13498" lon="-1.32905">
        <ele>57.93447</ele>
        <time>2015-06-04T10:06:26Z</time>
      </trkpt>
      <trkpt lat="49.13498" lon="-1.32902">
        <ele>57.93447</ele>
        <time>2015-06-04T10:06:31Z</time>
      </trkpt>
      <trkpt lat="49.13498" lon="-1.32894">
        <ele>57.93447</ele>
        <time>2015-06-04T10:06:36Z</time>
      </trkpt>
      <trkpt lat="49.13498" lon="-1.32886">
        <ele>58.91613</ele>
        <time>2015-06-04T10:06:41Z</time>
      </trkpt>
      <trkpt lat="49.13497" lon="-1.32876">
        <ele>58.91613</ele>
        <time>2015-06-04T10:06:46Z</time>
      </trkpt>
      <trkpt lat="49.13496" lon="-1.32871">
        <ele>59.788708</ele>
        <time>2015-06-04T10:06:51Z</time>
      </trkpt>
      <trkpt lat="49.13495" lon="-1.32863">
        <ele>59.788708</ele>
        <time>2015-06-04T10:06:56Z</time>
      </trkpt>
      <trkpt lat="49.13493" lon="-1.32856">
        <ele>60.65838</ele>
        <time>2015-06-04T10:07:01Z</time>
      </trkpt>
      <trkpt lat="49.13488" lon="-1.32846">
        <ele>60.65838</ele>
        <time>2015-06-04T10:07:06Z</time>
      </trkpt>
      <trkpt lat="49.13484" lon="-1.32839">
        <ele>61.465103</ele>
        <time>2015-06-04T10:07:11Z</time>
      </trkpt>
      <trkpt lat="49.13482" lon="-1.32835">
        <ele>61.465103</ele>
        <time>2015-06-04T10:07:16Z</time>
      </trkpt>
      <trkpt lat="49.1348" lon="-1.32832">
        <ele>61.465103</ele>
        <time>2015-06-04T10:07:21Z</time>
      </trkpt>
      <trkpt lat="49.13478" lon="-1.32826">
        <ele>62.326458</ele>
        <time>2015-06-04T10:07:26Z</time>
      </trkpt>
      <trkpt lat="49.13476" lon="-1.32819">
        <ele>62.326458</ele>
        <time>2015-06-04T10:07:31Z</time>
      </trkpt>
      <trkpt lat="49.13471" lon="-1.32806">
        <ele>63.23604</ele>
        <time>2015-06-04T10:07:36Z</time>
      </trkpt>
      <trkpt lat="49.13466" lon="-1.32797">
        <ele>63.23604</ele>
        <time>2015-06-04T10:07:41Z</time>
      </trkpt>
      <trkpt lat="49.13463" lon="-1.32792">
        <ele>64.10141</ele>
        <time>2015-06-04T10:07:46Z</time>
      </trkpt>
      <trkpt lat="49.13462" lon="-1.32785">
        <ele>64.10141</ele>
        <time>2015-06-04T10:07:51Z</time>
      </trkpt>
      <trkpt lat="49.13462" lon="-1.32777">
        <ele>64.909195</ele>
        <time>2015-06-04T10:07:56Z</time>
      </trkpt>
      <trkpt lat="49.13464" lon="-1.32767">
        <ele>64.909195</ele>
        <time>2015-06-04T10:08:01Z</time>
      </trkpt>
      <trkpt lat="49.13465" lon="-1.32757">
        <ele>65.64726</ele>
        <time>2015-06-04T10:08:06Z</time>
      </trkpt>
      <trkpt lat="49.13465" lon="-1.32748">
        <ele>65.64726</ele>
        <time>2015-06-04T10:08:11Z</time>
      </trkpt>
      <trkpt lat="49.13465" lon="-1.3274">
        <ele>66.39113</ele>
        <time>2015-06-04T10:08:16Z</time>
      </trkpt>
      <trkpt lat="49.13464" lon="-1.32732">
        <ele>66.39113</ele>
        <time>2015-06-04T10:08:21Z</time>
      </trkpt>
      <trkpt lat="49.13466" lon="-1.32727">
        <ele>66.39113</ele>
        <time>2015-06-04T10:08:26Z</time>
      </trkpt>
      <trkpt lat="49.13466" lon="-1.3272">
        <ele>67.22525</ele>
        <time>2015-06-04T10:08:31Z</time>
      </trkpt>
      <trkpt lat="49.13465" lon="-1.32709">
        <ele>67.22525</ele>
        <time>2015-06-04T10:08:36Z</time>
      </trkpt>
      <trkpt lat="49.13464" lon="-1.32702">
        <ele>68.12683</ele>
        <time>2015-06-04T10:08:41Z</time>
      </trkpt>
      <trkpt lat="49.13465" lon="-1.32692">
        <ele>68.12683</ele>
        <time>2015-06-04T10:08:46Z</time>
      </trkpt>
      <trkpt lat="49.13463" lon="-1.32686">
        <ele>69.07467</ele>
        <time>2015-06-04T10:08:51Z</time>
      </trkpt>
      <trkpt lat="49.13463" lon="-1.32677">
        <ele>69.07467</ele>
        <time>2015-06-04T10:08:56Z</time>
      </trkpt>
      <trkpt lat="49.1346" lon="-1.32667">
        <ele>69.94817</ele>
        <time>2015-06-04T10:09:01Z</time>
      </trkpt>
      <trkpt lat="49.13458" lon="-1.3266">
        <ele>69.94817</ele>
        <time>2015-06-04T10:09:06Z</time>
      </trkpt>
      <trkpt lat="49.13458" lon="-1.3265">
        <ele>70.79445</ele>
        <time>2015-06-04T10:09:11Z</time>
      </trkpt>
      <trkpt lat="49.13457" lon="-1.32642">
        <ele>70.79445</ele>
        <time>2015-06-04T10:09:16Z</time>
      </trkpt>
      <trkpt lat="49.13456" lon="-1.32634">
        <ele>71.61407</ele>
        <time>2015-06-04T10:09:21Z</time>
      </trkpt>
      <trkpt lat="49.13454" lon="-1.32624">
        <ele>71.61407</ele>
        <time>2015-06-04T10:09:26Z</time>
      </trkpt>
      <trkpt lat="49.13452" lon="-1.32614">
        <ele>72.4077</ele>
        <time>2015-06-04T10:09:31Z</time>
      </trkpt>
      <trkpt lat="49.13451" lon="-1.3261">
        <ele>72.4077</ele>
        <time>2015-06-04T10:09:36Z</time>
      </trkpt>
      <trkpt lat="49.13447" lon="-1.32602">
        <ele>73.17614</ele>
        <time>2015-06-04T10:09:41Z</time>
      </trkpt>
      <trkpt lat="49.13443" lon="-1.32592">
        <ele>73.17614</ele>
        <time>2015-06-04T10:09:46Z</time>
      </trkpt>
      <trkpt lat="49.1344" lon="-1.32586">
        <ele>73.87702</ele>
        <time>2015-06-04T10:09:51Z</time>
      </trkpt>
      <trkpt lat="49.13436" lon="-1.32579">
        <ele>73.87702</ele>
        <time>2015-06-04T10:09:56Z</time>
      </trkpt>
      <trkpt lat="49.13432" lon="-1.32573">
        <ele>74.514595</ele>
        <time>2015-06-04T10:10:01Z</time>
      </trkpt>
      <trkpt lat="49.13427" lon="-1.32567">
        <ele>74.514595</ele>
        <time>2015-06-04T10:10:06Z</time>
      </trkpt>
      <trkpt lat="49.13422" lon="-1.3256">
        <ele>75.06423</ele>
        <time>2015-06-04T10:10:11Z</time>
      </trkpt>
      <trkpt lat="49.13418" lon="-1.32556">
        <ele>75.06423</ele>
        <time>2015-06-04T10:10:16Z</time>
      </trkpt>
      <trkpt lat="49.13413" lon="-1.3255">
        <ele>75.460175</ele>
        <time>2015-06-04T10:10:21Z</time>
      </trkpt>
      <trkpt lat="49.1341" lon="-1.32543">
        <ele>75.460175</ele>
        <time>2015-06-04T10:10:26Z</time>
      </trkpt>
      <trkpt lat="49.13409" lon="-1.32533">
        <ele>75.7573</ele>
        <time>2015-06-04T10:10:31Z</time>
      </trkpt>
      <trkpt lat="49.13412" lon="-1.32524">
        <ele>75.7573</ele>
        <time>2015-06-04T10:10:36Z</time>
      </trkpt>
      <trkpt lat="49.13416" lon="-1.32515">
        <ele>75.94912</ele>
        <time>2015-06-04T10:10:41Z</time>
      </trkpt>
      <trkpt lat="49.1342" lon="-1.32507">
        <ele>75.94912</ele>
        <time>2015-06-04T10:10:46Z</time>
      </trkpt>
      <trkpt lat="49.13424" lon="-1.325">
        <ele>76.11645</ele>
        <time>2015-06-04T10:10:51Z</time>
      </trkpt>
      <trkpt lat="49.13427" lon="-1.32492">
        <ele>76.11645</ele>
        <time>2015-06-04T10:10:56Z</time>
      </trkpt>
      <trkpt lat="49.1343" lon="-1.32482">
        <ele>76.190155</ele>
        <time>2015-06-04T10:11:01Z</time>
      </trkpt>
      <trkpt lat="49.13434" lon="-1.32474">
        <ele>76.190155</ele>
        <time>2015-06-04T10:11:06Z</time>
      </trkpt>
      <trkpt lat="49.13438" lon="-1.32465">
        <ele>76.16415</ele>
        <time>2015-06-04T10:11:11Z</time>
      </trkpt>
      <trkpt lat="49.1344" lon="-1.32459">
        <ele>76.16415</ele>
        <time>2015-06-04T10:11:16Z</time>
      </trkpt>
      <trkpt lat="49.13444" lon="-1.32449">
        <ele>76.047485</ele>
        <time>2015-06-04T10:11:21Z</time>
      </trkpt>
      <trkpt lat="49.13445" lon="-1.32447">
        <ele>76.047485</ele>
        <time>2015-06-04T10:11:26Z</time>
      </trkpt>
      <trkpt lat="49.13446" lon="-1.32444">
        <ele>76.047485</ele>
        <time>2015-06-04T10:11:31Z</time>
      </trkpt>
      <trkpt lat="49.1345" lon="-1.32433">
        <ele>75.92089</ele>
        <time>2015-06-04T10:11:36Z</time>
      </trkpt>
      <trkpt lat="49.13452" lon="-1.32426">
        <ele>75.92089</ele>
        <time>2015-06-04T10:11:41Z</time>
      </trkpt>
      <trkpt lat="49.13455" lon="-1.32419">
        <ele>75.74393</ele>
        <time>2015-06-04T10:11:46Z</time>
      </trkpt>
      <trkpt lat="49.13457" lon="-1.32411">
        <ele>75.74393</ele>
        <time>2015-06-04T10:11:51Z</time>
      </trkpt>
      <trkpt lat="49.13457" lon="-1.3241">
        <ele>75.74393</ele>
        <time>2015-06-04T10:11:56Z</time>
      </trkpt>
      <trkpt lat="49.13456" lon="-1.32411">
        <ele>75.74393</ele>
        <time>2015-06-04T10:12:01Z</time>
      </trkpt>
      <trkpt lat="49.13455" lon="-1.3241">
        <ele>75.74393</ele>
        <time>2015-06-04T10:12:06Z</time>
      </trkpt>
      <trkpt lat="49.13455" lon="-1.32411">
        <ele>75.5225</ele>
        <time>2015-06-04T10:12:11Z</time>
      </trkpt>
      <trkpt lat="49.13456" lon="-1.32412">
        <ele>75.5225</ele>
        <time>2015-06-04T10:12:16Z</time>
      </trkpt>
      <trkpt lat="49.13456" lon="-1.32412">
        <ele>75.5225</ele>
        <time>2015-06-04T10:12:21Z</time>
      </trkpt>
      <trkpt lat="49.13456" lon="-1.32413">
        <ele>75.5225</ele>
        <time>2015-06-04T10:12:26Z</time>
      </trkpt>
      <trkpt lat="49.13456" lon="-1.32411">
        <ele>75.5225</ele>
        <time>2015-06-04T10:12:31Z</time>
      </trkpt>
      <trkpt lat="49.13456" lon="-1.32413">
        <ele>75.5225</ele>
        <time>2015-06-04T10:12:36Z</time>
      </trkpt>
      <trkpt lat="49.13456" lon="-1.32412">
        <ele>75.5225</ele>
        <time>2015-06-04T10:12:41Z</time>
      </trkpt>
      <trkpt lat="49.13456" lon="-1.32411">
        <ele>75.5225</ele>
        <time>2015-06-04T10:12:46Z</time>
      </trkpt>
      <trkpt lat="49.13456" lon="-1.3241">
        <ele>75.5225</ele>
        <time>2015-06-04T10:12:51Z</time>
      </trkpt>
      <trkpt lat="49.13457" lon="-1.3241">
        <ele>75.5225</ele>
        <time>2015-06-04T10:12:56Z</time>
      </trkpt>
      <trkpt lat="49.13456" lon="-1.32411">
        <ele>75.5225</ele>
        <time>2015-06-04T10:13:01Z</time>
      </trkpt>
      <trkpt lat="49.13456" lon="-1.32412">
        <ele>75.5225</ele>
        <time>2015-06-04T10:13:06Z</time>
      </trkpt>
      <trkpt lat="49.13457" lon="-1.32413">
        <ele>74.97397</ele>
        <time>2015-06-04T10:13:11Z</time>
      </trkpt>
      <trkpt lat="49.13458" lon="-1.32416">
        <ele>74.97397</ele>
        <time>2015-06-04T10:13:16Z</time>
      </trkpt>
      <trkpt lat="49.13457" lon="-1.32415">
        <ele>74.97397</ele>
        <time>2015-06-04T10:13:21Z</time>
      </trkpt>
      <trkpt lat="49.13451" lon="-1.32407">
        <ele>74.370605</ele>
        <time>2015-06-04T10:13:26Z</time>
      </trkpt>
      <trkpt lat="49.13446" lon="-1.32397">
        <ele>74.370605</ele>
        <time>2015-06-04T10:13:31Z</time>
      </trkpt>
      <trkpt lat="49.13442" lon="-1.32389">
        <ele>73.791855</ele>
        <time>2015-06-04T10:13:36Z</time>
      </trkpt>
      <trkpt lat="49.13439" lon="-1.32382">
        <ele>73.791855</ele>
        <time>2015-06-04T10:13:41Z</time>
      </trkpt>
      <trkpt lat="49.13436" lon="-1.32376">
        <ele>73.26802</ele>
        <time>2015-06-04T10:13:46Z</time>
      </trkpt>
      <trkpt lat="49.13431" lon="-1.32367">
        <ele>73.26802</ele>
        <time>2015-06-04T10:13:51Z</time>
      </trkpt>
      <trkpt lat="49.13426" lon="-1.32358">
        <ele>72.79816</ele>
        <time>2015-06-04T10:13:56Z</time>
      </trkpt>
      <trkpt lat="49.13422" lon="-1.32353">
        <ele>72.79816</ele>
        <time>2015-06-04T10:14:01Z</time>
      </trkpt>
      <trkpt lat="49.13418" lon="-1.32343">
        <ele>72.410034</ele>
        <time>2015-06-04T10:14:06Z</time>
      </trkpt>
      <trkpt lat="49.13415" lon="-1.32334">
        <ele>72.410034</ele>
        <time>2015-06-04T10:14:11Z</time>
      </trkpt>
      <trkpt lat="49.13412" lon="-1.32327">
        <ele>72.08585</ele>
        <time>2015-06-04T10:14:16Z</time>
      </trkpt>
      <trkpt lat="49.13409" lon="-1.32319">
        <ele>72.08585</ele>
        <time>2015-06-04T10:14:21Z</time>
      </trkpt>
      <trkpt lat="49.13408" lon="-1.32312">
        <ele>71.736855</ele>
        <time>2015-06-04T10:14:26Z</time>
      </trkpt>
      <trkpt lat="49.13407" lon="-1.32306">
        <ele>71.736855</ele>
        <time>2015-06-04T10:14:31Z</time>
      </trkpt>
      <trkpt lat="49.13405" lon="-1.32304">
        <ele>71.736855</ele>
        <time>2015-06-04T10:14:36Z</time>
      </trkpt>
      <trkpt lat="49.13406" lon="-1.32302">
        <ele>71.736855</ele>
        <time>2015-06-04T10:14:41Z</time>
      </trkpt>
      <trkpt lat="49.13407" lon="-1.323">
        <ele>71.736855</ele>
        <time>2015-06-04T10:14:46Z</time>
      </trkpt>
      <trkpt lat="49.13408" lon="-1.32295">
        <ele>71.338455</ele>
        <time>2015-06-04T10:14:51Z</time>
      </trkpt>
      <trkpt lat="49.13409" lon="-1.32294">
        <ele>71.338455</ele>
        <time>2015-06-04T10:14:56Z</time>
      </trkpt>
      <trkpt lat="49.1341" lon="-1.3229">
        <ele>71.338455</ele>
        <time>2015-06-04T10:15:01Z</time>
      </trkpt>
      <trkpt lat="49.13409" lon="-1.32279">
        <ele>70.795906</ele>
        <time>2015-06-04T10:15:06Z</time>
      </trkpt>
      <trkpt lat="49.13407" lon="-1.32269">
        <ele>70.795906</ele>
        <time>2015-06-04T10:15:11Z</time>
      </trkpt>
      <trkpt lat="49.13407" lon="-1.3226">
        <ele>70.26674</ele>
        <time>2015-06-04T10:15:16Z</time>
      </trkpt>
      <trkpt lat="49.13405" lon="-1.32251">
        <ele>70.26674</ele>
        <time>2015-06-04T10:15:21Z</time>
      </trkpt>
      <trkpt lat="49.13404" lon="-1.32241">
        <ele>69.85359</ele>
        <time>2015-06-04T10:15:26Z</time>
      </trkpt>
      <trkpt lat="49.13403" lon="-1.32233">
        <ele>69.85359</ele>
        <time>2015-06-04T10:15:31Z</time>
      </trkpt>
      <trkpt lat="49.13402" lon="-1.32222">
        <ele>69.42059</ele>
        <time>2015-06-04T10:15:36Z</time>
      </trkpt>
      <trkpt lat="49.13403" lon="-1.32213">
        <ele>69.42059</ele>
        <time>2015-06-04T10:15:41Z</time>
      </trkpt>
      <trkpt lat="49.13403" lon="-1.32202">
        <ele>68.95711</ele>
        <time>2015-06-04T10:15:46Z</time>
      </trkpt>
      <trkpt lat="49.13404" lon="-1.32193">
        <ele>68.95711</ele>
        <time>2015-06-04T10:15:51Z</time>
      </trkpt>
      <trkpt lat="49.13404" lon="-1.32183">
        <ele>68.51097</ele>
        <time>2015-06-04T10:15:56Z</time>
      </trkpt>
      <trkpt lat="49.13404" lon="-1.32173">
        <ele>68.51097</ele>
        <time>2015-06-04T10:16:01Z</time>
      </trkpt>
      <trkpt lat="49.13404" lon="-1.32165">
        <ele>68.02548</ele>
        <time>2015-06-04T10:16:06Z</time>
      </trkpt>
      <trkpt lat="49.13405" lon="-1.32156">
        <ele>68.02548</ele>
        <time>2015-06-04T10:16:11Z</time>
      </trkpt>
      <trkpt lat="49.13404" lon="-1.32146">
        <ele>67.53461</ele>
        <time>2015-06-04T10:16:16Z</time>
      </trkpt>
      <trkpt lat="49.13402" lon="-1.32136">
        <ele>67.53461</ele>
        <time>2015-06-04T10:16:21Z</time>
      </trkpt>
      <trkpt lat="49.13399" lon="-1.32127">
        <ele>67.040955</ele>
        <time>2015-06-04T10:16:26Z</time>
      </trkpt>
      <trkpt lat="49.13395" lon="-1.32119">
        <ele>67.040955</ele>
        <time>2015-06-04T10:16:31Z</time>
      </trkpt>
      <trkpt lat="49.13391" lon="-1.3211">
        <ele>66.561264</ele>
        <time>2015-06-04T10:16:36Z</time>
      </trkpt>
      <trkpt lat="49.13388" lon="-1.32101">
        <ele>66.561264</ele>
        <time>2015-06-04T10:16:41Z</time>
      </trkpt>
      <trkpt lat="49.13386" lon="-1.32092">
        <ele>66.096535</ele>
        <time>2015-06-04T10:16:46Z</time>
      </trkpt>
      <trkpt lat="49.13385" lon="-1.32082">
        <ele>66.096535</ele>
        <time>2015-06-04T10:16:51Z</time>
      </trkpt>
      <trkpt lat="49.13388" lon="-1.32073">
        <ele>65.67638</ele>
        <time>2015-06-04T10:16:56Z</time>
      </trkpt>
      <trkpt lat="49.13393" lon="-1.32066">
        <ele>65.67638</ele>
        <time>2015-06-04T10:17:01Z</time>
      </trkpt>
      <trkpt lat="49.13398" lon="-1.32061">
        <ele>65.27039</ele>
        <time>2015-06-04T10:17:06Z</time>
      </trkpt>
      <trkpt lat="49.13404" lon="-1.32057">
        <ele>65.27039</ele>
        <time>2015-06-04T10:17:11Z</time>
      </trkpt>
      <trkpt lat="49.1341" lon="-1.3205">
        <ele>64.8359</ele>
        <time>2015-06-04T10:17:16Z</time>
      </trkpt>
      <trkpt lat="49.13416" lon="-1.32043">
        <ele>64.8359</ele>
        <time>2015-06-04T10:17:21Z</time>
      </trkpt>
      <trkpt lat="49.13421" lon="-1.32037">
        <ele>64.376564</ele>
        <time>2015-06-04T10:17:26Z</time>
      </trkpt>
      <trkpt lat="49.13427" lon="-1.32031">
        <ele>64.376564</ele>
        <time>2015-06-04T10:17:31Z</time>
      </trkpt>
      <trkpt lat="49.13432" lon="-1.32026">
        <ele>63.924614</ele>
        <time>2015-06-04T10:17:36Z</time>
      </trkpt>
      <trkpt lat="49.13439" lon="-1.32017">
        <ele>63.50982</ele>
        <time>2015-06-04T10:17:41Z</time>
      </trkpt>
      <trkpt lat="49.13443" lon="-1.32013">
        <ele>63.50982</ele>
        <time>2015-06-04T10:17:46Z</time>
      </trkpt>
      <trkpt lat="49.13447" lon="-1.32006">
        <ele>63.087524</ele>
        <time>2015-06-04T10:17:51Z</time>
      </trkpt>
      <trkpt lat="49.13451" lon="-1.32">
        <ele>63.087524</ele>
        <time>2015-06-04T10:17:56Z</time>
      </trkpt>
      <trkpt lat="49.13457" lon="-1.31994">
        <ele>62.616306</ele>
        <time>2015-06-04T10:18:01Z</time>
      </trkpt>
      <trkpt lat="49.13462" lon="-1.31988">
        <ele>62.616306</ele>
        <time>2015-06-04T10:18:06Z</time>
      </trkpt>
      <trkpt lat="49.13467" lon="-1.31982">
        <ele>62.043446</ele>
        <time>2015-06-04T10:18:11Z</time>
      </trkpt>
      <trkpt lat="49.13473" lon="-1.31976">
        <ele>62.043446</ele>
        <time>2015-06-04T10:18:16Z</time>
      </trkpt>
      <trkpt lat="49.13477" lon="-1.31969">
        <ele>61.49324</ele>
        <time>2015-06-04T10:18:21Z</time>
      </trkpt>
      <trkpt lat="49.13482" lon="-1.31964">
        <ele>61.49324</ele>
        <time>2015-06-04T10:18:26Z</time>
      </trkpt>
      <trkpt lat="49.13482" lon="-1.31963">
        <ele>61.49324</ele>
        <time>2015-06-04T10:18:31Z</time>
      </trkpt>
      <trkpt lat="49.13482" lon="-1.31964">
        <ele>61.49324</ele>
        <time>2015-06-04T10:18:36Z</time>
      </trkpt>
      <trkpt lat="49.13483" lon="-1.31964">
        <ele>60.662804</ele>
        <time>2015-06-04T10:18:41Z</time>
      </trkpt>
      <trkpt lat="49.13483" lon="-1.31961">
        <ele>60.662804</ele>
        <time>2015-06-04T10:18:46Z</time>
      </trkpt>
      <trkpt lat="49.13482" lon="-1.31953">
        <ele>60.662804</ele>
        <time>2015-06-04T10:18:51Z</time>
      </trkpt>
      <trkpt lat="49.13482" lon="-1.3195">
        <ele>59.704556</ele>
        <time>2015-06-04T10:18:56Z</time>
      </trkpt>
      <trkpt lat="49.13481" lon="-1.3195">
        <ele>59.704556</ele>
        <time>2015-06-04T10:19:01Z</time>
      </trkpt>
      <trkpt lat="49.13481" lon="-1.31948">
        <ele>59.704556</ele>
        <time>2015-06-04T10:19:06Z</time>
      </trkpt>
      <trkpt lat="49.13478" lon="-1.31946">
        <ele>59.704556</ele>
        <time>2015-06-04T10:19:11Z</time>
      </trkpt>
      <trkpt lat="49.13476" lon="-1.31942">
        <ele>59.704556</ele>
        <time>2015-06-04T10:19:16Z</time>
      </trkpt>
      <trkpt lat="49.13474" lon="-1.31934">
        <ele>58.731182</ele>
        <time>2015-06-04T10:19:21Z</time>
      </trkpt>
      <trkpt lat="49.1347" lon="-1.31926">
        <ele>58.731182</ele>
        <time>2015-06-04T10:19:26Z</time>
      </trkpt>
      <trkpt lat="49.13469" lon="-1.31922">
        <ele>57.847065</ele>
        <time>2015-06-04T10:19:31Z</time>
      </trkpt>
      <trkpt lat="49.13467" lon="-1.31918">
        <ele>57.847065</ele>
        <time>2015-06-04T10:19:36Z</time>
      </trkpt>
      <trkpt lat="49.13462" lon="-1.31905">
        <ele>57.004486</ele>
        <time>2015-06-04T10:19:41Z</time>
      </trkpt>
      <trkpt lat="49.13459" lon="-1.31902">
        <ele>57.004486</ele>
        <time>2015-06-04T10:19:46Z</time>
      </trkpt>
      <trkpt lat="49.13454" lon="-1.31895">
        <ele>56.115814</ele>
        <time>2015-06-04T10:19:51Z</time>
      </trkpt>
      <trkpt lat="49.13451" lon="-1.3189">
        <ele>56.115814</ele>
        <time>2015-06-04T10:19:56Z</time>
      </trkpt>
      <trkpt lat="49.13447" lon="-1.31883">
        <ele>55.20078</ele>
        <time>2015-06-04T10:20:01Z</time>
      </trkpt>
      <trkpt lat="49.1344" lon="-1.31871">
        <ele>54.36414</ele>
        <time>2015-06-04T10:20:06Z</time>
      </trkpt>
      <trkpt lat="49.13437" lon="-1.31864">
        <ele>54.36414</ele>
        <time>2015-06-04T10:20:11Z</time>
      </trkpt>
      <trkpt lat="49.13434" lon="-1.31859">
        <ele>53.472084</ele>
        <time>2015-06-04T10:20:16Z</time>
      </trkpt>
      <trkpt lat="49.13429" lon="-1.31852">
        <ele>53.472084</ele>
        <time>2015-06-04T10:20:21Z</time>
      </trkpt>
      <trkpt lat="49.13427" lon="-1.31848">
        <ele>52.415123</ele>
        <time>2015-06-04T10:20:26Z</time>
      </trkpt>
      <trkpt lat="49.13423" lon="-1.3184">
        <ele>52.415123</ele>
        <time>2015-06-04T10:20:31Z</time>
      </trkpt>
      <trkpt lat="49.13418" lon="-1.31834">
        <ele>51.30837</ele>
        <time>2015-06-04T10:20:36Z</time>
      </trkpt>
      <trkpt lat="49.13416" lon="-1.31825">
        <ele>51.30837</ele>
        <time>2015-06-04T10:20:41Z</time>
      </trkpt>
      <trkpt lat="49.13417" lon="-1.31818">
        <ele>50.200893</ele>
        <time>2015-06-04T10:20:46Z</time>
      </trkpt>
      <trkpt lat="49.13419" lon="-1.31813">
        <ele>50.200893</ele>
        <time>2015-06-04T10:20:51Z</time>
      </trkpt>
      <trkpt lat="49.13424" lon="-1.31806">
        <ele>49.080452</ele>
        <time>2015-06-04T10:20:56Z</time>
      </trkpt>
      <trkpt lat="49.13427" lon="-1.318">
        <ele>49.080452</ele>
        <time>2015-06-04T10:21:01Z</time>
      </trkpt>
      <trkpt lat="49.13429" lon="-1.31796">
        <ele>49.080452</ele>
        <time>2015-06-04T10:21:06Z</time>
      </trkpt>
      <trkpt lat="49.13433" lon="-1.31793">
        <ele>47.8636</ele>
        <time>2015-06-04T10:21:11Z</time>
      </trkpt>
      <trkpt lat="49.13436" lon="-1.31786">
        <ele>47.8636</ele>
        <time>2015-06-04T10:21:16Z</time>
      </trkpt>
      <trkpt lat="49.13441" lon="-1.31779">
        <ele>46.631756</ele>
        <time>2015-06-04T10:21:21Z</time>
      </trkpt>
      <trkpt lat="49.13444" lon="-1.31772">
        <ele>46.631756</ele>
        <time>2015-06-04T10:21:26Z</time>
      </trkpt>
      <trkpt lat="49.13446" lon="-1.31765">
        <ele>45.330597</ele>
        <time>2015-06-04T10:21:31Z</time>
      </trkpt>
      <trkpt lat="49.13451" lon="-1.31756">
        <ele>45.330597</ele>
        <time>2015-06-04T10:21:36Z</time>
      </trkpt>
      <trkpt lat="49.13457" lon="-1.31751">
        <ele>43.981983</ele>
        <time>2015-06-04T10:21:41Z</time>
      </trkpt>
      <trkpt lat="49.13462" lon="-1.31745">
        <ele>43.981983</ele>
        <time>2015-06-04T10:21:46Z</time>
      </trkpt>
      <trkpt lat="49.13466" lon="-1.31738">
        <ele>42.57739</ele>
        <time>2015-06-04T10:21:51Z</time>
      </trkpt>
      <trkpt lat="49.1347" lon="-1.31733">
        <ele>42.57739</ele>
        <time>2015-06-04T10:21:56Z</time>
      </trkpt>
      <trkpt lat="49.13475" lon="-1.31729">
        <ele>41.224285</ele>
        <time>2015-06-04T10:22:01Z</time>
      </trkpt>
      <trkpt lat="49.1348" lon="-1.31726">
        <ele>41.224285</ele>
        <time>2015-06-04T10:22:06Z</time>
      </trkpt>
      <trkpt lat="49.13487" lon="-1.31721">
        <ele>39.935555</ele>
        <time>2015-06-04T10:22:11Z</time>
      </trkpt>
      <trkpt lat="49.13493" lon="-1.31718">
        <ele>39.935555</ele>
        <time>2015-06-04T10:22:16Z</time>
      </trkpt>
      <trkpt lat="49.13498" lon="-1.31715">
        <ele>38.78052</ele>
        <time>2015-06-04T10:22:21Z</time>
      </trkpt>
      <trkpt lat="49.13506" lon="-1.31714">
        <ele>38.78052</ele>
        <time>2015-06-04T10:22:26Z</time>
      </trkpt>
      <trkpt lat="49.13513" lon="-1.31714">
        <ele>37.693256</ele>
        <time>2015-06-04T10:22:31Z</time>
      </trkpt>
      <trkpt lat="49.13519" lon="-1.31712">
        <ele>37.693256</ele>
        <time>2015-06-04T10:22:36Z</time>
      </trkpt>
      <trkpt lat="49.13525" lon="-1.31711">
        <ele>36.727688</ele>
        <time>2015-06-04T10:22:41Z</time>
      </trkpt>
      <trkpt lat="49.13532" lon="-1.31708">
        <ele>36.727688</ele>
        <time>2015-06-04T10:22:46Z</time>
      </trkpt>
      <trkpt lat="49.13537" lon="-1.31706">
        <ele>35.832497</ele>
        <time>2015-06-04T10:22:51Z</time>
      </trkpt>
      <trkpt lat="49.13542" lon="-1.31701">
        <ele>35.832497</ele>
        <time>2015-06-04T10:22:56Z</time>
      </trkpt>
      <trkpt lat="49.13547" lon="-1.31695">
        <ele>35.00309</ele>
        <time>2015-06-04T10:23:01Z</time>
      </trkpt>
      <trkpt lat="49.1355" lon="-1.31687">
        <ele>35.00309</ele>
        <time>2015-06-04T10:23:06Z</time>
      </trkpt>
      <trkpt lat="49.13552" lon="-1.31678">
        <ele>34.23496</ele>
        <time>2015-06-04T10:23:11Z</time>
      </trkpt>
      <trkpt lat="49.13552" lon="-1.31668">
        <ele>34.23496</ele>
        <time>2015-06-04T10:23:16Z</time>
      </trkpt>
      <trkpt lat="49.13555" lon="-1.31661">
        <ele>33.509274</ele>
        <time>2015-06-04T10:23:21Z</time>
      </trkpt>
      <trkpt lat="49.13558" lon="-1.31653">
        <ele>33.509274</ele>
        <time>2015-06-04T10:23:26Z</time>
      </trkpt>
      <trkpt lat="49.1356" lon="-1.31646">
        <ele>32.82282</ele>
        <time>2015-06-04T10:23:31Z</time>
      </trkpt>
      <trkpt lat="49.13562" lon="-1.31644">
        <ele>32.82282</ele>
        <time>2015-06-04T10:23:36Z</time>
      </trkpt>
      <trkpt lat="49.13568" lon="-1.31638">
        <ele>32.82282</ele>
        <time>2015-06-04T10:23:41Z</time>
      </trkpt>
      <trkpt lat="49.13572" lon="-1.31633">
        <ele>32.172455</ele>
        <time>2015-06-04T10:23:46Z</time>
      </trkpt>
      <trkpt lat="49.13578" lon="-1.3163">
        <ele>32.172455</ele>
        <time>2015-06-04T10:23:51Z</time>
      </trkpt>
      <trkpt lat="49.13583" lon="-1.31627">
        <ele>31.641582</ele>
        <time>2015-06-04T10:23:56Z</time>
      </trkpt>
      <trkpt lat="49.13587" lon="-1.31622">
        <ele>31.641582</ele>
        <time>2015-06-04T10:24:01Z</time>
      </trkpt>
      <trkpt lat="49.13593" lon="-1.31617">
        <ele>31.206215</ele>
        <time>2015-06-04T10:24:06Z</time>
      </trkpt>
      <trkpt lat="49.13599" lon="-1.31612">
        <ele>31.206215</ele>
        <time>2015-06-04T10:24:11Z</time>
      </trkpt>
      <trkpt lat="49.13604" lon="-1.31608">
        <ele>30.944704</ele>
        <time>2015-06-04T10:24:16Z</time>
      </trkpt>
      <trkpt lat="49.13609" lon="-1.31604">
        <ele>30.944704</ele>
        <time>2015-06-04T10:24:21Z</time>
      </trkpt>
      <trkpt lat="49.13614" lon="-1.316">
        <ele>30.842653</ele>
        <time>2015-06-04T10:24:26Z</time>
      </trkpt>
      <trkpt lat="49.1362" lon="-1.31595">
        <ele>30.842653</ele>
        <time>2015-06-04T10:24:31Z</time>
      </trkpt>
      <trkpt lat="49.13625" lon="-1.31592">
        <ele>30.886253</ele>
        <time>2015-06-04T10:24:36Z</time>
      </trkpt>
      <trkpt lat="49.13631" lon="-1.3159">
        <ele>30.886253</ele>
        <time>2015-06-04T10:24:41Z</time>
      </trkpt>
      <trkpt lat="49.13637" lon="-1.31585">
        <ele>31.091106</ele>
        <time>2015-06-04T10:24:46Z</time>
      </trkpt>
      <trkpt lat="49.13642" lon="-1.31582">
        <ele>31.091106</ele>
        <time>2015-06-04T10:24:51Z</time>
      </trkpt>
      <trkpt lat="49.13648" lon="-1.31577">
        <ele>31.413563</ele>
        <time>2015-06-04T10:24:56Z</time>
      </trkpt>
      <trkpt lat="49.13653" lon="-1.3157">
        <ele>31.413563</ele>
        <time>2015-06-04T10:25:01Z</time>
      </trkpt>
      <trkpt lat="49.13657" lon="-1.31568">
        <ele>31.84167</ele>
        <time>2015-06-04T10:25:06Z</time>
      </trkpt>
      <trkpt lat="49.13658" lon="-1.31564">
        <ele>31.84167</ele>
        <time>2015-06-04T10:25:11Z</time>
      </trkpt>
      <trkpt lat="49.13657" lon="-1.31558">
        <ele>31.84167</ele>
        <time>2015-06-04T10:25:16Z</time>
      </trkpt>
      <trkpt lat="49.13656" lon="-1.31551">
        <ele>32.292015</ele>
        <time>2015-06-04T10:25:21Z</time>
      </trkpt>
      <trkpt lat="49.13654" lon="-1.31544">
        <ele>32.292015</ele>
        <time>2015-06-04T10:25:26Z</time>
      </trkpt>
      <trkpt lat="49.13652" lon="-1.31532">
        <ele>32.716095</ele>
        <time>2015-06-04T10:25:31Z</time>
      </trkpt>
      <trkpt lat="49.1365" lon="-1.31523">
        <ele>32.716095</ele>
        <time>2015-06-04T10:25:36Z</time>
      </trkpt>
      <trkpt lat="49.1365" lon="-1.31517">
        <ele>33.198772</ele>
        <time>2015-06-04T10:25:41Z</time>
      </trkpt>
      <trkpt lat="49.1365" lon="-1.31506">
        <ele>33.198772</ele>
        <time>2015-06-04T10:25:46Z</time>
      </trkpt>
      <trkpt lat="49.13655" lon="-1.31496">
        <ele>33.487087</ele>
        <time>2015-06-04T10:25:51Z</time>
      </trkpt>
      <trkpt lat="49.13662" lon="-1.3149">
        <ele>33.487087</ele>
        <time>2015-06-04T10:25:56Z</time>
      </trkpt>
      <trkpt lat="49.13666" lon="-1.31486">
        <ele>33.64989</ele>
        <time>2015-06-04T10:26:01Z</time>
      </trkpt>
      <trkpt lat="49.13669" lon="-1.31481">
        <ele>33.64989</ele>
        <time>2015-06-04T10:26:06Z</time>
      </trkpt>
      <trkpt lat="49.13669" lon="-1.31467">
        <ele>33.66492</ele>
        <time>2015-06-04T10:26:11Z</time>
      </trkpt>
      <trkpt lat="49.13667" lon="-1.31458">
        <ele>33.66492</ele>
        <time>2015-06-04T10:26:16Z</time>
      </trkpt>
      <trkpt lat="49.13664" lon="-1.31449">
        <ele>33.627293</ele>
        <time>2015-06-04T10:26:21Z</time>
      </trkpt>
      <trkpt lat="49.13659" lon="-1.31436">
        <ele>33.5533</ele>
        <time>2015-06-04T10:26:26Z</time>
      </trkpt>
      <trkpt lat="49.13655" lon="-1.31429">
        <ele>33.5533</ele>
        <time>2015-06-04T10:26:31Z</time>
      </trkpt>
      <trkpt lat="49.13652" lon="-1.31421">
        <ele>33.487015</ele>
        <time>2015-06-04T10:26:36Z</time>
      </trkpt>
      <trkpt lat="49.13649" lon="-1.31413">
        <ele>33.487015</ele>
        <time>2015-06-04T10:26:41Z</time>
      </trkpt>
      <trkpt lat="49.13646" lon="-1.31403">
        <ele>33.339615</ele>
        <time>2015-06-04T10:26:46Z</time>
      </trkpt>
      <trkpt lat="49.13647" lon="-1.31397">
        <ele>33.339615</ele>
        <time>2015-06-04T10:26:51Z</time>
      </trkpt>
      <trkpt lat="49.13648" lon="-1.31387">
        <ele>33.18761</ele>
        <time>2015-06-04T10:26:56Z</time>
      </trkpt>
      <trkpt lat="49.13649" lon="-1.31381">
        <ele>33.18761</ele>
        <time>2015-06-04T10:27:01Z</time>
      </trkpt>
      <trkpt lat="49.13654" lon="-1.31374">
        <ele>33.029915</ele>
        <time>2015-06-04T10:27:06Z</time>
      </trkpt>
      <trkpt lat="49.13658" lon="-1.31368">
        <ele>33.029915</ele>
        <time>2015-06-04T10:27:11Z</time>
      </trkpt>
      <trkpt lat="49.13659" lon="-1.31364">
        <ele>33.029915</ele>
        <time>2015-06-04T10:27:16Z</time>
      </trkpt>
      <trkpt lat="49.13662" lon="-1.31357">
        <ele>32.649433</ele>
        <time>2015-06-04T10:27:21Z</time>
      </trkpt>
      <trkpt lat="49.13665" lon="-1.31352">
        <ele>32.649433</ele>
        <time>2015-06-04T10:27:26Z</time>
      </trkpt>
      <trkpt lat="49.13667" lon="-1.31345">
        <ele>32.220383</ele>
        <time>2015-06-04T10:27:31Z</time>
      </trkpt>
      <trkpt lat="49.1367" lon="-1.31339">
        <ele>32.220383</ele>
        <time>2015-06-04T10:27:36Z</time>
      </trkpt>
      <trkpt lat="49.13672" lon="-1.31333">
        <ele>31.875563</ele>
        <time>2015-06-04T10:27:41Z</time>
      </trkpt>
      <trkpt lat="49.13674" lon="-1.31325">
        <ele>31.875563</ele>
        <time>2015-06-04T10:27:46Z</time>
      </trkpt>
      <trkpt lat="49.13672" lon="-1.31319">
        <ele>31.737837</ele>
        <time>2015-06-04T10:27:51Z</time>
      </trkpt>
      <trkpt lat="49.13669" lon="-1.31311">
        <ele>31.737837</ele>
        <time>2015-06-04T10:27:56Z</time>
      </trkpt>
      <trkpt lat="49.13669" lon="-1.31304">
        <ele>31.718758</ele>
        <time>2015-06-04T10:28:01Z</time>
      </trkpt>
      <trkpt lat="49.13668" lon="-1.31296">
        <ele>31.718758</ele>
        <time>2015-06-04T10:28:06Z</time>
      </trkpt>
      <trkpt lat="49.13667" lon="-1.31289">
        <ele>31.894619</ele>
        <time>2015-06-04T10:28:11Z</time>
      </trkpt>
      <trkpt lat="49.13666" lon="-1.31284">
        <ele>31.894619</ele>
        <time>2015-06-04T10:28:16Z</time>
      </trkpt>
      <trkpt lat="49.13663" lon="-1.31274">
        <ele>32.119453</ele>
        <time>2015-06-04T10:28:21Z</time>
      </trkpt>
      <trkpt lat="49.13663" lon="-1.31264">
        <ele>32.119453</ele>
        <time>2015-06-04T10:28:26Z</time>
      </trkpt>
      <trkpt lat="49.13661" lon="-1.31257">
        <ele>32.459682</ele>
        <time>2015-06-04T10:28:31Z</time>
      </trkpt>
      <trkpt lat="49.1366" lon="-1.31247">
        <ele>32.459682</ele>
        <time>2015-06-04T10:28:36Z</time>
      </trkpt>
      <trkpt lat="49.13658" lon="-1.31239">
        <ele>33.005413</ele>
        <time>2015-06-04T10:28:41Z</time>
      </trkpt>
      <trkpt lat="49.13657" lon="-1.31227">
        <ele>33.005413</ele>
        <time>2015-06-04T10:28:46Z</time>
      </trkpt>
      <trkpt lat="49.13655" lon="-1.3122">
        <ele>33.623444</ele>
        <time>2015-06-04T10:28:51Z</time>
      </trkpt>
      <trkpt lat="49.13653" lon="-1.31212">
        <ele>33.623444</ele>
        <time>2015-06-04T10:28:56Z</time>
      </trkpt>
      <trkpt lat="49.13654" lon="-1.31206">
        <ele>34.190224</ele>
        <time>2015-06-04T10:29:01Z</time>
      </trkpt>
      <trkpt lat="49.13654" lon="-1.31201">
        <ele>34.190224</ele>
        <time>2015-06-04T10:29:06Z</time>
      </trkpt>
      <trkpt lat="49.13653" lon="-1.31193">
        <ele>34.190224</ele>
        <time>2015-06-04T10:29:11Z</time>
      </trkpt>
      <trkpt lat="49.13653" lon="-1.31182">
        <ele>34.750008</ele>
        <time>2015-06-04T10:29:16Z</time>
      </trkpt>
      <trkpt lat="49.13652" lon="-1.31175">
        <ele>34.750008</ele>
        <time>2015-06-04T10:29:21Z</time>
      </trkpt>
      <trkpt lat="49.13652" lon="-1.31161">
        <ele>35.185368</ele>
        <time>2015-06-04T10:29:26Z</time>
      </trkpt>
      <trkpt lat="49.13652" lon="-1.31149">
        <ele>35.185368</ele>
        <time>2015-06-04T10:29:31Z</time>
      </trkpt>
      <trkpt lat="49.13653" lon="-1.31139">
        <ele>35.56086</ele>
        <time>2015-06-04T10:29:36Z</time>
      </trkpt>
      <trkpt lat="49.13654" lon="-1.31135">
        <ele>35.56086</ele>
        <time>2015-06-04T10:29:41Z</time>
      </trkpt>
      <trkpt lat="49.13654" lon="-1.3113">
        <ele>35.56086</ele>
        <time>2015-06-04T10:29:46Z</time>
      </trkpt>
      <trkpt lat="49.13652" lon="-1.31118">
        <ele>35.994175</ele>
        <time>2015-06-04T10:29:51Z</time>
      </trkpt>
      <trkpt lat="49.13651" lon="-1.31113">
        <ele>35.994175</ele>
        <time>2015-06-04T10:29:56Z</time>
      </trkpt>
      <trkpt lat="49.13653" lon="-1.31104">
        <ele>36.46458</ele>
        <time>2015-06-04T10:30:01Z</time>
      </trkpt>
      <trkpt lat="49.13656" lon="-1.31098">
        <ele>36.46458</ele>
        <time>2015-06-04T10:30:06Z</time>
      </trkpt>
      <trkpt lat="49.13658" lon="-1.31092">
        <ele>36.46458</ele>
        <time>2015-06-04T10:30:11Z</time>
      </trkpt>
      <trkpt lat="49.1366" lon="-1.31087">
        <ele>36.95284</ele>
        <time>2015-06-04T10:30:16Z</time>
      </trkpt>
      <trkpt lat="49.13662" lon="-1.31075">
        <ele>36.95284</ele>
        <time>2015-06-04T10:30:21Z</time>
      </trkpt>
      <trkpt lat="49.13661" lon="-1.31066">
        <ele>37.42673</ele>
        <time>2015-06-04T10:30:26Z</time>
      </trkpt>
      <trkpt lat="49.13661" lon="-1.31059">
        <ele>37.42673</ele>
        <time>2015-06-04T10:30:31Z</time>
      </trkpt>
      <trkpt lat="49.13662" lon="-1.3105">
        <ele>37.98623</ele>
        <time>2015-06-04T10:30:36Z</time>
      </trkpt>
      <trkpt lat="49.13664" lon="-1.31041">
        <ele>37.98623</ele>
        <time>2015-06-04T10:30:41Z</time>
      </trkpt>
      <trkpt lat="49.13665" lon="-1.31034">
        <ele>38.57969</ele>
        <time>2015-06-04T10:30:46Z</time>
      </trkpt>
      <trkpt lat="49.13666" lon="-1.31028">
        <ele>38.57969</ele>
        <time>2015-06-04T10:30:51Z</time>
      </trkpt>
      <trkpt lat="49.13667" lon="-1.31016">
        <ele>39.087177</ele>
        <time>2015-06-04T10:30:56Z</time>
      </trkpt>
      <trkpt lat="49.13668" lon="-1.31007">
        <ele>39.087177</ele>
        <time>2015-06-04T10:31:01Z</time>
      </trkpt>
      <trkpt lat="49.13669" lon="-1.31001">
        <ele>39.412308</ele>
        <time>2015-06-04T10:31:06Z</time>
      </trkpt>
      <trkpt lat="49.13668" lon="-1.30989">
        <ele>39.412308</ele>
        <time>2015-06-04T10:31:11Z</time>
      </trkpt>
      <trkpt lat="49.13668" lon="-1.30975">
        <ele>39.524002</ele>
        <time>2015-06-04T10:31:16Z</time>
      </trkpt>
      <trkpt lat="49.13672" lon="-1.30968">
        <ele>39.524002</ele>
        <time>2015-06-04T10:31:21Z</time>
      </trkpt>
      <trkpt lat="49.13677" lon="-1.3096">
        <ele>39.523846</ele>
        <time>2015-06-04T10:31:26Z</time>
      </trkpt>
      <trkpt lat="49.13679" lon="-1.30957">
        <ele>39.523846</ele>
        <time>2015-06-04T10:31:31Z</time>
      </trkpt>
      <trkpt lat="49.13679" lon="-1.30953">
        <ele>39.523846</ele>
        <time>2015-06-04T10:31:36Z</time>
      </trkpt>
      <trkpt lat="49.1368" lon="-1.30953">
        <ele>39.523846</ele>
        <time>2015-06-04T10:31:41Z</time>
      </trkpt>
      <trkpt lat="49.13681" lon="-1.30953">
        <ele>39.523846</ele>
        <time>2015-06-04T10:31:46Z</time>
      </trkpt>
      <trkpt lat="49.1368" lon="-1.30953">
        <ele>39.523846</ele>
        <time>2015-06-04T10:31:51Z</time>
      </trkpt>
      <trkpt lat="49.13679" lon="-1.30954">
        <ele>39.523846</ele>
        <time>2015-06-04T10:31:56Z</time>
      </trkpt>
      <trkpt lat="49.13679" lon="-1.30954">
        <ele>39.523846</ele>
        <time>2015-06-04T10:32:01Z</time>
      </trkpt>
      <trkpt lat="49.13677" lon="-1.30953">
        <ele>39.304577</ele>
        <time>2015-06-04T10:32:06Z</time>
      </trkpt>
      <trkpt lat="49.13677" lon="-1.30955">
        <ele>39.304577</ele>
        <time>2015-06-04T10:32:11Z</time>
      </trkpt>
      <trkpt lat="49.13676" lon="-1.30955">
        <ele>39.304577</ele>
        <time>2015-06-04T10:32:16Z</time>
      </trkpt>
      <trkpt lat="49.13677" lon="-1.30955">
        <ele>39.304577</ele>
        <time>2015-06-04T10:32:21Z</time>
      </trkpt>
      <trkpt lat="49.13677" lon="-1.30955">
        <ele>39.304577</ele>
        <time>2015-06-04T10:32:26Z</time>
      </trkpt>
      <trkpt lat="49.13677" lon="-1.30955">
        <ele>39.304577</ele>
        <time>2015-06-04T10:32:31Z</time>
      </trkpt>
      <trkpt lat="49.13679" lon="-1.30955">
        <ele>39.304577</ele>
        <time>2015-06-04T10:32:36Z</time>
      </trkpt>
      <trkpt lat="49.13682" lon="-1.30954">
        <ele>39.304577</ele>
        <time>2015-06-04T10:32:41Z</time>
      </trkpt>
      <trkpt lat="49.13683" lon="-1.30953">
        <ele>39.304577</ele>
        <time>2015-06-04T10:32:46Z</time>
      </trkpt>
      <trkpt lat="49.13683" lon="-1.30951">
        <ele>38.810738</ele>
        <time>2015-06-04T10:32:51Z</time>
      </trkpt>
      <trkpt lat="49.13682" lon="-1.30952">
        <ele>38.810738</ele>
        <time>2015-06-04T10:32:56Z</time>
      </trkpt>
      <trkpt lat="49.1368" lon="-1.30952">
        <ele>38.810738</ele>
        <time>2015-06-04T10:33:01Z</time>
      </trkpt>
      <trkpt lat="49.1368" lon="-1.30953">
        <ele>38.810738</ele>
        <time>2015-06-04T10:33:06Z</time>
      </trkpt>
      <trkpt lat="49.13679" lon="-1.30954">
        <ele>38.810738</ele>
        <time>2015-06-04T10:33:11Z</time>
      </trkpt>
      <trkpt lat="49.1368" lon="-1.30954">
        <ele>38.810738</ele>
        <time>2015-06-04T10:33:16Z</time>
      </trkpt>
      <trkpt lat="49.13682" lon="-1.3095">
        <ele>38.810738</ele>
        <time>2015-06-04T10:33:21Z</time>
      </trkpt>
      <trkpt lat="49.13682" lon="-1.30946">
        <ele>38.222343</ele>
        <time>2015-06-04T10:33:26Z</time>
      </trkpt>
      <trkpt lat="49.1368" lon="-1.30941">
        <ele>38.222343</ele>
        <time>2015-06-04T10:33:31Z</time>
      </trkpt>
      <trkpt lat="49.1368" lon="-1.30941">
        <ele>38.222343</ele>
        <time>2015-06-04T10:33:36Z</time>
      </trkpt>
      <trkpt lat="49.13681" lon="-1.3094">
        <ele>38.222343</ele>
        <time>2015-06-04T10:33:41Z</time>
      </trkpt>
      <trkpt lat="49.1368" lon="-1.30941">
        <ele>38.222343</ele>
        <time>2015-06-04T10:33:46Z</time>
      </trkpt>
      <trkpt lat="49.13681" lon="-1.30942">
        <ele>38.222343</ele>
        <time>2015-06-04T10:33:51Z</time>
      </trkpt>
      <trkpt lat="49.13684" lon="-1.30943">
        <ele>37.432697</ele>
        <time>2015-06-04T10:33:56Z</time>
      </trkpt>
      <trkpt lat="49.13687" lon="-1.30944">
        <ele>37.432697</ele>
        <time>2015-06-04T10:34:01Z</time>
      </trkpt>
      <trkpt lat="49.13687" lon="-1.30944">
        <ele>37.432697</ele>
        <time>2015-06-04T10:34:06Z</time>
      </trkpt>
      <trkpt lat="49.13687" lon="-1.30945">
        <ele>37.432697</ele>
        <time>2015-06-04T10:34:11Z</time>
      </trkpt>
      <trkpt lat="49.13686" lon="-1.30947">
        <ele>37.432697</ele>
        <time>2015-06-04T10:34:16Z</time>
      </trkpt>
      <trkpt lat="49.13685" lon="-1.30948">
        <ele>37.432697</ele>
        <time>2015-06-04T10:34:21Z</time>
      </trkpt>
      <trkpt lat="49.13684" lon="-1.30949">
        <ele>37.432697</ele>
        <time>2015-06-04T10:34:26Z</time>
      </trkpt>
      <trkpt lat="49.13683" lon="-1.30948">
        <ele>37.432697</ele>
        <time>2015-06-04T10:34:31Z</time>
      </trkpt>
      <trkpt lat="49.13682" lon="-1.30949">
        <ele>36.588524</ele>
        <time>2015-06-04T10:34:36Z</time>
      </trkpt>
      <trkpt lat="49.1368" lon="-1.30949">
        <ele>36.588524</ele>
        <time>2015-06-04T10:34:41Z</time>
      </trkpt>
      <trkpt lat="49.13679" lon="-1.30948">
        <ele>36.588524</ele>
        <time>2015-06-04T10:34:46Z</time>
      </trkpt>
      <trkpt lat="49.13681" lon="-1.30948">
        <ele>36.588524</ele>
        <time>2015-06-04T10:34:51Z</time>
      </trkpt>
      <trkpt lat="49.13682" lon="-1.30949">
        <ele>36.588524</ele>
        <time>2015-06-04T10:34:56Z</time>
      </trkpt>
      <trkpt lat="49.13683" lon="-1.30949">
        <ele>36.588524</ele>
        <time>2015-06-04T10:35:01Z</time>
      </trkpt>
      <trkpt lat="49.13683" lon="-1.30949">
        <ele>36.588524</ele>
        <time>2015-06-04T10:35:06Z</time>
      </trkpt>
      <trkpt lat="49.13684" lon="-1.3095">
        <ele>35.898018</ele>
        <time>2015-06-04T10:35:11Z</time>
      </trkpt>
      <trkpt lat="49.13684" lon="-1.3095">
        <ele>35.898018</ele>
        <time>2015-06-04T10:35:16Z</time>
      </trkpt>
      <trkpt lat="49.13682" lon="-1.30943">
        <ele>35.898018</ele>
        <time>2015-06-04T10:35:21Z</time>
      </trkpt>
      <trkpt lat="49.13687" lon="-1.30936">
        <ele>35.33751</ele>
        <time>2015-06-04T10:35:26Z</time>
      </trkpt>
      <trkpt lat="49.1369" lon="-1.3093">
        <ele>35.33751</ele>
        <time>2015-06-04T10:35:31Z</time>
      </trkpt>
      <trkpt lat="49.13692" lon="-1.30925">
        <ele>35.33751</ele>
        <time>2015-06-04T10:35:36Z</time>
      </trkpt>
      <trkpt lat="49.13695" lon="-1.30917">
        <ele>34.69737</ele>
        <time>2015-06-04T10:35:41Z</time>
      </trkpt>
      <trkpt lat="49.13699" lon="-1.3091">
        <ele>34.69737</ele>
        <time>2015-06-04T10:35:46Z</time>
      </trkpt>
      <trkpt lat="49.13701" lon="-1.30905">
        <ele>34.071815</ele>
        <time>2015-06-04T10:35:51Z</time>
      </trkpt>
      <trkpt lat="49.13704" lon="-1.30899">
        <ele>34.071815</ele>
        <time>2015-06-04T10:35:56Z</time>
      </trkpt>
      <trkpt lat="49.13707" lon="-1.30889">
        <ele>33.40401</ele>
        <time>2015-06-04T10:36:01Z</time>
      </trkpt>
      <trkpt lat="49.13712" lon="-1.30882">
        <ele>33.40401</ele>
        <time>2015-06-04T10:36:06Z</time>
      </trkpt>
      <trkpt lat="49.13715" lon="-1.30876">
        <ele>32.771095</ele>
        <time>2015-06-04T10:36:11Z</time>
      </trkpt>
      <trkpt lat="49.13718" lon="-1.3087">
        <ele>32.771095</ele>
        <time>2015-06-04T10:36:16Z</time>
      </trkpt>
      <trkpt lat="49.13721" lon="-1.30866">
        <ele>32.201202</ele>
        <time>2015-06-04T10:36:21Z</time>
      </trkpt>
      <trkpt lat="49.13725" lon="-1.30865">
        <ele>32.201202</ele>
        <time>2015-06-04T10:36:26Z</time>
      </trkpt>
      <trkpt lat="49.13732" lon="-1.30863">
        <ele>31.792274</ele>
        <time>2015-06-04T10:36:31Z</time>
      </trkpt>
      <trkpt lat="49.13738" lon="-1.30865">
        <ele>31.792274</ele>
        <time>2015-06-04T10:36:36Z</time>
      </trkpt>
      <trkpt lat="49.13744" lon="-1.3087">
        <ele>31.519287</ele>
        <time>2015-06-04T10:36:41Z</time>
      </trkpt>
      <trkpt lat="49.13748" lon="-1.30874">
        <ele>31.519287</ele>
        <time>2015-06-04T10:36:46Z</time>
      </trkpt>
      <trkpt lat="49.13753" lon="-1.30879">
        <ele>31.4019</ele>
        <time>2015-06-04T10:36:51Z</time>
      </trkpt>
      <trkpt lat="49.13759" lon="-1.30883">
        <ele>31.4019</ele>
        <time>2015-06-04T10:36:56Z</time>
      </trkpt>
      <trkpt lat="49.13765" lon="-1.30887">
        <ele>31.29934</ele>
        <time>2015-06-04T10:37:01Z</time>
      </trkpt>
      <trkpt lat="49.13768" lon="-1.30891">
        <ele>31.29934</ele>
        <time>2015-06-04T10:37:06Z</time>
      </trkpt>
      <trkpt lat="49.13776" lon="-1.30897">
        <ele>31.066702</ele>
        <time>2015-06-04T10:37:11Z</time>
      </trkpt>
      <trkpt lat="49.1378" lon="-1.309">
        <ele>31.066702</ele>
        <time>2015-06-04T10:37:16Z</time>
      </trkpt>
      <trkpt lat="49.13785" lon="-1.30902">
        <ele>30.829475</ele>
        <time>2015-06-04T10:37:21Z</time>
      </trkpt>
      <trkpt lat="49.13791" lon="-1.30906">
        <ele>30.829475</ele>
        <time>2015-06-04T10:37:26Z</time>
      </trkpt>
      <trkpt lat="49.13796" lon="-1.30911">
        <ele>30.58863</ele>
        <time>2015-06-04T10:37:31Z</time>
      </trkpt>
      <trkpt lat="49.13801" lon="-1.30913">
        <ele>30.58863</ele>
        <time>2015-06-04T10:37:36Z</time>
      </trkpt>
      <trkpt lat="49.13808" lon="-1.30914">
        <ele>30.417109</ele>
        <time>2015-06-04T10:37:41Z</time>
      </trkpt>
      <trkpt lat="49.13815" lon="-1.30911">
        <ele>30.417109</ele>
        <time>2015-06-04T10:37:46Z</time>
      </trkpt>
      <trkpt lat="49.1382" lon="-1.30908">
        <ele>30.194937</ele>
        <time>2015-06-04T10:37:51Z</time>
      </trkpt>
      <trkpt lat="49.13826" lon="-1.30909">
        <ele>30.194937</ele>
        <time>2015-06-04T10:37:56Z</time>
      </trkpt>
      <trkpt lat="49.13832" lon="-1.30909">
        <ele>29.911953</ele>
        <time>2015-06-04T10:38:01Z</time>
      </trkpt>
      <trkpt lat="49.13837" lon="-1.30909">
        <ele>29.911953</ele>
        <time>2015-06-04T10:38:06Z</time>
      </trkpt>
      <trkpt lat="49.13844" lon="-1.30908">
        <ele>29.68859</ele>
        <time>2015-06-04T10:38:11Z</time>
      </trkpt>
      <trkpt lat="49.13849" lon="-1.30908">
        <ele>29.68859</ele>
        <time>2015-06-04T10:38:16Z</time>
      </trkpt>
      <trkpt lat="49.13856" lon="-1.30909">
        <ele>29.492132</ele>
        <time>2015-06-04T10:38:21Z</time>
      </trkpt>
      <trkpt lat="49.13864" lon="-1.30909">
        <ele>29.492132</ele>
        <time>2015-06-04T10:38:26Z</time>
      </trkpt>
      <trkpt lat="49.13871" lon="-1.30909">
        <ele>29.277765</ele>
        <time>2015-06-04T10:38:31Z</time>
      </trkpt>
      <trkpt lat="49.13875" lon="-1.30909">
        <ele>29.277765</ele>
        <time>2015-06-04T10:38:36Z</time>
      </trkpt>
      <trkpt lat="49.13883" lon="-1.30906">
        <ele>29.047224</ele>
        <time>2015-06-04T10:38:41Z</time>
      </trkpt>
      <trkpt lat="49.13887" lon="-1.30904">
        <ele>29.047224</ele>
        <time>2015-06-04T10:38:46Z</time>
      </trkpt>
      <trkpt lat="49.13893" lon="-1.30899">
        <ele>28.744497</ele>
        <time>2015-06-04T10:38:51Z</time>
      </trkpt>
      <trkpt lat="49.13898" lon="-1.30893">
        <ele>28.744497</ele>
        <time>2015-06-04T10:38:56Z</time>
      </trkpt>
      <trkpt lat="49.13904" lon="-1.30888">
        <ele>28.332285</ele>
        <time>2015-06-04T10:39:01Z</time>
      </trkpt>
      <trkpt lat="49.13909" lon="-1.30882">
        <ele>28.332285</ele>
        <time>2015-06-04T10:39:06Z</time>
      </trkpt>
      <trkpt lat="49.13914" lon="-1.30877">
        <ele>27.877186</ele>
        <time>2015-06-04T10:39:11Z</time>
      </trkpt>
      <trkpt lat="49.13918" lon="-1.30871">
        <ele>27.877186</ele>
        <time>2015-06-04T10:39:16Z</time>
      </trkpt>
      <trkpt lat="49.13922" lon="-1.30864">
        <ele>27.36895</ele>
        <time>2015-06-04T10:39:21Z</time>
      </trkpt>
      <trkpt lat="49.13926" lon="-1.30859">
        <ele>27.36895</ele>
        <time>2015-06-04T10:39:26Z</time>
      </trkpt>
      <trkpt lat="49.13932" lon="-1.30853">
        <ele>26.841442</ele>
        <time>2015-06-04T10:39:31Z</time>
      </trkpt>
      <trkpt lat="49.13936" lon="-1.30847">
        <ele>26.841442</ele>
        <time>2015-06-04T10:39:36Z</time>
      </trkpt>
      <trkpt lat="49.13942" lon="-1.30842">
        <ele>26.340475</ele>
        <time>2015-06-04T10:39:41Z</time>
      </trkpt>
      <trkpt lat="49.13948" lon="-1.30838">
        <ele>26.340475</ele>
        <time>2015-06-04T10:39:46Z</time>
      </trkpt>
      <trkpt lat="49.13954" lon="-1.30832">
        <ele>25.836346</ele>
        <time>2015-06-04T10:39:51Z</time>
      </trkpt>
      <trkpt lat="49.1396" lon="-1.30828">
        <ele>25.836346</ele>
        <time>2015-06-04T10:39:56Z</time>
      </trkpt>
      <trkpt lat="49.13964" lon="-1.30823">
        <ele>25.359152</ele>
        <time>2015-06-04T10:40:01Z</time>
      </trkpt>
      <trkpt lat="49.13969" lon="-1.30817">
        <ele>25.359152</ele>
        <time>2015-06-04T10:40:06Z</time>
      </trkpt>
      <trkpt lat="49.13975" lon="-1.30811">
        <ele>24.936682</ele>
        <time>2015-06-04T10:40:11Z</time>
      </trkpt>
      <trkpt lat="49.1398" lon="-1.30805">
        <ele>24.936682</ele>
        <time>2015-06-04T10:40:16Z</time>
      </trkpt>
      <trkpt lat="49.13985" lon="-1.30798">
        <ele>24.580088</ele>
        <time>2015-06-04T10:40:21Z</time>
      </trkpt>
      <trkpt lat="49.13991" lon="-1.30793">
        <ele>24.580088</ele>
        <time>2015-06-04T10:40:26Z</time>
      </trkpt>
      <trkpt lat="49.13996" lon="-1.30788">
        <ele>24.24184</ele>
        <time>2015-06-04T10:40:31Z</time>
      </trkpt>
      <trkpt lat="49.14" lon="-1.30783">
        <ele>24.24184</ele>
        <time>2015-06-04T10:40:36Z</time>
      </trkpt>
      <trkpt lat="49.14006" lon="-1.30778">
        <ele>23.921062</ele>
        <time>2015-06-04T10:40:41Z</time>
      </trkpt>
      <trkpt lat="49.14011" lon="-1.30773">
        <ele>23.921062</ele>
        <time>2015-06-04T10:40:46Z</time>
      </trkpt>
      <trkpt lat="49.14016" lon="-1.30769">
        <ele>23.645678</ele>
        <time>2015-06-04T10:40:51Z</time>
      </trkpt>
      <trkpt lat="49.1402" lon="-1.30762">
        <ele>23.645678</ele>
        <time>2015-06-04T10:40:56Z</time>
      </trkpt>
      <trkpt lat="49.14024" lon="-1.30758">
        <ele>23.326124</ele>
        <time>2015-06-04T10:41:01Z</time>
      </trkpt>
      <trkpt lat="49.1403" lon="-1.30752">
        <ele>23.326124</ele>
        <time>2015-06-04T10:41:06Z</time>
      </trkpt>
      <trkpt lat="49.14033" lon="-1.30747">
        <ele>22.90833</ele>
        <time>2015-06-04T10:41:11Z</time>
      </trkpt>
      <trkpt lat="49.14037" lon="-1.30742">
        <ele>22.90833</ele>
        <time>2015-06-04T10:41:16Z</time>
      </trkpt>
      <trkpt lat="49.1404" lon="-1.30738">
        <ele>22.90833</ele>
        <time>2015-06-04T10:41:21Z</time>
      </trkpt>
      <trkpt lat="49.14045" lon="-1.30731">
        <ele>22.428923</ele>
        <time>2015-06-04T10:41:26Z</time>
      </trkpt>
      <trkpt lat="49.14048" lon="-1.30726">
        <ele>22.428923</ele>
        <time>2015-06-04T10:41:31Z</time>
      </trkpt>
      <trkpt lat="49.14054" lon="-1.30721">
        <ele>21.921976</ele>
        <time>2015-06-04T10:41:36Z</time>
      </trkpt>
      <trkpt lat="49.14057" lon="-1.30716">
        <ele>21.921976</ele>
        <time>2015-06-04T10:41:41Z</time>
      </trkpt>
      <trkpt lat="49.14059" lon="-1.30714">
        <ele>21.921976</ele>
        <time>2015-06-04T10:41:46Z</time>
      </trkpt>
      <trkpt lat="49.14059" lon="-1.30711">
        <ele>21.921976</ele>
        <time>2015-06-04T10:41:51Z</time>
      </trkpt>
      <trkpt lat="49.14058" lon="-1.30711">
        <ele>21.303831</ele>
        <time>2015-06-04T10:41:56Z</time>
      </trkpt>
      <trkpt lat="49.14058" lon="-1.30714">
        <ele>21.303831</ele>
        <time>2015-06-04T10:42:01Z</time>
      </trkpt>
      <trkpt lat="49.14058" lon="-1.30714">
        <ele>21.303831</ele>
        <time>2015-06-04T10:42:06Z</time>
      </trkpt>
      <trkpt lat="49.14058" lon="-1.30712">
        <ele>21.303831</ele>
        <time>2015-06-04T10:42:11Z</time>
      </trkpt>
      <trkpt lat="49.14058" lon="-1.30711">
        <ele>21.303831</ele>
        <time>2015-06-04T10:42:16Z</time>
      </trkpt>
      <trkpt lat="49.14058" lon="-1.30711">
        <ele>21.303831</ele>
        <time>2015-06-04T10:42:21Z</time>
      </trkpt>
      <trkpt lat="49.14058" lon="-1.30711">
        <ele>21.303831</ele>
        <time>2015-06-04T10:42:26Z</time>
      </trkpt>
      <trkpt lat="49.14057" lon="-1.30712">
        <ele>21.303831</ele>
        <time>2015-06-04T10:42:31Z</time>
      </trkpt>
      <trkpt lat="49.14057" lon="-1.30712">
        <ele>21.303831</ele>
        <time>2015-06-04T10:42:36Z</time>
      </trkpt>
      <trkpt lat="49.14057" lon="-1.30713">
        <ele>21.303831</ele>
        <time>2015-06-04T10:42:41Z</time>
      </trkpt>
      <trkpt lat="49.14057" lon="-1.30713">
        <ele>21.303831</ele>
        <time>2015-06-04T10:42:46Z</time>
      </trkpt>
      <trkpt lat="49.14057" lon="-1.30713">
        <ele>21.303831</ele>
        <time>2015-06-04T10:42:51Z</time>
      </trkpt>
      <trkpt lat="49.14055" lon="-1.30705">
        <ele>20.0361</ele>
        <time>2015-06-04T10:43:01Z</time>
      </trkpt>
      <trkpt lat="49.14052" lon="-1.30695">
        <ele>20.0361</ele>
        <time>2015-06-04T10:43:06Z</time>
      </trkpt>
      <trkpt lat="49.1405" lon="-1.30691">
        <ele>18.817863</ele>
        <time>2015-06-04T10:43:11Z</time>
      </trkpt>
      <trkpt lat="49.14047" lon="-1.30687">
        <ele>18.817863</ele>
        <time>2015-06-04T10:43:16Z</time>
      </trkpt>
      <trkpt lat="49.14044" lon="-1.30682">
        <ele>18.817863</ele>
        <time>2015-06-04T10:43:21Z</time>
      </trkpt>
      <trkpt lat="49.14041" lon="-1.30678">
        <ele>18.12374</ele>
        <time>2015-06-04T10:43:26Z</time>
      </trkpt>
      <trkpt lat="49.14038" lon="-1.30669">
        <ele>18.12374</ele>
        <time>2015-06-04T10:43:31Z</time>
      </trkpt>
      <trkpt lat="49.14037" lon="-1.30668">
        <ele>18.12374</ele>
        <time>2015-06-04T10:43:36Z</time>
      </trkpt>
      <trkpt lat="49.14037" lon="-1.30671">
        <ele>17.68583</ele>
        <time>2015-06-04T10:43:41Z</time>
      </trkpt>
      <trkpt lat="49.14036" lon="-1.30671">
        <ele>17.68583</ele>
        <time>2015-06-04T10:43:46Z</time>
      </trkpt>
      <trkpt lat="49.14035" lon="-1.3067">
        <ele>17.68583</ele>
        <time>2015-06-04T10:43:51Z</time>
      </trkpt>
      <trkpt lat="49.14035" lon="-1.30669">
        <ele>17.68583</ele>
        <time>2015-06-04T10:43:56Z</time>
      </trkpt>
      <trkpt lat="49.14035" lon="-1.3067">
        <ele>17.68583</ele>
        <time>2015-06-04T10:44:01Z</time>
      </trkpt>
      <trkpt lat="49.14036" lon="-1.3067">
        <ele>17.68583</ele>
        <time>2015-06-04T10:44:06Z</time>
      </trkpt>
      <trkpt lat="49.14037" lon="-1.30669">
        <ele>17.68583</ele>
        <time>2015-06-04T10:44:11Z</time>
      </trkpt>
      <trkpt lat="49.14036" lon="-1.30667">
        <ele>17.68583</ele>
        <time>2015-06-04T10:44:16Z</time>
      </trkpt>
      <trkpt lat="49.14031" lon="-1.30663">
        <ele>17.874842</ele>
        <time>2015-06-04T10:44:21Z</time>
      </trkpt>
      <trkpt lat="49.14028" lon="-1.30656">
        <ele>17.874842</ele>
        <time>2015-06-04T10:44:26Z</time>
      </trkpt>
      <trkpt lat="49.14025" lon="-1.30648">
        <ele>18.138966</ele>
        <time>2015-06-04T10:44:31Z</time>
      </trkpt>
      <trkpt lat="49.1402" lon="-1.30641">
        <ele>18.138966</ele>
        <time>2015-06-04T10:44:36Z</time>
      </trkpt>
      <trkpt lat="49.14016" lon="-1.30636">
        <ele>18.4999</ele>
        <time>2015-06-04T10:44:41Z</time>
      </trkpt>
      <trkpt lat="49.14014" lon="-1.30629">
        <ele>18.4999</ele>
        <time>2015-06-04T10:44:46Z</time>
      </trkpt>
      <trkpt lat="49.14011" lon="-1.30623">
        <ele>18.934225</ele>
        <time>2015-06-04T10:44:51Z</time>
      </trkpt>
      <trkpt lat="49.14008" lon="-1.30618">
        <ele>18.934225</ele>
        <time>2015-06-04T10:44:56Z</time>
      </trkpt>
      <trkpt lat="49.14004" lon="-1.30612">
        <ele>19.463242</ele>
        <time>2015-06-04T10:45:01Z</time>
      </trkpt>
      <trkpt lat="49.14001" lon="-1.30606">
        <ele>19.463242</ele>
        <time>2015-06-04T10:45:06Z</time>
      </trkpt>
      <trkpt lat="49.13999" lon="-1.30601">
        <ele>20.048779</ele>
        <time>2015-06-04T10:45:11Z</time>
      </trkpt>
      <trkpt lat="49.13996" lon="-1.30594">
        <ele>20.048779</ele>
        <time>2015-06-04T10:45:16Z</time>
      </trkpt>
      <trkpt lat="49.13993" lon="-1.30586">
        <ele>20.71295</ele>
        <time>2015-06-04T10:45:21Z</time>
      </trkpt>
      <trkpt lat="49.13989" lon="-1.3058">
        <ele>20.71295</ele>
        <time>2015-06-04T10:45:26Z</time>
      </trkpt>
      <trkpt lat="49.13984" lon="-1.30573">
        <ele>21.504854</ele>
        <time>2015-06-04T10:45:31Z</time>
      </trkpt>
      <trkpt lat="49.13981" lon="-1.30565">
        <ele>21.504854</ele>
        <time>2015-06-04T10:45:36Z</time>
      </trkpt>
      <trkpt lat="49.13978" lon="-1.30559">
        <ele>22.31112</ele>
        <time>2015-06-04T10:45:41Z</time>
      </trkpt>
      <trkpt lat="49.13975" lon="-1.30552">
        <ele>22.31112</ele>
        <time>2015-06-04T10:45:46Z</time>
      </trkpt>
      <trkpt lat="49.13972" lon="-1.30544">
        <ele>23.185205</ele>
        <time>2015-06-04T10:45:51Z</time>
      </trkpt>
      <trkpt lat="49.13969" lon="-1.30538">
        <ele>23.185205</ele>
        <time>2015-06-04T10:45:56Z</time>
      </trkpt>
      <trkpt lat="49.13965" lon="-1.3053">
        <ele>24.190897</ele>
        <time>2015-06-04T10:46:01Z</time>
      </trkpt>
      <trkpt lat="49.13961" lon="-1.30521">
        <ele>24.190897</ele>
        <time>2015-06-04T10:46:06Z</time>
      </trkpt>
      <trkpt lat="49.13958" lon="-1.30515">
        <ele>25.271677</ele>
        <time>2015-06-04T10:46:11Z</time>
      </trkpt>
      <trkpt lat="49.13955" lon="-1.30509">
        <ele>25.271677</ele>
        <time>2015-06-04T10:46:16Z</time>
      </trkpt>
      <trkpt lat="49.13951" lon="-1.30501">
        <ele>26.389425</ele>
        <time>2015-06-04T10:46:21Z</time>
      </trkpt>
      <trkpt lat="49.13947" lon="-1.30492">
        <ele>26.389425</ele>
        <time>2015-06-04T10:46:26Z</time>
      </trkpt>
      <trkpt lat="49.13943" lon="-1.30487">
        <ele>27.47995</ele>
        <time>2015-06-04T10:46:31Z</time>
      </trkpt>
      <trkpt lat="49.13938" lon="-1.30483">
        <ele>27.47995</ele>
        <time>2015-06-04T10:46:36Z</time>
      </trkpt>
      <trkpt lat="49.13934" lon="-1.30477">
        <ele>28.555967</ele>
        <time>2015-06-04T10:46:41Z</time>
      </trkpt>
      <trkpt lat="49.13927" lon="-1.30475">
        <ele>28.555967</ele>
        <time>2015-06-04T10:46:46Z</time>
      </trkpt>
      <trkpt lat="49.13921" lon="-1.30471">
        <ele>29.658194</ele>
        <time>2015-06-04T10:46:51Z</time>
      </trkpt>
      <trkpt lat="49.13915" lon="-1.30469">
        <ele>29.658194</ele>
        <time>2015-06-04T10:46:56Z</time>
      </trkpt>
      <trkpt lat="49.13909" lon="-1.30467">
        <ele>30.737883</ele>
        <time>2015-06-04T10:47:01Z</time>
      </trkpt>
      <trkpt lat="49.13905" lon="-1.30461">
        <ele>30.737883</ele>
        <time>2015-06-04T10:47:06Z</time>
      </trkpt>
      <trkpt lat="49.139" lon="-1.30455">
        <ele>31.836483</ele>
        <time>2015-06-04T10:47:11Z</time>
      </trkpt>
      <trkpt lat="49.13897" lon="-1.30449">
        <ele>31.836483</ele>
        <time>2015-06-04T10:47:16Z</time>
      </trkpt>
      <trkpt lat="49.13893" lon="-1.30442">
        <ele>32.992428</ele>
        <time>2015-06-04T10:47:21Z</time>
      </trkpt>
      <trkpt lat="49.13889" lon="-1.30434">
        <ele>32.992428</ele>
        <time>2015-06-04T10:47:26Z</time>
      </trkpt>
      <trkpt lat="49.13887" lon="-1.30428">
        <ele>34.21243</ele>
        <time>2015-06-04T10:47:31Z</time>
      </trkpt>
      <trkpt lat="49.13883" lon="-1.3042">
        <ele>34.21243</ele>
        <time>2015-06-04T10:47:36Z</time>
      </trkpt>
      <trkpt lat="49.13879" lon="-1.30412">
        <ele>35.43056</ele>
        <time>2015-06-04T10:47:41Z</time>
      </trkpt>
      <trkpt lat="49.13876" lon="-1.30406">
        <ele>35.43056</ele>
        <time>2015-06-04T10:47:46Z</time>
      </trkpt>
      <trkpt lat="49.13871" lon="-1.30399">
        <ele>36.64349</ele>
        <time>2015-06-04T10:47:51Z</time>
      </trkpt>
      <trkpt lat="49.13867" lon="-1.30391">
        <ele>36.64349</ele>
        <time>2015-06-04T10:47:56Z</time>
      </trkpt>
      <trkpt lat="49.13861" lon="-1.30384">
        <ele>37.848236</ele>
        <time>2015-06-04T10:48:01Z</time>
      </trkpt>
      <trkpt lat="49.13857" lon="-1.30378">
        <ele>37.848236</ele>
        <time>2015-06-04T10:48:06Z</time>
      </trkpt>
      <trkpt lat="49.13852" lon="-1.30376">
        <ele>39.05658</ele>
        <time>2015-06-04T10:48:11Z</time>
      </trkpt>
      <trkpt lat="49.13846" lon="-1.30373">
        <ele>39.05658</ele>
        <time>2015-06-04T10:48:16Z</time>
      </trkpt>
      <trkpt lat="49.1384" lon="-1.30371">
        <ele>40.250694</ele>
        <time>2015-06-04T10:48:21Z</time>
      </trkpt>
      <trkpt lat="49.13833" lon="-1.30367">
        <ele>40.250694</ele>
        <time>2015-06-04T10:48:26Z</time>
      </trkpt>
      <trkpt lat="49.1383" lon="-1.30365">
        <ele>41.50069</ele>
        <time>2015-06-04T10:48:31Z</time>
      </trkpt>
      <trkpt lat="49.13825" lon="-1.30359">
        <ele>41.50069</ele>
        <time>2015-06-04T10:48:36Z</time>
      </trkpt>
      <trkpt lat="49.13821" lon="-1.30352">
        <ele>42.684116</ele>
        <time>2015-06-04T10:48:41Z</time>
      </trkpt>
      <trkpt lat="49.13816" lon="-1.30346">
        <ele>42.684116</ele>
        <time>2015-06-04T10:48:46Z</time>
      </trkpt>
      <trkpt lat="49.13813" lon="-1.30341">
        <ele>43.81752</ele>
        <time>2015-06-04T10:48:51Z</time>
      </trkpt>
      <trkpt lat="49.13808" lon="-1.30331">
        <ele>43.81752</ele>
        <time>2015-06-04T10:48:56Z</time>
      </trkpt>
      <trkpt lat="49.13803" lon="-1.30323">
        <ele>44.873245</ele>
        <time>2015-06-04T10:49:01Z</time>
      </trkpt>
      <trkpt lat="49.13799" lon="-1.30318">
        <ele>44.873245</ele>
        <time>2015-06-04T10:49:06Z</time>
      </trkpt>
      <trkpt lat="49.13794" lon="-1.30311">
        <ele>45.82599</ele>
        <time>2015-06-04T10:49:11Z</time>
      </trkpt>
      <trkpt lat="49.13788" lon="-1.30304">
        <ele>45.82599</ele>
        <time>2015-06-04T10:49:16Z</time>
      </trkpt>
      <trkpt lat="49.13785" lon="-1.30298">
        <ele>46.73917</ele>
        <time>2015-06-04T10:49:21Z</time>
      </trkpt>
      <trkpt lat="49.1378" lon="-1.30292">
        <ele>46.73917</ele>
        <time>2015-06-04T10:49:26Z</time>
      </trkpt>
      <trkpt lat="49.13775" lon="-1.30284">
        <ele>47.58529</ele>
        <time>2015-06-04T10:49:31Z</time>
      </trkpt>
      <trkpt lat="49.13771" lon="-1.30278">
        <ele>47.58529</ele>
        <time>2015-06-04T10:49:36Z</time>
      </trkpt>
      <trkpt lat="49.13767" lon="-1.30272">
        <ele>48.367985</ele>
        <time>2015-06-04T10:49:41Z</time>
      </trkpt>
      <trkpt lat="49.13763" lon="-1.30265">
        <ele>48.367985</ele>
        <time>2015-06-04T10:49:46Z</time>
      </trkpt>
      <trkpt lat="49.13758" lon="-1.30258">
        <ele>49.090897</ele>
        <time>2015-06-04T10:49:51Z</time>
      </trkpt>
      <trkpt lat="49.13754" lon="-1.30253">
        <ele>49.090897</ele>
        <time>2015-06-04T10:49:56Z</time>
      </trkpt>
      <trkpt lat="49.13751" lon="-1.30248">
        <ele>49.757656</ele>
        <time>2015-06-04T10:50:01Z</time>
      </trkpt>
      <trkpt lat="49.13751" lon="-1.30249">
        <ele>49.757656</ele>
        <time>2015-06-04T10:50:06Z</time>
      </trkpt>
      <trkpt lat="49.1375" lon="-1.30248">
        <ele>49.757656</ele>
        <time>2015-06-04T10:50:11Z</time>
      </trkpt>
      <trkpt lat="49.13751" lon="-1.30249">
        <ele>49.757656</ele>
        <time>2015-06-04T10:50:16Z</time>
      </trkpt>
      <trkpt lat="49.13751" lon="-1.30248">
        <ele>49.757656</ele>
        <time>2015-06-04T10:50:21Z</time>
      </trkpt>
      <trkpt lat="49.1375" lon="-1.30247">
        <ele>49.757656</ele>
        <time>2015-06-04T10:50:26Z</time>
      </trkpt>
      <trkpt lat="49.1375" lon="-1.30248">
        <ele>49.757656</ele>
        <time>2015-06-04T10:50:31Z</time>
      </trkpt>
      <trkpt lat="49.1375" lon="-1.30248">
        <ele>49.757656</ele>
        <time>2015-06-04T10:50:36Z</time>
      </trkpt>
      <trkpt lat="49.13751" lon="-1.30248">
        <ele>49.757656</ele>
        <time>2015-06-04T10:50:41Z</time>
      </trkpt>
      <trkpt lat="49.1375" lon="-1.30247">
        <ele>49.757656</ele>
        <time>2015-06-04T10:50:46Z</time>
      </trkpt>
      <trkpt lat="49.13747" lon="-1.30244">
        <ele>49.757656</ele>
        <time>2015-06-04T10:50:51Z</time>
      </trkpt>
      <trkpt lat="49.13746" lon="-1.30242">
        <ele>50.270992</ele>
        <time>2015-06-04T10:50:56Z</time>
      </trkpt>
      <trkpt lat="49.13745" lon="-1.30243">
        <ele>50.270992</ele>
        <time>2015-06-04T10:51:01Z</time>
      </trkpt>
      <trkpt lat="49.13745" lon="-1.30243">
        <ele>50.270992</ele>
        <time>2015-06-04T10:51:06Z</time>
      </trkpt>
      <trkpt lat="49.13746" lon="-1.30243">
        <ele>50.270992</ele>
        <time>2015-06-04T10:51:11Z</time>
      </trkpt>
      <trkpt lat="49.13746" lon="-1.30243">
        <ele>50.270992</ele>
        <time>2015-06-04T10:51:16Z</time>
      </trkpt>
      <trkpt lat="49.13746" lon="-1.30242">
        <ele>50.270992</ele>
        <time>2015-06-04T10:51:21Z</time>
      </trkpt>
      <trkpt lat="49.13746" lon="-1.30241">
        <ele>50.270992</ele>
        <time>2015-06-04T10:51:26Z</time>
      </trkpt>
      <trkpt lat="49.13741" lon="-1.30236">
        <ele>50.743053</ele>
        <time>2015-06-04T10:51:31Z</time>
      </trkpt>
      <trkpt lat="49.13734" lon="-1.30231">
        <ele>50.743053</ele>
        <time>2015-06-04T10:51:36Z</time>
      </trkpt>
      <trkpt lat="49.1373" lon="-1.30226">
        <ele>51.205875</ele>
        <time>2015-06-04T10:51:41Z</time>
      </trkpt>
      <trkpt lat="49.13725" lon="-1.3022">
        <ele>51.205875</ele>
        <time>2015-06-04T10:51:46Z</time>
      </trkpt>
      <trkpt lat="49.13719" lon="-1.30212">
        <ele>51.631603</ele>
        <time>2015-06-04T10:51:51Z</time>
      </trkpt>
      <trkpt lat="49.13715" lon="-1.30206">
        <ele>51.631603</ele>
        <time>2015-06-04T10:51:56Z</time>
      </trkpt>
      <trkpt lat="49.13711" lon="-1.302">
        <ele>51.98017</ele>
        <time>2015-06-04T10:52:01Z</time>
      </trkpt>
      <trkpt lat="49.13707" lon="-1.30195">
        <ele>51.98017</ele>
        <time>2015-06-04T10:52:06Z</time>
      </trkpt>
      <trkpt lat="49.13702" lon="-1.30189">
        <ele>52.22915</ele>
        <time>2015-06-04T10:52:11Z</time>
      </trkpt>
      <trkpt lat="49.13697" lon="-1.30185">
        <ele>52.22915</ele>
        <time>2015-06-04T10:52:16Z</time>
      </trkpt>
      <trkpt lat="49.13695" lon="-1.30184">
        <ele>52.22915</ele>
        <time>2015-06-04T10:52:21Z</time>
      </trkpt>
      <trkpt lat="49.13695" lon="-1.30182">
        <ele>52.22915</ele>
        <time>2015-06-04T10:52:26Z</time>
      </trkpt>
      <trkpt lat="49.13693" lon="-1.30183">
        <ele>52.372498</ele>
        <time>2015-06-04T10:52:31Z</time>
      </trkpt>
      <trkpt lat="49.13691" lon="-1.30185">
        <ele>52.372498</ele>
        <time>2015-06-04T10:52:36Z</time>
      </trkpt>
      <trkpt lat="49.13687" lon="-1.30185">
        <ele>52.372498</ele>
        <time>2015-06-04T10:52:41Z</time>
      </trkpt>
      <trkpt lat="49.13682" lon="-1.30191">
        <ele>52.37613</ele>
        <time>2015-06-04T10:52:46Z</time>
      </trkpt>
      <trkpt lat="49.13681" lon="-1.30191">
        <ele>52.37613</ele>
        <time>2015-06-04T10:52:51Z</time>
      </trkpt>
      <trkpt lat="49.13679" lon="-1.30199">
        <ele>52.37613</ele>
        <time>2015-06-04T10:52:56Z</time>
      </trkpt>
      <trkpt lat="49.13676" lon="-1.30207">
        <ele>52.32418</ele>
        <time>2015-06-04T10:53:01Z</time>
      </trkpt>
      <trkpt lat="49.13673" lon="-1.30213">
        <ele>52.32418</ele>
        <time>2015-06-04T10:53:06Z</time>
      </trkpt>
      <trkpt lat="49.13668" lon="-1.30221">
        <ele>52.193916</ele>
        <time>2015-06-04T10:53:11Z</time>
      </trkpt>
      <trkpt lat="49.13665" lon="-1.30227">
        <ele>52.193916</ele>
        <time>2015-06-04T10:53:16Z</time>
      </trkpt>
      <trkpt lat="49.13662" lon="-1.30234">
        <ele>51.964508</ele>
        <time>2015-06-04T10:53:21Z</time>
      </trkpt>
      <trkpt lat="49.13658" lon="-1.30241">
        <ele>51.964508</ele>
        <time>2015-06-04T10:53:26Z</time>
      </trkpt>
      <trkpt lat="49.13653" lon="-1.30247">
        <ele>51.645763</ele>
        <time>2015-06-04T10:53:31Z</time>
      </trkpt>
      <trkpt lat="49.1365" lon="-1.30255">
        <ele>51.645763</ele>
        <time>2015-06-04T10:53:36Z</time>
      </trkpt>
      <trkpt lat="49.13647" lon="-1.30262">
        <ele>51.26144</ele>
        <time>2015-06-04T10:53:41Z</time>
      </trkpt>
      <trkpt lat="49.13642" lon="-1.30269">
        <ele>51.26144</ele>
        <time>2015-06-04T10:53:46Z</time>
      </trkpt>
      <trkpt lat="49.13637" lon="-1.30274">
        <ele>50.819317</ele>
        <time>2015-06-04T10:53:51Z</time>
      </trkpt>
      <trkpt lat="49.13633" lon="-1.30281">
        <ele>50.819317</ele>
        <time>2015-06-04T10:53:56Z</time>
      </trkpt>
      <trkpt lat="49.13626" lon="-1.30286">
        <ele>50.326748</ele>
        <time>2015-06-04T10:54:01Z</time>
      </trkpt>
      <trkpt lat="49.13621" lon="-1.30291">
        <ele>50.326748</ele>
        <time>2015-06-04T10:54:06Z</time>
      </trkpt>
      <trkpt lat="49.13615" lon="-1.30293">
        <ele>49.790665</ele>
        <time>2015-06-04T10:54:11Z</time>
      </trkpt>
      <trkpt lat="49.13608" lon="-1.30298">
        <ele>49.790665</ele>
        <time>2015-06-04T10:54:16Z</time>
      </trkpt>
      <trkpt lat="49.13603" lon="-1.30302">
        <ele>49.34728</ele>
        <time>2015-06-04T10:54:21Z</time>
      </trkpt>
      <trkpt lat="49.13599" lon="-1.30305">
        <ele>49.34728</ele>
        <time>2015-06-04T10:54:26Z</time>
      </trkpt>
      <trkpt lat="49.13592" lon="-1.30311">
        <ele>48.834282</ele>
        <time>2015-06-04T10:54:31Z</time>
      </trkpt>
      <trkpt lat="49.13588" lon="-1.30315">
        <ele>48.834282</ele>
        <time>2015-06-04T10:54:36Z</time>
      </trkpt>
      <trkpt lat="49.13582" lon="-1.3032">
        <ele>48.360836</ele>
        <time>2015-06-04T10:54:41Z</time>
      </trkpt>
      <trkpt lat="49.13576" lon="-1.30325">
        <ele>48.360836</ele>
        <time>2015-06-04T10:54:46Z</time>
      </trkpt>
      <trkpt lat="49.1357" lon="-1.3033">
        <ele>47.955864</ele>
        <time>2015-06-04T10:54:51Z</time>
      </trkpt>
      <trkpt lat="49.13566" lon="-1.30335">
        <ele>47.955864</ele>
        <time>2015-06-04T10:54:56Z</time>
      </trkpt>
      <trkpt lat="49.13563" lon="-1.30335">
        <ele>47.955864</ele>
        <time>2015-06-04T10:55:01Z</time>
      </trkpt>
      <trkpt lat="49.13557" lon="-1.30341">
        <ele>47.54505</ele>
        <time>2015-06-04T10:55:06Z</time>
      </trkpt>
      <trkpt lat="49.13553" lon="-1.30343">
        <ele>47.54505</ele>
        <time>2015-06-04T10:55:11Z</time>
      </trkpt>
      <trkpt lat="49.1355" lon="-1.30346">
        <ele>47.54505</ele>
        <time>2015-06-04T10:55:16Z</time>
      </trkpt>
      <trkpt lat="49.13546" lon="-1.30349">
        <ele>46.915367</ele>
        <time>2015-06-04T10:55:21Z</time>
      </trkpt>
      <trkpt lat="49.1354" lon="-1.30357">
        <ele>46.915367</ele>
        <time>2015-06-04T10:55:26Z</time>
      </trkpt>
      <trkpt lat="49.13535" lon="-1.30362">
        <ele>46.2591</ele>
        <time>2015-06-04T10:55:31Z</time>
      </trkpt>
      <trkpt lat="49.1353" lon="-1.30369">
        <ele>46.2591</ele>
        <time>2015-06-04T10:55:36Z</time>
      </trkpt>
      <trkpt lat="49.13527" lon="-1.30373">
        <ele>45.63912</ele>
        <time>2015-06-04T10:55:41Z</time>
      </trkpt>
      <trkpt lat="49.13521" lon="-1.30379">
        <ele>45.63912</ele>
        <time>2015-06-04T10:55:46Z</time>
      </trkpt>
      <trkpt lat="49.13517" lon="-1.30383">
        <ele>44.969383</ele>
        <time>2015-06-04T10:55:51Z</time>
      </trkpt>
      <trkpt lat="49.13511" lon="-1.30392">
        <ele>44.969383</ele>
        <time>2015-06-04T10:55:56Z</time>
      </trkpt>
      <trkpt lat="49.13506" lon="-1.30397">
        <ele>44.328773</ele>
        <time>2015-06-04T10:56:01Z</time>
      </trkpt>
      <trkpt lat="49.135" lon="-1.30403">
        <ele>44.328773</ele>
        <time>2015-06-04T10:56:06Z</time>
      </trkpt>
      <trkpt lat="49.13495" lon="-1.30405">
        <ele>43.70373</ele>
        <time>2015-06-04T10:56:11Z</time>
      </trkpt>
      <trkpt lat="49.13489" lon="-1.30411">
        <ele>43.70373</ele>
        <time>2015-06-04T10:56:16Z</time>
      </trkpt>
      <trkpt lat="49.13485" lon="-1.30416">
        <ele>43.139217</ele>
        <time>2015-06-04T10:56:21Z</time>
      </trkpt>
      <trkpt lat="49.13481" lon="-1.30422">
        <ele>43.139217</ele>
        <time>2015-06-04T10:56:26Z</time>
      </trkpt>
      <trkpt lat="49.13475" lon="-1.30427">
        <ele>42.633408</ele>
        <time>2015-06-04T10:56:31Z</time>
      </trkpt>
      <trkpt lat="49.13471" lon="-1.30431">
        <ele>42.633408</ele>
        <time>2015-06-04T10:56:36Z</time>
      </trkpt>
      <trkpt lat="49.13464" lon="-1.30436">
        <ele>42.213173</ele>
        <time>2015-06-04T10:56:41Z</time>
      </trkpt>
      <trkpt lat="49.13459" lon="-1.3044">
        <ele>42.213173</ele>
        <time>2015-06-04T10:56:46Z</time>
      </trkpt>
      <trkpt lat="49.13453" lon="-1.30445">
        <ele>41.859848</ele>
        <time>2015-06-04T10:56:51Z</time>
      </trkpt>
      <trkpt lat="49.13447" lon="-1.30448">
        <ele>41.859848</ele>
        <time>2015-06-04T10:56:56Z</time>
      </trkpt>
      <trkpt lat="49.13441" lon="-1.30452">
        <ele>41.5847</ele>
        <time>2015-06-04T10:57:01Z</time>
      </trkpt>
      <trkpt lat="49.13436" lon="-1.30457">
        <ele>41.5847</ele>
        <time>2015-06-04T10:57:06Z</time>
      </trkpt>
      <trkpt lat="49.1343" lon="-1.30461">
        <ele>41.36903</ele>
        <time>2015-06-04T10:57:11Z</time>
      </trkpt>
      <trkpt lat="49.13424" lon="-1.30465">
        <ele>41.36903</ele>
        <time>2015-06-04T10:57:16Z</time>
      </trkpt>
      <trkpt lat="49.13419" lon="-1.30468">
        <ele>41.180855</ele>
        <time>2015-06-04T10:57:21Z</time>
      </trkpt>
      <trkpt lat="49.13413" lon="-1.30471">
        <ele>41.180855</ele>
        <time>2015-06-04T10:57:26Z</time>
      </trkpt>
      <trkpt lat="49.13409" lon="-1.30474">
        <ele>40.99038</ele>
        <time>2015-06-04T10:57:31Z</time>
      </trkpt>
      <trkpt lat="49.13404" lon="-1.30476">
        <ele>40.99038</ele>
        <time>2015-06-04T10:57:36Z</time>
      </trkpt>
      <trkpt lat="49.13397" lon="-1.30482">
        <ele>40.741108</ele>
        <time>2015-06-04T10:57:41Z</time>
      </trkpt>
      <trkpt lat="49.1339" lon="-1.30486">
        <ele>40.741108</ele>
        <time>2015-06-04T10:57:46Z</time>
      </trkpt>
      <trkpt lat="49.13385" lon="-1.3049">
        <ele>40.467247</ele>
        <time>2015-06-04T10:57:51Z</time>
      </trkpt>
      <trkpt lat="49.13381" lon="-1.30494">
        <ele>40.467247</ele>
        <time>2015-06-04T10:57:56Z</time>
      </trkpt>
      <trkpt lat="49.13375" lon="-1.30496">
        <ele>40.27255</ele>
        <time>2015-06-04T10:58:01Z</time>
      </trkpt>
      <trkpt lat="49.1337" lon="-1.30502">
        <ele>40.27255</ele>
        <time>2015-06-04T10:58:06Z</time>
      </trkpt>
      <trkpt lat="49.13363" lon="-1.30507">
        <ele>40.166374</ele>
        <time>2015-06-04T10:58:11Z</time>
      </trkpt>
      <trkpt lat="49.13358" lon="-1.30508">
        <ele>40.166374</ele>
        <time>2015-06-04T10:58:16Z</time>
      </trkpt>
      <trkpt lat="49.13352" lon="-1.3051">
        <ele>40.185913</ele>
        <time>2015-06-04T10:58:21Z</time>
      </trkpt>
      <trkpt lat="49.13349" lon="-1.30513">
        <ele>40.185913</ele>
        <time>2015-06-04T10:58:26Z</time>
      </trkpt>
      <trkpt lat="49.13345" lon="-1.30515">
        <ele>40.185913</ele>
        <time>2015-06-04T10:58:31Z</time>
      </trkpt>
      <trkpt lat="49.13343" lon="-1.30516">
        <ele>40.379616</ele>
        <time>2015-06-04T10:58:36Z</time>
      </trkpt>
      <trkpt lat="49.1334" lon="-1.30519">
        <ele>40.379616</ele>
        <time>2015-06-04T10:58:41Z</time>
      </trkpt>
      <trkpt lat="49.13336" lon="-1.3052">
        <ele>40.379616</ele>
        <time>2015-06-04T10:58:46Z</time>
      </trkpt>
      <trkpt lat="49.13332" lon="-1.30521">
        <ele>40.80624</ele>
        <time>2015-06-04T10:58:51Z</time>
      </trkpt>
      <trkpt lat="49.13326" lon="-1.30526">
        <ele>40.80624</ele>
        <time>2015-06-04T10:58:56Z</time>
      </trkpt>
      <trkpt lat="49.13318" lon="-1.30529">
        <ele>41.26012</ele>
        <time>2015-06-04T10:59:01Z</time>
      </trkpt>
      <trkpt lat="49.13314" lon="-1.3053">
        <ele>41.26012</ele>
        <time>2015-06-04T10:59:06Z</time>
      </trkpt>
      <trkpt lat="49.13305" lon="-1.30533">
        <ele>41.752335</ele>
        <time>2015-06-04T10:59:11Z</time>
      </trkpt>
      <trkpt lat="49.133" lon="-1.30537">
        <ele>41.752335</ele>
        <time>2015-06-04T10:59:16Z</time>
      </trkpt>
      <trkpt lat="49.13294" lon="-1.30539">
        <ele>42.20653</ele>
        <time>2015-06-04T10:59:21Z</time>
      </trkpt>
      <trkpt lat="49.13289" lon="-1.30541">
        <ele>42.20653</ele>
        <time>2015-06-04T10:59:26Z</time>
      </trkpt>
      <trkpt lat="49.13284" lon="-1.30543">
        <ele>42.65293</ele>
        <time>2015-06-04T10:59:31Z</time>
      </trkpt>
      <trkpt lat="49.1328" lon="-1.30543">
        <ele>42.65293</ele>
        <time>2015-06-04T10:59:36Z</time>
      </trkpt>
      <trkpt lat="49.13274" lon="-1.30548">
        <ele>43.11952</ele>
        <time>2015-06-04T10:59:41Z</time>
      </trkpt>
      <trkpt lat="49.13269" lon="-1.30552">
        <ele>43.11952</ele>
        <time>2015-06-04T10:59:46Z</time>
      </trkpt>
      <trkpt lat="49.13263" lon="-1.30554">
        <ele>43.588924</ele>
        <time>2015-06-04T10:59:51Z</time>
      </trkpt>
      <trkpt lat="49.13256" lon="-1.30558">
        <ele>43.588924</ele>
        <time>2015-06-04T10:59:56Z</time>
      </trkpt>
      <trkpt lat="49.13254" lon="-1.3056">
        <ele>44.059444</ele>
        <time>2015-06-04T11:00:01Z</time>
      </trkpt>
      <trkpt lat="49.13248" lon="-1.30563">
        <ele>44.059444</ele>
        <time>2015-06-04T11:00:06Z</time>
      </trkpt>
      <trkpt lat="49.13241" lon="-1.30563">
        <ele>44.572723</ele>
        <time>2015-06-04T11:00:11Z</time>
      </trkpt>
      <trkpt lat="49.13236" lon="-1.30566">
        <ele>44.572723</ele>
        <time>2015-06-04T11:00:16Z</time>
      </trkpt>
      <trkpt lat="49.13229" lon="-1.3057">
        <ele>45.167225</ele>
        <time>2015-06-04T11:00:21Z</time>
      </trkpt>
      <trkpt lat="49.13224" lon="-1.30572">
        <ele>45.167225</ele>
        <time>2015-06-04T11:00:26Z</time>
      </trkpt>
      <trkpt lat="49.13218" lon="-1.30575">
        <ele>45.691017</ele>
        <time>2015-06-04T11:00:31Z</time>
      </trkpt>
      <trkpt lat="49.13212" lon="-1.30577">
        <ele>45.691017</ele>
        <time>2015-06-04T11:00:36Z</time>
      </trkpt>
      <trkpt lat="49.13205" lon="-1.30581">
        <ele>46.162064</ele>
        <time>2015-06-04T11:00:41Z</time>
      </trkpt>
      <trkpt lat="49.13201" lon="-1.30585">
        <ele>46.162064</ele>
        <time>2015-06-04T11:00:46Z</time>
      </trkpt>
      <trkpt lat="49.13195" lon="-1.30589">
        <ele>46.62598</ele>
        <time>2015-06-04T11:00:51Z</time>
      </trkpt>
      <trkpt lat="49.13188" lon="-1.3059">
        <ele>46.62598</ele>
        <time>2015-06-04T11:00:56Z</time>
      </trkpt>
      <trkpt lat="49.13183" lon="-1.30592">
        <ele>47.009792</ele>
        <time>2015-06-04T11:01:01Z</time>
      </trkpt>
      <trkpt lat="49.13177" lon="-1.30595">
        <ele>47.009792</ele>
        <time>2015-06-04T11:01:06Z</time>
      </trkpt>
      <trkpt lat="49.13172" lon="-1.30598">
        <ele>47.390232</ele>
        <time>2015-06-04T11:01:11Z</time>
      </trkpt>
      <trkpt lat="49.13167" lon="-1.30599">
        <ele>47.390232</ele>
        <time>2015-06-04T11:01:16Z</time>
      </trkpt>
      <trkpt lat="49.1316" lon="-1.30603">
        <ele>47.78079</ele>
        <time>2015-06-04T11:01:21Z</time>
      </trkpt>
      <trkpt lat="49.13157" lon="-1.30604">
        <ele>47.78079</ele>
        <time>2015-06-04T11:01:26Z</time>
      </trkpt>
      <trkpt lat="49.13152" lon="-1.30607">
        <ele>47.78079</ele>
        <time>2015-06-04T11:01:31Z</time>
      </trkpt>
      <trkpt lat="49.13146" lon="-1.30608">
        <ele>48.136303</ele>
        <time>2015-06-04T11:01:36Z</time>
      </trkpt>
      <trkpt lat="49.13142" lon="-1.30609">
        <ele>48.136303</ele>
        <time>2015-06-04T11:01:41Z</time>
      </trkpt>
      <trkpt lat="49.13142" lon="-1.30613">
        <ele>48.136303</ele>
        <time>2015-06-04T11:01:46Z</time>
      </trkpt>
      <trkpt lat="49.13142" lon="-1.30613">
        <ele>48.136303</ele>
        <time>2015-06-04T11:01:51Z</time>
      </trkpt>
      <trkpt lat="49.13134" lon="-1.30613">
        <ele>48.559177</ele>
        <time>2015-06-04T11:01:56Z</time>
      </trkpt>
      <trkpt lat="49.13129" lon="-1.30614">
        <ele>48.559177</ele>
        <time>2015-06-04T11:02:01Z</time>
      </trkpt>
      <trkpt lat="49.13125" lon="-1.30616">
        <ele>48.899128</ele>
        <time>2015-06-04T11:02:06Z</time>
      </trkpt>
      <trkpt lat="49.1312" lon="-1.30618">
        <ele>48.899128</ele>
        <time>2015-06-04T11:02:11Z</time>
      </trkpt>
      <trkpt lat="49.1312" lon="-1.30619">
        <ele>48.899128</ele>
        <time>2015-06-04T11:02:16Z</time>
      </trkpt>
      <trkpt lat="49.13121" lon="-1.3062">
        <ele>48.899128</ele>
        <time>2015-06-04T11:02:21Z</time>
      </trkpt>
      <trkpt lat="49.13118" lon="-1.30621">
        <ele>48.899128</ele>
        <time>2015-06-04T11:02:26Z</time>
      </trkpt>
      <trkpt lat="49.13116" lon="-1.30623">
        <ele>49.24777</ele>
        <time>2015-06-04T11:02:31Z</time>
      </trkpt>
      <trkpt lat="49.13112" lon="-1.30625">
        <ele>49.24777</ele>
        <time>2015-06-04T11:02:36Z</time>
      </trkpt>
      <trkpt lat="49.13107" lon="-1.30626">
        <ele>49.661144</ele>
        <time>2015-06-04T11:02:41Z</time>
      </trkpt>
      <trkpt lat="49.13102" lon="-1.30629">
        <ele>49.661144</ele>
        <time>2015-06-04T11:02:46Z</time>
      </trkpt>
      <trkpt lat="49.13098" lon="-1.30633">
        <ele>50.162228</ele>
        <time>2015-06-04T11:02:51Z</time>
      </trkpt>
      <trkpt lat="49.13093" lon="-1.30635">
        <ele>50.162228</ele>
        <time>2015-06-04T11:02:56Z</time>
      </trkpt>
      <trkpt lat="49.13088" lon="-1.30636">
        <ele>50.757668</ele>
        <time>2015-06-04T11:03:01Z</time>
      </trkpt>
      <trkpt lat="49.13082" lon="-1.30636">
        <ele>50.757668</ele>
        <time>2015-06-04T11:03:06Z</time>
      </trkpt>
      <trkpt lat="49.13077" lon="-1.30641">
        <ele>51.38134</ele>
        <time>2015-06-04T11:03:11Z</time>
      </trkpt>
      <trkpt lat="49.13073" lon="-1.30643">
        <ele>51.38134</ele>
        <time>2015-06-04T11:03:16Z</time>
      </trkpt>
      <trkpt lat="49.1307" lon="-1.30644">
        <ele>51.38134</ele>
        <time>2015-06-04T11:03:21Z</time>
      </trkpt>
      <trkpt lat="49.13063" lon="-1.30649">
        <ele>52.116043</ele>
        <time>2015-06-04T11:03:26Z</time>
      </trkpt>
      <trkpt lat="49.1306" lon="-1.30651">
        <ele>52.116043</ele>
        <time>2015-06-04T11:03:31Z</time>
      </trkpt>
      <trkpt lat="49.13055" lon="-1.30651">
        <ele>52.836468</ele>
        <time>2015-06-04T11:03:36Z</time>
      </trkpt>
      <trkpt lat="49.13048" lon="-1.30654">
        <ele>52.836468</ele>
        <time>2015-06-04T11:03:41Z</time>
      </trkpt>
      <trkpt lat="49.13044" lon="-1.30658">
        <ele>53.48423</ele>
        <time>2015-06-04T11:03:46Z</time>
      </trkpt>
      <trkpt lat="49.1304" lon="-1.30659">
        <ele>53.48423</ele>
        <time>2015-06-04T11:03:51Z</time>
      </trkpt>
      <trkpt lat="49.13036" lon="-1.3066">
        <ele>53.48423</ele>
        <time>2015-06-04T11:03:56Z</time>
      </trkpt>
      <trkpt lat="49.1303" lon="-1.30663">
        <ele>54.09195</ele>
        <time>2015-06-04T11:04:01Z</time>
      </trkpt>
      <trkpt lat="49.13026" lon="-1.30663">
        <ele>54.09195</ele>
        <time>2015-06-04T11:04:06Z</time>
      </trkpt>
      <trkpt lat="49.13024" lon="-1.30665">
        <ele>54.09195</ele>
        <time>2015-06-04T11:04:11Z</time>
      </trkpt>
      <trkpt lat="49.13019" lon="-1.30666">
        <ele>54.877346</ele>
        <time>2015-06-04T11:04:16Z</time>
      </trkpt>
      <trkpt lat="49.13016" lon="-1.30667">
        <ele>54.877346</ele>
        <time>2015-06-04T11:04:21Z</time>
      </trkpt>
      <trkpt lat="49.1301" lon="-1.3067">
        <ele>55.652603</ele>
        <time>2015-06-04T11:04:26Z</time>
      </trkpt>
      <trkpt lat="49.13008" lon="-1.30671">
        <ele>55.652603</ele>
        <time>2015-06-04T11:04:31Z</time>
      </trkpt>
      <trkpt lat="49.13004" lon="-1.30671">
        <ele>55.652603</ele>
        <time>2015-06-04T11:04:36Z</time>
      </trkpt>
      <trkpt lat="49.13001" lon="-1.30673">
        <ele>56.359047</ele>
        <time>2015-06-04T11:04:41Z</time>
      </trkpt>
      <trkpt lat="49.12995" lon="-1.30676">
        <ele>56.359047</ele>
        <time>2015-06-04T11:04:46Z</time>
      </trkpt>
      <trkpt lat="49.12981" lon="-1.30679">
        <ele>57.07227</ele>
        <time>2015-06-04T11:04:51Z</time>
      </trkpt>
      <trkpt lat="49.12971" lon="-1.30681">
        <ele>57.70381</ele>
        <time>2015-06-04T11:04:56Z</time>
      </trkpt>
      <trkpt lat="49.12965" lon="-1.30685">
        <ele>57.70381</ele>
        <time>2015-06-04T11:05:01Z</time>
      </trkpt>
      <trkpt lat="49.12959" lon="-1.30689">
        <ele>58.171997</ele>
        <time>2015-06-04T11:05:06Z</time>
      </trkpt>
      <trkpt lat="49.12956" lon="-1.30692">
        <ele>58.171997</ele>
        <time>2015-06-04T11:05:11Z</time>
      </trkpt>
      <trkpt lat="49.12952" lon="-1.30694">
        <ele>58.171997</ele>
        <time>2015-06-04T11:05:16Z</time>
      </trkpt>
      <trkpt lat="49.12947" lon="-1.30689">
        <ele>58.32959</ele>
        <time>2015-06-04T11:05:21Z</time>
      </trkpt>
      <trkpt lat="49.12945" lon="-1.30683">
        <ele>58.32959</ele>
        <time>2015-06-04T11:05:26Z</time>
      </trkpt>
      <trkpt lat="49.12943" lon="-1.30672">
        <ele>58.257263</ele>
        <time>2015-06-04T11:05:31Z</time>
      </trkpt>
      <trkpt lat="49.1294" lon="-1.30662">
        <ele>58.257263</ele>
        <time>2015-06-04T11:05:36Z</time>
      </trkpt>
      <trkpt lat="49.12936" lon="-1.30652">
        <ele>58.044857</ele>
        <time>2015-06-04T11:05:41Z</time>
      </trkpt>
      <trkpt lat="49.12933" lon="-1.30646">
        <ele>58.044857</ele>
        <time>2015-06-04T11:05:46Z</time>
      </trkpt>
      <trkpt lat="49.12931" lon="-1.30639">
        <ele>57.833687</ele>
        <time>2015-06-04T11:05:51Z</time>
      </trkpt>
      <trkpt lat="49.12932" lon="-1.30629">
        <ele>57.833687</ele>
        <time>2015-06-04T11:05:56Z</time>
      </trkpt>
      <trkpt lat="49.12932" lon="-1.30624">
        <ele>57.58179</ele>
        <time>2015-06-04T11:06:01Z</time>
      </trkpt>
      <trkpt lat="49.1293" lon="-1.3062">
        <ele>57.58179</ele>
        <time>2015-06-04T11:06:06Z</time>
      </trkpt>
      <trkpt lat="49.12929" lon="-1.30619">
        <ele>57.58179</ele>
        <time>2015-06-04T11:06:11Z</time>
      </trkpt>
      <trkpt lat="49.12928" lon="-1.30617">
        <ele>57.58179</ele>
        <time>2015-06-04T11:06:16Z</time>
      </trkpt>
      <trkpt lat="49.12929" lon="-1.30615">
        <ele>57.58179</ele>
        <time>2015-06-04T11:06:21Z</time>
      </trkpt>
      <trkpt lat="49.12929" lon="-1.30612">
        <ele>57.46658</ele>
        <time>2015-06-04T11:06:26Z</time>
      </trkpt>
      <trkpt lat="49.12928" lon="-1.3061">
        <ele>57.46658</ele>
        <time>2015-06-04T11:06:31Z</time>
      </trkpt>
      <trkpt lat="49.12927" lon="-1.30606">
        <ele>57.46658</ele>
        <time>2015-06-04T11:06:36Z</time>
      </trkpt>
      <trkpt lat="49.12925" lon="-1.30602">
        <ele>57.46658</ele>
        <time>2015-06-04T11:06:41Z</time>
      </trkpt>
      <trkpt lat="49.12925" lon="-1.30601">
        <ele>57.46658</ele>
        <time>2015-06-04T11:06:46Z</time>
      </trkpt>
      <trkpt lat="49.12926" lon="-1.306">
        <ele>57.24857</ele>
        <time>2015-06-04T11:06:51Z</time>
      </trkpt>
      <trkpt lat="49.12926" lon="-1.30598">
        <ele>57.24857</ele>
        <time>2015-06-04T11:06:56Z</time>
      </trkpt>
      <trkpt lat="49.12926" lon="-1.30597">
        <ele>57.24857</ele>
        <time>2015-06-04T11:07:01Z</time>
      </trkpt>
      <trkpt lat="49.12926" lon="-1.30597">
        <ele>57.24857</ele>
        <time>2015-06-04T11:07:06Z</time>
      </trkpt>
      <trkpt lat="49.12925" lon="-1.30598">
        <ele>57.24857</ele>
        <time>2015-06-04T11:07:11Z</time>
      </trkpt>
      <trkpt lat="49.12925" lon="-1.30599">
        <ele>57.24857</ele>
        <time>2015-06-04T11:07:16Z</time>
      </trkpt>
      <trkpt lat="49.12926" lon="-1.30601">
        <ele>57.24857</ele>
        <time>2015-06-04T11:07:21Z</time>
      </trkpt>
      <trkpt lat="49.12925" lon="-1.30603">
        <ele>57.24857</ele>
        <time>2015-06-04T11:07:26Z</time>
      </trkpt>
      <trkpt lat="49.12926" lon="-1.30603">
        <ele>57.24857</ele>
        <time>2015-06-04T11:07:31Z</time>
      </trkpt>
      <trkpt lat="49.12927" lon="-1.306">
        <ele>57.03762</ele>
        <time>2015-06-04T11:07:36Z</time>
      </trkpt>
      <trkpt lat="49.12927" lon="-1.30597">
        <ele>57.03762</ele>
        <time>2015-06-04T11:07:41Z</time>
      </trkpt>
      <trkpt lat="49.12926" lon="-1.30594">
        <ele>57.03762</ele>
        <time>2015-06-04T11:07:46Z</time>
      </trkpt>
      <trkpt lat="49.12927" lon="-1.30595">
        <ele>57.03762</ele>
        <time>2015-06-04T11:07:51Z</time>
      </trkpt>
      <trkpt lat="49.12927" lon="-1.30596">
        <ele>57.03762</ele>
        <time>2015-06-04T11:07:56Z</time>
      </trkpt>
      <trkpt lat="49.12927" lon="-1.30597">
        <ele>57.03762</ele>
        <time>2015-06-04T11:08:01Z</time>
      </trkpt>
      <trkpt lat="49.12927" lon="-1.306">
        <ele>57.03762</ele>
        <time>2015-06-04T11:08:06Z</time>
      </trkpt>
      <trkpt lat="49.12927" lon="-1.30601">
        <ele>57.03762</ele>
        <time>2015-06-04T11:08:11Z</time>
      </trkpt>
      <trkpt lat="49.12926" lon="-1.30601">
        <ele>56.96433</ele>
        <time>2015-06-04T11:08:16Z</time>
      </trkpt>
      <trkpt lat="49.12926" lon="-1.30603">
        <ele>56.96433</ele>
        <time>2015-06-04T11:08:21Z</time>
      </trkpt>
      <trkpt lat="49.12926" lon="-1.30602">
        <ele>56.96433</ele>
        <time>2015-06-04T11:08:26Z</time>
      </trkpt>
      <trkpt lat="49.12925" lon="-1.30601">
        <ele>56.96433</ele>
        <time>2015-06-04T11:08:31Z</time>
      </trkpt>
      <trkpt lat="49.12924" lon="-1.30602">
        <ele>56.96433</ele>
        <time>2015-06-04T11:08:36Z</time>
      </trkpt>
      <trkpt lat="49.12924" lon="-1.30601">
        <ele>56.96433</ele>
        <time>2015-06-04T11:08:41Z</time>
      </trkpt>
      <trkpt lat="49.12925" lon="-1.306">
        <ele>56.96433</ele>
        <time>2015-06-04T11:08:46Z</time>
      </trkpt>
      <trkpt lat="49.12926" lon="-1.306">
        <ele>56.96433</ele>
        <time>2015-06-04T11:08:51Z</time>
      </trkpt>
      <trkpt lat="49.12926" lon="-1.30601">
        <ele>56.96433</ele>
        <time>2015-06-04T11:08:56Z</time>
      </trkpt>
      <trkpt lat="49.12927" lon="-1.30601">
        <ele>56.96433</ele>
        <time>2015-06-04T11:09:01Z</time>
      </trkpt>
      <trkpt lat="49.12928" lon="-1.30602">
        <ele>57.062855</ele>
        <time>2015-06-04T11:09:06Z</time>
      </trkpt>
      <trkpt lat="49.12929" lon="-1.30602">
        <ele>57.062855</ele>
        <time>2015-06-04T11:09:11Z</time>
      </trkpt>
      <trkpt lat="49.12928" lon="-1.306">
        <ele>57.062855</ele>
        <time>2015-06-04T11:09:16Z</time>
      </trkpt>
      <trkpt lat="49.12926" lon="-1.30601">
        <ele>57.062855</ele>
        <time>2015-06-04T11:09:21Z</time>
      </trkpt>
      <trkpt lat="49.12926" lon="-1.30601">
        <ele>57.062855</ele>
        <time>2015-06-04T11:09:26Z</time>
      </trkpt>
      <trkpt lat="49.12926" lon="-1.30602">
        <ele>57.062855</ele>
        <time>2015-06-04T11:09:31Z</time>
      </trkpt>
      <trkpt lat="49.12926" lon="-1.30601">
        <ele>57.062855</ele>
        <time>2015-06-04T11:09:36Z</time>
      </trkpt>
      <trkpt lat="49.12924" lon="-1.30601">
        <ele>57.062855</ele>
        <time>2015-06-04T11:09:41Z</time>
      </trkpt>
      <trkpt lat="49.12923" lon="-1.30602">
        <ele>57.062855</ele>
        <time>2015-06-04T11:09:46Z</time>
      </trkpt>
      <trkpt lat="49.12922" lon="-1.30601">
        <ele>57.00409</ele>
        <time>2015-06-04T11:09:51Z</time>
      </trkpt>
      <trkpt lat="49.12923" lon="-1.30601">
        <ele>57.00409</ele>
        <time>2015-06-04T11:09:56Z</time>
      </trkpt>
      <trkpt lat="49.12924" lon="-1.30601">
        <ele>57.00409</ele>
        <time>2015-06-04T11:10:01Z</time>
      </trkpt>
      <trkpt lat="49.12925" lon="-1.30602">
        <ele>57.00409</ele>
        <time>2015-06-04T11:10:06Z</time>
      </trkpt>
      <trkpt lat="49.12922" lon="-1.306">
        <ele>57.00409</ele>
        <time>2015-06-04T11:10:11Z</time>
      </trkpt>
      <trkpt lat="49.1292" lon="-1.30597">
        <ele>56.829403</ele>
        <time>2015-06-04T11:10:16Z</time>
      </trkpt>
      <trkpt lat="49.12918" lon="-1.30597">
        <ele>56.829403</ele>
        <time>2015-06-04T11:10:21Z</time>
      </trkpt>
      <trkpt lat="49.12918" lon="-1.30598">
        <ele>56.829403</ele>
        <time>2015-06-04T11:10:26Z</time>
      </trkpt>
      <trkpt lat="49.12919" lon="-1.30599">
        <ele>56.829403</ele>
        <time>2015-06-04T11:10:31Z</time>
      </trkpt>
      <trkpt lat="49.12919" lon="-1.306">
        <ele>56.829403</ele>
        <time>2015-06-04T11:10:36Z</time>
      </trkpt>
      <trkpt lat="49.12919" lon="-1.306">
        <ele>56.829403</ele>
        <time>2015-06-04T11:10:41Z</time>
      </trkpt>
      <trkpt lat="49.12919" lon="-1.30598">
        <ele>56.829403</ele>
        <time>2015-06-04T11:10:46Z</time>
      </trkpt>
      <trkpt lat="49.12919" lon="-1.30597">
        <ele>56.829403</ele>
        <time>2015-06-04T11:10:51Z</time>
      </trkpt>
      <trkpt lat="49.12914" lon="-1.30597">
        <ele>56.663914</ele>
        <time>2015-06-04T11:10:56Z</time>
      </trkpt>
      <trkpt lat="49.12913" lon="-1.30596">
        <ele>56.663914</ele>
        <time>2015-06-04T11:11:01Z</time>
      </trkpt>
      <trkpt lat="49.12911" lon="-1.30598">
        <ele>56.663914</ele>
        <time>2015-06-04T11:11:06Z</time>
      </trkpt>
      <trkpt lat="49.12906" lon="-1.30599">
        <ele>56.663914</ele>
        <time>2015-06-04T11:11:11Z</time>
      </trkpt>
      <trkpt lat="49.12901" lon="-1.30601">
        <ele>56.47941</ele>
        <time>2015-06-04T11:11:16Z</time>
      </trkpt>
      <trkpt lat="49.12897" lon="-1.30601">
        <ele>56.47941</ele>
        <time>2015-06-04T11:11:21Z</time>
      </trkpt>
      <trkpt lat="49.12895" lon="-1.30602">
        <ele>56.47941</ele>
        <time>2015-06-04T11:11:26Z</time>
      </trkpt>
      <trkpt lat="49.12892" lon="-1.30603">
        <ele>56.35066</ele>
        <time>2015-06-04T11:11:31Z</time>
      </trkpt>
      <trkpt lat="49.12887" lon="-1.30605">
        <ele>56.35066</ele>
        <time>2015-06-04T11:11:36Z</time>
      </trkpt>
      <trkpt lat="49.12884" lon="-1.30607">
        <ele>56.35066</ele>
        <time>2015-06-04T11:11:41Z</time>
      </trkpt>
      <trkpt lat="49.12879" lon="-1.30609">
        <ele>56.289127</ele>
        <time>2015-06-04T11:11:46Z</time>
      </trkpt>
      <trkpt lat="49.12871" lon="-1.30611">
        <ele>56.289127</ele>
        <time>2015-06-04T11:11:51Z</time>
      </trkpt>
      <trkpt lat="49.12866" lon="-1.30612">
        <ele>56.30524</ele>
        <time>2015-06-04T11:11:56Z</time>
      </trkpt>
      <trkpt lat="49.12862" lon="-1.30613">
        <ele>56.30524</ele>
        <time>2015-06-04T11:12:01Z</time>
      </trkpt>
      <trkpt lat="49.12858" lon="-1.30613">
        <ele>56.30524</ele>
        <time>2015-06-04T11:12:06Z</time>
      </trkpt>
      <trkpt lat="49.12853" lon="-1.30613">
        <ele>56.36518</ele>
        <time>2015-06-04T11:12:11Z</time>
      </trkpt>
      <trkpt lat="49.12851" lon="-1.30616">
        <ele>56.36518</ele>
        <time>2015-06-04T11:12:16Z</time>
      </trkpt>
      <trkpt lat="49.12848" lon="-1.30621">
        <ele>56.36518</ele>
        <time>2015-06-04T11:12:21Z</time>
      </trkpt>
      <trkpt lat="49.12842" lon="-1.3062">
        <ele>56.466293</ele>
        <time>2015-06-04T11:12:26Z</time>
      </trkpt>
      <trkpt lat="49.12837" lon="-1.30618">
        <ele>56.466293</ele>
        <time>2015-06-04T11:12:31Z</time>
      </trkpt>
      <trkpt lat="49.12834" lon="-1.30621">
        <ele>56.466293</ele>
        <time>2015-06-04T11:12:36Z</time>
      </trkpt>
      <trkpt lat="49.12832" lon="-1.3062">
        <ele>56.69246</ele>
        <time>2015-06-04T11:12:41Z</time>
      </trkpt>
      <trkpt lat="49.1283" lon="-1.3062">
        <ele>56.69246</ele>
        <time>2015-06-04T11:12:46Z</time>
      </trkpt>
      <trkpt lat="49.12828" lon="-1.3062">
        <ele>56.69246</ele>
        <time>2015-06-04T11:12:51Z</time>
      </trkpt>
      <trkpt lat="49.12826" lon="-1.3062">
        <ele>56.69246</ele>
        <time>2015-06-04T11:12:56Z</time>
      </trkpt>
      <trkpt lat="49.12823" lon="-1.30619">
        <ele>56.69246</ele>
        <time>2015-06-04T11:13:01Z</time>
      </trkpt>
      <trkpt lat="49.12821" lon="-1.30616">
        <ele>57.077785</ele>
        <time>2015-06-04T11:13:06Z</time>
      </trkpt>
      <trkpt lat="49.12818" lon="-1.30617">
        <ele>57.077785</ele>
        <time>2015-06-04T11:13:11Z</time>
      </trkpt>
      <trkpt lat="49.12815" lon="-1.30619">
        <ele>57.077785</ele>
        <time>2015-06-04T11:13:16Z</time>
      </trkpt>
      <trkpt lat="49.12809" lon="-1.30619">
        <ele>57.494896</ele>
        <time>2015-06-04T11:13:21Z</time>
      </trkpt>
      <trkpt lat="49.12804" lon="-1.30617">
        <ele>57.494896</ele>
        <time>2015-06-04T11:13:26Z</time>
      </trkpt>
      <trkpt lat="49.12798" lon="-1.30616">
        <ele>57.82566</ele>
        <time>2015-06-04T11:13:31Z</time>
      </trkpt>
      <trkpt lat="49.12793" lon="-1.30617">
        <ele>57.82566</ele>
        <time>2015-06-04T11:13:36Z</time>
      </trkpt>
      <trkpt lat="49.12786" lon="-1.30618">
        <ele>58.032917</ele>
        <time>2015-06-04T11:13:41Z</time>
      </trkpt>
      <trkpt lat="49.12781" lon="-1.30618">
        <ele>58.032917</ele>
        <time>2015-06-04T11:13:46Z</time>
      </trkpt>
      <trkpt lat="49.12777" lon="-1.30617">
        <ele>58.111378</ele>
        <time>2015-06-04T11:13:51Z</time>
      </trkpt>
      <trkpt lat="49.12772" lon="-1.30615">
        <ele>58.111378</ele>
        <time>2015-06-04T11:13:56Z</time>
      </trkpt>
      <trkpt lat="49.1277" lon="-1.30616">
        <ele>58.111378</ele>
        <time>2015-06-04T11:14:01Z</time>
      </trkpt>
      <trkpt lat="49.12768" lon="-1.30617">
        <ele>58.111378</ele>
        <time>2015-06-04T11:14:06Z</time>
      </trkpt>
      <trkpt lat="49.12766" lon="-1.30617">
        <ele>58.05651</ele>
        <time>2015-06-04T11:14:11Z</time>
      </trkpt>
      <trkpt lat="49.12765" lon="-1.30618">
        <ele>58.05651</ele>
        <time>2015-06-04T11:14:16Z</time>
      </trkpt>
      <trkpt lat="49.12762" lon="-1.30619">
        <ele>58.05651</ele>
        <time>2015-06-04T11:14:21Z</time>
      </trkpt>
      <trkpt lat="49.12761" lon="-1.30619">
        <ele>58.05651</ele>
        <time>2015-06-04T11:14:26Z</time>
      </trkpt>
      <trkpt lat="49.12756" lon="-1.30624">
        <ele>58.109455</ele>
        <time>2015-06-04T11:14:31Z</time>
      </trkpt>
      <trkpt lat="49.12755" lon="-1.30627">
        <ele>58.109455</ele>
        <time>2015-06-04T11:14:36Z</time>
      </trkpt>
      <trkpt lat="49.12752" lon="-1.30629">
        <ele>58.109455</ele>
        <time>2015-06-04T11:14:41Z</time>
      </trkpt>
      <trkpt lat="49.12749" lon="-1.30631">
        <ele>58.10423</ele>
        <time>2015-06-04T11:14:46Z</time>
      </trkpt>
      <trkpt lat="49.12747" lon="-1.30632">
        <ele>58.10423</ele>
        <time>2015-06-04T11:14:51Z</time>
      </trkpt>
      <trkpt lat="49.12742" lon="-1.30634">
        <ele>58.10423</ele>
        <time>2015-06-04T11:14:56Z</time>
      </trkpt>
      <trkpt lat="49.12735" lon="-1.30639">
        <ele>58.146587</ele>
        <time>2015-06-04T11:15:01Z</time>
      </trkpt>
      <trkpt lat="49.1273" lon="-1.30641">
        <ele>58.146587</ele>
        <time>2015-06-04T11:15:06Z</time>
      </trkpt>
      <trkpt lat="49.12724" lon="-1.30642">
        <ele>58.103794</ele>
        <time>2015-06-04T11:15:11Z</time>
      </trkpt>
      <trkpt lat="49.12721" lon="-1.30645">
        <ele>58.103794</ele>
        <time>2015-06-04T11:15:16Z</time>
      </trkpt>
      <trkpt lat="49.12716" lon="-1.3065">
        <ele>58.141315</ele>
        <time>2015-06-04T11:15:21Z</time>
      </trkpt>
      <trkpt lat="49.1271" lon="-1.30654">
        <ele>58.141315</ele>
        <time>2015-06-04T11:15:26Z</time>
      </trkpt>
      <trkpt lat="49.12708" lon="-1.30657">
        <ele>58.325752</ele>
        <time>2015-06-04T11:15:31Z</time>
      </trkpt>
      <trkpt lat="49.12708" lon="-1.30657">
        <ele>58.325752</ele>
        <time>2015-06-04T11:15:36Z</time>
      </trkpt>
      <trkpt lat="49.12708" lon="-1.30655">
        <ele>58.325752</ele>
        <time>2015-06-04T11:15:41Z</time>
      </trkpt>
      <trkpt lat="49.12708" lon="-1.30653">
        <ele>58.325752</ele>
        <time>2015-06-04T11:15:46Z</time>
      </trkpt>
      <trkpt lat="49.12708" lon="-1.30653">
        <ele>58.325752</ele>
        <time>2015-06-04T11:15:51Z</time>
      </trkpt>
      <trkpt lat="49.12708" lon="-1.30653">
        <ele>58.325752</ele>
        <time>2015-06-04T11:15:56Z</time>
      </trkpt>
      <trkpt lat="49.12705" lon="-1.30649">
        <ele>58.325752</ele>
        <time>2015-06-04T11:16:01Z</time>
      </trkpt>
      <trkpt lat="49.12704" lon="-1.30649">
        <ele>58.761616</ele>
        <time>2015-06-04T11:16:06Z</time>
      </trkpt>
      <trkpt lat="49.12705" lon="-1.30648">
        <ele>58.761616</ele>
        <time>2015-06-04T11:16:11Z</time>
      </trkpt>
      <trkpt lat="49.12705" lon="-1.30647">
        <ele>58.761616</ele>
        <time>2015-06-04T11:16:16Z</time>
      </trkpt>
      <trkpt lat="49.12705" lon="-1.30649">
        <ele>58.761616</ele>
        <time>2015-06-04T11:16:21Z</time>
      </trkpt>
      <trkpt lat="49.12703" lon="-1.3065">
        <ele>58.761616</ele>
        <time>2015-06-04T11:16:26Z</time>
      </trkpt>
      <trkpt lat="49.12703" lon="-1.30653">
        <ele>58.761616</ele>
        <time>2015-06-04T11:16:31Z</time>
      </trkpt>
      <trkpt lat="49.12704" lon="-1.30653">
        <ele>58.761616</ele>
        <time>2015-06-04T11:16:36Z</time>
      </trkpt>
      <trkpt lat="49.12704" lon="-1.30653">
        <ele>58.761616</ele>
        <time>2015-06-04T11:16:41Z</time>
      </trkpt>
      <trkpt lat="49.12704" lon="-1.30653">
        <ele>58.761616</ele>
        <time>2015-06-04T11:16:46Z</time>
      </trkpt>
      <trkpt lat="49.12704" lon="-1.30654">
        <ele>58.761616</ele>
        <time>2015-06-04T11:16:51Z</time>
      </trkpt>
      <trkpt lat="49.12703" lon="-1.30654">
        <ele>59.472977</ele>
        <time>2015-06-04T11:16:56Z</time>
      </trkpt>
      <trkpt lat="49.12704" lon="-1.30656">
        <ele>59.472977</ele>
        <time>2015-06-04T11:17:01Z</time>
      </trkpt>
      <trkpt lat="49.12704" lon="-1.30655">
        <ele>59.472977</ele>
        <time>2015-06-04T11:17:06Z</time>
      </trkpt>
      <trkpt lat="49.12704" lon="-1.30654">
        <ele>59.472977</ele>
        <time>2015-06-04T11:17:11Z</time>
      </trkpt>
      <trkpt lat="49.12704" lon="-1.30653">
        <ele>59.472977</ele>
        <time>2015-06-04T11:17:16Z</time>
      </trkpt>
      <trkpt lat="49.12704" lon="-1.30656">
        <ele>59.472977</ele>
        <time>2015-06-04T11:17:21Z</time>
      </trkpt>
      <trkpt lat="49.12703" lon="-1.30656">
        <ele>59.472977</ele>
        <time>2015-06-04T11:17:26Z</time>
      </trkpt>
      <trkpt lat="49.12703" lon="-1.30657">
        <ele>59.472977</ele>
        <time>2015-06-04T11:17:31Z</time>
      </trkpt>
      <trkpt lat="49.12703" lon="-1.30657">
        <ele>59.472977</ele>
        <time>2015-06-04T11:17:36Z</time>
      </trkpt>
      <trkpt lat="49.12702" lon="-1.30657">
        <ele>59.472977</ele>
        <time>2015-06-04T11:17:41Z</time>
      </trkpt>
      <trkpt lat="49.12703" lon="-1.30657">
        <ele>59.472977</ele>
        <time>2015-06-04T11:17:46Z</time>
      </trkpt>
      <trkpt lat="49.12703" lon="-1.30658">
        <ele>59.472977</ele>
        <time>2015-06-04T11:17:51Z</time>
      </trkpt>
      <trkpt lat="49.12704" lon="-1.30658">
        <ele>59.472977</ele>
        <time>2015-06-04T11:17:56Z</time>
      </trkpt>
      <trkpt lat="49.12704" lon="-1.30656">
        <ele>60.294003</ele>
        <time>2015-06-04T11:18:01Z</time>
      </trkpt>
      <trkpt lat="49.12704" lon="-1.30658">
        <ele>60.294003</ele>
        <time>2015-06-04T11:18:06Z</time>
      </trkpt>
      <trkpt lat="49.12702" lon="-1.3066">
        <ele>60.294003</ele>
        <time>2015-06-04T11:18:11Z</time>
      </trkpt>
      <trkpt lat="49.127" lon="-1.30661">
        <ele>60.294003</ele>
        <time>2015-06-04T11:18:16Z</time>
      </trkpt>
      <trkpt lat="49.12701" lon="-1.30657">
        <ele>60.294003</ele>
        <time>2015-06-04T11:18:21Z</time>
      </trkpt>
      <trkpt lat="49.12701" lon="-1.30655">
        <ele>61.085148</ele>
        <time>2015-06-04T11:18:26Z</time>
      </trkpt>
      <trkpt lat="49.12702" lon="-1.30654">
        <ele>61.085148</ele>
        <time>2015-06-04T11:18:31Z</time>
      </trkpt>
      <trkpt lat="49.12704" lon="-1.30654">
        <ele>61.085148</ele>
        <time>2015-06-04T11:18:36Z</time>
      </trkpt>
      <trkpt lat="49.12703" lon="-1.30654">
        <ele>61.085148</ele>
        <time>2015-06-04T11:18:41Z</time>
      </trkpt>
      <trkpt lat="49.12703" lon="-1.30655">
        <ele>61.085148</ele>
        <time>2015-06-04T11:18:46Z</time>
      </trkpt>
      <trkpt lat="49.12703" lon="-1.30656">
        <ele>61.085148</ele>
        <time>2015-06-04T11:18:51Z</time>
      </trkpt>
      <trkpt lat="49.12703" lon="-1.30657">
        <ele>61.085148</ele>
        <time>2015-06-04T11:18:56Z</time>
      </trkpt>
      <trkpt lat="49.12703" lon="-1.30658">
        <ele>61.085148</ele>
        <time>2015-06-04T11:19:01Z</time>
      </trkpt>
      <trkpt lat="49.12702" lon="-1.30658">
        <ele>61.085148</ele>
        <time>2015-06-04T11:19:06Z</time>
      </trkpt>
      <trkpt lat="49.12702" lon="-1.30658">
        <ele>61.085148</ele>
        <time>2015-06-04T11:19:11Z</time>
      </trkpt>
      <trkpt lat="49.12702" lon="-1.30657">
        <ele>61.085148</ele>
        <time>2015-06-04T11:19:16Z</time>
      </trkpt>
      <trkpt lat="49.12703" lon="-1.30656">
        <ele>61.81807</ele>
        <time>2015-06-04T11:19:21Z</time>
      </trkpt>
      <trkpt lat="49.12703" lon="-1.30657">
        <ele>61.81807</ele>
        <time>2015-06-04T11:19:26Z</time>
      </trkpt>
      <trkpt lat="49.12702" lon="-1.30659">
        <ele>61.81807</ele>
        <time>2015-06-04T11:19:31Z</time>
      </trkpt>
      <trkpt lat="49.12701" lon="-1.30659">
        <ele>61.81807</ele>
        <time>2015-06-04T11:19:36Z</time>
      </trkpt>
      <trkpt lat="49.12701" lon="-1.30658">
        <ele>61.81807</ele>
        <time>2015-06-04T11:19:41Z</time>
      </trkpt>
      <trkpt lat="49.12701" lon="-1.30657">
        <ele>61.81807</ele>
        <time>2015-06-04T11:19:46Z</time>
      </trkpt>
      <trkpt lat="49.127" lon="-1.30655">
        <ele>61.81807</ele>
        <time>2015-06-04T11:19:51Z</time>
      </trkpt>
      <trkpt lat="49.12701" lon="-1.30655">
        <ele>61.81807</ele>
        <time>2015-06-04T11:19:56Z</time>
      </trkpt>
      <trkpt lat="49.12702" lon="-1.30655">
        <ele>61.81807</ele>
        <time>2015-06-04T11:20:01Z</time>
      </trkpt>
      <trkpt lat="49.12703" lon="-1.30655">
        <ele>61.81807</ele>
        <time>2015-06-04T11:20:06Z</time>
      </trkpt>
      <trkpt lat="49.12703" lon="-1.30656">
        <ele>61.81807</ele>
        <time>2015-06-04T11:20:11Z</time>
      </trkpt>
      <trkpt lat="49.12703" lon="-1.30656">
        <ele>61.81807</ele>
        <time>2015-06-04T11:20:16Z</time>
      </trkpt>
      <trkpt lat="49.12703" lon="-1.30657">
        <ele>62.538742</ele>
        <time>2015-06-04T11:20:21Z</time>
      </trkpt>
      <trkpt lat="49.12701" lon="-1.30658">
        <ele>62.538742</ele>
        <time>2015-06-04T11:20:26Z</time>
      </trkpt>
      <trkpt lat="49.12696" lon="-1.30661">
        <ele>62.538742</ele>
        <time>2015-06-04T11:20:31Z</time>
      </trkpt>
      <trkpt lat="49.12689" lon="-1.30664">
        <ele>63.18892</ele>
        <time>2015-06-04T11:20:36Z</time>
      </trkpt>
      <trkpt lat="49.12686" lon="-1.30665">
        <ele>63.18892</ele>
        <time>2015-06-04T11:20:41Z</time>
      </trkpt>
      <trkpt lat="49.12681" lon="-1.30668">
        <ele>63.18892</ele>
        <time>2015-06-04T11:20:46Z</time>
      </trkpt>
      <trkpt lat="49.12677" lon="-1.30669">
        <ele>63.80132</ele>
        <time>2015-06-04T11:20:51Z</time>
      </trkpt>
      <trkpt lat="49.12671" lon="-1.30674">
        <ele>63.80132</ele>
        <time>2015-06-04T11:20:56Z</time>
      </trkpt>
      <trkpt lat="49.12664" lon="-1.30676">
        <ele>64.478424</ele>
        <time>2015-06-04T11:21:01Z</time>
      </trkpt>
      <trkpt lat="49.12659" lon="-1.3068">
        <ele>64.478424</ele>
        <time>2015-06-04T11:21:06Z</time>
      </trkpt>
      <trkpt lat="49.12655" lon="-1.30682">
        <ele>65.25739</ele>
        <time>2015-06-04T11:21:11Z</time>
      </trkpt>
      <trkpt lat="49.12651" lon="-1.30683">
        <ele>65.25739</ele>
        <time>2015-06-04T11:21:16Z</time>
      </trkpt>
      <trkpt lat="49.1265" lon="-1.30684">
        <ele>65.25739</ele>
        <time>2015-06-04T11:21:21Z</time>
      </trkpt>
      <trkpt lat="49.1265" lon="-1.30684">
        <ele>65.25739</ele>
        <time>2015-06-04T11:21:26Z</time>
      </trkpt>
      <trkpt lat="49.12649" lon="-1.30685">
        <ele>65.25739</ele>
        <time>2015-06-04T11:21:31Z</time>
      </trkpt>
      <trkpt lat="49.12645" lon="-1.30683">
        <ele>66.143555</ele>
        <time>2015-06-04T11:21:36Z</time>
      </trkpt>
      <trkpt lat="49.12644" lon="-1.30683">
        <ele>66.143555</ele>
        <time>2015-06-04T11:21:41Z</time>
      </trkpt>
      <trkpt lat="49.12644" lon="-1.30684">
        <ele>66.143555</ele>
        <time>2015-06-04T11:21:46Z</time>
      </trkpt>
      <trkpt lat="49.12643" lon="-1.30686">
        <ele>66.143555</ele>
        <time>2015-06-04T11:21:51Z</time>
      </trkpt>
      <trkpt lat="49.12643" lon="-1.30686">
        <ele>66.143555</ele>
        <time>2015-06-04T11:21:56Z</time>
      </trkpt>
      <trkpt lat="49.12645" lon="-1.30685">
        <ele>66.143555</ele>
        <time>2015-06-04T11:22:01Z</time>
      </trkpt>
      <trkpt lat="49.12649" lon="-1.30678">
        <ele>66.83895</ele>
        <time>2015-06-04T11:22:06Z</time>
      </trkpt>
      <trkpt lat="49.12649" lon="-1.30678">
        <ele>66.83895</ele>
        <time>2015-06-04T11:22:11Z</time>
      </trkpt>
      <trkpt lat="49.1265" lon="-1.30675">
        <ele>66.83895</ele>
        <time>2015-06-04T11:22:16Z</time>
      </trkpt>
      <trkpt lat="49.12652" lon="-1.30675">
        <ele>66.83895</ele>
        <time>2015-06-04T11:22:21Z</time>
      </trkpt>
      <trkpt lat="49.12652" lon="-1.30674">
        <ele>66.83895</ele>
        <time>2015-06-04T11:22:26Z</time>
      </trkpt>
      <trkpt lat="49.12653" lon="-1.30675">
        <ele>66.83895</ele>
        <time>2015-06-04T11:22:31Z</time>
      </trkpt>
      <trkpt lat="49.12652" lon="-1.30675">
        <ele>66.83895</ele>
        <time>2015-06-04T11:22:36Z</time>
      </trkpt>
      <trkpt lat="49.12651" lon="-1.30673">
        <ele>66.83895</ele>
        <time>2015-06-04T11:22:41Z</time>
      </trkpt>
      <trkpt lat="49.12648" lon="-1.30663">
        <ele>67.558044</ele>
        <time>2015-06-04T11:22:46Z</time>
      </trkpt>
      <trkpt lat="49.12646" lon="-1.30653">
        <ele>67.558044</ele>
        <time>2015-06-04T11:22:51Z</time>
      </trkpt>
      <trkpt lat="49.12644" lon="-1.30646">
        <ele>68.2401</ele>
        <time>2015-06-04T11:22:56Z</time>
      </trkpt>
      <trkpt lat="49.12643" lon="-1.30638">
        <ele>68.2401</ele>
        <time>2015-06-04T11:23:01Z</time>
      </trkpt>
      <trkpt lat="49.12641" lon="-1.3063">
        <ele>68.77135</ele>
        <time>2015-06-04T11:23:06Z</time>
      </trkpt>
      <trkpt lat="49.12641" lon="-1.3062">
        <ele>68.77135</ele>
        <time>2015-06-04T11:23:11Z</time>
      </trkpt>
      <trkpt lat="49.12639" lon="-1.3061">
        <ele>69.19094</ele>
        <time>2015-06-04T11:23:16Z</time>
      </trkpt>
      <trkpt lat="49.12639" lon="-1.30599">
        <ele>69.19094</ele>
        <time>2015-06-04T11:23:21Z</time>
      </trkpt>
      <trkpt lat="49.12639" lon="-1.30593">
        <ele>69.52108</ele>
        <time>2015-06-04T11:23:26Z</time>
      </trkpt>
      <trkpt lat="49.12637" lon="-1.30582">
        <ele>69.52108</ele>
        <time>2015-06-04T11:23:31Z</time>
      </trkpt>
      <trkpt lat="49.12635" lon="-1.30573">
        <ele>69.69615</ele>
        <time>2015-06-04T11:23:36Z</time>
      </trkpt>
      <trkpt lat="49.12634" lon="-1.30562">
        <ele>69.69615</ele>
        <time>2015-06-04T11:23:41Z</time>
      </trkpt>
      <trkpt lat="49.12633" lon="-1.30552">
        <ele>69.79995</ele>
        <time>2015-06-04T11:23:46Z</time>
      </trkpt>
      <trkpt lat="49.12632" lon="-1.30542">
        <ele>69.79995</ele>
        <time>2015-06-04T11:23:51Z</time>
      </trkpt>
      <trkpt lat="49.12632" lon="-1.30533">
        <ele>69.86709</ele>
        <time>2015-06-04T11:23:56Z</time>
      </trkpt>
      <trkpt lat="49.12633" lon="-1.30524">
        <ele>69.86709</ele>
        <time>2015-06-04T11:24:01Z</time>
      </trkpt>
      <trkpt lat="49.12631" lon="-1.30516">
        <ele>69.94418</ele>
        <time>2015-06-04T11:24:06Z</time>
      </trkpt>
      <trkpt lat="49.12629" lon="-1.30508">
        <ele>69.94418</ele>
        <time>2015-06-04T11:24:11Z</time>
      </trkpt>
      <trkpt lat="49.12627" lon="-1.30504">
        <ele>69.95914</ele>
        <time>2015-06-04T11:24:16Z</time>
      </trkpt>
      <trkpt lat="49.12627" lon="-1.30506">
        <ele>69.95914</ele>
        <time>2015-06-04T11:24:21Z</time>
      </trkpt>
      <trkpt lat="49.12627" lon="-1.30504">
        <ele>69.95914</ele>
        <time>2015-06-04T11:24:26Z</time>
      </trkpt>
      <trkpt lat="49.12629" lon="-1.30495">
        <ele>69.95914</ele>
        <time>2015-06-04T11:24:31Z</time>
      </trkpt>
      <trkpt lat="49.1263" lon="-1.30488">
        <ele>69.88855</ele>
        <time>2015-06-04T11:24:36Z</time>
      </trkpt>
      <trkpt lat="49.12629" lon="-1.30481">
        <ele>69.88855</ele>
        <time>2015-06-04T11:24:41Z</time>
      </trkpt>
      <trkpt lat="49.12627" lon="-1.30471">
        <ele>69.826294</ele>
        <time>2015-06-04T11:24:46Z</time>
      </trkpt>
      <trkpt lat="49.12626" lon="-1.30461">
        <ele>69.826294</ele>
        <time>2015-06-04T11:24:51Z</time>
      </trkpt>
      <trkpt lat="49.12625" lon="-1.30454">
        <ele>69.78728</ele>
        <time>2015-06-04T11:24:56Z</time>
      </trkpt>
      <trkpt lat="49.12623" lon="-1.30446">
        <ele>69.78728</ele>
        <time>2015-06-04T11:25:01Z</time>
      </trkpt>
      <trkpt lat="49.12621" lon="-1.30439">
        <ele>69.71319</ele>
        <time>2015-06-04T11:25:06Z</time>
      </trkpt>
      <trkpt lat="49.12618" lon="-1.3043">
        <ele>69.71319</ele>
        <time>2015-06-04T11:25:11Z</time>
      </trkpt>
      <trkpt lat="49.12615" lon="-1.30422">
        <ele>69.60775</ele>
        <time>2015-06-04T11:25:16Z</time>
      </trkpt>
      <trkpt lat="49.12612" lon="-1.30414">
        <ele>69.60775</ele>
        <time>2015-06-04T11:25:21Z</time>
      </trkpt>
      <trkpt lat="49.12608" lon="-1.30405">
        <ele>69.47448</ele>
        <time>2015-06-04T11:25:26Z</time>
      </trkpt>
      <trkpt lat="49.12606" lon="-1.30396">
        <ele>69.47448</ele>
        <time>2015-06-04T11:25:31Z</time>
      </trkpt>
      <trkpt lat="49.12605" lon="-1.30387">
        <ele>69.38878</ele>
        <time>2015-06-04T11:25:36Z</time>
      </trkpt>
      <trkpt lat="49.12604" lon="-1.30379">
        <ele>69.38878</ele>
        <time>2015-06-04T11:25:41Z</time>
      </trkpt>
      <trkpt lat="49.12602" lon="-1.3037">
        <ele>69.348305</ele>
        <time>2015-06-04T11:25:46Z</time>
      </trkpt>
      <trkpt lat="49.126" lon="-1.30363">
        <ele>69.348305</ele>
        <time>2015-06-04T11:25:51Z</time>
      </trkpt>
      <trkpt lat="49.12598" lon="-1.30355">
        <ele>69.293106</ele>
        <time>2015-06-04T11:25:56Z</time>
      </trkpt>
      <trkpt lat="49.12596" lon="-1.3035">
        <ele>69.293106</ele>
        <time>2015-06-04T11:26:01Z</time>
      </trkpt>
      <trkpt lat="49.12595" lon="-1.30349">
        <ele>69.293106</ele>
        <time>2015-06-04T11:26:06Z</time>
      </trkpt>
      <trkpt lat="49.12596" lon="-1.30342">
        <ele>69.239716</ele>
        <time>2015-06-04T11:26:11Z</time>
      </trkpt>
      <trkpt lat="49.12596" lon="-1.30332">
        <ele>69.239716</ele>
        <time>2015-06-04T11:26:16Z</time>
      </trkpt>
      <trkpt lat="49.12597" lon="-1.30323">
        <ele>69.21784</ele>
        <time>2015-06-04T11:26:21Z</time>
      </trkpt>
      <trkpt lat="49.12599" lon="-1.30314">
        <ele>69.21784</ele>
        <time>2015-06-04T11:26:26Z</time>
      </trkpt>
      <trkpt lat="49.12601" lon="-1.30306">
        <ele>69.22607</ele>
        <time>2015-06-04T11:26:31Z</time>
      </trkpt>
      <trkpt lat="49.12603" lon="-1.30298">
        <ele>69.22607</ele>
        <time>2015-06-04T11:26:36Z</time>
      </trkpt>
      <trkpt lat="49.12606" lon="-1.30289">
        <ele>69.30624</ele>
        <time>2015-06-04T11:26:41Z</time>
      </trkpt>
      <trkpt lat="49.12609" lon="-1.30281">
        <ele>69.30624</ele>
        <time>2015-06-04T11:26:46Z</time>
      </trkpt>
      <trkpt lat="49.12612" lon="-1.30273">
        <ele>69.49687</ele>
        <time>2015-06-04T11:26:51Z</time>
      </trkpt>
      <trkpt lat="49.12615" lon="-1.30265">
        <ele>69.49687</ele>
        <time>2015-06-04T11:26:56Z</time>
      </trkpt>
      <trkpt lat="49.12618" lon="-1.30256">
        <ele>69.790115</ele>
        <time>2015-06-04T11:27:01Z</time>
      </trkpt>
      <trkpt lat="49.12621" lon="-1.30247">
        <ele>69.790115</ele>
        <time>2015-06-04T11:27:06Z</time>
      </trkpt>
      <trkpt lat="49.12624" lon="-1.3024">
        <ele>70.14955</ele>
        <time>2015-06-04T11:27:11Z</time>
      </trkpt>
      <trkpt lat="49.12626" lon="-1.30239">
        <ele>70.14955</ele>
        <time>2015-06-04T11:27:16Z</time>
      </trkpt>
      <trkpt lat="49.1263" lon="-1.30236">
        <ele>70.14955</ele>
        <time>2015-06-04T11:27:21Z</time>
      </trkpt>
      <trkpt lat="49.1263" lon="-1.30236">
        <ele>70.14955</ele>
        <time>2015-06-04T11:27:26Z</time>
      </trkpt>
      <trkpt lat="49.12629" lon="-1.30238">
        <ele>70.14955</ele>
        <time>2015-06-04T11:27:31Z</time>
      </trkpt>
      <trkpt lat="49.12628" lon="-1.3024">
        <ele>70.36831</ele>
        <time>2015-06-04T11:27:36Z</time>
      </trkpt>
      <trkpt lat="49.12627" lon="-1.30242">
        <ele>70.36831</ele>
        <time>2015-06-04T11:27:41Z</time>
      </trkpt>
      <trkpt lat="49.12626" lon="-1.30244">
        <ele>70.36831</ele>
        <time>2015-06-04T11:27:46Z</time>
      </trkpt>
      <trkpt lat="49.12626" lon="-1.30246">
        <ele>70.36831</ele>
        <time>2015-06-04T11:27:51Z</time>
      </trkpt>
      <trkpt lat="49.12626" lon="-1.30246">
        <ele>70.36831</ele>
        <time>2015-06-04T11:27:56Z</time>
      </trkpt>
      <trkpt lat="49.12626" lon="-1.30245">
        <ele>70.36831</ele>
        <time>2015-06-04T11:28:01Z</time>
      </trkpt>
      <trkpt lat="49.12626" lon="-1.30246">
        <ele>70.36831</ele>
        <time>2015-06-04T11:28:06Z</time>
      </trkpt>
      <trkpt lat="49.12627" lon="-1.30246">
        <ele>70.36831</ele>
        <time>2015-06-04T11:28:11Z</time>
      </trkpt>
      <trkpt lat="49.12627" lon="-1.30246">
        <ele>70.36831</ele>
        <time>2015-06-04T11:28:16Z</time>
      </trkpt>
      <trkpt lat="49.12627" lon="-1.30246">
        <ele>70.36831</ele>
        <time>2015-06-04T11:28:31Z</time>
      </trkpt>
      <trkpt lat="49.12627" lon="-1.30246">
        <ele>70.36831</ele>
        <time>2015-06-04T11:28:36Z</time>
      </trkpt>
      <trkpt lat="49.12626" lon="-1.30245">
        <ele>70.36831</ele>
        <time>2015-06-04T11:28:46Z</time>
      </trkpt>
      <trkpt lat="49.12624" lon="-1.30243">
        <ele>70.35596</ele>
        <time>2015-06-04T11:28:51Z</time>
      </trkpt>
      <trkpt lat="49.12622" lon="-1.3024">
        <ele>70.35596</ele>
        <time>2015-06-04T11:28:56Z</time>
      </trkpt>
      <trkpt lat="49.12622" lon="-1.3024">
        <ele>70.35596</ele>
        <time>2015-06-04T11:29:01Z</time>
      </trkpt>
      <trkpt lat="49.1262" lon="-1.3023">
        <ele>70.3608</ele>
        <time>2015-06-04T11:29:11Z</time>
      </trkpt>
      <trkpt lat="49.12618" lon="-1.30222">
        <ele>70.3608</ele>
        <time>2015-06-04T11:29:16Z</time>
      </trkpt>
      <trkpt lat="49.12616" lon="-1.30215">
        <ele>70.28139</ele>
        <time>2015-06-04T11:29:21Z</time>
      </trkpt>
      <trkpt lat="49.12616" lon="-1.3021">
        <ele>70.28139</ele>
        <time>2015-06-04T11:29:26Z</time>
      </trkpt>
      <trkpt lat="49.12613" lon="-1.30204">
        <ele>70.28139</ele>
        <time>2015-06-04T11:29:31Z</time>
      </trkpt>
      <trkpt lat="49.12611" lon="-1.30197">
        <ele>70.1248</ele>
        <time>2015-06-04T11:29:36Z</time>
      </trkpt>
      <trkpt lat="49.1261" lon="-1.30189">
        <ele>70.1248</ele>
        <time>2015-06-04T11:29:41Z</time>
      </trkpt>
      <trkpt lat="49.12609" lon="-1.30183">
        <ele>69.883415</ele>
        <time>2015-06-04T11:29:46Z</time>
      </trkpt>
      <trkpt lat="49.12608" lon="-1.30174">
        <ele>69.883415</ele>
        <time>2015-06-04T11:29:51Z</time>
      </trkpt>
      <trkpt lat="49.12608" lon="-1.30166">
        <ele>69.57917</ele>
        <time>2015-06-04T11:29:56Z</time>
      </trkpt>
      <trkpt lat="49.12606" lon="-1.3016">
        <ele>69.57917</ele>
        <time>2015-06-04T11:30:01Z</time>
      </trkpt>
      <trkpt lat="49.12605" lon="-1.3015">
        <ele>69.21817</ele>
        <time>2015-06-04T11:30:06Z</time>
      </trkpt>
      <trkpt lat="49.12604" lon="-1.30141">
        <ele>69.21817</ele>
        <time>2015-06-04T11:30:11Z</time>
      </trkpt>
      <trkpt lat="49.12604" lon="-1.30132">
        <ele>68.87823</ele>
        <time>2015-06-04T11:30:16Z</time>
      </trkpt>
      <trkpt lat="49.12604" lon="-1.30126">
        <ele>68.87823</ele>
        <time>2015-06-04T11:30:21Z</time>
      </trkpt>
      <trkpt lat="49.12603" lon="-1.30121">
        <ele>68.87823</ele>
        <time>2015-06-04T11:30:26Z</time>
      </trkpt>
      <trkpt lat="49.12602" lon="-1.30111">
        <ele>68.58815</ele>
        <time>2015-06-04T11:30:31Z</time>
      </trkpt>
      <trkpt lat="49.12604" lon="-1.30104">
        <ele>68.58815</ele>
        <time>2015-06-04T11:30:36Z</time>
      </trkpt>
      <trkpt lat="49.12607" lon="-1.30098">
        <ele>68.273544</ele>
        <time>2015-06-04T11:30:41Z</time>
      </trkpt>
      <trkpt lat="49.12608" lon="-1.3009">
        <ele>68.273544</ele>
        <time>2015-06-04T11:30:46Z</time>
      </trkpt>
      <trkpt lat="49.12608" lon="-1.30079">
        <ele>67.80791</ele>
        <time>2015-06-04T11:30:51Z</time>
      </trkpt>
      <trkpt lat="49.12606" lon="-1.30067">
        <ele>67.80791</ele>
        <time>2015-06-04T11:30:56Z</time>
      </trkpt>
      <trkpt lat="49.12606" lon="-1.30059">
        <ele>67.31939</ele>
        <time>2015-06-04T11:31:01Z</time>
      </trkpt>
      <trkpt lat="49.12605" lon="-1.30051">
        <ele>67.31939</ele>
        <time>2015-06-04T11:31:06Z</time>
      </trkpt>
      <trkpt lat="49.12605" lon="-1.30044">
        <ele>66.96998</ele>
        <time>2015-06-04T11:31:11Z</time>
      </trkpt>
      <trkpt lat="49.12606" lon="-1.30038">
        <ele>66.96998</ele>
        <time>2015-06-04T11:31:16Z</time>
      </trkpt>
      <trkpt lat="49.12607" lon="-1.30028">
        <ele>66.75084</ele>
        <time>2015-06-04T11:31:21Z</time>
      </trkpt>
      <trkpt lat="49.12607" lon="-1.30021">
        <ele>66.75084</ele>
        <time>2015-06-04T11:31:26Z</time>
      </trkpt>
      <trkpt lat="49.12607" lon="-1.30011">
        <ele>66.58131</ele>
        <time>2015-06-04T11:31:31Z</time>
      </trkpt>
      <trkpt lat="49.12603" lon="-1.30001">
        <ele>66.58131</ele>
        <time>2015-06-04T11:31:36Z</time>
      </trkpt>
      <trkpt lat="49.12602" lon="-1.29993">
        <ele>66.51615</ele>
        <time>2015-06-04T11:31:41Z</time>
      </trkpt>
      <trkpt lat="49.126" lon="-1.29985">
        <ele>66.51615</ele>
        <time>2015-06-04T11:31:46Z</time>
      </trkpt>
      <trkpt lat="49.12598" lon="-1.29978">
        <ele>66.53375</ele>
        <time>2015-06-04T11:31:51Z</time>
      </trkpt>
      <trkpt lat="49.12597" lon="-1.29973">
        <ele>66.53375</ele>
        <time>2015-06-04T11:31:56Z</time>
      </trkpt>
      <trkpt lat="49.12598" lon="-1.29965">
        <ele>66.53375</ele>
        <time>2015-06-04T11:32:01Z</time>
      </trkpt>
      <trkpt lat="49.12598" lon="-1.29957">
        <ele>66.527336</ele>
        <time>2015-06-04T11:32:06Z</time>
      </trkpt>
      <trkpt lat="49.12597" lon="-1.2995">
        <ele>66.527336</ele>
        <time>2015-06-04T11:32:11Z</time>
      </trkpt>
      <trkpt lat="49.12597" lon="-1.29952">
        <ele>66.527336</ele>
        <time>2015-06-04T11:32:16Z</time>
      </trkpt>
      <trkpt lat="49.12597" lon="-1.29953">
        <ele>66.527336</ele>
        <time>2015-06-04T11:32:21Z</time>
      </trkpt>
      <trkpt lat="49.12595" lon="-1.29942">
        <ele>66.58534</ele>
        <time>2015-06-04T11:32:26Z</time>
      </trkpt>
      <trkpt lat="49.12593" lon="-1.29933">
        <ele>66.58534</ele>
        <time>2015-06-04T11:32:31Z</time>
      </trkpt>
      <trkpt lat="49.12591" lon="-1.29926">
        <ele>66.67422</ele>
        <time>2015-06-04T11:32:36Z</time>
      </trkpt>
      <trkpt lat="49.1259" lon="-1.29915">
        <ele>66.67422</ele>
        <time>2015-06-04T11:32:41Z</time>
      </trkpt>
      <trkpt lat="49.1259" lon="-1.29905">
        <ele>66.805984</ele>
        <time>2015-06-04T11:32:46Z</time>
      </trkpt>
      <trkpt lat="49.12589" lon="-1.29893">
        <ele>66.805984</ele>
        <time>2015-06-04T11:32:51Z</time>
      </trkpt>
      <trkpt lat="49.12587" lon="-1.29885">
        <ele>67.06368</ele>
        <time>2015-06-04T11:32:56Z</time>
      </trkpt>
      <trkpt lat="49.12584" lon="-1.29878">
        <ele>67.06368</ele>
        <time>2015-06-04T11:33:01Z</time>
      </trkpt>
      <trkpt lat="49.12582" lon="-1.29867">
        <ele>67.36537</ele>
        <time>2015-06-04T11:33:06Z</time>
      </trkpt>
      <trkpt lat="49.12579" lon="-1.29857">
        <ele>67.36537</ele>
        <time>2015-06-04T11:33:11Z</time>
      </trkpt>
      <trkpt lat="49.12578" lon="-1.29851">
        <ele>67.779076</ele>
        <time>2015-06-04T11:33:16Z</time>
      </trkpt>
      <trkpt lat="49.12576" lon="-1.29841">
        <ele>67.779076</ele>
        <time>2015-06-04T11:33:21Z</time>
      </trkpt>
      <trkpt lat="49.12572" lon="-1.2983">
        <ele>68.19457</ele>
        <time>2015-06-04T11:33:26Z</time>
      </trkpt>
      <trkpt lat="49.12569" lon="-1.29822">
        <ele>68.19457</ele>
        <time>2015-06-04T11:33:31Z</time>
      </trkpt>
      <trkpt lat="49.12567" lon="-1.29813">
        <ele>68.625</ele>
        <time>2015-06-04T11:33:36Z</time>
      </trkpt>
      <trkpt lat="49.12565" lon="-1.29807">
        <ele>68.625</ele>
        <time>2015-06-04T11:33:41Z</time>
      </trkpt>
      <trkpt lat="49.12562" lon="-1.29797">
        <ele>69.096886</ele>
        <time>2015-06-04T11:33:46Z</time>
      </trkpt>
      <trkpt lat="49.12559" lon="-1.29787">
        <ele>69.096886</ele>
        <time>2015-06-04T11:33:51Z</time>
      </trkpt>
      <trkpt lat="49.12556" lon="-1.29779">
        <ele>69.54824</ele>
        <time>2015-06-04T11:33:56Z</time>
      </trkpt>
      <trkpt lat="49.12554" lon="-1.2977">
        <ele>69.54824</ele>
        <time>2015-06-04T11:34:01Z</time>
      </trkpt>
      <trkpt lat="49.12552" lon="-1.29762">
        <ele>69.97931</ele>
        <time>2015-06-04T11:34:06Z</time>
      </trkpt>
      <trkpt lat="49.1255" lon="-1.29756">
        <ele>69.97931</ele>
        <time>2015-06-04T11:34:11Z</time>
      </trkpt>
      <trkpt lat="49.12547" lon="-1.29748">
        <ele>70.41921</ele>
        <time>2015-06-04T11:34:16Z</time>
      </trkpt>
      <trkpt lat="49.12543" lon="-1.29738">
        <ele>70.41921</ele>
        <time>2015-06-04T11:34:21Z</time>
      </trkpt>
      <trkpt lat="49.12541" lon="-1.2973">
        <ele>70.794044</ele>
        <time>2015-06-04T11:34:26Z</time>
      </trkpt>
      <trkpt lat="49.12538" lon="-1.29721">
        <ele>70.794044</ele>
        <time>2015-06-04T11:34:31Z</time>
      </trkpt>
      <trkpt lat="49.12535" lon="-1.29712">
        <ele>71.09314</ele>
        <time>2015-06-04T11:34:36Z</time>
      </trkpt>
      <trkpt lat="49.12532" lon="-1.29704">
        <ele>71.09314</ele>
        <time>2015-06-04T11:34:41Z</time>
      </trkpt>
      <trkpt lat="49.12531" lon="-1.29694">
        <ele>71.42216</ele>
        <time>2015-06-04T11:34:46Z</time>
      </trkpt>
      <trkpt lat="49.1253" lon="-1.29686">
        <ele>71.42216</ele>
        <time>2015-06-04T11:34:51Z</time>
      </trkpt>
      <trkpt lat="49.12529" lon="-1.29678">
        <ele>71.821266</ele>
        <time>2015-06-04T11:34:56Z</time>
      </trkpt>
      <trkpt lat="49.12526" lon="-1.2967">
        <ele>71.821266</ele>
        <time>2015-06-04T11:35:01Z</time>
      </trkpt>
      <trkpt lat="49.12522" lon="-1.29663">
        <ele>72.22663</ele>
        <time>2015-06-04T11:35:06Z</time>
      </trkpt>
      <trkpt lat="49.12519" lon="-1.29655">
        <ele>72.22663</ele>
        <time>2015-06-04T11:35:11Z</time>
      </trkpt>
      <trkpt lat="49.12516" lon="-1.29647">
        <ele>72.607925</ele>
        <time>2015-06-04T11:35:16Z</time>
      </trkpt>
      <trkpt lat="49.12514" lon="-1.2964">
        <ele>72.607925</ele>
        <time>2015-06-04T11:35:21Z</time>
      </trkpt>
      <trkpt lat="49.12511" lon="-1.29634">
        <ele>72.85066</ele>
        <time>2015-06-04T11:35:26Z</time>
      </trkpt>
      <trkpt lat="49.12507" lon="-1.29624">
        <ele>72.85066</ele>
        <time>2015-06-04T11:35:31Z</time>
      </trkpt>
      <trkpt lat="49.12505" lon="-1.29617">
        <ele>73.079765</ele>
        <time>2015-06-04T11:35:36Z</time>
      </trkpt>
      <trkpt lat="49.12502" lon="-1.29607">
        <ele>73.079765</ele>
        <time>2015-06-04T11:35:41Z</time>
      </trkpt>
      <trkpt lat="49.125" lon="-1.296">
        <ele>73.295746</ele>
        <time>2015-06-04T11:35:46Z</time>
      </trkpt>
      <trkpt lat="49.12498" lon="-1.29591">
        <ele>73.295746</ele>
        <time>2015-06-04T11:35:51Z</time>
      </trkpt>
      <trkpt lat="49.12496" lon="-1.29584">
        <ele>73.49914</ele>
        <time>2015-06-04T11:35:56Z</time>
      </trkpt>
      <trkpt lat="49.12494" lon="-1.29575">
        <ele>73.49914</ele>
        <time>2015-06-04T11:36:01Z</time>
      </trkpt>
      <trkpt lat="49.12492" lon="-1.29567">
        <ele>73.73373</ele>
        <time>2015-06-04T11:36:06Z</time>
      </trkpt>
      <trkpt lat="49.12491" lon="-1.29557">
        <ele>73.73373</ele>
        <time>2015-06-04T11:36:11Z</time>
      </trkpt>
      <trkpt lat="49.1249" lon="-1.29548">
        <ele>74.08323</ele>
        <time>2015-06-04T11:36:16Z</time>
      </trkpt>
      <trkpt lat="49.1249" lon="-1.29539">
        <ele>74.08323</ele>
        <time>2015-06-04T11:36:21Z</time>
      </trkpt>
      <trkpt lat="49.12488" lon="-1.29534">
        <ele>74.524055</ele>
        <time>2015-06-04T11:36:26Z</time>
      </trkpt>
      <trkpt lat="49.12489" lon="-1.29534">
        <ele>74.524055</ele>
        <time>2015-06-04T11:36:31Z</time>
      </trkpt>
      <trkpt lat="49.1249" lon="-1.29536">
        <ele>74.524055</ele>
        <time>2015-06-04T11:36:36Z</time>
      </trkpt>
      <trkpt lat="49.12491" lon="-1.29537">
        <ele>74.524055</ele>
        <time>2015-06-04T11:36:41Z</time>
      </trkpt>
      <trkpt lat="49.12491" lon="-1.29534">
        <ele>74.524055</ele>
        <time>2015-06-04T11:36:46Z</time>
      </trkpt>
      <trkpt lat="49.1249" lon="-1.29532">
        <ele>74.524055</ele>
        <time>2015-06-04T11:36:51Z</time>
      </trkpt>
      <trkpt lat="49.12491" lon="-1.29533">
        <ele>74.524055</ele>
        <time>2015-06-04T11:36:56Z</time>
      </trkpt>
      <trkpt lat="49.12493" lon="-1.29535">
        <ele>75.13498</ele>
        <time>2015-06-04T11:37:01Z</time>
      </trkpt>
      <trkpt lat="49.12493" lon="-1.29535">
        <ele>75.13498</ele>
        <time>2015-06-04T11:37:06Z</time>
      </trkpt>
      <trkpt lat="49.12493" lon="-1.29535">
        <ele>75.13498</ele>
        <time>2015-06-04T11:37:11Z</time>
      </trkpt>
      <trkpt lat="49.12493" lon="-1.29534">
        <ele>75.13498</ele>
        <time>2015-06-04T11:37:16Z</time>
      </trkpt>
      <trkpt lat="49.12493" lon="-1.29533">
        <ele>75.13498</ele>
        <time>2015-06-04T11:37:21Z</time>
      </trkpt>
      <trkpt lat="49.12493" lon="-1.29533">
        <ele>75.13498</ele>
        <time>2015-06-04T11:37:26Z</time>
      </trkpt>
      <trkpt lat="49.12492" lon="-1.29533">
        <ele>75.13498</ele>
        <time>2015-06-04T11:37:31Z</time>
      </trkpt>
      <trkpt lat="49.12493" lon="-1.29531">
        <ele>75.13498</ele>
        <time>2015-06-04T11:37:36Z</time>
      </trkpt>
      <trkpt lat="49.12493" lon="-1.29531">
        <ele>75.13498</ele>
        <time>2015-06-04T11:37:41Z</time>
      </trkpt>
      <trkpt lat="49.12494" lon="-1.29534">
        <ele>75.13498</ele>
        <time>2015-06-04T11:37:46Z</time>
      </trkpt>
      <trkpt lat="49.12494" lon="-1.29537">
        <ele>75.13498</ele>
        <time>2015-06-04T11:37:51Z</time>
      </trkpt>
      <trkpt lat="49.12492" lon="-1.29534">
        <ele>76.0606</ele>
        <time>2015-06-04T11:37:56Z</time>
      </trkpt>
      <trkpt lat="49.1249" lon="-1.29523">
        <ele>76.0606</ele>
        <time>2015-06-04T11:38:01Z</time>
      </trkpt>
      <trkpt lat="49.12487" lon="-1.29512">
        <ele>76.742294</ele>
        <time>2015-06-04T11:38:06Z</time>
      </trkpt>
      <trkpt lat="49.12485" lon="-1.29503">
        <ele>76.742294</ele>
        <time>2015-06-04T11:38:11Z</time>
      </trkpt>
      <trkpt lat="49.12484" lon="-1.29493">
        <ele>77.35492</ele>
        <time>2015-06-04T11:38:16Z</time>
      </trkpt>
      <trkpt lat="49.12483" lon="-1.29481">
        <ele>77.35492</ele>
        <time>2015-06-04T11:38:21Z</time>
      </trkpt>
      <trkpt lat="49.12482" lon="-1.29474">
        <ele>77.959854</ele>
        <time>2015-06-04T11:38:26Z</time>
      </trkpt>
      <trkpt lat="49.12482" lon="-1.29465">
        <ele>77.959854</ele>
        <time>2015-06-04T11:38:31Z</time>
      </trkpt>
      <trkpt lat="49.1248" lon="-1.29456">
        <ele>78.54194</ele>
        <time>2015-06-04T11:38:36Z</time>
      </trkpt>
      <trkpt lat="49.12478" lon="-1.29447">
        <ele>78.54194</ele>
        <time>2015-06-04T11:38:41Z</time>
      </trkpt>
      <trkpt lat="49.12477" lon="-1.29439">
        <ele>79.11607</ele>
        <time>2015-06-04T11:38:46Z</time>
      </trkpt>
      <trkpt lat="49.12478" lon="-1.29429">
        <ele>79.11607</ele>
        <time>2015-06-04T11:38:51Z</time>
      </trkpt>
      <trkpt lat="49.12478" lon="-1.29422">
        <ele>79.60964</ele>
        <time>2015-06-04T11:38:56Z</time>
      </trkpt>
      <trkpt lat="49.12477" lon="-1.29411">
        <ele>79.60964</ele>
        <time>2015-06-04T11:39:01Z</time>
      </trkpt>
      <trkpt lat="49.12476" lon="-1.294">
        <ele>80.08533</ele>
        <time>2015-06-04T11:39:06Z</time>
      </trkpt>
      <trkpt lat="49.12476" lon="-1.29392">
        <ele>80.08533</ele>
        <time>2015-06-04T11:39:11Z</time>
      </trkpt>
      <trkpt lat="49.12475" lon="-1.29384">
        <ele>80.52925</ele>
        <time>2015-06-04T11:39:16Z</time>
      </trkpt>
      <trkpt lat="49.12474" lon="-1.29375">
        <ele>80.52925</ele>
        <time>2015-06-04T11:39:21Z</time>
      </trkpt>
      <trkpt lat="49.12472" lon="-1.29364">
        <ele>80.87101</ele>
        <time>2015-06-04T11:39:26Z</time>
      </trkpt>
      <trkpt lat="49.12471" lon="-1.29354">
        <ele>80.87101</ele>
        <time>2015-06-04T11:39:31Z</time>
      </trkpt>
      <trkpt lat="49.12471" lon="-1.29346">
        <ele>81.175415</ele>
        <time>2015-06-04T11:39:36Z</time>
      </trkpt>
      <trkpt lat="49.12472" lon="-1.29334">
        <ele>81.175415</ele>
        <time>2015-06-04T11:39:41Z</time>
      </trkpt>
      <trkpt lat="49.12471" lon="-1.29325">
        <ele>81.445</ele>
        <time>2015-06-04T11:39:46Z</time>
      </trkpt>
      <trkpt lat="49.1247" lon="-1.29316">
        <ele>81.445</ele>
        <time>2015-06-04T11:39:51Z</time>
      </trkpt>
      <trkpt lat="49.12469" lon="-1.29307">
        <ele>81.68225</ele>
        <time>2015-06-04T11:39:56Z</time>
      </trkpt>
      <trkpt lat="49.12467" lon="-1.29298">
        <ele>81.68225</ele>
        <time>2015-06-04T11:40:01Z</time>
      </trkpt>
      <trkpt lat="49.12467" lon="-1.29289">
        <ele>81.88958</ele>
        <time>2015-06-04T11:40:06Z</time>
      </trkpt>
      <trkpt lat="49.12466" lon="-1.2928">
        <ele>81.88958</ele>
        <time>2015-06-04T11:40:11Z</time>
      </trkpt>
      <trkpt lat="49.12466" lon="-1.2927">
        <ele>82.06934</ele>
        <time>2015-06-04T11:40:16Z</time>
      </trkpt>
      <trkpt lat="49.12466" lon="-1.29262">
        <ele>82.06934</ele>
        <time>2015-06-04T11:40:21Z</time>
      </trkpt>
      <trkpt lat="49.12464" lon="-1.29251">
        <ele>82.26706</ele>
        <time>2015-06-04T11:40:26Z</time>
      </trkpt>
      <trkpt lat="49.12464" lon="-1.29251">
        <ele>82.26706</ele>
        <time>2015-06-04T11:40:31Z</time>
      </trkpt>
      <trkpt lat="49.12462" lon="-1.29248">
        <ele>82.26706</ele>
        <time>2015-06-04T11:40:36Z</time>
      </trkpt>
      <trkpt lat="49.12462" lon="-1.29241">
        <ele>82.26706</ele>
        <time>2015-06-04T11:40:41Z</time>
      </trkpt>
      <trkpt lat="49.12461" lon="-1.29242">
        <ele>82.26706</ele>
        <time>2015-06-04T11:40:46Z</time>
      </trkpt>
      <trkpt lat="49.12461" lon="-1.29241">
        <ele>82.26706</ele>
        <time>2015-06-04T11:40:51Z</time>
      </trkpt>
      <trkpt lat="49.12462" lon="-1.2924">
        <ele>82.39516</ele>
        <time>2015-06-04T11:40:56Z</time>
      </trkpt>
      <trkpt lat="49.12461" lon="-1.29238">
        <ele>82.39516</ele>
        <time>2015-06-04T11:41:01Z</time>
      </trkpt>
      <trkpt lat="49.12462" lon="-1.29235">
        <ele>82.39516</ele>
        <time>2015-06-04T11:41:06Z</time>
      </trkpt>
      <trkpt lat="49.12462" lon="-1.29234">
        <ele>82.39516</ele>
        <time>2015-06-04T11:41:11Z</time>
      </trkpt>
      <trkpt lat="49.12462" lon="-1.29235">
        <ele>82.39516</ele>
        <time>2015-06-04T11:41:16Z</time>
      </trkpt>
      <trkpt lat="49.12461" lon="-1.29235">
        <ele>82.39516</ele>
        <time>2015-06-04T11:41:21Z</time>
      </trkpt>
      <trkpt lat="49.12462" lon="-1.29236">
        <ele>82.39516</ele>
        <time>2015-06-04T11:41:26Z</time>
      </trkpt>
      <trkpt lat="49.12462" lon="-1.29236">
        <ele>82.39516</ele>
        <time>2015-06-04T11:41:31Z</time>
      </trkpt>
      <trkpt lat="49.12463" lon="-1.29237">
        <ele>82.39516</ele>
        <time>2015-06-04T11:41:36Z</time>
      </trkpt>
      <trkpt lat="49.12463" lon="-1.29237">
        <ele>82.39516</ele>
        <time>2015-06-04T11:41:41Z</time>
      </trkpt>
      <trkpt lat="49.12464" lon="-1.29238">
        <ele>82.39516</ele>
        <time>2015-06-04T11:41:46Z</time>
      </trkpt>
      <trkpt lat="49.12463" lon="-1.29238">
        <ele>82.39516</ele>
        <time>2015-06-04T11:41:51Z</time>
      </trkpt>
      <trkpt lat="49.12462" lon="-1.29237">
        <ele>82.329506</ele>
        <time>2015-06-04T11:41:56Z</time>
      </trkpt>
      <trkpt lat="49.12464" lon="-1.29237">
        <ele>82.329506</ele>
        <time>2015-06-04T11:42:01Z</time>
      </trkpt>
      <trkpt lat="49.12465" lon="-1.29237">
        <ele>82.329506</ele>
        <time>2015-06-04T11:42:06Z</time>
      </trkpt>
      <trkpt lat="49.12464" lon="-1.29238">
        <ele>82.329506</ele>
        <time>2015-06-04T11:42:11Z</time>
      </trkpt>
      <trkpt lat="49.12463" lon="-1.29237">
        <ele>82.329506</ele>
        <time>2015-06-04T11:42:16Z</time>
      </trkpt>
      <trkpt lat="49.12463" lon="-1.29237">
        <ele>82.329506</ele>
        <time>2015-06-04T11:42:21Z</time>
      </trkpt>
      <trkpt lat="49.12464" lon="-1.29239">
        <ele>82.329506</ele>
        <time>2015-06-04T11:42:26Z</time>
      </trkpt>
      <trkpt lat="49.12465" lon="-1.29237">
        <ele>82.329506</ele>
        <time>2015-06-04T11:42:31Z</time>
      </trkpt>
      <trkpt lat="49.12465" lon="-1.29235">
        <ele>82.329506</ele>
        <time>2015-06-04T11:42:36Z</time>
      </trkpt>
      <trkpt lat="49.12465" lon="-1.29234">
        <ele>82.329506</ele>
        <time>2015-06-04T11:42:41Z</time>
      </trkpt>
      <trkpt lat="49.12463" lon="-1.29225">
        <ele>82.3015</ele>
        <time>2015-06-04T11:42:46Z</time>
      </trkpt>
      <trkpt lat="49.12461" lon="-1.29219">
        <ele>82.3015</ele>
        <time>2015-06-04T11:42:51Z</time>
      </trkpt>
      <trkpt lat="49.12459" lon="-1.2921">
        <ele>82.23723</ele>
        <time>2015-06-04T11:42:56Z</time>
      </trkpt>
      <trkpt lat="49.12458" lon="-1.29201">
        <ele>82.23723</ele>
        <time>2015-06-04T11:43:01Z</time>
      </trkpt>
      <trkpt lat="49.12458" lon="-1.29193">
        <ele>82.1692</ele>
        <time>2015-06-04T11:43:06Z</time>
      </trkpt>
      <trkpt lat="49.12456" lon="-1.29181">
        <ele>82.1692</ele>
        <time>2015-06-04T11:43:11Z</time>
      </trkpt>
      <trkpt lat="49.12454" lon="-1.29173">
        <ele>82.11313</ele>
        <time>2015-06-04T11:43:16Z</time>
      </trkpt>
      <trkpt lat="49.12453" lon="-1.29163">
        <ele>82.11313</ele>
        <time>2015-06-04T11:43:21Z</time>
      </trkpt>
      <trkpt lat="49.12452" lon="-1.29157">
        <ele>82.05473</ele>
        <time>2015-06-04T11:43:26Z</time>
      </trkpt>
      <trkpt lat="49.12449" lon="-1.29149">
        <ele>82.05473</ele>
        <time>2015-06-04T11:43:31Z</time>
      </trkpt>
      <trkpt lat="49.12447" lon="-1.29141">
        <ele>81.96638</ele>
        <time>2015-06-04T11:43:36Z</time>
      </trkpt>
      <trkpt lat="49.12447" lon="-1.29133">
        <ele>81.96638</ele>
        <time>2015-06-04T11:43:41Z</time>
      </trkpt>
      <trkpt lat="49.12445" lon="-1.29126">
        <ele>81.90899</ele>
        <time>2015-06-04T11:43:46Z</time>
      </trkpt>
      <trkpt lat="49.12445" lon="-1.29118">
        <ele>81.90899</ele>
        <time>2015-06-04T11:43:51Z</time>
      </trkpt>
      <trkpt lat="49.12443" lon="-1.29117">
        <ele>81.90899</ele>
        <time>2015-06-04T11:43:56Z</time>
      </trkpt>
      <trkpt lat="49.12443" lon="-1.29117">
        <ele>81.90899</ele>
        <time>2015-06-04T11:44:01Z</time>
      </trkpt>
      <trkpt lat="49.1244" lon="-1.29111">
        <ele>81.78041</ele>
        <time>2015-06-04T11:44:06Z</time>
      </trkpt>
      <trkpt lat="49.12437" lon="-1.29102">
        <ele>81.78041</ele>
        <time>2015-06-04T11:44:11Z</time>
      </trkpt>
      <trkpt lat="49.12434" lon="-1.29094">
        <ele>81.52941</ele>
        <time>2015-06-04T11:44:16Z</time>
      </trkpt>
      <trkpt lat="49.12433" lon="-1.29089">
        <ele>81.52941</ele>
        <time>2015-06-04T11:44:21Z</time>
      </trkpt>
      <trkpt lat="49.12431" lon="-1.29082">
        <ele>81.52941</ele>
        <time>2015-06-04T11:44:26Z</time>
      </trkpt>
      <trkpt lat="49.12428" lon="-1.29068">
        <ele>81.22414</ele>
        <time>2015-06-04T11:44:31Z</time>
      </trkpt>
      <trkpt lat="49.12424" lon="-1.29058">
        <ele>81.22414</ele>
        <time>2015-06-04T11:44:36Z</time>
      </trkpt>
      <trkpt lat="49.12422" lon="-1.29052">
        <ele>80.956696</ele>
        <time>2015-06-04T11:44:41Z</time>
      </trkpt>
      <trkpt lat="49.1242" lon="-1.29046">
        <ele>80.956696</ele>
        <time>2015-06-04T11:44:46Z</time>
      </trkpt>
      <trkpt lat="49.12418" lon="-1.29037">
        <ele>80.69701</ele>
        <time>2015-06-04T11:44:51Z</time>
      </trkpt>
      <trkpt lat="49.12415" lon="-1.2903">
        <ele>80.69701</ele>
        <time>2015-06-04T11:44:56Z</time>
      </trkpt>
      <trkpt lat="49.12413" lon="-1.29022">
        <ele>80.431564</ele>
        <time>2015-06-04T11:45:01Z</time>
      </trkpt>
      <trkpt lat="49.12412" lon="-1.29012">
        <ele>80.431564</ele>
        <time>2015-06-04T11:45:06Z</time>
      </trkpt>
      <trkpt lat="49.12408" lon="-1.29006">
        <ele>80.14786</ele>
        <time>2015-06-04T11:45:11Z</time>
      </trkpt>
      <trkpt lat="49.12406" lon="-1.28998">
        <ele>80.14786</ele>
        <time>2015-06-04T11:45:16Z</time>
      </trkpt>
      <trkpt lat="49.12405" lon="-1.2899">
        <ele>79.81989</ele>
        <time>2015-06-04T11:45:21Z</time>
      </trkpt>
      <trkpt lat="49.12404" lon="-1.28982">
        <ele>79.81989</ele>
        <time>2015-06-04T11:45:26Z</time>
      </trkpt>
      <trkpt lat="49.12403" lon="-1.28978">
        <ele>79.81989</ele>
        <time>2015-06-04T11:45:31Z</time>
      </trkpt>
      <trkpt lat="49.12401" lon="-1.28969">
        <ele>79.36604</ele>
        <time>2015-06-04T11:45:36Z</time>
      </trkpt>
      <trkpt lat="49.12399" lon="-1.2896">
        <ele>79.36604</ele>
        <time>2015-06-04T11:45:41Z</time>
      </trkpt>
      <trkpt lat="49.12397" lon="-1.28954">
        <ele>79.04245</ele>
        <time>2015-06-04T11:45:46Z</time>
      </trkpt>
      <trkpt lat="49.12393" lon="-1.28944">
        <ele>79.04245</ele>
        <time>2015-06-04T11:45:51Z</time>
      </trkpt>
      <trkpt lat="49.12388" lon="-1.28934">
        <ele>78.69693</ele>
        <time>2015-06-04T11:45:56Z</time>
      </trkpt>
      <trkpt lat="49.12387" lon="-1.28926">
        <ele>78.69693</ele>
        <time>2015-06-04T11:46:01Z</time>
      </trkpt>
      <trkpt lat="49.12385" lon="-1.28916">
        <ele>78.36144</ele>
        <time>2015-06-04T11:46:06Z</time>
      </trkpt>
      <trkpt lat="49.12386" lon="-1.28906">
        <ele>78.36144</ele>
        <time>2015-06-04T11:46:11Z</time>
      </trkpt>
      <trkpt lat="49.12384" lon="-1.28895">
        <ele>78.12319</ele>
        <time>2015-06-04T11:46:16Z</time>
      </trkpt>
      <trkpt lat="49.12381" lon="-1.28886">
        <ele>78.12319</ele>
        <time>2015-06-04T11:46:21Z</time>
      </trkpt>
      <trkpt lat="49.12379" lon="-1.28874">
        <ele>77.832054</ele>
        <time>2015-06-04T11:46:26Z</time>
      </trkpt>
      <trkpt lat="49.12378" lon="-1.28867">
        <ele>77.832054</ele>
        <time>2015-06-04T11:46:31Z</time>
      </trkpt>
      <trkpt lat="49.12377" lon="-1.2886">
        <ele>77.55081</ele>
        <time>2015-06-04T11:46:36Z</time>
      </trkpt>
      <trkpt lat="49.12373" lon="-1.28844">
        <ele>77.29435</ele>
        <time>2015-06-04T11:46:41Z</time>
      </trkpt>
      <trkpt lat="49.12371" lon="-1.28837">
        <ele>77.29435</ele>
        <time>2015-06-04T11:46:46Z</time>
      </trkpt>
      <trkpt lat="49.1237" lon="-1.28829">
        <ele>77.07631</ele>
        <time>2015-06-04T11:46:51Z</time>
      </trkpt>
      <trkpt lat="49.1237" lon="-1.28822">
        <ele>77.07631</ele>
        <time>2015-06-04T11:46:56Z</time>
      </trkpt>
      <trkpt lat="49.12368" lon="-1.28815">
        <ele>76.98126</ele>
        <time>2015-06-04T11:47:01Z</time>
      </trkpt>
      <trkpt lat="49.12365" lon="-1.28801">
        <ele>76.89983</ele>
        <time>2015-06-04T11:47:06Z</time>
      </trkpt>
      <trkpt lat="49.12362" lon="-1.28791">
        <ele>76.89983</ele>
        <time>2015-06-04T11:47:11Z</time>
      </trkpt>
      <trkpt lat="49.12363" lon="-1.28785">
        <ele>76.788246</ele>
        <time>2015-06-04T11:47:16Z</time>
      </trkpt>
      <trkpt lat="49.12363" lon="-1.2878">
        <ele>76.788246</ele>
        <time>2015-06-04T11:47:21Z</time>
      </trkpt>
      <trkpt lat="49.1236" lon="-1.2877">
        <ele>76.60598</ele>
        <time>2015-06-04T11:47:26Z</time>
      </trkpt>
      <trkpt lat="49.12358" lon="-1.28762">
        <ele>76.60598</ele>
        <time>2015-06-04T11:47:31Z</time>
      </trkpt>
      <trkpt lat="49.12356" lon="-1.28753">
        <ele>76.43095</ele>
        <time>2015-06-04T11:47:36Z</time>
      </trkpt>
      <trkpt lat="49.12352" lon="-1.28742">
        <ele>76.43095</ele>
        <time>2015-06-04T11:47:41Z</time>
      </trkpt>
      <trkpt lat="49.12349" lon="-1.28733">
        <ele>76.2488</ele>
        <time>2015-06-04T11:47:46Z</time>
      </trkpt>
      <trkpt lat="49.12346" lon="-1.28723">
        <ele>76.2488</ele>
        <time>2015-06-04T11:47:51Z</time>
      </trkpt>
      <trkpt lat="49.12345" lon="-1.28717">
        <ele>76.046265</ele>
        <time>2015-06-04T11:47:56Z</time>
      </trkpt>
      <trkpt lat="49.12342" lon="-1.28706">
        <ele>76.046265</ele>
        <time>2015-06-04T11:48:01Z</time>
      </trkpt>
      <trkpt lat="49.12341" lon="-1.28699">
        <ele>75.85425</ele>
        <time>2015-06-04T11:48:06Z</time>
      </trkpt>
      <trkpt lat="49.12339" lon="-1.28689">
        <ele>75.85425</ele>
        <time>2015-06-04T11:48:11Z</time>
      </trkpt>
      <trkpt lat="49.12338" lon="-1.28685">
        <ele>75.54284</ele>
        <time>2015-06-04T11:48:16Z</time>
      </trkpt>
      <trkpt lat="49.12339" lon="-1.2868">
        <ele>75.54284</ele>
        <time>2015-06-04T11:48:21Z</time>
      </trkpt>
      <trkpt lat="49.12339" lon="-1.28678">
        <ele>75.54284</ele>
        <time>2015-06-04T11:48:26Z</time>
      </trkpt>
      <trkpt lat="49.12338" lon="-1.28669">
        <ele>74.93431</ele>
        <time>2015-06-04T11:48:31Z</time>
      </trkpt>
      <trkpt lat="49.12338" lon="-1.28657">
        <ele>74.93431</ele>
        <time>2015-06-04T11:48:36Z</time>
      </trkpt>
      <trkpt lat="49.12337" lon="-1.28643">
        <ele>74.1386</ele>
        <time>2015-06-04T11:48:41Z</time>
      </trkpt>
      <trkpt lat="49.12337" lon="-1.28634">
        <ele>74.1386</ele>
        <time>2015-06-04T11:48:46Z</time>
      </trkpt>
      <trkpt lat="49.12337" lon="-1.28624">
        <ele>73.22925</ele>
        <time>2015-06-04T11:48:51Z</time>
      </trkpt>
      <trkpt lat="49.12337" lon="-1.28617">
        <ele>73.22925</ele>
        <time>2015-06-04T11:48:56Z</time>
      </trkpt>
      <trkpt lat="49.12338" lon="-1.28607">
        <ele>72.217</ele>
        <time>2015-06-04T11:49:01Z</time>
      </trkpt>
      <trkpt lat="49.12339" lon="-1.28601">
        <ele>72.217</ele>
        <time>2015-06-04T11:49:06Z</time>
      </trkpt>
      <trkpt lat="49.12339" lon="-1.28593">
        <ele>71.1121</ele>
        <time>2015-06-04T11:49:11Z</time>
      </trkpt>
      <trkpt lat="49.12341" lon="-1.28587">
        <ele>71.1121</ele>
        <time>2015-06-04T11:49:16Z</time>
      </trkpt>
      <trkpt lat="49.1234" lon="-1.28582">
        <ele>71.1121</ele>
        <time>2015-06-04T11:49:21Z</time>
      </trkpt>
      <trkpt lat="49.12341" lon="-1.28578">
        <ele>69.59275</ele>
        <time>2015-06-04T11:49:26Z</time>
      </trkpt>
      <trkpt lat="49.1234" lon="-1.28571">
        <ele>69.59275</ele>
        <time>2015-06-04T11:49:31Z</time>
      </trkpt>
      <trkpt lat="49.12342" lon="-1.28561">
        <ele>67.794266</ele>
        <time>2015-06-04T11:49:36Z</time>
      </trkpt>
      <trkpt lat="49.12343" lon="-1.28551">
        <ele>67.794266</ele>
        <time>2015-06-04T11:49:41Z</time>
      </trkpt>
      <trkpt lat="49.12344" lon="-1.28541">
        <ele>65.84271</ele>
        <time>2015-06-04T11:49:46Z</time>
      </trkpt>
      <trkpt lat="49.12345" lon="-1.28533">
        <ele>65.84271</ele>
        <time>2015-06-04T11:49:51Z</time>
      </trkpt>
      <trkpt lat="49.12345" lon="-1.28525">
        <ele>63.7544</ele>
        <time>2015-06-04T11:49:56Z</time>
      </trkpt>
      <trkpt lat="49.12346" lon="-1.28518">
        <ele>63.7544</ele>
        <time>2015-06-04T11:50:01Z</time>
      </trkpt>
      <trkpt lat="49.12345" lon="-1.28515">
        <ele>63.7544</ele>
        <time>2015-06-04T11:50:06Z</time>
      </trkpt>
      <trkpt lat="49.12345" lon="-1.28512">
        <ele>61.29974</ele>
        <time>2015-06-04T11:50:11Z</time>
      </trkpt>
      <trkpt lat="49.12344" lon="-1.28507">
        <ele>61.29974</ele>
        <time>2015-06-04T11:50:16Z</time>
      </trkpt>
      <trkpt lat="49.12347" lon="-1.28491">
        <ele>58.684875</ele>
        <time>2015-06-04T11:50:21Z</time>
      </trkpt>
      <trkpt lat="49.12347" lon="-1.28487">
        <ele>58.684875</ele>
        <time>2015-06-04T11:50:26Z</time>
      </trkpt>
      <trkpt lat="49.12351" lon="-1.28471">
        <ele>56.086735</ele>
        <time>2015-06-04T11:50:31Z</time>
      </trkpt>
      <trkpt lat="49.12353" lon="-1.28457">
        <ele>53.726734</ele>
        <time>2015-06-04T11:50:36Z</time>
      </trkpt>
      <trkpt lat="49.12357" lon="-1.28443">
        <ele>51.6363</ele>
        <time>2015-06-04T11:50:41Z</time>
      </trkpt>
      <trkpt lat="49.12359" lon="-1.28439">
        <ele>51.6363</ele>
        <time>2015-06-04T11:50:46Z</time>
      </trkpt>
      <trkpt lat="49.12363" lon="-1.2843">
        <ele>49.742786</ele>
        <time>2015-06-04T11:50:51Z</time>
      </trkpt>
      <trkpt lat="49.12366" lon="-1.28427">
        <ele>49.742786</ele>
        <time>2015-06-04T11:50:56Z</time>
      </trkpt>
      <trkpt lat="49.12369" lon="-1.28422">
        <ele>49.742786</ele>
        <time>2015-06-04T11:51:01Z</time>
      </trkpt>
      <trkpt lat="49.12371" lon="-1.28414">
        <ele>47.934963</ele>
        <time>2015-06-04T11:51:06Z</time>
      </trkpt>
      <trkpt lat="49.12375" lon="-1.284">
        <ele>46.33997</ele>
        <time>2015-06-04T11:51:11Z</time>
      </trkpt>
      <trkpt lat="49.12379" lon="-1.28387">
        <ele>45.002804</ele>
        <time>2015-06-04T11:51:16Z</time>
      </trkpt>
      <trkpt lat="49.12383" lon="-1.28375">
        <ele>45.002804</ele>
        <time>2015-06-04T11:51:21Z</time>
      </trkpt>
      <trkpt lat="49.12385" lon="-1.28366">
        <ele>44.02196</ele>
        <time>2015-06-04T11:51:26Z</time>
      </trkpt>
      <trkpt lat="49.12387" lon="-1.28359">
        <ele>44.02196</ele>
        <time>2015-06-04T11:51:31Z</time>
      </trkpt>
      <trkpt lat="49.12388" lon="-1.28354">
        <ele>44.02196</ele>
        <time>2015-06-04T11:51:36Z</time>
      </trkpt>
      <trkpt lat="49.12394" lon="-1.28345">
        <ele>43.38668</ele>
        <time>2015-06-04T11:51:41Z</time>
      </trkpt>
      <trkpt lat="49.12397" lon="-1.28336">
        <ele>43.38668</ele>
        <time>2015-06-04T11:51:46Z</time>
      </trkpt>
      <trkpt lat="49.12399" lon="-1.2833">
        <ele>42.941784</ele>
        <time>2015-06-04T11:51:51Z</time>
      </trkpt>
      <trkpt lat="49.12402" lon="-1.28319">
        <ele>42.941784</ele>
        <time>2015-06-04T11:51:56Z</time>
      </trkpt>
      <trkpt lat="49.12405" lon="-1.28307">
        <ele>42.614902</ele>
        <time>2015-06-04T11:52:01Z</time>
      </trkpt>
      <trkpt lat="49.12406" lon="-1.283">
        <ele>42.614902</ele>
        <time>2015-06-04T11:52:06Z</time>
      </trkpt>
      <trkpt lat="49.12408" lon="-1.28292">
        <ele>42.554718</ele>
        <time>2015-06-04T11:52:11Z</time>
      </trkpt>
      <trkpt lat="49.1241" lon="-1.28284">
        <ele>42.554718</ele>
        <time>2015-06-04T11:52:16Z</time>
      </trkpt>
      <trkpt lat="49.12412" lon="-1.28275">
        <ele>42.811672</ele>
        <time>2015-06-04T11:52:21Z</time>
      </trkpt>
      <trkpt lat="49.12415" lon="-1.28268">
        <ele>42.811672</ele>
        <time>2015-06-04T11:52:26Z</time>
      </trkpt>
      <trkpt lat="49.12415" lon="-1.2826">
        <ele>43.21537</ele>
        <time>2015-06-04T11:52:31Z</time>
      </trkpt>
      <trkpt lat="49.12417" lon="-1.28251">
        <ele>43.21537</ele>
        <time>2015-06-04T11:52:36Z</time>
      </trkpt>
      <trkpt lat="49.12418" lon="-1.28247">
        <ele>43.21537</ele>
        <time>2015-06-04T11:52:41Z</time>
      </trkpt>
      <trkpt lat="49.12417" lon="-1.28241">
        <ele>43.70834</ele>
        <time>2015-06-04T11:52:46Z</time>
      </trkpt>
      <trkpt lat="49.12418" lon="-1.28234">
        <ele>43.70834</ele>
        <time>2015-06-04T11:52:51Z</time>
      </trkpt>
      <trkpt lat="49.12418" lon="-1.28224">
        <ele>44.251434</ele>
        <time>2015-06-04T11:52:56Z</time>
      </trkpt>
      <trkpt lat="49.1242" lon="-1.2822">
        <ele>44.251434</ele>
        <time>2015-06-04T11:53:01Z</time>
      </trkpt>
      <trkpt lat="49.12421" lon="-1.28212">
        <ele>44.251434</ele>
        <time>2015-06-04T11:53:06Z</time>
      </trkpt>
      <trkpt lat="49.12423" lon="-1.28204">
        <ele>44.837025</ele>
        <time>2015-06-04T11:53:11Z</time>
      </trkpt>
      <trkpt lat="49.12422" lon="-1.28195">
        <ele>44.837025</ele>
        <time>2015-06-04T11:53:16Z</time>
      </trkpt>
      <trkpt lat="49.12423" lon="-1.28179">
        <ele>45.357037</ele>
        <time>2015-06-04T11:53:21Z</time>
      </trkpt>
      <trkpt lat="49.12424" lon="-1.2817">
        <ele>45.357037</ele>
        <time>2015-06-04T11:53:26Z</time>
      </trkpt>
      <trkpt lat="49.12427" lon="-1.28161">
        <ele>45.970905</ele>
        <time>2015-06-04T11:53:31Z</time>
      </trkpt>
      <trkpt lat="49.12429" lon="-1.28153">
        <ele>45.970905</ele>
        <time>2015-06-04T11:53:36Z</time>
      </trkpt>
      <trkpt lat="49.12431" lon="-1.28144">
        <ele>46.609924</ele>
        <time>2015-06-04T11:53:41Z</time>
      </trkpt>
      <trkpt lat="49.12431" lon="-1.28137">
        <ele>46.609924</ele>
        <time>2015-06-04T11:53:46Z</time>
      </trkpt>
      <trkpt lat="49.12433" lon="-1.28127">
        <ele>47.195976</ele>
        <time>2015-06-04T11:53:51Z</time>
      </trkpt>
      <trkpt lat="49.12436" lon="-1.28117">
        <ele>47.195976</ele>
        <time>2015-06-04T11:53:56Z</time>
      </trkpt>
      <trkpt lat="49.12437" lon="-1.28109">
        <ele>47.81538</ele>
        <time>2015-06-04T11:54:01Z</time>
      </trkpt>
      <trkpt lat="49.12438" lon="-1.28099">
        <ele>47.81538</ele>
        <time>2015-06-04T11:54:06Z</time>
      </trkpt>
      <trkpt lat="49.12442" lon="-1.2809">
        <ele>48.43277</ele>
        <time>2015-06-04T11:54:11Z</time>
      </trkpt>
      <trkpt lat="49.12442" lon="-1.28082">
        <ele>48.43277</ele>
        <time>2015-06-04T11:54:16Z</time>
      </trkpt>
      <trkpt lat="49.12444" lon="-1.28075">
        <ele>49.001022</ele>
        <time>2015-06-04T11:54:21Z</time>
      </trkpt>
      <trkpt lat="49.12445" lon="-1.28065">
        <ele>49.001022</ele>
        <time>2015-06-04T11:54:26Z</time>
      </trkpt>
      <trkpt lat="49.12446" lon="-1.28057">
        <ele>49.462254</ele>
        <time>2015-06-04T11:54:31Z</time>
      </trkpt>
      <trkpt lat="49.12447" lon="-1.28048">
        <ele>49.462254</ele>
        <time>2015-06-04T11:54:36Z</time>
      </trkpt>
      <trkpt lat="49.12448" lon="-1.28043">
        <ele>49.79202</ele>
        <time>2015-06-04T11:54:41Z</time>
      </trkpt>
      <trkpt lat="49.12447" lon="-1.28043">
        <ele>49.79202</ele>
        <time>2015-06-04T11:54:46Z</time>
      </trkpt>
      <trkpt lat="49.12446" lon="-1.28044">
        <ele>49.79202</ele>
        <time>2015-06-04T11:54:51Z</time>
      </trkpt>
      <trkpt lat="49.12447" lon="-1.28044">
        <ele>49.79202</ele>
        <time>2015-06-04T11:54:56Z</time>
      </trkpt>
      <trkpt lat="49.12447" lon="-1.28044">
        <ele>49.79202</ele>
        <time>2015-06-04T11:55:01Z</time>
      </trkpt>
      <trkpt lat="49.12447" lon="-1.28043">
        <ele>49.79202</ele>
        <time>2015-06-04T11:55:06Z</time>
      </trkpt>
      <trkpt lat="49.12449" lon="-1.28044">
        <ele>49.79202</ele>
        <time>2015-06-04T11:55:11Z</time>
      </trkpt>
      <trkpt lat="49.1245" lon="-1.28045">
        <ele>49.79202</ele>
        <time>2015-06-04T11:55:16Z</time>
      </trkpt>
      <trkpt lat="49.1245" lon="-1.28045">
        <ele>49.79202</ele>
        <time>2015-06-04T11:55:21Z</time>
      </trkpt>
      <trkpt lat="49.12451" lon="-1.28044">
        <ele>49.79202</ele>
        <time>2015-06-04T11:55:26Z</time>
      </trkpt>
      <trkpt lat="49.12452" lon="-1.28044">
        <ele>50.11223</ele>
        <time>2015-06-04T11:55:31Z</time>
      </trkpt>
      <trkpt lat="49.12453" lon="-1.28043">
        <ele>50.11223</ele>
        <time>2015-06-04T11:55:36Z</time>
      </trkpt>
      <trkpt lat="49.12453" lon="-1.28043">
        <ele>50.11223</ele>
        <time>2015-06-04T11:55:41Z</time>
      </trkpt>
      <trkpt lat="49.12451" lon="-1.28044">
        <ele>50.11223</ele>
        <time>2015-06-04T11:55:46Z</time>
      </trkpt>
      <trkpt lat="49.1245" lon="-1.28044">
        <ele>50.11223</ele>
        <time>2015-06-04T11:55:51Z</time>
      </trkpt>
      <trkpt lat="49.1245" lon="-1.28044">
        <ele>50.11223</ele>
        <time>2015-06-04T11:55:56Z</time>
      </trkpt>
      <trkpt lat="49.1245" lon="-1.28043">
        <ele>50.11223</ele>
        <time>2015-06-04T11:56:01Z</time>
      </trkpt>
      <trkpt lat="49.1245" lon="-1.28043">
        <ele>50.11223</ele>
        <time>2015-06-04T11:56:06Z</time>
      </trkpt>
      <trkpt lat="49.12449" lon="-1.28045">
        <ele>50.11223</ele>
        <time>2015-06-04T11:56:11Z</time>
      </trkpt>
      <trkpt lat="49.12449" lon="-1.28045">
        <ele>50.11223</ele>
        <time>2015-06-04T11:56:16Z</time>
      </trkpt>
      <trkpt lat="49.12449" lon="-1.28045">
        <ele>50.11223</ele>
        <time>2015-06-04T11:56:21Z</time>
      </trkpt>
      <trkpt lat="49.12448" lon="-1.28045">
        <ele>50.31975</ele>
        <time>2015-06-04T11:56:26Z</time>
      </trkpt>
      <trkpt lat="49.12447" lon="-1.28045">
        <ele>50.31975</ele>
        <time>2015-06-04T11:56:31Z</time>
      </trkpt>
      <trkpt lat="49.12448" lon="-1.28046">
        <ele>50.31975</ele>
        <time>2015-06-04T11:56:36Z</time>
      </trkpt>
      <trkpt lat="49.12449" lon="-1.28046">
        <ele>50.31975</ele>
        <time>2015-06-04T11:56:41Z</time>
      </trkpt>
      <trkpt lat="49.12449" lon="-1.28043">
        <ele>50.31975</ele>
        <time>2015-06-04T11:56:46Z</time>
      </trkpt>
      <trkpt lat="49.12448" lon="-1.28039">
        <ele>50.31975</ele>
        <time>2015-06-04T11:56:51Z</time>
      </trkpt>
      <trkpt lat="49.12449" lon="-1.28036">
        <ele>50.36268</ele>
        <time>2015-06-04T11:56:56Z</time>
      </trkpt>
      <trkpt lat="49.12448" lon="-1.28039">
        <ele>50.36268</ele>
        <time>2015-06-04T11:57:01Z</time>
      </trkpt>
      <trkpt lat="49.12449" lon="-1.28039">
        <ele>50.36268</ele>
        <time>2015-06-04T11:57:06Z</time>
      </trkpt>
      <trkpt lat="49.12447" lon="-1.28037">
        <ele>50.36268</ele>
        <time>2015-06-04T11:57:11Z</time>
      </trkpt>
      <trkpt lat="49.12445" lon="-1.28036">
        <ele>50.36268</ele>
        <time>2015-06-04T11:57:16Z</time>
      </trkpt>
      <trkpt lat="49.12444" lon="-1.28036">
        <ele>50.36268</ele>
        <time>2015-06-04T11:57:21Z</time>
      </trkpt>
      <trkpt lat="49.12446" lon="-1.28035">
        <ele>50.337547</ele>
        <time>2015-06-04T11:57:26Z</time>
      </trkpt>
      <trkpt lat="49.12446" lon="-1.28033">
        <ele>50.337547</ele>
        <time>2015-06-04T11:57:31Z</time>
      </trkpt>
      <trkpt lat="49.12446" lon="-1.28035">
        <ele>50.337547</ele>
        <time>2015-06-04T11:57:36Z</time>
      </trkpt>
      <trkpt lat="49.12443" lon="-1.28034">
        <ele>50.337547</ele>
        <time>2015-06-04T11:57:41Z</time>
      </trkpt>
      <trkpt lat="49.12443" lon="-1.28034">
        <ele>50.337547</ele>
        <time>2015-06-04T11:57:46Z</time>
      </trkpt>
      <trkpt lat="49.12437" lon="-1.28031">
        <ele>50.27644</ele>
        <time>2015-06-04T11:57:51Z</time>
      </trkpt>
      <trkpt lat="49.12431" lon="-1.2803">
        <ele>50.27644</ele>
        <time>2015-06-04T11:57:56Z</time>
      </trkpt>
      <trkpt lat="49.12426" lon="-1.2803">
        <ele>50.18043</ele>
        <time>2015-06-04T11:58:01Z</time>
      </trkpt>
      <trkpt lat="49.12419" lon="-1.28031">
        <ele>50.18043</ele>
        <time>2015-06-04T11:58:06Z</time>
      </trkpt>
      <trkpt lat="49.12411" lon="-1.28033">
        <ele>50.079525</ele>
        <time>2015-06-04T11:58:11Z</time>
      </trkpt>
      <trkpt lat="49.12406" lon="-1.28033">
        <ele>50.079525</ele>
        <time>2015-06-04T11:58:16Z</time>
      </trkpt>
      <trkpt lat="49.124" lon="-1.28036">
        <ele>50.07365</ele>
        <time>2015-06-04T11:58:21Z</time>
      </trkpt>
      <trkpt lat="49.12394" lon="-1.2804">
        <ele>50.07365</ele>
        <time>2015-06-04T11:58:26Z</time>
      </trkpt>
      <trkpt lat="49.12388" lon="-1.28045">
        <ele>50.22639</ele>
        <time>2015-06-04T11:58:31Z</time>
      </trkpt>
      <trkpt lat="49.12383" lon="-1.28047">
        <ele>50.22639</ele>
        <time>2015-06-04T11:58:36Z</time>
      </trkpt>
      <trkpt lat="49.12376" lon="-1.28048">
        <ele>50.42336</ele>
        <time>2015-06-04T11:58:41Z</time>
      </trkpt>
      <trkpt lat="49.12371" lon="-1.28049">
        <ele>50.42336</ele>
        <time>2015-06-04T11:58:46Z</time>
      </trkpt>
      <trkpt lat="49.12366" lon="-1.28052">
        <ele>50.48645</ele>
        <time>2015-06-04T11:58:51Z</time>
      </trkpt>
      <trkpt lat="49.1236" lon="-1.28056">
        <ele>50.48645</ele>
        <time>2015-06-04T11:58:56Z</time>
      </trkpt>
      <trkpt lat="49.12353" lon="-1.28061">
        <ele>50.467266</ele>
        <time>2015-06-04T11:59:01Z</time>
      </trkpt>
      <trkpt lat="49.12347" lon="-1.28064">
        <ele>50.467266</ele>
        <time>2015-06-04T11:59:06Z</time>
      </trkpt>
      <trkpt lat="49.12339" lon="-1.28069">
        <ele>50.34186</ele>
        <time>2015-06-04T11:59:11Z</time>
      </trkpt>
      <trkpt lat="49.12334" lon="-1.28071">
        <ele>50.34186</ele>
        <time>2015-06-04T11:59:16Z</time>
      </trkpt>
      <trkpt lat="49.12329" lon="-1.28074">
        <ele>50.246944</ele>
        <time>2015-06-04T11:59:21Z</time>
      </trkpt>
      <trkpt lat="49.12321" lon="-1.28078">
        <ele>50.246944</ele>
        <time>2015-06-04T11:59:26Z</time>
      </trkpt>
      <trkpt lat="49.12317" lon="-1.28082">
        <ele>50.165047</ele>
        <time>2015-06-04T11:59:31Z</time>
      </trkpt>
      <trkpt lat="49.12311" lon="-1.28084">
        <ele>50.165047</ele>
        <time>2015-06-04T11:59:36Z</time>
      </trkpt>
      <trkpt lat="49.12306" lon="-1.28087">
        <ele>50.02236</ele>
        <time>2015-06-04T11:59:41Z</time>
      </trkpt>
      <trkpt lat="49.123" lon="-1.28092">
        <ele>50.02236</ele>
        <time>2015-06-04T11:59:46Z</time>
      </trkpt>
      <trkpt lat="49.12293" lon="-1.28093">
        <ele>49.837208</ele>
        <time>2015-06-04T11:59:51Z</time>
      </trkpt>
      <trkpt lat="49.12287" lon="-1.28099">
        <ele>49.837208</ele>
        <time>2015-06-04T11:59:56Z</time>
      </trkpt>
      <trkpt lat="49.12281" lon="-1.28102">
        <ele>49.58351</ele>
        <time>2015-06-04T12:00:01Z</time>
      </trkpt>
      <trkpt lat="49.12277" lon="-1.28105">
        <ele>49.58351</ele>
        <time>2015-06-04T12:00:06Z</time>
      </trkpt>
      <trkpt lat="49.1227" lon="-1.28107">
        <ele>49.251755</ele>
        <time>2015-06-04T12:00:11Z</time>
      </trkpt>
      <trkpt lat="49.12264" lon="-1.28111">
        <ele>49.251755</ele>
        <time>2015-06-04T12:00:16Z</time>
      </trkpt>
      <trkpt lat="49.12256" lon="-1.28116">
        <ele>48.91987</ele>
        <time>2015-06-04T12:00:21Z</time>
      </trkpt>
      <trkpt lat="49.1225" lon="-1.28122">
        <ele>48.91987</ele>
        <time>2015-06-04T12:00:26Z</time>
      </trkpt>
      <trkpt lat="49.12246" lon="-1.28126">
        <ele>48.60246</ele>
        <time>2015-06-04T12:00:31Z</time>
      </trkpt>
      <trkpt lat="49.12241" lon="-1.28133">
        <ele>48.60246</ele>
        <time>2015-06-04T12:00:36Z</time>
      </trkpt>
      <trkpt lat="49.12237" lon="-1.28139">
        <ele>48.24101</ele>
        <time>2015-06-04T12:00:41Z</time>
      </trkpt>
      <trkpt lat="49.12233" lon="-1.28146">
        <ele>48.24101</ele>
        <time>2015-06-04T12:00:46Z</time>
      </trkpt>
      <trkpt lat="49.12229" lon="-1.28155">
        <ele>47.824684</ele>
        <time>2015-06-04T12:00:51Z</time>
      </trkpt>
      <trkpt lat="49.12226" lon="-1.28166">
        <ele>47.824684</ele>
        <time>2015-06-04T12:00:56Z</time>
      </trkpt>
      <trkpt lat="49.12225" lon="-1.28173">
        <ele>47.43012</ele>
        <time>2015-06-04T12:01:01Z</time>
      </trkpt>
      <trkpt lat="49.12222" lon="-1.28184">
        <ele>47.43012</ele>
        <time>2015-06-04T12:01:06Z</time>
      </trkpt>
      <trkpt lat="49.12221" lon="-1.28191">
        <ele>47.11386</ele>
        <time>2015-06-04T12:01:11Z</time>
      </trkpt>
      <trkpt lat="49.12219" lon="-1.28201">
        <ele>47.11386</ele>
        <time>2015-06-04T12:01:16Z</time>
      </trkpt>
      <trkpt lat="49.12217" lon="-1.28209">
        <ele>46.841663</ele>
        <time>2015-06-04T12:01:21Z</time>
      </trkpt>
      <trkpt lat="49.12215" lon="-1.28217">
        <ele>46.841663</ele>
        <time>2015-06-04T12:01:26Z</time>
      </trkpt>
      <trkpt lat="49.12212" lon="-1.28228">
        <ele>46.552853</ele>
        <time>2015-06-04T12:01:31Z</time>
      </trkpt>
      <trkpt lat="49.12212" lon="-1.28239">
        <ele>46.552853</ele>
        <time>2015-06-04T12:01:36Z</time>
      </trkpt>
      <trkpt lat="49.12213" lon="-1.28249">
        <ele>46.37864</ele>
        <time>2015-06-04T12:01:41Z</time>
      </trkpt>
      <trkpt lat="49.1221" lon="-1.2826">
        <ele>46.37864</ele>
        <time>2015-06-04T12:01:46Z</time>
      </trkpt>
      <trkpt lat="49.12209" lon="-1.28269">
        <ele>46.325</ele>
        <time>2015-06-04T12:01:51Z</time>
      </trkpt>
      <trkpt lat="49.12207" lon="-1.28278">
        <ele>46.325</ele>
        <time>2015-06-04T12:01:56Z</time>
      </trkpt>
      <trkpt lat="49.12206" lon="-1.28288">
        <ele>46.382748</ele>
        <time>2015-06-04T12:02:01Z</time>
      </trkpt>
      <trkpt lat="49.12205" lon="-1.28298">
        <ele>46.382748</ele>
        <time>2015-06-04T12:02:06Z</time>
      </trkpt>
      <trkpt lat="49.12203" lon="-1.28307">
        <ele>46.51424</ele>
        <time>2015-06-04T12:02:11Z</time>
      </trkpt>
      <trkpt lat="49.122" lon="-1.28313">
        <ele>46.51424</ele>
        <time>2015-06-04T12:02:16Z</time>
      </trkpt>
      <trkpt lat="49.12198" lon="-1.28325">
        <ele>46.597958</ele>
        <time>2015-06-04T12:02:21Z</time>
      </trkpt>
      <trkpt lat="49.12198" lon="-1.28333">
        <ele>46.597958</ele>
        <time>2015-06-04T12:02:26Z</time>
      </trkpt>
      <trkpt lat="49.12196" lon="-1.28344">
        <ele>46.679977</ele>
        <time>2015-06-04T12:02:31Z</time>
      </trkpt>
      <trkpt lat="49.12194" lon="-1.28352">
        <ele>46.679977</ele>
        <time>2015-06-04T12:02:36Z</time>
      </trkpt>
      <trkpt lat="49.12193" lon="-1.28361">
        <ele>46.730957</ele>
        <time>2015-06-04T12:02:41Z</time>
      </trkpt>
      <trkpt lat="49.12191" lon="-1.28372">
        <ele>46.730957</ele>
        <time>2015-06-04T12:02:46Z</time>
      </trkpt>
      <trkpt lat="49.12189" lon="-1.28384">
        <ele>46.85352</ele>
        <time>2015-06-04T12:02:51Z</time>
      </trkpt>
      <trkpt lat="49.12188" lon="-1.28393">
        <ele>46.85352</ele>
        <time>2015-06-04T12:02:56Z</time>
      </trkpt>
      <trkpt lat="49.12187" lon="-1.28402">
        <ele>46.96964</ele>
        <time>2015-06-04T12:03:01Z</time>
      </trkpt>
      <trkpt lat="49.12186" lon="-1.2841">
        <ele>46.96964</ele>
        <time>2015-06-04T12:03:06Z</time>
      </trkpt>
      <trkpt lat="49.12185" lon="-1.28424">
        <ele>47.07911</ele>
        <time>2015-06-04T12:03:11Z</time>
      </trkpt>
      <trkpt lat="49.12184" lon="-1.28433">
        <ele>47.07911</ele>
        <time>2015-06-04T12:03:16Z</time>
      </trkpt>
      <trkpt lat="49.12183" lon="-1.28445">
        <ele>47.253838</ele>
        <time>2015-06-04T12:03:21Z</time>
      </trkpt>
      <trkpt lat="49.12182" lon="-1.28452">
        <ele>47.253838</ele>
        <time>2015-06-04T12:03:26Z</time>
      </trkpt>
      <trkpt lat="49.1218" lon="-1.2846">
        <ele>47.459415</ele>
        <time>2015-06-04T12:03:31Z</time>
      </trkpt>
      <trkpt lat="49.12177" lon="-1.28469">
        <ele>47.459415</ele>
        <time>2015-06-04T12:03:36Z</time>
      </trkpt>
      <trkpt lat="49.12174" lon="-1.28479">
        <ele>47.678295</ele>
        <time>2015-06-04T12:03:41Z</time>
      </trkpt>
      <trkpt lat="49.12171" lon="-1.28488">
        <ele>47.678295</ele>
        <time>2015-06-04T12:03:46Z</time>
      </trkpt>
      <trkpt lat="49.12167" lon="-1.28497">
        <ele>47.879807</ele>
        <time>2015-06-04T12:03:51Z</time>
      </trkpt>
      <trkpt lat="49.12163" lon="-1.28504">
        <ele>47.879807</ele>
        <time>2015-06-04T12:03:56Z</time>
      </trkpt>
      <trkpt lat="49.12158" lon="-1.28513">
        <ele>48.064415</ele>
        <time>2015-06-04T12:04:01Z</time>
      </trkpt>
      <trkpt lat="49.12155" lon="-1.28519">
        <ele>48.064415</ele>
        <time>2015-06-04T12:04:06Z</time>
      </trkpt>
      <trkpt lat="49.12149" lon="-1.28529">
        <ele>48.23264</ele>
        <time>2015-06-04T12:04:11Z</time>
      </trkpt>
      <trkpt lat="49.12146" lon="-1.28533">
        <ele>48.23264</ele>
        <time>2015-06-04T12:04:16Z</time>
      </trkpt>
      <trkpt lat="49.1214" lon="-1.2854">
        <ele>48.399426</ele>
        <time>2015-06-04T12:04:21Z</time>
      </trkpt>
      <trkpt lat="49.12137" lon="-1.28546">
        <ele>48.399426</ele>
        <time>2015-06-04T12:04:26Z</time>
      </trkpt>
      <trkpt lat="49.12133" lon="-1.28552">
        <ele>48.59307</ele>
        <time>2015-06-04T12:04:31Z</time>
      </trkpt>
      <trkpt lat="49.12128" lon="-1.28559">
        <ele>48.59307</ele>
        <time>2015-06-04T12:04:36Z</time>
      </trkpt>
      <trkpt lat="49.12123" lon="-1.28565">
        <ele>48.83975</ele>
        <time>2015-06-04T12:04:41Z</time>
      </trkpt>
      <trkpt lat="49.12119" lon="-1.28571">
        <ele>48.83975</ele>
        <time>2015-06-04T12:04:46Z</time>
      </trkpt>
      <trkpt lat="49.12115" lon="-1.28577">
        <ele>49.120335</ele>
        <time>2015-06-04T12:04:51Z</time>
      </trkpt>
      <trkpt lat="49.1211" lon="-1.28585">
        <ele>49.120335</ele>
        <time>2015-06-04T12:04:56Z</time>
      </trkpt>
      <trkpt lat="49.12106" lon="-1.28592">
        <ele>49.41706</ele>
        <time>2015-06-04T12:05:01Z</time>
      </trkpt>
      <trkpt lat="49.12102" lon="-1.28599">
        <ele>49.41706</ele>
        <time>2015-06-04T12:05:06Z</time>
      </trkpt>
      <trkpt lat="49.12098" lon="-1.28604">
        <ele>49.713436</ele>
        <time>2015-06-04T12:05:11Z</time>
      </trkpt>
      <trkpt lat="49.12094" lon="-1.2861">
        <ele>49.713436</ele>
        <time>2015-06-04T12:05:16Z</time>
      </trkpt>
      <trkpt lat="49.1209" lon="-1.28618">
        <ele>50.008617</ele>
        <time>2015-06-04T12:05:21Z</time>
      </trkpt>
      <trkpt lat="49.12086" lon="-1.28624">
        <ele>50.008617</ele>
        <time>2015-06-04T12:05:26Z</time>
      </trkpt>
      <trkpt lat="49.12083" lon="-1.28631">
        <ele>50.330685</ele>
        <time>2015-06-04T12:05:31Z</time>
      </trkpt>
      <trkpt lat="49.12078" lon="-1.28638">
        <ele>50.330685</ele>
        <time>2015-06-04T12:05:36Z</time>
      </trkpt>
      <trkpt lat="49.12074" lon="-1.28644">
        <ele>50.61913</ele>
        <time>2015-06-04T12:05:41Z</time>
      </trkpt>
      <trkpt lat="49.12069" lon="-1.28648">
        <ele>50.61913</ele>
        <time>2015-06-04T12:05:46Z</time>
      </trkpt>
      <trkpt lat="49.12066" lon="-1.2865">
        <ele>50.861256</ele>
        <time>2015-06-04T12:05:51Z</time>
      </trkpt>
      <trkpt lat="49.12062" lon="-1.2865">
        <ele>50.861256</ele>
        <time>2015-06-04T12:05:56Z</time>
      </trkpt>
      <trkpt lat="49.12059" lon="-1.28649">
        <ele>50.861256</ele>
        <time>2015-06-04T12:06:01Z</time>
      </trkpt>
      <trkpt lat="49.12059" lon="-1.28649">
        <ele>50.861256</ele>
        <time>2015-06-04T12:06:06Z</time>
      </trkpt>
      <trkpt lat="49.12059" lon="-1.28649">
        <ele>50.861256</ele>
        <time>2015-06-04T12:06:11Z</time>
      </trkpt>
      <trkpt lat="49.12061" lon="-1.28647">
        <ele>50.861256</ele>
        <time>2015-06-04T12:06:16Z</time>
      </trkpt>
      <trkpt lat="49.12062" lon="-1.28646">
        <ele>51.131924</ele>
        <time>2015-06-04T12:06:21Z</time>
      </trkpt>
      <trkpt lat="49.12061" lon="-1.28647">
        <ele>51.131924</ele>
        <time>2015-06-04T12:06:26Z</time>
      </trkpt>
      <trkpt lat="49.12059" lon="-1.2865">
        <ele>51.131924</ele>
        <time>2015-06-04T12:06:31Z</time>
      </trkpt>
      <trkpt lat="49.12053" lon="-1.28651">
        <ele>51.413967</ele>
        <time>2015-06-04T12:06:36Z</time>
      </trkpt>
      <trkpt lat="49.1205" lon="-1.28649">
        <ele>51.413967</ele>
        <time>2015-06-04T12:06:41Z</time>
      </trkpt>
      <trkpt lat="49.12051" lon="-1.28647">
        <ele>51.413967</ele>
        <time>2015-06-04T12:06:46Z</time>
      </trkpt>
      <trkpt lat="49.12052" lon="-1.28646">
        <ele>51.413967</ele>
        <time>2015-06-04T12:06:51Z</time>
      </trkpt>
      <trkpt lat="49.12052" lon="-1.28645">
        <ele>51.413967</ele>
        <time>2015-06-04T12:06:56Z</time>
      </trkpt>
      <trkpt lat="49.12053" lon="-1.28645">
        <ele>51.413967</ele>
        <time>2015-06-04T12:07:01Z</time>
      </trkpt>
      <trkpt lat="49.12053" lon="-1.28645">
        <ele>51.413967</ele>
        <time>2015-06-04T12:07:06Z</time>
      </trkpt>
      <trkpt lat="49.12053" lon="-1.28645">
        <ele>51.413967</ele>
        <time>2015-06-04T12:07:11Z</time>
      </trkpt>
      <trkpt lat="49.12052" lon="-1.28645">
        <ele>51.413967</ele>
        <time>2015-06-04T12:07:16Z</time>
      </trkpt>
      <trkpt lat="49.1205" lon="-1.28644">
        <ele>51.777954</ele>
        <time>2015-06-04T12:07:21Z</time>
      </trkpt>
      <trkpt lat="49.12046" lon="-1.28643">
        <ele>51.777954</ele>
        <time>2015-06-04T12:07:26Z</time>
      </trkpt>
      <trkpt lat="49.12041" lon="-1.2864">
        <ele>51.914368</ele>
        <time>2015-06-04T12:07:31Z</time>
      </trkpt>
      <trkpt lat="49.12037" lon="-1.28635">
        <ele>51.914368</ele>
        <time>2015-06-04T12:07:36Z</time>
      </trkpt>
      <trkpt lat="49.12034" lon="-1.28631">
        <ele>51.914368</ele>
        <time>2015-06-04T12:07:41Z</time>
      </trkpt>
      <trkpt lat="49.1203" lon="-1.28627">
        <ele>52.21443</ele>
        <time>2015-06-04T12:07:46Z</time>
      </trkpt>
      <trkpt lat="49.12023" lon="-1.28624">
        <ele>52.21443</ele>
        <time>2015-06-04T12:07:51Z</time>
      </trkpt>
      <trkpt lat="49.1202" lon="-1.28621">
        <ele>52.88166</ele>
        <time>2015-06-04T12:07:56Z</time>
      </trkpt>
      <trkpt lat="49.12017" lon="-1.28618">
        <ele>52.88166</ele>
        <time>2015-06-04T12:08:01Z</time>
      </trkpt>
      <trkpt lat="49.12016" lon="-1.28616">
        <ele>52.88166</ele>
        <time>2015-06-04T12:08:06Z</time>
      </trkpt>
      <trkpt lat="49.12015" lon="-1.28612">
        <ele>52.88166</ele>
        <time>2015-06-04T12:08:11Z</time>
      </trkpt>
      <trkpt lat="49.12012" lon="-1.28607">
        <ele>53.88746</ele>
        <time>2015-06-04T12:08:16Z</time>
      </trkpt>
      <trkpt lat="49.12008" lon="-1.286">
        <ele>53.88746</ele>
        <time>2015-06-04T12:08:21Z</time>
      </trkpt>
      <trkpt lat="49.12005" lon="-1.28593">
        <ele>54.930607</ele>
        <time>2015-06-04T12:08:26Z</time>
      </trkpt>
      <trkpt lat="49.12002" lon="-1.28588">
        <ele>54.930607</ele>
        <time>2015-06-04T12:08:31Z</time>
      </trkpt>
      <trkpt lat="49.11999" lon="-1.28582">
        <ele>56.0778</ele>
        <time>2015-06-04T12:08:36Z</time>
      </trkpt>
      <trkpt lat="49.11997" lon="-1.28576">
        <ele>56.0778</ele>
        <time>2015-06-04T12:08:41Z</time>
      </trkpt>
      <trkpt lat="49.11995" lon="-1.28569">
        <ele>57.260895</ele>
        <time>2015-06-04T12:08:46Z</time>
      </trkpt>
      <trkpt lat="49.11993" lon="-1.28562">
        <ele>57.260895</ele>
        <time>2015-06-04T12:08:51Z</time>
      </trkpt>
      <trkpt lat="49.11988" lon="-1.28556">
        <ele>58.531975</ele>
        <time>2015-06-04T12:08:56Z</time>
      </trkpt>
      <trkpt lat="49.11984" lon="-1.28555">
        <ele>58.531975</ele>
        <time>2015-06-04T12:09:01Z</time>
      </trkpt>
      <trkpt lat="49.11977" lon="-1.28553">
        <ele>59.852646</ele>
        <time>2015-06-04T12:09:06Z</time>
      </trkpt>
      <trkpt lat="49.11973" lon="-1.28551">
        <ele>59.852646</ele>
        <time>2015-06-04T12:09:11Z</time>
      </trkpt>
      <trkpt lat="49.11971" lon="-1.28551">
        <ele>59.852646</ele>
        <time>2015-06-04T12:09:16Z</time>
      </trkpt>
      <trkpt lat="49.11968" lon="-1.28549">
        <ele>59.852646</ele>
        <time>2015-06-04T12:09:21Z</time>
      </trkpt>
      <trkpt lat="49.11963" lon="-1.28545">
        <ele>61.28812</ele>
        <time>2015-06-04T12:09:26Z</time>
      </trkpt>
      <trkpt lat="49.11959" lon="-1.28546">
        <ele>61.28812</ele>
        <time>2015-06-04T12:09:31Z</time>
      </trkpt>
      <trkpt lat="49.11956" lon="-1.28544">
        <ele>61.28812</ele>
        <time>2015-06-04T12:09:36Z</time>
      </trkpt>
      <trkpt lat="49.11951" lon="-1.28543">
        <ele>62.78328</ele>
        <time>2015-06-04T12:09:41Z</time>
      </trkpt>
      <trkpt lat="49.11945" lon="-1.28542">
        <ele>62.78328</ele>
        <time>2015-06-04T12:09:46Z</time>
      </trkpt>
      <trkpt lat="49.11942" lon="-1.28542">
        <ele>64.30136</ele>
        <time>2015-06-04T12:09:51Z</time>
      </trkpt>
      <trkpt lat="49.11937" lon="-1.2854">
        <ele>64.30136</ele>
        <time>2015-06-04T12:09:56Z</time>
      </trkpt>
      <trkpt lat="49.11932" lon="-1.28538">
        <ele>65.75067</ele>
        <time>2015-06-04T12:10:01Z</time>
      </trkpt>
      <trkpt lat="49.11928" lon="-1.28536">
        <ele>65.75067</ele>
        <time>2015-06-04T12:10:06Z</time>
      </trkpt>
      <trkpt lat="49.11924" lon="-1.28534">
        <ele>65.75067</ele>
        <time>2015-06-04T12:10:11Z</time>
      </trkpt>
      <trkpt lat="49.11917" lon="-1.28534">
        <ele>67.2771</ele>
        <time>2015-06-04T12:10:16Z</time>
      </trkpt>
      <trkpt lat="49.11913" lon="-1.28531">
        <ele>67.2771</ele>
        <time>2015-06-04T12:10:21Z</time>
      </trkpt>
      <trkpt lat="49.1191" lon="-1.2853">
        <ele>67.2771</ele>
        <time>2015-06-04T12:10:26Z</time>
      </trkpt>
      <trkpt lat="49.11904" lon="-1.28529">
        <ele>68.9148</ele>
        <time>2015-06-04T12:10:31Z</time>
      </trkpt>
      <trkpt lat="49.11901" lon="-1.28529">
        <ele>68.9148</ele>
        <time>2015-06-04T12:10:36Z</time>
      </trkpt>
      <trkpt lat="49.11895" lon="-1.2853">
        <ele>70.53668</ele>
        <time>2015-06-04T12:10:41Z</time>
      </trkpt>
      <trkpt lat="49.11891" lon="-1.28532">
        <ele>70.53668</ele>
        <time>2015-06-04T12:10:46Z</time>
      </trkpt>
      <trkpt lat="49.11887" lon="-1.28529">
        <ele>70.53668</ele>
        <time>2015-06-04T12:10:51Z</time>
      </trkpt>
      <trkpt lat="49.11886" lon="-1.28526">
        <ele>72.342155</ele>
        <time>2015-06-04T12:10:56Z</time>
      </trkpt>
      <trkpt lat="49.11885" lon="-1.28525">
        <ele>72.342155</ele>
        <time>2015-06-04T12:11:01Z</time>
      </trkpt>
      <trkpt lat="49.11884" lon="-1.28527">
        <ele>72.342155</ele>
        <time>2015-06-04T12:11:06Z</time>
      </trkpt>
      <trkpt lat="49.11884" lon="-1.2853">
        <ele>72.342155</ele>
        <time>2015-06-04T12:11:11Z</time>
      </trkpt>
      <trkpt lat="49.11884" lon="-1.28525">
        <ele>72.342155</ele>
        <time>2015-06-04T12:11:16Z</time>
      </trkpt>
      <trkpt lat="49.11884" lon="-1.28517">
        <ele>74.1553</ele>
        <time>2015-06-04T12:11:21Z</time>
      </trkpt>
      <trkpt lat="49.11884" lon="-1.2851">
        <ele>74.1553</ele>
        <time>2015-06-04T12:11:26Z</time>
      </trkpt>
      <trkpt lat="49.11885" lon="-1.285">
        <ele>75.76995</ele>
        <time>2015-06-04T12:11:31Z</time>
      </trkpt>
      <trkpt lat="49.11884" lon="-1.28493">
        <ele>75.76995</ele>
        <time>2015-06-04T12:11:36Z</time>
      </trkpt>
      <trkpt lat="49.11883" lon="-1.28486">
        <ele>77.240746</ele>
        <time>2015-06-04T12:11:41Z</time>
      </trkpt>
      <trkpt lat="49.11882" lon="-1.2848">
        <ele>77.240746</ele>
        <time>2015-06-04T12:11:46Z</time>
      </trkpt>
      <trkpt lat="49.11881" lon="-1.28477">
        <ele>77.240746</ele>
        <time>2015-06-04T12:11:51Z</time>
      </trkpt>
      <trkpt lat="49.1188" lon="-1.28469">
        <ele>78.6188</ele>
        <time>2015-06-04T12:11:56Z</time>
      </trkpt>
      <trkpt lat="49.11878" lon="-1.28461">
        <ele>78.6188</ele>
        <time>2015-06-04T12:12:01Z</time>
      </trkpt>
      <trkpt lat="49.11876" lon="-1.28453">
        <ele>79.793335</ele>
        <time>2015-06-04T12:12:06Z</time>
      </trkpt>
      <trkpt lat="49.11875" lon="-1.28445">
        <ele>79.793335</ele>
        <time>2015-06-04T12:12:11Z</time>
      </trkpt>
      <trkpt lat="49.11872" lon="-1.28437">
        <ele>80.763245</ele>
        <time>2015-06-04T12:12:16Z</time>
      </trkpt>
      <trkpt lat="49.1187" lon="-1.2843">
        <ele>80.763245</ele>
        <time>2015-06-04T12:12:21Z</time>
      </trkpt>
      <trkpt lat="49.11869" lon="-1.28422">
        <ele>81.427315</ele>
        <time>2015-06-04T12:12:26Z</time>
      </trkpt>
      <trkpt lat="49.11867" lon="-1.28415">
        <ele>81.427315</ele>
        <time>2015-06-04T12:12:31Z</time>
      </trkpt>
      <trkpt lat="49.11865" lon="-1.28409">
        <ele>81.85122</ele>
        <time>2015-06-04T12:12:36Z</time>
      </trkpt>
      <trkpt lat="49.11863" lon="-1.28402">
        <ele>81.85122</ele>
        <time>2015-06-04T12:12:41Z</time>
      </trkpt>
      <trkpt lat="49.11861" lon="-1.28394">
        <ele>82.06777</ele>
        <time>2015-06-04T12:12:46Z</time>
      </trkpt>
      <trkpt lat="49.11858" lon="-1.28385">
        <ele>82.06777</ele>
        <time>2015-06-04T12:12:51Z</time>
      </trkpt>
      <trkpt lat="49.11852" lon="-1.28374">
        <ele>82.25214</ele>
        <time>2015-06-04T12:12:56Z</time>
      </trkpt>
      <trkpt lat="49.11848" lon="-1.28369">
        <ele>82.25214</ele>
        <time>2015-06-04T12:13:01Z</time>
      </trkpt>
      <trkpt lat="49.11844" lon="-1.28367">
        <ele>82.53793</ele>
        <time>2015-06-04T12:13:06Z</time>
      </trkpt>
      <trkpt lat="49.1184" lon="-1.28363">
        <ele>82.53793</ele>
        <time>2015-06-04T12:13:11Z</time>
      </trkpt>
      <trkpt lat="49.11836" lon="-1.28358">
        <ele>82.53793</ele>
        <time>2015-06-04T12:13:16Z</time>
      </trkpt>
      <trkpt lat="49.11832" lon="-1.28356">
        <ele>83.03436</ele>
        <time>2015-06-04T12:13:21Z</time>
      </trkpt>
      <trkpt lat="49.11827" lon="-1.28354">
        <ele>83.03436</ele>
        <time>2015-06-04T12:13:26Z</time>
      </trkpt>
      <trkpt lat="49.1182" lon="-1.28347">
        <ele>83.6691</ele>
        <time>2015-06-04T12:13:31Z</time>
      </trkpt>
      <trkpt lat="49.11814" lon="-1.28346">
        <ele>83.6691</ele>
        <time>2015-06-04T12:13:36Z</time>
      </trkpt>
      <trkpt lat="49.11809" lon="-1.28343">
        <ele>84.33158</ele>
        <time>2015-06-04T12:13:41Z</time>
      </trkpt>
      <trkpt lat="49.11804" lon="-1.28339">
        <ele>84.33158</ele>
        <time>2015-06-04T12:13:46Z</time>
      </trkpt>
      <trkpt lat="49.11798" lon="-1.28337">
        <ele>85.005775</ele>
        <time>2015-06-04T12:13:51Z</time>
      </trkpt>
      <trkpt lat="49.11795" lon="-1.28336">
        <ele>85.005775</ele>
        <time>2015-06-04T12:13:56Z</time>
      </trkpt>
      <trkpt lat="49.11789" lon="-1.28332">
        <ele>85.7489</ele>
        <time>2015-06-04T12:14:01Z</time>
      </trkpt>
      <trkpt lat="49.11784" lon="-1.28329">
        <ele>85.7489</ele>
        <time>2015-06-04T12:14:06Z</time>
      </trkpt>
      <trkpt lat="49.11779" lon="-1.28325">
        <ele>86.541756</ele>
        <time>2015-06-04T12:14:11Z</time>
      </trkpt>
      <trkpt lat="49.11776" lon="-1.28323">
        <ele>86.541756</ele>
        <time>2015-06-04T12:14:16Z</time>
      </trkpt>
      <trkpt lat="49.11772" lon="-1.28319">
        <ele>86.541756</ele>
        <time>2015-06-04T12:14:21Z</time>
      </trkpt>
      <trkpt lat="49.11768" lon="-1.28313">
        <ele>87.22231</ele>
        <time>2015-06-04T12:14:26Z</time>
      </trkpt>
      <trkpt lat="49.11765" lon="-1.28309">
        <ele>87.22231</ele>
        <time>2015-06-04T12:14:31Z</time>
      </trkpt>
      <trkpt lat="49.11762" lon="-1.28309">
        <ele>87.22231</ele>
        <time>2015-06-04T12:14:36Z</time>
      </trkpt>
      <trkpt lat="49.11758" lon="-1.28308">
        <ele>87.741684</ele>
        <time>2015-06-04T12:14:41Z</time>
      </trkpt>
      <trkpt lat="49.11753" lon="-1.28308">
        <ele>87.741684</ele>
        <time>2015-06-04T12:14:46Z</time>
      </trkpt>
      <trkpt lat="49.11752" lon="-1.28308">
        <ele>87.741684</ele>
        <time>2015-06-04T12:14:51Z</time>
      </trkpt>
      <trkpt lat="49.11752" lon="-1.28307">
        <ele>87.741684</ele>
        <time>2015-06-04T12:14:56Z</time>
      </trkpt>
      <trkpt lat="49.1175" lon="-1.28306">
        <ele>87.741684</ele>
        <time>2015-06-04T12:15:01Z</time>
      </trkpt>
      <trkpt lat="49.11747" lon="-1.28307">
        <ele>88.41531</ele>
        <time>2015-06-04T12:15:06Z</time>
      </trkpt>
      <trkpt lat="49.11743" lon="-1.28305">
        <ele>88.41531</ele>
        <time>2015-06-04T12:15:11Z</time>
      </trkpt>
      <trkpt lat="49.1174" lon="-1.28303">
        <ele>88.41531</ele>
        <time>2015-06-04T12:15:16Z</time>
      </trkpt>
      <trkpt lat="49.11736" lon="-1.28298">
        <ele>89.01625</ele>
        <time>2015-06-04T12:15:21Z</time>
      </trkpt>
      <trkpt lat="49.11731" lon="-1.28295">
        <ele>89.01625</ele>
        <time>2015-06-04T12:15:26Z</time>
      </trkpt>
      <trkpt lat="49.11728" lon="-1.28295">
        <ele>89.52179</ele>
        <time>2015-06-04T12:15:31Z</time>
      </trkpt>
      <trkpt lat="49.11723" lon="-1.28296">
        <ele>89.52179</ele>
        <time>2015-06-04T12:15:36Z</time>
      </trkpt>
      <trkpt lat="49.11719" lon="-1.28294">
        <ele>89.52179</ele>
        <time>2015-06-04T12:15:41Z</time>
      </trkpt>
      <trkpt lat="49.11716" lon="-1.28294">
        <ele>89.76707</ele>
        <time>2015-06-04T12:15:46Z</time>
      </trkpt>
      <trkpt lat="49.11713" lon="-1.28295">
        <ele>89.76707</ele>
        <time>2015-06-04T12:15:51Z</time>
      </trkpt>
      <trkpt lat="49.11711" lon="-1.28299">
        <ele>89.76707</ele>
        <time>2015-06-04T12:15:56Z</time>
      </trkpt>
      <trkpt lat="49.11706" lon="-1.283">
        <ele>90.04679</ele>
        <time>2015-06-04T12:16:01Z</time>
      </trkpt>
      <trkpt lat="49.11703" lon="-1.28299">
        <ele>90.04679</ele>
        <time>2015-06-04T12:16:06Z</time>
      </trkpt>
      <trkpt lat="49.11702" lon="-1.28296">
        <ele>90.04679</ele>
        <time>2015-06-04T12:16:11Z</time>
      </trkpt>
      <trkpt lat="49.117" lon="-1.28294">
        <ele>90.04679</ele>
        <time>2015-06-04T12:16:16Z</time>
      </trkpt>
      <trkpt lat="49.11695" lon="-1.28294">
        <ele>90.04309</ele>
        <time>2015-06-04T12:16:21Z</time>
      </trkpt>
      <trkpt lat="49.11692" lon="-1.28293">
        <ele>90.04309</ele>
        <time>2015-06-04T12:16:26Z</time>
      </trkpt>
      <trkpt lat="49.11688" lon="-1.28293">
        <ele>90.04309</ele>
        <time>2015-06-04T12:16:31Z</time>
      </trkpt>
      <trkpt lat="49.11682" lon="-1.28291">
        <ele>89.937775</ele>
        <time>2015-06-04T12:16:36Z</time>
      </trkpt>
      <trkpt lat="49.11678" lon="-1.28291">
        <ele>89.937775</ele>
        <time>2015-06-04T12:16:41Z</time>
      </trkpt>
      <trkpt lat="49.11676" lon="-1.2829">
        <ele>89.937775</ele>
        <time>2015-06-04T12:16:46Z</time>
      </trkpt>
      <trkpt lat="49.11677" lon="-1.28289">
        <ele>89.937775</ele>
        <time>2015-06-04T12:16:51Z</time>
      </trkpt>
      <trkpt lat="49.11676" lon="-1.2829">
        <ele>89.937775</ele>
        <time>2015-06-04T12:16:56Z</time>
      </trkpt>
      <trkpt lat="49.11673" lon="-1.28291">
        <ele>89.98606</ele>
        <time>2015-06-04T12:17:01Z</time>
      </trkpt>
      <trkpt lat="49.11671" lon="-1.28292">
        <ele>89.98606</ele>
        <time>2015-06-04T12:17:06Z</time>
      </trkpt>
      <trkpt lat="49.11672" lon="-1.28292">
        <ele>89.98606</ele>
        <time>2015-06-04T12:17:11Z</time>
      </trkpt>
      <trkpt lat="49.11672" lon="-1.28293">
        <ele>89.98606</ele>
        <time>2015-06-04T12:17:16Z</time>
      </trkpt>
      <trkpt lat="49.11671" lon="-1.28294">
        <ele>89.98606</ele>
        <time>2015-06-04T12:17:21Z</time>
      </trkpt>
      <trkpt lat="49.11671" lon="-1.28294">
        <ele>89.98606</ele>
        <time>2015-06-04T12:17:26Z</time>
      </trkpt>
      <trkpt lat="49.11671" lon="-1.28295">
        <ele>89.98606</ele>
        <time>2015-06-04T12:17:31Z</time>
      </trkpt>
      <trkpt lat="49.11668" lon="-1.28296">
        <ele>89.98606</ele>
        <time>2015-06-04T12:17:36Z</time>
      </trkpt>
      <trkpt lat="49.11667" lon="-1.28294">
        <ele>89.60253</ele>
        <time>2015-06-04T12:17:41Z</time>
      </trkpt>
      <trkpt lat="49.11666" lon="-1.28292">
        <ele>89.60253</ele>
        <time>2015-06-04T12:17:46Z</time>
      </trkpt>
      <trkpt lat="49.11662" lon="-1.28288">
        <ele>89.60253</ele>
        <time>2015-06-04T12:17:51Z</time>
      </trkpt>
      <trkpt lat="49.11662" lon="-1.28287">
        <ele>89.60253</ele>
        <time>2015-06-04T12:17:56Z</time>
      </trkpt>
      <trkpt lat="49.11661" lon="-1.28286">
        <ele>89.60253</ele>
        <time>2015-06-04T12:18:01Z</time>
      </trkpt>
      <trkpt lat="49.1166" lon="-1.28282">
        <ele>89.19708</ele>
        <time>2015-06-04T12:18:06Z</time>
      </trkpt>
      <trkpt lat="49.11658" lon="-1.28278">
        <ele>89.19708</ele>
        <time>2015-06-04T12:18:11Z</time>
      </trkpt>
      <trkpt lat="49.11658" lon="-1.28275">
        <ele>89.19708</ele>
        <time>2015-06-04T12:18:16Z</time>
      </trkpt>
      <trkpt lat="49.11659" lon="-1.2827">
        <ele>89.19708</ele>
        <time>2015-06-04T12:18:21Z</time>
      </trkpt>
      <trkpt lat="49.11658" lon="-1.28264">
        <ele>88.659546</ele>
        <time>2015-06-04T12:18:26Z</time>
      </trkpt>
      <trkpt lat="49.11659" lon="-1.28258">
        <ele>88.659546</ele>
        <time>2015-06-04T12:18:31Z</time>
      </trkpt>
      <trkpt lat="49.11658" lon="-1.28253">
        <ele>88.659546</ele>
        <time>2015-06-04T12:18:36Z</time>
      </trkpt>
      <trkpt lat="49.11658" lon="-1.28251">
        <ele>88.659546</ele>
        <time>2015-06-04T12:18:41Z</time>
      </trkpt>
      <trkpt lat="49.11657" lon="-1.28245">
        <ele>88.08996</ele>
        <time>2015-06-04T12:18:46Z</time>
      </trkpt>
      <trkpt lat="49.11657" lon="-1.28238">
        <ele>88.08996</ele>
        <time>2015-06-04T12:18:51Z</time>
      </trkpt>
      <trkpt lat="49.11658" lon="-1.28232">
        <ele>88.08996</ele>
        <time>2015-06-04T12:18:56Z</time>
      </trkpt>
      <trkpt lat="49.11657" lon="-1.28224">
        <ele>87.177505</ele>
        <time>2015-06-04T12:19:01Z</time>
      </trkpt>
      <trkpt lat="49.11657" lon="-1.28218">
        <ele>87.177505</ele>
        <time>2015-06-04T12:19:06Z</time>
      </trkpt>
      <trkpt lat="49.11658" lon="-1.28213">
        <ele>87.177505</ele>
        <time>2015-06-04T12:19:11Z</time>
      </trkpt>
      <trkpt lat="49.11659" lon="-1.28208">
        <ele>85.95217</ele>
        <time>2015-06-04T12:19:16Z</time>
      </trkpt>
      <trkpt lat="49.11659" lon="-1.28204">
        <ele>85.95217</ele>
        <time>2015-06-04T12:19:21Z</time>
      </trkpt>
      <trkpt lat="49.11659" lon="-1.28201">
        <ele>85.95217</ele>
        <time>2015-06-04T12:19:26Z</time>
      </trkpt>
      <trkpt lat="49.11661" lon="-1.2819">
        <ele>84.31283</ele>
        <time>2015-06-04T12:19:31Z</time>
      </trkpt>
      <trkpt lat="49.11662" lon="-1.28183">
        <ele>84.31283</ele>
        <time>2015-06-04T12:19:36Z</time>
      </trkpt>
      <trkpt lat="49.11664" lon="-1.28175">
        <ele>82.39745</ele>
        <time>2015-06-04T12:19:41Z</time>
      </trkpt>
      <trkpt lat="49.11665" lon="-1.28168">
        <ele>82.39745</ele>
        <time>2015-06-04T12:19:46Z</time>
      </trkpt>
      <trkpt lat="49.11666" lon="-1.28162">
        <ele>82.39745</ele>
        <time>2015-06-04T12:19:51Z</time>
      </trkpt>
      <trkpt lat="49.11668" lon="-1.28152">
        <ele>80.04634</ele>
        <time>2015-06-04T12:19:56Z</time>
      </trkpt>
      <trkpt lat="49.11665" lon="-1.28141">
        <ele>80.04634</ele>
        <time>2015-06-04T12:20:01Z</time>
      </trkpt>
      <trkpt lat="49.11664" lon="-1.28134">
        <ele>77.70347</ele>
        <time>2015-06-04T12:20:06Z</time>
      </trkpt>
      <trkpt lat="49.11662" lon="-1.28125">
        <ele>77.70347</ele>
        <time>2015-06-04T12:20:11Z</time>
      </trkpt>
      <trkpt lat="49.1166" lon="-1.28117">
        <ele>75.621544</ele>
        <time>2015-06-04T12:20:16Z</time>
      </trkpt>
      <trkpt lat="49.11659" lon="-1.2811">
        <ele>75.621544</ele>
        <time>2015-06-04T12:20:21Z</time>
      </trkpt>
      <trkpt lat="49.11657" lon="-1.28103">
        <ele>73.81767</ele>
        <time>2015-06-04T12:20:26Z</time>
      </trkpt>
      <trkpt lat="49.11654" lon="-1.28097">
        <ele>73.81767</ele>
        <time>2015-06-04T12:20:31Z</time>
      </trkpt>
      <trkpt lat="49.11652" lon="-1.2809">
        <ele>72.24913</ele>
        <time>2015-06-04T12:20:36Z</time>
      </trkpt>
      <trkpt lat="49.11652" lon="-1.28088">
        <ele>72.24913</ele>
        <time>2015-06-04T12:20:41Z</time>
      </trkpt>
      <trkpt lat="49.11653" lon="-1.28088">
        <ele>72.24913</ele>
        <time>2015-06-04T12:20:46Z</time>
      </trkpt>
      <trkpt lat="49.1165" lon="-1.28087">
        <ele>72.24913</ele>
        <time>2015-06-04T12:20:51Z</time>
      </trkpt>
      <trkpt lat="49.11651" lon="-1.28086">
        <ele>72.24913</ele>
        <time>2015-06-04T12:20:56Z</time>
      </trkpt>
      <trkpt lat="49.11651" lon="-1.28084">
        <ele>72.24913</ele>
        <time>2015-06-04T12:21:01Z</time>
      </trkpt>
      <trkpt lat="49.11651" lon="-1.28086">
        <ele>72.24913</ele>
        <time>2015-06-04T12:21:06Z</time>
      </trkpt>
      <trkpt lat="49.11651" lon="-1.28087">
        <ele>72.24913</ele>
        <time>2015-06-04T12:21:11Z</time>
      </trkpt>
      <trkpt lat="49.11651" lon="-1.28089">
        <ele>71.17813</ele>
        <time>2015-06-04T12:21:16Z</time>
      </trkpt>
      <trkpt lat="49.1165" lon="-1.2809">
        <ele>71.17813</ele>
        <time>2015-06-04T12:21:21Z</time>
      </trkpt>
      <trkpt lat="49.1165" lon="-1.28091">
        <ele>71.17813</ele>
        <time>2015-06-04T12:21:26Z</time>
      </trkpt>
      <trkpt lat="49.1165" lon="-1.28093">
        <ele>71.17813</ele>
        <time>2015-06-04T12:21:31Z</time>
      </trkpt>
      <trkpt lat="49.11649" lon="-1.28092">
        <ele>71.17813</ele>
        <time>2015-06-04T12:21:36Z</time>
      </trkpt>
      <trkpt lat="49.11647" lon="-1.28089">
        <ele>71.17813</ele>
        <time>2015-06-04T12:21:41Z</time>
      </trkpt>
      <trkpt lat="49.11647" lon="-1.28089">
        <ele>71.17813</ele>
        <time>2015-06-04T12:21:46Z</time>
      </trkpt>
      <trkpt lat="49.11647" lon="-1.28088">
        <ele>71.17813</ele>
        <time>2015-06-04T12:21:51Z</time>
      </trkpt>
      <trkpt lat="49.11648" lon="-1.28088">
        <ele>70.50022</ele>
        <time>2015-06-04T12:21:56Z</time>
      </trkpt>
      <trkpt lat="49.11649" lon="-1.28087">
        <ele>70.50022</ele>
        <time>2015-06-04T12:22:01Z</time>
      </trkpt>
      <trkpt lat="49.11649" lon="-1.28085">
        <ele>70.50022</ele>
        <time>2015-06-04T12:22:06Z</time>
      </trkpt>
      <trkpt lat="49.11649" lon="-1.28085">
        <ele>70.50022</ele>
        <time>2015-06-04T12:22:11Z</time>
      </trkpt>
      <trkpt lat="49.11649" lon="-1.28086">
        <ele>70.50022</ele>
        <time>2015-06-04T12:22:16Z</time>
      </trkpt>
      <trkpt lat="49.11649" lon="-1.28086">
        <ele>70.50022</ele>
        <time>2015-06-04T12:22:21Z</time>
      </trkpt>
      <trkpt lat="49.11647" lon="-1.28085">
        <ele>70.50022</ele>
        <time>2015-06-04T12:22:26Z</time>
      </trkpt>
      <trkpt lat="49.11645" lon="-1.28083">
        <ele>70.50022</ele>
        <time>2015-06-04T12:22:31Z</time>
      </trkpt>
      <trkpt lat="49.11645" lon="-1.28083">
        <ele>70.50022</ele>
        <time>2015-06-04T12:22:36Z</time>
      </trkpt>
      <trkpt lat="49.11646" lon="-1.28085">
        <ele>70.17498</ele>
        <time>2015-06-04T12:22:41Z</time>
      </trkpt>
      <trkpt lat="49.11647" lon="-1.28085">
        <ele>70.17498</ele>
        <time>2015-06-04T12:22:46Z</time>
      </trkpt>
      <trkpt lat="49.11649" lon="-1.28086">
        <ele>70.17498</ele>
        <time>2015-06-04T12:22:51Z</time>
      </trkpt>
      <trkpt lat="49.11652" lon="-1.28087">
        <ele>70.17498</ele>
        <time>2015-06-04T12:22:56Z</time>
      </trkpt>
      <trkpt lat="49.11651" lon="-1.28088">
        <ele>70.17498</ele>
        <time>2015-06-04T12:23:01Z</time>
      </trkpt>
      <trkpt lat="49.1165" lon="-1.2809">
        <ele>70.17498</ele>
        <time>2015-06-04T12:23:06Z</time>
      </trkpt>
      <trkpt lat="49.1165" lon="-1.2809">
        <ele>70.17498</ele>
        <time>2015-06-04T12:23:11Z</time>
      </trkpt>
      <trkpt lat="49.11651" lon="-1.2809">
        <ele>69.97649</ele>
        <time>2015-06-04T12:23:16Z</time>
      </trkpt>
      <trkpt lat="49.1165" lon="-1.28089">
        <ele>69.97649</ele>
        <time>2015-06-04T12:23:21Z</time>
      </trkpt>
      <trkpt lat="49.11647" lon="-1.28088">
        <ele>69.97649</ele>
        <time>2015-06-04T12:23:26Z</time>
      </trkpt>
      <trkpt lat="49.11642" lon="-1.28085">
        <ele>69.594</ele>
        <time>2015-06-04T12:23:31Z</time>
      </trkpt>
      <trkpt lat="49.11635" lon="-1.28084">
        <ele>69.594</ele>
        <time>2015-06-04T12:23:36Z</time>
      </trkpt>
      <trkpt lat="49.11633" lon="-1.28083">
        <ele>69.594</ele>
        <time>2015-06-04T12:23:41Z</time>
      </trkpt>
      <trkpt lat="49.11628" lon="-1.28084">
        <ele>69.18674</ele>
        <time>2015-06-04T12:23:46Z</time>
      </trkpt>
      <trkpt lat="49.11624" lon="-1.28082">
        <ele>69.18674</ele>
        <time>2015-06-04T12:23:51Z</time>
      </trkpt>
      <trkpt lat="49.11619" lon="-1.28081">
        <ele>68.7148</ele>
        <time>2015-06-04T12:23:56Z</time>
      </trkpt>
      <trkpt lat="49.11614" lon="-1.28081">
        <ele>68.7148</ele>
        <time>2015-06-04T12:24:01Z</time>
      </trkpt>
      <trkpt lat="49.11609" lon="-1.28081">
        <ele>68.1845</ele>
        <time>2015-06-04T12:24:06Z</time>
      </trkpt>
      <trkpt lat="49.11605" lon="-1.28082">
        <ele>68.1845</ele>
        <time>2015-06-04T12:24:11Z</time>
      </trkpt>
      <trkpt lat="49.116" lon="-1.2808">
        <ele>68.1845</ele>
        <time>2015-06-04T12:24:16Z</time>
      </trkpt>
      <trkpt lat="49.11597" lon="-1.28079">
        <ele>67.51524</ele>
        <time>2015-06-04T12:24:21Z</time>
      </trkpt>
      <trkpt lat="49.11593" lon="-1.28079">
        <ele>67.51524</ele>
        <time>2015-06-04T12:24:26Z</time>
      </trkpt>
      <trkpt lat="49.11585" lon="-1.28078">
        <ele>66.8344</ele>
        <time>2015-06-04T12:24:31Z</time>
      </trkpt>
      <trkpt lat="49.11579" lon="-1.28079">
        <ele>66.8344</ele>
        <time>2015-06-04T12:24:36Z</time>
      </trkpt>
      <trkpt lat="49.11575" lon="-1.28082">
        <ele>66.0437</ele>
        <time>2015-06-04T12:24:41Z</time>
      </trkpt>
      <trkpt lat="49.11569" lon="-1.28086">
        <ele>66.0437</ele>
        <time>2015-06-04T12:24:46Z</time>
      </trkpt>
      <trkpt lat="49.11564" lon="-1.28091">
        <ele>65.18201</ele>
        <time>2015-06-04T12:24:51Z</time>
      </trkpt>
      <trkpt lat="49.11559" lon="-1.28093">
        <ele>65.18201</ele>
        <time>2015-06-04T12:24:56Z</time>
      </trkpt>
      <trkpt lat="49.11554" lon="-1.28095">
        <ele>64.256584</ele>
        <time>2015-06-04T12:25:01Z</time>
      </trkpt>
      <trkpt lat="49.11548" lon="-1.28097">
        <ele>64.256584</ele>
        <time>2015-06-04T12:25:06Z</time>
      </trkpt>
      <trkpt lat="49.11542" lon="-1.28097">
        <ele>63.34628</ele>
        <time>2015-06-04T12:25:11Z</time>
      </trkpt>
      <trkpt lat="49.11536" lon="-1.28099">
        <ele>63.34628</ele>
        <time>2015-06-04T12:25:16Z</time>
      </trkpt>
      <trkpt lat="49.1153" lon="-1.28099">
        <ele>62.46636</ele>
        <time>2015-06-04T12:25:21Z</time>
      </trkpt>
      <trkpt lat="49.11524" lon="-1.28098">
        <ele>62.46636</ele>
        <time>2015-06-04T12:25:26Z</time>
      </trkpt>
      <trkpt lat="49.11519" lon="-1.28099">
        <ele>61.63077</ele>
        <time>2015-06-04T12:25:31Z</time>
      </trkpt>
      <trkpt lat="49.11514" lon="-1.28102">
        <ele>61.63077</ele>
        <time>2015-06-04T12:25:36Z</time>
      </trkpt>
      <trkpt lat="49.11511" lon="-1.28103">
        <ele>61.63077</ele>
        <time>2015-06-04T12:25:41Z</time>
      </trkpt>
      <trkpt lat="49.11504" lon="-1.28101">
        <ele>60.76575</ele>
        <time>2015-06-04T12:25:46Z</time>
      </trkpt>
      <trkpt lat="49.11503" lon="-1.281">
        <ele>60.76575</ele>
        <time>2015-06-04T12:25:51Z</time>
      </trkpt>
      <trkpt lat="49.11502" lon="-1.28102">
        <ele>60.76575</ele>
        <time>2015-06-04T12:25:56Z</time>
      </trkpt>
      <trkpt lat="49.11501" lon="-1.28105">
        <ele>60.76575</ele>
        <time>2015-06-04T12:26:01Z</time>
      </trkpt>
      <trkpt lat="49.11497" lon="-1.28108">
        <ele>59.932636</ele>
        <time>2015-06-04T12:26:06Z</time>
      </trkpt>
      <trkpt lat="49.11493" lon="-1.2811">
        <ele>59.932636</ele>
        <time>2015-06-04T12:26:11Z</time>
      </trkpt>
      <trkpt lat="49.11489" lon="-1.28108">
        <ele>59.932636</ele>
        <time>2015-06-04T12:26:16Z</time>
      </trkpt>
      <trkpt lat="49.11485" lon="-1.28105">
        <ele>59.202473</ele>
        <time>2015-06-04T12:26:21Z</time>
      </trkpt>
      <trkpt lat="49.11482" lon="-1.281">
        <ele>59.202473</ele>
        <time>2015-06-04T12:26:26Z</time>
      </trkpt>
      <trkpt lat="49.1148" lon="-1.28095">
        <ele>59.202473</ele>
        <time>2015-06-04T12:26:31Z</time>
      </trkpt>
      <trkpt lat="49.11478" lon="-1.2809">
        <ele>58.756004</ele>
        <time>2015-06-04T12:26:36Z</time>
      </trkpt>
      <trkpt lat="49.11478" lon="-1.28086">
        <ele>58.756004</ele>
        <time>2015-06-04T12:26:41Z</time>
      </trkpt>
      <trkpt lat="49.11477" lon="-1.28081">
        <ele>58.756004</ele>
        <time>2015-06-04T12:26:46Z</time>
      </trkpt>
      <trkpt lat="49.11475" lon="-1.28076">
        <ele>58.514824</ele>
        <time>2015-06-04T12:26:51Z</time>
      </trkpt>
      <trkpt lat="49.11473" lon="-1.28071">
        <ele>58.514824</ele>
        <time>2015-06-04T12:26:56Z</time>
      </trkpt>
      <trkpt lat="49.11472" lon="-1.2807">
        <ele>58.514824</ele>
        <time>2015-06-04T12:27:01Z</time>
      </trkpt>
      <trkpt lat="49.11472" lon="-1.28069">
        <ele>58.514824</ele>
        <time>2015-06-04T12:27:06Z</time>
      </trkpt>
      <trkpt lat="49.1147" lon="-1.28065">
        <ele>58.514824</ele>
        <time>2015-06-04T12:27:11Z</time>
      </trkpt>
      <trkpt lat="49.11465" lon="-1.28062">
        <ele>58.564137</ele>
        <time>2015-06-04T12:27:16Z</time>
      </trkpt>
      <trkpt lat="49.11463" lon="-1.28057">
        <ele>58.564137</ele>
        <time>2015-06-04T12:27:21Z</time>
      </trkpt>
      <trkpt lat="49.11461" lon="-1.28052">
        <ele>58.564137</ele>
        <time>2015-06-04T12:27:26Z</time>
      </trkpt>
      <trkpt lat="49.11458" lon="-1.28045">
        <ele>58.953197</ele>
        <time>2015-06-04T12:27:31Z</time>
      </trkpt>
      <trkpt lat="49.11457" lon="-1.28042">
        <ele>58.953197</ele>
        <time>2015-06-04T12:27:36Z</time>
      </trkpt>
      <trkpt lat="49.11454" lon="-1.28036">
        <ele>58.953197</ele>
        <time>2015-06-04T12:27:41Z</time>
      </trkpt>
      <trkpt lat="49.11452" lon="-1.28031">
        <ele>59.42398</ele>
        <time>2015-06-04T12:27:46Z</time>
      </trkpt>
      <trkpt lat="49.11448" lon="-1.28025">
        <ele>59.42398</ele>
        <time>2015-06-04T12:27:51Z</time>
      </trkpt>
      <trkpt lat="49.11444" lon="-1.2802">
        <ele>59.953304</ele>
        <time>2015-06-04T12:27:56Z</time>
      </trkpt>
      <trkpt lat="49.11439" lon="-1.28017">
        <ele>59.953304</ele>
        <time>2015-06-04T12:28:01Z</time>
      </trkpt>
      <trkpt lat="49.11436" lon="-1.28014">
        <ele>60.60595</ele>
        <time>2015-06-04T12:28:06Z</time>
      </trkpt>
      <trkpt lat="49.11431" lon="-1.28014">
        <ele>60.60595</ele>
        <time>2015-06-04T12:28:11Z</time>
      </trkpt>
      <trkpt lat="49.11428" lon="-1.28012">
        <ele>60.60595</ele>
        <time>2015-06-04T12:28:16Z</time>
      </trkpt>
      <trkpt lat="49.11424" lon="-1.28011">
        <ele>61.39834</ele>
        <time>2015-06-04T12:28:21Z</time>
      </trkpt>
      <trkpt lat="49.11422" lon="-1.2801">
        <ele>61.39834</ele>
        <time>2015-06-04T12:28:26Z</time>
      </trkpt>
      <trkpt lat="49.11418" lon="-1.28007">
        <ele>61.39834</ele>
        <time>2015-06-04T12:28:31Z</time>
      </trkpt>
      <trkpt lat="49.11414" lon="-1.28005">
        <ele>62.37409</ele>
        <time>2015-06-04T12:28:36Z</time>
      </trkpt>
      <trkpt lat="49.11414" lon="-1.28003">
        <ele>62.37409</ele>
        <time>2015-06-04T12:28:41Z</time>
      </trkpt>
      <trkpt lat="49.11415" lon="-1.28003">
        <ele>62.37409</ele>
        <time>2015-06-04T12:28:46Z</time>
      </trkpt>
      <trkpt lat="49.11411" lon="-1.28001">
        <ele>62.37409</ele>
        <time>2015-06-04T12:28:51Z</time>
      </trkpt>
      <trkpt lat="49.11408" lon="-1.27996">
        <ele>63.558704</ele>
        <time>2015-06-04T12:28:56Z</time>
      </trkpt>
      <trkpt lat="49.11403" lon="-1.27992">
        <ele>63.558704</ele>
        <time>2015-06-04T12:29:01Z</time>
      </trkpt>
      <trkpt lat="49.11399" lon="-1.27989">
        <ele>64.67259</ele>
        <time>2015-06-04T12:29:06Z</time>
      </trkpt>
      <trkpt lat="49.11394" lon="-1.27989">
        <ele>64.67259</ele>
        <time>2015-06-04T12:29:11Z</time>
      </trkpt>
      <trkpt lat="49.1139" lon="-1.2799">
        <ele>65.73073</ele>
        <time>2015-06-04T12:29:16Z</time>
      </trkpt>
      <trkpt lat="49.11385" lon="-1.2799">
        <ele>65.73073</ele>
        <time>2015-06-04T12:29:21Z</time>
      </trkpt>
      <trkpt lat="49.11381" lon="-1.27991">
        <ele>66.63191</ele>
        <time>2015-06-04T12:29:26Z</time>
      </trkpt>
      <trkpt lat="49.11375" lon="-1.27991">
        <ele>66.63191</ele>
        <time>2015-06-04T12:29:31Z</time>
      </trkpt>
      <trkpt lat="49.11369" lon="-1.27993">
        <ele>67.3549</ele>
        <time>2015-06-04T12:29:36Z</time>
      </trkpt>
      <trkpt lat="49.11364" lon="-1.27998">
        <ele>67.3549</ele>
        <time>2015-06-04T12:29:41Z</time>
      </trkpt>
      <trkpt lat="49.11359" lon="-1.28">
        <ele>67.92379</ele>
        <time>2015-06-04T12:29:46Z</time>
      </trkpt>
      <trkpt lat="49.11354" lon="-1.28001">
        <ele>67.92379</ele>
        <time>2015-06-04T12:29:51Z</time>
      </trkpt>
      <trkpt lat="49.11348" lon="-1.27999">
        <ele>68.34701</ele>
        <time>2015-06-04T12:29:56Z</time>
      </trkpt>
      <trkpt lat="49.11342" lon="-1.27998">
        <ele>68.34701</ele>
        <time>2015-06-04T12:30:01Z</time>
      </trkpt>
      <trkpt lat="49.11335" lon="-1.27995">
        <ele>68.67606</ele>
        <time>2015-06-04T12:30:06Z</time>
      </trkpt>
      <trkpt lat="49.11329" lon="-1.27992">
        <ele>68.67606</ele>
        <time>2015-06-04T12:30:11Z</time>
      </trkpt>
      <trkpt lat="49.11323" lon="-1.2799">
        <ele>68.97341</ele>
        <time>2015-06-04T12:30:16Z</time>
      </trkpt>
      <trkpt lat="49.11319" lon="-1.27988">
        <ele>68.97341</ele>
        <time>2015-06-04T12:30:21Z</time>
      </trkpt>
      <trkpt lat="49.11313" lon="-1.27985">
        <ele>69.31151</ele>
        <time>2015-06-04T12:30:26Z</time>
      </trkpt>
      <trkpt lat="49.11308" lon="-1.27983">
        <ele>69.31151</ele>
        <time>2015-06-04T12:30:31Z</time>
      </trkpt>
      <trkpt lat="49.11304" lon="-1.27979">
        <ele>69.685356</ele>
        <time>2015-06-04T12:30:36Z</time>
      </trkpt>
      <trkpt lat="49.11299" lon="-1.27975">
        <ele>69.685356</ele>
        <time>2015-06-04T12:30:41Z</time>
      </trkpt>
      <trkpt lat="49.11293" lon="-1.2797">
        <ele>70.0471</ele>
        <time>2015-06-04T12:30:46Z</time>
      </trkpt>
      <trkpt lat="49.11288" lon="-1.27967">
        <ele>70.0471</ele>
        <time>2015-06-04T12:30:51Z</time>
      </trkpt>
      <trkpt lat="49.11283" lon="-1.27963">
        <ele>70.41012</ele>
        <time>2015-06-04T12:30:56Z</time>
      </trkpt>
      <trkpt lat="49.11278" lon="-1.27958">
        <ele>70.41012</ele>
        <time>2015-06-04T12:31:01Z</time>
      </trkpt>
      <trkpt lat="49.11274" lon="-1.27955">
        <ele>70.758064</ele>
        <time>2015-06-04T12:31:06Z</time>
      </trkpt>
      <trkpt lat="49.11269" lon="-1.27951">
        <ele>70.758064</ele>
        <time>2015-06-04T12:31:11Z</time>
      </trkpt>
      <trkpt lat="49.11265" lon="-1.27948">
        <ele>71.07591</ele>
        <time>2015-06-04T12:31:16Z</time>
      </trkpt>
      <trkpt lat="49.11259" lon="-1.27944">
        <ele>71.07591</ele>
        <time>2015-06-04T12:31:21Z</time>
      </trkpt>
      <trkpt lat="49.11254" lon="-1.27939">
        <ele>71.364296</ele>
        <time>2015-06-04T12:31:26Z</time>
      </trkpt>
      <trkpt lat="49.11249" lon="-1.27933">
        <ele>71.364296</ele>
        <time>2015-06-04T12:31:31Z</time>
      </trkpt>
      <trkpt lat="49.11245" lon="-1.27927">
        <ele>71.65278</ele>
        <time>2015-06-04T12:31:36Z</time>
      </trkpt>
      <trkpt lat="49.1124" lon="-1.27923">
        <ele>71.65278</ele>
        <time>2015-06-04T12:31:41Z</time>
      </trkpt>
      <trkpt lat="49.11236" lon="-1.27918">
        <ele>71.7959</ele>
        <time>2015-06-04T12:31:46Z</time>
      </trkpt>
      <trkpt lat="49.11231" lon="-1.27911">
        <ele>71.7959</ele>
        <time>2015-06-04T12:31:51Z</time>
      </trkpt>
      <trkpt lat="49.11227" lon="-1.27906">
        <ele>71.78903</ele>
        <time>2015-06-04T12:31:56Z</time>
      </trkpt>
      <trkpt lat="49.11223" lon="-1.27902">
        <ele>71.78903</ele>
        <time>2015-06-04T12:32:01Z</time>
      </trkpt>
      <trkpt lat="49.11218" lon="-1.27897">
        <ele>71.642815</ele>
        <time>2015-06-04T12:32:06Z</time>
      </trkpt>
      <trkpt lat="49.11213" lon="-1.27892">
        <ele>71.642815</ele>
        <time>2015-06-04T12:32:11Z</time>
      </trkpt>
      <trkpt lat="49.11207" lon="-1.27885">
        <ele>71.39637</ele>
        <time>2015-06-04T12:32:16Z</time>
      </trkpt>
      <trkpt lat="49.11203" lon="-1.27879">
        <ele>71.39637</ele>
        <time>2015-06-04T12:32:21Z</time>
      </trkpt>
      <trkpt lat="49.11197" lon="-1.27873">
        <ele>71.05745</ele>
        <time>2015-06-04T12:32:26Z</time>
      </trkpt>
      <trkpt lat="49.11194" lon="-1.27868">
        <ele>71.05745</ele>
        <time>2015-06-04T12:32:31Z</time>
      </trkpt>
      <trkpt lat="49.11189" lon="-1.27864">
        <ele>70.63356</ele>
        <time>2015-06-04T12:32:36Z</time>
      </trkpt>
      <trkpt lat="49.11184" lon="-1.27859">
        <ele>70.63356</ele>
        <time>2015-06-04T12:32:41Z</time>
      </trkpt>
      <trkpt lat="49.1118" lon="-1.27857">
        <ele>70.074295</ele>
        <time>2015-06-04T12:32:46Z</time>
      </trkpt>
      <trkpt lat="49.11174" lon="-1.27856">
        <ele>70.074295</ele>
        <time>2015-06-04T12:32:51Z</time>
      </trkpt>
      <trkpt lat="49.11168" lon="-1.27855">
        <ele>69.33336</ele>
        <time>2015-06-04T12:32:56Z</time>
      </trkpt>
      <trkpt lat="49.11163" lon="-1.27855">
        <ele>69.33336</ele>
        <time>2015-06-04T12:33:01Z</time>
      </trkpt>
      <trkpt lat="49.11158" lon="-1.27855">
        <ele>68.35399</ele>
        <time>2015-06-04T12:33:06Z</time>
      </trkpt>
      <trkpt lat="49.11151" lon="-1.27854">
        <ele>68.35399</ele>
        <time>2015-06-04T12:33:11Z</time>
      </trkpt>
      <trkpt lat="49.11145" lon="-1.27854">
        <ele>67.14194</ele>
        <time>2015-06-04T12:33:16Z</time>
      </trkpt>
      <trkpt lat="49.11139" lon="-1.27854">
        <ele>67.14194</ele>
        <time>2015-06-04T12:33:21Z</time>
      </trkpt>
      <trkpt lat="49.11132" lon="-1.27853">
        <ele>65.67436</ele>
        <time>2015-06-04T12:33:26Z</time>
      </trkpt>
      <trkpt lat="49.11126" lon="-1.27852">
        <ele>65.67436</ele>
        <time>2015-06-04T12:33:31Z</time>
      </trkpt>
      <trkpt lat="49.1112" lon="-1.27848">
        <ele>64.21905</ele>
        <time>2015-06-04T12:33:36Z</time>
      </trkpt>
      <trkpt lat="49.11114" lon="-1.27846">
        <ele>64.21905</ele>
        <time>2015-06-04T12:33:41Z</time>
      </trkpt>
      <trkpt lat="49.11109" lon="-1.27847">
        <ele>62.807903</ele>
        <time>2015-06-04T12:33:46Z</time>
      </trkpt>
      <trkpt lat="49.11104" lon="-1.27847">
        <ele>62.807903</ele>
        <time>2015-06-04T12:33:51Z</time>
      </trkpt>
      <trkpt lat="49.11098" lon="-1.27847">
        <ele>61.369457</ele>
        <time>2015-06-04T12:33:56Z</time>
      </trkpt>
      <trkpt lat="49.11093" lon="-1.2785">
        <ele>61.369457</ele>
        <time>2015-06-04T12:34:01Z</time>
      </trkpt>
      <trkpt lat="49.11087" lon="-1.27852">
        <ele>59.93842</ele>
        <time>2015-06-04T12:34:06Z</time>
      </trkpt>
      <trkpt lat="49.11079" lon="-1.27854">
        <ele>59.93842</ele>
        <time>2015-06-04T12:34:11Z</time>
      </trkpt>
      <trkpt lat="49.11074" lon="-1.27856">
        <ele>58.590126</ele>
        <time>2015-06-04T12:34:16Z</time>
      </trkpt>
      <trkpt lat="49.11069" lon="-1.27855">
        <ele>58.590126</ele>
        <time>2015-06-04T12:34:21Z</time>
      </trkpt>
      <trkpt lat="49.11065" lon="-1.27854">
        <ele>58.590126</ele>
        <time>2015-06-04T12:34:26Z</time>
      </trkpt>
      <trkpt lat="49.1106" lon="-1.27854">
        <ele>57.32204</ele>
        <time>2015-06-04T12:34:31Z</time>
      </trkpt>
      <trkpt lat="49.11054" lon="-1.27854">
        <ele>57.32204</ele>
        <time>2015-06-04T12:34:36Z</time>
      </trkpt>
      <trkpt lat="49.11049" lon="-1.27854">
        <ele>56.030647</ele>
        <time>2015-06-04T12:34:41Z</time>
      </trkpt>
      <trkpt lat="49.11044" lon="-1.27852">
        <ele>56.030647</ele>
        <time>2015-06-04T12:34:46Z</time>
      </trkpt>
      <trkpt lat="49.11037" lon="-1.27852">
        <ele>54.8074</ele>
        <time>2015-06-04T12:34:51Z</time>
      </trkpt>
      <trkpt lat="49.11032" lon="-1.27853">
        <ele>54.8074</ele>
        <time>2015-06-04T12:34:56Z</time>
      </trkpt>
      <trkpt lat="49.11026" lon="-1.27854">
        <ele>53.592648</ele>
        <time>2015-06-04T12:35:01Z</time>
      </trkpt>
      <trkpt lat="49.1102" lon="-1.27858">
        <ele>53.592648</ele>
        <time>2015-06-04T12:35:06Z</time>
      </trkpt>
      <trkpt lat="49.11016" lon="-1.27869">
        <ele>52.532795</ele>
        <time>2015-06-04T12:35:11Z</time>
      </trkpt>
      <trkpt lat="49.11014" lon="-1.2788">
        <ele>52.532795</ele>
        <time>2015-06-04T12:35:16Z</time>
      </trkpt>
      <trkpt lat="49.11012" lon="-1.27888">
        <ele>51.806217</ele>
        <time>2015-06-04T12:35:21Z</time>
      </trkpt>
      <trkpt lat="49.1101" lon="-1.27895">
        <ele>51.806217</ele>
        <time>2015-06-04T12:35:26Z</time>
      </trkpt>
      <trkpt lat="49.11008" lon="-1.27905">
        <ele>51.30336</ele>
        <time>2015-06-04T12:35:31Z</time>
      </trkpt>
      <trkpt lat="49.11005" lon="-1.27911">
        <ele>51.30336</ele>
        <time>2015-06-04T12:35:36Z</time>
      </trkpt>
      <trkpt lat="49.11002" lon="-1.27919">
        <ele>51.008488</ele>
        <time>2015-06-04T12:35:41Z</time>
      </trkpt>
      <trkpt lat="49.10998" lon="-1.27927">
        <ele>51.008488</ele>
        <time>2015-06-04T12:35:46Z</time>
      </trkpt>
      <trkpt lat="49.10996" lon="-1.27932">
        <ele>50.906372</ele>
        <time>2015-06-04T12:35:51Z</time>
      </trkpt>
      <trkpt lat="49.10992" lon="-1.27935">
        <ele>50.906372</ele>
        <time>2015-06-04T12:35:56Z</time>
      </trkpt>
      <trkpt lat="49.10987" lon="-1.2794">
        <ele>50.953465</ele>
        <time>2015-06-04T12:36:01Z</time>
      </trkpt>
      <trkpt lat="49.10981" lon="-1.27943">
        <ele>50.953465</ele>
        <time>2015-06-04T12:36:06Z</time>
      </trkpt>
      <trkpt lat="49.10976" lon="-1.27943">
        <ele>51.166595</ele>
        <time>2015-06-04T12:36:11Z</time>
      </trkpt>
      <trkpt lat="49.10972" lon="-1.27943">
        <ele>51.166595</ele>
        <time>2015-06-04T12:36:16Z</time>
      </trkpt>
      <trkpt lat="49.10965" lon="-1.27941">
        <ele>51.474373</ele>
        <time>2015-06-04T12:36:21Z</time>
      </trkpt>
      <trkpt lat="49.1096" lon="-1.2794">
        <ele>51.474373</ele>
        <time>2015-06-04T12:36:26Z</time>
      </trkpt>
      <trkpt lat="49.10955" lon="-1.27937">
        <ele>51.82475</ele>
        <time>2015-06-04T12:36:31Z</time>
      </trkpt>
      <trkpt lat="49.10947" lon="-1.27936">
        <ele>51.82475</ele>
        <time>2015-06-04T12:36:36Z</time>
      </trkpt>
      <trkpt lat="49.10942" lon="-1.27937">
        <ele>52.270226</ele>
        <time>2015-06-04T12:36:41Z</time>
      </trkpt>
      <trkpt lat="49.10937" lon="-1.27935">
        <ele>52.270226</ele>
        <time>2015-06-04T12:36:46Z</time>
      </trkpt>
      <trkpt lat="49.10932" lon="-1.27932">
        <ele>52.74387</ele>
        <time>2015-06-04T12:36:51Z</time>
      </trkpt>
      <trkpt lat="49.10927" lon="-1.27931">
        <ele>52.74387</ele>
        <time>2015-06-04T12:36:56Z</time>
      </trkpt>
      <trkpt lat="49.10921" lon="-1.27932">
        <ele>53.24121</ele>
        <time>2015-06-04T12:37:01Z</time>
      </trkpt>
      <trkpt lat="49.10916" lon="-1.27932">
        <ele>53.24121</ele>
        <time>2015-06-04T12:37:06Z</time>
      </trkpt>
      <trkpt lat="49.10913" lon="-1.27928">
        <ele>53.758034</ele>
        <time>2015-06-04T12:37:11Z</time>
      </trkpt>
      <trkpt lat="49.10913" lon="-1.27923">
        <ele>53.758034</ele>
        <time>2015-06-04T12:37:16Z</time>
      </trkpt>
      <trkpt lat="49.10914" lon="-1.27912">
        <ele>54.319206</ele>
        <time>2015-06-04T12:37:21Z</time>
      </trkpt>
      <trkpt lat="49.10916" lon="-1.27903">
        <ele>54.319206</ele>
        <time>2015-06-04T12:37:26Z</time>
      </trkpt>
      <trkpt lat="49.10917" lon="-1.27897">
        <ele>54.947643</ele>
        <time>2015-06-04T12:37:31Z</time>
      </trkpt>
      <trkpt lat="49.10919" lon="-1.27889">
        <ele>54.947643</ele>
        <time>2015-06-04T12:37:36Z</time>
      </trkpt>
      <trkpt lat="49.1092" lon="-1.27879">
        <ele>55.549118</ele>
        <time>2015-06-04T12:37:41Z</time>
      </trkpt>
      <trkpt lat="49.10922" lon="-1.27872">
        <ele>55.549118</ele>
        <time>2015-06-04T12:37:46Z</time>
      </trkpt>
      <trkpt lat="49.10923" lon="-1.27865">
        <ele>56.09407</ele>
        <time>2015-06-04T12:37:51Z</time>
      </trkpt>
      <trkpt lat="49.10924" lon="-1.27855">
        <ele>56.09407</ele>
        <time>2015-06-04T12:37:56Z</time>
      </trkpt>
      <trkpt lat="49.10924" lon="-1.27845">
        <ele>56.56971</ele>
        <time>2015-06-04T12:38:01Z</time>
      </trkpt>
      <trkpt lat="49.10924" lon="-1.27838">
        <ele>56.56971</ele>
        <time>2015-06-04T12:38:06Z</time>
      </trkpt>
      <trkpt lat="49.10925" lon="-1.2783">
        <ele>57.0797</ele>
        <time>2015-06-04T12:38:11Z</time>
      </trkpt>
      <trkpt lat="49.10926" lon="-1.2782">
        <ele>57.0797</ele>
        <time>2015-06-04T12:38:16Z</time>
      </trkpt>
      <trkpt lat="49.10927" lon="-1.27811">
        <ele>57.57592</ele>
        <time>2015-06-04T12:38:21Z</time>
      </trkpt>
      <trkpt lat="49.10927" lon="-1.27801">
        <ele>57.57592</ele>
        <time>2015-06-04T12:38:26Z</time>
      </trkpt>
      <trkpt lat="49.10928" lon="-1.27793">
        <ele>57.999462</ele>
        <time>2015-06-04T12:38:31Z</time>
      </trkpt>
      <trkpt lat="49.10928" lon="-1.27785">
        <ele>57.999462</ele>
        <time>2015-06-04T12:38:36Z</time>
      </trkpt>
      <trkpt lat="49.10928" lon="-1.27777">
        <ele>58.38245</ele>
        <time>2015-06-04T12:38:41Z</time>
      </trkpt>
      <trkpt lat="49.10928" lon="-1.27767">
        <ele>58.38245</ele>
        <time>2015-06-04T12:38:46Z</time>
      </trkpt>
      <trkpt lat="49.10928" lon="-1.27758">
        <ele>58.596294</ele>
        <time>2015-06-04T12:38:51Z</time>
      </trkpt>
      <trkpt lat="49.10928" lon="-1.27747">
        <ele>58.596294</ele>
        <time>2015-06-04T12:38:56Z</time>
      </trkpt>
      <trkpt lat="49.10929" lon="-1.27737">
        <ele>58.767372</ele>
        <time>2015-06-04T12:39:01Z</time>
      </trkpt>
      <trkpt lat="49.10929" lon="-1.27729">
        <ele>58.767372</ele>
        <time>2015-06-04T12:39:06Z</time>
      </trkpt>
      <trkpt lat="49.10927" lon="-1.2772">
        <ele>58.955296</ele>
        <time>2015-06-04T12:39:11Z</time>
      </trkpt>
      <trkpt lat="49.10925" lon="-1.2771">
        <ele>58.955296</ele>
        <time>2015-06-04T12:39:16Z</time>
      </trkpt>
      <trkpt lat="49.10925" lon="-1.27703">
        <ele>59.172062</ele>
        <time>2015-06-04T12:39:21Z</time>
      </trkpt>
      <trkpt lat="49.10924" lon="-1.27694">
        <ele>59.172062</ele>
        <time>2015-06-04T12:39:26Z</time>
      </trkpt>
      <trkpt lat="49.10921" lon="-1.27685">
        <ele>59.35672</ele>
        <time>2015-06-04T12:39:31Z</time>
      </trkpt>
      <trkpt lat="49.10918" lon="-1.27677">
        <ele>59.35672</ele>
        <time>2015-06-04T12:39:36Z</time>
      </trkpt>
      <trkpt lat="49.10915" lon="-1.27666">
        <ele>59.46733</ele>
        <time>2015-06-04T12:39:41Z</time>
      </trkpt>
      <trkpt lat="49.10913" lon="-1.27656">
        <ele>59.46733</ele>
        <time>2015-06-04T12:39:46Z</time>
      </trkpt>
      <trkpt lat="49.10911" lon="-1.2765">
        <ele>59.537354</ele>
        <time>2015-06-04T12:39:51Z</time>
      </trkpt>
      <trkpt lat="49.10908" lon="-1.27642">
        <ele>59.537354</ele>
        <time>2015-06-04T12:39:56Z</time>
      </trkpt>
      <trkpt lat="49.10904" lon="-1.27635">
        <ele>59.3962</ele>
        <time>2015-06-04T12:40:01Z</time>
      </trkpt>
      <trkpt lat="49.109" lon="-1.27627">
        <ele>59.3962</ele>
        <time>2015-06-04T12:40:06Z</time>
      </trkpt>
      <trkpt lat="49.10896" lon="-1.27618">
        <ele>59.117023</ele>
        <time>2015-06-04T12:40:11Z</time>
      </trkpt>
      <trkpt lat="49.10892" lon="-1.27611">
        <ele>59.117023</ele>
        <time>2015-06-04T12:40:16Z</time>
      </trkpt>
      <trkpt lat="49.10888" lon="-1.27602">
        <ele>58.68157</ele>
        <time>2015-06-04T12:40:21Z</time>
      </trkpt>
      <trkpt lat="49.10885" lon="-1.27593">
        <ele>58.68157</ele>
        <time>2015-06-04T12:40:26Z</time>
      </trkpt>
      <trkpt lat="49.10881" lon="-1.27588">
        <ele>58.159866</ele>
        <time>2015-06-04T12:40:31Z</time>
      </trkpt>
      <trkpt lat="49.10876" lon="-1.2758">
        <ele>58.159866</ele>
        <time>2015-06-04T12:40:36Z</time>
      </trkpt>
      <trkpt lat="49.10873" lon="-1.27573">
        <ele>57.61707</ele>
        <time>2015-06-04T12:40:41Z</time>
      </trkpt>
      <trkpt lat="49.1087" lon="-1.27567">
        <ele>57.61707</ele>
        <time>2015-06-04T12:40:46Z</time>
      </trkpt>
      <trkpt lat="49.10867" lon="-1.2756">
        <ele>57.027172</ele>
        <time>2015-06-04T12:40:51Z</time>
      </trkpt>
      <trkpt lat="49.10865" lon="-1.27552">
        <ele>57.027172</ele>
        <time>2015-06-04T12:40:56Z</time>
      </trkpt>
      <trkpt lat="49.10863" lon="-1.27543">
        <ele>56.46711</ele>
        <time>2015-06-04T12:41:01Z</time>
      </trkpt>
      <trkpt lat="49.10862" lon="-1.27534">
        <ele>56.46711</ele>
        <time>2015-06-04T12:41:06Z</time>
      </trkpt>
      <trkpt lat="49.10861" lon="-1.27523">
        <ele>55.79192</ele>
        <time>2015-06-04T12:41:11Z</time>
      </trkpt>
      <trkpt lat="49.1086" lon="-1.27516">
        <ele>55.79192</ele>
        <time>2015-06-04T12:41:16Z</time>
      </trkpt>
      <trkpt lat="49.10857" lon="-1.27511">
        <ele>55.79192</ele>
        <time>2015-06-04T12:41:21Z</time>
      </trkpt>
      <trkpt lat="49.10855" lon="-1.2751">
        <ele>55.04057</ele>
        <time>2015-06-04T12:41:26Z</time>
      </trkpt>
      <trkpt lat="49.10854" lon="-1.27509">
        <ele>55.04057</ele>
        <time>2015-06-04T12:41:31Z</time>
      </trkpt>
      <trkpt lat="49.10853" lon="-1.2751">
        <ele>55.04057</ele>
        <time>2015-06-04T12:41:36Z</time>
      </trkpt>
      <trkpt lat="49.10854" lon="-1.2751">
        <ele>55.04057</ele>
        <time>2015-06-04T12:41:41Z</time>
      </trkpt>
      <trkpt lat="49.10856" lon="-1.27511">
        <ele>55.04057</ele>
        <time>2015-06-04T12:41:46Z</time>
      </trkpt>
      <trkpt lat="49.10853" lon="-1.2751">
        <ele>55.04057</ele>
        <time>2015-06-04T12:41:51Z</time>
      </trkpt>
      <trkpt lat="49.10849" lon="-1.27509">
        <ele>54.234962</ele>
        <time>2015-06-04T12:41:56Z</time>
      </trkpt>
      <trkpt lat="49.10846" lon="-1.27509">
        <ele>54.234962</ele>
        <time>2015-06-04T12:42:01Z</time>
      </trkpt>
      <trkpt lat="49.1084" lon="-1.27508">
        <ele>54.234962</ele>
        <time>2015-06-04T12:42:06Z</time>
      </trkpt>
      <trkpt lat="49.10835" lon="-1.27504">
        <ele>53.395542</ele>
        <time>2015-06-04T12:42:11Z</time>
      </trkpt>
      <trkpt lat="49.1083" lon="-1.27504">
        <ele>53.395542</ele>
        <time>2015-06-04T12:42:16Z</time>
      </trkpt>
      <trkpt lat="49.10826" lon="-1.27502">
        <ele>53.395542</ele>
        <time>2015-06-04T12:42:21Z</time>
      </trkpt>
      <trkpt lat="49.10818" lon="-1.27498">
        <ele>52.42605</ele>
        <time>2015-06-04T12:42:26Z</time>
      </trkpt>
      <trkpt lat="49.10814" lon="-1.27494">
        <ele>52.42605</ele>
        <time>2015-06-04T12:42:31Z</time>
      </trkpt>
      <trkpt lat="49.10811" lon="-1.27491">
        <ele>51.468224</ele>
        <time>2015-06-04T12:42:36Z</time>
      </trkpt>
      <trkpt lat="49.10806" lon="-1.27485">
        <ele>51.468224</ele>
        <time>2015-06-04T12:42:41Z</time>
      </trkpt>
      <trkpt lat="49.10802" lon="-1.27477">
        <ele>50.552464</ele>
        <time>2015-06-04T12:42:46Z</time>
      </trkpt>
      <trkpt lat="49.10798" lon="-1.2747">
        <ele>50.552464</ele>
        <time>2015-06-04T12:42:51Z</time>
      </trkpt>
      <trkpt lat="49.10793" lon="-1.27462">
        <ele>49.764435</ele>
        <time>2015-06-04T12:42:56Z</time>
      </trkpt>
      <trkpt lat="49.10786" lon="-1.27457">
        <ele>49.764435</ele>
        <time>2015-06-04T12:43:01Z</time>
      </trkpt>
      <trkpt lat="49.10781" lon="-1.27453">
        <ele>49.096657</ele>
        <time>2015-06-04T12:43:06Z</time>
      </trkpt>
      <trkpt lat="49.10776" lon="-1.27447">
        <ele>49.096657</ele>
        <time>2015-06-04T12:43:11Z</time>
      </trkpt>
      <trkpt lat="49.10773" lon="-1.27442">
        <ele>48.527412</ele>
        <time>2015-06-04T12:43:16Z</time>
      </trkpt>
      <trkpt lat="49.10771" lon="-1.27434">
        <ele>48.527412</ele>
        <time>2015-06-04T12:43:21Z</time>
      </trkpt>
      <trkpt lat="49.10769" lon="-1.27423">
        <ele>47.964214</ele>
        <time>2015-06-04T12:43:26Z</time>
      </trkpt>
      <trkpt lat="49.10769" lon="-1.27413">
        <ele>47.964214</ele>
        <time>2015-06-04T12:43:31Z</time>
      </trkpt>
      <trkpt lat="49.10771" lon="-1.27403">
        <ele>47.45102</ele>
        <time>2015-06-04T12:43:36Z</time>
      </trkpt>
      <trkpt lat="49.10769" lon="-1.27396">
        <ele>47.45102</ele>
        <time>2015-06-04T12:43:41Z</time>
      </trkpt>
      <trkpt lat="49.10767" lon="-1.27387">
        <ele>46.88426</ele>
        <time>2015-06-04T12:43:46Z</time>
      </trkpt>
      <trkpt lat="49.10763" lon="-1.27379">
        <ele>46.88426</ele>
        <time>2015-06-04T12:43:51Z</time>
      </trkpt>
      <trkpt lat="49.1076" lon="-1.27373">
        <ele>46.326607</ele>
        <time>2015-06-04T12:43:56Z</time>
      </trkpt>
      <trkpt lat="49.10756" lon="-1.27367">
        <ele>46.326607</ele>
        <time>2015-06-04T12:44:01Z</time>
      </trkpt>
      <trkpt lat="49.10752" lon="-1.27362">
        <ele>45.807255</ele>
        <time>2015-06-04T12:44:06Z</time>
      </trkpt>
      <trkpt lat="49.10747" lon="-1.27355">
        <ele>45.807255</ele>
        <time>2015-06-04T12:44:11Z</time>
      </trkpt>
      <trkpt lat="49.10743" lon="-1.27349">
        <ele>45.367508</ele>
        <time>2015-06-04T12:44:16Z</time>
      </trkpt>
      <trkpt lat="49.10739" lon="-1.27345">
        <ele>45.367508</ele>
        <time>2015-06-04T12:44:21Z</time>
      </trkpt>
      <trkpt lat="49.10734" lon="-1.27339">
        <ele>44.944504</ele>
        <time>2015-06-04T12:44:26Z</time>
      </trkpt>
      <trkpt lat="49.1073" lon="-1.27332">
        <ele>44.944504</ele>
        <time>2015-06-04T12:44:31Z</time>
      </trkpt>
      <trkpt lat="49.10724" lon="-1.27325">
        <ele>44.479904</ele>
        <time>2015-06-04T12:44:36Z</time>
      </trkpt>
      <trkpt lat="49.10721" lon="-1.27321">
        <ele>44.479904</ele>
        <time>2015-06-04T12:44:41Z</time>
      </trkpt>
      <trkpt lat="49.10717" lon="-1.27313">
        <ele>44.06386</ele>
        <time>2015-06-04T12:44:46Z</time>
      </trkpt>
      <trkpt lat="49.10715" lon="-1.27308">
        <ele>44.06386</ele>
        <time>2015-06-04T12:44:51Z</time>
      </trkpt>
      <trkpt lat="49.10716" lon="-1.27304">
        <ele>44.06386</ele>
        <time>2015-06-04T12:44:56Z</time>
      </trkpt>
      <trkpt lat="49.10715" lon="-1.27301">
        <ele>44.06386</ele>
        <time>2015-06-04T12:45:01Z</time>
      </trkpt>
      <trkpt lat="49.10708" lon="-1.27294">
        <ele>43.66443</ele>
        <time>2015-06-04T12:45:06Z</time>
      </trkpt>
      <trkpt lat="49.10706" lon="-1.27287">
        <ele>43.66443</ele>
        <time>2015-06-04T12:45:11Z</time>
      </trkpt>
      <trkpt lat="49.10705" lon="-1.27279">
        <ele>43.208706</ele>
        <time>2015-06-04T12:45:16Z</time>
      </trkpt>
      <trkpt lat="49.10704" lon="-1.27272">
        <ele>43.208706</ele>
        <time>2015-06-04T12:45:21Z</time>
      </trkpt>
      <trkpt lat="49.10702" lon="-1.27267">
        <ele>43.208706</ele>
        <time>2015-06-04T12:45:26Z</time>
      </trkpt>
      <trkpt lat="49.107" lon="-1.27263">
        <ele>42.715733</ele>
        <time>2015-06-04T12:45:31Z</time>
      </trkpt>
      <trkpt lat="49.107" lon="-1.27257">
        <ele>42.715733</ele>
        <time>2015-06-04T12:45:36Z</time>
      </trkpt>
      <trkpt lat="49.10697" lon="-1.27248">
        <ele>42.41939</ele>
        <time>2015-06-04T12:45:41Z</time>
      </trkpt>
      <trkpt lat="49.10696" lon="-1.2724">
        <ele>42.41939</ele>
        <time>2015-06-04T12:45:46Z</time>
      </trkpt>
      <trkpt lat="49.10693" lon="-1.27235">
        <ele>42.20435</ele>
        <time>2015-06-04T12:45:51Z</time>
      </trkpt>
      <trkpt lat="49.10687" lon="-1.27229">
        <ele>42.20435</ele>
        <time>2015-06-04T12:45:56Z</time>
      </trkpt>
      <trkpt lat="49.10681" lon="-1.27224">
        <ele>41.96348</ele>
        <time>2015-06-04T12:46:01Z</time>
      </trkpt>
      <trkpt lat="49.10678" lon="-1.27218">
        <ele>41.96348</ele>
        <time>2015-06-04T12:46:06Z</time>
      </trkpt>
      <trkpt lat="49.10673" lon="-1.27213">
        <ele>41.741703</ele>
        <time>2015-06-04T12:46:11Z</time>
      </trkpt>
      <trkpt lat="49.10668" lon="-1.27208">
        <ele>41.741703</ele>
        <time>2015-06-04T12:46:16Z</time>
      </trkpt>
      <trkpt lat="49.10664" lon="-1.27203">
        <ele>41.609367</ele>
        <time>2015-06-04T12:46:21Z</time>
      </trkpt>
      <trkpt lat="49.10662" lon="-1.27201">
        <ele>41.609367</ele>
        <time>2015-06-04T12:46:26Z</time>
      </trkpt>
      <trkpt lat="49.10659" lon="-1.27198">
        <ele>41.609367</ele>
        <time>2015-06-04T12:46:31Z</time>
      </trkpt>
      <trkpt lat="49.10656" lon="-1.27194">
        <ele>41.70344</ele>
        <time>2015-06-04T12:46:36Z</time>
      </trkpt>
      <trkpt lat="49.10652" lon="-1.2719">
        <ele>41.70344</ele>
        <time>2015-06-04T12:46:41Z</time>
      </trkpt>
      <trkpt lat="49.10649" lon="-1.27186">
        <ele>41.70344</ele>
        <time>2015-06-04T12:46:46Z</time>
      </trkpt>
      <trkpt lat="49.10645" lon="-1.27183">
        <ele>41.991665</ele>
        <time>2015-06-04T12:46:51Z</time>
      </trkpt>
      <trkpt lat="49.10643" lon="-1.27179">
        <ele>41.991665</ele>
        <time>2015-06-04T12:46:56Z</time>
      </trkpt>
      <trkpt lat="49.10638" lon="-1.27168">
        <ele>42.414772</ele>
        <time>2015-06-04T12:47:01Z</time>
      </trkpt>
      <trkpt lat="49.10634" lon="-1.2716">
        <ele>42.414772</ele>
        <time>2015-06-04T12:47:06Z</time>
      </trkpt>
      <trkpt lat="49.10631" lon="-1.27155">
        <ele>42.845398</ele>
        <time>2015-06-04T12:47:11Z</time>
      </trkpt>
      <trkpt lat="49.10628" lon="-1.27151">
        <ele>42.845398</ele>
        <time>2015-06-04T12:47:16Z</time>
      </trkpt>
      <trkpt lat="49.10625" lon="-1.27146">
        <ele>42.845398</ele>
        <time>2015-06-04T12:47:21Z</time>
      </trkpt>
      <trkpt lat="49.10623" lon="-1.27139">
        <ele>43.367287</ele>
        <time>2015-06-04T12:47:26Z</time>
      </trkpt>
      <trkpt lat="49.10621" lon="-1.27132">
        <ele>43.367287</ele>
        <time>2015-06-04T12:47:31Z</time>
      </trkpt>
      <trkpt lat="49.1062" lon="-1.2713">
        <ele>43.367287</ele>
        <time>2015-06-04T12:47:36Z</time>
      </trkpt>
      <trkpt lat="49.10622" lon="-1.27128">
        <ele>43.367287</ele>
        <time>2015-06-04T12:47:41Z</time>
      </trkpt>
      <trkpt lat="49.10622" lon="-1.27128">
        <ele>43.367287</ele>
        <time>2015-06-04T12:47:46Z</time>
      </trkpt>
      <trkpt lat="49.1062" lon="-1.27131">
        <ele>44.173058</ele>
        <time>2015-06-04T12:47:51Z</time>
      </trkpt>
      <trkpt lat="49.10619" lon="-1.27133">
        <ele>44.173058</ele>
        <time>2015-06-04T12:47:56Z</time>
      </trkpt>
      <trkpt lat="49.1062" lon="-1.27133">
        <ele>44.173058</ele>
        <time>2015-06-04T12:48:01Z</time>
      </trkpt>
      <trkpt lat="49.10619" lon="-1.27132">
        <ele>44.173058</ele>
        <time>2015-06-04T12:48:06Z</time>
      </trkpt>
      <trkpt lat="49.10617" lon="-1.27128">
        <ele>44.173058</ele>
        <time>2015-06-04T12:48:11Z</time>
      </trkpt>
      <trkpt lat="49.10614" lon="-1.27123">
        <ele>45.06572</ele>
        <time>2015-06-04T12:48:16Z</time>
      </trkpt>
      <trkpt lat="49.10612" lon="-1.27118">
        <ele>45.06572</ele>
        <time>2015-06-04T12:48:21Z</time>
      </trkpt>
      <trkpt lat="49.10612" lon="-1.27114">
        <ele>45.06572</ele>
        <time>2015-06-04T12:48:26Z</time>
      </trkpt>
      <trkpt lat="49.10608" lon="-1.27107">
        <ele>46.150753</ele>
        <time>2015-06-04T12:48:31Z</time>
      </trkpt>
      <trkpt lat="49.10604" lon="-1.27101">
        <ele>46.150753</ele>
        <time>2015-06-04T12:48:36Z</time>
      </trkpt>
      <trkpt lat="49.106" lon="-1.27094">
        <ele>47.352448</ele>
        <time>2015-06-04T12:48:41Z</time>
      </trkpt>
      <trkpt lat="49.10597" lon="-1.27088">
        <ele>47.352448</ele>
        <time>2015-06-04T12:48:46Z</time>
      </trkpt>
      <trkpt lat="49.10595" lon="-1.27081">
        <ele>48.585957</ele>
        <time>2015-06-04T12:48:51Z</time>
      </trkpt>
      <trkpt lat="49.10594" lon="-1.27075">
        <ele>48.585957</ele>
        <time>2015-06-04T12:48:56Z</time>
      </trkpt>
      <trkpt lat="49.10593" lon="-1.27073">
        <ele>48.585957</ele>
        <time>2015-06-04T12:49:01Z</time>
      </trkpt>
      <trkpt lat="49.10592" lon="-1.27072">
        <ele>48.585957</ele>
        <time>2015-06-04T12:49:06Z</time>
      </trkpt>
      <trkpt lat="49.10592" lon="-1.27071">
        <ele>48.585957</ele>
        <time>2015-06-04T12:49:11Z</time>
      </trkpt>
      <trkpt lat="49.10591" lon="-1.2707">
        <ele>48.585957</ele>
        <time>2015-06-04T12:49:16Z</time>
      </trkpt>
      <trkpt lat="49.10591" lon="-1.27068">
        <ele>49.8591</ele>
        <time>2015-06-04T12:49:21Z</time>
      </trkpt>
      <trkpt lat="49.1059" lon="-1.27067">
        <ele>49.8591</ele>
        <time>2015-06-04T12:49:26Z</time>
      </trkpt>
      <trkpt lat="49.10589" lon="-1.27068">
        <ele>49.8591</ele>
        <time>2015-06-04T12:49:31Z</time>
      </trkpt>
      <trkpt lat="49.1059" lon="-1.27068">
        <ele>49.8591</ele>
        <time>2015-06-04T12:49:36Z</time>
      </trkpt>
      <trkpt lat="49.1059" lon="-1.27069">
        <ele>49.8591</ele>
        <time>2015-06-04T12:49:41Z</time>
      </trkpt>
      <trkpt lat="49.10589" lon="-1.27068">
        <ele>49.8591</ele>
        <time>2015-06-04T12:49:46Z</time>
      </trkpt>
      <trkpt lat="49.1059" lon="-1.27067">
        <ele>49.8591</ele>
        <time>2015-06-04T12:49:51Z</time>
      </trkpt>
      <trkpt lat="49.1059" lon="-1.27068">
        <ele>49.8591</ele>
        <time>2015-06-04T12:49:56Z</time>
      </trkpt>
      <trkpt lat="49.1059" lon="-1.27069">
        <ele>49.8591</ele>
        <time>2015-06-04T12:50:01Z</time>
      </trkpt>
      <trkpt lat="49.10589" lon="-1.2707">
        <ele>49.8591</ele>
        <time>2015-06-04T12:50:06Z</time>
      </trkpt>
      <trkpt lat="49.10589" lon="-1.2707">
        <ele>49.8591</ele>
        <time>2015-06-04T12:50:11Z</time>
      </trkpt>
      <trkpt lat="49.1059" lon="-1.2707">
        <ele>51.193474</ele>
        <time>2015-06-04T12:50:16Z</time>
      </trkpt>
      <trkpt lat="49.10591" lon="-1.27069">
        <ele>51.193474</ele>
        <time>2015-06-04T12:50:21Z</time>
      </trkpt>
      <trkpt lat="49.1059" lon="-1.27067">
        <ele>51.193474</ele>
        <time>2015-06-04T12:50:26Z</time>
      </trkpt>
      <trkpt lat="49.1059" lon="-1.27067">
        <ele>51.193474</ele>
        <time>2015-06-04T12:50:31Z</time>
      </trkpt>
      <trkpt lat="49.1059" lon="-1.27068">
        <ele>51.193474</ele>
        <time>2015-06-04T12:50:36Z</time>
      </trkpt>
      <trkpt lat="49.10591" lon="-1.27068">
        <ele>51.193474</ele>
        <time>2015-06-04T12:50:41Z</time>
      </trkpt>
      <trkpt lat="49.10591" lon="-1.27069">
        <ele>51.193474</ele>
        <time>2015-06-04T12:50:46Z</time>
      </trkpt>
      <trkpt lat="49.10591" lon="-1.2707">
        <ele>51.193474</ele>
        <time>2015-06-04T12:50:51Z</time>
      </trkpt>
      <trkpt lat="49.10594" lon="-1.27077">
        <ele>52.21989</ele>
        <time>2015-06-04T12:50:56Z</time>
      </trkpt>
      <trkpt lat="49.10594" lon="-1.27077">
        <ele>52.21989</ele>
        <time>2015-06-04T12:51:01Z</time>
      </trkpt>
      <trkpt lat="49.10594" lon="-1.27077">
        <ele>52.21989</ele>
        <time>2015-06-04T12:51:06Z</time>
      </trkpt>
      <trkpt lat="49.10594" lon="-1.27076">
        <ele>52.21989</ele>
        <time>2015-06-04T12:51:11Z</time>
      </trkpt>
      <trkpt lat="49.10592" lon="-1.27075">
        <ele>52.21989</ele>
        <time>2015-06-04T12:51:16Z</time>
      </trkpt>
      <trkpt lat="49.10591" lon="-1.27073">
        <ele>52.21989</ele>
        <time>2015-06-04T12:51:21Z</time>
      </trkpt>
      <trkpt lat="49.10591" lon="-1.2707">
        <ele>52.21989</ele>
        <time>2015-06-04T12:51:26Z</time>
      </trkpt>
      <trkpt lat="49.10589" lon="-1.27066">
        <ele>53.38983</ele>
        <time>2015-06-04T12:51:31Z</time>
      </trkpt>
      <trkpt lat="49.10585" lon="-1.27062">
        <ele>53.38983</ele>
        <time>2015-06-04T12:51:36Z</time>
      </trkpt>
      <trkpt lat="49.10581" lon="-1.27058">
        <ele>54.44397</ele>
        <time>2015-06-04T12:51:41Z</time>
      </trkpt>
      <trkpt lat="49.10578" lon="-1.27055">
        <ele>54.44397</ele>
        <time>2015-06-04T12:51:46Z</time>
      </trkpt>
      <trkpt lat="49.10575" lon="-1.27051">
        <ele>54.44397</ele>
        <time>2015-06-04T12:51:51Z</time>
      </trkpt>
      <trkpt lat="49.10573" lon="-1.27045">
        <ele>55.445065</ele>
        <time>2015-06-04T12:51:56Z</time>
      </trkpt>
      <trkpt lat="49.1057" lon="-1.27038">
        <ele>55.445065</ele>
        <time>2015-06-04T12:52:01Z</time>
      </trkpt>
      <trkpt lat="49.10568" lon="-1.2703">
        <ele>56.408283</ele>
        <time>2015-06-04T12:52:06Z</time>
      </trkpt>
      <trkpt lat="49.10565" lon="-1.27023">
        <ele>56.408283</ele>
        <time>2015-06-04T12:52:11Z</time>
      </trkpt>
      <trkpt lat="49.10562" lon="-1.27017">
        <ele>57.40551</ele>
        <time>2015-06-04T12:52:16Z</time>
      </trkpt>
      <trkpt lat="49.10558" lon="-1.27012">
        <ele>57.40551</ele>
        <time>2015-06-04T12:52:21Z</time>
      </trkpt>
      <trkpt lat="49.10555" lon="-1.27007">
        <ele>58.41688</ele>
        <time>2015-06-04T12:52:26Z</time>
      </trkpt>
      <trkpt lat="49.10552" lon="-1.27005">
        <ele>58.41688</ele>
        <time>2015-06-04T12:52:31Z</time>
      </trkpt>
      <trkpt lat="49.10547" lon="-1.27002">
        <ele>58.41688</ele>
        <time>2015-06-04T12:52:36Z</time>
      </trkpt>
      <trkpt lat="49.10541" lon="-1.27001">
        <ele>59.40965</ele>
        <time>2015-06-04T12:52:41Z</time>
      </trkpt>
      <trkpt lat="49.10534" lon="-1.27001">
        <ele>59.40965</ele>
        <time>2015-06-04T12:52:46Z</time>
      </trkpt>
      <trkpt lat="49.10527" lon="-1.27001">
        <ele>60.368023</ele>
        <time>2015-06-04T12:52:51Z</time>
      </trkpt>
      <trkpt lat="49.10521" lon="-1.26999">
        <ele>60.368023</ele>
        <time>2015-06-04T12:52:56Z</time>
      </trkpt>
      <trkpt lat="49.10515" lon="-1.26999">
        <ele>61.263157</ele>
        <time>2015-06-04T12:53:01Z</time>
      </trkpt>
      <trkpt lat="49.10509" lon="-1.26998">
        <ele>61.263157</ele>
        <time>2015-06-04T12:53:06Z</time>
      </trkpt>
      <trkpt lat="49.10506" lon="-1.26998">
        <ele>62.083008</ele>
        <time>2015-06-04T12:53:11Z</time>
      </trkpt>
      <trkpt lat="49.105" lon="-1.26997">
        <ele>62.083008</ele>
        <time>2015-06-04T12:53:16Z</time>
      </trkpt>
      <trkpt lat="49.10494" lon="-1.26999">
        <ele>62.874382</ele>
        <time>2015-06-04T12:53:21Z</time>
      </trkpt>
      <trkpt lat="49.10488" lon="-1.26999">
        <ele>62.874382</ele>
        <time>2015-06-04T12:53:26Z</time>
      </trkpt>
      <trkpt lat="49.10484" lon="-1.26999">
        <ele>63.608753</ele>
        <time>2015-06-04T12:53:31Z</time>
      </trkpt>
      <trkpt lat="49.10478" lon="-1.26998">
        <ele>63.608753</ele>
        <time>2015-06-04T12:53:36Z</time>
      </trkpt>
      <trkpt lat="49.10472" lon="-1.26995">
        <ele>64.36083</ele>
        <time>2015-06-04T12:53:41Z</time>
      </trkpt>
      <trkpt lat="49.10465" lon="-1.26993">
        <ele>64.36083</ele>
        <time>2015-06-04T12:53:46Z</time>
      </trkpt>
      <trkpt lat="49.1046" lon="-1.26993">
        <ele>65.07018</ele>
        <time>2015-06-04T12:53:51Z</time>
      </trkpt>
      <trkpt lat="49.10455" lon="-1.26993">
        <ele>65.07018</ele>
        <time>2015-06-04T12:53:56Z</time>
      </trkpt>
      <trkpt lat="49.10451" lon="-1.26993">
        <ele>65.7963</ele>
        <time>2015-06-04T12:54:01Z</time>
      </trkpt>
      <trkpt lat="49.10445" lon="-1.26993">
        <ele>65.7963</ele>
        <time>2015-06-04T12:54:06Z</time>
      </trkpt>
      <trkpt lat="49.1044" lon="-1.26992">
        <ele>66.46466</ele>
        <time>2015-06-04T12:54:11Z</time>
      </trkpt>
      <trkpt lat="49.10433" lon="-1.26991">
        <ele>66.46466</ele>
        <time>2015-06-04T12:54:16Z</time>
      </trkpt>
      <trkpt lat="49.10428" lon="-1.2699">
        <ele>67.10732</ele>
        <time>2015-06-04T12:54:21Z</time>
      </trkpt>
      <trkpt lat="49.10423" lon="-1.26989">
        <ele>67.10732</ele>
        <time>2015-06-04T12:54:26Z</time>
      </trkpt>
      <trkpt lat="49.10416" lon="-1.26988">
        <ele>67.79739</ele>
        <time>2015-06-04T12:54:31Z</time>
      </trkpt>
      <trkpt lat="49.10411" lon="-1.26987">
        <ele>67.79739</ele>
        <time>2015-06-04T12:54:36Z</time>
      </trkpt>
      <trkpt lat="49.10405" lon="-1.26986">
        <ele>68.44401</ele>
        <time>2015-06-04T12:54:41Z</time>
      </trkpt>
      <trkpt lat="49.10401" lon="-1.26984">
        <ele>68.44401</ele>
        <time>2015-06-04T12:54:46Z</time>
      </trkpt>
      <trkpt lat="49.10395" lon="-1.2698">
        <ele>68.977615</ele>
        <time>2015-06-04T12:54:51Z</time>
      </trkpt>
      <trkpt lat="49.10387" lon="-1.26976">
        <ele>68.977615</ele>
        <time>2015-06-04T12:54:56Z</time>
      </trkpt>
      <trkpt lat="49.10383" lon="-1.26977">
        <ele>69.42059</ele>
        <time>2015-06-04T12:55:01Z</time>
      </trkpt>
      <trkpt lat="49.10379" lon="-1.26979">
        <ele>69.42059</ele>
        <time>2015-06-04T12:55:06Z</time>
      </trkpt>
      <trkpt lat="49.10374" lon="-1.26983">
        <ele>69.69314</ele>
        <time>2015-06-04T12:55:11Z</time>
      </trkpt>
      <trkpt lat="49.1037" lon="-1.26987">
        <ele>69.69314</ele>
        <time>2015-06-04T12:55:16Z</time>
      </trkpt>
      <trkpt lat="49.10366" lon="-1.2699">
        <ele>69.89477</ele>
        <time>2015-06-04T12:55:21Z</time>
      </trkpt>
      <trkpt lat="49.10362" lon="-1.26994">
        <ele>69.89477</ele>
        <time>2015-06-04T12:55:26Z</time>
      </trkpt>
      <trkpt lat="49.10357" lon="-1.26998">
        <ele>70.11796</ele>
        <time>2015-06-04T12:55:31Z</time>
      </trkpt>
      <trkpt lat="49.10353" lon="-1.26995">
        <ele>70.11796</ele>
        <time>2015-06-04T12:55:36Z</time>
      </trkpt>
      <trkpt lat="49.10349" lon="-1.2699">
        <ele>70.37631</ele>
        <time>2015-06-04T12:55:41Z</time>
      </trkpt>
      <trkpt lat="49.10345" lon="-1.26984">
        <ele>70.37631</ele>
        <time>2015-06-04T12:55:46Z</time>
      </trkpt>
      <trkpt lat="49.10342" lon="-1.26978">
        <ele>70.61032</ele>
        <time>2015-06-04T12:55:51Z</time>
      </trkpt>
      <trkpt lat="49.10339" lon="-1.26969">
        <ele>70.61032</ele>
        <time>2015-06-04T12:55:56Z</time>
      </trkpt>
      <trkpt lat="49.10336" lon="-1.26964">
        <ele>70.86583</ele>
        <time>2015-06-04T12:56:01Z</time>
      </trkpt>
      <trkpt lat="49.10333" lon="-1.26957">
        <ele>70.86583</ele>
        <time>2015-06-04T12:56:06Z</time>
      </trkpt>
      <trkpt lat="49.10331" lon="-1.2695">
        <ele>70.997955</ele>
        <time>2015-06-04T12:56:11Z</time>
      </trkpt>
      <trkpt lat="49.10328" lon="-1.26942">
        <ele>70.997955</ele>
        <time>2015-06-04T12:56:16Z</time>
      </trkpt>
      <trkpt lat="49.10324" lon="-1.26933">
        <ele>71.17545</ele>
        <time>2015-06-04T12:56:21Z</time>
      </trkpt>
      <trkpt lat="49.10323" lon="-1.26926">
        <ele>71.17545</ele>
        <time>2015-06-04T12:56:26Z</time>
      </trkpt>
      <trkpt lat="49.10321" lon="-1.26918">
        <ele>71.38164</ele>
        <time>2015-06-04T12:56:31Z</time>
      </trkpt>
      <trkpt lat="49.10317" lon="-1.26912">
        <ele>71.38164</ele>
        <time>2015-06-04T12:56:36Z</time>
      </trkpt>
      <trkpt lat="49.10315" lon="-1.26907">
        <ele>71.60099</ele>
        <time>2015-06-04T12:56:41Z</time>
      </trkpt>
      <trkpt lat="49.10313" lon="-1.26902">
        <ele>71.60099</ele>
        <time>2015-06-04T12:56:46Z</time>
      </trkpt>
      <trkpt lat="49.1031" lon="-1.26896">
        <ele>71.60099</ele>
        <time>2015-06-04T12:56:51Z</time>
      </trkpt>
      <trkpt lat="49.10307" lon="-1.2689">
        <ele>71.77588</ele>
        <time>2015-06-04T12:56:56Z</time>
      </trkpt>
      <trkpt lat="49.10304" lon="-1.26886">
        <ele>71.77588</ele>
        <time>2015-06-04T12:57:01Z</time>
      </trkpt>
      <trkpt lat="49.10301" lon="-1.26883">
        <ele>71.77588</ele>
        <time>2015-06-04T12:57:06Z</time>
      </trkpt>
      <trkpt lat="49.10299" lon="-1.26877">
        <ele>71.79539</ele>
        <time>2015-06-04T12:57:11Z</time>
      </trkpt>
      <trkpt lat="49.10298" lon="-1.26871">
        <ele>71.79539</ele>
        <time>2015-06-04T12:57:16Z</time>
      </trkpt>
      <trkpt lat="49.10294" lon="-1.26861">
        <ele>71.7013</ele>
        <time>2015-06-04T12:57:21Z</time>
      </trkpt>
      <trkpt lat="49.10289" lon="-1.26853">
        <ele>71.7013</ele>
        <time>2015-06-04T12:57:26Z</time>
      </trkpt>
      <trkpt lat="49.10286" lon="-1.26846">
        <ele>71.56147</ele>
        <time>2015-06-04T12:57:31Z</time>
      </trkpt>
      <trkpt lat="49.10279" lon="-1.26834">
        <ele>71.36683</ele>
        <time>2015-06-04T12:57:36Z</time>
      </trkpt>
      <trkpt lat="49.10275" lon="-1.26828">
        <ele>71.36683</ele>
        <time>2015-06-04T12:57:41Z</time>
      </trkpt>
      <trkpt lat="49.10272" lon="-1.26819">
        <ele>71.22441</ele>
        <time>2015-06-04T12:57:46Z</time>
      </trkpt>
      <trkpt lat="49.10269" lon="-1.26814">
        <ele>71.22441</ele>
        <time>2015-06-04T12:57:51Z</time>
      </trkpt>
      <trkpt lat="49.10266" lon="-1.26809">
        <ele>71.03147</ele>
        <time>2015-06-04T12:57:56Z</time>
      </trkpt>
      <trkpt lat="49.10261" lon="-1.26791">
        <ele>70.83702</ele>
        <time>2015-06-04T12:58:01Z</time>
      </trkpt>
      <trkpt lat="49.10257" lon="-1.26781">
        <ele>70.83702</ele>
        <time>2015-06-04T12:58:06Z</time>
      </trkpt>
      <trkpt lat="49.10254" lon="-1.26771">
        <ele>70.873825</ele>
        <time>2015-06-04T12:58:11Z</time>
      </trkpt>
      <trkpt lat="49.10251" lon="-1.26763">
        <ele>70.873825</ele>
        <time>2015-06-04T12:58:16Z</time>
      </trkpt>
      <trkpt lat="49.10247" lon="-1.26755">
        <ele>71.0254</ele>
        <time>2015-06-04T12:58:21Z</time>
      </trkpt>
      <trkpt lat="49.10245" lon="-1.26748">
        <ele>71.0254</ele>
        <time>2015-06-04T12:58:26Z</time>
      </trkpt>
      <trkpt lat="49.10243" lon="-1.26741">
        <ele>71.313156</ele>
        <time>2015-06-04T12:58:31Z</time>
      </trkpt>
      <trkpt lat="49.10241" lon="-1.26733">
        <ele>71.313156</ele>
        <time>2015-06-04T12:58:36Z</time>
      </trkpt>
      <trkpt lat="49.10238" lon="-1.26725">
        <ele>71.65566</ele>
        <time>2015-06-04T12:58:41Z</time>
      </trkpt>
      <trkpt lat="49.10235" lon="-1.26718">
        <ele>71.65566</ele>
        <time>2015-06-04T12:58:46Z</time>
      </trkpt>
      <trkpt lat="49.10231" lon="-1.26711">
        <ele>72.06373</ele>
        <time>2015-06-04T12:58:51Z</time>
      </trkpt>
      <trkpt lat="49.10228" lon="-1.26705">
        <ele>72.06373</ele>
        <time>2015-06-04T12:58:56Z</time>
      </trkpt>
      <trkpt lat="49.10225" lon="-1.26697">
        <ele>72.43187</ele>
        <time>2015-06-04T12:59:01Z</time>
      </trkpt>
      <trkpt lat="49.10223" lon="-1.26689">
        <ele>72.43187</ele>
        <time>2015-06-04T12:59:06Z</time>
      </trkpt>
      <trkpt lat="49.10219" lon="-1.2668">
        <ele>72.74892</ele>
        <time>2015-06-04T12:59:11Z</time>
      </trkpt>
      <trkpt lat="49.10218" lon="-1.2667">
        <ele>72.74892</ele>
        <time>2015-06-04T12:59:16Z</time>
      </trkpt>
      <trkpt lat="49.10215" lon="-1.26661">
        <ele>73.062256</ele>
        <time>2015-06-04T12:59:21Z</time>
      </trkpt>
      <trkpt lat="49.10213" lon="-1.26654">
        <ele>73.062256</ele>
        <time>2015-06-04T12:59:26Z</time>
      </trkpt>
      <trkpt lat="49.1021" lon="-1.2665">
        <ele>73.062256</ele>
        <time>2015-06-04T12:59:31Z</time>
      </trkpt>
      <trkpt lat="49.1021" lon="-1.26645">
        <ele>73.40138</ele>
        <time>2015-06-04T12:59:36Z</time>
      </trkpt>
      <trkpt lat="49.10213" lon="-1.2664">
        <ele>73.40138</ele>
        <time>2015-06-04T12:59:41Z</time>
      </trkpt>
      <trkpt lat="49.10215" lon="-1.26637">
        <ele>73.40138</ele>
        <time>2015-06-04T12:59:46Z</time>
      </trkpt>
      <trkpt lat="49.10218" lon="-1.26635">
        <ele>73.764694</ele>
        <time>2015-06-04T12:59:51Z</time>
      </trkpt>
      <trkpt lat="49.10217" lon="-1.26634">
        <ele>73.764694</ele>
        <time>2015-06-04T12:59:56Z</time>
      </trkpt>
      <trkpt lat="49.10216" lon="-1.26635">
        <ele>73.764694</ele>
        <time>2015-06-04T13:00:01Z</time>
      </trkpt>
      <trkpt lat="49.10214" lon="-1.26638">
        <ele>73.764694</ele>
        <time>2015-06-04T13:00:06Z</time>
      </trkpt>
      <trkpt lat="49.10212" lon="-1.26641">
        <ele>73.764694</ele>
        <time>2015-06-04T13:00:11Z</time>
      </trkpt>
      <trkpt lat="49.10208" lon="-1.2664">
        <ele>73.92004</ele>
        <time>2015-06-04T13:00:16Z</time>
      </trkpt>
      <trkpt lat="49.10204" lon="-1.26634">
        <ele>73.92004</ele>
        <time>2015-06-04T13:00:21Z</time>
      </trkpt>
      <trkpt lat="49.10202" lon="-1.26628">
        <ele>74.01314</ele>
        <time>2015-06-04T13:00:26Z</time>
      </trkpt>
      <trkpt lat="49.10198" lon="-1.2662">
        <ele>74.01314</ele>
        <time>2015-06-04T13:00:31Z</time>
      </trkpt>
      <trkpt lat="49.10195" lon="-1.26614">
        <ele>74.10714</ele>
        <time>2015-06-04T13:00:36Z</time>
      </trkpt>
      <trkpt lat="49.10193" lon="-1.26606">
        <ele>74.10714</ele>
        <time>2015-06-04T13:00:41Z</time>
      </trkpt>
      <trkpt lat="49.10189" lon="-1.266">
        <ele>74.1452</ele>
        <time>2015-06-04T13:00:46Z</time>
      </trkpt>
      <trkpt lat="49.10187" lon="-1.26593">
        <ele>74.1452</ele>
        <time>2015-06-04T13:00:51Z</time>
      </trkpt>
      <trkpt lat="49.10183" lon="-1.26586">
        <ele>74.10362</ele>
        <time>2015-06-04T13:00:56Z</time>
      </trkpt>
      <trkpt lat="49.1018" lon="-1.26579">
        <ele>74.10362</ele>
        <time>2015-06-04T13:01:01Z</time>
      </trkpt>
      <trkpt lat="49.10176" lon="-1.26571">
        <ele>74.01829</ele>
        <time>2015-06-04T13:01:06Z</time>
      </trkpt>
      <trkpt lat="49.10174" lon="-1.26566">
        <ele>74.01829</ele>
        <time>2015-06-04T13:01:11Z</time>
      </trkpt>
      <trkpt lat="49.10171" lon="-1.2656">
        <ele>73.95135</ele>
        <time>2015-06-04T13:01:16Z</time>
      </trkpt>
      <trkpt lat="49.10167" lon="-1.26555">
        <ele>73.95135</ele>
        <time>2015-06-04T13:01:21Z</time>
      </trkpt>
      <trkpt lat="49.10162" lon="-1.26548">
        <ele>73.84503</ele>
        <time>2015-06-04T13:01:26Z</time>
      </trkpt>
      <trkpt lat="49.10158" lon="-1.26543">
        <ele>73.84503</ele>
        <time>2015-06-04T13:01:31Z</time>
      </trkpt>
      <trkpt lat="49.10153" lon="-1.26536">
        <ele>73.76117</ele>
        <time>2015-06-04T13:01:36Z</time>
      </trkpt>
      <trkpt lat="49.10146" lon="-1.26531">
        <ele>73.76117</ele>
        <time>2015-06-04T13:01:41Z</time>
      </trkpt>
      <trkpt lat="49.10142" lon="-1.26528">
        <ele>73.670494</ele>
        <time>2015-06-04T13:01:46Z</time>
      </trkpt>
      <trkpt lat="49.10137" lon="-1.26524">
        <ele>73.670494</ele>
        <time>2015-06-04T13:01:51Z</time>
      </trkpt>
      <trkpt lat="49.1013" lon="-1.26519">
        <ele>73.57469</ele>
        <time>2015-06-04T13:01:56Z</time>
      </trkpt>
      <trkpt lat="49.10126" lon="-1.26515">
        <ele>73.57469</ele>
        <time>2015-06-04T13:02:01Z</time>
      </trkpt>
      <trkpt lat="49.1012" lon="-1.2651">
        <ele>73.403244</ele>
        <time>2015-06-04T13:02:06Z</time>
      </trkpt>
      <trkpt lat="49.10115" lon="-1.26505">
        <ele>73.403244</ele>
        <time>2015-06-04T13:02:11Z</time>
      </trkpt>
      <trkpt lat="49.1011" lon="-1.26499">
        <ele>73.2351</ele>
        <time>2015-06-04T13:02:16Z</time>
      </trkpt>
      <trkpt lat="49.10105" lon="-1.26496">
        <ele>73.2351</ele>
        <time>2015-06-04T13:02:21Z</time>
      </trkpt>
      <trkpt lat="49.101" lon="-1.26493">
        <ele>73.12897</ele>
        <time>2015-06-04T13:02:26Z</time>
      </trkpt>
      <trkpt lat="49.10095" lon="-1.2649">
        <ele>73.12897</ele>
        <time>2015-06-04T13:02:31Z</time>
      </trkpt>
      <trkpt lat="49.1009" lon="-1.26487">
        <ele>72.980484</ele>
        <time>2015-06-04T13:02:36Z</time>
      </trkpt>
      <trkpt lat="49.10085" lon="-1.26486">
        <ele>72.980484</ele>
        <time>2015-06-04T13:02:41Z</time>
      </trkpt>
      <trkpt lat="49.10078" lon="-1.26484">
        <ele>72.808334</ele>
        <time>2015-06-04T13:02:46Z</time>
      </trkpt>
      <trkpt lat="49.10072" lon="-1.26481">
        <ele>72.808334</ele>
        <time>2015-06-04T13:02:51Z</time>
      </trkpt>
      <trkpt lat="49.10066" lon="-1.26479">
        <ele>72.601036</ele>
        <time>2015-06-04T13:02:56Z</time>
      </trkpt>
      <trkpt lat="49.10061" lon="-1.26476">
        <ele>72.601036</ele>
        <time>2015-06-04T13:03:01Z</time>
      </trkpt>
      <trkpt lat="49.10057" lon="-1.26479">
        <ele>72.36242</ele>
        <time>2015-06-04T13:03:06Z</time>
      </trkpt>
      <trkpt lat="49.10051" lon="-1.2648">
        <ele>72.36242</ele>
        <time>2015-06-04T13:03:11Z</time>
      </trkpt>
      <trkpt lat="49.10049" lon="-1.26481">
        <ele>72.36242</ele>
        <time>2015-06-04T13:03:16Z</time>
      </trkpt>
      <trkpt lat="49.10045" lon="-1.26482">
        <ele>72.09608</ele>
        <time>2015-06-04T13:03:21Z</time>
      </trkpt>
      <trkpt lat="49.10042" lon="-1.26482">
        <ele>72.09608</ele>
        <time>2015-06-04T13:03:26Z</time>
      </trkpt>
      <trkpt lat="49.10041" lon="-1.26481">
        <ele>72.09608</ele>
        <time>2015-06-04T13:03:31Z</time>
      </trkpt>
      <trkpt lat="49.1004" lon="-1.26481">
        <ele>72.09608</ele>
        <time>2015-06-04T13:03:36Z</time>
      </trkpt>
      <trkpt lat="49.10039" lon="-1.2648">
        <ele>72.09608</ele>
        <time>2015-06-04T13:03:41Z</time>
      </trkpt>
      <trkpt lat="49.10036" lon="-1.26481">
        <ele>71.69008</ele>
        <time>2015-06-04T13:03:46Z</time>
      </trkpt>
      <trkpt lat="49.10032" lon="-1.26481">
        <ele>71.69008</ele>
        <time>2015-06-04T13:03:51Z</time>
      </trkpt>
      <trkpt lat="49.10027" lon="-1.26479">
        <ele>71.242836</ele>
        <time>2015-06-04T13:03:56Z</time>
      </trkpt>
      <trkpt lat="49.10019" lon="-1.26479">
        <ele>71.242836</ele>
        <time>2015-06-04T13:04:01Z</time>
      </trkpt>
      <trkpt lat="49.10015" lon="-1.26479">
        <ele>70.78794</ele>
        <time>2015-06-04T13:04:06Z</time>
      </trkpt>
      <trkpt lat="49.10009" lon="-1.26478">
        <ele>70.78794</ele>
        <time>2015-06-04T13:04:11Z</time>
      </trkpt>
      <trkpt lat="49.10003" lon="-1.2648">
        <ele>70.298874</ele>
        <time>2015-06-04T13:04:16Z</time>
      </trkpt>
      <trkpt lat="49.09997" lon="-1.26479">
        <ele>70.298874</ele>
        <time>2015-06-04T13:04:21Z</time>
      </trkpt>
      <trkpt lat="49.0999" lon="-1.26479">
        <ele>69.79431</ele>
        <time>2015-06-04T13:04:26Z</time>
      </trkpt>
      <trkpt lat="49.09985" lon="-1.26479">
        <ele>69.79431</ele>
        <time>2015-06-04T13:04:31Z</time>
      </trkpt>
      <trkpt lat="49.09979" lon="-1.26478">
        <ele>69.34922</ele>
        <time>2015-06-04T13:04:36Z</time>
      </trkpt>
      <trkpt lat="49.09974" lon="-1.26477">
        <ele>69.34922</ele>
        <time>2015-06-04T13:04:41Z</time>
      </trkpt>
      <trkpt lat="49.0997" lon="-1.26476">
        <ele>69.34922</ele>
        <time>2015-06-04T13:04:46Z</time>
      </trkpt>
      <trkpt lat="49.09966" lon="-1.26477">
        <ele>68.91755</ele>
        <time>2015-06-04T13:04:51Z</time>
      </trkpt>
      <trkpt lat="49.09965" lon="-1.2648">
        <ele>68.91755</ele>
        <time>2015-06-04T13:04:56Z</time>
      </trkpt>
      <trkpt lat="49.09967" lon="-1.26486">
        <ele>68.91755</ele>
        <time>2015-06-04T13:05:01Z</time>
      </trkpt>
      <trkpt lat="49.09971" lon="-1.26495">
        <ele>68.35566</ele>
        <time>2015-06-04T13:05:06Z</time>
      </trkpt>
      <trkpt lat="49.09973" lon="-1.26501">
        <ele>68.35566</ele>
        <time>2015-06-04T13:05:11Z</time>
      </trkpt>
      <trkpt lat="49.09973" lon="-1.26503">
        <ele>68.35566</ele>
        <time>2015-06-04T13:05:16Z</time>
      </trkpt>
      <trkpt lat="49.09973" lon="-1.26504">
        <ele>68.35566</ele>
        <time>2015-06-04T13:05:21Z</time>
      </trkpt>
      <trkpt lat="49.09975" lon="-1.26506">
        <ele>68.35566</ele>
        <time>2015-06-04T13:05:26Z</time>
      </trkpt>
      <trkpt lat="49.09976" lon="-1.2651">
        <ele>67.71812</ele>
        <time>2015-06-04T13:05:31Z</time>
      </trkpt>
      <trkpt lat="49.09977" lon="-1.26511">
        <ele>67.71812</ele>
        <time>2015-06-04T13:05:36Z</time>
      </trkpt>
      <trkpt lat="49.09977" lon="-1.26512">
        <ele>67.71812</ele>
        <time>2015-06-04T13:05:41Z</time>
      </trkpt>
      <trkpt lat="49.09977" lon="-1.26512">
        <ele>67.71812</ele>
        <time>2015-06-04T13:05:46Z</time>
      </trkpt>
      <trkpt lat="49.09978" lon="-1.26512">
        <ele>67.71812</ele>
        <time>2015-06-04T13:05:51Z</time>
      </trkpt>
      <trkpt lat="49.09978" lon="-1.26511">
        <ele>67.71812</ele>
        <time>2015-06-04T13:05:56Z</time>
      </trkpt>
      <trkpt lat="49.09978" lon="-1.26511">
        <ele>67.71812</ele>
        <time>2015-06-04T13:06:01Z</time>
      </trkpt>
      <trkpt lat="49.09979" lon="-1.26511">
        <ele>67.71812</ele>
        <time>2015-06-04T13:06:06Z</time>
      </trkpt>
      <trkpt lat="49.09979" lon="-1.26511">
        <ele>67.71812</ele>
        <time>2015-06-04T13:06:11Z</time>
      </trkpt>
      <trkpt lat="49.09979" lon="-1.26505">
        <ele>67.18535</ele>
        <time>2015-06-04T13:50:45Z</time>
      </trkpt>
      <trkpt lat="49.09979" lon="-1.26504">
        <ele>67.18535</ele>
        <time>2015-06-04T13:50:50Z</time>
      </trkpt>
      <trkpt lat="49.09979" lon="-1.26505">
        <ele>67.18535</ele>
        <time>2015-06-04T13:50:55Z</time>
      </trkpt>
      <trkpt lat="49.09979" lon="-1.26505">
        <ele>67.18535</ele>
        <time>2015-06-04T13:51:00Z</time>
      </trkpt>
      <trkpt lat="49.09979" lon="-1.26504">
        <ele>67.18535</ele>
        <time>2015-06-04T13:51:40Z</time>
      </trkpt>
      <trkpt lat="49.09979" lon="-1.26504">
        <ele>67.18535</ele>
        <time>2015-06-04T13:51:45Z</time>
      </trkpt>
      <trkpt lat="49.09979" lon="-1.26506">
        <ele>67.18535</ele>
        <time>2015-06-04T13:55:05Z</time>
      </trkpt>
      <trkpt lat="49.09979" lon="-1.26506">
        <ele>67.18535</ele>
        <time>2015-06-04T13:55:10Z</time>
      </trkpt>
      <trkpt lat="49.09975" lon="-1.26498">
        <ele>67.18535</ele>
        <time>2015-06-04T13:55:30Z</time>
      </trkpt>
      <trkpt lat="49.09974" lon="-1.26497">
        <ele>66.78005</ele>
        <time>2015-06-04T13:55:35Z</time>
      </trkpt>
      <trkpt lat="49.09974" lon="-1.26497">
        <ele>66.78005</ele>
        <time>2015-06-04T13:55:40Z</time>
      </trkpt>
      <trkpt lat="49.09974" lon="-1.26497">
        <ele>66.78005</ele>
        <time>2015-06-04T13:56:00Z</time>
      </trkpt>
      <trkpt lat="49.09974" lon="-1.26497">
        <ele>66.78005</ele>
        <time>2015-06-04T13:56:05Z</time>
      </trkpt>
      <trkpt lat="49.09974" lon="-1.26495">
        <ele>66.78005</ele>
        <time>2015-06-04T13:56:10Z</time>
      </trkpt>
      <trkpt lat="49.09974" lon="-1.26495">
        <ele>66.78005</ele>
        <time>2015-06-04T13:56:15Z</time>
      </trkpt>
      <trkpt lat="49.09973" lon="-1.26494">
        <ele>66.78005</ele>
        <time>2015-06-04T13:56:30Z</time>
      </trkpt>
      <trkpt lat="49.09969" lon="-1.26487">
        <ele>66.465225</ele>
        <time>2015-06-04T13:56:35Z</time>
      </trkpt>
      <trkpt lat="49.09966" lon="-1.26479">
        <ele>66.465225</ele>
        <time>2015-06-04T13:56:40Z</time>
      </trkpt>
      <trkpt lat="49.09962" lon="-1.26474">
        <ele>66.465645</ele>
        <time>2015-06-04T13:56:45Z</time>
      </trkpt>
      <trkpt lat="49.09956" lon="-1.26474">
        <ele>66.465645</ele>
        <time>2015-06-04T13:56:50Z</time>
      </trkpt>
      <trkpt lat="49.09954" lon="-1.26475">
        <ele>66.465645</ele>
        <time>2015-06-04T13:56:55Z</time>
      </trkpt>
      <trkpt lat="49.09954" lon="-1.26475">
        <ele>66.465645</ele>
        <time>2015-06-04T13:57:00Z</time>
      </trkpt>
      <trkpt lat="49.09952" lon="-1.26475">
        <ele>66.48427</ele>
        <time>2015-06-04T13:57:10Z</time>
      </trkpt>
      <trkpt lat="49.09951" lon="-1.26474">
        <ele>66.48427</ele>
        <time>2015-06-04T13:57:15Z</time>
      </trkpt>
      <trkpt lat="49.09949" lon="-1.26475">
        <ele>66.48427</ele>
        <time>2015-06-04T13:57:20Z</time>
      </trkpt>
      <trkpt lat="49.09948" lon="-1.26476">
        <ele>66.48427</ele>
        <time>2015-06-04T13:57:25Z</time>
      </trkpt>
      <trkpt lat="49.09945" lon="-1.26477">
        <ele>66.48427</ele>
        <time>2015-06-04T13:57:30Z</time>
      </trkpt>
      <trkpt lat="49.09944" lon="-1.2648">
        <ele>66.461945</ele>
        <time>2015-06-04T13:57:35Z</time>
      </trkpt>
      <trkpt lat="49.09943" lon="-1.2648">
        <ele>66.461945</ele>
        <time>2015-06-04T13:57:40Z</time>
      </trkpt>
      <trkpt lat="49.09943" lon="-1.26481">
        <ele>66.461945</ele>
        <time>2015-06-04T13:57:45Z</time>
      </trkpt>
      <trkpt lat="49.09943" lon="-1.26482">
        <ele>66.461945</ele>
        <time>2015-06-04T13:57:50Z</time>
      </trkpt>
      <trkpt lat="49.09941" lon="-1.26483">
        <ele>66.461945</ele>
        <time>2015-06-04T13:57:55Z</time>
      </trkpt>
      <trkpt lat="49.0994" lon="-1.26483">
        <ele>66.461945</ele>
        <time>2015-06-04T13:58:00Z</time>
      </trkpt>
      <trkpt lat="49.0994" lon="-1.26484">
        <ele>66.461945</ele>
        <time>2015-06-04T13:58:05Z</time>
      </trkpt>
      <trkpt lat="49.09936" lon="-1.2649">
        <ele>66.47363</ele>
        <time>2015-06-04T13:58:10Z</time>
      </trkpt>
      <trkpt lat="49.09938" lon="-1.26502">
        <ele>66.47363</ele>
        <time>2015-06-04T13:58:15Z</time>
      </trkpt>
      <trkpt lat="49.09942" lon="-1.26509">
        <ele>66.60305</ele>
        <time>2015-06-04T13:58:20Z</time>
      </trkpt>
      <trkpt lat="49.09945" lon="-1.26514">
        <ele>66.60305</ele>
        <time>2015-06-04T13:58:25Z</time>
      </trkpt>
      <trkpt lat="49.09948" lon="-1.26522">
        <ele>66.88417</ele>
        <time>2015-06-04T13:58:30Z</time>
      </trkpt>
      <trkpt lat="49.09951" lon="-1.26531">
        <ele>66.88417</ele>
        <time>2015-06-04T13:58:35Z</time>
      </trkpt>
      <trkpt lat="49.09954" lon="-1.2654">
        <ele>67.362434</ele>
        <time>2015-06-04T13:58:40Z</time>
      </trkpt>
      <trkpt lat="49.09957" lon="-1.26547">
        <ele>67.362434</ele>
        <time>2015-06-04T13:58:45Z</time>
      </trkpt>
      <trkpt lat="49.0996" lon="-1.26556">
        <ele>67.97848</ele>
        <time>2015-06-04T13:58:50Z</time>
      </trkpt>
      <trkpt lat="49.09963" lon="-1.26563">
        <ele>67.97848</ele>
        <time>2015-06-04T13:58:55Z</time>
      </trkpt>
      <trkpt lat="49.09967" lon="-1.26571">
        <ele>68.70572</ele>
        <time>2015-06-04T13:59:00Z</time>
      </trkpt>
      <trkpt lat="49.09969" lon="-1.2658">
        <ele>68.70572</ele>
        <time>2015-06-04T13:59:05Z</time>
      </trkpt>
      <trkpt lat="49.09972" lon="-1.26589">
        <ele>69.47596</ele>
        <time>2015-06-04T13:59:10Z</time>
      </trkpt>
      <trkpt lat="49.09975" lon="-1.26597">
        <ele>69.47596</ele>
        <time>2015-06-04T13:59:15Z</time>
      </trkpt>
      <trkpt lat="49.09978" lon="-1.26606">
        <ele>70.341194</ele>
        <time>2015-06-04T13:59:20Z</time>
      </trkpt>
      <trkpt lat="49.0998" lon="-1.26614">
        <ele>70.341194</ele>
        <time>2015-06-04T13:59:25Z</time>
      </trkpt>
      <trkpt lat="49.09983" lon="-1.26624">
        <ele>71.3205</ele>
        <time>2015-06-04T13:59:30Z</time>
      </trkpt>
      <trkpt lat="49.09985" lon="-1.26631">
        <ele>71.3205</ele>
        <time>2015-06-04T13:59:35Z</time>
      </trkpt>
      <trkpt lat="49.09987" lon="-1.26638">
        <ele>72.28715</ele>
        <time>2015-06-04T13:59:40Z</time>
      </trkpt>
      <trkpt lat="49.0999" lon="-1.26647">
        <ele>72.28715</ele>
        <time>2015-06-04T13:59:45Z</time>
      </trkpt>
      <trkpt lat="49.09993" lon="-1.26655">
        <ele>73.28227</ele>
        <time>2015-06-04T13:59:50Z</time>
      </trkpt>
      <trkpt lat="49.09995" lon="-1.26664">
        <ele>73.28227</ele>
        <time>2015-06-04T13:59:55Z</time>
      </trkpt>
      <trkpt lat="49.09999" lon="-1.26673">
        <ele>74.28631</ele>
        <time>2015-06-04T14:00:00Z</time>
      </trkpt>
      <trkpt lat="49.10003" lon="-1.26681">
        <ele>74.28631</ele>
        <time>2015-06-04T14:00:05Z</time>
      </trkpt>
      <trkpt lat="49.10006" lon="-1.26687">
        <ele>75.36761</ele>
        <time>2015-06-04T14:00:10Z</time>
      </trkpt>
      <trkpt lat="49.10008" lon="-1.26694">
        <ele>75.36761</ele>
        <time>2015-06-04T14:00:15Z</time>
      </trkpt>
      <trkpt lat="49.10011" lon="-1.26704">
        <ele>76.41637</ele>
        <time>2015-06-04T14:00:20Z</time>
      </trkpt>
      <trkpt lat="49.10015" lon="-1.26713">
        <ele>76.41637</ele>
        <time>2015-06-04T14:00:25Z</time>
      </trkpt>
      <trkpt lat="49.10018" lon="-1.2672">
        <ele>77.403076</ele>
        <time>2015-06-04T14:00:30Z</time>
      </trkpt>
      <trkpt lat="49.10019" lon="-1.26728">
        <ele>77.403076</ele>
        <time>2015-06-04T14:00:35Z</time>
      </trkpt>
      <trkpt lat="49.10021" lon="-1.26738">
        <ele>78.37265</ele>
        <time>2015-06-04T14:00:40Z</time>
      </trkpt>
      <trkpt lat="49.10023" lon="-1.26745">
        <ele>78.37265</ele>
        <time>2015-06-04T14:00:45Z</time>
      </trkpt>
      <trkpt lat="49.10025" lon="-1.26754">
        <ele>79.29478</ele>
        <time>2015-06-04T14:00:50Z</time>
      </trkpt>
      <trkpt lat="49.10027" lon="-1.26764">
        <ele>79.29478</ele>
        <time>2015-06-04T14:00:55Z</time>
      </trkpt>
      <trkpt lat="49.1003" lon="-1.26772">
        <ele>80.170364</ele>
        <time>2015-06-04T14:01:00Z</time>
      </trkpt>
      <trkpt lat="49.10033" lon="-1.2678">
        <ele>80.170364</ele>
        <time>2015-06-04T14:01:05Z</time>
      </trkpt>
      <trkpt lat="49.10036" lon="-1.2679">
        <ele>81.07252</ele>
        <time>2015-06-04T14:01:10Z</time>
      </trkpt>
      <trkpt lat="49.10038" lon="-1.26798">
        <ele>81.07252</ele>
        <time>2015-06-04T14:01:15Z</time>
      </trkpt>
      <trkpt lat="49.1004" lon="-1.26807">
        <ele>81.93927</ele>
        <time>2015-06-04T14:01:20Z</time>
      </trkpt>
      <trkpt lat="49.10042" lon="-1.26816">
        <ele>81.93927</ele>
        <time>2015-06-04T14:01:25Z</time>
      </trkpt>
      <trkpt lat="49.10044" lon="-1.26824">
        <ele>82.7566</ele>
        <time>2015-06-04T14:01:30Z</time>
      </trkpt>
      <trkpt lat="49.10045" lon="-1.26832">
        <ele>82.7566</ele>
        <time>2015-06-04T14:01:35Z</time>
      </trkpt>
      <trkpt lat="49.10043" lon="-1.26837">
        <ele>82.7566</ele>
        <time>2015-06-04T14:01:40Z</time>
      </trkpt>
      <trkpt lat="49.10044" lon="-1.26839">
        <ele>83.51173</ele>
        <time>2015-06-04T14:01:45Z</time>
      </trkpt>
      <trkpt lat="49.1004" lon="-1.26842">
        <ele>83.51173</ele>
        <time>2015-06-04T14:01:50Z</time>
      </trkpt>
      <trkpt lat="49.10035" lon="-1.26843">
        <ele>84.16423</ele>
        <time>2015-06-04T14:01:55Z</time>
      </trkpt>
      <trkpt lat="49.10029" lon="-1.26845">
        <ele>84.16423</ele>
        <time>2015-06-04T14:02:00Z</time>
      </trkpt>
      <trkpt lat="49.10024" lon="-1.26849">
        <ele>84.70584</ele>
        <time>2015-06-04T14:02:05Z</time>
      </trkpt>
      <trkpt lat="49.10018" lon="-1.26853">
        <ele>84.70584</ele>
        <time>2015-06-04T14:02:10Z</time>
      </trkpt>
      <trkpt lat="49.10012" lon="-1.26856">
        <ele>85.12928</ele>
        <time>2015-06-04T14:02:15Z</time>
      </trkpt>
      <trkpt lat="49.10007" lon="-1.2686">
        <ele>85.12928</ele>
        <time>2015-06-04T14:02:20Z</time>
      </trkpt>
      <trkpt lat="49.10002" lon="-1.26864">
        <ele>85.45702</ele>
        <time>2015-06-04T14:02:25Z</time>
      </trkpt>
      <trkpt lat="49.09996" lon="-1.26867">
        <ele>85.45702</ele>
        <time>2015-06-04T14:02:30Z</time>
      </trkpt>
      <trkpt lat="49.09992" lon="-1.2687">
        <ele>85.69582</ele>
        <time>2015-06-04T14:02:35Z</time>
      </trkpt>
      <trkpt lat="49.09987" lon="-1.26876">
        <ele>85.69582</ele>
        <time>2015-06-04T14:02:40Z</time>
      </trkpt>
      <trkpt lat="49.09983" lon="-1.26877">
        <ele>85.88105</ele>
        <time>2015-06-04T14:02:45Z</time>
      </trkpt>
      <trkpt lat="49.09977" lon="-1.26879">
        <ele>85.88105</ele>
        <time>2015-06-04T14:02:50Z</time>
      </trkpt>
      <trkpt lat="49.09972" lon="-1.26884">
        <ele>85.93041</ele>
        <time>2015-06-04T14:02:55Z</time>
      </trkpt>
      <trkpt lat="49.09966" lon="-1.26887">
        <ele>85.93041</ele>
        <time>2015-06-04T14:03:00Z</time>
      </trkpt>
      <trkpt lat="49.09958" lon="-1.26895">
        <ele>85.912186</ele>
        <time>2015-06-04T14:03:05Z</time>
      </trkpt>
      <trkpt lat="49.09953" lon="-1.269">
        <ele>85.912186</ele>
        <time>2015-06-04T14:03:10Z</time>
      </trkpt>
      <trkpt lat="49.09948" lon="-1.26904">
        <ele>85.889885</ele>
        <time>2015-06-04T14:03:15Z</time>
      </trkpt>
      <trkpt lat="49.09941" lon="-1.26911">
        <ele>85.889885</ele>
        <time>2015-06-04T14:03:20Z</time>
      </trkpt>
      <trkpt lat="49.09935" lon="-1.26917">
        <ele>85.80711</ele>
        <time>2015-06-04T14:03:25Z</time>
      </trkpt>
      <trkpt lat="49.09931" lon="-1.2692">
        <ele>85.80711</ele>
        <time>2015-06-04T14:03:30Z</time>
      </trkpt>
      <trkpt lat="49.09928" lon="-1.26921">
        <ele>85.80711</ele>
        <time>2015-06-04T14:03:35Z</time>
      </trkpt>
      <trkpt lat="49.09922" lon="-1.26926">
        <ele>85.75593</ele>
        <time>2015-06-04T14:03:40Z</time>
      </trkpt>
      <trkpt lat="49.09917" lon="-1.2693">
        <ele>85.75593</ele>
        <time>2015-06-04T14:03:45Z</time>
      </trkpt>
      <trkpt lat="49.09911" lon="-1.26935">
        <ele>85.763916</ele>
        <time>2015-06-04T14:03:50Z</time>
      </trkpt>
      <trkpt lat="49.09907" lon="-1.26939">
        <ele>85.763916</ele>
        <time>2015-06-04T14:03:55Z</time>
      </trkpt>
      <trkpt lat="49.09903" lon="-1.26942">
        <ele>85.85651</ele>
        <time>2015-06-04T14:04:00Z</time>
      </trkpt>
      <trkpt lat="49.09898" lon="-1.26946">
        <ele>85.85651</ele>
        <time>2015-06-04T14:04:05Z</time>
      </trkpt>
      <trkpt lat="49.09893" lon="-1.26949">
        <ele>85.927315</ele>
        <time>2015-06-04T14:04:10Z</time>
      </trkpt>
      <trkpt lat="49.09887" lon="-1.26953">
        <ele>85.927315</ele>
        <time>2015-06-04T14:04:15Z</time>
      </trkpt>
      <trkpt lat="49.09883" lon="-1.26957">
        <ele>85.97876</ele>
        <time>2015-06-04T14:04:20Z</time>
      </trkpt>
      <trkpt lat="49.0988" lon="-1.26961">
        <ele>85.97876</ele>
        <time>2015-06-04T14:04:25Z</time>
      </trkpt>
      <trkpt lat="49.09877" lon="-1.26964">
        <ele>85.97876</ele>
        <time>2015-06-04T14:04:30Z</time>
      </trkpt>
      <trkpt lat="49.09872" lon="-1.26968">
        <ele>86.085175</ele>
        <time>2015-06-04T14:04:35Z</time>
      </trkpt>
      <trkpt lat="49.09867" lon="-1.2697">
        <ele>86.085175</ele>
        <time>2015-06-04T14:04:40Z</time>
      </trkpt>
      <trkpt lat="49.09861" lon="-1.26976">
        <ele>86.214424</ele>
        <time>2015-06-04T14:04:45Z</time>
      </trkpt>
      <trkpt lat="49.09856" lon="-1.26981">
        <ele>86.214424</ele>
        <time>2015-06-04T14:04:50Z</time>
      </trkpt>
      <trkpt lat="49.09849" lon="-1.26986">
        <ele>86.37989</ele>
        <time>2015-06-04T14:04:55Z</time>
      </trkpt>
      <trkpt lat="49.09844" lon="-1.26988">
        <ele>86.37989</ele>
        <time>2015-06-04T14:05:00Z</time>
      </trkpt>
      <trkpt lat="49.09837" lon="-1.26982">
        <ele>86.63712</ele>
        <time>2015-06-04T14:05:05Z</time>
      </trkpt>
      <trkpt lat="49.0983" lon="-1.26977">
        <ele>86.63712</ele>
        <time>2015-06-04T14:05:10Z</time>
      </trkpt>
      <trkpt lat="49.09825" lon="-1.26969">
        <ele>86.96526</ele>
        <time>2015-06-04T14:05:15Z</time>
      </trkpt>
      <trkpt lat="49.09819" lon="-1.26966">
        <ele>86.96526</ele>
        <time>2015-06-04T14:05:20Z</time>
      </trkpt>
      <trkpt lat="49.09813" lon="-1.2697">
        <ele>87.243935</ele>
        <time>2015-06-04T14:05:25Z</time>
      </trkpt>
      <trkpt lat="49.09808" lon="-1.26974">
        <ele>87.243935</ele>
        <time>2015-06-04T14:05:30Z</time>
      </trkpt>
      <trkpt lat="49.09804" lon="-1.26979">
        <ele>87.4914</ele>
        <time>2015-06-04T14:05:35Z</time>
      </trkpt>
      <trkpt lat="49.098" lon="-1.26983">
        <ele>87.4914</ele>
        <time>2015-06-04T14:05:40Z</time>
      </trkpt>
      <trkpt lat="49.09794" lon="-1.26988">
        <ele>87.695885</ele>
        <time>2015-06-04T14:05:45Z</time>
      </trkpt>
      <trkpt lat="49.0979" lon="-1.26991">
        <ele>87.695885</ele>
        <time>2015-06-04T14:05:50Z</time>
      </trkpt>
      <trkpt lat="49.09784" lon="-1.26995">
        <ele>87.83216</ele>
        <time>2015-06-04T14:05:55Z</time>
      </trkpt>
      <trkpt lat="49.09778" lon="-1.27002">
        <ele>87.83216</ele>
        <time>2015-06-04T14:06:00Z</time>
      </trkpt>
      <trkpt lat="49.09773" lon="-1.27007">
        <ele>87.96351</ele>
        <time>2015-06-04T14:06:05Z</time>
      </trkpt>
      <trkpt lat="49.09769" lon="-1.27011">
        <ele>87.96351</ele>
        <time>2015-06-04T14:06:10Z</time>
      </trkpt>
      <trkpt lat="49.09764" lon="-1.27017">
        <ele>88.0621</ele>
        <time>2015-06-04T14:06:15Z</time>
      </trkpt>
      <trkpt lat="49.09758" lon="-1.27022">
        <ele>88.0621</ele>
        <time>2015-06-04T14:06:20Z</time>
      </trkpt>
      <trkpt lat="49.09752" lon="-1.27026">
        <ele>88.15991</ele>
        <time>2015-06-04T14:06:25Z</time>
      </trkpt>
      <trkpt lat="49.09748" lon="-1.27031">
        <ele>88.15991</ele>
        <time>2015-06-04T14:06:30Z</time>
      </trkpt>
      <trkpt lat="49.09743" lon="-1.27036">
        <ele>88.17123</ele>
        <time>2015-06-04T14:06:35Z</time>
      </trkpt>
      <trkpt lat="49.09738" lon="-1.27042">
        <ele>88.17123</ele>
        <time>2015-06-04T14:06:40Z</time>
      </trkpt>
      <trkpt lat="49.09732" lon="-1.27046">
        <ele>88.1466</ele>
        <time>2015-06-04T14:06:45Z</time>
      </trkpt>
      <trkpt lat="49.09727" lon="-1.27051">
        <ele>88.1466</ele>
        <time>2015-06-04T14:06:50Z</time>
      </trkpt>
      <trkpt lat="49.09722" lon="-1.27055">
        <ele>88.11851</ele>
        <time>2015-06-04T14:06:55Z</time>
      </trkpt>
      <trkpt lat="49.09718" lon="-1.27059">
        <ele>88.11851</ele>
        <time>2015-06-04T14:07:00Z</time>
      </trkpt>
      <trkpt lat="49.09713" lon="-1.27063">
        <ele>88.088264</ele>
        <time>2015-06-04T14:07:05Z</time>
      </trkpt>
      <trkpt lat="49.09706" lon="-1.27068">
        <ele>88.088264</ele>
        <time>2015-06-04T14:07:10Z</time>
      </trkpt>
      <trkpt lat="49.097" lon="-1.27073">
        <ele>88.100266</ele>
        <time>2015-06-04T14:07:15Z</time>
      </trkpt>
      <trkpt lat="49.09696" lon="-1.27076">
        <ele>88.100266</ele>
        <time>2015-06-04T14:07:20Z</time>
      </trkpt>
      <trkpt lat="49.0969" lon="-1.27079">
        <ele>88.16671</ele>
        <time>2015-06-04T14:07:25Z</time>
      </trkpt>
      <trkpt lat="49.09684" lon="-1.27082">
        <ele>88.16671</ele>
        <time>2015-06-04T14:07:30Z</time>
      </trkpt>
      <trkpt lat="49.0968" lon="-1.27084">
        <ele>88.22667</ele>
        <time>2015-06-04T14:07:35Z</time>
      </trkpt>
      <trkpt lat="49.09674" lon="-1.27089">
        <ele>88.22667</ele>
        <time>2015-06-04T14:07:40Z</time>
      </trkpt>
      <trkpt lat="49.09668" lon="-1.27093">
        <ele>88.32456</ele>
        <time>2015-06-04T14:07:45Z</time>
      </trkpt>
      <trkpt lat="49.09663" lon="-1.27097">
        <ele>88.32456</ele>
        <time>2015-06-04T14:07:50Z</time>
      </trkpt>
      <trkpt lat="49.09657" lon="-1.27099">
        <ele>88.44378</ele>
        <time>2015-06-04T14:07:55Z</time>
      </trkpt>
      <trkpt lat="49.09651" lon="-1.27102">
        <ele>88.44378</ele>
        <time>2015-06-04T14:08:00Z</time>
      </trkpt>
      <trkpt lat="49.09645" lon="-1.27105">
        <ele>88.56885</ele>
        <time>2015-06-04T14:08:05Z</time>
      </trkpt>
      <trkpt lat="49.09641" lon="-1.27109">
        <ele>88.56885</ele>
        <time>2015-06-04T14:08:10Z</time>
      </trkpt>
      <trkpt lat="49.09636" lon="-1.27111">
        <ele>88.685394</ele>
        <time>2015-06-04T14:08:15Z</time>
      </trkpt>
      <trkpt lat="49.0963" lon="-1.27113">
        <ele>88.685394</ele>
        <time>2015-06-04T14:08:20Z</time>
      </trkpt>
      <trkpt lat="49.09624" lon="-1.27117">
        <ele>88.75128</ele>
        <time>2015-06-04T14:08:25Z</time>
      </trkpt>
      <trkpt lat="49.09619" lon="-1.2712">
        <ele>88.75128</ele>
        <time>2015-06-04T14:08:30Z</time>
      </trkpt>
      <trkpt lat="49.09614" lon="-1.27124">
        <ele>88.84288</ele>
        <time>2015-06-04T14:08:35Z</time>
      </trkpt>
      <trkpt lat="49.09608" lon="-1.27127">
        <ele>88.84288</ele>
        <time>2015-06-04T14:08:40Z</time>
      </trkpt>
      <trkpt lat="49.09602" lon="-1.27132">
        <ele>88.91556</ele>
        <time>2015-06-04T14:08:45Z</time>
      </trkpt>
      <trkpt lat="49.09598" lon="-1.27138">
        <ele>88.91556</ele>
        <time>2015-06-04T14:08:50Z</time>
      </trkpt>
      <trkpt lat="49.09593" lon="-1.27144">
        <ele>88.899185</ele>
        <time>2015-06-04T14:08:55Z</time>
      </trkpt>
      <trkpt lat="49.09589" lon="-1.27151">
        <ele>88.899185</ele>
        <time>2015-06-04T14:09:00Z</time>
      </trkpt>
      <trkpt lat="49.09585" lon="-1.27153">
        <ele>88.887535</ele>
        <time>2015-06-04T14:09:05Z</time>
      </trkpt>
      <trkpt lat="49.0958" lon="-1.27155">
        <ele>88.887535</ele>
        <time>2015-06-04T14:09:10Z</time>
      </trkpt>
      <trkpt lat="49.09577" lon="-1.27156">
        <ele>88.887535</ele>
        <time>2015-06-04T14:09:15Z</time>
      </trkpt>
      <trkpt lat="49.09573" lon="-1.2716">
        <ele>88.895386</ele>
        <time>2015-06-04T14:09:20Z</time>
      </trkpt>
      <trkpt lat="49.09567" lon="-1.27162">
        <ele>88.895386</ele>
        <time>2015-06-04T14:09:25Z</time>
      </trkpt>
      <trkpt lat="49.0956" lon="-1.27166">
        <ele>88.99402</ele>
        <time>2015-06-04T14:09:30Z</time>
      </trkpt>
      <trkpt lat="49.09557" lon="-1.27168">
        <ele>88.99402</ele>
        <time>2015-06-04T14:09:35Z</time>
      </trkpt>
      <trkpt lat="49.0955" lon="-1.27173">
        <ele>89.133896</ele>
        <time>2015-06-04T14:09:40Z</time>
      </trkpt>
      <trkpt lat="49.09542" lon="-1.27175">
        <ele>89.133896</ele>
        <time>2015-06-04T14:09:45Z</time>
      </trkpt>
      <trkpt lat="49.09536" lon="-1.27178">
        <ele>89.24017</ele>
        <time>2015-06-04T14:09:50Z</time>
      </trkpt>
      <trkpt lat="49.09529" lon="-1.2718">
        <ele>89.24017</ele>
        <time>2015-06-04T14:09:55Z</time>
      </trkpt>
      <trkpt lat="49.09525" lon="-1.27181">
        <ele>89.286804</ele>
        <time>2015-06-04T14:10:00Z</time>
      </trkpt>
      <trkpt lat="49.09519" lon="-1.27184">
        <ele>89.286804</ele>
        <time>2015-06-04T14:10:05Z</time>
      </trkpt>
      <trkpt lat="49.09513" lon="-1.27191">
        <ele>89.33626</ele>
        <time>2015-06-04T14:10:10Z</time>
      </trkpt>
      <trkpt lat="49.0951" lon="-1.27199">
        <ele>89.33626</ele>
        <time>2015-06-04T14:10:15Z</time>
      </trkpt>
      <trkpt lat="49.09508" lon="-1.27207">
        <ele>89.33112</ele>
        <time>2015-06-04T14:10:20Z</time>
      </trkpt>
      <trkpt lat="49.09505" lon="-1.27217">
        <ele>89.33112</ele>
        <time>2015-06-04T14:10:25Z</time>
      </trkpt>
      <trkpt lat="49.09504" lon="-1.27223">
        <ele>89.30479</ele>
        <time>2015-06-04T14:10:30Z</time>
      </trkpt>
      <trkpt lat="49.09503" lon="-1.27238">
        <ele>89.302635</ele>
        <time>2015-06-04T14:10:35Z</time>
      </trkpt>
      <trkpt lat="49.09505" lon="-1.27248">
        <ele>89.302635</ele>
        <time>2015-06-04T14:10:40Z</time>
      </trkpt>
      <trkpt lat="49.09505" lon="-1.27257">
        <ele>89.38106</ele>
        <time>2015-06-04T14:10:45Z</time>
      </trkpt>
      <trkpt lat="49.09504" lon="-1.27263">
        <ele>89.38106</ele>
        <time>2015-06-04T14:10:50Z</time>
      </trkpt>
      <trkpt lat="49.09503" lon="-1.27275">
        <ele>89.476746</ele>
        <time>2015-06-04T14:10:55Z</time>
      </trkpt>
      <trkpt lat="49.09503" lon="-1.27282">
        <ele>89.476746</ele>
        <time>2015-06-04T14:11:00Z</time>
      </trkpt>
      <trkpt lat="49.09502" lon="-1.27291">
        <ele>89.487755</ele>
        <time>2015-06-04T14:11:05Z</time>
      </trkpt>
      <trkpt lat="49.09502" lon="-1.27296">
        <ele>89.487755</ele>
        <time>2015-06-04T14:11:10Z</time>
      </trkpt>
      <trkpt lat="49.095" lon="-1.27303">
        <ele>89.487755</ele>
        <time>2015-06-04T14:11:15Z</time>
      </trkpt>
      <trkpt lat="49.09499" lon="-1.2731">
        <ele>89.46395</ele>
        <time>2015-06-04T14:11:20Z</time>
      </trkpt>
      <trkpt lat="49.09498" lon="-1.27319">
        <ele>89.46395</ele>
        <time>2015-06-04T14:11:25Z</time>
      </trkpt>
      <trkpt lat="49.09498" lon="-1.27333">
        <ele>89.365166</ele>
        <time>2015-06-04T14:11:30Z</time>
      </trkpt>
      <trkpt lat="49.09497" lon="-1.27342">
        <ele>89.365166</ele>
        <time>2015-06-04T14:11:35Z</time>
      </trkpt>
      <trkpt lat="49.09497" lon="-1.27352">
        <ele>89.26964</ele>
        <time>2015-06-04T14:11:40Z</time>
      </trkpt>
      <trkpt lat="49.09497" lon="-1.27362">
        <ele>89.26964</ele>
        <time>2015-06-04T14:11:45Z</time>
      </trkpt>
      <trkpt lat="49.09497" lon="-1.27371">
        <ele>89.17779</ele>
        <time>2015-06-04T14:11:50Z</time>
      </trkpt>
      <trkpt lat="49.09496" lon="-1.27378">
        <ele>89.17779</ele>
        <time>2015-06-04T14:11:55Z</time>
      </trkpt>
      <trkpt lat="49.09495" lon="-1.27385">
        <ele>88.989105</ele>
        <time>2015-06-04T14:12:00Z</time>
      </trkpt>
      <trkpt lat="49.09496" lon="-1.27392">
        <ele>88.989105</ele>
        <time>2015-06-04T14:12:05Z</time>
      </trkpt>
      <trkpt lat="49.09494" lon="-1.27403">
        <ele>88.81245</ele>
        <time>2015-06-04T14:12:10Z</time>
      </trkpt>
      <trkpt lat="49.09494" lon="-1.27413">
        <ele>88.81245</ele>
        <time>2015-06-04T14:12:15Z</time>
      </trkpt>
      <trkpt lat="49.09492" lon="-1.27424">
        <ele>88.64776</ele>
        <time>2015-06-04T14:12:20Z</time>
      </trkpt>
      <trkpt lat="49.0949" lon="-1.27432">
        <ele>88.64776</ele>
        <time>2015-06-04T14:12:25Z</time>
      </trkpt>
      <trkpt lat="49.09488" lon="-1.27442">
        <ele>88.4517</ele>
        <time>2015-06-04T14:12:30Z</time>
      </trkpt>
      <trkpt lat="49.0949" lon="-1.27453">
        <ele>88.4517</ele>
        <time>2015-06-04T14:12:35Z</time>
      </trkpt>
      <trkpt lat="49.09491" lon="-1.27461">
        <ele>88.21299</ele>
        <time>2015-06-04T14:12:40Z</time>
      </trkpt>
      <trkpt lat="49.09492" lon="-1.27471">
        <ele>88.21299</ele>
        <time>2015-06-04T14:12:45Z</time>
      </trkpt>
      <trkpt lat="49.09492" lon="-1.27483">
        <ele>87.87805</ele>
        <time>2015-06-04T14:12:50Z</time>
      </trkpt>
      <trkpt lat="49.09491" lon="-1.27493">
        <ele>87.87805</ele>
        <time>2015-06-04T14:12:55Z</time>
      </trkpt>
      <trkpt lat="49.09492" lon="-1.27502">
        <ele>87.52719</ele>
        <time>2015-06-04T14:13:00Z</time>
      </trkpt>
      <trkpt lat="49.09493" lon="-1.27512">
        <ele>87.52719</ele>
        <time>2015-06-04T14:13:05Z</time>
      </trkpt>
      <trkpt lat="49.09492" lon="-1.27521">
        <ele>87.292465</ele>
        <time>2015-06-04T14:13:10Z</time>
      </trkpt>
      <trkpt lat="49.09492" lon="-1.27529">
        <ele>87.292465</ele>
        <time>2015-06-04T14:13:15Z</time>
      </trkpt>
      <trkpt lat="49.09491" lon="-1.2754">
        <ele>87.10853</ele>
        <time>2015-06-04T14:13:20Z</time>
      </trkpt>
      <trkpt lat="49.09491" lon="-1.27547">
        <ele>87.10853</ele>
        <time>2015-06-04T14:13:25Z</time>
      </trkpt>
      <trkpt lat="49.09493" lon="-1.27555">
        <ele>86.85705</ele>
        <time>2015-06-04T14:13:30Z</time>
      </trkpt>
      <trkpt lat="49.09492" lon="-1.27562">
        <ele>86.85705</ele>
        <time>2015-06-04T14:13:35Z</time>
      </trkpt>
      <trkpt lat="49.09494" lon="-1.27569">
        <ele>86.572624</ele>
        <time>2015-06-04T14:13:40Z</time>
      </trkpt>
      <trkpt lat="49.09494" lon="-1.27576">
        <ele>86.572624</ele>
        <time>2015-06-04T14:13:45Z</time>
      </trkpt>
      <trkpt lat="49.09493" lon="-1.27581">
        <ele>86.572624</ele>
        <time>2015-06-04T14:13:50Z</time>
      </trkpt>
      <trkpt lat="49.09493" lon="-1.27589">
        <ele>86.08565</ele>
        <time>2015-06-04T14:13:55Z</time>
      </trkpt>
      <trkpt lat="49.09494" lon="-1.276">
        <ele>86.08565</ele>
        <time>2015-06-04T14:14:00Z</time>
      </trkpt>
      <trkpt lat="49.09495" lon="-1.27611">
        <ele>85.369194</ele>
        <time>2015-06-04T14:14:05Z</time>
      </trkpt>
      <trkpt lat="49.09495" lon="-1.27621">
        <ele>85.369194</ele>
        <time>2015-06-04T14:14:10Z</time>
      </trkpt>
      <trkpt lat="49.09495" lon="-1.2763">
        <ele>84.58627</ele>
        <time>2015-06-04T14:14:15Z</time>
      </trkpt>
      <trkpt lat="49.09498" lon="-1.27638">
        <ele>84.58627</ele>
        <time>2015-06-04T14:14:20Z</time>
      </trkpt>
      <trkpt lat="49.09501" lon="-1.27647">
        <ele>83.84484</ele>
        <time>2015-06-04T14:14:25Z</time>
      </trkpt>
      <trkpt lat="49.09501" lon="-1.27657">
        <ele>83.84484</ele>
        <time>2015-06-04T14:14:30Z</time>
      </trkpt>
      <trkpt lat="49.09501" lon="-1.27665">
        <ele>83.11507</ele>
        <time>2015-06-04T14:14:35Z</time>
      </trkpt>
      <trkpt lat="49.09501" lon="-1.27673">
        <ele>83.11507</ele>
        <time>2015-06-04T14:14:40Z</time>
      </trkpt>
      <trkpt lat="49.095" lon="-1.27683">
        <ele>82.41247</ele>
        <time>2015-06-04T14:14:45Z</time>
      </trkpt>
      <trkpt lat="49.09498" lon="-1.2769">
        <ele>82.41247</ele>
        <time>2015-06-04T14:14:50Z</time>
      </trkpt>
      <trkpt lat="49.09492" lon="-1.27695">
        <ele>81.65043</ele>
        <time>2015-06-04T14:14:55Z</time>
      </trkpt>
      <trkpt lat="49.09487" lon="-1.27699">
        <ele>81.65043</ele>
        <time>2015-06-04T14:15:00Z</time>
      </trkpt>
      <trkpt lat="49.09481" lon="-1.27704">
        <ele>80.849686</ele>
        <time>2015-06-04T14:15:05Z</time>
      </trkpt>
      <trkpt lat="49.09475" lon="-1.27709">
        <ele>80.849686</ele>
        <time>2015-06-04T14:15:10Z</time>
      </trkpt>
      <trkpt lat="49.0947" lon="-1.27712">
        <ele>79.899826</ele>
        <time>2015-06-04T14:15:15Z</time>
      </trkpt>
      <trkpt lat="49.09466" lon="-1.27714">
        <ele>79.899826</ele>
        <time>2015-06-04T14:15:20Z</time>
      </trkpt>
      <trkpt lat="49.09462" lon="-1.27716">
        <ele>79.899826</ele>
        <time>2015-06-04T14:15:25Z</time>
      </trkpt>
      <trkpt lat="49.09457" lon="-1.27717">
        <ele>78.84301</ele>
        <time>2015-06-04T14:15:30Z</time>
      </trkpt>
      <trkpt lat="49.09453" lon="-1.27719">
        <ele>78.84301</ele>
        <time>2015-06-04T14:15:35Z</time>
      </trkpt>
      <trkpt lat="49.09449" lon="-1.27721">
        <ele>78.84301</ele>
        <time>2015-06-04T14:15:40Z</time>
      </trkpt>
      <trkpt lat="49.09445" lon="-1.27723">
        <ele>77.790596</ele>
        <time>2015-06-04T14:15:45Z</time>
      </trkpt>
      <trkpt lat="49.09443" lon="-1.27726">
        <ele>77.790596</ele>
        <time>2015-06-04T14:15:50Z</time>
      </trkpt>
      <trkpt lat="49.09442" lon="-1.27727">
        <ele>77.790596</ele>
        <time>2015-06-04T14:15:55Z</time>
      </trkpt>
      <trkpt lat="49.09442" lon="-1.27725">
        <ele>77.790596</ele>
        <time>2015-06-04T14:16:00Z</time>
      </trkpt>
      <trkpt lat="49.09444" lon="-1.27723">
        <ele>77.790596</ele>
        <time>2015-06-04T14:16:05Z</time>
      </trkpt>
      <trkpt lat="49.09443" lon="-1.27722">
        <ele>77.790596</ele>
        <time>2015-06-04T14:16:10Z</time>
      </trkpt>
      <trkpt lat="49.09442" lon="-1.27722">
        <ele>77.790596</ele>
        <time>2015-06-04T14:16:15Z</time>
      </trkpt>
      <trkpt lat="49.09442" lon="-1.27722">
        <ele>77.790596</ele>
        <time>2015-06-04T14:16:20Z</time>
      </trkpt>
      <trkpt lat="49.09441" lon="-1.27721">
        <ele>77.16276</ele>
        <time>2015-06-04T14:16:25Z</time>
      </trkpt>
      <trkpt lat="49.09438" lon="-1.27721">
        <ele>77.16276</ele>
        <time>2015-06-04T14:16:30Z</time>
      </trkpt>
      <trkpt lat="49.09436" lon="-1.2772">
        <ele>77.16276</ele>
        <time>2015-06-04T14:16:35Z</time>
      </trkpt>
      <trkpt lat="49.09435" lon="-1.27722">
        <ele>77.16276</ele>
        <time>2015-06-04T14:16:40Z</time>
      </trkpt>
      <trkpt lat="49.09435" lon="-1.27722">
        <ele>77.16276</ele>
        <time>2015-06-04T14:16:45Z</time>
      </trkpt>
      <trkpt lat="49.09435" lon="-1.27721">
        <ele>77.16276</ele>
        <time>2015-06-04T14:16:50Z</time>
      </trkpt>
      <trkpt lat="49.09437" lon="-1.27721">
        <ele>75.94966</ele>
        <time>2015-06-04T14:16:55Z</time>
      </trkpt>
      <trkpt lat="49.09438" lon="-1.2772">
        <ele>75.94966</ele>
        <time>2015-06-04T14:17:00Z</time>
      </trkpt>
      <trkpt lat="49.09438" lon="-1.2772">
        <ele>75.94966</ele>
        <time>2015-06-04T14:17:05Z</time>
      </trkpt>
      <trkpt lat="49.09439" lon="-1.27721">
        <ele>75.94966</ele>
        <time>2015-06-04T14:17:10Z</time>
      </trkpt>
      <trkpt lat="49.09439" lon="-1.27722">
        <ele>75.94966</ele>
        <time>2015-06-04T14:17:15Z</time>
      </trkpt>
      <trkpt lat="49.0944" lon="-1.27721">
        <ele>75.94966</ele>
        <time>2015-06-04T14:17:20Z</time>
      </trkpt>
      <trkpt lat="49.0944" lon="-1.27721">
        <ele>75.94966</ele>
        <time>2015-06-04T14:17:25Z</time>
      </trkpt>
      <trkpt lat="49.09439" lon="-1.27721">
        <ele>75.94966</ele>
        <time>2015-06-04T14:17:30Z</time>
      </trkpt>
      <trkpt lat="49.09436" lon="-1.27723">
        <ele>74.78803</ele>
        <time>2015-06-04T14:17:35Z</time>
      </trkpt>
      <trkpt lat="49.09434" lon="-1.27724">
        <ele>74.78803</ele>
        <time>2015-06-04T14:17:40Z</time>
      </trkpt>
      <trkpt lat="49.09433" lon="-1.27725">
        <ele>74.78803</ele>
        <time>2015-06-04T14:17:45Z</time>
      </trkpt>
      <trkpt lat="49.09429" lon="-1.27728">
        <ele>74.78803</ele>
        <time>2015-06-04T14:17:50Z</time>
      </trkpt>
      <trkpt lat="49.09425" lon="-1.27732">
        <ele>73.63355</ele>
        <time>2015-06-04T14:17:55Z</time>
      </trkpt>
      <trkpt lat="49.09421" lon="-1.27734">
        <ele>73.63355</ele>
        <time>2015-06-04T14:18:00Z</time>
      </trkpt>
      <trkpt lat="49.09416" lon="-1.27736">
        <ele>72.74767</ele>
        <time>2015-06-04T14:18:05Z</time>
      </trkpt>
      <trkpt lat="49.09409" lon="-1.27737">
        <ele>72.74767</ele>
        <time>2015-06-04T14:18:10Z</time>
      </trkpt>
      <trkpt lat="49.09405" lon="-1.27736">
        <ele>72.15568</ele>
        <time>2015-06-04T14:18:15Z</time>
      </trkpt>
      <trkpt lat="49.09396" lon="-1.27734">
        <ele>71.75038</ele>
        <time>2015-06-04T14:18:20Z</time>
      </trkpt>
      <trkpt lat="49.09391" lon="-1.27731">
        <ele>71.75038</ele>
        <time>2015-06-04T14:18:25Z</time>
      </trkpt>
      <trkpt lat="49.09387" lon="-1.27729">
        <ele>71.576004</ele>
        <time>2015-06-04T14:18:30Z</time>
      </trkpt>
      <trkpt lat="49.09383" lon="-1.27726">
        <ele>71.576004</ele>
        <time>2015-06-04T14:18:35Z</time>
      </trkpt>
      <trkpt lat="49.09379" lon="-1.2772">
        <ele>71.571915</ele>
        <time>2015-06-04T14:18:40Z</time>
      </trkpt>
      <trkpt lat="49.09376" lon="-1.27719">
        <ele>71.571915</ele>
        <time>2015-06-04T14:18:45Z</time>
      </trkpt>
      <trkpt lat="49.09374" lon="-1.27717">
        <ele>71.571915</ele>
        <time>2015-06-04T14:18:50Z</time>
      </trkpt>
      <trkpt lat="49.09368" lon="-1.27712">
        <ele>71.63818</ele>
        <time>2015-06-04T14:18:55Z</time>
      </trkpt>
      <trkpt lat="49.09364" lon="-1.27707">
        <ele>71.63818</ele>
        <time>2015-06-04T14:19:00Z</time>
      </trkpt>
      <trkpt lat="49.09359" lon="-1.27701">
        <ele>71.69638</ele>
        <time>2015-06-04T14:19:05Z</time>
      </trkpt>
      <trkpt lat="49.09355" lon="-1.27693">
        <ele>71.69638</ele>
        <time>2015-06-04T14:19:10Z</time>
      </trkpt>
      <trkpt lat="49.09352" lon="-1.27687">
        <ele>71.76028</ele>
        <time>2015-06-04T14:19:15Z</time>
      </trkpt>
      <trkpt lat="49.09349" lon="-1.27685">
        <ele>71.76028</ele>
        <time>2015-06-04T14:19:20Z</time>
      </trkpt>
      <trkpt lat="49.09347" lon="-1.27682">
        <ele>71.76028</ele>
        <time>2015-06-04T14:19:25Z</time>
      </trkpt>
      <trkpt lat="49.09344" lon="-1.27674">
        <ele>71.87142</ele>
        <time>2015-06-04T14:19:30Z</time>
      </trkpt>
      <trkpt lat="49.09342" lon="-1.2767">
        <ele>71.87142</ele>
        <time>2015-06-04T14:19:35Z</time>
      </trkpt>
      <trkpt lat="49.09338" lon="-1.27665">
        <ele>71.87142</ele>
        <time>2015-06-04T14:19:40Z</time>
      </trkpt>
      <trkpt lat="49.09334" lon="-1.27658">
        <ele>71.9096</ele>
        <time>2015-06-04T14:19:45Z</time>
      </trkpt>
      <trkpt lat="49.09333" lon="-1.27653">
        <ele>71.9096</ele>
        <time>2015-06-04T14:19:50Z</time>
      </trkpt>
      <trkpt lat="49.0933" lon="-1.27645">
        <ele>72.03744</ele>
        <time>2015-06-04T14:19:55Z</time>
      </trkpt>
      <trkpt lat="49.09328" lon="-1.27638">
        <ele>72.03744</ele>
        <time>2015-06-04T14:20:00Z</time>
      </trkpt>
      <trkpt lat="49.09324" lon="-1.27632">
        <ele>72.33329</ele>
        <time>2015-06-04T14:20:05Z</time>
      </trkpt>
      <trkpt lat="49.0932" lon="-1.27626">
        <ele>72.33329</ele>
        <time>2015-06-04T14:20:10Z</time>
      </trkpt>
      <trkpt lat="49.09317" lon="-1.27622">
        <ele>72.81162</ele>
        <time>2015-06-04T14:20:15Z</time>
      </trkpt>
      <trkpt lat="49.09313" lon="-1.2762">
        <ele>72.81162</ele>
        <time>2015-06-04T14:20:20Z</time>
      </trkpt>
      <trkpt lat="49.09308" lon="-1.27614">
        <ele>73.47092</ele>
        <time>2015-06-04T14:20:25Z</time>
      </trkpt>
      <trkpt lat="49.09305" lon="-1.27608">
        <ele>73.47092</ele>
        <time>2015-06-04T14:20:30Z</time>
      </trkpt>
      <trkpt lat="49.09304" lon="-1.27602">
        <ele>74.39574</ele>
        <time>2015-06-04T14:20:35Z</time>
      </trkpt>
      <trkpt lat="49.09302" lon="-1.27598">
        <ele>74.39574</ele>
        <time>2015-06-04T14:20:40Z</time>
      </trkpt>
      <trkpt lat="49.09299" lon="-1.27593">
        <ele>74.39574</ele>
        <time>2015-06-04T14:20:45Z</time>
      </trkpt>
      <trkpt lat="49.09295" lon="-1.27586">
        <ele>75.66369</ele>
        <time>2015-06-04T14:20:50Z</time>
      </trkpt>
      <trkpt lat="49.09292" lon="-1.27583">
        <ele>75.66369</ele>
        <time>2015-06-04T14:20:55Z</time>
      </trkpt>
      <trkpt lat="49.09291" lon="-1.27582">
        <ele>75.66369</ele>
        <time>2015-06-04T14:21:00Z</time>
      </trkpt>
      <trkpt lat="49.09289" lon="-1.27581">
        <ele>75.66369</ele>
        <time>2015-06-04T14:21:05Z</time>
      </trkpt>
      <trkpt lat="49.09288" lon="-1.27581">
        <ele>75.66369</ele>
        <time>2015-06-04T14:21:10Z</time>
      </trkpt>
      <trkpt lat="49.09288" lon="-1.2758">
        <ele>75.66369</ele>
        <time>2015-06-04T14:21:15Z</time>
      </trkpt>
      <trkpt lat="49.09288" lon="-1.27581">
        <ele>75.66369</ele>
        <time>2015-06-04T14:21:20Z</time>
      </trkpt>
      <trkpt lat="49.09288" lon="-1.27581">
        <ele>77.17281</ele>
        <time>2015-06-04T14:21:25Z</time>
      </trkpt>
      <trkpt lat="49.09288" lon="-1.27582">
        <ele>77.17281</ele>
        <time>2015-06-04T14:21:30Z</time>
      </trkpt>
      <trkpt lat="49.09286" lon="-1.27583">
        <ele>77.17281</ele>
        <time>2015-06-04T14:21:35Z</time>
      </trkpt>
      <trkpt lat="49.09287" lon="-1.27583">
        <ele>77.17281</ele>
        <time>2015-06-04T14:21:40Z</time>
      </trkpt>
      <trkpt lat="49.09288" lon="-1.27583">
        <ele>77.17281</ele>
        <time>2015-06-04T14:21:45Z</time>
      </trkpt>
      <trkpt lat="49.09287" lon="-1.27582">
        <ele>77.17281</ele>
        <time>2015-06-04T14:21:50Z</time>
      </trkpt>
      <trkpt lat="49.09286" lon="-1.2758">
        <ele>77.17281</ele>
        <time>2015-06-04T14:21:55Z</time>
      </trkpt>
      <trkpt lat="49.09285" lon="-1.2758">
        <ele>77.17281</ele>
        <time>2015-06-04T14:22:00Z</time>
      </trkpt>
      <trkpt lat="49.09285" lon="-1.27581">
        <ele>77.17281</ele>
        <time>2015-06-04T14:22:05Z</time>
      </trkpt>
      <trkpt lat="49.09284" lon="-1.27581">
        <ele>77.17281</ele>
        <time>2015-06-04T14:22:10Z</time>
      </trkpt>
      <trkpt lat="49.09284" lon="-1.2758">
        <ele>77.17281</ele>
        <time>2015-06-04T14:22:15Z</time>
      </trkpt>
      <trkpt lat="49.09285" lon="-1.27581">
        <ele>77.17281</ele>
        <time>2015-06-04T14:22:20Z</time>
      </trkpt>
      <trkpt lat="49.09284" lon="-1.27583">
        <ele>79.07299</ele>
        <time>2015-06-04T14:22:25Z</time>
      </trkpt>
      <trkpt lat="49.09285" lon="-1.27583">
        <ele>79.07299</ele>
        <time>2015-06-04T14:22:30Z</time>
      </trkpt>
      <trkpt lat="49.09287" lon="-1.27583">
        <ele>79.07299</ele>
        <time>2015-06-04T14:22:35Z</time>
      </trkpt>
      <trkpt lat="49.09287" lon="-1.27585">
        <ele>79.07299</ele>
        <time>2015-06-04T14:22:40Z</time>
      </trkpt>
      <trkpt lat="49.09287" lon="-1.27584">
        <ele>79.07299</ele>
        <time>2015-06-04T14:22:45Z</time>
      </trkpt>
      <trkpt lat="49.09287" lon="-1.27583">
        <ele>79.07299</ele>
        <time>2015-06-04T14:22:50Z</time>
      </trkpt>
      <trkpt lat="49.09286" lon="-1.27584">
        <ele>79.07299</ele>
        <time>2015-06-04T14:22:55Z</time>
      </trkpt>
      <trkpt lat="49.09288" lon="-1.27582">
        <ele>79.07299</ele>
        <time>2015-06-04T14:23:00Z</time>
      </trkpt>
      <trkpt lat="49.09289" lon="-1.27581">
        <ele>79.07299</ele>
        <time>2015-06-04T14:23:05Z</time>
      </trkpt>
      <trkpt lat="49.09289" lon="-1.27581">
        <ele>79.07299</ele>
        <time>2015-06-04T14:23:10Z</time>
      </trkpt>
      <trkpt lat="49.09287" lon="-1.27576">
        <ele>80.651794</ele>
        <time>2015-06-04T14:23:15Z</time>
      </trkpt>
      <trkpt lat="49.09284" lon="-1.27571">
        <ele>80.651794</ele>
        <time>2015-06-04T14:23:20Z</time>
      </trkpt>
      <trkpt lat="49.09283" lon="-1.27573">
        <ele>80.651794</ele>
        <time>2015-06-04T14:23:25Z</time>
      </trkpt>
      <trkpt lat="49.09281" lon="-1.27579">
        <ele>81.927414</ele>
        <time>2015-06-04T14:23:30Z</time>
      </trkpt>
      <trkpt lat="49.09278" lon="-1.27589">
        <ele>81.927414</ele>
        <time>2015-06-04T14:23:35Z</time>
      </trkpt>
      <trkpt lat="49.09276" lon="-1.27596">
        <ele>83.047325</ele>
        <time>2015-06-04T14:23:40Z</time>
      </trkpt>
      <trkpt lat="49.09272" lon="-1.27603">
        <ele>83.047325</ele>
        <time>2015-06-04T14:23:45Z</time>
      </trkpt>
      <trkpt lat="49.09267" lon="-1.2761">
        <ele>84.11986</ele>
        <time>2015-06-04T14:23:50Z</time>
      </trkpt>
      <trkpt lat="49.09262" lon="-1.27617">
        <ele>84.11986</ele>
        <time>2015-06-04T14:23:55Z</time>
      </trkpt>
      <trkpt lat="49.09258" lon="-1.27626">
        <ele>85.17357</ele>
        <time>2015-06-04T14:24:00Z</time>
      </trkpt>
      <trkpt lat="49.09255" lon="-1.27631">
        <ele>85.17357</ele>
        <time>2015-06-04T14:24:05Z</time>
      </trkpt>
      <trkpt lat="49.09253" lon="-1.27634">
        <ele>85.17357</ele>
        <time>2015-06-04T14:24:10Z</time>
      </trkpt>
      <trkpt lat="49.09252" lon="-1.27634">
        <ele>85.17357</ele>
        <time>2015-06-04T14:24:15Z</time>
      </trkpt>
      <trkpt lat="49.09252" lon="-1.27635">
        <ele>86.40798</ele>
        <time>2015-06-04T14:24:20Z</time>
      </trkpt>
      <trkpt lat="49.09253" lon="-1.27635">
        <ele>86.40798</ele>
        <time>2015-06-04T14:24:25Z</time>
      </trkpt>
      <trkpt lat="49.09254" lon="-1.27635">
        <ele>86.40798</ele>
        <time>2015-06-04T14:24:30Z</time>
      </trkpt>
      <trkpt lat="49.09255" lon="-1.27639">
        <ele>86.40798</ele>
        <time>2015-06-04T14:24:35Z</time>
      </trkpt>
      <trkpt lat="49.09257" lon="-1.27644">
        <ele>86.40798</ele>
        <time>2015-06-04T14:24:40Z</time>
      </trkpt>
      <trkpt lat="49.09257" lon="-1.27651">
        <ele>87.47435</ele>
        <time>2015-06-04T14:24:45Z</time>
      </trkpt>
      <trkpt lat="49.09255" lon="-1.27657">
        <ele>87.47435</ele>
        <time>2015-06-04T14:24:50Z</time>
      </trkpt>
      <trkpt lat="49.09254" lon="-1.27664">
        <ele>87.47435</ele>
        <time>2015-06-04T14:24:55Z</time>
      </trkpt>
      <trkpt lat="49.09254" lon="-1.27673">
        <ele>88.59774</ele>
        <time>2015-06-04T14:25:00Z</time>
      </trkpt>
      <trkpt lat="49.09253" lon="-1.27677">
        <ele>88.59774</ele>
        <time>2015-06-04T14:25:05Z</time>
      </trkpt>
      <trkpt lat="49.09251" lon="-1.27683">
        <ele>88.59774</ele>
        <time>2015-06-04T14:25:10Z</time>
      </trkpt>
      <trkpt lat="49.0925" lon="-1.27692">
        <ele>89.62636</ele>
        <time>2015-06-04T14:25:15Z</time>
      </trkpt>
      <trkpt lat="49.09249" lon="-1.27701">
        <ele>89.62636</ele>
        <time>2015-06-04T14:25:20Z</time>
      </trkpt>
      <trkpt lat="49.09247" lon="-1.27713">
        <ele>90.62167</ele>
        <time>2015-06-04T14:25:25Z</time>
      </trkpt>
      <trkpt lat="49.09247" lon="-1.27726">
        <ele>90.62167</ele>
        <time>2015-06-04T14:25:30Z</time>
      </trkpt>
      <trkpt lat="49.09246" lon="-1.27735">
        <ele>91.583206</ele>
        <time>2015-06-04T14:25:35Z</time>
      </trkpt>
      <trkpt lat="49.09245" lon="-1.27741">
        <ele>91.583206</ele>
        <time>2015-06-04T14:25:40Z</time>
      </trkpt>
      <trkpt lat="49.09245" lon="-1.27748">
        <ele>91.583206</ele>
        <time>2015-06-04T14:25:45Z</time>
      </trkpt>
      <trkpt lat="49.09245" lon="-1.27758">
        <ele>92.39544</ele>
        <time>2015-06-04T14:25:50Z</time>
      </trkpt>
      <trkpt lat="49.09244" lon="-1.27769">
        <ele>92.39544</ele>
        <time>2015-06-04T14:25:55Z</time>
      </trkpt>
      <trkpt lat="49.09243" lon="-1.27777">
        <ele>92.99509</ele>
        <time>2015-06-04T14:26:00Z</time>
      </trkpt>
      <trkpt lat="49.0924" lon="-1.27789">
        <ele>92.99509</ele>
        <time>2015-06-04T14:26:05Z</time>
      </trkpt>
      <trkpt lat="49.09236" lon="-1.27794">
        <ele>93.42509</ele>
        <time>2015-06-04T14:26:10Z</time>
      </trkpt>
      <trkpt lat="49.09235" lon="-1.27796">
        <ele>93.42509</ele>
        <time>2015-06-04T14:26:15Z</time>
      </trkpt>
      <trkpt lat="49.09232" lon="-1.27801">
        <ele>93.42509</ele>
        <time>2015-06-04T14:26:20Z</time>
      </trkpt>
      <trkpt lat="49.0923" lon="-1.27805">
        <ele>93.50964</ele>
        <time>2015-06-04T14:26:25Z</time>
      </trkpt>
      <trkpt lat="49.09226" lon="-1.27811">
        <ele>93.50964</ele>
        <time>2015-06-04T14:26:30Z</time>
      </trkpt>
      <trkpt lat="49.09223" lon="-1.27818">
        <ele>93.37517</ele>
        <time>2015-06-04T14:26:35Z</time>
      </trkpt>
      <trkpt lat="49.09219" lon="-1.27824">
        <ele>93.37517</ele>
        <time>2015-06-04T14:26:40Z</time>
      </trkpt>
      <trkpt lat="49.09219" lon="-1.27831">
        <ele>92.95213</ele>
        <time>2015-06-04T14:26:45Z</time>
      </trkpt>
      <trkpt lat="49.09213" lon="-1.27843">
        <ele>92.494064</ele>
        <time>2015-06-04T14:26:50Z</time>
      </trkpt>
      <trkpt lat="49.09209" lon="-1.27852">
        <ele>92.494064</ele>
        <time>2015-06-04T14:26:55Z</time>
      </trkpt>
      <trkpt lat="49.09208" lon="-1.27855">
        <ele>92.01985</ele>
        <time>2015-06-04T14:27:00Z</time>
      </trkpt>
      <trkpt lat="49.09203" lon="-1.27864">
        <ele>92.01985</ele>
        <time>2015-06-04T14:27:05Z</time>
      </trkpt>
      <trkpt lat="49.09199" lon="-1.27873">
        <ele>91.50388</ele>
        <time>2015-06-04T14:27:10Z</time>
      </trkpt>
      <trkpt lat="49.09197" lon="-1.27882">
        <ele>91.50388</ele>
        <time>2015-06-04T14:27:15Z</time>
      </trkpt>
      <trkpt lat="49.09195" lon="-1.2789">
        <ele>90.98023</ele>
        <time>2015-06-04T14:27:20Z</time>
      </trkpt>
      <trkpt lat="49.09194" lon="-1.27897">
        <ele>90.98023</ele>
        <time>2015-06-04T14:27:25Z</time>
      </trkpt>
      <trkpt lat="49.09189" lon="-1.27907">
        <ele>90.50934</ele>
        <time>2015-06-04T14:27:30Z</time>
      </trkpt>
      <trkpt lat="49.09189" lon="-1.27915">
        <ele>90.50934</ele>
        <time>2015-06-04T14:27:35Z</time>
      </trkpt>
      <trkpt lat="49.0919" lon="-1.27925">
        <ele>90.04622</ele>
        <time>2015-06-04T14:27:40Z</time>
      </trkpt>
      <trkpt lat="49.09191" lon="-1.27933">
        <ele>90.04622</ele>
        <time>2015-06-04T14:27:45Z</time>
      </trkpt>
      <trkpt lat="49.09193" lon="-1.27937">
        <ele>90.04622</ele>
        <time>2015-06-04T14:27:50Z</time>
      </trkpt>
      <trkpt lat="49.09193" lon="-1.27945">
        <ele>89.57802</ele>
        <time>2015-06-04T14:27:55Z</time>
      </trkpt>
      <trkpt lat="49.09193" lon="-1.27954">
        <ele>89.57802</ele>
        <time>2015-06-04T14:28:00Z</time>
      </trkpt>
      <trkpt lat="49.09193" lon="-1.27963">
        <ele>88.99196</ele>
        <time>2015-06-04T14:28:05Z</time>
      </trkpt>
      <trkpt lat="49.09192" lon="-1.2797">
        <ele>88.99196</ele>
        <time>2015-06-04T14:28:10Z</time>
      </trkpt>
      <trkpt lat="49.09192" lon="-1.27979">
        <ele>88.40007</ele>
        <time>2015-06-04T14:28:15Z</time>
      </trkpt>
      <trkpt lat="49.0919" lon="-1.27987">
        <ele>88.40007</ele>
        <time>2015-06-04T14:28:20Z</time>
      </trkpt>
      <trkpt lat="49.09188" lon="-1.27996">
        <ele>87.96379</ele>
        <time>2015-06-04T14:28:25Z</time>
      </trkpt>
      <trkpt lat="49.09184" lon="-1.28006">
        <ele>87.96379</ele>
        <time>2015-06-04T14:28:30Z</time>
      </trkpt>
      <trkpt lat="49.09184" lon="-1.28011">
        <ele>87.54404</ele>
        <time>2015-06-04T14:28:35Z</time>
      </trkpt>
      <trkpt lat="49.0918" lon="-1.28018">
        <ele>87.54404</ele>
        <time>2015-06-04T14:28:40Z</time>
      </trkpt>
      <trkpt lat="49.09177" lon="-1.28024">
        <ele>87.112755</ele>
        <time>2015-06-04T14:28:45Z</time>
      </trkpt>
      <trkpt lat="49.09173" lon="-1.28033">
        <ele>87.112755</ele>
        <time>2015-06-04T14:28:50Z</time>
      </trkpt>
      <trkpt lat="49.09169" lon="-1.28043">
        <ele>86.75927</ele>
        <time>2015-06-04T14:28:55Z</time>
      </trkpt>
      <trkpt lat="49.0917" lon="-1.2805">
        <ele>86.75927</ele>
        <time>2015-06-04T14:29:00Z</time>
      </trkpt>
      <trkpt lat="49.09171" lon="-1.28056">
        <ele>86.75927</ele>
        <time>2015-06-04T14:29:05Z</time>
      </trkpt>
      <trkpt lat="49.09173" lon="-1.28064">
        <ele>86.609314</ele>
        <time>2015-06-04T14:29:10Z</time>
      </trkpt>
      <trkpt lat="49.09175" lon="-1.28074">
        <ele>86.609314</ele>
        <time>2015-06-04T14:29:15Z</time>
      </trkpt>
      <trkpt lat="49.09176" lon="-1.28085">
        <ele>86.56262</ele>
        <time>2015-06-04T14:29:20Z</time>
      </trkpt>
      <trkpt lat="49.09178" lon="-1.28095">
        <ele>86.56262</ele>
        <time>2015-06-04T14:29:25Z</time>
      </trkpt>
      <trkpt lat="49.09179" lon="-1.28104">
        <ele>86.68452</ele>
        <time>2015-06-04T14:29:30Z</time>
      </trkpt>
      <trkpt lat="49.0918" lon="-1.2811">
        <ele>86.68452</ele>
        <time>2015-06-04T14:29:35Z</time>
      </trkpt>
      <trkpt lat="49.09179" lon="-1.2812">
        <ele>86.97735</ele>
        <time>2015-06-04T14:29:40Z</time>
      </trkpt>
      <trkpt lat="49.09179" lon="-1.28128">
        <ele>86.97735</ele>
        <time>2015-06-04T14:29:45Z</time>
      </trkpt>
      <trkpt lat="49.0918" lon="-1.28137">
        <ele>87.26987</ele>
        <time>2015-06-04T14:29:50Z</time>
      </trkpt>
      <trkpt lat="49.0918" lon="-1.2814">
        <ele>87.26987</ele>
        <time>2015-06-04T14:29:55Z</time>
      </trkpt>
      <trkpt lat="49.09181" lon="-1.2814">
        <ele>87.26987</ele>
        <time>2015-06-04T14:30:00Z</time>
      </trkpt>
      <trkpt lat="49.09182" lon="-1.2814">
        <ele>87.26987</ele>
        <time>2015-06-04T14:30:05Z</time>
      </trkpt>
      <trkpt lat="49.09183" lon="-1.28139">
        <ele>87.26987</ele>
        <time>2015-06-04T14:30:10Z</time>
      </trkpt>
      <trkpt lat="49.09183" lon="-1.28137">
        <ele>87.26987</ele>
        <time>2015-06-04T14:30:15Z</time>
      </trkpt>
      <trkpt lat="49.09185" lon="-1.28138">
        <ele>87.26987</ele>
        <time>2015-06-04T14:30:20Z</time>
      </trkpt>
      <trkpt lat="49.09186" lon="-1.28141">
        <ele>87.360146</ele>
        <time>2015-06-04T14:30:25Z</time>
      </trkpt>
      <trkpt lat="49.09186" lon="-1.28141">
        <ele>87.360146</ele>
        <time>2015-06-04T14:30:30Z</time>
      </trkpt>
      <trkpt lat="49.09185" lon="-1.2814">
        <ele>87.360146</ele>
        <time>2015-06-04T14:30:35Z</time>
      </trkpt>
      <trkpt lat="49.09185" lon="-1.28139">
        <ele>87.360146</ele>
        <time>2015-06-04T14:30:40Z</time>
      </trkpt>
      <trkpt lat="49.09185" lon="-1.28138">
        <ele>87.360146</ele>
        <time>2015-06-04T14:30:45Z</time>
      </trkpt>
      <trkpt lat="49.09184" lon="-1.28139">
        <ele>87.360146</ele>
        <time>2015-06-04T14:30:50Z</time>
      </trkpt>
      <trkpt lat="49.09182" lon="-1.28141">
        <ele>87.360146</ele>
        <time>2015-06-04T14:30:55Z</time>
      </trkpt>
      <trkpt lat="49.09181" lon="-1.28141">
        <ele>87.360146</ele>
        <time>2015-06-04T14:31:00Z</time>
      </trkpt>
      <trkpt lat="49.0918" lon="-1.2814">
        <ele>87.360146</ele>
        <time>2015-06-04T14:31:05Z</time>
      </trkpt>
      <trkpt lat="49.09181" lon="-1.2814">
        <ele>87.34986</ele>
        <time>2015-06-04T14:31:10Z</time>
      </trkpt>
      <trkpt lat="49.09181" lon="-1.2814">
        <ele>87.34986</ele>
        <time>2015-06-04T14:31:15Z</time>
      </trkpt>
      <trkpt lat="49.09182" lon="-1.28141">
        <ele>87.34986</ele>
        <time>2015-06-04T14:31:20Z</time>
      </trkpt>
      <trkpt lat="49.09182" lon="-1.28142">
        <ele>87.34986</ele>
        <time>2015-06-04T14:31:25Z</time>
      </trkpt>
      <trkpt lat="49.09182" lon="-1.28142">
        <ele>87.34986</ele>
        <time>2015-06-04T14:31:30Z</time>
      </trkpt>
      <trkpt lat="49.09182" lon="-1.28142">
        <ele>87.34986</ele>
        <time>2015-06-04T14:31:35Z</time>
      </trkpt>
      <trkpt lat="49.09181" lon="-1.28142">
        <ele>87.34986</ele>
        <time>2015-06-04T14:31:40Z</time>
      </trkpt>
      <trkpt lat="49.09181" lon="-1.28142">
        <ele>87.34986</ele>
        <time>2015-06-04T14:31:45Z</time>
      </trkpt>
      <trkpt lat="49.0918" lon="-1.28143">
        <ele>87.34986</ele>
        <time>2015-06-04T14:31:50Z</time>
      </trkpt>
      <trkpt lat="49.09181" lon="-1.28143">
        <ele>87.34986</ele>
        <time>2015-06-04T14:31:55Z</time>
      </trkpt>
      <trkpt lat="49.09181" lon="-1.28143">
        <ele>87.34986</ele>
        <time>2015-06-04T14:32:00Z</time>
      </trkpt>
      <trkpt lat="49.09181" lon="-1.28144">
        <ele>87.34986</ele>
        <time>2015-06-04T14:32:05Z</time>
      </trkpt>
      <trkpt lat="49.09181" lon="-1.28144">
        <ele>87.34986</ele>
        <time>2015-06-04T14:32:10Z</time>
      </trkpt>
      <trkpt lat="49.0918" lon="-1.28143">
        <ele>87.34986</ele>
        <time>2015-06-04T14:32:15Z</time>
      </trkpt>
      <trkpt lat="49.09179" lon="-1.28142">
        <ele>87.34986</ele>
        <time>2015-06-04T14:32:20Z</time>
      </trkpt>
      <trkpt lat="49.09179" lon="-1.28141">
        <ele>87.41992</ele>
        <time>2015-06-04T14:32:25Z</time>
      </trkpt>
      <trkpt lat="49.0918" lon="-1.28141">
        <ele>87.41992</ele>
        <time>2015-06-04T14:32:30Z</time>
      </trkpt>
      <trkpt lat="49.09179" lon="-1.28141">
        <ele>87.41992</ele>
        <time>2015-06-04T14:32:35Z</time>
      </trkpt>
      <trkpt lat="49.09179" lon="-1.28141">
        <ele>87.41992</ele>
        <time>2015-06-04T14:32:40Z</time>
      </trkpt>
      <trkpt lat="49.0918" lon="-1.28141">
        <ele>87.41992</ele>
        <time>2015-06-04T14:32:45Z</time>
      </trkpt>
      <trkpt lat="49.09181" lon="-1.28141">
        <ele>87.41992</ele>
        <time>2015-06-04T14:32:50Z</time>
      </trkpt>
      <trkpt lat="49.0918" lon="-1.28145">
        <ele>87.41992</ele>
        <time>2015-06-04T14:32:55Z</time>
      </trkpt>
      <trkpt lat="49.09181" lon="-1.28153">
        <ele>87.56479</ele>
        <time>2015-06-04T14:33:00Z</time>
      </trkpt>
      <trkpt lat="49.09181" lon="-1.28163">
        <ele>87.56479</ele>
        <time>2015-06-04T14:33:05Z</time>
      </trkpt>
      <trkpt lat="49.09181" lon="-1.28171">
        <ele>87.70705</ele>
        <time>2015-06-04T14:33:10Z</time>
      </trkpt>
      <trkpt lat="49.09182" lon="-1.2818">
        <ele>87.70705</ele>
        <time>2015-06-04T14:33:15Z</time>
      </trkpt>
      <trkpt lat="49.09182" lon="-1.28189">
        <ele>87.93344</ele>
        <time>2015-06-04T14:33:20Z</time>
      </trkpt>
      <trkpt lat="49.09183" lon="-1.28197">
        <ele>87.93344</ele>
        <time>2015-06-04T14:33:25Z</time>
      </trkpt>
      <trkpt lat="49.09184" lon="-1.28207">
        <ele>88.194435</ele>
        <time>2015-06-04T14:33:30Z</time>
      </trkpt>
      <trkpt lat="49.09185" lon="-1.28216">
        <ele>88.194435</ele>
        <time>2015-06-04T14:33:35Z</time>
      </trkpt>
      <trkpt lat="49.09186" lon="-1.28223">
        <ele>88.501625</ele>
        <time>2015-06-04T14:33:40Z</time>
      </trkpt>
      <trkpt lat="49.09188" lon="-1.28234">
        <ele>88.501625</ele>
        <time>2015-06-04T14:33:45Z</time>
      </trkpt>
      <trkpt lat="49.09189" lon="-1.28243">
        <ele>88.86562</ele>
        <time>2015-06-04T14:33:50Z</time>
      </trkpt>
      <trkpt lat="49.09191" lon="-1.28253">
        <ele>88.86562</ele>
        <time>2015-06-04T14:33:55Z</time>
      </trkpt>
      <trkpt lat="49.09193" lon="-1.28262">
        <ele>89.26727</ele>
        <time>2015-06-04T14:34:00Z</time>
      </trkpt>
      <trkpt lat="49.09193" lon="-1.28269">
        <ele>89.26727</ele>
        <time>2015-06-04T14:34:05Z</time>
      </trkpt>
      <trkpt lat="49.09195" lon="-1.28276">
        <ele>89.65989</ele>
        <time>2015-06-04T14:34:10Z</time>
      </trkpt>
      <trkpt lat="49.09196" lon="-1.28284">
        <ele>89.65989</ele>
        <time>2015-06-04T14:34:15Z</time>
      </trkpt>
      <trkpt lat="49.09198" lon="-1.28292">
        <ele>90.04345</ele>
        <time>2015-06-04T14:34:20Z</time>
      </trkpt>
      <trkpt lat="49.09198" lon="-1.28303">
        <ele>90.04345</ele>
        <time>2015-06-04T14:34:25Z</time>
      </trkpt>
      <trkpt lat="49.09199" lon="-1.28314">
        <ele>90.56208</ele>
        <time>2015-06-04T14:34:30Z</time>
      </trkpt>
      <trkpt lat="49.092" lon="-1.28324">
        <ele>90.56208</ele>
        <time>2015-06-04T14:34:35Z</time>
      </trkpt>
      <trkpt lat="49.09201" lon="-1.28333">
        <ele>91.16158</ele>
        <time>2015-06-04T14:34:40Z</time>
      </trkpt>
      <trkpt lat="49.09201" lon="-1.2834">
        <ele>91.16158</ele>
        <time>2015-06-04T14:34:45Z</time>
      </trkpt>
      <trkpt lat="49.09201" lon="-1.28349">
        <ele>91.73389</ele>
        <time>2015-06-04T14:34:50Z</time>
      </trkpt>
      <trkpt lat="49.092" lon="-1.28361">
        <ele>91.73389</ele>
        <time>2015-06-04T14:34:55Z</time>
      </trkpt>
      <trkpt lat="49.092" lon="-1.2837">
        <ele>92.323044</ele>
        <time>2015-06-04T14:35:00Z</time>
      </trkpt>
      <trkpt lat="49.092" lon="-1.28379">
        <ele>92.323044</ele>
        <time>2015-06-04T14:35:05Z</time>
      </trkpt>
      <trkpt lat="49.09201" lon="-1.28387">
        <ele>92.98423</ele>
        <time>2015-06-04T14:35:10Z</time>
      </trkpt>
      <trkpt lat="49.092" lon="-1.28397">
        <ele>92.98423</ele>
        <time>2015-06-04T14:35:15Z</time>
      </trkpt>
      <trkpt lat="49.09199" lon="-1.28407">
        <ele>93.696335</ele>
        <time>2015-06-04T14:35:20Z</time>
      </trkpt>
      <trkpt lat="49.09199" lon="-1.28417">
        <ele>93.696335</ele>
        <time>2015-06-04T14:35:25Z</time>
      </trkpt>
      <trkpt lat="49.09199" lon="-1.28426">
        <ele>94.39643</ele>
        <time>2015-06-04T14:35:30Z</time>
      </trkpt>
      <trkpt lat="49.09198" lon="-1.28435">
        <ele>94.39643</ele>
        <time>2015-06-04T14:35:35Z</time>
      </trkpt>
      <trkpt lat="49.09197" lon="-1.28445">
        <ele>95.12716</ele>
        <time>2015-06-04T14:35:40Z</time>
      </trkpt>
      <trkpt lat="49.09197" lon="-1.28453">
        <ele>95.12716</ele>
        <time>2015-06-04T14:35:45Z</time>
      </trkpt>
      <trkpt lat="49.09194" lon="-1.2846">
        <ele>95.812645</ele>
        <time>2015-06-04T14:35:50Z</time>
      </trkpt>
      <trkpt lat="49.09193" lon="-1.28461">
        <ele>95.812645</ele>
        <time>2015-06-04T14:35:55Z</time>
      </trkpt>
      <trkpt lat="49.09193" lon="-1.28461">
        <ele>95.812645</ele>
        <time>2015-06-04T14:36:00Z</time>
      </trkpt>
      <trkpt lat="49.09192" lon="-1.28461">
        <ele>95.812645</ele>
        <time>2015-06-04T14:36:05Z</time>
      </trkpt>
      <trkpt lat="49.09192" lon="-1.28465">
        <ele>95.812645</ele>
        <time>2015-06-04T14:36:10Z</time>
      </trkpt>
      <trkpt lat="49.09191" lon="-1.28473">
        <ele>96.25305</ele>
        <time>2015-06-04T14:36:15Z</time>
      </trkpt>
      <trkpt lat="49.09192" lon="-1.28483">
        <ele>96.25305</ele>
        <time>2015-06-04T14:36:20Z</time>
      </trkpt>
      <trkpt lat="49.09193" lon="-1.28495">
        <ele>96.595406</ele>
        <time>2015-06-04T14:36:25Z</time>
      </trkpt>
      <trkpt lat="49.09194" lon="-1.28504">
        <ele>96.595406</ele>
        <time>2015-06-04T14:36:30Z</time>
      </trkpt>
      <trkpt lat="49.09195" lon="-1.28513">
        <ele>96.8321</ele>
        <time>2015-06-04T14:36:35Z</time>
      </trkpt>
      <trkpt lat="49.09197" lon="-1.28521">
        <ele>96.8321</ele>
        <time>2015-06-04T14:36:40Z</time>
      </trkpt>
      <trkpt lat="49.09198" lon="-1.28531">
        <ele>96.942</ele>
        <time>2015-06-04T14:36:45Z</time>
      </trkpt>
      <trkpt lat="49.09198" lon="-1.28542">
        <ele>96.942</ele>
        <time>2015-06-04T14:36:50Z</time>
      </trkpt>
      <trkpt lat="49.09199" lon="-1.28552">
        <ele>96.94915</ele>
        <time>2015-06-04T14:36:55Z</time>
      </trkpt>
      <trkpt lat="49.09198" lon="-1.28559">
        <ele>96.94915</ele>
        <time>2015-06-04T14:37:00Z</time>
      </trkpt>
      <trkpt lat="49.09198" lon="-1.28567">
        <ele>96.81848</ele>
        <time>2015-06-04T14:37:05Z</time>
      </trkpt>
      <trkpt lat="49.092" lon="-1.28577">
        <ele>96.81848</ele>
        <time>2015-06-04T14:37:10Z</time>
      </trkpt>
      <trkpt lat="49.09201" lon="-1.28585">
        <ele>96.53232</ele>
        <time>2015-06-04T14:37:15Z</time>
      </trkpt>
      <trkpt lat="49.09204" lon="-1.28595">
        <ele>96.53232</ele>
        <time>2015-06-04T14:37:20Z</time>
      </trkpt>
      <trkpt lat="49.09205" lon="-1.28605">
        <ele>96.089134</ele>
        <time>2015-06-04T14:37:25Z</time>
      </trkpt>
      <trkpt lat="49.09207" lon="-1.28614">
        <ele>96.089134</ele>
        <time>2015-06-04T14:37:30Z</time>
      </trkpt>
      <trkpt lat="49.0921" lon="-1.28621">
        <ele>95.53122</ele>
        <time>2015-06-04T14:37:35Z</time>
      </trkpt>
      <trkpt lat="49.09213" lon="-1.28629">
        <ele>95.53122</ele>
        <time>2015-06-04T14:37:40Z</time>
      </trkpt>
      <trkpt lat="49.09216" lon="-1.28637">
        <ele>94.82599</ele>
        <time>2015-06-04T14:37:45Z</time>
      </trkpt>
      <trkpt lat="49.09219" lon="-1.28648">
        <ele>94.82599</ele>
        <time>2015-06-04T14:37:50Z</time>
      </trkpt>
      <trkpt lat="49.09222" lon="-1.28656">
        <ele>93.97252</ele>
        <time>2015-06-04T14:37:55Z</time>
      </trkpt>
      <trkpt lat="49.09225" lon="-1.28664">
        <ele>93.97252</ele>
        <time>2015-06-04T14:38:00Z</time>
      </trkpt>
      <trkpt lat="49.09226" lon="-1.28671">
        <ele>93.02797</ele>
        <time>2015-06-04T14:38:05Z</time>
      </trkpt>
      <trkpt lat="49.09229" lon="-1.28679">
        <ele>93.02797</ele>
        <time>2015-06-04T14:38:10Z</time>
      </trkpt>
      <trkpt lat="49.0923" lon="-1.28689">
        <ele>91.9735</ele>
        <time>2015-06-04T14:38:15Z</time>
      </trkpt>
      <trkpt lat="49.09229" lon="-1.28699">
        <ele>91.9735</ele>
        <time>2015-06-04T14:38:20Z</time>
      </trkpt>
      <trkpt lat="49.09228" lon="-1.28708">
        <ele>90.93604</ele>
        <time>2015-06-04T14:38:25Z</time>
      </trkpt>
      <trkpt lat="49.09226" lon="-1.28716">
        <ele>90.93604</ele>
        <time>2015-06-04T14:38:30Z</time>
      </trkpt>
      <trkpt lat="49.09223" lon="-1.28728">
        <ele>89.816925</ele>
        <time>2015-06-04T14:38:35Z</time>
      </trkpt>
      <trkpt lat="49.09223" lon="-1.28736">
        <ele>89.816925</ele>
        <time>2015-06-04T14:38:40Z</time>
      </trkpt>
      <trkpt lat="49.09223" lon="-1.28744">
        <ele>88.66906</ele>
        <time>2015-06-04T14:38:45Z</time>
      </trkpt>
      <trkpt lat="49.09224" lon="-1.28755">
        <ele>88.66906</ele>
        <time>2015-06-04T14:38:50Z</time>
      </trkpt>
      <trkpt lat="49.09224" lon="-1.28765">
        <ele>87.5703</ele>
        <time>2015-06-04T14:38:55Z</time>
      </trkpt>
      <trkpt lat="49.09221" lon="-1.28775">
        <ele>87.5703</ele>
        <time>2015-06-04T14:39:00Z</time>
      </trkpt>
      <trkpt lat="49.09219" lon="-1.28784">
        <ele>86.56374</ele>
        <time>2015-06-04T14:39:05Z</time>
      </trkpt>
      <trkpt lat="49.09217" lon="-1.28794">
        <ele>86.56374</ele>
        <time>2015-06-04T14:39:10Z</time>
      </trkpt>
      <trkpt lat="49.09213" lon="-1.28802">
        <ele>85.58815</ele>
        <time>2015-06-04T14:39:15Z</time>
      </trkpt>
      <trkpt lat="49.09209" lon="-1.28811">
        <ele>85.58815</ele>
        <time>2015-06-04T14:39:20Z</time>
      </trkpt>
      <trkpt lat="49.09204" lon="-1.28819">
        <ele>84.62985</ele>
        <time>2015-06-04T14:39:25Z</time>
      </trkpt>
      <trkpt lat="49.09203" lon="-1.28823">
        <ele>84.62985</ele>
        <time>2015-06-04T14:39:30Z</time>
      </trkpt>
      <trkpt lat="49.09199" lon="-1.2883">
        <ele>84.62985</ele>
        <time>2015-06-04T14:39:35Z</time>
      </trkpt>
      <trkpt lat="49.09198" lon="-1.28839">
        <ele>83.6184</ele>
        <time>2015-06-04T14:39:40Z</time>
      </trkpt>
      <trkpt lat="49.09195" lon="-1.28845">
        <ele>83.6184</ele>
        <time>2015-06-04T14:39:45Z</time>
      </trkpt>
      <trkpt lat="49.09193" lon="-1.28851">
        <ele>82.67594</ele>
        <time>2015-06-04T14:39:50Z</time>
      </trkpt>
      <trkpt lat="49.09192" lon="-1.28858">
        <ele>82.67594</ele>
        <time>2015-06-04T14:39:55Z</time>
      </trkpt>
      <trkpt lat="49.09191" lon="-1.28868">
        <ele>81.81451</ele>
        <time>2015-06-04T14:40:00Z</time>
      </trkpt>
      <trkpt lat="49.09189" lon="-1.28875">
        <ele>81.81451</ele>
        <time>2015-06-04T14:40:05Z</time>
      </trkpt>
      <trkpt lat="49.09188" lon="-1.28881">
        <ele>81.04494</ele>
        <time>2015-06-04T14:40:10Z</time>
      </trkpt>
      <trkpt lat="49.09186" lon="-1.2889">
        <ele>81.04494</ele>
        <time>2015-06-04T14:40:15Z</time>
      </trkpt>
      <trkpt lat="49.09183" lon="-1.28896">
        <ele>80.3481</ele>
        <time>2015-06-04T14:40:20Z</time>
      </trkpt>
      <trkpt lat="49.09182" lon="-1.28905">
        <ele>80.3481</ele>
        <time>2015-06-04T14:40:25Z</time>
      </trkpt>
      <trkpt lat="49.0918" lon="-1.28912">
        <ele>79.79246</ele>
        <time>2015-06-04T14:40:30Z</time>
      </trkpt>
      <trkpt lat="49.09179" lon="-1.28919">
        <ele>79.79246</ele>
        <time>2015-06-04T14:40:35Z</time>
      </trkpt>
      <trkpt lat="49.09177" lon="-1.28927">
        <ele>79.35449</ele>
        <time>2015-06-04T14:40:40Z</time>
      </trkpt>
      <trkpt lat="49.09177" lon="-1.28935">
        <ele>79.35449</ele>
        <time>2015-06-04T14:40:45Z</time>
      </trkpt>
      <trkpt lat="49.09175" lon="-1.28942">
        <ele>78.997604</ele>
        <time>2015-06-04T14:40:50Z</time>
      </trkpt>
      <trkpt lat="49.09174" lon="-1.28951">
        <ele>78.997604</ele>
        <time>2015-06-04T14:40:55Z</time>
      </trkpt>
      <trkpt lat="49.09172" lon="-1.28958">
        <ele>78.73081</ele>
        <time>2015-06-04T14:41:00Z</time>
      </trkpt>
      <trkpt lat="49.0917" lon="-1.28967">
        <ele>78.73081</ele>
        <time>2015-06-04T14:41:05Z</time>
      </trkpt>
      <trkpt lat="49.09169" lon="-1.28976">
        <ele>78.54772</ele>
        <time>2015-06-04T14:41:10Z</time>
      </trkpt>
      <trkpt lat="49.09166" lon="-1.28986">
        <ele>78.54772</ele>
        <time>2015-06-04T14:41:15Z</time>
      </trkpt>
      <trkpt lat="49.09165" lon="-1.28993">
        <ele>78.58623</ele>
        <time>2015-06-04T14:41:20Z</time>
      </trkpt>
      <trkpt lat="49.09165" lon="-1.29002">
        <ele>78.58623</ele>
        <time>2015-06-04T14:41:25Z</time>
      </trkpt>
      <trkpt lat="49.09164" lon="-1.29012">
        <ele>78.829315</ele>
        <time>2015-06-04T14:41:30Z</time>
      </trkpt>
      <trkpt lat="49.09164" lon="-1.2902">
        <ele>78.829315</ele>
        <time>2015-06-04T14:41:35Z</time>
      </trkpt>
      <trkpt lat="49.09164" lon="-1.29027">
        <ele>79.23174</ele>
        <time>2015-06-04T14:41:40Z</time>
      </trkpt>
      <trkpt lat="49.09165" lon="-1.29036">
        <ele>79.23174</ele>
        <time>2015-06-04T14:41:45Z</time>
      </trkpt>
      <trkpt lat="49.09166" lon="-1.29046">
        <ele>79.69347</ele>
        <time>2015-06-04T14:41:50Z</time>
      </trkpt>
      <trkpt lat="49.09165" lon="-1.29054">
        <ele>79.69347</ele>
        <time>2015-06-04T14:41:55Z</time>
      </trkpt>
      <trkpt lat="49.09166" lon="-1.29063">
        <ele>80.20807</ele>
        <time>2015-06-04T14:42:00Z</time>
      </trkpt>
      <trkpt lat="49.09165" lon="-1.29073">
        <ele>80.20807</ele>
        <time>2015-06-04T14:42:05Z</time>
      </trkpt>
      <trkpt lat="49.09164" lon="-1.29081">
        <ele>80.81264</ele>
        <time>2015-06-04T14:42:10Z</time>
      </trkpt>
      <trkpt lat="49.09163" lon="-1.29092">
        <ele>80.81264</ele>
        <time>2015-06-04T14:42:15Z</time>
      </trkpt>
      <trkpt lat="49.09164" lon="-1.291">
        <ele>81.46922</ele>
        <time>2015-06-04T14:42:20Z</time>
      </trkpt>
      <trkpt lat="49.09166" lon="-1.2911">
        <ele>81.46922</ele>
        <time>2015-06-04T14:42:25Z</time>
      </trkpt>
      <trkpt lat="49.09169" lon="-1.29117">
        <ele>82.113686</ele>
        <time>2015-06-04T14:42:30Z</time>
      </trkpt>
      <trkpt lat="49.0917" lon="-1.29126">
        <ele>82.113686</ele>
        <time>2015-06-04T14:42:35Z</time>
      </trkpt>
      <trkpt lat="49.0917" lon="-1.29136">
        <ele>82.65779</ele>
        <time>2015-06-04T14:42:40Z</time>
      </trkpt>
      <trkpt lat="49.09171" lon="-1.29143">
        <ele>82.65779</ele>
        <time>2015-06-04T14:42:45Z</time>
      </trkpt>
      <trkpt lat="49.09172" lon="-1.29153">
        <ele>83.12097</ele>
        <time>2015-06-04T14:42:50Z</time>
      </trkpt>
      <trkpt lat="49.09173" lon="-1.29162">
        <ele>83.12097</ele>
        <time>2015-06-04T14:42:55Z</time>
      </trkpt>
      <trkpt lat="49.09176" lon="-1.29171">
        <ele>83.420586</ele>
        <time>2015-06-04T14:43:00Z</time>
      </trkpt>
      <trkpt lat="49.09177" lon="-1.29181">
        <ele>83.420586</ele>
        <time>2015-06-04T14:43:05Z</time>
      </trkpt>
      <trkpt lat="49.09179" lon="-1.29188">
        <ele>83.50936</ele>
        <time>2015-06-04T14:43:10Z</time>
      </trkpt>
      <trkpt lat="49.09182" lon="-1.29197">
        <ele>83.50936</ele>
        <time>2015-06-04T14:43:15Z</time>
      </trkpt>
      <trkpt lat="49.09185" lon="-1.29205">
        <ele>83.53145</ele>
        <time>2015-06-04T14:43:20Z</time>
      </trkpt>
      <trkpt lat="49.09189" lon="-1.29216">
        <ele>83.53145</ele>
        <time>2015-06-04T14:43:25Z</time>
      </trkpt>
      <trkpt lat="49.09192" lon="-1.29224">
        <ele>83.50534</ele>
        <time>2015-06-04T14:43:30Z</time>
      </trkpt>
      <trkpt lat="49.09195" lon="-1.29233">
        <ele>83.50534</ele>
        <time>2015-06-04T14:43:35Z</time>
      </trkpt>
      <trkpt lat="49.09197" lon="-1.2924">
        <ele>83.39068</ele>
        <time>2015-06-04T14:43:40Z</time>
      </trkpt>
      <trkpt lat="49.09199" lon="-1.2925">
        <ele>83.39068</ele>
        <time>2015-06-04T14:43:45Z</time>
      </trkpt>
      <trkpt lat="49.092" lon="-1.29256">
        <ele>83.17917</ele>
        <time>2015-06-04T14:43:50Z</time>
      </trkpt>
      <trkpt lat="49.092" lon="-1.29266">
        <ele>83.17917</ele>
        <time>2015-06-04T14:43:55Z</time>
      </trkpt>
      <trkpt lat="49.09202" lon="-1.29275">
        <ele>83.00754</ele>
        <time>2015-06-04T14:44:00Z</time>
      </trkpt>
      <trkpt lat="49.09204" lon="-1.29281">
        <ele>83.00754</ele>
        <time>2015-06-04T14:44:05Z</time>
      </trkpt>
      <trkpt lat="49.09205" lon="-1.2929">
        <ele>82.75737</ele>
        <time>2015-06-04T14:44:10Z</time>
      </trkpt>
      <trkpt lat="49.09208" lon="-1.29301">
        <ele>82.75737</ele>
        <time>2015-06-04T14:44:15Z</time>
      </trkpt>
      <trkpt lat="49.0921" lon="-1.29309">
        <ele>82.247154</ele>
        <time>2015-06-04T14:44:20Z</time>
      </trkpt>
      <trkpt lat="49.09211" lon="-1.29315">
        <ele>82.247154</ele>
        <time>2015-06-04T14:44:25Z</time>
      </trkpt>
      <trkpt lat="49.09213" lon="-1.29324">
        <ele>81.51121</ele>
        <time>2015-06-04T14:44:30Z</time>
      </trkpt>
      <trkpt lat="49.09215" lon="-1.29334">
        <ele>81.51121</ele>
        <time>2015-06-04T14:44:35Z</time>
      </trkpt>
      <trkpt lat="49.09217" lon="-1.29344">
        <ele>80.76932</ele>
        <time>2015-06-04T14:44:40Z</time>
      </trkpt>
      <trkpt lat="49.09218" lon="-1.29351">
        <ele>80.76932</ele>
        <time>2015-06-04T14:44:45Z</time>
      </trkpt>
      <trkpt lat="49.09218" lon="-1.29359">
        <ele>80.09545</ele>
        <time>2015-06-04T14:44:50Z</time>
      </trkpt>
      <trkpt lat="49.09218" lon="-1.29362">
        <ele>80.09545</ele>
        <time>2015-06-04T14:44:55Z</time>
      </trkpt>
      <trkpt lat="49.09218" lon="-1.2936">
        <ele>80.09545</ele>
        <time>2015-06-04T14:45:00Z</time>
      </trkpt>
      <trkpt lat="49.09219" lon="-1.29357">
        <ele>80.09545</ele>
        <time>2015-06-04T14:45:05Z</time>
      </trkpt>
      <trkpt lat="49.0922" lon="-1.29356">
        <ele>80.09545</ele>
        <time>2015-06-04T14:45:10Z</time>
      </trkpt>
      <trkpt lat="49.09222" lon="-1.29355">
        <ele>79.44268</ele>
        <time>2015-06-04T14:45:15Z</time>
      </trkpt>
      <trkpt lat="49.09223" lon="-1.29354">
        <ele>79.44268</ele>
        <time>2015-06-04T14:45:20Z</time>
      </trkpt>
      <trkpt lat="49.09223" lon="-1.29355">
        <ele>79.44268</ele>
        <time>2015-06-04T14:45:25Z</time>
      </trkpt>
      <trkpt lat="49.09223" lon="-1.29356">
        <ele>79.44268</ele>
        <time>2015-06-04T14:45:30Z</time>
      </trkpt>
      <trkpt lat="49.09223" lon="-1.29356">
        <ele>79.44268</ele>
        <time>2015-06-04T14:45:35Z</time>
      </trkpt>
      <trkpt lat="49.09224" lon="-1.29353">
        <ele>79.44268</ele>
        <time>2015-06-04T14:45:40Z</time>
      </trkpt>
      <trkpt lat="49.09223" lon="-1.29353">
        <ele>79.44268</ele>
        <time>2015-06-04T14:45:45Z</time>
      </trkpt>
      <trkpt lat="49.09223" lon="-1.29353">
        <ele>79.44268</ele>
        <time>2015-06-04T14:45:50Z</time>
      </trkpt>
      <trkpt lat="49.09222" lon="-1.29353">
        <ele>79.44268</ele>
        <time>2015-06-04T14:45:55Z</time>
      </trkpt>
      <trkpt lat="49.0922" lon="-1.29356">
        <ele>79.44268</ele>
        <time>2015-06-04T14:46:00Z</time>
      </trkpt>
      <trkpt lat="49.09219" lon="-1.29358">
        <ele>78.7098</ele>
        <time>2015-06-04T14:46:05Z</time>
      </trkpt>
      <trkpt lat="49.09217" lon="-1.29358">
        <ele>78.7098</ele>
        <time>2015-06-04T14:46:10Z</time>
      </trkpt>
      <trkpt lat="49.09217" lon="-1.29358">
        <ele>78.7098</ele>
        <time>2015-06-04T14:46:15Z</time>
      </trkpt>
      <trkpt lat="49.09218" lon="-1.29357">
        <ele>78.7098</ele>
        <time>2015-06-04T14:46:20Z</time>
      </trkpt>
      <trkpt lat="49.09219" lon="-1.29357">
        <ele>78.7098</ele>
        <time>2015-06-04T14:46:25Z</time>
      </trkpt>
      <trkpt lat="49.0922" lon="-1.29356">
        <ele>78.7098</ele>
        <time>2015-06-04T14:46:30Z</time>
      </trkpt>
      <trkpt lat="49.0922" lon="-1.29356">
        <ele>78.7098</ele>
        <time>2015-06-04T14:46:35Z</time>
      </trkpt>
      <trkpt lat="49.0922" lon="-1.29357">
        <ele>78.7098</ele>
        <time>2015-06-04T14:46:40Z</time>
      </trkpt>
      <trkpt lat="49.0922" lon="-1.29357">
        <ele>78.7098</ele>
        <time>2015-06-04T14:46:45Z</time>
      </trkpt>
      <trkpt lat="49.0922" lon="-1.29359">
        <ele>78.7098</ele>
        <time>2015-06-04T14:46:50Z</time>
      </trkpt>
      <trkpt lat="49.0922" lon="-1.29359">
        <ele>78.7098</ele>
        <time>2015-06-04T14:46:55Z</time>
      </trkpt>
      <trkpt lat="49.09221" lon="-1.29359">
        <ele>78.7098</ele>
        <time>2015-06-04T14:47:00Z</time>
      </trkpt>
      <trkpt lat="49.09222" lon="-1.29358">
        <ele>77.96181</ele>
        <time>2015-06-04T14:47:05Z</time>
      </trkpt>
      <trkpt lat="49.09221" lon="-1.29359">
        <ele>77.96181</ele>
        <time>2015-06-04T14:47:10Z</time>
      </trkpt>
      <trkpt lat="49.09221" lon="-1.29361">
        <ele>77.96181</ele>
        <time>2015-06-04T14:47:15Z</time>
      </trkpt>
      <trkpt lat="49.09224" lon="-1.29366">
        <ele>77.96181</ele>
        <time>2015-06-04T14:47:20Z</time>
      </trkpt>
      <trkpt lat="49.09226" lon="-1.29373">
        <ele>77.30216</ele>
        <time>2015-06-04T14:47:25Z</time>
      </trkpt>
      <trkpt lat="49.09227" lon="-1.29381">
        <ele>77.30216</ele>
        <time>2015-06-04T14:47:30Z</time>
      </trkpt>
      <trkpt lat="49.09229" lon="-1.29389">
        <ele>76.725624</ele>
        <time>2015-06-04T14:47:35Z</time>
      </trkpt>
      <trkpt lat="49.0923" lon="-1.29397">
        <ele>76.725624</ele>
        <time>2015-06-04T14:47:40Z</time>
      </trkpt>
      <trkpt lat="49.09232" lon="-1.29404">
        <ele>76.28471</ele>
        <time>2015-06-04T14:47:45Z</time>
      </trkpt>
      <trkpt lat="49.09233" lon="-1.29413">
        <ele>76.28471</ele>
        <time>2015-06-04T14:47:50Z</time>
      </trkpt>
      <trkpt lat="49.09233" lon="-1.29421">
        <ele>75.91241</ele>
        <time>2015-06-04T14:47:55Z</time>
      </trkpt>
      <trkpt lat="49.09234" lon="-1.2943">
        <ele>75.91241</ele>
        <time>2015-06-04T14:48:00Z</time>
      </trkpt>
      <trkpt lat="49.09236" lon="-1.29437">
        <ele>75.63287</ele>
        <time>2015-06-04T14:48:05Z</time>
      </trkpt>
      <trkpt lat="49.09236" lon="-1.29445">
        <ele>75.63287</ele>
        <time>2015-06-04T14:48:10Z</time>
      </trkpt>
      <trkpt lat="49.09236" lon="-1.29453">
        <ele>75.482635</ele>
        <time>2015-06-04T14:48:15Z</time>
      </trkpt>
      <trkpt lat="49.09235" lon="-1.29462">
        <ele>75.482635</ele>
        <time>2015-06-04T14:48:20Z</time>
      </trkpt>
      <trkpt lat="49.09233" lon="-1.29469">
        <ele>75.49515</ele>
        <time>2015-06-04T14:48:25Z</time>
      </trkpt>
      <trkpt lat="49.0923" lon="-1.29477">
        <ele>75.49515</ele>
        <time>2015-06-04T14:48:30Z</time>
      </trkpt>
      <trkpt lat="49.09227" lon="-1.29485">
        <ele>75.64332</ele>
        <time>2015-06-04T14:48:35Z</time>
      </trkpt>
      <trkpt lat="49.09224" lon="-1.29493">
        <ele>75.64332</ele>
        <time>2015-06-04T14:48:40Z</time>
      </trkpt>
      <trkpt lat="49.09223" lon="-1.295">
        <ele>75.8728</ele>
        <time>2015-06-04T14:48:45Z</time>
      </trkpt>
      <trkpt lat="49.09222" lon="-1.29507">
        <ele>75.8728</ele>
        <time>2015-06-04T14:48:50Z</time>
      </trkpt>
      <trkpt lat="49.0922" lon="-1.29517">
        <ele>76.19068</ele>
        <time>2015-06-04T14:48:55Z</time>
      </trkpt>
      <trkpt lat="49.09218" lon="-1.29525">
        <ele>76.19068</ele>
        <time>2015-06-04T14:49:00Z</time>
      </trkpt>
      <trkpt lat="49.09216" lon="-1.29534">
        <ele>76.63207</ele>
        <time>2015-06-04T14:49:05Z</time>
      </trkpt>
      <trkpt lat="49.09213" lon="-1.29543">
        <ele>76.63207</ele>
        <time>2015-06-04T14:49:10Z</time>
      </trkpt>
      <trkpt lat="49.0921" lon="-1.29551">
        <ele>77.157135</ele>
        <time>2015-06-04T14:49:15Z</time>
      </trkpt>
      <trkpt lat="49.09209" lon="-1.29557">
        <ele>77.157135</ele>
        <time>2015-06-04T14:49:20Z</time>
      </trkpt>
      <trkpt lat="49.09206" lon="-1.29565">
        <ele>77.69989</ele>
        <time>2015-06-04T14:49:25Z</time>
      </trkpt>
      <trkpt lat="49.09204" lon="-1.29575">
        <ele>77.69989</ele>
        <time>2015-06-04T14:49:30Z</time>
      </trkpt>
      <trkpt lat="49.09203" lon="-1.29584">
        <ele>78.31446</ele>
        <time>2015-06-04T14:49:35Z</time>
      </trkpt>
      <trkpt lat="49.092" lon="-1.29593">
        <ele>78.31446</ele>
        <time>2015-06-04T14:49:40Z</time>
      </trkpt>
      <trkpt lat="49.09198" lon="-1.29602">
        <ele>78.96436</ele>
        <time>2015-06-04T14:49:45Z</time>
      </trkpt>
      <trkpt lat="49.09197" lon="-1.29608">
        <ele>78.96436</ele>
        <time>2015-06-04T14:49:50Z</time>
      </trkpt>
      <trkpt lat="49.09194" lon="-1.29617">
        <ele>79.586876</ele>
        <time>2015-06-04T14:49:55Z</time>
      </trkpt>
      <trkpt lat="49.09192" lon="-1.29625">
        <ele>79.586876</ele>
        <time>2015-06-04T14:50:00Z</time>
      </trkpt>
      <trkpt lat="49.09189" lon="-1.29633">
        <ele>80.21047</ele>
        <time>2015-06-04T14:50:05Z</time>
      </trkpt>
      <trkpt lat="49.09187" lon="-1.29642">
        <ele>80.21047</ele>
        <time>2015-06-04T14:50:10Z</time>
      </trkpt>
      <trkpt lat="49.09186" lon="-1.2965">
        <ele>80.84717</ele>
        <time>2015-06-04T14:50:15Z</time>
      </trkpt>
      <trkpt lat="49.09185" lon="-1.29655">
        <ele>80.84717</ele>
        <time>2015-06-04T14:50:20Z</time>
      </trkpt>
      <trkpt lat="49.09181" lon="-1.29664">
        <ele>81.50807</ele>
        <time>2015-06-04T14:50:25Z</time>
      </trkpt>
      <trkpt lat="49.09177" lon="-1.29674">
        <ele>81.50807</ele>
        <time>2015-06-04T14:50:30Z</time>
      </trkpt>
      <trkpt lat="49.09174" lon="-1.2968">
        <ele>82.117004</ele>
        <time>2015-06-04T14:50:35Z</time>
      </trkpt>
      <trkpt lat="49.09172" lon="-1.29689">
        <ele>82.117004</ele>
        <time>2015-06-04T14:50:40Z</time>
      </trkpt>
      <trkpt lat="49.0917" lon="-1.29696">
        <ele>82.67563</ele>
        <time>2015-06-04T14:50:45Z</time>
      </trkpt>
      <trkpt lat="49.09168" lon="-1.29703">
        <ele>82.67563</ele>
        <time>2015-06-04T14:50:50Z</time>
      </trkpt>
      <trkpt lat="49.09165" lon="-1.29711">
        <ele>83.055984</ele>
        <time>2015-06-04T14:50:55Z</time>
      </trkpt>
      <trkpt lat="49.09162" lon="-1.29721">
        <ele>83.055984</ele>
        <time>2015-06-04T14:51:00Z</time>
      </trkpt>
      <trkpt lat="49.09159" lon="-1.2973">
        <ele>83.44268</ele>
        <time>2015-06-04T14:51:05Z</time>
      </trkpt>
      <trkpt lat="49.09155" lon="-1.29737">
        <ele>83.44268</ele>
        <time>2015-06-04T14:51:10Z</time>
      </trkpt>
      <trkpt lat="49.09151" lon="-1.29746">
        <ele>83.877106</ele>
        <time>2015-06-04T14:51:15Z</time>
      </trkpt>
      <trkpt lat="49.09147" lon="-1.29754">
        <ele>83.877106</ele>
        <time>2015-06-04T14:51:20Z</time>
      </trkpt>
      <trkpt lat="49.09143" lon="-1.29762">
        <ele>84.29667</ele>
        <time>2015-06-04T14:51:25Z</time>
      </trkpt>
      <trkpt lat="49.09139" lon="-1.29768">
        <ele>84.29667</ele>
        <time>2015-06-04T14:51:30Z</time>
      </trkpt>
      <trkpt lat="49.09136" lon="-1.29777">
        <ele>84.64344</ele>
        <time>2015-06-04T14:51:35Z</time>
      </trkpt>
      <trkpt lat="49.09132" lon="-1.29782">
        <ele>84.64344</ele>
        <time>2015-06-04T14:51:40Z</time>
      </trkpt>
      <trkpt lat="49.09127" lon="-1.29789">
        <ele>84.93608</ele>
        <time>2015-06-04T14:51:45Z</time>
      </trkpt>
      <trkpt lat="49.09122" lon="-1.29799">
        <ele>84.93608</ele>
        <time>2015-06-04T14:51:50Z</time>
      </trkpt>
      <trkpt lat="49.09118" lon="-1.29807">
        <ele>85.14885</ele>
        <time>2015-06-04T14:51:55Z</time>
      </trkpt>
      <trkpt lat="49.09114" lon="-1.29813">
        <ele>85.14885</ele>
        <time>2015-06-04T14:52:00Z</time>
      </trkpt>
      <trkpt lat="49.09111" lon="-1.29819">
        <ele>85.28699</ele>
        <time>2015-06-04T14:52:05Z</time>
      </trkpt>
      <trkpt lat="49.09104" lon="-1.29826">
        <ele>85.28699</ele>
        <time>2015-06-04T14:52:10Z</time>
      </trkpt>
      <trkpt lat="49.091" lon="-1.29835">
        <ele>85.370026</ele>
        <time>2015-06-04T14:52:15Z</time>
      </trkpt>
      <trkpt lat="49.09095" lon="-1.29842">
        <ele>85.370026</ele>
        <time>2015-06-04T14:52:20Z</time>
      </trkpt>
      <trkpt lat="49.09091" lon="-1.29848">
        <ele>85.430664</ele>
        <time>2015-06-04T14:52:25Z</time>
      </trkpt>
      <trkpt lat="49.09087" lon="-1.29854">
        <ele>85.430664</ele>
        <time>2015-06-04T14:52:30Z</time>
      </trkpt>
      <trkpt lat="49.09083" lon="-1.29861">
        <ele>85.45609</ele>
        <time>2015-06-04T14:52:35Z</time>
      </trkpt>
      <trkpt lat="49.09079" lon="-1.29868">
        <ele>85.45609</ele>
        <time>2015-06-04T14:52:40Z</time>
      </trkpt>
      <trkpt lat="49.09076" lon="-1.29873">
        <ele>85.46337</ele>
        <time>2015-06-04T14:52:45Z</time>
      </trkpt>
      <trkpt lat="49.09072" lon="-1.29878">
        <ele>85.46337</ele>
        <time>2015-06-04T14:52:50Z</time>
      </trkpt>
      <trkpt lat="49.09068" lon="-1.29886">
        <ele>85.41079</ele>
        <time>2015-06-04T14:52:55Z</time>
      </trkpt>
      <trkpt lat="49.09066" lon="-1.29893">
        <ele>85.41079</ele>
        <time>2015-06-04T14:53:00Z</time>
      </trkpt>
      <trkpt lat="49.09063" lon="-1.29901">
        <ele>85.346344</ele>
        <time>2015-06-04T14:53:05Z</time>
      </trkpt>
      <trkpt lat="49.0906" lon="-1.29911">
        <ele>85.346344</ele>
        <time>2015-06-04T14:53:10Z</time>
      </trkpt>
      <trkpt lat="49.09058" lon="-1.2992">
        <ele>85.25693</ele>
        <time>2015-06-04T14:53:15Z</time>
      </trkpt>
      <trkpt lat="49.09057" lon="-1.29929">
        <ele>85.25693</ele>
        <time>2015-06-04T14:53:20Z</time>
      </trkpt>
      <trkpt lat="49.09056" lon="-1.29938">
        <ele>85.05845</ele>
        <time>2015-06-04T14:53:25Z</time>
      </trkpt>
      <trkpt lat="49.09054" lon="-1.29948">
        <ele>85.05845</ele>
        <time>2015-06-04T14:53:30Z</time>
      </trkpt>
      <trkpt lat="49.09052" lon="-1.29957">
        <ele>84.81741</ele>
        <time>2015-06-04T14:53:35Z</time>
      </trkpt>
      <trkpt lat="49.0905" lon="-1.29965">
        <ele>84.81741</ele>
        <time>2015-06-04T14:53:40Z</time>
      </trkpt>
      <trkpt lat="49.09049" lon="-1.29976">
        <ele>84.42266</ele>
        <time>2015-06-04T14:53:45Z</time>
      </trkpt>
      <trkpt lat="49.09047" lon="-1.29985">
        <ele>84.42266</ele>
        <time>2015-06-04T14:53:50Z</time>
      </trkpt>
      <trkpt lat="49.09047" lon="-1.29995">
        <ele>83.987816</ele>
        <time>2015-06-04T14:53:55Z</time>
      </trkpt>
      <trkpt lat="49.09047" lon="-1.30005">
        <ele>83.987816</ele>
        <time>2015-06-04T14:54:00Z</time>
      </trkpt>
      <trkpt lat="49.09046" lon="-1.30015">
        <ele>83.57501</ele>
        <time>2015-06-04T14:54:05Z</time>
      </trkpt>
      <trkpt lat="49.09043" lon="-1.30023">
        <ele>83.57501</ele>
        <time>2015-06-04T14:54:10Z</time>
      </trkpt>
      <trkpt lat="49.0904" lon="-1.30032">
        <ele>83.12651</ele>
        <time>2015-06-04T14:54:15Z</time>
      </trkpt>
      <trkpt lat="49.09038" lon="-1.30038">
        <ele>83.12651</ele>
        <time>2015-06-04T14:54:20Z</time>
      </trkpt>
      <trkpt lat="49.09032" lon="-1.30045">
        <ele>82.58888</ele>
        <time>2015-06-04T14:54:25Z</time>
      </trkpt>
      <trkpt lat="49.09027" lon="-1.30054">
        <ele>82.58888</ele>
        <time>2015-06-04T14:54:30Z</time>
      </trkpt>
      <trkpt lat="49.09023" lon="-1.3006">
        <ele>82.07141</ele>
        <time>2015-06-04T14:54:35Z</time>
      </trkpt>
      <trkpt lat="49.0902" lon="-1.30067">
        <ele>82.07141</ele>
        <time>2015-06-04T14:54:40Z</time>
      </trkpt>
      <trkpt lat="49.09015" lon="-1.30076">
        <ele>81.60321</ele>
        <time>2015-06-04T14:54:45Z</time>
      </trkpt>
      <trkpt lat="49.09012" lon="-1.30082">
        <ele>81.60321</ele>
        <time>2015-06-04T14:54:50Z</time>
      </trkpt>
      <trkpt lat="49.09009" lon="-1.3009">
        <ele>81.153465</ele>
        <time>2015-06-04T14:54:55Z</time>
      </trkpt>
      <trkpt lat="49.09007" lon="-1.30097">
        <ele>81.153465</ele>
        <time>2015-06-04T14:55:00Z</time>
      </trkpt>
      <trkpt lat="49.09005" lon="-1.30103">
        <ele>80.73679</ele>
        <time>2015-06-04T14:55:05Z</time>
      </trkpt>
      <trkpt lat="49.09004" lon="-1.30109">
        <ele>80.73679</ele>
        <time>2015-06-04T14:55:10Z</time>
      </trkpt>
      <trkpt lat="49.09002" lon="-1.3012">
        <ele>80.2225</ele>
        <time>2015-06-04T14:55:15Z</time>
      </trkpt>
      <trkpt lat="49.09002" lon="-1.30127">
        <ele>80.2225</ele>
        <time>2015-06-04T14:55:20Z</time>
      </trkpt>
      <trkpt lat="49.09004" lon="-1.30137">
        <ele>79.6627</ele>
        <time>2015-06-04T14:55:25Z</time>
      </trkpt>
      <trkpt lat="49.09005" lon="-1.30146">
        <ele>79.6627</ele>
        <time>2015-06-04T14:55:30Z</time>
      </trkpt>
      <trkpt lat="49.09008" lon="-1.30155">
        <ele>78.91837</ele>
        <time>2015-06-04T14:55:35Z</time>
      </trkpt>
      <trkpt lat="49.09011" lon="-1.30165">
        <ele>78.91837</ele>
        <time>2015-06-04T14:55:40Z</time>
      </trkpt>
      <trkpt lat="49.09013" lon="-1.30175">
        <ele>78.01979</ele>
        <time>2015-06-04T14:55:45Z</time>
      </trkpt>
      <trkpt lat="49.09015" lon="-1.30183">
        <ele>78.01979</ele>
        <time>2015-06-04T14:55:50Z</time>
      </trkpt>
      <trkpt lat="49.09016" lon="-1.30191">
        <ele>77.09624</ele>
        <time>2015-06-04T14:55:55Z</time>
      </trkpt>
      <trkpt lat="49.09017" lon="-1.30199">
        <ele>77.09624</ele>
        <time>2015-06-04T14:56:00Z</time>
      </trkpt>
      <trkpt lat="49.09017" lon="-1.30209">
        <ele>76.18105</ele>
        <time>2015-06-04T14:56:05Z</time>
      </trkpt>
      <trkpt lat="49.09015" lon="-1.30218">
        <ele>76.18105</ele>
        <time>2015-06-04T14:56:10Z</time>
      </trkpt>
      <trkpt lat="49.09011" lon="-1.30228">
        <ele>75.26185</ele>
        <time>2015-06-04T14:56:15Z</time>
      </trkpt>
      <trkpt lat="49.09008" lon="-1.30236">
        <ele>75.26185</ele>
        <time>2015-06-04T14:56:20Z</time>
      </trkpt>
      <trkpt lat="49.09004" lon="-1.30241">
        <ele>74.3415</ele>
        <time>2015-06-04T14:56:25Z</time>
      </trkpt>
      <trkpt lat="49.08999" lon="-1.30246">
        <ele>74.3415</ele>
        <time>2015-06-04T14:56:30Z</time>
      </trkpt>
      <trkpt lat="49.08996" lon="-1.30252">
        <ele>73.48028</ele>
        <time>2015-06-04T14:56:35Z</time>
      </trkpt>
      <trkpt lat="49.08992" lon="-1.30257">
        <ele>73.48028</ele>
        <time>2015-06-04T14:56:40Z</time>
      </trkpt>
      <trkpt lat="49.08989" lon="-1.30264">
        <ele>72.56087</ele>
        <time>2015-06-04T14:56:45Z</time>
      </trkpt>
      <trkpt lat="49.08986" lon="-1.30271">
        <ele>72.56087</ele>
        <time>2015-06-04T14:56:50Z</time>
      </trkpt>
      <trkpt lat="49.08982" lon="-1.30279">
        <ele>71.71964</ele>
        <time>2015-06-04T14:56:55Z</time>
      </trkpt>
      <trkpt lat="49.0898" lon="-1.30283">
        <ele>71.71964</ele>
        <time>2015-06-04T14:57:00Z</time>
      </trkpt>
      <trkpt lat="49.08977" lon="-1.30287">
        <ele>71.71964</ele>
        <time>2015-06-04T14:57:05Z</time>
      </trkpt>
      <trkpt lat="49.08977" lon="-1.30285">
        <ele>71.71964</ele>
        <time>2015-06-04T14:57:10Z</time>
      </trkpt>
      <trkpt lat="49.08978" lon="-1.30285">
        <ele>71.71964</ele>
        <time>2015-06-04T14:57:15Z</time>
      </trkpt>
      <trkpt lat="49.08978" lon="-1.30285">
        <ele>70.88095</ele>
        <time>2015-06-04T14:57:20Z</time>
      </trkpt>
      <trkpt lat="49.08978" lon="-1.30285">
        <ele>70.88095</ele>
        <time>2015-06-04T14:57:25Z</time>
      </trkpt>
      <trkpt lat="49.08976" lon="-1.30282">
        <ele>70.88095</ele>
        <time>2015-06-04T14:57:30Z</time>
      </trkpt>
      <trkpt lat="49.08975" lon="-1.30278">
        <ele>70.88095</ele>
        <time>2015-06-04T14:57:35Z</time>
      </trkpt>
      <trkpt lat="49.08973" lon="-1.30275">
        <ele>70.88095</ele>
        <time>2015-06-04T14:57:40Z</time>
      </trkpt>
      <trkpt lat="49.08973" lon="-1.30275">
        <ele>70.88095</ele>
        <time>2015-06-04T14:57:45Z</time>
      </trkpt>
      <trkpt lat="49.08973" lon="-1.30274">
        <ele>69.83049</ele>
        <time>2015-06-04T14:57:50Z</time>
      </trkpt>
      <trkpt lat="49.08975" lon="-1.30279">
        <ele>69.83049</ele>
        <time>2015-06-04T14:57:55Z</time>
      </trkpt>
      <trkpt lat="49.08977" lon="-1.30284">
        <ele>69.83049</ele>
        <time>2015-06-04T14:58:00Z</time>
      </trkpt>
      <trkpt lat="49.08977" lon="-1.30285">
        <ele>69.83049</ele>
        <time>2015-06-04T14:58:05Z</time>
      </trkpt>
      <trkpt lat="49.08978" lon="-1.30286">
        <ele>69.83049</ele>
        <time>2015-06-04T14:58:10Z</time>
      </trkpt>
      <trkpt lat="49.08978" lon="-1.30285">
        <ele>68.816986</ele>
        <time>2015-06-04T14:58:15Z</time>
      </trkpt>
      <trkpt lat="49.08978" lon="-1.30285">
        <ele>68.816986</ele>
        <time>2015-06-04T14:58:20Z</time>
      </trkpt>
      <trkpt lat="49.08978" lon="-1.30296">
        <ele>68.816986</ele>
        <time>2015-06-04T14:58:25Z</time>
      </trkpt>
      <trkpt lat="49.08979" lon="-1.30304">
        <ele>67.88337</ele>
        <time>2015-06-04T14:58:30Z</time>
      </trkpt>
      <trkpt lat="49.08984" lon="-1.30307">
        <ele>67.88337</ele>
        <time>2015-06-04T14:58:35Z</time>
      </trkpt>
      <trkpt lat="49.08991" lon="-1.3031">
        <ele>67.0403</ele>
        <time>2015-06-04T14:58:40Z</time>
      </trkpt>
      <trkpt lat="49.08997" lon="-1.30312">
        <ele>67.0403</ele>
        <time>2015-06-04T14:58:45Z</time>
      </trkpt>
      <trkpt lat="49.09003" lon="-1.30316">
        <ele>66.254105</ele>
        <time>2015-06-04T14:58:50Z</time>
      </trkpt>
      <trkpt lat="49.09008" lon="-1.3032">
        <ele>66.254105</ele>
        <time>2015-06-04T14:58:55Z</time>
      </trkpt>
      <trkpt lat="49.09014" lon="-1.30324">
        <ele>65.50775</ele>
        <time>2015-06-04T14:59:00Z</time>
      </trkpt>
      <trkpt lat="49.09018" lon="-1.30327">
        <ele>65.50775</ele>
        <time>2015-06-04T14:59:05Z</time>
      </trkpt>
      <trkpt lat="49.09025" lon="-1.30333">
        <ele>64.785286</ele>
        <time>2015-06-04T14:59:10Z</time>
      </trkpt>
      <trkpt lat="49.0903" lon="-1.30339">
        <ele>64.785286</ele>
        <time>2015-06-04T14:59:15Z</time>
      </trkpt>
      <trkpt lat="49.09035" lon="-1.30344">
        <ele>64.05737</ele>
        <time>2015-06-04T14:59:20Z</time>
      </trkpt>
      <trkpt lat="49.0904" lon="-1.30349">
        <ele>64.05737</ele>
        <time>2015-06-04T14:59:25Z</time>
      </trkpt>
      <trkpt lat="49.09046" lon="-1.30354">
        <ele>63.41207</ele>
        <time>2015-06-04T14:59:30Z</time>
      </trkpt>
      <trkpt lat="49.09052" lon="-1.30359">
        <ele>63.41207</ele>
        <time>2015-06-04T14:59:35Z</time>
      </trkpt>
      <trkpt lat="49.09057" lon="-1.30364">
        <ele>62.887436</ele>
        <time>2015-06-04T14:59:40Z</time>
      </trkpt>
      <trkpt lat="49.09061" lon="-1.30367">
        <ele>62.887436</ele>
        <time>2015-06-04T14:59:45Z</time>
      </trkpt>
      <trkpt lat="49.09065" lon="-1.30372">
        <ele>62.431858</ele>
        <time>2015-06-04T14:59:50Z</time>
      </trkpt>
      <trkpt lat="49.09068" lon="-1.30376">
        <ele>62.431858</ele>
        <time>2015-06-04T14:59:55Z</time>
      </trkpt>
      <trkpt lat="49.09073" lon="-1.30382">
        <ele>62.02609</ele>
        <time>2015-06-04T15:00:00Z</time>
      </trkpt>
      <trkpt lat="49.09079" lon="-1.30389">
        <ele>62.02609</ele>
        <time>2015-06-04T15:00:05Z</time>
      </trkpt>
      <trkpt lat="49.09083" lon="-1.30395">
        <ele>61.66651</ele>
        <time>2015-06-04T15:00:10Z</time>
      </trkpt>
      <trkpt lat="49.09089" lon="-1.30401">
        <ele>61.66651</ele>
        <time>2015-06-04T15:00:15Z</time>
      </trkpt>
      <trkpt lat="49.09093" lon="-1.30405">
        <ele>61.436054</ele>
        <time>2015-06-04T15:00:20Z</time>
      </trkpt>
      <trkpt lat="49.09098" lon="-1.3041">
        <ele>61.436054</ele>
        <time>2015-06-04T15:00:25Z</time>
      </trkpt>
      <trkpt lat="49.09102" lon="-1.30415">
        <ele>61.33909</ele>
        <time>2015-06-04T15:00:30Z</time>
      </trkpt>
      <trkpt lat="49.09106" lon="-1.30422">
        <ele>61.33909</ele>
        <time>2015-06-04T15:00:35Z</time>
      </trkpt>
      <trkpt lat="49.09111" lon="-1.30429">
        <ele>61.307198</ele>
        <time>2015-06-04T15:00:40Z</time>
      </trkpt>
      <trkpt lat="49.09114" lon="-1.30434">
        <ele>61.307198</ele>
        <time>2015-06-04T15:00:45Z</time>
      </trkpt>
      <trkpt lat="49.09117" lon="-1.30439">
        <ele>61.307198</ele>
        <time>2015-06-04T15:00:50Z</time>
      </trkpt>
      <trkpt lat="49.09121" lon="-1.30446">
        <ele>61.43529</ele>
        <time>2015-06-04T15:00:55Z</time>
      </trkpt>
      <trkpt lat="49.09126" lon="-1.30452">
        <ele>61.43529</ele>
        <time>2015-06-04T15:01:00Z</time>
      </trkpt>
      <trkpt lat="49.09129" lon="-1.30459">
        <ele>61.767586</ele>
        <time>2015-06-04T15:01:05Z</time>
      </trkpt>
      <trkpt lat="49.09134" lon="-1.30466">
        <ele>61.767586</ele>
        <time>2015-06-04T15:01:10Z</time>
      </trkpt>
      <trkpt lat="49.09138" lon="-1.30473">
        <ele>62.27242</ele>
        <time>2015-06-04T15:01:15Z</time>
      </trkpt>
      <trkpt lat="49.09141" lon="-1.30478">
        <ele>62.27242</ele>
        <time>2015-06-04T15:01:20Z</time>
      </trkpt>
      <trkpt lat="49.09146" lon="-1.30486">
        <ele>62.876705</ele>
        <time>2015-06-04T15:01:25Z</time>
      </trkpt>
      <trkpt lat="49.09149" lon="-1.30491">
        <ele>62.876705</ele>
        <time>2015-06-04T15:01:30Z</time>
      </trkpt>
      <trkpt lat="49.09154" lon="-1.30498">
        <ele>63.598923</ele>
        <time>2015-06-04T15:01:35Z</time>
      </trkpt>
      <trkpt lat="49.09156" lon="-1.30505">
        <ele>63.598923</ele>
        <time>2015-06-04T15:01:40Z</time>
      </trkpt>
      <trkpt lat="49.09159" lon="-1.30512">
        <ele>64.42703</ele>
        <time>2015-06-04T15:01:45Z</time>
      </trkpt>
      <trkpt lat="49.09162" lon="-1.30518">
        <ele>64.42703</ele>
        <time>2015-06-04T15:01:50Z</time>
      </trkpt>
      <trkpt lat="49.09165" lon="-1.30524">
        <ele>65.30638</ele>
        <time>2015-06-04T15:01:55Z</time>
      </trkpt>
      <trkpt lat="49.09169" lon="-1.30532">
        <ele>65.30638</ele>
        <time>2015-06-04T15:02:00Z</time>
      </trkpt>
      <trkpt lat="49.09173" lon="-1.30538">
        <ele>66.34472</ele>
        <time>2015-06-04T15:02:05Z</time>
      </trkpt>
      <trkpt lat="49.09176" lon="-1.30544">
        <ele>66.34472</ele>
        <time>2015-06-04T15:02:10Z</time>
      </trkpt>
      <trkpt lat="49.09182" lon="-1.30551">
        <ele>67.49736</ele>
        <time>2015-06-04T15:02:15Z</time>
      </trkpt>
      <trkpt lat="49.09186" lon="-1.30557">
        <ele>67.49736</ele>
        <time>2015-06-04T15:02:20Z</time>
      </trkpt>
      <trkpt lat="49.0919" lon="-1.30564">
        <ele>68.664986</ele>
        <time>2015-06-04T15:02:25Z</time>
      </trkpt>
      <trkpt lat="49.09193" lon="-1.30571">
        <ele>68.664986</ele>
        <time>2015-06-04T15:02:30Z</time>
      </trkpt>
      <trkpt lat="49.09197" lon="-1.30578">
        <ele>69.8997</ele>
        <time>2015-06-04T15:02:35Z</time>
      </trkpt>
      <trkpt lat="49.09201" lon="-1.30584">
        <ele>69.8997</ele>
        <time>2015-06-04T15:02:40Z</time>
      </trkpt>
      <trkpt lat="49.09207" lon="-1.30592">
        <ele>71.13434</ele>
        <time>2015-06-04T15:02:45Z</time>
      </trkpt>
      <trkpt lat="49.09211" lon="-1.30599">
        <ele>71.13434</ele>
        <time>2015-06-04T15:02:50Z</time>
      </trkpt>
      <trkpt lat="49.09215" lon="-1.30605">
        <ele>72.37884</ele>
        <time>2015-06-04T15:02:55Z</time>
      </trkpt>
      <trkpt lat="49.09219" lon="-1.3061">
        <ele>72.37884</ele>
        <time>2015-06-04T15:03:00Z</time>
      </trkpt>
      <trkpt lat="49.09223" lon="-1.30615">
        <ele>73.58479</ele>
        <time>2015-06-04T15:03:05Z</time>
      </trkpt>
      <trkpt lat="49.09227" lon="-1.30619">
        <ele>73.58479</ele>
        <time>2015-06-04T15:03:10Z</time>
      </trkpt>
      <trkpt lat="49.09233" lon="-1.30625">
        <ele>74.721954</ele>
        <time>2015-06-04T15:03:15Z</time>
      </trkpt>
      <trkpt lat="49.09237" lon="-1.3063">
        <ele>74.721954</ele>
        <time>2015-06-04T15:03:20Z</time>
      </trkpt>
      <trkpt lat="49.0924" lon="-1.30633">
        <ele>75.777</ele>
        <time>2015-06-04T15:03:25Z</time>
      </trkpt>
      <trkpt lat="49.09246" lon="-1.3064">
        <ele>75.777</ele>
        <time>2015-06-04T15:03:30Z</time>
      </trkpt>
      <trkpt lat="49.09251" lon="-1.30645">
        <ele>76.79556</ele>
        <time>2015-06-04T15:03:35Z</time>
      </trkpt>
      <trkpt lat="49.09256" lon="-1.30651">
        <ele>76.79556</ele>
        <time>2015-06-04T15:03:40Z</time>
      </trkpt>
      <trkpt lat="49.09261" lon="-1.30656">
        <ele>77.80571</ele>
        <time>2015-06-04T15:03:45Z</time>
      </trkpt>
      <trkpt lat="49.09265" lon="-1.30661">
        <ele>77.80571</ele>
        <time>2015-06-04T15:03:50Z</time>
      </trkpt>
      <trkpt lat="49.09269" lon="-1.30667">
        <ele>78.77594</ele>
        <time>2015-06-04T15:03:55Z</time>
      </trkpt>
      <trkpt lat="49.09274" lon="-1.30672">
        <ele>78.77594</ele>
        <time>2015-06-04T15:04:00Z</time>
      </trkpt>
      <trkpt lat="49.0928" lon="-1.30679">
        <ele>79.706085</ele>
        <time>2015-06-04T15:04:05Z</time>
      </trkpt>
      <trkpt lat="49.09284" lon="-1.30686">
        <ele>79.706085</ele>
        <time>2015-06-04T15:04:10Z</time>
      </trkpt>
      <trkpt lat="49.09288" lon="-1.30691">
        <ele>80.62505</ele>
        <time>2015-06-04T15:04:15Z</time>
      </trkpt>
      <trkpt lat="49.09294" lon="-1.30697">
        <ele>80.62505</ele>
        <time>2015-06-04T15:04:20Z</time>
      </trkpt>
      <trkpt lat="49.09298" lon="-1.30704">
        <ele>81.51653</ele>
        <time>2015-06-04T15:04:25Z</time>
      </trkpt>
      <trkpt lat="49.09301" lon="-1.3071">
        <ele>81.51653</ele>
        <time>2015-06-04T15:04:30Z</time>
      </trkpt>
      <trkpt lat="49.09304" lon="-1.30715">
        <ele>82.423225</ele>
        <time>2015-06-04T15:04:35Z</time>
      </trkpt>
      <trkpt lat="49.09309" lon="-1.3072">
        <ele>82.423225</ele>
        <time>2015-06-04T15:04:40Z</time>
      </trkpt>
      <trkpt lat="49.09313" lon="-1.30726">
        <ele>83.29831</ele>
        <time>2015-06-04T15:04:45Z</time>
      </trkpt>
      <trkpt lat="49.09317" lon="-1.30731">
        <ele>83.29831</ele>
        <time>2015-06-04T15:04:50Z</time>
      </trkpt>
      <trkpt lat="49.0932" lon="-1.30735">
        <ele>84.170654</ele>
        <time>2015-06-04T15:04:55Z</time>
      </trkpt>
      <trkpt lat="49.09324" lon="-1.3074">
        <ele>84.170654</ele>
        <time>2015-06-04T15:05:00Z</time>
      </trkpt>
      <trkpt lat="49.09328" lon="-1.30745">
        <ele>85.038284</ele>
        <time>2015-06-04T15:05:05Z</time>
      </trkpt>
      <trkpt lat="49.09332" lon="-1.30752">
        <ele>85.038284</ele>
        <time>2015-06-04T15:05:10Z</time>
      </trkpt>
      <trkpt lat="49.09334" lon="-1.30758">
        <ele>85.97156</ele>
        <time>2015-06-04T15:05:15Z</time>
      </trkpt>
      <trkpt lat="49.09334" lon="-1.30767">
        <ele>85.97156</ele>
        <time>2015-06-04T15:05:20Z</time>
      </trkpt>
      <trkpt lat="49.09331" lon="-1.30776">
        <ele>87.021164</ele>
        <time>2015-06-04T15:05:25Z</time>
      </trkpt>
      <trkpt lat="49.09329" lon="-1.30783">
        <ele>87.021164</ele>
        <time>2015-06-04T15:05:30Z</time>
      </trkpt>
      <trkpt lat="49.09325" lon="-1.30788">
        <ele>88.23385</ele>
        <time>2015-06-04T15:05:35Z</time>
      </trkpt>
      <trkpt lat="49.09324" lon="-1.30789">
        <ele>88.23385</ele>
        <time>2015-06-04T15:05:40Z</time>
      </trkpt>
      <trkpt lat="49.09325" lon="-1.30788">
        <ele>88.23385</ele>
        <time>2015-06-04T15:05:45Z</time>
      </trkpt>
      <trkpt lat="49.09325" lon="-1.30786">
        <ele>88.23385</ele>
        <time>2015-06-04T15:05:50Z</time>
      </trkpt>
      <trkpt lat="49.09324" lon="-1.30786">
        <ele>88.23385</ele>
        <time>2015-06-04T15:05:55Z</time>
      </trkpt>
      <trkpt lat="49.09322" lon="-1.30786">
        <ele>88.23385</ele>
        <time>2015-06-04T15:06:00Z</time>
      </trkpt>
      <trkpt lat="49.09319" lon="-1.30791">
        <ele>89.58051</ele>
        <time>2015-06-04T15:06:05Z</time>
      </trkpt>
      <trkpt lat="49.09317" lon="-1.30796">
        <ele>89.58051</ele>
        <time>2015-06-04T15:06:10Z</time>
      </trkpt>
      <trkpt lat="49.09318" lon="-1.30796">
        <ele>89.58051</ele>
        <time>2015-06-04T15:06:15Z</time>
      </trkpt>
      <trkpt lat="49.09317" lon="-1.30801">
        <ele>89.58051</ele>
        <time>2015-06-04T15:06:20Z</time>
      </trkpt>
      <trkpt lat="49.09316" lon="-1.30807">
        <ele>90.88981</ele>
        <time>2015-06-04T15:06:25Z</time>
      </trkpt>
      <trkpt lat="49.09313" lon="-1.30811">
        <ele>90.88981</ele>
        <time>2015-06-04T15:06:30Z</time>
      </trkpt>
      <trkpt lat="49.09309" lon="-1.30818">
        <ele>92.017586</ele>
        <time>2015-06-04T15:06:35Z</time>
      </trkpt>
      <trkpt lat="49.09304" lon="-1.30822">
        <ele>92.017586</ele>
        <time>2015-06-04T15:06:40Z</time>
      </trkpt>
      <trkpt lat="49.09298" lon="-1.3083">
        <ele>93.0903</ele>
        <time>2015-06-04T15:06:45Z</time>
      </trkpt>
      <trkpt lat="49.09293" lon="-1.30835">
        <ele>93.0903</ele>
        <time>2015-06-04T15:06:50Z</time>
      </trkpt>
      <trkpt lat="49.09288" lon="-1.3084">
        <ele>94.05245</ele>
        <time>2015-06-04T15:06:55Z</time>
      </trkpt>
      <trkpt lat="49.09284" lon="-1.30845">
        <ele>94.05245</ele>
        <time>2015-06-04T15:07:00Z</time>
      </trkpt>
      <trkpt lat="49.09283" lon="-1.30851">
        <ele>94.05245</ele>
        <time>2015-06-04T15:07:05Z</time>
      </trkpt>
      <trkpt lat="49.09279" lon="-1.30858">
        <ele>95.05476</ele>
        <time>2015-06-04T15:07:10Z</time>
      </trkpt>
      <trkpt lat="49.09275" lon="-1.30863">
        <ele>95.05476</ele>
        <time>2015-06-04T15:07:15Z</time>
      </trkpt>
      <trkpt lat="49.09271" lon="-1.30868">
        <ele>96.04954</ele>
        <time>2015-06-04T15:07:20Z</time>
      </trkpt>
      <trkpt lat="49.09267" lon="-1.30875">
        <ele>96.04954</ele>
        <time>2015-06-04T15:07:25Z</time>
      </trkpt>
      <trkpt lat="49.09263" lon="-1.30881">
        <ele>96.99269</ele>
        <time>2015-06-04T15:07:30Z</time>
      </trkpt>
      <trkpt lat="49.09259" lon="-1.30886">
        <ele>96.99269</ele>
        <time>2015-06-04T15:07:35Z</time>
      </trkpt>
      <trkpt lat="49.09255" lon="-1.30892">
        <ele>97.80038</ele>
        <time>2015-06-04T15:07:40Z</time>
      </trkpt>
      <trkpt lat="49.09249" lon="-1.30897">
        <ele>97.80038</ele>
        <time>2015-06-04T15:07:45Z</time>
      </trkpt>
      <trkpt lat="49.09243" lon="-1.30905">
        <ele>98.42421</ele>
        <time>2015-06-04T15:07:50Z</time>
      </trkpt>
      <trkpt lat="49.09238" lon="-1.30913">
        <ele>98.42421</ele>
        <time>2015-06-04T15:07:55Z</time>
      </trkpt>
      <trkpt lat="49.09235" lon="-1.30916">
        <ele>98.80553</ele>
        <time>2015-06-04T15:08:00Z</time>
      </trkpt>
      <trkpt lat="49.09232" lon="-1.30923">
        <ele>98.80553</ele>
        <time>2015-06-04T15:08:05Z</time>
      </trkpt>
      <trkpt lat="49.09228" lon="-1.30932">
        <ele>99.19338</ele>
        <time>2015-06-04T15:08:10Z</time>
      </trkpt>
      <trkpt lat="49.09224" lon="-1.30938">
        <ele>99.19338</ele>
        <time>2015-06-04T15:08:15Z</time>
      </trkpt>
      <trkpt lat="49.0922" lon="-1.30945">
        <ele>99.55917</ele>
        <time>2015-06-04T15:08:20Z</time>
      </trkpt>
      <trkpt lat="49.09215" lon="-1.30952">
        <ele>99.55917</ele>
        <time>2015-06-04T15:08:25Z</time>
      </trkpt>
      <trkpt lat="49.09215" lon="-1.30953">
        <ele>99.55917</ele>
        <time>2015-06-04T15:08:30Z</time>
      </trkpt>
      <trkpt lat="49.09215" lon="-1.30953">
        <ele>99.55917</ele>
        <time>2015-06-04T15:08:35Z</time>
      </trkpt>
      <trkpt lat="49.09215" lon="-1.30952">
        <ele>99.55917</ele>
        <time>2015-06-04T15:08:40Z</time>
      </trkpt>
      <trkpt lat="49.09213" lon="-1.30952">
        <ele>99.718</ele>
        <time>2015-06-04T15:08:45Z</time>
      </trkpt>
      <trkpt lat="49.09214" lon="-1.3095">
        <ele>99.718</ele>
        <time>2015-06-04T15:08:50Z</time>
      </trkpt>
      <trkpt lat="49.09214" lon="-1.3095">
        <ele>99.718</ele>
        <time>2015-06-04T15:08:55Z</time>
      </trkpt>
      <trkpt lat="49.09214" lon="-1.30951">
        <ele>99.718</ele>
        <time>2015-06-04T15:09:00Z</time>
      </trkpt>
      <trkpt lat="49.09215" lon="-1.3095">
        <ele>99.718</ele>
        <time>2015-06-04T15:09:05Z</time>
      </trkpt>
      <trkpt lat="49.09215" lon="-1.3095">
        <ele>99.718</ele>
        <time>2015-06-04T15:09:10Z</time>
      </trkpt>
      <trkpt lat="49.09215" lon="-1.30951">
        <ele>99.718</ele>
        <time>2015-06-04T15:09:15Z</time>
      </trkpt>
      <trkpt lat="49.09215" lon="-1.30952">
        <ele>99.718</ele>
        <time>2015-06-04T15:09:20Z</time>
      </trkpt>
      <trkpt lat="49.09215" lon="-1.30951">
        <ele>99.718</ele>
        <time>2015-06-04T15:09:25Z</time>
      </trkpt>
      <trkpt lat="49.09215" lon="-1.30951">
        <ele>99.718</ele>
        <time>2015-06-04T15:09:30Z</time>
      </trkpt>
      <trkpt lat="49.09216" lon="-1.30947">
        <ele>99.68654</ele>
        <time>2015-06-04T15:09:35Z</time>
      </trkpt>
      <trkpt lat="49.09221" lon="-1.3094">
        <ele>99.68654</ele>
        <time>2015-06-04T15:09:40Z</time>
      </trkpt>
      <trkpt lat="49.09224" lon="-1.30936">
        <ele>99.668144</ele>
        <time>2015-06-04T15:09:45Z</time>
      </trkpt>
      <trkpt lat="49.09227" lon="-1.30931">
        <ele>99.668144</ele>
        <time>2015-06-04T15:09:50Z</time>
      </trkpt>
      <trkpt lat="49.09232" lon="-1.30925">
        <ele>99.57742</ele>
        <time>2015-06-04T15:09:55Z</time>
      </trkpt>
      <trkpt lat="49.09237" lon="-1.30918">
        <ele>99.57742</ele>
        <time>2015-06-04T15:10:00Z</time>
      </trkpt>
      <trkpt lat="49.09239" lon="-1.30913">
        <ele>99.494026</ele>
        <time>2015-06-04T15:10:05Z</time>
      </trkpt>
      <trkpt lat="49.09242" lon="-1.30908">
        <ele>99.494026</ele>
        <time>2015-06-04T15:10:10Z</time>
      </trkpt>
      <trkpt lat="49.09246" lon="-1.30902">
        <ele>99.36203</ele>
        <time>2015-06-04T15:10:15Z</time>
      </trkpt>
      <trkpt lat="49.09249" lon="-1.30896">
        <ele>99.36203</ele>
        <time>2015-06-04T15:10:20Z</time>
      </trkpt>
      <trkpt lat="49.09254" lon="-1.3089">
        <ele>99.144196</ele>
        <time>2015-06-04T15:10:25Z</time>
      </trkpt>
      <trkpt lat="49.09258" lon="-1.30886">
        <ele>99.144196</ele>
        <time>2015-06-04T15:10:30Z</time>
      </trkpt>
      <trkpt lat="49.09262" lon="-1.3088">
        <ele>98.90712</ele>
        <time>2015-06-04T15:10:35Z</time>
      </trkpt>
      <trkpt lat="49.09266" lon="-1.30875">
        <ele>98.90712</ele>
        <time>2015-06-04T15:10:40Z</time>
      </trkpt>
      <trkpt lat="49.09271" lon="-1.30869">
        <ele>98.597275</ele>
        <time>2015-06-04T15:10:45Z</time>
      </trkpt>
      <trkpt lat="49.09275" lon="-1.30865">
        <ele>98.597275</ele>
        <time>2015-06-04T15:10:50Z</time>
      </trkpt>
      <trkpt lat="49.09278" lon="-1.30859">
        <ele>98.15086</ele>
        <time>2015-06-04T15:10:55Z</time>
      </trkpt>
      <trkpt lat="49.09282" lon="-1.30853">
        <ele>98.15086</ele>
        <time>2015-06-04T15:11:00Z</time>
      </trkpt>
      <trkpt lat="49.09286" lon="-1.30847">
        <ele>97.62439</ele>
        <time>2015-06-04T15:11:05Z</time>
      </trkpt>
      <trkpt lat="49.09291" lon="-1.30841">
        <ele>97.62439</ele>
        <time>2015-06-04T15:11:10Z</time>
      </trkpt>
      <trkpt lat="49.09295" lon="-1.30835">
        <ele>97.113655</ele>
        <time>2015-06-04T15:11:15Z</time>
      </trkpt>
      <trkpt lat="49.09297" lon="-1.30826">
        <ele>97.113655</ele>
        <time>2015-06-04T15:11:20Z</time>
      </trkpt>
      <trkpt lat="49.09299" lon="-1.30822">
        <ele>96.59206</ele>
        <time>2015-06-04T15:11:25Z</time>
      </trkpt>
      <trkpt lat="49.09302" lon="-1.30817">
        <ele>96.59206</ele>
        <time>2015-06-04T15:11:30Z</time>
      </trkpt>
      <trkpt lat="49.0931" lon="-1.30811">
        <ele>95.97728</ele>
        <time>2015-06-04T15:11:35Z</time>
      </trkpt>
      <trkpt lat="49.09312" lon="-1.30805">
        <ele>95.97728</ele>
        <time>2015-06-04T15:11:40Z</time>
      </trkpt>
      <trkpt lat="49.09318" lon="-1.308">
        <ele>95.35178</ele>
        <time>2015-06-04T15:11:45Z</time>
      </trkpt>
      <trkpt lat="49.09321" lon="-1.30792">
        <ele>95.35178</ele>
        <time>2015-06-04T15:11:50Z</time>
      </trkpt>
      <trkpt lat="49.09325" lon="-1.30788">
        <ele>94.79195</ele>
        <time>2015-06-04T15:11:55Z</time>
      </trkpt>
      <trkpt lat="49.09329" lon="-1.30782">
        <ele>94.79195</ele>
        <time>2015-06-04T15:12:00Z</time>
      </trkpt>
      <trkpt lat="49.09331" lon="-1.30776">
        <ele>94.22418</ele>
        <time>2015-06-04T15:12:05Z</time>
      </trkpt>
      <trkpt lat="49.09334" lon="-1.30771">
        <ele>94.22418</ele>
        <time>2015-06-04T15:12:10Z</time>
      </trkpt>
      <trkpt lat="49.09336" lon="-1.30767">
        <ele>94.22418</ele>
        <time>2015-06-04T15:12:15Z</time>
      </trkpt>
      <trkpt lat="49.09338" lon="-1.30763">
        <ele>93.69554</ele>
        <time>2015-06-04T15:12:20Z</time>
      </trkpt>
      <trkpt lat="49.09339" lon="-1.30764">
        <ele>93.69554</ele>
        <time>2015-06-04T15:12:25Z</time>
      </trkpt>
      <trkpt lat="49.09338" lon="-1.30766">
        <ele>93.69554</ele>
        <time>2015-06-04T15:12:30Z</time>
      </trkpt>
      <trkpt lat="49.09336" lon="-1.30766">
        <ele>93.69554</ele>
        <time>2015-06-04T15:12:35Z</time>
      </trkpt>
      <trkpt lat="49.09343" lon="-1.30755">
        <ele>93.06209</ele>
        <time>2015-06-04T15:12:40Z</time>
      </trkpt>
      <trkpt lat="49.09346" lon="-1.30749">
        <ele>93.06209</ele>
        <time>2015-06-04T15:12:45Z</time>
      </trkpt>
      <trkpt lat="49.0935" lon="-1.30744">
        <ele>92.55097</ele>
        <time>2015-06-04T15:12:50Z</time>
      </trkpt>
      <trkpt lat="49.09352" lon="-1.30737">
        <ele>92.55097</ele>
        <time>2015-06-04T15:12:55Z</time>
      </trkpt>
      <trkpt lat="49.09355" lon="-1.30731">
        <ele>92.12723</ele>
        <time>2015-06-04T15:13:00Z</time>
      </trkpt>
      <trkpt lat="49.0936" lon="-1.30726">
        <ele>92.12723</ele>
        <time>2015-06-04T15:13:05Z</time>
      </trkpt>
      <trkpt lat="49.09364" lon="-1.30721">
        <ele>91.57078</ele>
        <time>2015-06-04T15:13:10Z</time>
      </trkpt>
      <trkpt lat="49.09367" lon="-1.30716">
        <ele>91.57078</ele>
        <time>2015-06-04T15:13:15Z</time>
      </trkpt>
      <trkpt lat="49.09371" lon="-1.3071">
        <ele>90.98066</ele>
        <time>2015-06-04T15:13:20Z</time>
      </trkpt>
      <trkpt lat="49.09375" lon="-1.30704">
        <ele>90.98066</ele>
        <time>2015-06-04T15:13:25Z</time>
      </trkpt>
      <trkpt lat="49.0938" lon="-1.307">
        <ele>90.4342</ele>
        <time>2015-06-04T15:13:30Z</time>
      </trkpt>
      <trkpt lat="49.09384" lon="-1.30694">
        <ele>90.4342</ele>
        <time>2015-06-04T15:13:35Z</time>
      </trkpt>
      <trkpt lat="49.09385" lon="-1.3069">
        <ele>90.4342</ele>
        <time>2015-06-04T15:13:40Z</time>
      </trkpt>
      <trkpt lat="49.09391" lon="-1.30685">
        <ele>90.074905</ele>
        <time>2015-06-04T15:13:45Z</time>
      </trkpt>
      <trkpt lat="49.09391" lon="-1.30683">
        <ele>90.074905</ele>
        <time>2015-06-04T15:13:50Z</time>
      </trkpt>
      <trkpt lat="49.09389" lon="-1.30682">
        <ele>90.074905</ele>
        <time>2015-06-04T15:13:55Z</time>
      </trkpt>
      <trkpt lat="49.09389" lon="-1.30683">
        <ele>90.074905</ele>
        <time>2015-06-04T15:14:00Z</time>
      </trkpt>
      <trkpt lat="49.09389" lon="-1.30683">
        <ele>90.074905</ele>
        <time>2015-06-04T15:14:05Z</time>
      </trkpt>
      <trkpt lat="49.09389" lon="-1.30681">
        <ele>90.074905</ele>
        <time>2015-06-04T15:14:10Z</time>
      </trkpt>
      <trkpt lat="49.09389" lon="-1.30679">
        <ele>90.074905</ele>
        <time>2015-06-04T15:14:15Z</time>
      </trkpt>
      <trkpt lat="49.09391" lon="-1.3068">
        <ele>90.074905</ele>
        <time>2015-06-04T15:14:20Z</time>
      </trkpt>
      <trkpt lat="49.09392" lon="-1.30681">
        <ele>89.80455</ele>
        <time>2015-06-04T15:14:25Z</time>
      </trkpt>
      <trkpt lat="49.09392" lon="-1.30682">
        <ele>89.80455</ele>
        <time>2015-06-04T15:14:30Z</time>
      </trkpt>
      <trkpt lat="49.09392" lon="-1.30681">
        <ele>89.80455</ele>
        <time>2015-06-04T15:14:35Z</time>
      </trkpt>
      <trkpt lat="49.09395" lon="-1.30676">
        <ele>89.80455</ele>
        <time>2015-06-04T15:14:40Z</time>
      </trkpt>
      <trkpt lat="49.09397" lon="-1.30676">
        <ele>89.80455</ele>
        <time>2015-06-04T15:14:45Z</time>
      </trkpt>
      <trkpt lat="49.09401" lon="-1.30684">
        <ele>89.84883</ele>
        <time>2015-06-04T15:14:50Z</time>
      </trkpt>
      <trkpt lat="49.094" lon="-1.30691">
        <ele>89.84883</ele>
        <time>2015-06-04T15:14:55Z</time>
      </trkpt>
      <trkpt lat="49.09399" lon="-1.30697">
        <ele>89.84883</ele>
        <time>2015-06-04T15:15:00Z</time>
      </trkpt>
      <trkpt lat="49.09399" lon="-1.30698">
        <ele>89.96913</ele>
        <time>2015-06-04T15:15:05Z</time>
      </trkpt>
      <trkpt lat="49.09399" lon="-1.30698">
        <ele>89.96913</ele>
        <time>2015-06-04T15:15:10Z</time>
      </trkpt>
      <trkpt lat="49.09399" lon="-1.30698">
        <ele>89.96913</ele>
        <time>2015-06-04T15:15:15Z</time>
      </trkpt>
      <trkpt lat="49.09398" lon="-1.30697">
        <ele>89.96913</ele>
        <time>2015-06-04T15:15:20Z</time>
      </trkpt>
      <trkpt lat="49.09398" lon="-1.30697">
        <ele>89.96913</ele>
        <time>2015-06-04T15:15:25Z</time>
      </trkpt>
      <trkpt lat="49.09398" lon="-1.30699">
        <ele>89.96913</ele>
        <time>2015-06-04T15:15:30Z</time>
      </trkpt>
      <trkpt lat="49.094" lon="-1.30698">
        <ele>89.96913</ele>
        <time>2015-06-04T15:15:35Z</time>
      </trkpt>
      <trkpt lat="49.094" lon="-1.30698">
        <ele>89.96913</ele>
        <time>2015-06-04T15:15:40Z</time>
      </trkpt>
      <trkpt lat="49.094" lon="-1.30698">
        <ele>89.96913</ele>
        <time>2015-06-04T15:15:45Z</time>
      </trkpt>
      <trkpt lat="49.09401" lon="-1.30698">
        <ele>89.96913</ele>
        <time>2015-06-04T15:15:50Z</time>
      </trkpt>
      <trkpt lat="49.09401" lon="-1.30698">
        <ele>89.96913</ele>
        <time>2015-06-04T15:15:55Z</time>
      </trkpt>
      <trkpt lat="49.094" lon="-1.30698">
        <ele>89.96913</ele>
        <time>2015-06-04T15:16:00Z</time>
      </trkpt>
      <trkpt lat="49.09399" lon="-1.30699">
        <ele>90.01616</ele>
        <time>2015-06-04T15:16:05Z</time>
      </trkpt>
      <trkpt lat="49.09398" lon="-1.30699">
        <ele>90.01616</ele>
        <time>2015-06-04T15:16:10Z</time>
      </trkpt>
      <trkpt lat="49.09398" lon="-1.30699">
        <ele>90.01616</ele>
        <time>2015-06-04T15:16:15Z</time>
      </trkpt>
      <trkpt lat="49.09399" lon="-1.30697">
        <ele>90.01616</ele>
        <time>2015-06-04T15:16:20Z</time>
      </trkpt>
      <trkpt lat="49.094" lon="-1.30696">
        <ele>90.01616</ele>
        <time>2015-06-04T15:16:25Z</time>
      </trkpt>
      <trkpt lat="49.09401" lon="-1.30696">
        <ele>90.01616</ele>
        <time>2015-06-04T15:16:30Z</time>
      </trkpt>
      <trkpt lat="49.094" lon="-1.30698">
        <ele>90.01616</ele>
        <time>2015-06-04T15:16:35Z</time>
      </trkpt>
      <trkpt lat="49.09398" lon="-1.307">
        <ele>90.01616</ele>
        <time>2015-06-04T15:16:40Z</time>
      </trkpt>
      <trkpt lat="49.09398" lon="-1.30701">
        <ele>90.05344</ele>
        <time>2015-06-04T15:16:45Z</time>
      </trkpt>
      <trkpt lat="49.09399" lon="-1.30702">
        <ele>90.05344</ele>
        <time>2015-06-04T15:16:50Z</time>
      </trkpt>
      <trkpt lat="49.09398" lon="-1.307">
        <ele>90.05344</ele>
        <time>2015-06-04T15:16:55Z</time>
      </trkpt>
      <trkpt lat="49.09399" lon="-1.307">
        <ele>90.05344</ele>
        <time>2015-06-04T15:17:00Z</time>
      </trkpt>
      <trkpt lat="49.09398" lon="-1.30701">
        <ele>90.05344</ele>
        <time>2015-06-04T15:17:05Z</time>
      </trkpt>
      <trkpt lat="49.09396" lon="-1.30699">
        <ele>90.05344</ele>
        <time>2015-06-04T15:17:10Z</time>
      </trkpt>
      <trkpt lat="49.09396" lon="-1.30699">
        <ele>90.05344</ele>
        <time>2015-06-04T15:17:15Z</time>
      </trkpt>
      <trkpt lat="49.09397" lon="-1.30698">
        <ele>90.05344</ele>
        <time>2015-06-04T15:17:20Z</time>
      </trkpt>
      <trkpt lat="49.09398" lon="-1.30699">
        <ele>90.05344</ele>
        <time>2015-06-04T15:17:25Z</time>
      </trkpt>
      <trkpt lat="49.094" lon="-1.30698">
        <ele>90.2695</ele>
        <time>2015-06-04T15:17:30Z</time>
      </trkpt>
      <trkpt lat="49.09399" lon="-1.30701">
        <ele>90.2695</ele>
        <time>2015-06-04T15:17:35Z</time>
      </trkpt>
      <trkpt lat="49.09401" lon="-1.30699">
        <ele>90.2695</ele>
        <time>2015-06-04T15:17:40Z</time>
      </trkpt>
      <trkpt lat="49.09403" lon="-1.307">
        <ele>90.2695</ele>
        <time>2015-06-04T15:17:45Z</time>
      </trkpt>
      <trkpt lat="49.09402" lon="-1.30698">
        <ele>90.2695</ele>
        <time>2015-06-04T15:17:50Z</time>
      </trkpt>
      <trkpt lat="49.094" lon="-1.30697">
        <ele>90.46377</ele>
        <time>2015-06-04T15:17:55Z</time>
      </trkpt>
      <trkpt lat="49.09399" lon="-1.30695">
        <ele>90.46377</ele>
        <time>2015-06-04T15:18:00Z</time>
      </trkpt>
      <trkpt lat="49.09399" lon="-1.30695">
        <ele>90.46377</ele>
        <time>2015-06-04T15:18:05Z</time>
      </trkpt>
      <trkpt lat="49.09399" lon="-1.30695">
        <ele>90.46377</ele>
        <time>2015-06-04T15:18:10Z</time>
      </trkpt>
      <trkpt lat="49.09399" lon="-1.30693">
        <ele>90.46377</ele>
        <time>2015-06-04T15:18:15Z</time>
      </trkpt>
      <trkpt lat="49.09399" lon="-1.30693">
        <ele>90.46377</ele>
        <time>2015-06-04T15:18:20Z</time>
      </trkpt>
      <trkpt lat="49.09399" lon="-1.30694">
        <ele>90.46377</ele>
        <time>2015-06-04T15:18:25Z</time>
      </trkpt>
      <trkpt lat="49.09398" lon="-1.30695">
        <ele>90.46377</ele>
        <time>2015-06-04T15:18:30Z</time>
      </trkpt>
      <trkpt lat="49.09396" lon="-1.30694">
        <ele>90.46377</ele>
        <time>2015-06-04T15:18:35Z</time>
      </trkpt>
      <trkpt lat="49.09395" lon="-1.30693">
        <ele>90.680954</ele>
        <time>2015-06-04T15:18:40Z</time>
      </trkpt>
      <trkpt lat="49.09394" lon="-1.30693">
        <ele>90.680954</ele>
        <time>2015-06-04T15:18:45Z</time>
      </trkpt>
      <trkpt lat="49.09394" lon="-1.30694">
        <ele>90.680954</ele>
        <time>2015-06-04T15:18:50Z</time>
      </trkpt>
      <trkpt lat="49.09393" lon="-1.30694">
        <ele>90.680954</ele>
        <time>2015-06-04T15:18:55Z</time>
      </trkpt>
      <trkpt lat="49.09393" lon="-1.30694">
        <ele>90.680954</ele>
        <time>2015-06-04T15:19:00Z</time>
      </trkpt>
      <trkpt lat="49.09393" lon="-1.30693">
        <ele>90.680954</ele>
        <time>2015-06-04T15:19:05Z</time>
      </trkpt>
      <trkpt lat="49.09393" lon="-1.30691">
        <ele>90.680954</ele>
        <time>2015-06-04T15:19:10Z</time>
      </trkpt>
      <trkpt lat="49.09393" lon="-1.3069">
        <ele>90.680954</ele>
        <time>2015-06-04T15:19:15Z</time>
      </trkpt>
      <trkpt lat="49.09394" lon="-1.30689">
        <ele>90.680954</ele>
        <time>2015-06-04T15:19:20Z</time>
      </trkpt>
      <trkpt lat="49.09397" lon="-1.3069">
        <ele>90.99121</ele>
        <time>2015-06-04T15:19:25Z</time>
      </trkpt>
      <trkpt lat="49.09398" lon="-1.30691">
        <ele>90.99121</ele>
        <time>2015-06-04T15:19:30Z</time>
      </trkpt>
      <trkpt lat="49.09398" lon="-1.30691">
        <ele>90.99121</ele>
        <time>2015-06-04T15:19:35Z</time>
      </trkpt>
      <trkpt lat="49.09396" lon="-1.30693">
        <ele>90.99121</ele>
        <time>2015-06-04T15:19:40Z</time>
      </trkpt>
      <trkpt lat="49.09394" lon="-1.30695">
        <ele>90.99121</ele>
        <time>2015-06-04T15:19:45Z</time>
      </trkpt>
      <trkpt lat="49.09398" lon="-1.30697">
        <ele>91.24305</ele>
        <time>2015-06-04T15:19:50Z</time>
      </trkpt>
      <trkpt lat="49.09405" lon="-1.30699">
        <ele>91.24305</ele>
        <time>2015-06-04T15:19:55Z</time>
      </trkpt>
      <trkpt lat="49.09408" lon="-1.30703">
        <ele>91.48355</ele>
        <time>2015-06-04T15:20:00Z</time>
      </trkpt>
      <trkpt lat="49.09412" lon="-1.30707">
        <ele>91.48355</ele>
        <time>2015-06-04T15:20:05Z</time>
      </trkpt>
      <trkpt lat="49.09417" lon="-1.30713">
        <ele>91.66989</ele>
        <time>2015-06-04T15:20:10Z</time>
      </trkpt>
      <trkpt lat="49.09419" lon="-1.30717">
        <ele>91.66989</ele>
        <time>2015-06-04T15:20:15Z</time>
      </trkpt>
      <trkpt lat="49.09423" lon="-1.30722">
        <ele>91.66989</ele>
        <time>2015-06-04T15:20:20Z</time>
      </trkpt>
      <trkpt lat="49.09428" lon="-1.30727">
        <ele>91.82012</ele>
        <time>2015-06-04T15:20:25Z</time>
      </trkpt>
      <trkpt lat="49.09431" lon="-1.30731">
        <ele>91.82012</ele>
        <time>2015-06-04T15:20:30Z</time>
      </trkpt>
      <trkpt lat="49.09437" lon="-1.30736">
        <ele>91.922226</ele>
        <time>2015-06-04T15:20:35Z</time>
      </trkpt>
      <trkpt lat="49.09441" lon="-1.30742">
        <ele>91.922226</ele>
        <time>2015-06-04T15:20:40Z</time>
      </trkpt>
      <trkpt lat="49.09444" lon="-1.30745">
        <ele>91.922226</ele>
        <time>2015-06-04T15:20:45Z</time>
      </trkpt>
      <trkpt lat="49.09446" lon="-1.3075">
        <ele>92.09488</ele>
        <time>2015-06-04T15:20:50Z</time>
      </trkpt>
      <trkpt lat="49.0945" lon="-1.30756">
        <ele>92.09488</ele>
        <time>2015-06-04T15:20:55Z</time>
      </trkpt>
      <trkpt lat="49.09453" lon="-1.30767">
        <ele>92.39015</ele>
        <time>2015-06-04T15:21:00Z</time>
      </trkpt>
      <trkpt lat="49.09457" lon="-1.30772">
        <ele>92.39015</ele>
        <time>2015-06-04T15:21:05Z</time>
      </trkpt>
      <trkpt lat="49.09459" lon="-1.30779">
        <ele>92.78389</ele>
        <time>2015-06-04T15:21:10Z</time>
      </trkpt>
      <trkpt lat="49.09459" lon="-1.30781">
        <ele>92.78389</ele>
        <time>2015-06-04T15:21:15Z</time>
      </trkpt>
      <trkpt lat="49.09457" lon="-1.30782">
        <ele>92.78389</ele>
        <time>2015-06-04T15:21:20Z</time>
      </trkpt>
      <trkpt lat="49.09456" lon="-1.30781">
        <ele>92.78389</ele>
        <time>2015-06-04T15:21:25Z</time>
      </trkpt>
      <trkpt lat="49.09456" lon="-1.30782">
        <ele>92.78389</ele>
        <time>2015-06-04T15:21:30Z</time>
      </trkpt>
      <trkpt lat="49.09456" lon="-1.30783">
        <ele>92.78389</ele>
        <time>2015-06-04T15:21:35Z</time>
      </trkpt>
      <trkpt lat="49.09458" lon="-1.30784">
        <ele>92.78389</ele>
        <time>2015-06-04T15:21:40Z</time>
      </trkpt>
      <trkpt lat="49.09458" lon="-1.30784">
        <ele>92.78389</ele>
        <time>2015-06-04T15:21:45Z</time>
      </trkpt>
      <trkpt lat="49.09461" lon="-1.30789">
        <ele>93.368675</ele>
        <time>2015-06-04T15:21:50Z</time>
      </trkpt>
      <trkpt lat="49.09463" lon="-1.30793">
        <ele>93.368675</ele>
        <time>2015-06-04T15:21:55Z</time>
      </trkpt>
      <trkpt lat="49.09464" lon="-1.30802">
        <ele>94.0136</ele>
        <time>2015-06-04T15:22:00Z</time>
      </trkpt>
      <trkpt lat="49.09465" lon="-1.30807">
        <ele>94.0136</ele>
        <time>2015-06-04T15:22:05Z</time>
      </trkpt>
      <trkpt lat="49.09468" lon="-1.30811">
        <ele>94.0136</ele>
        <time>2015-06-04T15:22:10Z</time>
      </trkpt>
      <trkpt lat="49.09472" lon="-1.30814">
        <ele>94.82776</ele>
        <time>2015-06-04T15:22:15Z</time>
      </trkpt>
      <trkpt lat="49.09471" lon="-1.30812">
        <ele>94.82776</ele>
        <time>2015-06-04T15:22:20Z</time>
      </trkpt>
      <trkpt lat="49.09471" lon="-1.3081">
        <ele>94.82776</ele>
        <time>2015-06-04T15:22:25Z</time>
      </trkpt>
      <trkpt lat="49.09471" lon="-1.3081">
        <ele>94.82776</ele>
        <time>2015-06-04T15:22:30Z</time>
      </trkpt>
      <trkpt lat="49.09471" lon="-1.30811">
        <ele>94.82776</ele>
        <time>2015-06-04T15:22:35Z</time>
      </trkpt>
      <trkpt lat="49.0947" lon="-1.30814">
        <ele>94.82776</ele>
        <time>2015-06-04T15:22:40Z</time>
      </trkpt>
      <trkpt lat="49.0947" lon="-1.30816">
        <ele>94.82776</ele>
        <time>2015-06-04T15:22:45Z</time>
      </trkpt>
      <trkpt lat="49.09471" lon="-1.30815">
        <ele>94.82776</ele>
        <time>2015-06-04T15:22:50Z</time>
      </trkpt>
      <trkpt lat="49.09472" lon="-1.30814">
        <ele>95.66677</ele>
        <time>2015-06-04T15:22:55Z</time>
      </trkpt>
      <trkpt lat="49.09477" lon="-1.30814">
        <ele>95.66677</ele>
        <time>2015-06-04T15:23:00Z</time>
      </trkpt>
      <trkpt lat="49.09482" lon="-1.3081">
        <ele>96.46884</ele>
        <time>2015-06-04T15:23:05Z</time>
      </trkpt>
      <trkpt lat="49.09489" lon="-1.30806">
        <ele>96.46884</ele>
        <time>2015-06-04T15:23:10Z</time>
      </trkpt>
      <trkpt lat="49.09495" lon="-1.30803">
        <ele>97.29213</ele>
        <time>2015-06-04T15:23:15Z</time>
      </trkpt>
      <trkpt lat="49.09499" lon="-1.30798">
        <ele>97.29213</ele>
        <time>2015-06-04T15:23:20Z</time>
      </trkpt>
      <trkpt lat="49.09505" lon="-1.30795">
        <ele>98.104004</ele>
        <time>2015-06-04T15:23:25Z</time>
      </trkpt>
      <trkpt lat="49.09509" lon="-1.3079">
        <ele>98.104004</ele>
        <time>2015-06-04T15:23:30Z</time>
      </trkpt>
      <trkpt lat="49.09515" lon="-1.30786">
        <ele>98.888695</ele>
        <time>2015-06-04T15:23:35Z</time>
      </trkpt>
      <trkpt lat="49.09519" lon="-1.30781">
        <ele>98.888695</ele>
        <time>2015-06-04T15:23:40Z</time>
      </trkpt>
      <trkpt lat="49.09524" lon="-1.30776">
        <ele>99.67493</ele>
        <time>2015-06-04T15:23:45Z</time>
      </trkpt>
      <trkpt lat="49.09528" lon="-1.30771">
        <ele>99.67493</ele>
        <time>2015-06-04T15:23:50Z</time>
      </trkpt>
      <trkpt lat="49.0953" lon="-1.30766">
        <ele>100.38847</ele>
        <time>2015-06-04T15:23:55Z</time>
      </trkpt>
      <trkpt lat="49.09536" lon="-1.30759">
        <ele>100.38847</ele>
        <time>2015-06-04T15:24:00Z</time>
      </trkpt>
      <trkpt lat="49.09542" lon="-1.30752">
        <ele>101.032845</ele>
        <time>2015-06-04T15:24:05Z</time>
      </trkpt>
      <trkpt lat="49.09549" lon="-1.30746">
        <ele>101.032845</ele>
        <time>2015-06-04T15:24:10Z</time>
      </trkpt>
      <trkpt lat="49.09554" lon="-1.3074">
        <ele>101.69798</ele>
        <time>2015-06-04T15:24:15Z</time>
      </trkpt>
      <trkpt lat="49.09557" lon="-1.30735">
        <ele>101.69798</ele>
        <time>2015-06-04T15:24:20Z</time>
      </trkpt>
      <trkpt lat="49.09561" lon="-1.30729">
        <ele>102.32311</ele>
        <time>2015-06-04T15:24:25Z</time>
      </trkpt>
      <trkpt lat="49.09567" lon="-1.30723">
        <ele>102.32311</ele>
        <time>2015-06-04T15:24:30Z</time>
      </trkpt>
      <trkpt lat="49.09575" lon="-1.3072">
        <ele>102.89529</ele>
        <time>2015-06-04T15:24:35Z</time>
      </trkpt>
      <trkpt lat="49.09581" lon="-1.30716">
        <ele>102.89529</ele>
        <time>2015-06-04T15:24:40Z</time>
      </trkpt>
      <trkpt lat="49.09587" lon="-1.30714">
        <ele>103.51801</ele>
        <time>2015-06-04T15:24:45Z</time>
      </trkpt>
      <trkpt lat="49.09589" lon="-1.30713">
        <ele>103.51801</ele>
        <time>2015-06-04T15:24:50Z</time>
      </trkpt>
      <trkpt lat="49.09594" lon="-1.30714">
        <ele>103.51801</ele>
        <time>2015-06-04T15:24:55Z</time>
      </trkpt>
      <trkpt lat="49.09601" lon="-1.30714">
        <ele>103.99886</ele>
        <time>2015-06-04T15:25:00Z</time>
      </trkpt>
      <trkpt lat="49.09607" lon="-1.30714">
        <ele>103.99886</ele>
        <time>2015-06-04T15:25:05Z</time>
      </trkpt>
      <trkpt lat="49.09612" lon="-1.30713">
        <ele>104.36174</ele>
        <time>2015-06-04T15:25:10Z</time>
      </trkpt>
      <trkpt lat="49.09617" lon="-1.3071">
        <ele>104.36174</ele>
        <time>2015-06-04T15:25:15Z</time>
      </trkpt>
      <trkpt lat="49.09622" lon="-1.30703">
        <ele>104.60034</ele>
        <time>2015-06-04T15:25:20Z</time>
      </trkpt>
      <trkpt lat="49.09626" lon="-1.30696">
        <ele>104.60034</ele>
        <time>2015-06-04T15:25:25Z</time>
      </trkpt>
      <trkpt lat="49.0963" lon="-1.30688">
        <ele>104.78127</ele>
        <time>2015-06-04T15:25:30Z</time>
      </trkpt>
      <trkpt lat="49.09635" lon="-1.30679">
        <ele>104.78127</ele>
        <time>2015-06-04T15:25:35Z</time>
      </trkpt>
      <trkpt lat="49.09637" lon="-1.30675">
        <ele>104.90881</ele>
        <time>2015-06-04T15:25:40Z</time>
      </trkpt>
      <trkpt lat="49.09642" lon="-1.30667">
        <ele>104.90881</ele>
        <time>2015-06-04T15:25:45Z</time>
      </trkpt>
      <trkpt lat="49.09646" lon="-1.3066">
        <ele>104.98711</ele>
        <time>2015-06-04T15:25:50Z</time>
      </trkpt>
      <trkpt lat="49.0965" lon="-1.30653">
        <ele>104.98711</ele>
        <time>2015-06-04T15:25:55Z</time>
      </trkpt>
      <trkpt lat="49.09654" lon="-1.30648">
        <ele>104.948105</ele>
        <time>2015-06-04T15:26:00Z</time>
      </trkpt>
      <trkpt lat="49.09658" lon="-1.30641">
        <ele>104.948105</ele>
        <time>2015-06-04T15:26:05Z</time>
      </trkpt>
      <trkpt lat="49.09664" lon="-1.30637">
        <ele>104.90205</ele>
        <time>2015-06-04T15:26:10Z</time>
      </trkpt>
      <trkpt lat="49.09667" lon="-1.3063">
        <ele>104.90205</ele>
        <time>2015-06-04T15:26:15Z</time>
      </trkpt>
      <trkpt lat="49.09671" lon="-1.30625">
        <ele>104.86467</ele>
        <time>2015-06-04T15:26:20Z</time>
      </trkpt>
      <trkpt lat="49.09677" lon="-1.30625">
        <ele>104.86467</ele>
        <time>2015-06-04T15:26:25Z</time>
      </trkpt>
      <trkpt lat="49.09682" lon="-1.30627">
        <ele>104.85052</ele>
        <time>2015-06-04T15:26:30Z</time>
      </trkpt>
      <trkpt lat="49.09687" lon="-1.30631">
        <ele>104.85052</ele>
        <time>2015-06-04T15:26:35Z</time>
      </trkpt>
      <trkpt lat="49.09692" lon="-1.30637">
        <ele>104.91629</ele>
        <time>2015-06-04T15:26:40Z</time>
      </trkpt>
      <trkpt lat="49.09697" lon="-1.3064">
        <ele>104.91629</ele>
        <time>2015-06-04T15:26:45Z</time>
      </trkpt>
      <trkpt lat="49.09703" lon="-1.30643">
        <ele>105.05663</ele>
        <time>2015-06-04T15:26:50Z</time>
      </trkpt>
      <trkpt lat="49.09708" lon="-1.30647">
        <ele>105.05663</ele>
        <time>2015-06-04T15:26:55Z</time>
      </trkpt>
      <trkpt lat="49.09713" lon="-1.3065">
        <ele>105.223175</ele>
        <time>2015-06-04T15:27:00Z</time>
      </trkpt>
      <trkpt lat="49.09717" lon="-1.30653">
        <ele>105.223175</ele>
        <time>2015-06-04T15:27:05Z</time>
      </trkpt>
      <trkpt lat="49.09718" lon="-1.30655">
        <ele>105.223175</ele>
        <time>2015-06-04T15:27:10Z</time>
      </trkpt>
      <trkpt lat="49.09726" lon="-1.30661">
        <ele>105.39984</ele>
        <time>2015-06-04T15:27:15Z</time>
      </trkpt>
      <trkpt lat="49.09731" lon="-1.30665">
        <ele>105.39984</ele>
        <time>2015-06-04T15:27:20Z</time>
      </trkpt>
      <trkpt lat="49.09735" lon="-1.30666">
        <ele>105.70144</ele>
        <time>2015-06-04T15:27:25Z</time>
      </trkpt>
      <trkpt lat="49.0974" lon="-1.3067">
        <ele>105.70144</ele>
        <time>2015-06-04T15:27:30Z</time>
      </trkpt>
      <trkpt lat="49.09745" lon="-1.30675">
        <ele>106.01781</ele>
        <time>2015-06-04T15:27:35Z</time>
      </trkpt>
      <trkpt lat="49.0975" lon="-1.30679">
        <ele>106.01781</ele>
        <time>2015-06-04T15:27:40Z</time>
      </trkpt>
      <trkpt lat="49.09756" lon="-1.30683">
        <ele>106.36214</ele>
        <time>2015-06-04T15:27:45Z</time>
      </trkpt>
      <trkpt lat="49.0976" lon="-1.30687">
        <ele>106.36214</ele>
        <time>2015-06-04T15:27:50Z</time>
      </trkpt>
      <trkpt lat="49.09765" lon="-1.30692">
        <ele>106.775406</ele>
        <time>2015-06-04T15:27:55Z</time>
      </trkpt>
      <trkpt lat="49.09771" lon="-1.30698">
        <ele>106.775406</ele>
        <time>2015-06-04T15:28:00Z</time>
      </trkpt>
      <trkpt lat="49.09777" lon="-1.30702">
        <ele>107.151276</ele>
        <time>2015-06-04T15:28:05Z</time>
      </trkpt>
      <trkpt lat="49.09782" lon="-1.30708">
        <ele>107.151276</ele>
        <time>2015-06-04T15:28:10Z</time>
      </trkpt>
      <trkpt lat="49.09787" lon="-1.30717">
        <ele>107.49222</ele>
        <time>2015-06-04T15:28:15Z</time>
      </trkpt>
      <trkpt lat="49.09788" lon="-1.30721">
        <ele>107.49222</ele>
        <time>2015-06-04T15:28:20Z</time>
      </trkpt>
      <trkpt lat="49.09792" lon="-1.3073">
        <ele>107.85827</ele>
        <time>2015-06-04T15:28:25Z</time>
      </trkpt>
      <trkpt lat="49.09794" lon="-1.30737">
        <ele>107.85827</ele>
        <time>2015-06-04T15:28:30Z</time>
      </trkpt>
      <trkpt lat="49.09796" lon="-1.30745">
        <ele>108.13205</ele>
        <time>2015-06-04T15:28:35Z</time>
      </trkpt>
      <trkpt lat="49.09799" lon="-1.30753">
        <ele>108.13205</ele>
        <time>2015-06-04T15:28:40Z</time>
      </trkpt>
      <trkpt lat="49.09802" lon="-1.3076">
        <ele>108.320366</ele>
        <time>2015-06-04T15:28:45Z</time>
      </trkpt>
      <trkpt lat="49.09805" lon="-1.30764">
        <ele>108.320366</ele>
        <time>2015-06-04T15:28:50Z</time>
      </trkpt>
      <trkpt lat="49.09807" lon="-1.30759">
        <ele>108.320366</ele>
        <time>2015-06-04T15:28:55Z</time>
      </trkpt>
      <trkpt lat="49.09807" lon="-1.30759">
        <ele>108.320366</ele>
        <time>2015-06-04T15:29:00Z</time>
      </trkpt>
      <trkpt lat="49.09806" lon="-1.3076">
        <ele>108.320366</ele>
        <time>2015-06-04T15:29:05Z</time>
      </trkpt>
      <trkpt lat="49.09805" lon="-1.30761">
        <ele>108.32889</ele>
        <time>2015-06-04T15:29:10Z</time>
      </trkpt>
      <trkpt lat="49.09805" lon="-1.30762">
        <ele>108.32889</ele>
        <time>2015-06-04T15:29:15Z</time>
      </trkpt>
      <trkpt lat="49.09805" lon="-1.30763">
        <ele>108.32889</ele>
        <time>2015-06-04T15:29:20Z</time>
      </trkpt>
      <trkpt lat="49.09805" lon="-1.30763">
        <ele>108.32889</ele>
        <time>2015-06-04T15:29:25Z</time>
      </trkpt>
      <trkpt lat="49.09803" lon="-1.30763">
        <ele>108.32889</ele>
        <time>2015-06-04T15:29:30Z</time>
      </trkpt>
      <trkpt lat="49.09804" lon="-1.30761">
        <ele>108.32889</ele>
        <time>2015-06-04T15:29:35Z</time>
      </trkpt>
      <trkpt lat="49.09803" lon="-1.3076">
        <ele>108.32889</ele>
        <time>2015-06-04T15:29:40Z</time>
      </trkpt>
      <trkpt lat="49.09804" lon="-1.3076">
        <ele>108.32889</ele>
        <time>2015-06-04T15:29:45Z</time>
      </trkpt>
      <trkpt lat="49.09802" lon="-1.30761">
        <ele>108.32889</ele>
        <time>2015-06-04T15:29:50Z</time>
      </trkpt>
      <trkpt lat="49.09802" lon="-1.30762">
        <ele>108.32889</ele>
        <time>2015-06-04T15:29:55Z</time>
      </trkpt>
      <trkpt lat="49.09803" lon="-1.30763">
        <ele>108.09955</ele>
        <time>2015-06-04T15:30:00Z</time>
      </trkpt>
      <trkpt lat="49.09803" lon="-1.30767">
        <ele>108.09955</ele>
        <time>2015-06-04T15:30:05Z</time>
      </trkpt>
      <trkpt lat="49.09803" lon="-1.30771">
        <ele>108.09955</ele>
        <time>2015-06-04T15:30:10Z</time>
      </trkpt>
      <trkpt lat="49.09807" lon="-1.30772">
        <ele>108.09955</ele>
        <time>2015-06-04T15:30:15Z</time>
      </trkpt>
      <trkpt lat="49.09812" lon="-1.3077">
        <ele>107.83861</ele>
        <time>2015-06-04T15:30:20Z</time>
      </trkpt>
      <trkpt lat="49.09815" lon="-1.30769">
        <ele>107.83861</ele>
        <time>2015-06-04T15:30:25Z</time>
      </trkpt>
      <trkpt lat="49.09821" lon="-1.3077">
        <ele>107.83861</ele>
        <time>2015-06-04T15:30:30Z</time>
      </trkpt>
      <trkpt lat="49.09829" lon="-1.30768">
        <ele>107.37698</ele>
        <time>2015-06-04T15:30:35Z</time>
      </trkpt>
      <trkpt lat="49.09835" lon="-1.30767">
        <ele>107.37698</ele>
        <time>2015-06-04T15:30:40Z</time>
      </trkpt>
      <trkpt lat="49.09841" lon="-1.30767">
        <ele>107.04856</ele>
        <time>2015-06-04T15:30:45Z</time>
      </trkpt>
      <trkpt lat="49.09846" lon="-1.30766">
        <ele>107.04856</ele>
        <time>2015-06-04T15:30:50Z</time>
      </trkpt>
      <trkpt lat="49.09849" lon="-1.30768">
        <ele>107.04856</ele>
        <time>2015-06-04T15:30:55Z</time>
      </trkpt>
      <trkpt lat="49.09856" lon="-1.30768">
        <ele>106.8885</ele>
        <time>2015-06-04T15:31:00Z</time>
      </trkpt>
      <trkpt lat="49.09862" lon="-1.30769">
        <ele>106.8885</ele>
        <time>2015-06-04T15:31:05Z</time>
      </trkpt>
      <trkpt lat="49.09867" lon="-1.30771">
        <ele>106.81357</ele>
        <time>2015-06-04T15:31:10Z</time>
      </trkpt>
      <trkpt lat="49.09873" lon="-1.30774">
        <ele>106.81357</ele>
        <time>2015-06-04T15:31:15Z</time>
      </trkpt>
      <trkpt lat="49.09879" lon="-1.30775">
        <ele>106.84731</ele>
        <time>2015-06-04T15:31:20Z</time>
      </trkpt>
      <trkpt lat="49.09883" lon="-1.30776">
        <ele>106.84731</ele>
        <time>2015-06-04T15:31:25Z</time>
      </trkpt>
      <trkpt lat="49.09888" lon="-1.30776">
        <ele>106.99679</ele>
        <time>2015-06-04T15:31:30Z</time>
      </trkpt>
      <trkpt lat="49.09894" lon="-1.30779">
        <ele>106.99679</ele>
        <time>2015-06-04T15:31:35Z</time>
      </trkpt>
      <trkpt lat="49.09899" lon="-1.30779">
        <ele>107.22497</ele>
        <time>2015-06-04T15:31:40Z</time>
      </trkpt>
      <trkpt lat="49.09907" lon="-1.30782">
        <ele>107.22497</ele>
        <time>2015-06-04T15:31:45Z</time>
      </trkpt>
      <trkpt lat="49.09912" lon="-1.30783">
        <ele>107.56934</ele>
        <time>2015-06-04T15:31:50Z</time>
      </trkpt>
      <trkpt lat="49.09917" lon="-1.30784">
        <ele>107.56934</ele>
        <time>2015-06-04T15:31:55Z</time>
      </trkpt>
      <trkpt lat="49.09923" lon="-1.30785">
        <ele>107.891396</ele>
        <time>2015-06-04T15:32:00Z</time>
      </trkpt>
      <trkpt lat="49.09929" lon="-1.30787">
        <ele>107.891396</ele>
        <time>2015-06-04T15:32:05Z</time>
      </trkpt>
      <trkpt lat="49.09935" lon="-1.30789">
        <ele>108.22133</ele>
        <time>2015-06-04T15:32:10Z</time>
      </trkpt>
      <trkpt lat="49.09939" lon="-1.30788">
        <ele>108.22133</ele>
        <time>2015-06-04T15:32:15Z</time>
      </trkpt>
      <trkpt lat="49.09946" lon="-1.30788">
        <ele>108.61594</ele>
        <time>2015-06-04T15:32:20Z</time>
      </trkpt>
      <trkpt lat="49.09951" lon="-1.30787">
        <ele>108.61594</ele>
        <time>2015-06-04T15:32:25Z</time>
      </trkpt>
      <trkpt lat="49.09955" lon="-1.30788">
        <ele>109.06997</ele>
        <time>2015-06-04T15:32:30Z</time>
      </trkpt>
      <trkpt lat="49.0996" lon="-1.3079">
        <ele>109.06997</ele>
        <time>2015-06-04T15:32:35Z</time>
      </trkpt>
      <trkpt lat="49.09964" lon="-1.3079">
        <ele>109.57843</ele>
        <time>2015-06-04T15:32:40Z</time>
      </trkpt>
      <trkpt lat="49.09972" lon="-1.30791">
        <ele>109.57843</ele>
        <time>2015-06-04T15:32:45Z</time>
      </trkpt>
      <trkpt lat="49.09977" lon="-1.30793">
        <ele>110.165306</ele>
        <time>2015-06-04T15:32:50Z</time>
      </trkpt>
      <trkpt lat="49.09979" lon="-1.30794">
        <ele>110.165306</ele>
        <time>2015-06-04T15:32:55Z</time>
      </trkpt>
      <trkpt lat="49.09984" lon="-1.30797">
        <ele>110.165306</ele>
        <time>2015-06-04T15:33:00Z</time>
      </trkpt>
      <trkpt lat="49.0999" lon="-1.30799">
        <ele>110.85264</ele>
        <time>2015-06-04T15:33:05Z</time>
      </trkpt>
      <trkpt lat="49.09997" lon="-1.30801">
        <ele>110.85264</ele>
        <time>2015-06-04T15:33:10Z</time>
      </trkpt>
      <trkpt lat="49.10004" lon="-1.30802">
        <ele>111.6029</ele>
        <time>2015-06-04T15:33:15Z</time>
      </trkpt>
      <trkpt lat="49.10011" lon="-1.30804">
        <ele>111.6029</ele>
        <time>2015-06-04T15:33:20Z</time>
      </trkpt>
      <trkpt lat="49.10016" lon="-1.30804">
        <ele>112.40997</ele>
        <time>2015-06-04T15:33:25Z</time>
      </trkpt>
      <trkpt lat="49.1002" lon="-1.30806">
        <ele>112.40997</ele>
        <time>2015-06-04T15:33:30Z</time>
      </trkpt>
      <trkpt lat="49.10025" lon="-1.30809">
        <ele>113.268036</ele>
        <time>2015-06-04T15:33:35Z</time>
      </trkpt>
      <trkpt lat="49.1003" lon="-1.30813">
        <ele>113.268036</ele>
        <time>2015-06-04T15:33:40Z</time>
      </trkpt>
      <trkpt lat="49.10037" lon="-1.30817">
        <ele>114.11393</ele>
        <time>2015-06-04T15:33:45Z</time>
      </trkpt>
      <trkpt lat="49.10043" lon="-1.30821">
        <ele>114.11393</ele>
        <time>2015-06-04T15:33:50Z</time>
      </trkpt>
      <trkpt lat="49.10048" lon="-1.30824">
        <ele>114.88917</ele>
        <time>2015-06-04T15:33:55Z</time>
      </trkpt>
      <trkpt lat="49.10053" lon="-1.30827">
        <ele>114.88917</ele>
        <time>2015-06-04T15:34:00Z</time>
      </trkpt>
      <trkpt lat="49.10056" lon="-1.30829">
        <ele>114.88917</ele>
        <time>2015-06-04T15:34:05Z</time>
      </trkpt>
      <trkpt lat="49.10061" lon="-1.30833">
        <ele>115.78479</ele>
        <time>2015-06-04T15:34:10Z</time>
      </trkpt>
      <trkpt lat="49.10067" lon="-1.30835">
        <ele>115.78479</ele>
        <time>2015-06-04T15:34:15Z</time>
      </trkpt>
      <trkpt lat="49.10073" lon="-1.30836">
        <ele>116.68925</ele>
        <time>2015-06-04T15:34:20Z</time>
      </trkpt>
      <trkpt lat="49.10079" lon="-1.30838">
        <ele>116.68925</ele>
        <time>2015-06-04T15:34:25Z</time>
      </trkpt>
      <trkpt lat="49.10084" lon="-1.3084">
        <ele>117.67212</ele>
        <time>2015-06-04T15:34:30Z</time>
      </trkpt>
      <trkpt lat="49.10089" lon="-1.30844">
        <ele>117.67212</ele>
        <time>2015-06-04T15:34:35Z</time>
      </trkpt>
      <trkpt lat="49.10094" lon="-1.30847">
        <ele>118.74006</ele>
        <time>2015-06-04T15:34:40Z</time>
      </trkpt>
      <trkpt lat="49.101" lon="-1.30849">
        <ele>118.74006</ele>
        <time>2015-06-04T15:34:45Z</time>
      </trkpt>
      <trkpt lat="49.10106" lon="-1.30854">
        <ele>119.855774</ele>
        <time>2015-06-04T15:34:50Z</time>
      </trkpt>
      <trkpt lat="49.10111" lon="-1.30857">
        <ele>119.855774</ele>
        <time>2015-06-04T15:34:55Z</time>
      </trkpt>
      <trkpt lat="49.10116" lon="-1.30859">
        <ele>120.9414</ele>
        <time>2015-06-04T15:35:00Z</time>
      </trkpt>
      <trkpt lat="49.10122" lon="-1.30862">
        <ele>120.9414</ele>
        <time>2015-06-04T15:35:05Z</time>
      </trkpt>
      <trkpt lat="49.10128" lon="-1.30864">
        <ele>122.02578</ele>
        <time>2015-06-04T15:35:10Z</time>
      </trkpt>
      <trkpt lat="49.10134" lon="-1.30866">
        <ele>122.02578</ele>
        <time>2015-06-04T15:35:15Z</time>
      </trkpt>
      <trkpt lat="49.10139" lon="-1.30867">
        <ele>123.09247</ele>
        <time>2015-06-04T15:35:20Z</time>
      </trkpt>
      <trkpt lat="49.10144" lon="-1.3087">
        <ele>123.09247</ele>
        <time>2015-06-04T15:35:25Z</time>
      </trkpt>
      <trkpt lat="49.1015" lon="-1.30871">
        <ele>124.12632</ele>
        <time>2015-06-04T15:35:30Z</time>
      </trkpt>
      <trkpt lat="49.10156" lon="-1.30873">
        <ele>124.12632</ele>
        <time>2015-06-04T15:35:35Z</time>
      </trkpt>
      <trkpt lat="49.10161" lon="-1.30873">
        <ele>125.14225</ele>
        <time>2015-06-04T15:35:40Z</time>
      </trkpt>
      <trkpt lat="49.10168" lon="-1.30874">
        <ele>125.14225</ele>
        <time>2015-06-04T15:35:45Z</time>
      </trkpt>
      <trkpt lat="49.10173" lon="-1.30874">
        <ele>126.13981</ele>
        <time>2015-06-04T15:35:50Z</time>
      </trkpt>
      <trkpt lat="49.10181" lon="-1.30874">
        <ele>126.13981</ele>
        <time>2015-06-04T15:35:55Z</time>
      </trkpt>
      <trkpt lat="49.10187" lon="-1.30875">
        <ele>127.13306</ele>
        <time>2015-06-04T15:36:00Z</time>
      </trkpt>
      <trkpt lat="49.10193" lon="-1.30874">
        <ele>127.13306</ele>
        <time>2015-06-04T15:36:05Z</time>
      </trkpt>
      <trkpt lat="49.10198" lon="-1.30874">
        <ele>128.01982</ele>
        <time>2015-06-04T15:36:10Z</time>
      </trkpt>
      <trkpt lat="49.10204" lon="-1.30873">
        <ele>128.01982</ele>
        <time>2015-06-04T15:36:15Z</time>
      </trkpt>
      <trkpt lat="49.10209" lon="-1.30871">
        <ele>128.89314</ele>
        <time>2015-06-04T15:36:20Z</time>
      </trkpt>
      <trkpt lat="49.10216" lon="-1.30872">
        <ele>128.89314</ele>
        <time>2015-06-04T15:36:25Z</time>
      </trkpt>
      <trkpt lat="49.10221" lon="-1.30871">
        <ele>129.724</ele>
        <time>2015-06-04T15:36:30Z</time>
      </trkpt>
      <trkpt lat="49.10228" lon="-1.30869">
        <ele>129.724</ele>
        <time>2015-06-04T15:36:35Z</time>
      </trkpt>
      <trkpt lat="49.10235" lon="-1.30869">
        <ele>130.48569</ele>
        <time>2015-06-04T15:36:40Z</time>
      </trkpt>
      <trkpt lat="49.10241" lon="-1.30869">
        <ele>130.48569</ele>
        <time>2015-06-04T15:36:45Z</time>
      </trkpt>
      <trkpt lat="49.10247" lon="-1.30867">
        <ele>131.15375</ele>
        <time>2015-06-04T15:36:50Z</time>
      </trkpt>
      <trkpt lat="49.10252" lon="-1.30866">
        <ele>131.15375</ele>
        <time>2015-06-04T15:36:55Z</time>
      </trkpt>
      <trkpt lat="49.10258" lon="-1.30865">
        <ele>131.76341</ele>
        <time>2015-06-04T15:37:00Z</time>
      </trkpt>
      <trkpt lat="49.10264" lon="-1.30863">
        <ele>131.76341</ele>
        <time>2015-06-04T15:37:05Z</time>
      </trkpt>
      <trkpt lat="49.1027" lon="-1.30864">
        <ele>132.33319</ele>
        <time>2015-06-04T15:37:10Z</time>
      </trkpt>
      <trkpt lat="49.10274" lon="-1.30865">
        <ele>132.33319</ele>
        <time>2015-06-04T15:37:15Z</time>
      </trkpt>
      <trkpt lat="49.10273" lon="-1.30871">
        <ele>132.33319</ele>
        <time>2015-06-04T15:37:20Z</time>
      </trkpt>
      <trkpt lat="49.1027" lon="-1.3088">
        <ele>132.73622</ele>
        <time>2015-06-04T15:37:25Z</time>
      </trkpt>
      <trkpt lat="49.10267" lon="-1.30888">
        <ele>132.73622</ele>
        <time>2015-06-04T15:37:30Z</time>
      </trkpt>
      <trkpt lat="49.10264" lon="-1.30894">
        <ele>132.9708</ele>
        <time>2015-06-04T15:37:35Z</time>
      </trkpt>
      <trkpt lat="49.10261" lon="-1.30901">
        <ele>132.9708</ele>
        <time>2015-06-04T15:37:40Z</time>
      </trkpt>
      <trkpt lat="49.10257" lon="-1.30909">
        <ele>133.13673</ele>
        <time>2015-06-04T15:37:45Z</time>
      </trkpt>
      <trkpt lat="49.10257" lon="-1.30914">
        <ele>133.13673</ele>
        <time>2015-06-04T15:37:50Z</time>
      </trkpt>
      <trkpt lat="49.10257" lon="-1.30919">
        <ele>133.13673</ele>
        <time>2015-06-04T15:37:55Z</time>
      </trkpt>
      <trkpt lat="49.10255" lon="-1.30926">
        <ele>133.29787</ele>
        <time>2015-06-04T15:38:00Z</time>
      </trkpt>
      <trkpt lat="49.10252" lon="-1.30934">
        <ele>133.29787</ele>
        <time>2015-06-04T15:38:05Z</time>
      </trkpt>
      <trkpt lat="49.10251" lon="-1.30941">
        <ele>133.3549</ele>
        <time>2015-06-04T15:38:10Z</time>
      </trkpt>
      <trkpt lat="49.1025" lon="-1.30948">
        <ele>133.3549</ele>
        <time>2015-06-04T15:38:15Z</time>
      </trkpt>
      <trkpt lat="49.1025" lon="-1.30958">
        <ele>133.31703</ele>
        <time>2015-06-04T15:38:20Z</time>
      </trkpt>
      <trkpt lat="49.10249" lon="-1.30965">
        <ele>133.31703</ele>
        <time>2015-06-04T15:38:25Z</time>
      </trkpt>
      <trkpt lat="49.10246" lon="-1.30974">
        <ele>133.26508</ele>
        <time>2015-06-04T15:38:30Z</time>
      </trkpt>
      <trkpt lat="49.10244" lon="-1.3098">
        <ele>133.26508</ele>
        <time>2015-06-04T15:38:35Z</time>
      </trkpt>
      <trkpt lat="49.10243" lon="-1.30981">
        <ele>133.26508</ele>
        <time>2015-06-04T15:38:40Z</time>
      </trkpt>
      <trkpt lat="49.10242" lon="-1.3098">
        <ele>133.26508</ele>
        <time>2015-06-04T15:38:45Z</time>
      </trkpt>
      <trkpt lat="49.10241" lon="-1.30979">
        <ele>133.26508</ele>
        <time>2015-06-04T15:38:50Z</time>
      </trkpt>
      <trkpt lat="49.1024" lon="-1.30979">
        <ele>133.1587</ele>
        <time>2015-06-04T15:38:55Z</time>
      </trkpt>
      <trkpt lat="49.10241" lon="-1.30979">
        <ele>133.1587</ele>
        <time>2015-06-04T15:39:00Z</time>
      </trkpt>
      <trkpt lat="49.10242" lon="-1.30977">
        <ele>133.1587</ele>
        <time>2015-06-04T15:39:05Z</time>
      </trkpt>
      <trkpt lat="49.10242" lon="-1.30976">
        <ele>133.1587</ele>
        <time>2015-06-04T15:39:10Z</time>
      </trkpt>
      <trkpt lat="49.10242" lon="-1.30977">
        <ele>133.1587</ele>
        <time>2015-06-04T15:39:15Z</time>
      </trkpt>
      <trkpt lat="49.10242" lon="-1.30977">
        <ele>133.1587</ele>
        <time>2015-06-04T15:39:20Z</time>
      </trkpt>
      <trkpt lat="49.10242" lon="-1.30976">
        <ele>133.1587</ele>
        <time>2015-06-04T15:39:25Z</time>
      </trkpt>
      <trkpt lat="49.10242" lon="-1.30977">
        <ele>133.1587</ele>
        <time>2015-06-04T15:39:30Z</time>
      </trkpt>
      <trkpt lat="49.10241" lon="-1.30978">
        <ele>133.1587</ele>
        <time>2015-06-04T15:39:35Z</time>
      </trkpt>
      <trkpt lat="49.10242" lon="-1.3098">
        <ele>133.1587</ele>
        <time>2015-06-04T15:39:40Z</time>
      </trkpt>
      <trkpt lat="49.10242" lon="-1.30981">
        <ele>133.1587</ele>
        <time>2015-06-04T15:39:45Z</time>
      </trkpt>
      <trkpt lat="49.10242" lon="-1.30982">
        <ele>132.98953</ele>
        <time>2015-06-04T15:39:50Z</time>
      </trkpt>
      <trkpt lat="49.10243" lon="-1.30981">
        <ele>132.98953</ele>
        <time>2015-06-04T15:39:55Z</time>
      </trkpt>
      <trkpt lat="49.10243" lon="-1.3098">
        <ele>132.98953</ele>
        <time>2015-06-04T15:40:00Z</time>
      </trkpt>
      <trkpt lat="49.10244" lon="-1.30983">
        <ele>132.98953</ele>
        <time>2015-06-04T15:40:05Z</time>
      </trkpt>
      <trkpt lat="49.10244" lon="-1.30983">
        <ele>132.98953</ele>
        <time>2015-06-04T15:40:10Z</time>
      </trkpt>
      <trkpt lat="49.10245" lon="-1.30979">
        <ele>132.98953</ele>
        <time>2015-06-04T15:40:15Z</time>
      </trkpt>
      <trkpt lat="49.10244" lon="-1.30978">
        <ele>132.98953</ele>
        <time>2015-06-04T15:40:20Z</time>
      </trkpt>
      <trkpt lat="49.10241" lon="-1.30981">
        <ele>132.51933</ele>
        <time>2015-06-04T15:40:25Z</time>
      </trkpt>
      <trkpt lat="49.1024" lon="-1.30984">
        <ele>132.51933</ele>
        <time>2015-06-04T15:40:30Z</time>
      </trkpt>
      <trkpt lat="49.10239" lon="-1.30986">
        <ele>132.51933</ele>
        <time>2015-06-04T15:40:35Z</time>
      </trkpt>
      <trkpt lat="49.10239" lon="-1.30986">
        <ele>132.51933</ele>
        <time>2015-06-04T15:40:40Z</time>
      </trkpt>
      <trkpt lat="49.10239" lon="-1.30984">
        <ele>132.51933</ele>
        <time>2015-06-04T15:40:45Z</time>
      </trkpt>
      <trkpt lat="49.1024" lon="-1.30977">
        <ele>132.32089</ele>
        <time>2015-06-04T15:40:50Z</time>
      </trkpt>
      <trkpt lat="49.1024" lon="-1.30976">
        <ele>132.32089</ele>
        <time>2015-06-04T15:40:55Z</time>
      </trkpt>
      <trkpt lat="49.1024" lon="-1.30976">
        <ele>132.32089</ele>
        <time>2015-06-04T15:41:00Z</time>
      </trkpt>
      <trkpt lat="49.10241" lon="-1.30978">
        <ele>132.32089</ele>
        <time>2015-06-04T15:41:05Z</time>
      </trkpt>
      <trkpt lat="49.10241" lon="-1.30983">
        <ele>132.32089</ele>
        <time>2015-06-04T15:41:10Z</time>
      </trkpt>
      <trkpt lat="49.1024" lon="-1.30982">
        <ele>132.32089</ele>
        <time>2015-06-04T15:41:15Z</time>
      </trkpt>
      <trkpt lat="49.10239" lon="-1.30981">
        <ele>132.32089</ele>
        <time>2015-06-04T15:41:20Z</time>
      </trkpt>
      <trkpt lat="49.10239" lon="-1.30984">
        <ele>132.01619</ele>
        <time>2015-06-04T15:41:25Z</time>
      </trkpt>
      <trkpt lat="49.10238" lon="-1.30988">
        <ele>132.01619</ele>
        <time>2015-06-04T15:41:30Z</time>
      </trkpt>
      <trkpt lat="49.10235" lon="-1.30997">
        <ele>131.61555</ele>
        <time>2015-06-04T15:41:35Z</time>
      </trkpt>
      <trkpt lat="49.10235" lon="-1.31003">
        <ele>131.61555</ele>
        <time>2015-06-04T15:41:40Z</time>
      </trkpt>
      <trkpt lat="49.10234" lon="-1.31014">
        <ele>131.05672</ele>
        <time>2015-06-04T15:41:45Z</time>
      </trkpt>
      <trkpt lat="49.10232" lon="-1.31022">
        <ele>131.05672</ele>
        <time>2015-06-04T15:41:50Z</time>
      </trkpt>
      <trkpt lat="49.10231" lon="-1.31032">
        <ele>130.49855</ele>
        <time>2015-06-04T15:41:55Z</time>
      </trkpt>
      <trkpt lat="49.10229" lon="-1.31041">
        <ele>130.49855</ele>
        <time>2015-06-04T15:42:00Z</time>
      </trkpt>
      <trkpt lat="49.10227" lon="-1.31047">
        <ele>129.97298</ele>
        <time>2015-06-04T15:42:05Z</time>
      </trkpt>
      <trkpt lat="49.10223" lon="-1.31055">
        <ele>129.97298</ele>
        <time>2015-06-04T15:42:10Z</time>
      </trkpt>
      <trkpt lat="49.1022" lon="-1.31068">
        <ele>129.43732</ele>
        <time>2015-06-04T15:42:15Z</time>
      </trkpt>
      <trkpt lat="49.10218" lon="-1.31075">
        <ele>129.43732</ele>
        <time>2015-06-04T15:42:20Z</time>
      </trkpt>
      <trkpt lat="49.10216" lon="-1.31087">
        <ele>128.99612</ele>
        <time>2015-06-04T15:42:25Z</time>
      </trkpt>
      <trkpt lat="49.10214" lon="-1.31097">
        <ele>128.99612</ele>
        <time>2015-06-04T15:42:30Z</time>
      </trkpt>
      <trkpt lat="49.10214" lon="-1.31104">
        <ele>128.60188</ele>
        <time>2015-06-04T15:42:35Z</time>
      </trkpt>
      <trkpt lat="49.10211" lon="-1.31111">
        <ele>128.60188</ele>
        <time>2015-06-04T15:42:40Z</time>
      </trkpt>
      <trkpt lat="49.10209" lon="-1.31119">
        <ele>128.09502</ele>
        <time>2015-06-04T15:42:45Z</time>
      </trkpt>
      <trkpt lat="49.10208" lon="-1.31129">
        <ele>128.09502</ele>
        <time>2015-06-04T15:42:50Z</time>
      </trkpt>
      <trkpt lat="49.10206" lon="-1.31135">
        <ele>127.54413</ele>
        <time>2015-06-04T15:42:55Z</time>
      </trkpt>
      <trkpt lat="49.10205" lon="-1.31144">
        <ele>127.54413</ele>
        <time>2015-06-04T15:43:00Z</time>
      </trkpt>
      <trkpt lat="49.10203" lon="-1.31154">
        <ele>126.9552</ele>
        <time>2015-06-04T15:43:05Z</time>
      </trkpt>
      <trkpt lat="49.10202" lon="-1.31162">
        <ele>126.9552</ele>
        <time>2015-06-04T15:43:10Z</time>
      </trkpt>
      <trkpt lat="49.102" lon="-1.31172">
        <ele>126.405846</ele>
        <time>2015-06-04T15:43:15Z</time>
      </trkpt>
      <trkpt lat="49.10197" lon="-1.31182">
        <ele>126.405846</ele>
        <time>2015-06-04T15:43:20Z</time>
      </trkpt>
      <trkpt lat="49.10196" lon="-1.3119">
        <ele>126.083084</ele>
        <time>2015-06-04T15:43:25Z</time>
      </trkpt>
      <trkpt lat="49.10194" lon="-1.31201">
        <ele>126.083084</ele>
        <time>2015-06-04T15:43:30Z</time>
      </trkpt>
      <trkpt lat="49.10195" lon="-1.31211">
        <ele>125.82803</ele>
        <time>2015-06-04T15:43:35Z</time>
      </trkpt>
      <trkpt lat="49.10196" lon="-1.31221">
        <ele>125.82803</ele>
        <time>2015-06-04T15:43:40Z</time>
      </trkpt>
      <trkpt lat="49.10194" lon="-1.31227">
        <ele>125.738205</ele>
        <time>2015-06-04T15:43:45Z</time>
      </trkpt>
      <trkpt lat="49.10193" lon="-1.31234">
        <ele>125.738205</ele>
        <time>2015-06-04T15:43:50Z</time>
      </trkpt>
      <trkpt lat="49.10189" lon="-1.31244">
        <ele>125.658424</ele>
        <time>2015-06-04T15:43:55Z</time>
      </trkpt>
      <trkpt lat="49.10188" lon="-1.3125">
        <ele>125.658424</ele>
        <time>2015-06-04T15:44:00Z</time>
      </trkpt>
      <trkpt lat="49.10186" lon="-1.3126">
        <ele>125.58892</ele>
        <time>2015-06-04T15:44:05Z</time>
      </trkpt>
      <trkpt lat="49.10187" lon="-1.31268">
        <ele>125.58892</ele>
        <time>2015-06-04T15:44:10Z</time>
      </trkpt>
      <trkpt lat="49.10188" lon="-1.31277">
        <ele>125.587456</ele>
        <time>2015-06-04T15:44:15Z</time>
      </trkpt>
      <trkpt lat="49.10187" lon="-1.31287">
        <ele>125.587456</ele>
        <time>2015-06-04T15:44:20Z</time>
      </trkpt>
      <trkpt lat="49.10185" lon="-1.31295">
        <ele>125.54877</ele>
        <time>2015-06-04T15:44:25Z</time>
      </trkpt>
      <trkpt lat="49.10182" lon="-1.31306">
        <ele>125.54877</ele>
        <time>2015-06-04T15:44:30Z</time>
      </trkpt>
      <trkpt lat="49.10181" lon="-1.31312">
        <ele>125.53388</ele>
        <time>2015-06-04T15:44:35Z</time>
      </trkpt>
      <trkpt lat="49.10179" lon="-1.31322">
        <ele>125.53388</ele>
        <time>2015-06-04T15:44:40Z</time>
      </trkpt>
      <trkpt lat="49.10179" lon="-1.3133">
        <ele>125.42629</ele>
        <time>2015-06-04T15:44:45Z</time>
      </trkpt>
      <trkpt lat="49.10178" lon="-1.31337">
        <ele>125.42629</ele>
        <time>2015-06-04T15:44:50Z</time>
      </trkpt>
      <trkpt lat="49.10177" lon="-1.31347">
        <ele>125.377655</ele>
        <time>2015-06-04T15:44:55Z</time>
      </trkpt>
      <trkpt lat="49.10177" lon="-1.31353">
        <ele>125.377655</ele>
        <time>2015-06-04T15:45:00Z</time>
      </trkpt>
      <trkpt lat="49.10176" lon="-1.3136">
        <ele>125.377655</ele>
        <time>2015-06-04T15:45:05Z</time>
      </trkpt>
      <trkpt lat="49.10176" lon="-1.31369">
        <ele>125.57147</ele>
        <time>2015-06-04T15:45:10Z</time>
      </trkpt>
      <trkpt lat="49.10175" lon="-1.31373">
        <ele>125.57147</ele>
        <time>2015-06-04T15:45:15Z</time>
      </trkpt>
      <trkpt lat="49.10175" lon="-1.31383">
        <ele>125.74473</ele>
        <time>2015-06-04T15:45:20Z</time>
      </trkpt>
      <trkpt lat="49.10175" lon="-1.3139">
        <ele>125.74473</ele>
        <time>2015-06-04T15:45:25Z</time>
      </trkpt>
      <trkpt lat="49.10174" lon="-1.31394">
        <ele>125.74473</ele>
        <time>2015-06-04T15:45:30Z</time>
      </trkpt>
      <trkpt lat="49.10173" lon="-1.314">
        <ele>125.65372</ele>
        <time>2015-06-04T15:45:35Z</time>
      </trkpt>
      <trkpt lat="49.10173" lon="-1.31406">
        <ele>125.65372</ele>
        <time>2015-06-04T15:45:40Z</time>
      </trkpt>
      <trkpt lat="49.10171" lon="-1.31412">
        <ele>125.65372</ele>
        <time>2015-06-04T15:45:45Z</time>
      </trkpt>
      <trkpt lat="49.10169" lon="-1.31418">
        <ele>125.390396</ele>
        <time>2015-06-04T15:45:50Z</time>
      </trkpt>
      <trkpt lat="49.10169" lon="-1.31423">
        <ele>125.390396</ele>
        <time>2015-06-04T15:45:55Z</time>
      </trkpt>
      <trkpt lat="49.10168" lon="-1.31431">
        <ele>125.390396</ele>
        <time>2015-06-04T15:46:00Z</time>
      </trkpt>
      <trkpt lat="49.10167" lon="-1.31437">
        <ele>124.98275</ele>
        <time>2015-06-04T15:46:05Z</time>
      </trkpt>
      <trkpt lat="49.10165" lon="-1.31444">
        <ele>124.98275</ele>
        <time>2015-06-04T15:46:10Z</time>
      </trkpt>
      <trkpt lat="49.10164" lon="-1.31453">
        <ele>124.687645</ele>
        <time>2015-06-04T15:46:15Z</time>
      </trkpt>
      <trkpt lat="49.10161" lon="-1.3146">
        <ele>124.687645</ele>
        <time>2015-06-04T15:46:20Z</time>
      </trkpt>
      <trkpt lat="49.10161" lon="-1.31464">
        <ele>124.687645</ele>
        <time>2015-06-04T15:46:25Z</time>
      </trkpt>
      <trkpt lat="49.1016" lon="-1.31471">
        <ele>124.48332</ele>
        <time>2015-06-04T15:46:30Z</time>
      </trkpt>
      <trkpt lat="49.10159" lon="-1.31477">
        <ele>124.48332</ele>
        <time>2015-06-04T15:46:35Z</time>
      </trkpt>
      <trkpt lat="49.10159" lon="-1.31482">
        <ele>124.48332</ele>
        <time>2015-06-04T15:46:40Z</time>
      </trkpt>
      <trkpt lat="49.10156" lon="-1.31489">
        <ele>124.46462</ele>
        <time>2015-06-04T15:46:45Z</time>
      </trkpt>
      <trkpt lat="49.10156" lon="-1.31496">
        <ele>124.46462</ele>
        <time>2015-06-04T15:46:50Z</time>
      </trkpt>
      <trkpt lat="49.10155" lon="-1.31504">
        <ele>124.445045</ele>
        <time>2015-06-04T15:46:55Z</time>
      </trkpt>
      <trkpt lat="49.10154" lon="-1.31511">
        <ele>124.445045</ele>
        <time>2015-06-04T15:47:00Z</time>
      </trkpt>
      <trkpt lat="49.10152" lon="-1.31517">
        <ele>124.41027</ele>
        <time>2015-06-04T15:47:05Z</time>
      </trkpt>
      <trkpt lat="49.10149" lon="-1.31526">
        <ele>124.41027</ele>
        <time>2015-06-04T15:47:10Z</time>
      </trkpt>
      <trkpt lat="49.10147" lon="-1.31532">
        <ele>124.318214</ele>
        <time>2015-06-04T15:47:15Z</time>
      </trkpt>
      <trkpt lat="49.10144" lon="-1.31543">
        <ele>124.318214</ele>
        <time>2015-06-04T15:47:20Z</time>
      </trkpt>
      <trkpt lat="49.10141" lon="-1.31554">
        <ele>124.11562</ele>
        <time>2015-06-04T15:47:25Z</time>
      </trkpt>
      <trkpt lat="49.1014" lon="-1.31563">
        <ele>124.11562</ele>
        <time>2015-06-04T15:47:30Z</time>
      </trkpt>
      <trkpt lat="49.10138" lon="-1.31573">
        <ele>123.96957</ele>
        <time>2015-06-04T15:47:35Z</time>
      </trkpt>
      <trkpt lat="49.10135" lon="-1.31579">
        <ele>123.96957</ele>
        <time>2015-06-04T15:47:40Z</time>
      </trkpt>
      <trkpt lat="49.10133" lon="-1.31586">
        <ele>123.977036</ele>
        <time>2015-06-04T15:47:45Z</time>
      </trkpt>
      <trkpt lat="49.1013" lon="-1.31594">
        <ele>123.977036</ele>
        <time>2015-06-04T15:47:50Z</time>
      </trkpt>
      <trkpt lat="49.10128" lon="-1.31603">
        <ele>124.06891</ele>
        <time>2015-06-04T15:47:55Z</time>
      </trkpt>
      <trkpt lat="49.10125" lon="-1.3161">
        <ele>124.06891</ele>
        <time>2015-06-04T15:48:00Z</time>
      </trkpt>
      <trkpt lat="49.10123" lon="-1.31619">
        <ele>124.079994</ele>
        <time>2015-06-04T15:48:05Z</time>
      </trkpt>
      <trkpt lat="49.10119" lon="-1.31628">
        <ele>124.079994</ele>
        <time>2015-06-04T15:48:10Z</time>
      </trkpt>
      <trkpt lat="49.10117" lon="-1.31635">
        <ele>124.0448</ele>
        <time>2015-06-04T15:48:15Z</time>
      </trkpt>
      <trkpt lat="49.10115" lon="-1.31642">
        <ele>124.0448</ele>
        <time>2015-06-04T15:48:20Z</time>
      </trkpt>
      <trkpt lat="49.10113" lon="-1.3165">
        <ele>124.15392</ele>
        <time>2015-06-04T15:48:25Z</time>
      </trkpt>
      <trkpt lat="49.10112" lon="-1.31658">
        <ele>124.15392</ele>
        <time>2015-06-04T15:48:30Z</time>
      </trkpt>
      <trkpt lat="49.10109" lon="-1.31666">
        <ele>124.33854</ele>
        <time>2015-06-04T15:48:35Z</time>
      </trkpt>
      <trkpt lat="49.10107" lon="-1.3167">
        <ele>124.33854</ele>
        <time>2015-06-04T15:48:40Z</time>
      </trkpt>
      <trkpt lat="49.10105" lon="-1.3167">
        <ele>124.33854</ele>
        <time>2015-06-04T15:48:45Z</time>
      </trkpt>
      <trkpt lat="49.10105" lon="-1.3167">
        <ele>124.33854</ele>
        <time>2015-06-04T15:48:50Z</time>
      </trkpt>
      <trkpt lat="49.10104" lon="-1.31672">
        <ele>124.33854</ele>
        <time>2015-06-04T15:48:55Z</time>
      </trkpt>
      <trkpt lat="49.10104" lon="-1.3167">
        <ele>124.33854</ele>
        <time>2015-06-04T15:49:00Z</time>
      </trkpt>
      <trkpt lat="49.10105" lon="-1.31667">
        <ele>124.376144</ele>
        <time>2015-06-04T15:49:05Z</time>
      </trkpt>
      <trkpt lat="49.10105" lon="-1.31666">
        <ele>124.376144</ele>
        <time>2015-06-04T15:49:10Z</time>
      </trkpt>
      <trkpt lat="49.10105" lon="-1.31668">
        <ele>124.376144</ele>
        <time>2015-06-04T15:49:15Z</time>
      </trkpt>
      <trkpt lat="49.10104" lon="-1.3167">
        <ele>124.376144</ele>
        <time>2015-06-04T15:49:20Z</time>
      </trkpt>
      <trkpt lat="49.10103" lon="-1.31672">
        <ele>124.376144</ele>
        <time>2015-06-04T15:49:25Z</time>
      </trkpt>
      <trkpt lat="49.10102" lon="-1.31674">
        <ele>124.376144</ele>
        <time>2015-06-04T15:49:30Z</time>
      </trkpt>
      <trkpt lat="49.10101" lon="-1.31676">
        <ele>124.376144</ele>
        <time>2015-06-04T15:49:35Z</time>
      </trkpt>
      <trkpt lat="49.10101" lon="-1.31675">
        <ele>124.376144</ele>
        <time>2015-06-04T15:49:40Z</time>
      </trkpt>
      <trkpt lat="49.101" lon="-1.31675">
        <ele>124.376144</ele>
        <time>2015-06-04T15:49:45Z</time>
      </trkpt>
      <trkpt lat="49.101" lon="-1.31675">
        <ele>124.46449</ele>
        <time>2015-06-04T15:49:50Z</time>
      </trkpt>
      <trkpt lat="49.101" lon="-1.31674">
        <ele>124.46449</ele>
        <time>2015-06-04T15:49:55Z</time>
      </trkpt>
      <trkpt lat="49.101" lon="-1.31674">
        <ele>124.46449</ele>
        <time>2015-06-04T15:50:00Z</time>
      </trkpt>
      <trkpt lat="49.10099" lon="-1.31669">
        <ele>124.46449</ele>
        <time>2015-06-04T15:50:05Z</time>
      </trkpt>
      <trkpt lat="49.10099" lon="-1.31667">
        <ele>124.46449</ele>
        <time>2015-06-04T15:50:10Z</time>
      </trkpt>
      <trkpt lat="49.10099" lon="-1.31668">
        <ele>124.46449</ele>
        <time>2015-06-04T15:50:15Z</time>
      </trkpt>
      <trkpt lat="49.10099" lon="-1.31669">
        <ele>124.46449</ele>
        <time>2015-06-04T15:50:20Z</time>
      </trkpt>
      <trkpt lat="49.10101" lon="-1.3167">
        <ele>124.16697</ele>
        <time>2015-06-04T15:50:25Z</time>
      </trkpt>
      <trkpt lat="49.10101" lon="-1.3167">
        <ele>124.16697</ele>
        <time>2015-06-04T15:50:30Z</time>
      </trkpt>
      <trkpt lat="49.10099" lon="-1.3167">
        <ele>124.16697</ele>
        <time>2015-06-04T15:50:35Z</time>
      </trkpt>
      <trkpt lat="49.10099" lon="-1.31673">
        <ele>124.16697</ele>
        <time>2015-06-04T15:50:40Z</time>
      </trkpt>
      <trkpt lat="49.10099" lon="-1.31674">
        <ele>124.16697</ele>
        <time>2015-06-04T15:50:45Z</time>
      </trkpt>
      <trkpt lat="49.10099" lon="-1.31672">
        <ele>124.16697</ele>
        <time>2015-06-04T15:50:50Z</time>
      </trkpt>
      <trkpt lat="49.10102" lon="-1.31666">
        <ele>123.64215</ele>
        <time>2015-06-04T15:50:55Z</time>
      </trkpt>
      <trkpt lat="49.10104" lon="-1.31665">
        <ele>123.64215</ele>
        <time>2015-06-04T15:51:00Z</time>
      </trkpt>
      <trkpt lat="49.10105" lon="-1.31666">
        <ele>123.64215</ele>
        <time>2015-06-04T15:51:05Z</time>
      </trkpt>
      <trkpt lat="49.10104" lon="-1.31666">
        <ele>123.64215</ele>
        <time>2015-06-04T15:51:10Z</time>
      </trkpt>
      <trkpt lat="49.10105" lon="-1.31667">
        <ele>123.64215</ele>
        <time>2015-06-04T15:51:15Z</time>
      </trkpt>
      <trkpt lat="49.10106" lon="-1.31666">
        <ele>123.64215</ele>
        <time>2015-06-04T15:51:20Z</time>
      </trkpt>
      <trkpt lat="49.10109" lon="-1.31669">
        <ele>123.25376</ele>
        <time>2015-06-04T15:51:25Z</time>
      </trkpt>
      <trkpt lat="49.10111" lon="-1.31676">
        <ele>123.25376</ele>
        <time>2015-06-04T15:51:30Z</time>
      </trkpt>
      <trkpt lat="49.10115" lon="-1.31681">
        <ele>123.093414</ele>
        <time>2015-06-04T15:51:35Z</time>
      </trkpt>
      <trkpt lat="49.10118" lon="-1.31687">
        <ele>123.093414</ele>
        <time>2015-06-04T15:51:40Z</time>
      </trkpt>
      <trkpt lat="49.10122" lon="-1.3169">
        <ele>122.841835</ele>
        <time>2015-06-04T15:51:45Z</time>
      </trkpt>
      <trkpt lat="49.10129" lon="-1.31694">
        <ele>122.841835</ele>
        <time>2015-06-04T15:51:50Z</time>
      </trkpt>
      <trkpt lat="49.10135" lon="-1.31699">
        <ele>122.635796</ele>
        <time>2015-06-04T15:51:55Z</time>
      </trkpt>
      <trkpt lat="49.1014" lon="-1.31701">
        <ele>122.635796</ele>
        <time>2015-06-04T15:52:00Z</time>
      </trkpt>
      <trkpt lat="49.10146" lon="-1.31704">
        <ele>122.50098</ele>
        <time>2015-06-04T15:52:05Z</time>
      </trkpt>
      <trkpt lat="49.10151" lon="-1.31708">
        <ele>122.50098</ele>
        <time>2015-06-04T15:52:10Z</time>
      </trkpt>
      <trkpt lat="49.10157" lon="-1.31711">
        <ele>122.50421</ele>
        <time>2015-06-04T15:52:15Z</time>
      </trkpt>
      <trkpt lat="49.10162" lon="-1.31715">
        <ele>122.50421</ele>
        <time>2015-06-04T15:52:20Z</time>
      </trkpt>
      <trkpt lat="49.10168" lon="-1.31722">
        <ele>122.57733</ele>
        <time>2015-06-04T15:52:25Z</time>
      </trkpt>
      <trkpt lat="49.10173" lon="-1.31727">
        <ele>122.57733</ele>
        <time>2015-06-04T15:52:30Z</time>
      </trkpt>
      <trkpt lat="49.10178" lon="-1.31731">
        <ele>122.7146</ele>
        <time>2015-06-04T15:52:35Z</time>
      </trkpt>
      <trkpt lat="49.10181" lon="-1.31735">
        <ele>122.7146</ele>
        <time>2015-06-04T15:52:40Z</time>
      </trkpt>
      <trkpt lat="49.10186" lon="-1.3174">
        <ele>122.939354</ele>
        <time>2015-06-04T15:52:45Z</time>
      </trkpt>
      <trkpt lat="49.1019" lon="-1.31742">
        <ele>122.939354</ele>
        <time>2015-06-04T15:52:50Z</time>
      </trkpt>
      <trkpt lat="49.10196" lon="-1.31745">
        <ele>123.20091</ele>
        <time>2015-06-04T15:52:55Z</time>
      </trkpt>
      <trkpt lat="49.10201" lon="-1.31749">
        <ele>123.20091</ele>
        <time>2015-06-04T15:53:00Z</time>
      </trkpt>
      <trkpt lat="49.10208" lon="-1.31756">
        <ele>123.48101</ele>
        <time>2015-06-04T15:53:05Z</time>
      </trkpt>
      <trkpt lat="49.10214" lon="-1.3176">
        <ele>123.48101</ele>
        <time>2015-06-04T15:53:10Z</time>
      </trkpt>
      <trkpt lat="49.10217" lon="-1.31765">
        <ele>123.70506</ele>
        <time>2015-06-04T15:53:15Z</time>
      </trkpt>
      <trkpt lat="49.10222" lon="-1.31771">
        <ele>123.70506</ele>
        <time>2015-06-04T15:53:20Z</time>
      </trkpt>
      <trkpt lat="49.10228" lon="-1.31778">
        <ele>123.67442</ele>
        <time>2015-06-04T15:53:25Z</time>
      </trkpt>
      <trkpt lat="49.1023" lon="-1.31781">
        <ele>123.67442</ele>
        <time>2015-06-04T15:53:30Z</time>
      </trkpt>
      <trkpt lat="49.10235" lon="-1.31784">
        <ele>123.67442</ele>
        <time>2015-06-04T15:53:35Z</time>
      </trkpt>
      <trkpt lat="49.1024" lon="-1.31789">
        <ele>123.43631</ele>
        <time>2015-06-04T15:53:40Z</time>
      </trkpt>
      <trkpt lat="49.10246" lon="-1.31792">
        <ele>123.43631</ele>
        <time>2015-06-04T15:53:45Z</time>
      </trkpt>
      <trkpt lat="49.10251" lon="-1.31795">
        <ele>123.07832</ele>
        <time>2015-06-04T15:53:50Z</time>
      </trkpt>
      <trkpt lat="49.10255" lon="-1.31799">
        <ele>123.07832</ele>
        <time>2015-06-04T15:53:55Z</time>
      </trkpt>
      <trkpt lat="49.10261" lon="-1.31805">
        <ele>122.66756</ele>
        <time>2015-06-04T15:54:00Z</time>
      </trkpt>
      <trkpt lat="49.10265" lon="-1.31808">
        <ele>122.66756</ele>
        <time>2015-06-04T15:54:05Z</time>
      </trkpt>
      <trkpt lat="49.10269" lon="-1.31811">
        <ele>122.66756</ele>
        <time>2015-06-04T15:54:10Z</time>
      </trkpt>
      <trkpt lat="49.10272" lon="-1.31815">
        <ele>122.17985</ele>
        <time>2015-06-04T15:54:15Z</time>
      </trkpt>
      <trkpt lat="49.1028" lon="-1.31827">
        <ele>121.73716</ele>
        <time>2015-06-04T15:54:20Z</time>
      </trkpt>
      <trkpt lat="49.10281" lon="-1.31835">
        <ele>121.73716</ele>
        <time>2015-06-04T15:54:25Z</time>
      </trkpt>
      <trkpt lat="49.10282" lon="-1.31842">
        <ele>121.265</ele>
        <time>2015-06-04T15:54:30Z</time>
      </trkpt>
      <trkpt lat="49.10285" lon="-1.3185">
        <ele>121.265</ele>
        <time>2015-06-04T15:54:35Z</time>
      </trkpt>
      <trkpt lat="49.10288" lon="-1.31859">
        <ele>120.75209</ele>
        <time>2015-06-04T15:54:40Z</time>
      </trkpt>
      <trkpt lat="49.10291" lon="-1.31865">
        <ele>120.75209</ele>
        <time>2015-06-04T15:54:45Z</time>
      </trkpt>
      <trkpt lat="49.10294" lon="-1.31871">
        <ele>120.18809</ele>
        <time>2015-06-04T15:54:50Z</time>
      </trkpt>
      <trkpt lat="49.10297" lon="-1.3188">
        <ele>120.18809</ele>
        <time>2015-06-04T15:54:55Z</time>
      </trkpt>
      <trkpt lat="49.10299" lon="-1.31887">
        <ele>119.53471</ele>
        <time>2015-06-04T15:55:00Z</time>
      </trkpt>
      <trkpt lat="49.10301" lon="-1.31893">
        <ele>119.53471</ele>
        <time>2015-06-04T15:55:05Z</time>
      </trkpt>
      <trkpt lat="49.10302" lon="-1.31901">
        <ele>118.74233</ele>
        <time>2015-06-04T15:55:10Z</time>
      </trkpt>
      <trkpt lat="49.10303" lon="-1.3191">
        <ele>118.74233</ele>
        <time>2015-06-04T15:55:15Z</time>
      </trkpt>
      <trkpt lat="49.10304" lon="-1.31917">
        <ele>117.89503</ele>
        <time>2015-06-04T15:55:20Z</time>
      </trkpt>
      <trkpt lat="49.10304" lon="-1.31917">
        <ele>117.89503</ele>
        <time>2015-06-04T15:55:25Z</time>
      </trkpt>
      <trkpt lat="49.10304" lon="-1.31916">
        <ele>117.89503</ele>
        <time>2015-06-04T15:55:30Z</time>
      </trkpt>
      <trkpt lat="49.10304" lon="-1.31916">
        <ele>117.89503</ele>
        <time>2015-06-04T15:55:35Z</time>
      </trkpt>
      <trkpt lat="49.10303" lon="-1.31917">
        <ele>117.89503</ele>
        <time>2015-06-04T15:55:40Z</time>
      </trkpt>
      <trkpt lat="49.10304" lon="-1.31919">
        <ele>117.89503</ele>
        <time>2015-06-04T15:55:45Z</time>
      </trkpt>
      <trkpt lat="49.10305" lon="-1.31924">
        <ele>117.89503</ele>
        <time>2015-06-04T15:55:50Z</time>
      </trkpt>
      <trkpt lat="49.10307" lon="-1.31931">
        <ele>116.73938</ele>
        <time>2015-06-04T15:55:55Z</time>
      </trkpt>
      <trkpt lat="49.1031" lon="-1.3194">
        <ele>116.73938</ele>
        <time>2015-06-04T15:56:00Z</time>
      </trkpt>
      <trkpt lat="49.10311" lon="-1.31947">
        <ele>115.63229</ele>
        <time>2015-06-04T15:56:05Z</time>
      </trkpt>
      <trkpt lat="49.10313" lon="-1.31956">
        <ele>115.63229</ele>
        <time>2015-06-04T15:56:10Z</time>
      </trkpt>
      <trkpt lat="49.10315" lon="-1.31964">
        <ele>114.61606</ele>
        <time>2015-06-04T15:56:15Z</time>
      </trkpt>
      <trkpt lat="49.10318" lon="-1.31973">
        <ele>114.61606</ele>
        <time>2015-06-04T15:56:20Z</time>
      </trkpt>
      <trkpt lat="49.10318" lon="-1.31982">
        <ele>113.67193</ele>
        <time>2015-06-04T15:56:25Z</time>
      </trkpt>
      <trkpt lat="49.10319" lon="-1.31989">
        <ele>113.67193</ele>
        <time>2015-06-04T15:56:30Z</time>
      </trkpt>
      <trkpt lat="49.10319" lon="-1.32">
        <ele>112.76787</ele>
        <time>2015-06-04T15:56:35Z</time>
      </trkpt>
      <trkpt lat="49.10319" lon="-1.3201">
        <ele>112.76787</ele>
        <time>2015-06-04T15:56:40Z</time>
      </trkpt>
      <trkpt lat="49.10319" lon="-1.32021">
        <ele>111.946106</ele>
        <time>2015-06-04T15:56:45Z</time>
      </trkpt>
      <trkpt lat="49.10317" lon="-1.32027">
        <ele>111.946106</ele>
        <time>2015-06-04T15:56:50Z</time>
      </trkpt>
      <trkpt lat="49.10316" lon="-1.32034">
        <ele>111.946106</ele>
        <time>2015-06-04T15:56:55Z</time>
      </trkpt>
      <trkpt lat="49.10315" lon="-1.3204">
        <ele>111.1302</ele>
        <time>2015-06-04T15:57:00Z</time>
      </trkpt>
      <trkpt lat="49.10315" lon="-1.32045">
        <ele>111.1302</ele>
        <time>2015-06-04T15:57:05Z</time>
      </trkpt>
      <trkpt lat="49.10315" lon="-1.32052">
        <ele>111.1302</ele>
        <time>2015-06-04T15:57:10Z</time>
      </trkpt>
      <trkpt lat="49.10315" lon="-1.32058">
        <ele>110.306915</ele>
        <time>2015-06-04T15:57:15Z</time>
      </trkpt>
      <trkpt lat="49.10314" lon="-1.32063">
        <ele>110.306915</ele>
        <time>2015-06-04T15:57:20Z</time>
      </trkpt>
      <trkpt lat="49.10312" lon="-1.32068">
        <ele>110.306915</ele>
        <time>2015-06-04T15:57:25Z</time>
      </trkpt>
      <trkpt lat="49.1031" lon="-1.32074">
        <ele>109.56482</ele>
        <time>2015-06-04T15:57:30Z</time>
      </trkpt>
      <trkpt lat="49.10308" lon="-1.3208">
        <ele>109.56482</ele>
        <time>2015-06-04T15:57:35Z</time>
      </trkpt>
      <trkpt lat="49.10308" lon="-1.32088">
        <ele>108.85601</ele>
        <time>2015-06-04T15:57:40Z</time>
      </trkpt>
      <trkpt lat="49.10307" lon="-1.32096">
        <ele>108.85601</ele>
        <time>2015-06-04T15:57:45Z</time>
      </trkpt>
      <trkpt lat="49.10306" lon="-1.321">
        <ele>108.85601</ele>
        <time>2015-06-04T15:57:50Z</time>
      </trkpt>
      <trkpt lat="49.10306" lon="-1.3211">
        <ele>107.97743</ele>
        <time>2015-06-04T15:57:55Z</time>
      </trkpt>
      <trkpt lat="49.10303" lon="-1.32118">
        <ele>107.97743</ele>
        <time>2015-06-04T15:58:00Z</time>
      </trkpt>
      <trkpt lat="49.10302" lon="-1.32125">
        <ele>107.14489</ele>
        <time>2015-06-04T15:58:05Z</time>
      </trkpt>
      <trkpt lat="49.10303" lon="-1.32129">
        <ele>107.14489</ele>
        <time>2015-06-04T15:58:10Z</time>
      </trkpt>
      <trkpt lat="49.10304" lon="-1.32128">
        <ele>107.14489</ele>
        <time>2015-06-04T15:58:15Z</time>
      </trkpt>
      <trkpt lat="49.10306" lon="-1.32127">
        <ele>107.14489</ele>
        <time>2015-06-04T15:58:20Z</time>
      </trkpt>
      <trkpt lat="49.10305" lon="-1.32126">
        <ele>107.14489</ele>
        <time>2015-06-04T15:58:25Z</time>
      </trkpt>
      <trkpt lat="49.10305" lon="-1.32123">
        <ele>107.14489</ele>
        <time>2015-06-04T15:58:30Z</time>
      </trkpt>
      <trkpt lat="49.10304" lon="-1.32124">
        <ele>106.51491</ele>
        <time>2015-06-04T15:58:35Z</time>
      </trkpt>
      <trkpt lat="49.10302" lon="-1.32124">
        <ele>106.51491</ele>
        <time>2015-06-04T15:58:40Z</time>
      </trkpt>
      <trkpt lat="49.10302" lon="-1.32126">
        <ele>106.51491</ele>
        <time>2015-06-04T15:58:45Z</time>
      </trkpt>
      <trkpt lat="49.10304" lon="-1.32127">
        <ele>106.51491</ele>
        <time>2015-06-04T15:58:50Z</time>
      </trkpt>
      <trkpt lat="49.10303" lon="-1.32129">
        <ele>106.51491</ele>
        <time>2015-06-04T15:58:55Z</time>
      </trkpt>
      <trkpt lat="49.10303" lon="-1.32128">
        <ele>106.51491</ele>
        <time>2015-06-04T15:59:00Z</time>
      </trkpt>
      <trkpt lat="49.10302" lon="-1.32128">
        <ele>106.51491</ele>
        <time>2015-06-04T15:59:05Z</time>
      </trkpt>
      <trkpt lat="49.10301" lon="-1.32132">
        <ele>106.13104</ele>
        <time>2015-06-04T15:59:10Z</time>
      </trkpt>
      <trkpt lat="49.10299" lon="-1.32131">
        <ele>106.13104</ele>
        <time>2015-06-04T15:59:15Z</time>
      </trkpt>
      <trkpt lat="49.10298" lon="-1.32133">
        <ele>106.13104</ele>
        <time>2015-06-04T15:59:20Z</time>
      </trkpt>
      <trkpt lat="49.10297" lon="-1.32133">
        <ele>106.13104</ele>
        <time>2015-06-04T15:59:25Z</time>
      </trkpt>
      <trkpt lat="49.10298" lon="-1.32134">
        <ele>106.13104</ele>
        <time>2015-06-04T15:59:30Z</time>
      </trkpt>
      <trkpt lat="49.10298" lon="-1.32136">
        <ele>106.13104</ele>
        <time>2015-06-04T15:59:35Z</time>
      </trkpt>
      <trkpt lat="49.10298" lon="-1.32137">
        <ele>106.13104</ele>
        <time>2015-06-04T15:59:40Z</time>
      </trkpt>
      <trkpt lat="49.10297" lon="-1.32137">
        <ele>106.13104</ele>
        <time>2015-06-04T15:59:45Z</time>
      </trkpt>
      <trkpt lat="49.10299" lon="-1.32138">
        <ele>104.76471</ele>
        <time>2015-06-04T15:59:50Z</time>
      </trkpt>
      <trkpt lat="49.103" lon="-1.32137">
        <ele>104.76471</ele>
        <time>2015-06-04T15:59:55Z</time>
      </trkpt>
      <trkpt lat="49.10298" lon="-1.32134">
        <ele>104.76471</ele>
        <time>2015-06-04T16:00:00Z</time>
      </trkpt>
      <trkpt lat="49.10298" lon="-1.32125">
        <ele>103.47077</ele>
        <time>2015-06-04T16:00:05Z</time>
      </trkpt>
      <trkpt lat="49.10297" lon="-1.32123">
        <ele>103.47077</ele>
        <time>2015-06-04T16:00:10Z</time>
      </trkpt>
      <trkpt lat="49.10296" lon="-1.32123">
        <ele>103.47077</ele>
        <time>2015-06-04T16:00:15Z</time>
      </trkpt>
      <trkpt lat="49.10297" lon="-1.32124">
        <ele>103.47077</ele>
        <time>2015-06-04T16:00:20Z</time>
      </trkpt>
      <trkpt lat="49.10297" lon="-1.32125">
        <ele>103.47077</ele>
        <time>2015-06-04T16:00:25Z</time>
      </trkpt>
      <trkpt lat="49.10297" lon="-1.32125">
        <ele>103.47077</ele>
        <time>2015-06-04T16:00:30Z</time>
      </trkpt>
      <trkpt lat="49.10297" lon="-1.32124">
        <ele>103.47077</ele>
        <time>2015-06-04T16:08:35Z</time>
      </trkpt>
      <trkpt lat="49.10297" lon="-1.32125">
        <ele>103.47077</ele>
        <time>2015-06-04T16:08:40Z</time>
      </trkpt>
      <trkpt lat="49.10297" lon="-1.32125">
        <ele>103.47077</ele>
        <time>2015-06-04T16:08:45Z</time>
      </trkpt>
      <trkpt lat="49.10293" lon="-1.32117">
        <ele>103.22637</ele>
        <time>2015-06-04T16:10:05Z</time>
      </trkpt>
      <trkpt lat="49.10293" lon="-1.32117">
        <ele>103.22637</ele>
        <time>2015-06-04T16:10:10Z</time>
      </trkpt>
      <trkpt lat="49.10293" lon="-1.32117">
        <ele>103.22637</ele>
        <time>2015-06-04T16:10:15Z</time>
      </trkpt>
      <trkpt lat="49.10295" lon="-1.32116">
        <ele>103.22637</ele>
        <time>2015-06-04T16:12:15Z</time>
      </trkpt>
      <trkpt lat="49.10301" lon="-1.32119">
        <ele>103.22637</ele>
        <time>2015-06-04T16:12:20Z</time>
      </trkpt>
      <trkpt lat="49.10308" lon="-1.32123">
        <ele>103.1757</ele>
        <time>2015-06-04T16:12:25Z</time>
      </trkpt>
      <trkpt lat="49.10316" lon="-1.32129">
        <ele>103.1757</ele>
        <time>2015-06-04T16:12:30Z</time>
      </trkpt>
      <trkpt lat="49.10324" lon="-1.32139">
        <ele>103.30342</ele>
        <time>2015-06-04T16:12:35Z</time>
      </trkpt>
      <trkpt lat="49.10328" lon="-1.32141">
        <ele>103.30342</ele>
        <time>2015-06-04T16:12:40Z</time>
      </trkpt>
      <trkpt lat="49.10332" lon="-1.32146">
        <ele>103.52276</ele>
        <time>2015-06-04T16:12:45Z</time>
      </trkpt>
      <trkpt lat="49.10338" lon="-1.32154">
        <ele>103.52276</ele>
        <time>2015-06-04T16:12:50Z</time>
      </trkpt>
      <trkpt lat="49.10344" lon="-1.32161">
        <ele>103.78182</ele>
        <time>2015-06-04T16:12:55Z</time>
      </trkpt>
      <trkpt lat="49.10348" lon="-1.32165">
        <ele>103.78182</ele>
        <time>2015-06-04T16:13:00Z</time>
      </trkpt>
      <trkpt lat="49.10351" lon="-1.32167">
        <ele>103.78182</ele>
        <time>2015-06-04T16:13:05Z</time>
      </trkpt>
      <trkpt lat="49.10354" lon="-1.3217">
        <ele>104.10445</ele>
        <time>2015-06-04T16:13:10Z</time>
      </trkpt>
      <trkpt lat="49.10358" lon="-1.32175">
        <ele>104.10445</ele>
        <time>2015-06-04T16:13:15Z</time>
      </trkpt>
      <trkpt lat="49.10364" lon="-1.3218">
        <ele>104.46931</ele>
        <time>2015-06-04T16:13:20Z</time>
      </trkpt>
      <trkpt lat="49.10368" lon="-1.32183">
        <ele>104.46931</ele>
        <time>2015-06-04T16:13:25Z</time>
      </trkpt>
      <trkpt lat="49.1037" lon="-1.32184">
        <ele>104.46931</ele>
        <time>2015-06-04T16:13:30Z</time>
      </trkpt>
      <trkpt lat="49.10375" lon="-1.32188">
        <ele>104.77003</ele>
        <time>2015-06-04T16:13:35Z</time>
      </trkpt>
      <trkpt lat="49.1038" lon="-1.32195">
        <ele>104.77003</ele>
        <time>2015-06-04T16:13:40Z</time>
      </trkpt>
      <trkpt lat="49.10384" lon="-1.32198">
        <ele>104.95148</ele>
        <time>2015-06-04T16:13:45Z</time>
      </trkpt>
      <trkpt lat="49.1039" lon="-1.32202">
        <ele>104.95148</ele>
        <time>2015-06-04T16:13:50Z</time>
      </trkpt>
      <trkpt lat="49.10395" lon="-1.32204">
        <ele>105.10701</ele>
        <time>2015-06-04T16:13:55Z</time>
      </trkpt>
      <trkpt lat="49.10402" lon="-1.32207">
        <ele>105.10701</ele>
        <time>2015-06-04T16:14:00Z</time>
      </trkpt>
      <trkpt lat="49.10407" lon="-1.3221">
        <ele>105.36646</ele>
        <time>2015-06-04T16:14:05Z</time>
      </trkpt>
      <trkpt lat="49.10414" lon="-1.32215">
        <ele>105.36646</ele>
        <time>2015-06-04T16:14:10Z</time>
      </trkpt>
      <trkpt lat="49.10416" lon="-1.32218">
        <ele>105.64808</ele>
        <time>2015-06-04T16:14:15Z</time>
      </trkpt>
      <trkpt lat="49.10422" lon="-1.32222">
        <ele>105.64808</ele>
        <time>2015-06-04T16:14:20Z</time>
      </trkpt>
      <trkpt lat="49.10426" lon="-1.32227">
        <ele>105.90489</ele>
        <time>2015-06-04T16:14:25Z</time>
      </trkpt>
      <trkpt lat="49.1043" lon="-1.32232">
        <ele>105.90489</ele>
        <time>2015-06-04T16:14:30Z</time>
      </trkpt>
      <trkpt lat="49.10432" lon="-1.32232">
        <ele>105.90489</ele>
        <time>2015-06-04T16:14:35Z</time>
      </trkpt>
      <trkpt lat="49.10433" lon="-1.3223">
        <ele>105.90489</ele>
        <time>2015-06-04T16:14:40Z</time>
      </trkpt>
      <trkpt lat="49.10432" lon="-1.32229">
        <ele>106.16555</ele>
        <time>2015-06-04T16:14:45Z</time>
      </trkpt>
      <trkpt lat="49.1043" lon="-1.32227">
        <ele>106.16555</ele>
        <time>2015-06-04T16:14:50Z</time>
      </trkpt>
      <trkpt lat="49.10432" lon="-1.32226">
        <ele>106.16555</ele>
        <time>2015-06-04T16:14:55Z</time>
      </trkpt>
      <trkpt lat="49.10439" lon="-1.32233">
        <ele>106.41337</ele>
        <time>2015-06-04T16:15:00Z</time>
      </trkpt>
      <trkpt lat="49.10446" lon="-1.32232">
        <ele>106.41337</ele>
        <time>2015-06-04T16:15:05Z</time>
      </trkpt>
      <trkpt lat="49.1045" lon="-1.32226">
        <ele>106.67619</ele>
        <time>2015-06-04T16:15:10Z</time>
      </trkpt>
      <trkpt lat="49.10455" lon="-1.32218">
        <ele>106.67619</ele>
        <time>2015-06-04T16:15:15Z</time>
      </trkpt>
      <trkpt lat="49.1046" lon="-1.32213">
        <ele>106.951</ele>
        <time>2015-06-04T16:15:20Z</time>
      </trkpt>
      <trkpt lat="49.10466" lon="-1.32208">
        <ele>106.951</ele>
        <time>2015-06-04T16:15:25Z</time>
      </trkpt>
      <trkpt lat="49.10472" lon="-1.32204">
        <ele>107.19176</ele>
        <time>2015-06-04T16:15:30Z</time>
      </trkpt>
      <trkpt lat="49.10477" lon="-1.322">
        <ele>107.19176</ele>
        <time>2015-06-04T16:15:35Z</time>
      </trkpt>
      <trkpt lat="49.10481" lon="-1.32194">
        <ele>107.38478</ele>
        <time>2015-06-04T16:15:40Z</time>
      </trkpt>
      <trkpt lat="49.10484" lon="-1.3219">
        <ele>107.38478</ele>
        <time>2015-06-04T16:15:45Z</time>
      </trkpt>
      <trkpt lat="49.10487" lon="-1.32182">
        <ele>107.47432</ele>
        <time>2015-06-04T16:15:50Z</time>
      </trkpt>
      <trkpt lat="49.1049" lon="-1.32173">
        <ele>107.47432</ele>
        <time>2015-06-04T16:15:55Z</time>
      </trkpt>
      <trkpt lat="49.10491" lon="-1.32165">
        <ele>107.45231</ele>
        <time>2015-06-04T16:16:00Z</time>
      </trkpt>
      <trkpt lat="49.10495" lon="-1.32157">
        <ele>107.45231</ele>
        <time>2015-06-04T16:16:05Z</time>
      </trkpt>
      <trkpt lat="49.10498" lon="-1.32151">
        <ele>107.41249</ele>
        <time>2015-06-04T16:16:10Z</time>
      </trkpt>
      <trkpt lat="49.10501" lon="-1.32144">
        <ele>107.41249</ele>
        <time>2015-06-04T16:16:15Z</time>
      </trkpt>
      <trkpt lat="49.10503" lon="-1.32137">
        <ele>107.326546</ele>
        <time>2015-06-04T16:16:20Z</time>
      </trkpt>
      <trkpt lat="49.10507" lon="-1.32132">
        <ele>107.326546</ele>
        <time>2015-06-04T16:16:25Z</time>
      </trkpt>
      <trkpt lat="49.10513" lon="-1.32124">
        <ele>107.168396</ele>
        <time>2015-06-04T16:16:30Z</time>
      </trkpt>
      <trkpt lat="49.10514" lon="-1.32118">
        <ele>107.168396</ele>
        <time>2015-06-04T16:16:35Z</time>
      </trkpt>
      <trkpt lat="49.10517" lon="-1.32109">
        <ele>106.95736</ele>
        <time>2015-06-04T16:16:40Z</time>
      </trkpt>
      <trkpt lat="49.10519" lon="-1.32102">
        <ele>106.95736</ele>
        <time>2015-06-04T16:16:45Z</time>
      </trkpt>
      <trkpt lat="49.10522" lon="-1.32093">
        <ele>106.725945</ele>
        <time>2015-06-04T16:16:50Z</time>
      </trkpt>
      <trkpt lat="49.10525" lon="-1.32084">
        <ele>106.725945</ele>
        <time>2015-06-04T16:16:55Z</time>
      </trkpt>
      <trkpt lat="49.10528" lon="-1.32077">
        <ele>106.47554</ele>
        <time>2015-06-04T16:17:00Z</time>
      </trkpt>
      <trkpt lat="49.10531" lon="-1.32071">
        <ele>106.47554</ele>
        <time>2015-06-04T16:17:05Z</time>
      </trkpt>
      <trkpt lat="49.10536" lon="-1.32064">
        <ele>106.13546</ele>
        <time>2015-06-04T16:17:10Z</time>
      </trkpt>
      <trkpt lat="49.10539" lon="-1.32056">
        <ele>106.13546</ele>
        <time>2015-06-04T16:17:15Z</time>
      </trkpt>
      <trkpt lat="49.10542" lon="-1.3205">
        <ele>105.770195</ele>
        <time>2015-06-04T16:17:20Z</time>
      </trkpt>
      <trkpt lat="49.10547" lon="-1.32045">
        <ele>105.770195</ele>
        <time>2015-06-04T16:17:25Z</time>
      </trkpt>
      <trkpt lat="49.10551" lon="-1.32039">
        <ele>105.36755</ele>
        <time>2015-06-04T16:17:30Z</time>
      </trkpt>
      <trkpt lat="49.10555" lon="-1.32033">
        <ele>105.36755</ele>
        <time>2015-06-04T16:17:35Z</time>
      </trkpt>
      <trkpt lat="49.1056" lon="-1.32027">
        <ele>104.93077</ele>
        <time>2015-06-04T16:17:40Z</time>
      </trkpt>
      <trkpt lat="49.10565" lon="-1.3202">
        <ele>104.93077</ele>
        <time>2015-06-04T16:17:45Z</time>
      </trkpt>
      <trkpt lat="49.10569" lon="-1.32014">
        <ele>104.43416</ele>
        <time>2015-06-04T16:17:50Z</time>
      </trkpt>
      <trkpt lat="49.10573" lon="-1.32008">
        <ele>104.43416</ele>
        <time>2015-06-04T16:17:55Z</time>
      </trkpt>
      <trkpt lat="49.10577" lon="-1.32002">
        <ele>103.92613</ele>
        <time>2015-06-04T16:18:00Z</time>
      </trkpt>
      <trkpt lat="49.10582" lon="-1.31999">
        <ele>103.92613</ele>
        <time>2015-06-04T16:18:05Z</time>
      </trkpt>
      <trkpt lat="49.10586" lon="-1.31996">
        <ele>103.451614</ele>
        <time>2015-06-04T16:18:10Z</time>
      </trkpt>
      <trkpt lat="49.10586" lon="-1.31998">
        <ele>103.451614</ele>
        <time>2015-06-04T16:18:15Z</time>
      </trkpt>
      <trkpt lat="49.10587" lon="-1.31997">
        <ele>103.451614</ele>
        <time>2015-06-04T16:18:20Z</time>
      </trkpt>
      <trkpt lat="49.10587" lon="-1.31999">
        <ele>103.451614</ele>
        <time>2015-06-04T16:18:25Z</time>
      </trkpt>
      <trkpt lat="49.10588" lon="-1.31997">
        <ele>103.451614</ele>
        <time>2015-06-04T16:18:30Z</time>
      </trkpt>
      <trkpt lat="49.10588" lon="-1.31996">
        <ele>103.451614</ele>
        <time>2015-06-04T16:18:35Z</time>
      </trkpt>
      <trkpt lat="49.10587" lon="-1.31996">
        <ele>103.451614</ele>
        <time>2015-06-04T16:18:40Z</time>
      </trkpt>
      <trkpt lat="49.10585" lon="-1.31997">
        <ele>103.451614</ele>
        <time>2015-06-04T16:18:45Z</time>
      </trkpt>
      <trkpt lat="49.10585" lon="-1.31997">
        <ele>103.451614</ele>
        <time>2015-06-04T16:18:50Z</time>
      </trkpt>
      <trkpt lat="49.10586" lon="-1.31999">
        <ele>102.72069</ele>
        <time>2015-06-04T16:18:55Z</time>
      </trkpt>
      <trkpt lat="49.1059" lon="-1.32002">
        <ele>102.72069</ele>
        <time>2015-06-04T16:19:00Z</time>
      </trkpt>
      <trkpt lat="49.1059" lon="-1.32005">
        <ele>102.72069</ele>
        <time>2015-06-04T16:19:05Z</time>
      </trkpt>
      <trkpt lat="49.10592" lon="-1.32011">
        <ele>101.92662</ele>
        <time>2015-06-04T16:19:10Z</time>
      </trkpt>
      <trkpt lat="49.10594" lon="-1.32016">
        <ele>101.92662</ele>
        <time>2015-06-04T16:19:15Z</time>
      </trkpt>
      <trkpt lat="49.10596" lon="-1.32021">
        <ele>101.92662</ele>
        <time>2015-06-04T16:19:20Z</time>
      </trkpt>
      <trkpt lat="49.10596" lon="-1.32027">
        <ele>101.04689</ele>
        <time>2015-06-04T16:19:25Z</time>
      </trkpt>
      <trkpt lat="49.10598" lon="-1.32033">
        <ele>101.04689</ele>
        <time>2015-06-04T16:19:30Z</time>
      </trkpt>
      <trkpt lat="49.10601" lon="-1.32041">
        <ele>100.219406</ele>
        <time>2015-06-04T16:19:35Z</time>
      </trkpt>
      <trkpt lat="49.106" lon="-1.32044">
        <ele>100.219406</ele>
        <time>2015-06-04T16:19:40Z</time>
      </trkpt>
      <trkpt lat="49.10601" lon="-1.32048">
        <ele>100.219406</ele>
        <time>2015-06-04T16:19:45Z</time>
      </trkpt>
      <trkpt lat="49.10604" lon="-1.32053">
        <ele>99.61502</ele>
        <time>2015-06-04T16:19:50Z</time>
      </trkpt>
      <trkpt lat="49.10608" lon="-1.32061">
        <ele>99.61502</ele>
        <time>2015-06-04T16:19:55Z</time>
      </trkpt>
      <trkpt lat="49.1061" lon="-1.32068">
        <ele>99.05994</ele>
        <time>2015-06-04T16:20:00Z</time>
      </trkpt>
      <trkpt lat="49.10615" lon="-1.32077">
        <ele>99.05994</ele>
        <time>2015-06-04T16:20:05Z</time>
      </trkpt>
      <trkpt lat="49.10617" lon="-1.32082">
        <ele>98.59474</ele>
        <time>2015-06-04T16:20:10Z</time>
      </trkpt>
      <trkpt lat="49.10621" lon="-1.32092">
        <ele>98.59474</ele>
        <time>2015-06-04T16:20:15Z</time>
      </trkpt>
      <trkpt lat="49.10624" lon="-1.32097">
        <ele>98.28558</ele>
        <time>2015-06-04T16:20:20Z</time>
      </trkpt>
      <trkpt lat="49.10626" lon="-1.32103">
        <ele>98.28558</ele>
        <time>2015-06-04T16:20:25Z</time>
      </trkpt>
      <trkpt lat="49.1063" lon="-1.32113">
        <ele>98.178894</ele>
        <time>2015-06-04T16:20:30Z</time>
      </trkpt>
      <trkpt lat="49.10634" lon="-1.32122">
        <ele>98.178894</ele>
        <time>2015-06-04T16:20:35Z</time>
      </trkpt>
      <trkpt lat="49.10636" lon="-1.32127">
        <ele>98.17299</ele>
        <time>2015-06-04T16:20:40Z</time>
      </trkpt>
      <trkpt lat="49.10637" lon="-1.32132">
        <ele>98.17299</ele>
        <time>2015-06-04T16:20:45Z</time>
      </trkpt>
      <trkpt lat="49.1064" lon="-1.32137">
        <ele>98.17299</ele>
        <time>2015-06-04T16:20:50Z</time>
      </trkpt>
      <trkpt lat="49.10645" lon="-1.32144">
        <ele>98.25984</ele>
        <time>2015-06-04T16:20:55Z</time>
      </trkpt>
      <trkpt lat="49.10649" lon="-1.32149">
        <ele>98.25984</ele>
        <time>2015-06-04T16:21:00Z</time>
      </trkpt>
      <trkpt lat="49.10652" lon="-1.32156">
        <ele>98.4029</ele>
        <time>2015-06-04T16:21:05Z</time>
      </trkpt>
      <trkpt lat="49.10655" lon="-1.32165">
        <ele>98.4029</ele>
        <time>2015-06-04T16:21:10Z</time>
      </trkpt>
      <trkpt lat="49.10658" lon="-1.32169">
        <ele>98.72667</ele>
        <time>2015-06-04T16:21:15Z</time>
      </trkpt>
      <trkpt lat="49.10663" lon="-1.32175">
        <ele>98.72667</ele>
        <time>2015-06-04T16:21:20Z</time>
      </trkpt>
      <trkpt lat="49.10666" lon="-1.32181">
        <ele>99.14424</ele>
        <time>2015-06-04T16:21:25Z</time>
      </trkpt>
      <trkpt lat="49.1067" lon="-1.32187">
        <ele>99.14424</ele>
        <time>2015-06-04T16:21:30Z</time>
      </trkpt>
      <trkpt lat="49.10672" lon="-1.32193">
        <ele>99.546005</ele>
        <time>2015-06-04T16:21:35Z</time>
      </trkpt>
      <trkpt lat="49.10674" lon="-1.32202">
        <ele>99.546005</ele>
        <time>2015-06-04T16:21:40Z</time>
      </trkpt>
      <trkpt lat="49.10676" lon="-1.32208">
        <ele>99.9025</ele>
        <time>2015-06-04T16:21:45Z</time>
      </trkpt>
      <trkpt lat="49.10678" lon="-1.32214">
        <ele>99.9025</ele>
        <time>2015-06-04T16:21:50Z</time>
      </trkpt>
      <trkpt lat="49.10679" lon="-1.32223">
        <ele>100.28746</ele>
        <time>2015-06-04T16:21:55Z</time>
      </trkpt>
      <trkpt lat="49.10682" lon="-1.32232">
        <ele>100.28746</ele>
        <time>2015-06-04T16:22:00Z</time>
      </trkpt>
      <trkpt lat="49.10689" lon="-1.32243">
        <ele>100.62502</ele>
        <time>2015-06-04T16:22:05Z</time>
      </trkpt>
      <trkpt lat="49.10691" lon="-1.3225">
        <ele>100.62502</ele>
        <time>2015-06-04T16:22:10Z</time>
      </trkpt>
      <trkpt lat="49.10694" lon="-1.32257">
        <ele>100.9171</ele>
        <time>2015-06-04T16:22:15Z</time>
      </trkpt>
      <trkpt lat="49.10696" lon="-1.32261">
        <ele>100.9171</ele>
        <time>2015-06-04T16:22:20Z</time>
      </trkpt>
      <trkpt lat="49.10698" lon="-1.32266">
        <ele>100.9171</ele>
        <time>2015-06-04T16:22:25Z</time>
      </trkpt>
      <trkpt lat="49.10698" lon="-1.32268">
        <ele>100.9171</ele>
        <time>2015-06-04T16:22:30Z</time>
      </trkpt>
      <trkpt lat="49.10699" lon="-1.32273">
        <ele>101.18002</ele>
        <time>2015-06-04T16:22:35Z</time>
      </trkpt>
      <trkpt lat="49.107" lon="-1.32273">
        <ele>101.18002</ele>
        <time>2015-06-04T16:22:40Z</time>
      </trkpt>
      <trkpt lat="49.10701" lon="-1.32275">
        <ele>101.18002</ele>
        <time>2015-06-04T16:22:45Z</time>
      </trkpt>
      <trkpt lat="49.10703" lon="-1.32278">
        <ele>101.18002</ele>
        <time>2015-06-04T16:22:50Z</time>
      </trkpt>
      <trkpt lat="49.10704" lon="-1.32279">
        <ele>101.18002</ele>
        <time>2015-06-04T16:22:55Z</time>
      </trkpt>
      <trkpt lat="49.10705" lon="-1.32282">
        <ele>101.18002</ele>
        <time>2015-06-04T16:23:00Z</time>
      </trkpt>
      <trkpt lat="49.10705" lon="-1.32285">
        <ele>101.44345</ele>
        <time>2015-06-04T16:23:05Z</time>
      </trkpt>
      <trkpt lat="49.10707" lon="-1.32289">
        <ele>101.44345</ele>
        <time>2015-06-04T16:23:10Z</time>
      </trkpt>
      <trkpt lat="49.10711" lon="-1.32295">
        <ele>101.44345</ele>
        <time>2015-06-04T16:23:15Z</time>
      </trkpt>
      <trkpt lat="49.10714" lon="-1.32301">
        <ele>101.662834</ele>
        <time>2015-06-04T16:23:20Z</time>
      </trkpt>
      <trkpt lat="49.10716" lon="-1.32309">
        <ele>101.662834</ele>
        <time>2015-06-04T16:23:25Z</time>
      </trkpt>
      <trkpt lat="49.10718" lon="-1.32313">
        <ele>101.662834</ele>
        <time>2015-06-04T16:23:30Z</time>
      </trkpt>
      <trkpt lat="49.10719" lon="-1.32318">
        <ele>101.92674</ele>
        <time>2015-06-04T16:23:35Z</time>
      </trkpt>
      <trkpt lat="49.10721" lon="-1.32321">
        <ele>101.92674</ele>
        <time>2015-06-04T16:23:40Z</time>
      </trkpt>
      <trkpt lat="49.10722" lon="-1.32327">
        <ele>101.92674</ele>
        <time>2015-06-04T16:23:45Z</time>
      </trkpt>
      <trkpt lat="49.10724" lon="-1.32334">
        <ele>102.2739</ele>
        <time>2015-06-04T16:23:50Z</time>
      </trkpt>
      <trkpt lat="49.10727" lon="-1.32339">
        <ele>102.2739</ele>
        <time>2015-06-04T16:23:55Z</time>
      </trkpt>
      <trkpt lat="49.10731" lon="-1.32348">
        <ele>102.52385</ele>
        <time>2015-06-04T16:24:00Z</time>
      </trkpt>
      <trkpt lat="49.10733" lon="-1.32352">
        <ele>102.52385</ele>
        <time>2015-06-04T16:24:05Z</time>
      </trkpt>
      <trkpt lat="49.10737" lon="-1.32356">
        <ele>102.52385</ele>
        <time>2015-06-04T16:24:10Z</time>
      </trkpt>
      <trkpt lat="49.10741" lon="-1.32368">
        <ele>102.59614</ele>
        <time>2015-06-04T16:24:15Z</time>
      </trkpt>
      <trkpt lat="49.1074" lon="-1.32372">
        <ele>102.59614</ele>
        <time>2015-06-04T16:24:20Z</time>
      </trkpt>
      <trkpt lat="49.10744" lon="-1.32378">
        <ele>102.59614</ele>
        <time>2015-06-04T16:24:25Z</time>
      </trkpt>
      <trkpt lat="49.10748" lon="-1.32384">
        <ele>102.532036</ele>
        <time>2015-06-04T16:24:30Z</time>
      </trkpt>
      <trkpt lat="49.10752" lon="-1.32389">
        <ele>102.532036</ele>
        <time>2015-06-04T16:24:35Z</time>
      </trkpt>
      <trkpt lat="49.10754" lon="-1.32394">
        <ele>102.44228</ele>
        <time>2015-06-04T16:24:40Z</time>
      </trkpt>
      <trkpt lat="49.10756" lon="-1.32399">
        <ele>102.44228</ele>
        <time>2015-06-04T16:24:45Z</time>
      </trkpt>
      <trkpt lat="49.10759" lon="-1.32406">
        <ele>102.37192</ele>
        <time>2015-06-04T16:24:50Z</time>
      </trkpt>
      <trkpt lat="49.10763" lon="-1.32408">
        <ele>102.37192</ele>
        <time>2015-06-04T16:24:55Z</time>
      </trkpt>
      <trkpt lat="49.10765" lon="-1.32409">
        <ele>102.37192</ele>
        <time>2015-06-04T16:25:00Z</time>
      </trkpt>
      <trkpt lat="49.10768" lon="-1.32411">
        <ele>102.37192</ele>
        <time>2015-06-04T16:25:05Z</time>
      </trkpt>
      <trkpt lat="49.10775" lon="-1.32406">
        <ele>102.13207</ele>
        <time>2015-06-04T16:25:10Z</time>
      </trkpt>
      <trkpt lat="49.10779" lon="-1.32402">
        <ele>102.13207</ele>
        <time>2015-06-04T16:25:15Z</time>
      </trkpt>
      <trkpt lat="49.10783" lon="-1.32399">
        <ele>101.80766</ele>
        <time>2015-06-04T16:25:20Z</time>
      </trkpt>
      <trkpt lat="49.10786" lon="-1.32396">
        <ele>101.80766</ele>
        <time>2015-06-04T16:25:25Z</time>
      </trkpt>
      <trkpt lat="49.10787" lon="-1.32396">
        <ele>101.80766</ele>
        <time>2015-06-04T16:25:30Z</time>
      </trkpt>
      <trkpt lat="49.10788" lon="-1.32396">
        <ele>101.80766</ele>
        <time>2015-06-04T16:25:35Z</time>
      </trkpt>
      <trkpt lat="49.10788" lon="-1.32395">
        <ele>101.80766</ele>
        <time>2015-06-04T16:25:40Z</time>
      </trkpt>
      <trkpt lat="49.10788" lon="-1.32395">
        <ele>101.80766</ele>
        <time>2015-06-04T16:25:45Z</time>
      </trkpt>
      <trkpt lat="49.10789" lon="-1.32394">
        <ele>101.80766</ele>
        <time>2015-06-04T16:25:50Z</time>
      </trkpt>
      <trkpt lat="49.1079" lon="-1.32396">
        <ele>101.80766</ele>
        <time>2015-06-04T16:25:55Z</time>
      </trkpt>
      <trkpt lat="49.1079" lon="-1.32398">
        <ele>101.8379</ele>
        <time>2015-06-04T16:26:00Z</time>
      </trkpt>
      <trkpt lat="49.1079" lon="-1.32398">
        <ele>101.8379</ele>
        <time>2015-06-04T16:26:05Z</time>
      </trkpt>
      <trkpt lat="49.1079" lon="-1.32397">
        <ele>101.8379</ele>
        <time>2015-06-04T16:26:10Z</time>
      </trkpt>
      <trkpt lat="49.1079" lon="-1.32398">
        <ele>101.8379</ele>
        <time>2015-06-04T16:26:15Z</time>
      </trkpt>
      <trkpt lat="49.1079" lon="-1.32397">
        <ele>101.8379</ele>
        <time>2015-06-04T16:26:20Z</time>
      </trkpt>
      <trkpt lat="49.10789" lon="-1.32396">
        <ele>101.8379</ele>
        <time>2015-06-04T16:26:25Z</time>
      </trkpt>
      <trkpt lat="49.10788" lon="-1.32396">
        <ele>101.8379</ele>
        <time>2015-06-04T16:26:30Z</time>
      </trkpt>
      <trkpt lat="49.10787" lon="-1.32397">
        <ele>101.8379</ele>
        <time>2015-06-04T16:26:35Z</time>
      </trkpt>
      <trkpt lat="49.10786" lon="-1.32397">
        <ele>101.8379</ele>
        <time>2015-06-04T16:26:40Z</time>
      </trkpt>
      <trkpt lat="49.10786" lon="-1.32398">
        <ele>101.8379</ele>
        <time>2015-06-04T16:26:45Z</time>
      </trkpt>
      <trkpt lat="49.10786" lon="-1.32399">
        <ele>101.8379</ele>
        <time>2015-06-04T16:26:50Z</time>
      </trkpt>
      <trkpt lat="49.10786" lon="-1.32399">
        <ele>101.8379</ele>
        <time>2015-06-04T16:26:55Z</time>
      </trkpt>
      <trkpt lat="49.10786" lon="-1.324">
        <ele>101.8379</ele>
        <time>2015-06-04T16:27:00Z</time>
      </trkpt>
      <trkpt lat="49.10785" lon="-1.324">
        <ele>101.8379</ele>
        <time>2015-06-04T16:27:05Z</time>
      </trkpt>
      <trkpt lat="49.10784" lon="-1.324">
        <ele>102.00909</ele>
        <time>2015-06-04T16:27:10Z</time>
      </trkpt>
      <trkpt lat="49.10784" lon="-1.32399">
        <ele>102.00909</ele>
        <time>2015-06-04T16:27:15Z</time>
      </trkpt>
      <trkpt lat="49.10784" lon="-1.32399">
        <ele>102.00909</ele>
        <time>2015-06-04T16:27:20Z</time>
      </trkpt>
      <trkpt lat="49.10783" lon="-1.32399">
        <ele>102.00909</ele>
        <time>2015-06-04T16:27:25Z</time>
      </trkpt>
      <trkpt lat="49.10784" lon="-1.32399">
        <ele>102.00909</ele>
        <time>2015-06-04T16:27:30Z</time>
      </trkpt>
      <trkpt lat="49.10785" lon="-1.32399">
        <ele>102.00909</ele>
        <time>2015-06-04T16:27:35Z</time>
      </trkpt>
      <trkpt lat="49.10786" lon="-1.324">
        <ele>102.00909</ele>
        <time>2015-06-04T16:27:40Z</time>
      </trkpt>
      <trkpt lat="49.10787" lon="-1.32399">
        <ele>102.00909</ele>
        <time>2015-06-04T16:27:45Z</time>
      </trkpt>
      <trkpt lat="49.10787" lon="-1.32398">
        <ele>102.00909</ele>
        <time>2015-06-04T16:27:50Z</time>
      </trkpt>
      <trkpt lat="49.1079" lon="-1.32396">
        <ele>102.35341</ele>
        <time>2015-06-04T16:27:55Z</time>
      </trkpt>
      <trkpt lat="49.10794" lon="-1.32393">
        <ele>102.35341</ele>
        <time>2015-06-04T16:28:00Z</time>
      </trkpt>
      <trkpt lat="49.10795" lon="-1.32392">
        <ele>102.35341</ele>
        <time>2015-06-04T16:28:05Z</time>
      </trkpt>
      <trkpt lat="49.10799" lon="-1.32391">
        <ele>102.66968</ele>
        <time>2015-06-04T16:28:10Z</time>
      </trkpt>
      <trkpt lat="49.10801" lon="-1.32391">
        <ele>102.66968</ele>
        <time>2015-06-04T16:28:15Z</time>
      </trkpt>
      <trkpt lat="49.10804" lon="-1.32391">
        <ele>102.66968</ele>
        <time>2015-06-04T16:28:20Z</time>
      </trkpt>
      <trkpt lat="49.10804" lon="-1.32395">
        <ele>102.66968</ele>
        <time>2015-06-04T16:28:25Z</time>
      </trkpt>
      <trkpt lat="49.10806" lon="-1.324">
        <ele>102.98772</ele>
        <time>2015-06-04T16:28:30Z</time>
      </trkpt>
      <trkpt lat="49.1081" lon="-1.32406">
        <ele>102.98772</ele>
        <time>2015-06-04T16:28:35Z</time>
      </trkpt>
      <trkpt lat="49.10812" lon="-1.3241">
        <ele>103.19109</ele>
        <time>2015-06-04T16:28:40Z</time>
      </trkpt>
      <trkpt lat="49.10814" lon="-1.32416">
        <ele>103.19109</ele>
        <time>2015-06-04T16:28:45Z</time>
      </trkpt>
      <trkpt lat="49.10817" lon="-1.32422">
        <ele>103.244316</ele>
        <time>2015-06-04T16:28:50Z</time>
      </trkpt>
      <trkpt lat="49.1082" lon="-1.3243">
        <ele>103.244316</ele>
        <time>2015-06-04T16:28:55Z</time>
      </trkpt>
      <trkpt lat="49.10821" lon="-1.32436">
        <ele>103.11494</ele>
        <time>2015-06-04T16:29:00Z</time>
      </trkpt>
      <trkpt lat="49.10822" lon="-1.32437">
        <ele>103.11494</ele>
        <time>2015-06-04T16:29:05Z</time>
      </trkpt>
      <trkpt lat="49.10823" lon="-1.32438">
        <ele>103.11494</ele>
        <time>2015-06-04T16:29:10Z</time>
      </trkpt>
      <trkpt lat="49.10824" lon="-1.32442">
        <ele>103.11494</ele>
        <time>2015-06-04T16:29:15Z</time>
      </trkpt>
      <trkpt lat="49.10826" lon="-1.32445">
        <ele>103.11494</ele>
        <time>2015-06-04T16:29:20Z</time>
      </trkpt>
      <trkpt lat="49.10827" lon="-1.32447">
        <ele>102.68699</ele>
        <time>2015-06-04T16:29:25Z</time>
      </trkpt>
      <trkpt lat="49.10829" lon="-1.32448">
        <ele>102.68699</ele>
        <time>2015-06-04T16:29:30Z</time>
      </trkpt>
      <trkpt lat="49.10833" lon="-1.32456">
        <ele>102.68699</ele>
        <time>2015-06-04T16:29:35Z</time>
      </trkpt>
      <trkpt lat="49.10833" lon="-1.32456">
        <ele>102.68699</ele>
        <time>2015-06-04T16:29:40Z</time>
      </trkpt>
      <trkpt lat="49.10836" lon="-1.32459">
        <ele>102.28617</ele>
        <time>2015-06-04T16:29:45Z</time>
      </trkpt>
      <trkpt lat="49.10836" lon="-1.32462">
        <ele>102.28617</ele>
        <time>2015-06-04T16:29:50Z</time>
      </trkpt>
      <trkpt lat="49.10837" lon="-1.32466">
        <ele>102.28617</ele>
        <time>2015-06-04T16:29:55Z</time>
      </trkpt>
      <trkpt lat="49.10837" lon="-1.32466">
        <ele>102.28617</ele>
        <time>2015-06-04T16:30:00Z</time>
      </trkpt>
      <trkpt lat="49.10838" lon="-1.32468">
        <ele>102.28617</ele>
        <time>2015-06-04T16:30:05Z</time>
      </trkpt>
      <trkpt lat="49.10838" lon="-1.3247">
        <ele>102.28617</ele>
        <time>2015-06-04T16:30:10Z</time>
      </trkpt>
      <trkpt lat="49.10839" lon="-1.32472">
        <ele>101.81073</ele>
        <time>2015-06-04T16:30:15Z</time>
      </trkpt>
      <trkpt lat="49.10839" lon="-1.32473">
        <ele>101.81073</ele>
        <time>2015-06-04T16:30:20Z</time>
      </trkpt>
      <trkpt lat="49.10839" lon="-1.32471">
        <ele>101.81073</ele>
        <time>2015-06-04T16:30:25Z</time>
      </trkpt>
      <trkpt lat="49.10839" lon="-1.3247">
        <ele>101.81073</ele>
        <time>2015-06-04T16:30:30Z</time>
      </trkpt>
      <trkpt lat="49.1084" lon="-1.32469">
        <ele>101.81073</ele>
        <time>2015-06-04T16:30:35Z</time>
      </trkpt>
      <trkpt lat="49.10839" lon="-1.32467">
        <ele>101.81073</ele>
        <time>2015-06-04T16:30:40Z</time>
      </trkpt>
      <trkpt lat="49.10838" lon="-1.32467">
        <ele>101.81073</ele>
        <time>2015-06-04T16:30:45Z</time>
      </trkpt>
      <trkpt lat="49.10838" lon="-1.32467">
        <ele>101.81073</ele>
        <time>2015-06-04T16:30:50Z</time>
      </trkpt>
      <trkpt lat="49.10838" lon="-1.32467">
        <ele>101.81073</ele>
        <time>2015-06-04T16:30:55Z</time>
      </trkpt>
      <trkpt lat="49.10838" lon="-1.32469">
        <ele>101.81073</ele>
        <time>2015-06-04T16:31:00Z</time>
      </trkpt>
      <trkpt lat="49.10837" lon="-1.32468">
        <ele>101.81073</ele>
        <time>2015-06-04T16:31:05Z</time>
      </trkpt>
      <trkpt lat="49.10837" lon="-1.32468">
        <ele>101.81073</ele>
        <time>2015-06-04T16:31:10Z</time>
      </trkpt>
      <trkpt lat="49.10837" lon="-1.32468">
        <ele>101.22423</ele>
        <time>2015-06-04T16:31:15Z</time>
      </trkpt>
      <trkpt lat="49.10837" lon="-1.32467">
        <ele>101.22423</ele>
        <time>2015-06-04T16:31:20Z</time>
      </trkpt>
      <trkpt lat="49.10838" lon="-1.32467">
        <ele>101.22423</ele>
        <time>2015-06-04T16:31:25Z</time>
      </trkpt>
      <trkpt lat="49.10838" lon="-1.32466">
        <ele>101.22423</ele>
        <time>2015-06-04T16:31:30Z</time>
      </trkpt>
      <trkpt lat="49.10838" lon="-1.32469">
        <ele>101.22423</ele>
        <time>2015-06-04T16:31:35Z</time>
      </trkpt>
      <trkpt lat="49.10838" lon="-1.32468">
        <ele>101.22423</ele>
        <time>2015-06-04T16:31:40Z</time>
      </trkpt>
      <trkpt lat="49.10838" lon="-1.32468">
        <ele>101.22423</ele>
        <time>2015-06-04T16:31:45Z</time>
      </trkpt>
      <trkpt lat="49.10837" lon="-1.32468">
        <ele>101.22423</ele>
        <time>2015-06-04T16:31:50Z</time>
      </trkpt>
      <trkpt lat="49.10837" lon="-1.32468">
        <ele>101.22423</ele>
        <time>2015-06-04T16:31:55Z</time>
      </trkpt>
      <trkpt lat="49.10836" lon="-1.32467">
        <ele>101.22423</ele>
        <time>2015-06-04T16:32:00Z</time>
      </trkpt>
      <trkpt lat="49.10836" lon="-1.32466">
        <ele>101.22423</ele>
        <time>2015-06-04T16:32:05Z</time>
      </trkpt>
      <trkpt lat="49.10838" lon="-1.32464">
        <ele>100.57968</ele>
        <time>2015-06-04T16:32:10Z</time>
      </trkpt>
      <trkpt lat="49.10839" lon="-1.32467">
        <ele>100.57968</ele>
        <time>2015-06-04T16:32:15Z</time>
      </trkpt>
      <trkpt lat="49.10834" lon="-1.32473">
        <ele>100.57968</ele>
        <time>2015-06-04T16:32:20Z</time>
      </trkpt>
      <trkpt lat="49.10831" lon="-1.32477">
        <ele>99.98405</ele>
        <time>2015-06-04T16:32:25Z</time>
      </trkpt>
      <trkpt lat="49.10826" lon="-1.32483">
        <ele>99.98405</ele>
        <time>2015-06-04T16:32:30Z</time>
      </trkpt>
      <trkpt lat="49.10821" lon="-1.32489">
        <ele>99.47861</ele>
        <time>2015-06-04T16:32:35Z</time>
      </trkpt>
      <trkpt lat="49.10817" lon="-1.32494">
        <ele>99.47861</ele>
        <time>2015-06-04T16:32:40Z</time>
      </trkpt>
      <trkpt lat="49.10813" lon="-1.32499">
        <ele>99.05814</ele>
        <time>2015-06-04T16:32:45Z</time>
      </trkpt>
      <trkpt lat="49.10809" lon="-1.32506">
        <ele>99.05814</ele>
        <time>2015-06-04T16:32:50Z</time>
      </trkpt>
      <trkpt lat="49.10804" lon="-1.32511">
        <ele>98.674324</ele>
        <time>2015-06-04T16:32:55Z</time>
      </trkpt>
      <trkpt lat="49.10799" lon="-1.32518">
        <ele>98.674324</ele>
        <time>2015-06-04T16:33:00Z</time>
      </trkpt>
      <trkpt lat="49.10794" lon="-1.32524">
        <ele>98.339905</ele>
        <time>2015-06-04T16:33:05Z</time>
      </trkpt>
      <trkpt lat="49.10789" lon="-1.32529">
        <ele>98.339905</ele>
        <time>2015-06-04T16:33:10Z</time>
      </trkpt>
      <trkpt lat="49.10785" lon="-1.32535">
        <ele>98.06653</ele>
        <time>2015-06-04T16:33:15Z</time>
      </trkpt>
      <trkpt lat="49.10784" lon="-1.32534">
        <ele>98.06653</ele>
        <time>2015-06-04T16:33:20Z</time>
      </trkpt>
      <trkpt lat="49.1078" lon="-1.32538">
        <ele>98.06653</ele>
        <time>2015-06-04T16:33:25Z</time>
      </trkpt>
      <trkpt lat="49.10775" lon="-1.32546">
        <ele>97.79276</ele>
        <time>2015-06-04T16:33:30Z</time>
      </trkpt>
      <trkpt lat="49.10771" lon="-1.32554">
        <ele>97.79276</ele>
        <time>2015-06-04T16:33:35Z</time>
      </trkpt>
      <trkpt lat="49.10767" lon="-1.32558">
        <ele>97.57694</ele>
        <time>2015-06-04T16:33:40Z</time>
      </trkpt>
      <trkpt lat="49.10762" lon="-1.32566">
        <ele>97.57694</ele>
        <time>2015-06-04T16:33:45Z</time>
      </trkpt>
      <trkpt lat="49.10757" lon="-1.32571">
        <ele>97.40089</ele>
        <time>2015-06-04T16:33:50Z</time>
      </trkpt>
      <trkpt lat="49.10752" lon="-1.32578">
        <ele>97.40089</ele>
        <time>2015-06-04T16:33:55Z</time>
      </trkpt>
      <trkpt lat="49.10748" lon="-1.32585">
        <ele>97.262024</ele>
        <time>2015-06-04T16:34:00Z</time>
      </trkpt>
      <trkpt lat="49.10745" lon="-1.32591">
        <ele>97.262024</ele>
        <time>2015-06-04T16:34:05Z</time>
      </trkpt>
      <trkpt lat="49.10741" lon="-1.32597">
        <ele>97.12904</ele>
        <time>2015-06-04T16:34:10Z</time>
      </trkpt>
      <trkpt lat="49.10738" lon="-1.32605">
        <ele>97.12904</ele>
        <time>2015-06-04T16:34:15Z</time>
      </trkpt>
      <trkpt lat="49.10735" lon="-1.32612">
        <ele>97.05934</ele>
        <time>2015-06-04T16:34:20Z</time>
      </trkpt>
      <trkpt lat="49.10732" lon="-1.3262">
        <ele>97.05934</ele>
        <time>2015-06-04T16:34:25Z</time>
      </trkpt>
      <trkpt lat="49.10728" lon="-1.32629">
        <ele>97.00504</ele>
        <time>2015-06-04T16:34:30Z</time>
      </trkpt>
      <trkpt lat="49.10725" lon="-1.32637">
        <ele>97.00504</ele>
        <time>2015-06-04T16:34:35Z</time>
      </trkpt>
      <trkpt lat="49.10721" lon="-1.32645">
        <ele>96.964966</ele>
        <time>2015-06-04T16:34:40Z</time>
      </trkpt>
      <trkpt lat="49.10719" lon="-1.32649">
        <ele>96.964966</ele>
        <time>2015-06-04T16:34:45Z</time>
      </trkpt>
      <trkpt lat="49.10714" lon="-1.32656">
        <ele>96.96676</ele>
        <time>2015-06-04T16:34:50Z</time>
      </trkpt>
      <trkpt lat="49.10711" lon="-1.32664">
        <ele>96.96676</ele>
        <time>2015-06-04T16:34:55Z</time>
      </trkpt>
      <trkpt lat="49.10708" lon="-1.3267">
        <ele>97.00712</ele>
        <time>2015-06-04T16:35:00Z</time>
      </trkpt>
      <trkpt lat="49.10704" lon="-1.32677">
        <ele>97.00712</ele>
        <time>2015-06-04T16:35:05Z</time>
      </trkpt>
      <trkpt lat="49.107" lon="-1.32683">
        <ele>97.08284</ele>
        <time>2015-06-04T16:35:10Z</time>
      </trkpt>
      <trkpt lat="49.10695" lon="-1.3269">
        <ele>97.08284</ele>
        <time>2015-06-04T16:35:15Z</time>
      </trkpt>
      <trkpt lat="49.10693" lon="-1.32693">
        <ele>97.13322</ele>
        <time>2015-06-04T16:35:20Z</time>
      </trkpt>
      <trkpt lat="49.10693" lon="-1.32691">
        <ele>97.13322</ele>
        <time>2015-06-04T16:35:25Z</time>
      </trkpt>
      <trkpt lat="49.10692" lon="-1.32693">
        <ele>97.13322</ele>
        <time>2015-06-04T16:35:30Z</time>
      </trkpt>
      <trkpt lat="49.10692" lon="-1.32694">
        <ele>97.13322</ele>
        <time>2015-06-04T16:35:35Z</time>
      </trkpt>
      <trkpt lat="49.10689" lon="-1.327">
        <ele>97.21734</ele>
        <time>2015-06-04T16:35:40Z</time>
      </trkpt>
      <trkpt lat="49.10686" lon="-1.32703">
        <ele>97.21734</ele>
        <time>2015-06-04T16:35:45Z</time>
      </trkpt>
      <trkpt lat="49.10683" lon="-1.3271">
        <ele>97.21734</ele>
        <time>2015-06-04T16:35:50Z</time>
      </trkpt>
      <trkpt lat="49.10678" lon="-1.32714">
        <ele>97.40428</ele>
        <time>2015-06-04T16:35:55Z</time>
      </trkpt>
      <trkpt lat="49.10673" lon="-1.3272">
        <ele>97.40428</ele>
        <time>2015-06-04T16:36:00Z</time>
      </trkpt>
      <trkpt lat="49.10668" lon="-1.32725">
        <ele>97.65687</ele>
        <time>2015-06-04T16:36:05Z</time>
      </trkpt>
      <trkpt lat="49.10663" lon="-1.32732">
        <ele>97.65687</ele>
        <time>2015-06-04T16:36:10Z</time>
      </trkpt>
      <trkpt lat="49.10658" lon="-1.32737">
        <ele>97.91165</ele>
        <time>2015-06-04T16:36:15Z</time>
      </trkpt>
      <trkpt lat="49.10653" lon="-1.32743">
        <ele>97.91165</ele>
        <time>2015-06-04T16:36:20Z</time>
      </trkpt>
      <trkpt lat="49.10649" lon="-1.32749">
        <ele>98.1963</ele>
        <time>2015-06-04T16:36:25Z</time>
      </trkpt>
      <trkpt lat="49.10645" lon="-1.32754">
        <ele>98.1963</ele>
        <time>2015-06-04T16:36:30Z</time>
      </trkpt>
      <trkpt lat="49.10641" lon="-1.32759">
        <ele>98.507545</ele>
        <time>2015-06-04T16:36:35Z</time>
      </trkpt>
      <trkpt lat="49.10636" lon="-1.32764">
        <ele>98.507545</ele>
        <time>2015-06-04T16:36:40Z</time>
      </trkpt>
      <trkpt lat="49.10632" lon="-1.32769">
        <ele>98.827896</ele>
        <time>2015-06-04T16:36:45Z</time>
      </trkpt>
      <trkpt lat="49.10625" lon="-1.32775">
        <ele>98.827896</ele>
        <time>2015-06-04T16:36:50Z</time>
      </trkpt>
      <trkpt lat="49.10621" lon="-1.32779">
        <ele>99.227585</ele>
        <time>2015-06-04T16:36:55Z</time>
      </trkpt>
      <trkpt lat="49.10617" lon="-1.32786">
        <ele>99.227585</ele>
        <time>2015-06-04T16:37:00Z</time>
      </trkpt>
      <trkpt lat="49.10613" lon="-1.32793">
        <ele>99.72826</ele>
        <time>2015-06-04T16:37:05Z</time>
      </trkpt>
      <trkpt lat="49.10609" lon="-1.32798">
        <ele>99.72826</ele>
        <time>2015-06-04T16:37:10Z</time>
      </trkpt>
      <trkpt lat="49.10605" lon="-1.32804">
        <ele>100.30645</ele>
        <time>2015-06-04T16:37:15Z</time>
      </trkpt>
      <trkpt lat="49.10602" lon="-1.3281">
        <ele>100.30645</ele>
        <time>2015-06-04T16:37:20Z</time>
      </trkpt>
      <trkpt lat="49.10598" lon="-1.32816">
        <ele>100.925835</ele>
        <time>2015-06-04T16:37:25Z</time>
      </trkpt>
      <trkpt lat="49.10595" lon="-1.32824">
        <ele>100.925835</ele>
        <time>2015-06-04T16:37:30Z</time>
      </trkpt>
      <trkpt lat="49.10592" lon="-1.32833">
        <ele>101.58146</ele>
        <time>2015-06-04T16:37:35Z</time>
      </trkpt>
      <trkpt lat="49.10591" lon="-1.3284">
        <ele>101.58146</ele>
        <time>2015-06-04T16:37:40Z</time>
      </trkpt>
      <trkpt lat="49.10588" lon="-1.32847">
        <ele>102.268684</ele>
        <time>2015-06-04T16:37:45Z</time>
      </trkpt>
      <trkpt lat="49.10586" lon="-1.32855">
        <ele>102.268684</ele>
        <time>2015-06-04T16:37:50Z</time>
      </trkpt>
      <trkpt lat="49.10583" lon="-1.32864">
        <ele>103.06961</ele>
        <time>2015-06-04T16:37:55Z</time>
      </trkpt>
      <trkpt lat="49.1058" lon="-1.32871">
        <ele>103.06961</ele>
        <time>2015-06-04T16:38:00Z</time>
      </trkpt>
      <trkpt lat="49.10576" lon="-1.32877">
        <ele>103.959145</ele>
        <time>2015-06-04T16:38:05Z</time>
      </trkpt>
      <trkpt lat="49.10572" lon="-1.32882">
        <ele>103.959145</ele>
        <time>2015-06-04T16:38:10Z</time>
      </trkpt>
      <trkpt lat="49.10569" lon="-1.32887">
        <ele>104.89942</ele>
        <time>2015-06-04T16:38:15Z</time>
      </trkpt>
      <trkpt lat="49.10566" lon="-1.32896">
        <ele>104.89942</ele>
        <time>2015-06-04T16:38:20Z</time>
      </trkpt>
      <trkpt lat="49.10562" lon="-1.329">
        <ele>105.88409</ele>
        <time>2015-06-04T16:38:25Z</time>
      </trkpt>
      <trkpt lat="49.10559" lon="-1.32905">
        <ele>105.88409</ele>
        <time>2015-06-04T16:38:30Z</time>
      </trkpt>
      <trkpt lat="49.10555" lon="-1.32909">
        <ele>106.92158</ele>
        <time>2015-06-04T16:38:35Z</time>
      </trkpt>
      <trkpt lat="49.1055" lon="-1.32918">
        <ele>106.92158</ele>
        <time>2015-06-04T16:38:40Z</time>
      </trkpt>
      <trkpt lat="49.10547" lon="-1.32923">
        <ele>107.976395</ele>
        <time>2015-06-04T16:38:45Z</time>
      </trkpt>
      <trkpt lat="49.10543" lon="-1.32931">
        <ele>107.976395</ele>
        <time>2015-06-04T16:38:50Z</time>
      </trkpt>
      <trkpt lat="49.10539" lon="-1.32938">
        <ele>109.130936</ele>
        <time>2015-06-04T16:38:55Z</time>
      </trkpt>
      <trkpt lat="49.10536" lon="-1.32947">
        <ele>109.130936</ele>
        <time>2015-06-04T16:39:00Z</time>
      </trkpt>
      <trkpt lat="49.10531" lon="-1.32954">
        <ele>110.331635</ele>
        <time>2015-06-04T16:39:05Z</time>
      </trkpt>
      <trkpt lat="49.10529" lon="-1.32959">
        <ele>110.331635</ele>
        <time>2015-06-04T16:39:10Z</time>
      </trkpt>
      <trkpt lat="49.10526" lon="-1.32964">
        <ele>110.331635</ele>
        <time>2015-06-04T16:39:15Z</time>
      </trkpt>
      <trkpt lat="49.10524" lon="-1.32968">
        <ele>111.58643</ele>
        <time>2015-06-04T16:39:20Z</time>
      </trkpt>
      <trkpt lat="49.10519" lon="-1.32974">
        <ele>111.58643</ele>
        <time>2015-06-04T16:39:25Z</time>
      </trkpt>
      <trkpt lat="49.10516" lon="-1.32985">
        <ele>112.801735</ele>
        <time>2015-06-04T16:39:30Z</time>
      </trkpt>
      <trkpt lat="49.10516" lon="-1.32991">
        <ele>112.801735</ele>
        <time>2015-06-04T16:39:35Z</time>
      </trkpt>
      <trkpt lat="49.10517" lon="-1.32995">
        <ele>112.801735</ele>
        <time>2015-06-04T16:39:40Z</time>
      </trkpt>
      <trkpt lat="49.1052" lon="-1.33001">
        <ele>114.28012</ele>
        <time>2015-06-04T16:39:45Z</time>
      </trkpt>
      <trkpt lat="49.10523" lon="-1.33007">
        <ele>114.28012</ele>
        <time>2015-06-04T16:39:50Z</time>
      </trkpt>
      <trkpt lat="49.10525" lon="-1.33015">
        <ele>115.79687</ele>
        <time>2015-06-04T16:39:55Z</time>
      </trkpt>
      <trkpt lat="49.10527" lon="-1.3302">
        <ele>115.79687</ele>
        <time>2015-06-04T16:40:00Z</time>
      </trkpt>
      <trkpt lat="49.1053" lon="-1.33028">
        <ele>117.25904</ele>
        <time>2015-06-04T16:40:05Z</time>
      </trkpt>
      <trkpt lat="49.10532" lon="-1.33035">
        <ele>117.25904</ele>
        <time>2015-06-04T16:40:10Z</time>
      </trkpt>
      <trkpt lat="49.10533" lon="-1.33044">
        <ele>118.71047</ele>
        <time>2015-06-04T16:40:15Z</time>
      </trkpt>
      <trkpt lat="49.10537" lon="-1.33057">
        <ele>120.10543</ele>
        <time>2015-06-04T16:40:20Z</time>
      </trkpt>
      <trkpt lat="49.10538" lon="-1.33065">
        <ele>120.10543</ele>
        <time>2015-06-04T16:40:25Z</time>
      </trkpt>
      <trkpt lat="49.10539" lon="-1.33071">
        <ele>121.35855</ele>
        <time>2015-06-04T16:40:30Z</time>
      </trkpt>
      <trkpt lat="49.10541" lon="-1.33079">
        <ele>121.35855</ele>
        <time>2015-06-04T16:40:35Z</time>
      </trkpt>
      <trkpt lat="49.10545" lon="-1.33087">
        <ele>122.549774</ele>
        <time>2015-06-04T16:40:40Z</time>
      </trkpt>
      <trkpt lat="49.10548" lon="-1.33096">
        <ele>122.549774</ele>
        <time>2015-06-04T16:40:45Z</time>
      </trkpt>
      <trkpt lat="49.10552" lon="-1.33104">
        <ele>123.594894</ele>
        <time>2015-06-04T16:40:50Z</time>
      </trkpt>
      <trkpt lat="49.10555" lon="-1.3311">
        <ele>123.594894</ele>
        <time>2015-06-04T16:40:55Z</time>
      </trkpt>
      <trkpt lat="49.10558" lon="-1.33118">
        <ele>124.44524</ele>
        <time>2015-06-04T16:41:00Z</time>
      </trkpt>
      <trkpt lat="49.10563" lon="-1.33129">
        <ele>124.44524</ele>
        <time>2015-06-04T16:41:05Z</time>
      </trkpt>
      <trkpt lat="49.10564" lon="-1.33137">
        <ele>125.12838</ele>
        <time>2015-06-04T16:41:10Z</time>
      </trkpt>
      <trkpt lat="49.10565" lon="-1.33145">
        <ele>125.12838</ele>
        <time>2015-06-04T16:41:15Z</time>
      </trkpt>
      <trkpt lat="49.10568" lon="-1.33154">
        <ele>125.641624</ele>
        <time>2015-06-04T16:41:20Z</time>
      </trkpt>
      <trkpt lat="49.1057" lon="-1.33159">
        <ele>125.641624</ele>
        <time>2015-06-04T16:41:25Z</time>
      </trkpt>
      <trkpt lat="49.10574" lon="-1.3317">
        <ele>126.02626</ele>
        <time>2015-06-04T16:41:30Z</time>
      </trkpt>
      <trkpt lat="49.10574" lon="-1.33182">
        <ele>126.02626</ele>
        <time>2015-06-04T16:41:35Z</time>
      </trkpt>
      <trkpt lat="49.10574" lon="-1.33189">
        <ele>126.220116</ele>
        <time>2015-06-04T16:41:40Z</time>
      </trkpt>
      <trkpt lat="49.10575" lon="-1.33197">
        <ele>126.220116</ele>
        <time>2015-06-04T16:41:45Z</time>
      </trkpt>
      <trkpt lat="49.10577" lon="-1.33206">
        <ele>126.267044</ele>
        <time>2015-06-04T16:41:50Z</time>
      </trkpt>
      <trkpt lat="49.10577" lon="-1.33216">
        <ele>126.267044</ele>
        <time>2015-06-04T16:41:55Z</time>
      </trkpt>
      <trkpt lat="49.1058" lon="-1.33225">
        <ele>126.25141</ele>
        <time>2015-06-04T16:42:00Z</time>
      </trkpt>
      <trkpt lat="49.10581" lon="-1.33233">
        <ele>126.25141</ele>
        <time>2015-06-04T16:42:05Z</time>
      </trkpt>
      <trkpt lat="49.10581" lon="-1.33241">
        <ele>126.15072</ele>
        <time>2015-06-04T16:42:10Z</time>
      </trkpt>
      <trkpt lat="49.10581" lon="-1.33252">
        <ele>126.15072</ele>
        <time>2015-06-04T16:42:15Z</time>
      </trkpt>
      <trkpt lat="49.10581" lon="-1.3326">
        <ele>125.87235</ele>
        <time>2015-06-04T16:42:20Z</time>
      </trkpt>
      <trkpt lat="49.1058" lon="-1.33268">
        <ele>125.87235</ele>
        <time>2015-06-04T16:42:25Z</time>
      </trkpt>
      <trkpt lat="49.10578" lon="-1.33273">
        <ele>125.316635</ele>
        <time>2015-06-04T16:42:30Z</time>
      </trkpt>
      <trkpt lat="49.10574" lon="-1.3328">
        <ele>125.316635</ele>
        <time>2015-06-04T16:42:35Z</time>
      </trkpt>
      <trkpt lat="49.10571" lon="-1.33287">
        <ele>124.76669</ele>
        <time>2015-06-04T16:42:40Z</time>
      </trkpt>
      <trkpt lat="49.10568" lon="-1.33295">
        <ele>124.76669</ele>
        <time>2015-06-04T16:42:45Z</time>
      </trkpt>
      <trkpt lat="49.10567" lon="-1.33299">
        <ele>124.21102</ele>
        <time>2015-06-04T16:42:50Z</time>
      </trkpt>
      <trkpt lat="49.10567" lon="-1.33301">
        <ele>124.21102</ele>
        <time>2015-06-04T16:42:55Z</time>
      </trkpt>
      <trkpt lat="49.10567" lon="-1.33301">
        <ele>124.21102</ele>
        <time>2015-06-04T16:43:00Z</time>
      </trkpt>
      <trkpt lat="49.10567" lon="-1.33302">
        <ele>124.21102</ele>
        <time>2015-06-04T16:43:05Z</time>
      </trkpt>
      <trkpt lat="49.10568" lon="-1.33304">
        <ele>124.21102</ele>
        <time>2015-06-04T16:43:10Z</time>
      </trkpt>
      <trkpt lat="49.10568" lon="-1.33304">
        <ele>124.21102</ele>
        <time>2015-06-04T16:43:15Z</time>
      </trkpt>
      <trkpt lat="49.10568" lon="-1.33303">
        <ele>124.21102</ele>
        <time>2015-06-04T16:43:20Z</time>
      </trkpt>
      <trkpt lat="49.10568" lon="-1.33308">
        <ele>124.21102</ele>
        <time>2015-06-04T16:43:25Z</time>
      </trkpt>
      <trkpt lat="49.10569" lon="-1.33314">
        <ele>123.46608</ele>
        <time>2015-06-04T16:43:30Z</time>
      </trkpt>
      <trkpt lat="49.1057" lon="-1.3332">
        <ele>123.46608</ele>
        <time>2015-06-04T16:43:35Z</time>
      </trkpt>
      <trkpt lat="49.10575" lon="-1.33328">
        <ele>122.621704</ele>
        <time>2015-06-04T16:43:40Z</time>
      </trkpt>
      <trkpt lat="49.10578" lon="-1.33332">
        <ele>122.621704</ele>
        <time>2015-06-04T16:43:45Z</time>
      </trkpt>
      <trkpt lat="49.10582" lon="-1.33342">
        <ele>121.74699</ele>
        <time>2015-06-04T16:43:50Z</time>
      </trkpt>
      <trkpt lat="49.10585" lon="-1.3335">
        <ele>121.74699</ele>
        <time>2015-06-04T16:43:55Z</time>
      </trkpt>
      <trkpt lat="49.10585" lon="-1.33355">
        <ele>120.80514</ele>
        <time>2015-06-04T16:44:00Z</time>
      </trkpt>
      <trkpt lat="49.10586" lon="-1.33359">
        <ele>120.80514</ele>
        <time>2015-06-04T16:44:05Z</time>
      </trkpt>
      <trkpt lat="49.10586" lon="-1.33366">
        <ele>120.80514</ele>
        <time>2015-06-04T16:44:10Z</time>
      </trkpt>
      <trkpt lat="49.10585" lon="-1.33373">
        <ele>119.819824</ele>
        <time>2015-06-04T16:44:15Z</time>
      </trkpt>
      <trkpt lat="49.10586" lon="-1.33379">
        <ele>119.819824</ele>
        <time>2015-06-04T16:44:20Z</time>
      </trkpt>
      <trkpt lat="49.10587" lon="-1.33384">
        <ele>119.819824</ele>
        <time>2015-06-04T16:44:25Z</time>
      </trkpt>
      <trkpt lat="49.10588" lon="-1.33386">
        <ele>118.928375</ele>
        <time>2015-06-04T16:44:30Z</time>
      </trkpt>
      <trkpt lat="49.10589" lon="-1.33391">
        <ele>118.928375</ele>
        <time>2015-06-04T16:44:35Z</time>
      </trkpt>
      <trkpt lat="49.1059" lon="-1.33398">
        <ele>118.928375</ele>
        <time>2015-06-04T16:44:40Z</time>
      </trkpt>
      <trkpt lat="49.10593" lon="-1.33403">
        <ele>117.96946</ele>
        <time>2015-06-04T16:44:45Z</time>
      </trkpt>
      <trkpt lat="49.10594" lon="-1.33406">
        <ele>117.96946</ele>
        <time>2015-06-04T16:44:50Z</time>
      </trkpt>
      <trkpt lat="49.10595" lon="-1.33409">
        <ele>117.96946</ele>
        <time>2015-06-04T16:44:55Z</time>
      </trkpt>
      <trkpt lat="49.10597" lon="-1.33415">
        <ele>117.96946</ele>
        <time>2015-06-04T16:45:00Z</time>
      </trkpt>
      <trkpt lat="49.10597" lon="-1.33421">
        <ele>117.11076</ele>
        <time>2015-06-04T16:45:05Z</time>
      </trkpt>
      <trkpt lat="49.10595" lon="-1.33428">
        <ele>117.11076</ele>
        <time>2015-06-04T16:45:10Z</time>
      </trkpt>
      <trkpt lat="49.10596" lon="-1.33433">
        <ele>116.16145</ele>
        <time>2015-06-04T16:45:15Z</time>
      </trkpt>
      <trkpt lat="49.10598" lon="-1.33438">
        <ele>116.16145</ele>
        <time>2015-06-04T16:45:20Z</time>
      </trkpt>
      <trkpt lat="49.106" lon="-1.33442">
        <ele>116.16145</ele>
        <time>2015-06-04T16:45:25Z</time>
      </trkpt>
      <trkpt lat="49.10602" lon="-1.33448">
        <ele>115.031334</ele>
        <time>2015-06-04T16:45:30Z</time>
      </trkpt>
      <trkpt lat="49.10605" lon="-1.33452">
        <ele>115.031334</ele>
        <time>2015-06-04T16:45:35Z</time>
      </trkpt>
      <trkpt lat="49.10607" lon="-1.33459">
        <ele>115.031334</ele>
        <time>2015-06-04T16:45:40Z</time>
      </trkpt>
      <trkpt lat="49.10608" lon="-1.33465">
        <ele>113.911064</ele>
        <time>2015-06-04T16:45:45Z</time>
      </trkpt>
      <trkpt lat="49.1061" lon="-1.33471">
        <ele>113.911064</ele>
        <time>2015-06-04T16:45:50Z</time>
      </trkpt>
      <trkpt lat="49.10612" lon="-1.33479">
        <ele>112.91954</ele>
        <time>2015-06-04T16:45:55Z</time>
      </trkpt>
      <trkpt lat="49.10614" lon="-1.33486">
        <ele>112.91954</ele>
        <time>2015-06-04T16:46:00Z</time>
      </trkpt>
      <trkpt lat="49.10615" lon="-1.33489">
        <ele>112.91954</ele>
        <time>2015-06-04T16:46:05Z</time>
      </trkpt>
      <trkpt lat="49.10616" lon="-1.33493">
        <ele>111.92147</ele>
        <time>2015-06-04T16:46:10Z</time>
      </trkpt>
      <trkpt lat="49.10618" lon="-1.33497">
        <ele>111.92147</ele>
        <time>2015-06-04T16:46:15Z</time>
      </trkpt>
      <trkpt lat="49.10619" lon="-1.33502">
        <ele>111.92147</ele>
        <time>2015-06-04T16:46:20Z</time>
      </trkpt>
      <trkpt lat="49.1062" lon="-1.33509">
        <ele>110.86347</ele>
        <time>2015-06-04T16:46:25Z</time>
      </trkpt>
      <trkpt lat="49.10621" lon="-1.33518">
        <ele>110.86347</ele>
        <time>2015-06-04T16:46:30Z</time>
      </trkpt>
      <trkpt lat="49.10623" lon="-1.33524">
        <ele>109.85467</ele>
        <time>2015-06-04T16:46:35Z</time>
      </trkpt>
      <trkpt lat="49.10625" lon="-1.33529">
        <ele>109.85467</ele>
        <time>2015-06-04T16:46:40Z</time>
      </trkpt>
      <trkpt lat="49.10628" lon="-1.33536">
        <ele>108.88063</ele>
        <time>2015-06-04T16:46:45Z</time>
      </trkpt>
      <trkpt lat="49.10633" lon="-1.33544">
        <ele>108.88063</ele>
        <time>2015-06-04T16:46:50Z</time>
      </trkpt>
      <trkpt lat="49.10637" lon="-1.33552">
        <ele>107.92776</ele>
        <time>2015-06-04T16:46:55Z</time>
      </trkpt>
      <trkpt lat="49.10639" lon="-1.33559">
        <ele>107.92776</ele>
        <time>2015-06-04T16:47:00Z</time>
      </trkpt>
      <trkpt lat="49.1064" lon="-1.33567">
        <ele>106.98331</ele>
        <time>2015-06-04T16:47:05Z</time>
      </trkpt>
      <trkpt lat="49.1064" lon="-1.3357">
        <ele>106.98331</ele>
        <time>2015-06-04T16:47:10Z</time>
      </trkpt>
      <trkpt lat="49.10641" lon="-1.33578">
        <ele>106.98331</ele>
        <time>2015-06-04T16:47:15Z</time>
      </trkpt>
      <trkpt lat="49.10641" lon="-1.33587">
        <ele>105.83356</ele>
        <time>2015-06-04T16:47:20Z</time>
      </trkpt>
      <trkpt lat="49.10641" lon="-1.33594">
        <ele>105.83356</ele>
        <time>2015-06-04T16:47:25Z</time>
      </trkpt>
      <trkpt lat="49.10641" lon="-1.33599">
        <ele>105.83356</ele>
        <time>2015-06-04T16:47:30Z</time>
      </trkpt>
      <trkpt lat="49.10642" lon="-1.33604">
        <ele>104.58357</ele>
        <time>2015-06-04T16:47:35Z</time>
      </trkpt>
      <trkpt lat="49.1064" lon="-1.33612">
        <ele>104.58357</ele>
        <time>2015-06-04T16:47:40Z</time>
      </trkpt>
      <trkpt lat="49.10642" lon="-1.33617">
        <ele>103.37411</ele>
        <time>2015-06-04T16:47:45Z</time>
      </trkpt>
      <trkpt lat="49.10642" lon="-1.33622">
        <ele>103.37411</ele>
        <time>2015-06-04T16:47:50Z</time>
      </trkpt>
      <trkpt lat="49.10642" lon="-1.33626">
        <ele>103.37411</ele>
        <time>2015-06-04T16:47:55Z</time>
      </trkpt>
      <trkpt lat="49.10644" lon="-1.33633">
        <ele>102.19123</ele>
        <time>2015-06-04T16:48:00Z</time>
      </trkpt>
      <trkpt lat="49.10649" lon="-1.3364">
        <ele>102.19123</ele>
        <time>2015-06-04T16:48:05Z</time>
      </trkpt>
      <trkpt lat="49.10651" lon="-1.33645">
        <ele>101.06507</ele>
        <time>2015-06-04T16:48:10Z</time>
      </trkpt>
      <trkpt lat="49.10653" lon="-1.33651">
        <ele>101.06507</ele>
        <time>2015-06-04T16:48:15Z</time>
      </trkpt>
      <trkpt lat="49.10654" lon="-1.33657">
        <ele>101.06507</ele>
        <time>2015-06-04T16:48:20Z</time>
      </trkpt>
      <trkpt lat="49.10655" lon="-1.33668">
        <ele>99.93679</ele>
        <time>2015-06-04T16:48:25Z</time>
      </trkpt>
      <trkpt lat="49.10657" lon="-1.33675">
        <ele>99.93679</ele>
        <time>2015-06-04T16:48:30Z</time>
      </trkpt>
      <trkpt lat="49.10657" lon="-1.3368">
        <ele>99.93679</ele>
        <time>2015-06-04T16:48:35Z</time>
      </trkpt>
      <trkpt lat="49.10658" lon="-1.33681">
        <ele>98.82381</ele>
        <time>2015-06-04T16:48:40Z</time>
      </trkpt>
      <trkpt lat="49.1066" lon="-1.33681">
        <ele>98.82381</ele>
        <time>2015-06-04T16:48:45Z</time>
      </trkpt>
      <trkpt lat="49.10663" lon="-1.33682">
        <ele>98.82381</ele>
        <time>2015-06-04T16:48:50Z</time>
      </trkpt>
      <trkpt lat="49.10664" lon="-1.33685">
        <ele>98.82381</ele>
        <time>2015-06-04T16:48:55Z</time>
      </trkpt>
      <trkpt lat="49.10664" lon="-1.33685">
        <ele>98.82381</ele>
        <time>2015-06-04T16:49:00Z</time>
      </trkpt>
      <trkpt lat="49.10663" lon="-1.33684">
        <ele>98.82381</ele>
        <time>2015-06-04T16:49:05Z</time>
      </trkpt>
      <trkpt lat="49.10663" lon="-1.33684">
        <ele>98.82381</ele>
        <time>2015-06-04T16:49:10Z</time>
      </trkpt>
      <trkpt lat="49.10662" lon="-1.33683">
        <ele>98.82381</ele>
        <time>2015-06-04T16:49:15Z</time>
      </trkpt>
      <trkpt lat="49.10661" lon="-1.33683">
        <ele>97.51154</ele>
        <time>2015-06-04T16:49:20Z</time>
      </trkpt>
      <trkpt lat="49.1066" lon="-1.33682">
        <ele>97.51154</ele>
        <time>2015-06-04T16:49:25Z</time>
      </trkpt>
      <trkpt lat="49.1066" lon="-1.3368">
        <ele>97.51154</ele>
        <time>2015-06-04T16:49:30Z</time>
      </trkpt>
      <trkpt lat="49.10659" lon="-1.33681">
        <ele>97.51154</ele>
        <time>2015-06-04T16:49:35Z</time>
      </trkpt>
      <trkpt lat="49.1066" lon="-1.33681">
        <ele>97.51154</ele>
        <time>2015-06-04T16:49:40Z</time>
      </trkpt>
      <trkpt lat="49.10661" lon="-1.33681">
        <ele>97.51154</ele>
        <time>2015-06-04T16:49:45Z</time>
      </trkpt>
      <trkpt lat="49.10661" lon="-1.3368">
        <ele>97.51154</ele>
        <time>2015-06-04T16:49:50Z</time>
      </trkpt>
      <trkpt lat="49.1066" lon="-1.33682">
        <ele>97.51154</ele>
        <time>2015-06-04T16:49:55Z</time>
      </trkpt>
      <trkpt lat="49.1066" lon="-1.33682">
        <ele>97.51154</ele>
        <time>2015-06-04T16:50:00Z</time>
      </trkpt>
      <trkpt lat="49.10659" lon="-1.33678">
        <ele>96.26275</ele>
        <time>2015-06-04T16:50:05Z</time>
      </trkpt>
      <trkpt lat="49.1066" lon="-1.33676">
        <ele>96.26275</ele>
        <time>2015-06-04T16:50:10Z</time>
      </trkpt>
      <trkpt lat="49.1066" lon="-1.33675">
        <ele>96.26275</ele>
        <time>2015-06-04T16:50:15Z</time>
      </trkpt>
      <trkpt lat="49.1066" lon="-1.33677">
        <ele>96.26275</ele>
        <time>2015-06-04T16:50:20Z</time>
      </trkpt>
      <trkpt lat="49.10661" lon="-1.33681">
        <ele>96.26275</ele>
        <time>2015-06-04T16:50:25Z</time>
      </trkpt>
      <trkpt lat="49.10661" lon="-1.33681">
        <ele>96.26275</ele>
        <time>2015-06-04T16:50:30Z</time>
      </trkpt>
      <trkpt lat="49.10662" lon="-1.33678">
        <ele>96.26275</ele>
        <time>2015-06-04T16:50:35Z</time>
      </trkpt>
      <trkpt lat="49.10661" lon="-1.33679">
        <ele>96.26275</ele>
        <time>2015-06-04T16:50:40Z</time>
      </trkpt>
      <trkpt lat="49.10661" lon="-1.33679">
        <ele>96.26275</ele>
        <time>2015-06-04T16:50:45Z</time>
      </trkpt>
      <trkpt lat="49.1066" lon="-1.33677">
        <ele>95.07561</ele>
        <time>2015-06-04T16:50:50Z</time>
      </trkpt>
      <trkpt lat="49.1066" lon="-1.33679">
        <ele>95.07561</ele>
        <time>2015-06-04T16:50:55Z</time>
      </trkpt>
      <trkpt lat="49.1066" lon="-1.33679">
        <ele>95.07561</ele>
        <time>2015-06-04T16:51:00Z</time>
      </trkpt>
      <trkpt lat="49.10661" lon="-1.33678">
        <ele>95.07561</ele>
        <time>2015-06-04T16:51:05Z</time>
      </trkpt>
      <trkpt lat="49.10661" lon="-1.33681">
        <ele>95.07561</ele>
        <time>2015-06-04T16:51:10Z</time>
      </trkpt>
      <trkpt lat="49.10661" lon="-1.33681">
        <ele>95.07561</ele>
        <time>2015-06-04T16:51:15Z</time>
      </trkpt>
      <trkpt lat="49.10661" lon="-1.33683">
        <ele>95.07561</ele>
        <time>2015-06-04T16:51:20Z</time>
      </trkpt>
      <trkpt lat="49.10662" lon="-1.33683">
        <ele>95.07561</ele>
        <time>2015-06-04T16:51:25Z</time>
      </trkpt>
      <trkpt lat="49.10661" lon="-1.33681">
        <ele>95.07561</ele>
        <time>2015-06-04T16:51:30Z</time>
      </trkpt>
      <trkpt lat="49.10661" lon="-1.33681">
        <ele>95.07561</ele>
        <time>2015-06-04T16:51:35Z</time>
      </trkpt>
      <trkpt lat="49.10661" lon="-1.33681">
        <ele>95.07561</ele>
        <time>2015-06-04T16:51:40Z</time>
      </trkpt>
      <trkpt lat="49.10659" lon="-1.33677">
        <ele>93.89047</ele>
        <time>2015-06-04T16:51:45Z</time>
      </trkpt>
      <trkpt lat="49.10658" lon="-1.33676">
        <ele>93.89047</ele>
        <time>2015-06-04T16:51:50Z</time>
      </trkpt>
      <trkpt lat="49.10659" lon="-1.33677">
        <ele>93.89047</ele>
        <time>2015-06-04T16:51:55Z</time>
      </trkpt>
      <trkpt lat="49.1066" lon="-1.33679">
        <ele>93.89047</ele>
        <time>2015-06-04T16:52:00Z</time>
      </trkpt>
      <trkpt lat="49.1066" lon="-1.33678">
        <ele>93.89047</ele>
        <time>2015-06-04T16:52:05Z</time>
      </trkpt>
      <trkpt lat="49.1066" lon="-1.33679">
        <ele>93.89047</ele>
        <time>2015-06-04T16:52:10Z</time>
      </trkpt>
      <trkpt lat="49.1066" lon="-1.33678">
        <ele>93.89047</ele>
        <time>2015-06-04T16:52:15Z</time>
      </trkpt>
      <trkpt lat="49.10662" lon="-1.33678">
        <ele>93.89047</ele>
        <time>2015-06-04T16:52:20Z</time>
      </trkpt>
      <trkpt lat="49.10663" lon="-1.33678">
        <ele>93.89047</ele>
        <time>2015-06-04T16:52:25Z</time>
      </trkpt>
      <trkpt lat="49.10664" lon="-1.33679">
        <ele>93.89047</ele>
        <time>2015-06-04T16:52:30Z</time>
      </trkpt>
      <trkpt lat="49.10663" lon="-1.33677">
        <ele>92.853745</ele>
        <time>2015-06-04T16:52:35Z</time>
      </trkpt>
      <trkpt lat="49.10663" lon="-1.33678">
        <ele>92.853745</ele>
        <time>2015-06-04T16:52:40Z</time>
      </trkpt>
      <trkpt lat="49.10663" lon="-1.33676">
        <ele>92.853745</ele>
        <time>2015-06-04T16:52:45Z</time>
      </trkpt>
      <trkpt lat="49.10662" lon="-1.33679">
        <ele>92.853745</ele>
        <time>2015-06-04T16:52:50Z</time>
      </trkpt>
      <trkpt lat="49.10661" lon="-1.3368">
        <ele>92.853745</ele>
        <time>2015-06-04T16:52:55Z</time>
      </trkpt>
      <trkpt lat="49.1066" lon="-1.33681">
        <ele>92.853745</ele>
        <time>2015-06-04T16:53:00Z</time>
      </trkpt>
      <trkpt lat="49.1066" lon="-1.33682">
        <ele>92.853745</ele>
        <time>2015-06-04T16:53:05Z</time>
      </trkpt>
      <trkpt lat="49.1066" lon="-1.3368">
        <ele>91.97082</ele>
        <time>2015-06-04T16:53:10Z</time>
      </trkpt>
      <trkpt lat="49.1066" lon="-1.3368">
        <ele>91.97082</ele>
        <time>2015-06-04T16:53:15Z</time>
      </trkpt>
      <trkpt lat="49.10661" lon="-1.33681">
        <ele>91.97082</ele>
        <time>2015-06-04T16:53:20Z</time>
      </trkpt>
      <trkpt lat="49.10661" lon="-1.33681">
        <ele>91.97082</ele>
        <time>2015-06-04T16:53:25Z</time>
      </trkpt>
      <trkpt lat="49.10662" lon="-1.3368">
        <ele>91.97082</ele>
        <time>2015-06-04T16:53:30Z</time>
      </trkpt>
      <trkpt lat="49.10662" lon="-1.33679">
        <ele>91.97082</ele>
        <time>2015-06-04T16:53:35Z</time>
      </trkpt>
      <trkpt lat="49.10662" lon="-1.3368">
        <ele>91.97082</ele>
        <time>2015-06-04T16:53:40Z</time>
      </trkpt>
      <trkpt lat="49.10661" lon="-1.3368">
        <ele>91.97082</ele>
        <time>2015-06-04T16:53:45Z</time>
      </trkpt>
      <trkpt lat="49.10662" lon="-1.33684">
        <ele>91.97082</ele>
        <time>2015-06-04T16:53:50Z</time>
      </trkpt>
      <trkpt lat="49.10663" lon="-1.33686">
        <ele>91.97082</ele>
        <time>2015-06-04T16:53:55Z</time>
      </trkpt>
      <trkpt lat="49.10661" lon="-1.33685">
        <ele>91.347015</ele>
        <time>2015-06-04T16:54:00Z</time>
      </trkpt>
      <trkpt lat="49.10661" lon="-1.33685">
        <ele>91.347015</ele>
        <time>2015-06-04T16:54:05Z</time>
      </trkpt>
      <trkpt lat="49.10662" lon="-1.33685">
        <ele>91.347015</ele>
        <time>2015-06-04T16:54:10Z</time>
      </trkpt>
      <trkpt lat="49.10663" lon="-1.33683">
        <ele>91.347015</ele>
        <time>2015-06-04T16:54:15Z</time>
      </trkpt>
      <trkpt lat="49.10663" lon="-1.33681">
        <ele>91.347015</ele>
        <time>2015-06-04T16:54:20Z</time>
      </trkpt>
      <trkpt lat="49.10665" lon="-1.3368">
        <ele>91.347015</ele>
        <time>2015-06-04T16:54:25Z</time>
      </trkpt>
      <trkpt lat="49.10665" lon="-1.33681">
        <ele>91.347015</ele>
        <time>2015-06-04T16:54:30Z</time>
      </trkpt>
      <trkpt lat="49.10665" lon="-1.33683">
        <ele>90.81971</ele>
        <time>2015-06-04T16:54:35Z</time>
      </trkpt>
      <trkpt lat="49.10664" lon="-1.33679">
        <ele>90.81971</ele>
        <time>2015-06-04T16:54:40Z</time>
      </trkpt>
      <trkpt lat="49.10664" lon="-1.3368">
        <ele>90.81971</ele>
        <time>2015-06-04T16:54:45Z</time>
      </trkpt>
      <trkpt lat="49.10662" lon="-1.33681">
        <ele>90.81971</ele>
        <time>2015-06-04T16:54:50Z</time>
      </trkpt>
      <trkpt lat="49.10661" lon="-1.33682">
        <ele>90.81971</ele>
        <time>2015-06-04T16:54:55Z</time>
      </trkpt>
      <trkpt lat="49.10666" lon="-1.33682">
        <ele>90.281075</ele>
        <time>2015-06-04T16:55:00Z</time>
      </trkpt>
      <trkpt lat="49.10672" lon="-1.33683">
        <ele>90.281075</ele>
        <time>2015-06-04T16:55:05Z</time>
      </trkpt>
      <trkpt lat="49.1068" lon="-1.33681">
        <ele>89.80406</ele>
        <time>2015-06-04T16:55:10Z</time>
      </trkpt>
      <trkpt lat="49.10685" lon="-1.33681">
        <ele>89.80406</ele>
        <time>2015-06-04T16:55:15Z</time>
      </trkpt>
      <trkpt lat="49.10691" lon="-1.33684">
        <ele>89.383965</ele>
        <time>2015-06-04T16:55:20Z</time>
      </trkpt>
      <trkpt lat="49.10697" lon="-1.33683">
        <ele>89.383965</ele>
        <time>2015-06-04T16:55:25Z</time>
      </trkpt>
      <trkpt lat="49.10703" lon="-1.33683">
        <ele>89.03058</ele>
        <time>2015-06-04T16:55:30Z</time>
      </trkpt>
      <trkpt lat="49.10709" lon="-1.33683">
        <ele>89.03058</ele>
        <time>2015-06-04T16:55:35Z</time>
      </trkpt>
      <trkpt lat="49.10712" lon="-1.33685">
        <ele>89.03058</ele>
        <time>2015-06-04T16:55:40Z</time>
      </trkpt>
      <trkpt lat="49.10713" lon="-1.33686">
        <ele>88.73833</ele>
        <time>2015-06-04T16:55:45Z</time>
      </trkpt>
      <trkpt lat="49.10713" lon="-1.33683">
        <ele>88.73833</ele>
        <time>2015-06-04T16:55:50Z</time>
      </trkpt>
      <trkpt lat="49.10712" lon="-1.33681">
        <ele>88.73833</ele>
        <time>2015-06-04T16:55:55Z</time>
      </trkpt>
      <trkpt lat="49.10711" lon="-1.33682">
        <ele>88.73833</ele>
        <time>2015-06-04T16:56:00Z</time>
      </trkpt>
      <trkpt lat="49.1071" lon="-1.33684">
        <ele>88.73833</ele>
        <time>2015-06-04T16:56:05Z</time>
      </trkpt>
      <trkpt lat="49.10711" lon="-1.33686">
        <ele>88.73833</ele>
        <time>2015-06-04T16:56:10Z</time>
      </trkpt>
      <trkpt lat="49.10711" lon="-1.33686">
        <ele>88.73833</ele>
        <time>2015-06-04T16:56:15Z</time>
      </trkpt>
      <trkpt lat="49.10712" lon="-1.33685">
        <ele>88.73833</ele>
        <time>2015-06-04T16:56:20Z</time>
      </trkpt>
      <trkpt lat="49.10712" lon="-1.33686">
        <ele>88.73833</ele>
        <time>2015-06-04T16:56:25Z</time>
      </trkpt>
      <trkpt lat="49.10712" lon="-1.33687">
        <ele>88.17034</ele>
        <time>2015-06-04T16:56:30Z</time>
      </trkpt>
      <trkpt lat="49.10711" lon="-1.33688">
        <ele>88.17034</ele>
        <time>2015-06-04T16:56:35Z</time>
      </trkpt>
      <trkpt lat="49.1071" lon="-1.33689">
        <ele>88.17034</ele>
        <time>2015-06-04T16:56:40Z</time>
      </trkpt>
      <trkpt lat="49.1071" lon="-1.33687">
        <ele>88.17034</ele>
        <time>2015-06-04T16:56:45Z</time>
      </trkpt>
      <trkpt lat="49.1071" lon="-1.33685">
        <ele>88.17034</ele>
        <time>2015-06-04T16:56:50Z</time>
      </trkpt>
      <trkpt lat="49.10713" lon="-1.33687">
        <ele>88.17034</ele>
        <time>2015-06-04T16:56:55Z</time>
      </trkpt>
      <trkpt lat="49.10721" lon="-1.33691">
        <ele>87.49077</ele>
        <time>2015-06-04T16:57:00Z</time>
      </trkpt>
      <trkpt lat="49.10727" lon="-1.33694">
        <ele>87.49077</ele>
        <time>2015-06-04T16:57:05Z</time>
      </trkpt>
      <trkpt lat="49.10732" lon="-1.33698">
        <ele>86.8952</ele>
        <time>2015-06-04T16:57:10Z</time>
      </trkpt>
      <trkpt lat="49.1074" lon="-1.33703">
        <ele>86.8952</ele>
        <time>2015-06-04T16:57:15Z</time>
      </trkpt>
      <trkpt lat="49.10745" lon="-1.33705">
        <ele>86.377235</ele>
        <time>2015-06-04T16:57:20Z</time>
      </trkpt>
      <trkpt lat="49.1075" lon="-1.33709">
        <ele>86.377235</ele>
        <time>2015-06-04T16:57:25Z</time>
      </trkpt>
      <trkpt lat="49.10754" lon="-1.33711">
        <ele>85.98833</ele>
        <time>2015-06-04T16:57:30Z</time>
      </trkpt>
      <trkpt lat="49.1076" lon="-1.33713">
        <ele>85.98833</ele>
        <time>2015-06-04T16:57:35Z</time>
      </trkpt>
      <trkpt lat="49.10765" lon="-1.33716">
        <ele>85.7325</ele>
        <time>2015-06-04T16:57:40Z</time>
      </trkpt>
      <trkpt lat="49.10771" lon="-1.3372">
        <ele>85.7325</ele>
        <time>2015-06-04T16:57:45Z</time>
      </trkpt>
      <trkpt lat="49.10778" lon="-1.3372">
        <ele>85.52662</ele>
        <time>2015-06-04T16:57:50Z</time>
      </trkpt>
      <trkpt lat="49.10784" lon="-1.33719">
        <ele>85.52662</ele>
        <time>2015-06-04T16:57:55Z</time>
      </trkpt>
      <trkpt lat="49.10792" lon="-1.33716">
        <ele>85.37997</ele>
        <time>2015-06-04T16:58:00Z</time>
      </trkpt>
      <trkpt lat="49.10798" lon="-1.33714">
        <ele>85.37997</ele>
        <time>2015-06-04T16:58:05Z</time>
      </trkpt>
      <trkpt lat="49.10803" lon="-1.33713">
        <ele>85.28653</ele>
        <time>2015-06-04T16:58:10Z</time>
      </trkpt>
      <trkpt lat="49.10808" lon="-1.33711">
        <ele>85.28653</ele>
        <time>2015-06-04T16:58:15Z</time>
      </trkpt>
      <trkpt lat="49.10814" lon="-1.3371">
        <ele>85.22616</ele>
        <time>2015-06-04T16:58:20Z</time>
      </trkpt>
      <trkpt lat="49.10821" lon="-1.33711">
        <ele>85.22616</ele>
        <time>2015-06-04T16:58:25Z</time>
      </trkpt>
      <trkpt lat="49.10828" lon="-1.3371">
        <ele>85.165695</ele>
        <time>2015-06-04T16:58:30Z</time>
      </trkpt>
      <trkpt lat="49.10831" lon="-1.3371">
        <ele>85.165695</ele>
        <time>2015-06-04T16:58:35Z</time>
      </trkpt>
      <trkpt lat="49.10836" lon="-1.33711">
        <ele>85.165695</ele>
        <time>2015-06-04T16:58:40Z</time>
      </trkpt>
      <trkpt lat="49.10843" lon="-1.33713">
        <ele>85.04558</ele>
        <time>2015-06-04T16:58:45Z</time>
      </trkpt>
      <trkpt lat="49.10849" lon="-1.33715">
        <ele>85.04558</ele>
        <time>2015-06-04T16:58:50Z</time>
      </trkpt>
      <trkpt lat="49.10853" lon="-1.33718">
        <ele>84.99814</ele>
        <time>2015-06-04T16:58:55Z</time>
      </trkpt>
      <trkpt lat="49.10857" lon="-1.33727">
        <ele>84.99814</ele>
        <time>2015-06-04T16:59:00Z</time>
      </trkpt>
      <trkpt lat="49.10859" lon="-1.33732">
        <ele>84.98727</ele>
        <time>2015-06-04T16:59:05Z</time>
      </trkpt>
      <trkpt lat="49.10861" lon="-1.3374">
        <ele>84.98727</ele>
        <time>2015-06-04T16:59:10Z</time>
      </trkpt>
      <trkpt lat="49.10864" lon="-1.33746">
        <ele>85.03707</ele>
        <time>2015-06-04T16:59:15Z</time>
      </trkpt>
      <trkpt lat="49.10869" lon="-1.33753">
        <ele>85.03707</ele>
        <time>2015-06-04T16:59:20Z</time>
      </trkpt>
      <trkpt lat="49.10873" lon="-1.33761">
        <ele>85.1265</ele>
        <time>2015-06-04T16:59:25Z</time>
      </trkpt>
      <trkpt lat="49.10875" lon="-1.33768">
        <ele>85.1265</ele>
        <time>2015-06-04T16:59:30Z</time>
      </trkpt>
      <trkpt lat="49.10879" lon="-1.33775">
        <ele>85.25038</ele>
        <time>2015-06-04T16:59:35Z</time>
      </trkpt>
      <trkpt lat="49.10882" lon="-1.33782">
        <ele>85.25038</ele>
        <time>2015-06-04T16:59:40Z</time>
      </trkpt>
      <trkpt lat="49.10884" lon="-1.33791">
        <ele>85.519135</ele>
        <time>2015-06-04T16:59:45Z</time>
      </trkpt>
      <trkpt lat="49.10886" lon="-1.33797">
        <ele>85.519135</ele>
        <time>2015-06-04T16:59:50Z</time>
      </trkpt>
      <trkpt lat="49.10888" lon="-1.33803">
        <ele>86.00588</ele>
        <time>2015-06-04T16:59:55Z</time>
      </trkpt>
      <trkpt lat="49.10891" lon="-1.3381">
        <ele>86.00588</ele>
        <time>2015-06-04T17:00:00Z</time>
      </trkpt>
      <trkpt lat="49.10894" lon="-1.33816">
        <ele>86.67692</ele>
        <time>2015-06-04T17:00:05Z</time>
      </trkpt>
      <trkpt lat="49.10896" lon="-1.33822">
        <ele>86.67692</ele>
        <time>2015-06-04T17:00:10Z</time>
      </trkpt>
      <trkpt lat="49.10898" lon="-1.33828">
        <ele>86.67692</ele>
        <time>2015-06-04T17:00:15Z</time>
      </trkpt>
      <trkpt lat="49.109" lon="-1.33834">
        <ele>87.57261</ele>
        <time>2015-06-04T17:00:20Z</time>
      </trkpt>
      <trkpt lat="49.10902" lon="-1.33841">
        <ele>87.57261</ele>
        <time>2015-06-04T17:00:25Z</time>
      </trkpt>
      <trkpt lat="49.10905" lon="-1.33846">
        <ele>88.57125</ele>
        <time>2015-06-04T17:00:30Z</time>
      </trkpt>
      <trkpt lat="49.10906" lon="-1.33853">
        <ele>88.57125</ele>
        <time>2015-06-04T17:00:35Z</time>
      </trkpt>
      <trkpt lat="49.10908" lon="-1.3386">
        <ele>89.66075</ele>
        <time>2015-06-04T17:00:40Z</time>
      </trkpt>
      <trkpt lat="49.10911" lon="-1.33866">
        <ele>89.66075</ele>
        <time>2015-06-04T17:00:45Z</time>
      </trkpt>
      <trkpt lat="49.10913" lon="-1.33872">
        <ele>90.872925</ele>
        <time>2015-06-04T17:00:50Z</time>
      </trkpt>
      <trkpt lat="49.10916" lon="-1.33876">
        <ele>90.872925</ele>
        <time>2015-06-04T17:00:55Z</time>
      </trkpt>
      <trkpt lat="49.10918" lon="-1.33879">
        <ele>90.872925</ele>
        <time>2015-06-04T17:01:00Z</time>
      </trkpt>
      <trkpt lat="49.1092" lon="-1.33885">
        <ele>92.07851</ele>
        <time>2015-06-04T17:01:05Z</time>
      </trkpt>
      <trkpt lat="49.10922" lon="-1.33891">
        <ele>92.07851</ele>
        <time>2015-06-04T17:01:10Z</time>
      </trkpt>
      <trkpt lat="49.10924" lon="-1.33898">
        <ele>93.22985</ele>
        <time>2015-06-04T17:01:15Z</time>
      </trkpt>
      <trkpt lat="49.10926" lon="-1.33904">
        <ele>93.22985</ele>
        <time>2015-06-04T17:01:20Z</time>
      </trkpt>
      <trkpt lat="49.10929" lon="-1.3391">
        <ele>94.35514</ele>
        <time>2015-06-04T17:01:25Z</time>
      </trkpt>
      <trkpt lat="49.10932" lon="-1.33917">
        <ele>94.35514</ele>
        <time>2015-06-04T17:01:30Z</time>
      </trkpt>
      <trkpt lat="49.10936" lon="-1.33924">
        <ele>95.523895</ele>
        <time>2015-06-04T17:01:35Z</time>
      </trkpt>
      <trkpt lat="49.10938" lon="-1.33933">
        <ele>95.523895</ele>
        <time>2015-06-04T17:01:40Z</time>
      </trkpt>
      <trkpt lat="49.10942" lon="-1.33939">
        <ele>96.67081</ele>
        <time>2015-06-04T17:01:45Z</time>
      </trkpt>
      <trkpt lat="49.10945" lon="-1.33944">
        <ele>96.67081</ele>
        <time>2015-06-04T17:01:50Z</time>
      </trkpt>
      <trkpt lat="49.10949" lon="-1.33949">
        <ele>97.82202</ele>
        <time>2015-06-04T17:01:55Z</time>
      </trkpt>
      <trkpt lat="49.10953" lon="-1.33954">
        <ele>97.82202</ele>
        <time>2015-06-04T17:02:00Z</time>
      </trkpt>
      <trkpt lat="49.10957" lon="-1.33962">
        <ele>98.95862</ele>
        <time>2015-06-04T17:02:05Z</time>
      </trkpt>
      <trkpt lat="49.10962" lon="-1.33969">
        <ele>98.95862</ele>
        <time>2015-06-04T17:02:10Z</time>
      </trkpt>
      <trkpt lat="49.10966" lon="-1.33974">
        <ele>100.063255</ele>
        <time>2015-06-04T17:02:15Z</time>
      </trkpt>
      <trkpt lat="49.10969" lon="-1.33982">
        <ele>100.063255</ele>
        <time>2015-06-04T17:02:20Z</time>
      </trkpt>
      <trkpt lat="49.10973" lon="-1.33989">
        <ele>101.10565</ele>
        <time>2015-06-04T17:02:25Z</time>
      </trkpt>
      <trkpt lat="49.10976" lon="-1.33995">
        <ele>101.10565</ele>
        <time>2015-06-04T17:02:30Z</time>
      </trkpt>
      <trkpt lat="49.10979" lon="-1.34002">
        <ele>102.08687</ele>
        <time>2015-06-04T17:02:35Z</time>
      </trkpt>
      <trkpt lat="49.10979" lon="-1.34003">
        <ele>102.08687</ele>
        <time>2015-06-04T17:02:40Z</time>
      </trkpt>
      <trkpt lat="49.10979" lon="-1.34002">
        <ele>102.08687</ele>
        <time>2015-06-04T17:02:45Z</time>
      </trkpt>
      <trkpt lat="49.1098" lon="-1.34002">
        <ele>102.08687</ele>
        <time>2015-06-04T17:02:50Z</time>
      </trkpt>
      <trkpt lat="49.10981" lon="-1.34005">
        <ele>102.08687</ele>
        <time>2015-06-04T17:02:55Z</time>
      </trkpt>
      <trkpt lat="49.10982" lon="-1.34008">
        <ele>102.08687</ele>
        <time>2015-06-04T17:03:00Z</time>
      </trkpt>
      <trkpt lat="49.10983" lon="-1.34005">
        <ele>102.921745</ele>
        <time>2015-06-04T17:03:05Z</time>
      </trkpt>
      <trkpt lat="49.10985" lon="-1.34003">
        <ele>102.921745</ele>
        <time>2015-06-04T17:03:10Z</time>
      </trkpt>
      <trkpt lat="49.10987" lon="-1.34002">
        <ele>102.921745</ele>
        <time>2015-06-04T17:03:15Z</time>
      </trkpt>
      <trkpt lat="49.1099" lon="-1.34">
        <ele>102.921745</ele>
        <time>2015-06-04T17:03:20Z</time>
      </trkpt>
      <trkpt lat="49.1099" lon="-1.33999">
        <ele>102.921745</ele>
        <time>2015-06-04T17:03:25Z</time>
      </trkpt>
      <trkpt lat="49.1099" lon="-1.33999">
        <ele>102.921745</ele>
        <time>2015-06-04T17:03:30Z</time>
      </trkpt>
      <trkpt lat="49.10989" lon="-1.34">
        <ele>103.834526</ele>
        <time>2015-06-04T17:03:35Z</time>
      </trkpt>
      <trkpt lat="49.10988" lon="-1.34002">
        <ele>103.834526</ele>
        <time>2015-06-04T17:03:40Z</time>
      </trkpt>
      <trkpt lat="49.10991" lon="-1.33999">
        <ele>103.834526</ele>
        <time>2015-06-04T17:03:45Z</time>
      </trkpt>
      <trkpt lat="49.10997" lon="-1.3399">
        <ele>104.67262</ele>
        <time>2015-06-04T17:03:50Z</time>
      </trkpt>
      <trkpt lat="49.11002" lon="-1.33982">
        <ele>104.67262</ele>
        <time>2015-06-04T17:03:55Z</time>
      </trkpt>
      <trkpt lat="49.11006" lon="-1.33973">
        <ele>105.395874</ele>
        <time>2015-06-04T17:04:00Z</time>
      </trkpt>
      <trkpt lat="49.11011" lon="-1.3397">
        <ele>105.395874</ele>
        <time>2015-06-04T17:04:05Z</time>
      </trkpt>
      <trkpt lat="49.11015" lon="-1.33965">
        <ele>106.053955</ele>
        <time>2015-06-04T17:04:10Z</time>
      </trkpt>
      <trkpt lat="49.11019" lon="-1.33959">
        <ele>106.053955</ele>
        <time>2015-06-04T17:04:15Z</time>
      </trkpt>
      <trkpt lat="49.11024" lon="-1.33955">
        <ele>106.592354</ele>
        <time>2015-06-04T17:04:20Z</time>
      </trkpt>
      <trkpt lat="49.11028" lon="-1.33952">
        <ele>106.592354</ele>
        <time>2015-06-04T17:04:25Z</time>
      </trkpt>
      <trkpt lat="49.1103" lon="-1.33945">
        <ele>107.04745</ele>
        <time>2015-06-04T17:04:30Z</time>
      </trkpt>
      <trkpt lat="49.1103" lon="-1.33939">
        <ele>107.04745</ele>
        <time>2015-06-04T17:04:35Z</time>
      </trkpt>
      <trkpt lat="49.11029" lon="-1.33938">
        <ele>107.04745</ele>
        <time>2015-06-04T17:04:40Z</time>
      </trkpt>
      <trkpt lat="49.11028" lon="-1.3394">
        <ele>107.04745</ele>
        <time>2015-06-04T17:04:45Z</time>
      </trkpt>
      <trkpt lat="49.11028" lon="-1.33941">
        <ele>107.04745</ele>
        <time>2015-06-04T17:04:50Z</time>
      </trkpt>
      <trkpt lat="49.11028" lon="-1.33941">
        <ele>107.04745</ele>
        <time>2015-06-04T17:04:55Z</time>
      </trkpt>
      <trkpt lat="49.11029" lon="-1.33941">
        <ele>107.51095</ele>
        <time>2015-06-04T17:05:00Z</time>
      </trkpt>
      <trkpt lat="49.1103" lon="-1.33936">
        <ele>107.51095</ele>
        <time>2015-06-04T17:05:05Z</time>
      </trkpt>
      <trkpt lat="49.1103" lon="-1.33936">
        <ele>107.51095</ele>
        <time>2015-06-04T17:05:10Z</time>
      </trkpt>
      <trkpt lat="49.11029" lon="-1.33936">
        <ele>107.51095</ele>
        <time>2015-06-04T17:05:15Z</time>
      </trkpt>
      <trkpt lat="49.11029" lon="-1.33936">
        <ele>107.51095</ele>
        <time>2015-06-04T17:05:20Z</time>
      </trkpt>
      <trkpt lat="49.11028" lon="-1.33937">
        <ele>107.51095</ele>
        <time>2015-06-04T17:05:25Z</time>
      </trkpt>
      <trkpt lat="49.11027" lon="-1.33935">
        <ele>107.51095</ele>
        <time>2015-06-04T17:05:30Z</time>
      </trkpt>
      <trkpt lat="49.11028" lon="-1.33936">
        <ele>107.51095</ele>
        <time>2015-06-04T17:05:35Z</time>
      </trkpt>
      <trkpt lat="49.11028" lon="-1.33936">
        <ele>107.51095</ele>
        <time>2015-06-04T17:05:40Z</time>
      </trkpt>
      <trkpt lat="49.11027" lon="-1.33935">
        <ele>107.51095</ele>
        <time>2015-06-04T17:05:45Z</time>
      </trkpt>
      <trkpt lat="49.11024" lon="-1.33935">
        <ele>107.44822</ele>
        <time>2015-06-04T17:05:50Z</time>
      </trkpt>
      <trkpt lat="49.11022" lon="-1.33937">
        <ele>107.44822</ele>
        <time>2015-06-04T17:05:55Z</time>
      </trkpt>
      <trkpt lat="49.11021" lon="-1.3394">
        <ele>107.44822</ele>
        <time>2015-06-04T17:06:00Z</time>
      </trkpt>
      <trkpt lat="49.11024" lon="-1.33943">
        <ele>107.44822</ele>
        <time>2015-06-04T17:06:05Z</time>
      </trkpt>
      <trkpt lat="49.11025" lon="-1.33943">
        <ele>107.25897</ele>
        <time>2015-06-04T17:06:10Z</time>
      </trkpt>
      <trkpt lat="49.11027" lon="-1.33945">
        <ele>107.25897</ele>
        <time>2015-06-04T17:06:15Z</time>
      </trkpt>
      <trkpt lat="49.11028" lon="-1.33945">
        <ele>107.25897</ele>
        <time>2015-06-04T17:06:20Z</time>
      </trkpt>
      <trkpt lat="49.11028" lon="-1.33943">
        <ele>107.25897</ele>
        <time>2015-06-04T17:06:25Z</time>
      </trkpt>
      <trkpt lat="49.11027" lon="-1.33942">
        <ele>107.25897</ele>
        <time>2015-06-04T17:06:30Z</time>
      </trkpt>
      <trkpt lat="49.11025" lon="-1.33943">
        <ele>107.25897</ele>
        <time>2015-06-04T17:06:35Z</time>
      </trkpt>
      <trkpt lat="49.11025" lon="-1.33945">
        <ele>107.08342</ele>
        <time>2015-06-04T17:06:40Z</time>
      </trkpt>
      <trkpt lat="49.11024" lon="-1.33945">
        <ele>107.08342</ele>
        <time>2015-06-04T17:06:45Z</time>
      </trkpt>
      <trkpt lat="49.11025" lon="-1.33945">
        <ele>107.08342</ele>
        <time>2015-06-04T17:06:50Z</time>
      </trkpt>
      <trkpt lat="49.11025" lon="-1.33945">
        <ele>107.08342</ele>
        <time>2015-06-04T17:06:55Z</time>
      </trkpt>
      <trkpt lat="49.11025" lon="-1.33946">
        <ele>107.08342</ele>
        <time>2015-06-04T17:07:00Z</time>
      </trkpt>
      <trkpt lat="49.11025" lon="-1.33946">
        <ele>107.08342</ele>
        <time>2015-06-04T17:07:05Z</time>
      </trkpt>
      <trkpt lat="49.11026" lon="-1.33945">
        <ele>107.08342</ele>
        <time>2015-06-04T17:07:10Z</time>
      </trkpt>
      <trkpt lat="49.11029" lon="-1.33949">
        <ele>107.08342</ele>
        <time>2015-06-04T17:07:15Z</time>
      </trkpt>
      <trkpt lat="49.11032" lon="-1.33954">
        <ele>107.08033</ele>
        <time>2015-06-04T17:07:20Z</time>
      </trkpt>
      <trkpt lat="49.11035" lon="-1.3396">
        <ele>107.08033</ele>
        <time>2015-06-04T17:07:25Z</time>
      </trkpt>
      <trkpt lat="49.11037" lon="-1.33965">
        <ele>107.16583</ele>
        <time>2015-06-04T17:07:30Z</time>
      </trkpt>
      <trkpt lat="49.11039" lon="-1.33964">
        <ele>107.16583</ele>
        <time>2015-06-04T17:07:35Z</time>
      </trkpt>
      <trkpt lat="49.11039" lon="-1.33965">
        <ele>107.16583</ele>
        <time>2015-06-04T17:07:40Z</time>
      </trkpt>
      <trkpt lat="49.11038" lon="-1.33966">
        <ele>107.16583</ele>
        <time>2015-06-04T17:07:45Z</time>
      </trkpt>
      <trkpt lat="49.11038" lon="-1.33965">
        <ele>107.16583</ele>
        <time>2015-06-04T17:07:50Z</time>
      </trkpt>
      <trkpt lat="49.11037" lon="-1.33967">
        <ele>107.16583</ele>
        <time>2015-06-04T17:07:55Z</time>
      </trkpt>
      <trkpt lat="49.11037" lon="-1.3397">
        <ele>107.16583</ele>
        <time>2015-06-04T17:08:00Z</time>
      </trkpt>
      <trkpt lat="49.11038" lon="-1.33969">
        <ele>107.16583</ele>
        <time>2015-06-04T17:08:05Z</time>
      </trkpt>
      <trkpt lat="49.11037" lon="-1.33965">
        <ele>107.01701</ele>
        <time>2015-06-04T17:08:10Z</time>
      </trkpt>
      <trkpt lat="49.11038" lon="-1.33963">
        <ele>107.01701</ele>
        <time>2015-06-04T17:08:15Z</time>
      </trkpt>
      <trkpt lat="49.11038" lon="-1.33961">
        <ele>107.01701</ele>
        <time>2015-06-04T17:08:20Z</time>
      </trkpt>
      <trkpt lat="49.11039" lon="-1.33961">
        <ele>107.01701</ele>
        <time>2015-06-04T17:08:25Z</time>
      </trkpt>
      <trkpt lat="49.11039" lon="-1.33966">
        <ele>107.01701</ele>
        <time>2015-06-04T17:08:30Z</time>
      </trkpt>
      <trkpt lat="49.1104" lon="-1.33973">
        <ele>106.652466</ele>
        <time>2015-06-04T17:08:35Z</time>
      </trkpt>
      <trkpt lat="49.11043" lon="-1.33981">
        <ele>106.652466</ele>
        <time>2015-06-04T17:08:40Z</time>
      </trkpt>
      <trkpt lat="49.11046" lon="-1.3399">
        <ele>106.320625</ele>
        <time>2015-06-04T17:08:45Z</time>
      </trkpt>
      <trkpt lat="49.1105" lon="-1.33998">
        <ele>106.320625</ele>
        <time>2015-06-04T17:08:50Z</time>
      </trkpt>
      <trkpt lat="49.11052" lon="-1.34003">
        <ele>106.09312</ele>
        <time>2015-06-04T17:08:55Z</time>
      </trkpt>
      <trkpt lat="49.11054" lon="-1.34011">
        <ele>106.09312</ele>
        <time>2015-06-04T17:09:00Z</time>
      </trkpt>
      <trkpt lat="49.11056" lon="-1.34017">
        <ele>105.8775</ele>
        <time>2015-06-04T17:09:05Z</time>
      </trkpt>
      <trkpt lat="49.11058" lon="-1.34025">
        <ele>105.8775</ele>
        <time>2015-06-04T17:09:10Z</time>
      </trkpt>
      <trkpt lat="49.11062" lon="-1.34032">
        <ele>105.645775</ele>
        <time>2015-06-04T17:09:15Z</time>
      </trkpt>
      <trkpt lat="49.11066" lon="-1.34039">
        <ele>105.645775</ele>
        <time>2015-06-04T17:09:20Z</time>
      </trkpt>
      <trkpt lat="49.1107" lon="-1.34048">
        <ele>105.40086</ele>
        <time>2015-06-04T17:09:25Z</time>
      </trkpt>
      <trkpt lat="49.11073" lon="-1.34056">
        <ele>105.40086</ele>
        <time>2015-06-04T17:09:30Z</time>
      </trkpt>
      <trkpt lat="49.11075" lon="-1.34065">
        <ele>105.102295</ele>
        <time>2015-06-04T17:09:35Z</time>
      </trkpt>
      <trkpt lat="49.11078" lon="-1.34072">
        <ele>105.102295</ele>
        <time>2015-06-04T17:09:40Z</time>
      </trkpt>
      <trkpt lat="49.11079" lon="-1.34079">
        <ele>104.84242</ele>
        <time>2015-06-04T17:09:45Z</time>
      </trkpt>
      <trkpt lat="49.11081" lon="-1.34086">
        <ele>104.84242</ele>
        <time>2015-06-04T17:09:50Z</time>
      </trkpt>
      <trkpt lat="49.11083" lon="-1.34092">
        <ele>104.634636</ele>
        <time>2015-06-04T17:09:55Z</time>
      </trkpt>
      <trkpt lat="49.11086" lon="-1.34099">
        <ele>104.634636</ele>
        <time>2015-06-04T17:10:00Z</time>
      </trkpt>
      <trkpt lat="49.11089" lon="-1.34109">
        <ele>104.43356</ele>
        <time>2015-06-04T17:10:05Z</time>
      </trkpt>
      <trkpt lat="49.11091" lon="-1.34116">
        <ele>104.43356</ele>
        <time>2015-06-04T17:10:10Z</time>
      </trkpt>
      <trkpt lat="49.11093" lon="-1.34125">
        <ele>104.139465</ele>
        <time>2015-06-04T17:10:15Z</time>
      </trkpt>
      <trkpt lat="49.11095" lon="-1.34133">
        <ele>104.139465</ele>
        <time>2015-06-04T17:10:20Z</time>
      </trkpt>
      <trkpt lat="49.11097" lon="-1.3414">
        <ele>103.81871</ele>
        <time>2015-06-04T17:10:25Z</time>
      </trkpt>
      <trkpt lat="49.111" lon="-1.34148">
        <ele>103.81871</ele>
        <time>2015-06-04T17:10:30Z</time>
      </trkpt>
      <trkpt lat="49.11103" lon="-1.34157">
        <ele>103.518425</ele>
        <time>2015-06-04T17:10:35Z</time>
      </trkpt>
      <trkpt lat="49.11106" lon="-1.34165">
        <ele>103.518425</ele>
        <time>2015-06-04T17:10:40Z</time>
      </trkpt>
      <trkpt lat="49.11107" lon="-1.34172">
        <ele>103.138084</ele>
        <time>2015-06-04T17:10:45Z</time>
      </trkpt>
      <trkpt lat="49.11111" lon="-1.34182">
        <ele>103.138084</ele>
        <time>2015-06-04T17:10:50Z</time>
      </trkpt>
      <trkpt lat="49.11114" lon="-1.34191">
        <ele>102.72884</ele>
        <time>2015-06-04T17:10:55Z</time>
      </trkpt>
      <trkpt lat="49.11118" lon="-1.342">
        <ele>102.72884</ele>
        <time>2015-06-04T17:11:00Z</time>
      </trkpt>
      <trkpt lat="49.11122" lon="-1.34208">
        <ele>102.3814</ele>
        <time>2015-06-04T17:11:05Z</time>
      </trkpt>
      <trkpt lat="49.11125" lon="-1.34215">
        <ele>102.3814</ele>
        <time>2015-06-04T17:11:10Z</time>
      </trkpt>
      <trkpt lat="49.11127" lon="-1.34221">
        <ele>102.06427</ele>
        <time>2015-06-04T17:11:15Z</time>
      </trkpt>
      <trkpt lat="49.1113" lon="-1.34229">
        <ele>102.06427</ele>
        <time>2015-06-04T17:11:20Z</time>
      </trkpt>
      <trkpt lat="49.11133" lon="-1.34237">
        <ele>101.77699</ele>
        <time>2015-06-04T17:11:25Z</time>
      </trkpt>
      <trkpt lat="49.11137" lon="-1.34245">
        <ele>101.77699</ele>
        <time>2015-06-04T17:11:30Z</time>
      </trkpt>
      <trkpt lat="49.1114" lon="-1.3425">
        <ele>101.47576</ele>
        <time>2015-06-04T17:11:35Z</time>
      </trkpt>
      <trkpt lat="49.11144" lon="-1.34257">
        <ele>101.47576</ele>
        <time>2015-06-04T17:11:40Z</time>
      </trkpt>
      <trkpt lat="49.11148" lon="-1.34265">
        <ele>101.12001</ele>
        <time>2015-06-04T17:11:45Z</time>
      </trkpt>
      <trkpt lat="49.11151" lon="-1.34273">
        <ele>101.12001</ele>
        <time>2015-06-04T17:11:50Z</time>
      </trkpt>
      <trkpt lat="49.11151" lon="-1.34281">
        <ele>100.629005</ele>
        <time>2015-06-04T17:11:55Z</time>
      </trkpt>
      <trkpt lat="49.11154" lon="-1.34287">
        <ele>100.629005</ele>
        <time>2015-06-04T17:12:00Z</time>
      </trkpt>
      <trkpt lat="49.11158" lon="-1.34293">
        <ele>100.02916</ele>
        <time>2015-06-04T17:12:05Z</time>
      </trkpt>
      <trkpt lat="49.11163" lon="-1.34301">
        <ele>100.02916</ele>
        <time>2015-06-04T17:12:10Z</time>
      </trkpt>
      <trkpt lat="49.11166" lon="-1.3431">
        <ele>99.201096</ele>
        <time>2015-06-04T17:12:15Z</time>
      </trkpt>
      <trkpt lat="49.11169" lon="-1.34317">
        <ele>99.201096</ele>
        <time>2015-06-04T17:12:20Z</time>
      </trkpt>
      <trkpt lat="49.11173" lon="-1.34322">
        <ele>98.222115</ele>
        <time>2015-06-04T17:12:25Z</time>
      </trkpt>
      <trkpt lat="49.11176" lon="-1.3433">
        <ele>98.222115</ele>
        <time>2015-06-04T17:12:30Z</time>
      </trkpt>
      <trkpt lat="49.11179" lon="-1.34338">
        <ele>97.22188</ele>
        <time>2015-06-04T17:12:35Z</time>
      </trkpt>
      <trkpt lat="49.11183" lon="-1.34345">
        <ele>97.22188</ele>
        <time>2015-06-04T17:12:40Z</time>
      </trkpt>
      <trkpt lat="49.11186" lon="-1.34349">
        <ele>96.104324</ele>
        <time>2015-06-04T17:12:45Z</time>
      </trkpt>
      <trkpt lat="49.1119" lon="-1.34359">
        <ele>96.104324</ele>
        <time>2015-06-04T17:12:50Z</time>
      </trkpt>
      <trkpt lat="49.11191" lon="-1.34367">
        <ele>94.92483</ele>
        <time>2015-06-04T17:12:55Z</time>
      </trkpt>
      <trkpt lat="49.11196" lon="-1.34374">
        <ele>94.92483</ele>
        <time>2015-06-04T17:13:00Z</time>
      </trkpt>
      <trkpt lat="49.11201" lon="-1.34377">
        <ele>93.77804</ele>
        <time>2015-06-04T17:13:05Z</time>
      </trkpt>
      <trkpt lat="49.11203" lon="-1.3438">
        <ele>93.77804</ele>
        <time>2015-06-04T17:13:10Z</time>
      </trkpt>
      <trkpt lat="49.11202" lon="-1.34381">
        <ele>93.77804</ele>
        <time>2015-06-04T17:13:15Z</time>
      </trkpt>
      <trkpt lat="49.11203" lon="-1.34379">
        <ele>93.77804</ele>
        <time>2015-06-04T17:13:20Z</time>
      </trkpt>
      <trkpt lat="49.11204" lon="-1.34378">
        <ele>93.77804</ele>
        <time>2015-06-04T17:13:25Z</time>
      </trkpt>
      <trkpt lat="49.11204" lon="-1.34376">
        <ele>93.77804</ele>
        <time>2015-06-04T17:13:30Z</time>
      </trkpt>
      <trkpt lat="49.11204" lon="-1.34379">
        <ele>92.5209</ele>
        <time>2015-06-04T17:13:35Z</time>
      </trkpt>
      <trkpt lat="49.11204" lon="-1.34383">
        <ele>92.5209</ele>
        <time>2015-06-04T17:13:40Z</time>
      </trkpt>
      <trkpt lat="49.11205" lon="-1.34383">
        <ele>92.5209</ele>
        <time>2015-06-04T17:13:45Z</time>
      </trkpt>
      <trkpt lat="49.11202" lon="-1.34378">
        <ele>92.5209</ele>
        <time>2015-06-04T17:13:50Z</time>
      </trkpt>
      <trkpt lat="49.11199" lon="-1.3437">
        <ele>91.13636</ele>
        <time>2015-06-04T17:13:55Z</time>
      </trkpt>
      <trkpt lat="49.11194" lon="-1.34362">
        <ele>91.13636</ele>
        <time>2015-06-04T17:14:00Z</time>
      </trkpt>
      <trkpt lat="49.1119" lon="-1.34354">
        <ele>89.94038</ele>
        <time>2015-06-04T17:14:05Z</time>
      </trkpt>
      <trkpt lat="49.11192" lon="-1.34346">
        <ele>89.94038</ele>
        <time>2015-06-04T17:14:10Z</time>
      </trkpt>
      <trkpt lat="49.11197" lon="-1.34342">
        <ele>88.86477</ele>
        <time>2015-06-04T17:14:15Z</time>
      </trkpt>
      <trkpt lat="49.11202" lon="-1.3434">
        <ele>88.86477</ele>
        <time>2015-06-04T17:14:20Z</time>
      </trkpt>
      <trkpt lat="49.11207" lon="-1.34338">
        <ele>87.94683</ele>
        <time>2015-06-04T17:14:25Z</time>
      </trkpt>
      <trkpt lat="49.11211" lon="-1.34339">
        <ele>87.94683</ele>
        <time>2015-06-04T17:14:30Z</time>
      </trkpt>
      <trkpt lat="49.11216" lon="-1.34344">
        <ele>87.24939</ele>
        <time>2015-06-04T17:14:35Z</time>
      </trkpt>
      <trkpt lat="49.11219" lon="-1.34345">
        <ele>87.24939</ele>
        <time>2015-06-04T17:14:40Z</time>
      </trkpt>
      <trkpt lat="49.11223" lon="-1.34348">
        <ele>87.24939</ele>
        <time>2015-06-04T17:14:45Z</time>
      </trkpt>
      <trkpt lat="49.11228" lon="-1.34355">
        <ele>86.75788</ele>
        <time>2015-06-04T17:14:50Z</time>
      </trkpt>
      <trkpt lat="49.11231" lon="-1.34358">
        <ele>86.75788</ele>
        <time>2015-06-04T17:14:55Z</time>
      </trkpt>
      <trkpt lat="49.11234" lon="-1.34362">
        <ele>86.75788</ele>
        <time>2015-06-04T17:15:00Z</time>
      </trkpt>
      <trkpt lat="49.11237" lon="-1.34365">
        <ele>86.51579</ele>
        <time>2015-06-04T17:15:05Z</time>
      </trkpt>
      <trkpt lat="49.11238" lon="-1.34369">
        <ele>86.51579</ele>
        <time>2015-06-04T17:15:10Z</time>
      </trkpt>
      <trkpt lat="49.1124" lon="-1.34375">
        <ele>86.51579</ele>
        <time>2015-06-04T17:15:15Z</time>
      </trkpt>
      <trkpt lat="49.11243" lon="-1.34378">
        <ele>86.70675</ele>
        <time>2015-06-04T17:15:20Z</time>
      </trkpt>
      <trkpt lat="49.11246" lon="-1.34381">
        <ele>86.70675</ele>
        <time>2015-06-04T17:15:25Z</time>
      </trkpt>
      <trkpt lat="49.11251" lon="-1.34382">
        <ele>86.70675</ele>
        <time>2015-06-04T17:15:30Z</time>
      </trkpt>
      <trkpt lat="49.11253" lon="-1.34383">
        <ele>87.153694</ele>
        <time>2015-06-04T17:15:35Z</time>
      </trkpt>
      <trkpt lat="49.11254" lon="-1.34383">
        <ele>87.153694</ele>
        <time>2015-06-04T17:15:40Z</time>
      </trkpt>
      <trkpt lat="49.11254" lon="-1.34384">
        <ele>87.153694</ele>
        <time>2015-06-04T17:15:45Z</time>
      </trkpt>
      <trkpt lat="49.11255" lon="-1.34385">
        <ele>87.153694</ele>
        <time>2015-06-04T17:15:50Z</time>
      </trkpt>
      <trkpt lat="49.11255" lon="-1.34385">
        <ele>87.153694</ele>
        <time>2015-06-04T17:15:55Z</time>
      </trkpt>
      <trkpt lat="49.11256" lon="-1.34384">
        <ele>87.153694</ele>
        <time>2015-06-04T17:16:00Z</time>
      </trkpt>
      <trkpt lat="49.11256" lon="-1.34385">
        <ele>87.153694</ele>
        <time>2015-06-04T17:16:05Z</time>
      </trkpt>
      <trkpt lat="49.11256" lon="-1.34387">
        <ele>87.153694</ele>
        <time>2015-06-04T17:16:10Z</time>
      </trkpt>
      <trkpt lat="49.11255" lon="-1.34387">
        <ele>87.153694</ele>
        <time>2015-06-04T17:16:15Z</time>
      </trkpt>
      <trkpt lat="49.11255" lon="-1.34385">
        <ele>87.9224</ele>
        <time>2015-06-04T17:16:20Z</time>
      </trkpt>
      <trkpt lat="49.11254" lon="-1.34385">
        <ele>87.9224</ele>
        <time>2015-06-04T17:16:25Z</time>
      </trkpt>
      <trkpt lat="49.11254" lon="-1.34386">
        <ele>87.9224</ele>
        <time>2015-06-04T17:16:30Z</time>
      </trkpt>
      <trkpt lat="49.11254" lon="-1.34387">
        <ele>87.9224</ele>
        <time>2015-06-04T17:16:35Z</time>
      </trkpt>
      <trkpt lat="49.11254" lon="-1.34388">
        <ele>87.9224</ele>
        <time>2015-06-04T17:16:40Z</time>
      </trkpt>
      <trkpt lat="49.11252" lon="-1.34388">
        <ele>87.9224</ele>
        <time>2015-06-04T17:16:45Z</time>
      </trkpt>
      <trkpt lat="49.11249" lon="-1.34386">
        <ele>87.9224</ele>
        <time>2015-06-04T17:16:50Z</time>
      </trkpt>
      <trkpt lat="49.11245" lon="-1.34381">
        <ele>88.481964</ele>
        <time>2015-06-04T17:16:55Z</time>
      </trkpt>
      <trkpt lat="49.11243" lon="-1.34375">
        <ele>88.481964</ele>
        <time>2015-06-04T17:17:00Z</time>
      </trkpt>
      <trkpt lat="49.11239" lon="-1.34369">
        <ele>88.80218</ele>
        <time>2015-06-04T17:17:05Z</time>
      </trkpt>
      <trkpt lat="49.11236" lon="-1.34364">
        <ele>88.80218</ele>
        <time>2015-06-04T17:17:10Z</time>
      </trkpt>
      <trkpt lat="49.11233" lon="-1.34358">
        <ele>89.04303</ele>
        <time>2015-06-04T17:17:15Z</time>
      </trkpt>
      <trkpt lat="49.11229" lon="-1.34354">
        <ele>89.04303</ele>
        <time>2015-06-04T17:17:20Z</time>
      </trkpt>
      <trkpt lat="49.11223" lon="-1.34349">
        <ele>89.22324</ele>
        <time>2015-06-04T17:17:25Z</time>
      </trkpt>
      <trkpt lat="49.11218" lon="-1.34348">
        <ele>89.22324</ele>
        <time>2015-06-04T17:17:30Z</time>
      </trkpt>
      <trkpt lat="49.11211" lon="-1.34346">
        <ele>89.37473</ele>
        <time>2015-06-04T17:17:35Z</time>
      </trkpt>
      <trkpt lat="49.11207" lon="-1.34344">
        <ele>89.37473</ele>
        <time>2015-06-04T17:17:40Z</time>
      </trkpt>
      <trkpt lat="49.11201" lon="-1.34343">
        <ele>89.397415</ele>
        <time>2015-06-04T17:17:45Z</time>
      </trkpt>
      <trkpt lat="49.11195" lon="-1.34347">
        <ele>89.397415</ele>
        <time>2015-06-04T17:17:50Z</time>
      </trkpt>
      <trkpt lat="49.11192" lon="-1.34352">
        <ele>89.37186</ele>
        <time>2015-06-04T17:17:55Z</time>
      </trkpt>
      <trkpt lat="49.11191" lon="-1.34361">
        <ele>89.37186</ele>
        <time>2015-06-04T17:18:00Z</time>
      </trkpt>
      <trkpt lat="49.11195" lon="-1.34368">
        <ele>89.35841</ele>
        <time>2015-06-04T17:18:05Z</time>
      </trkpt>
      <trkpt lat="49.11199" lon="-1.34376">
        <ele>89.35841</ele>
        <time>2015-06-04T17:18:10Z</time>
      </trkpt>
      <trkpt lat="49.11202" lon="-1.34383">
        <ele>89.35531</ele>
        <time>2015-06-04T17:18:15Z</time>
      </trkpt>
      <trkpt lat="49.11207" lon="-1.34389">
        <ele>89.35531</ele>
        <time>2015-06-04T17:18:20Z</time>
      </trkpt>
      <trkpt lat="49.1121" lon="-1.34398">
        <ele>89.34648</ele>
        <time>2015-06-04T17:18:25Z</time>
      </trkpt>
      <trkpt lat="49.11213" lon="-1.34405">
        <ele>89.34648</ele>
        <time>2015-06-04T17:18:30Z</time>
      </trkpt>
      <trkpt lat="49.11216" lon="-1.34414">
        <ele>89.36028</ele>
        <time>2015-06-04T17:18:35Z</time>
      </trkpt>
      <trkpt lat="49.11219" lon="-1.3442">
        <ele>89.36028</ele>
        <time>2015-06-04T17:18:40Z</time>
      </trkpt>
      <trkpt lat="49.1122" lon="-1.34427">
        <ele>89.35087</ele>
        <time>2015-06-04T17:18:45Z</time>
      </trkpt>
      <trkpt lat="49.11222" lon="-1.34435">
        <ele>89.35087</ele>
        <time>2015-06-04T17:18:50Z</time>
      </trkpt>
      <trkpt lat="49.11226" lon="-1.34438">
        <ele>89.31906</ele>
        <time>2015-06-04T17:18:55Z</time>
      </trkpt>
      <trkpt lat="49.1123" lon="-1.34439">
        <ele>89.31906</ele>
        <time>2015-06-04T17:19:00Z</time>
      </trkpt>
      <trkpt lat="49.11233" lon="-1.34442">
        <ele>89.31906</ele>
        <time>2015-06-04T17:19:05Z</time>
      </trkpt>
      <trkpt lat="49.11237" lon="-1.34441">
        <ele>89.381</ele>
        <time>2015-06-04T17:19:10Z</time>
      </trkpt>
      <trkpt lat="49.11241" lon="-1.3444">
        <ele>89.381</ele>
        <time>2015-06-04T17:19:15Z</time>
      </trkpt>
      <trkpt lat="49.11246" lon="-1.34443">
        <ele>89.471085</ele>
        <time>2015-06-04T17:19:20Z</time>
      </trkpt>
      <trkpt lat="49.11249" lon="-1.34445">
        <ele>89.471085</ele>
        <time>2015-06-04T17:19:25Z</time>
      </trkpt>
      <trkpt lat="49.11253" lon="-1.34452">
        <ele>89.67259</ele>
        <time>2015-06-04T17:19:30Z</time>
      </trkpt>
      <trkpt lat="49.11257" lon="-1.34454">
        <ele>89.67259</ele>
        <time>2015-06-04T17:19:35Z</time>
      </trkpt>
      <trkpt lat="49.11261" lon="-1.34454">
        <ele>89.67259</ele>
        <time>2015-06-04T17:19:40Z</time>
      </trkpt>
      <trkpt lat="49.11263" lon="-1.34453">
        <ele>89.80298</ele>
        <time>2015-06-04T17:19:45Z</time>
      </trkpt>
      <trkpt lat="49.1127" lon="-1.34454">
        <ele>89.80298</ele>
        <time>2015-06-04T17:19:50Z</time>
      </trkpt>
      <trkpt lat="49.11276" lon="-1.34453">
        <ele>89.9095</ele>
        <time>2015-06-04T17:19:55Z</time>
      </trkpt>
      <trkpt lat="49.11279" lon="-1.34455">
        <ele>89.9095</ele>
        <time>2015-06-04T17:20:00Z</time>
      </trkpt>
      <trkpt lat="49.11282" lon="-1.34456">
        <ele>89.9095</ele>
        <time>2015-06-04T17:20:05Z</time>
      </trkpt>
      <trkpt lat="49.11285" lon="-1.34457">
        <ele>89.92073</ele>
        <time>2015-06-04T17:20:10Z</time>
      </trkpt>
      <trkpt lat="49.1129" lon="-1.34455">
        <ele>89.92073</ele>
        <time>2015-06-04T17:20:15Z</time>
      </trkpt>
      <trkpt lat="49.11296" lon="-1.34454">
        <ele>89.90048</ele>
        <time>2015-06-04T17:20:20Z</time>
      </trkpt>
      <trkpt lat="49.11299" lon="-1.34453">
        <ele>89.90048</ele>
        <time>2015-06-04T17:20:25Z</time>
      </trkpt>
      <trkpt lat="49.11303" lon="-1.34451">
        <ele>89.90048</ele>
        <time>2015-06-04T17:20:30Z</time>
      </trkpt>
      <trkpt lat="49.1131" lon="-1.34447">
        <ele>89.66301</ele>
        <time>2015-06-04T17:20:35Z</time>
      </trkpt>
      <trkpt lat="49.11317" lon="-1.34449">
        <ele>89.66301</ele>
        <time>2015-06-04T17:20:40Z</time>
      </trkpt>
      <trkpt lat="49.11322" lon="-1.34448">
        <ele>89.28182</ele>
        <time>2015-06-04T17:20:45Z</time>
      </trkpt>
      <trkpt lat="49.11329" lon="-1.34449">
        <ele>89.28182</ele>
        <time>2015-06-04T17:20:50Z</time>
      </trkpt>
      <trkpt lat="49.11339" lon="-1.34449">
        <ele>88.91193</ele>
        <time>2015-06-04T17:20:55Z</time>
      </trkpt>
      <trkpt lat="49.11345" lon="-1.34447">
        <ele>88.91193</ele>
        <time>2015-06-04T17:21:00Z</time>
      </trkpt>
      <trkpt lat="49.11349" lon="-1.3445">
        <ele>88.48075</ele>
        <time>2015-06-04T17:21:05Z</time>
      </trkpt>
      <trkpt lat="49.11353" lon="-1.34449">
        <ele>88.48075</ele>
        <time>2015-06-04T17:21:10Z</time>
      </trkpt>
      <trkpt lat="49.11361" lon="-1.34448">
        <ele>88.108604</ele>
        <time>2015-06-04T17:21:15Z</time>
      </trkpt>
      <trkpt lat="49.11367" lon="-1.34447">
        <ele>88.108604</ele>
        <time>2015-06-04T17:21:20Z</time>
      </trkpt>
      <trkpt lat="49.11374" lon="-1.34444">
        <ele>87.70505</ele>
        <time>2015-06-04T17:21:25Z</time>
      </trkpt>
      <trkpt lat="49.11378" lon="-1.34442">
        <ele>87.70505</ele>
        <time>2015-06-04T17:21:30Z</time>
      </trkpt>
      <trkpt lat="49.11385" lon="-1.34442">
        <ele>87.157555</ele>
        <time>2015-06-04T17:21:35Z</time>
      </trkpt>
      <trkpt lat="49.1139" lon="-1.34439">
        <ele>87.157555</ele>
        <time>2015-06-04T17:21:40Z</time>
      </trkpt>
      <trkpt lat="49.11395" lon="-1.34437">
        <ele>86.491974</ele>
        <time>2015-06-04T17:21:45Z</time>
      </trkpt>
      <trkpt lat="49.11398" lon="-1.34436">
        <ele>86.491974</ele>
        <time>2015-06-04T17:21:50Z</time>
      </trkpt>
      <trkpt lat="49.114" lon="-1.34435">
        <ele>86.491974</ele>
        <time>2015-06-04T17:21:55Z</time>
      </trkpt>
      <trkpt lat="49.11406" lon="-1.34432">
        <ele>85.67497</ele>
        <time>2015-06-04T17:22:00Z</time>
      </trkpt>
      <trkpt lat="49.11411" lon="-1.34429">
        <ele>85.67497</ele>
        <time>2015-06-04T17:22:05Z</time>
      </trkpt>
      <trkpt lat="49.11419" lon="-1.34426">
        <ele>84.84899</ele>
        <time>2015-06-04T17:22:10Z</time>
      </trkpt>
      <trkpt lat="49.11425" lon="-1.34424">
        <ele>84.84899</ele>
        <time>2015-06-04T17:22:15Z</time>
      </trkpt>
      <trkpt lat="49.11432" lon="-1.34422">
        <ele>84.10283</ele>
        <time>2015-06-04T17:22:20Z</time>
      </trkpt>
      <trkpt lat="49.11438" lon="-1.34423">
        <ele>84.10283</ele>
        <time>2015-06-04T17:22:25Z</time>
      </trkpt>
      <trkpt lat="49.11443" lon="-1.34422">
        <ele>83.53291</ele>
        <time>2015-06-04T17:22:30Z</time>
      </trkpt>
      <trkpt lat="49.11448" lon="-1.34419">
        <ele>83.53291</ele>
        <time>2015-06-04T17:22:35Z</time>
      </trkpt>
      <trkpt lat="49.11453" lon="-1.34419">
        <ele>83.026344</ele>
        <time>2015-06-04T17:22:40Z</time>
      </trkpt>
      <trkpt lat="49.11458" lon="-1.34419">
        <ele>83.026344</ele>
        <time>2015-06-04T17:22:45Z</time>
      </trkpt>
      <trkpt lat="49.11464" lon="-1.3442">
        <ele>82.535965</ele>
        <time>2015-06-04T17:22:50Z</time>
      </trkpt>
      <trkpt lat="49.1147" lon="-1.34421">
        <ele>82.535965</ele>
        <time>2015-06-04T17:22:55Z</time>
      </trkpt>
      <trkpt lat="49.11478" lon="-1.34421">
        <ele>82.01803</ele>
        <time>2015-06-04T17:23:00Z</time>
      </trkpt>
      <trkpt lat="49.11483" lon="-1.34421">
        <ele>82.01803</ele>
        <time>2015-06-04T17:23:05Z</time>
      </trkpt>
      <trkpt lat="49.11487" lon="-1.34421">
        <ele>81.47528</ele>
        <time>2015-06-04T17:23:10Z</time>
      </trkpt>
      <trkpt lat="49.11491" lon="-1.34424">
        <ele>81.47528</ele>
        <time>2015-06-04T17:23:15Z</time>
      </trkpt>
      <trkpt lat="49.11491" lon="-1.34425">
        <ele>81.47528</ele>
        <time>2015-06-04T17:23:20Z</time>
      </trkpt>
      <trkpt lat="49.11491" lon="-1.34426">
        <ele>81.47528</ele>
        <time>2015-06-04T17:23:25Z</time>
      </trkpt>
      <trkpt lat="49.11491" lon="-1.34425">
        <ele>81.47528</ele>
        <time>2015-06-04T17:23:30Z</time>
      </trkpt>
      <trkpt lat="49.11493" lon="-1.34423">
        <ele>81.47528</ele>
        <time>2015-06-04T17:23:35Z</time>
      </trkpt>
      <trkpt lat="49.11493" lon="-1.34423">
        <ele>81.47528</ele>
        <time>2015-06-04T17:23:40Z</time>
      </trkpt>
      <trkpt lat="49.11495" lon="-1.34422">
        <ele>80.75182</ele>
        <time>2015-06-04T17:23:45Z</time>
      </trkpt>
      <trkpt lat="49.11494" lon="-1.34421">
        <ele>80.75182</ele>
        <time>2015-06-04T17:23:50Z</time>
      </trkpt>
      <trkpt lat="49.11494" lon="-1.34423">
        <ele>80.75182</ele>
        <time>2015-06-04T17:23:55Z</time>
      </trkpt>
      <trkpt lat="49.11494" lon="-1.34424">
        <ele>80.75182</ele>
        <time>2015-06-04T17:24:00Z</time>
      </trkpt>
      <trkpt lat="49.11494" lon="-1.34425">
        <ele>80.75182</ele>
        <time>2015-06-04T17:24:05Z</time>
      </trkpt>
      <trkpt lat="49.11495" lon="-1.34425">
        <ele>80.75182</ele>
        <time>2015-06-04T17:24:10Z</time>
      </trkpt>
      <trkpt lat="49.11495" lon="-1.34424">
        <ele>80.75182</ele>
        <time>2015-06-04T17:24:15Z</time>
      </trkpt>
      <trkpt lat="49.11495" lon="-1.34423">
        <ele>80.75182</ele>
        <time>2015-06-04T17:24:20Z</time>
      </trkpt>
      <trkpt lat="49.11495" lon="-1.34423">
        <ele>80.75182</ele>
        <time>2015-06-04T17:24:25Z</time>
      </trkpt>
      <trkpt lat="49.11494" lon="-1.34425">
        <ele>80.75182</ele>
        <time>2015-06-04T17:24:30Z</time>
      </trkpt>
      <trkpt lat="49.11493" lon="-1.34424">
        <ele>79.4875</ele>
        <time>2015-06-04T17:24:35Z</time>
      </trkpt>
      <trkpt lat="49.11491" lon="-1.34425">
        <ele>79.4875</ele>
        <time>2015-06-04T17:24:40Z</time>
      </trkpt>
      <trkpt lat="49.11489" lon="-1.34424">
        <ele>79.4875</ele>
        <time>2015-06-04T17:24:45Z</time>
      </trkpt>
      <trkpt lat="49.1149" lon="-1.34425">
        <ele>79.4875</ele>
        <time>2015-06-04T17:24:50Z</time>
      </trkpt>
      <trkpt lat="49.11493" lon="-1.34429">
        <ele>78.373314</ele>
        <time>2015-06-04T17:24:55Z</time>
      </trkpt>
      <trkpt lat="49.11494" lon="-1.34431">
        <ele>78.373314</ele>
        <time>2015-06-04T17:25:00Z</time>
      </trkpt>
      <trkpt lat="49.11497" lon="-1.34432">
        <ele>78.373314</ele>
        <time>2015-06-04T17:25:05Z</time>
      </trkpt>
      <trkpt lat="49.11499" lon="-1.34435">
        <ele>78.373314</ele>
        <time>2015-06-04T17:25:10Z</time>
      </trkpt>
      <trkpt lat="49.11503" lon="-1.34437">
        <ele>77.53026</ele>
        <time>2015-06-04T17:25:15Z</time>
      </trkpt>
      <trkpt lat="49.11506" lon="-1.34436">
        <ele>77.53026</ele>
        <time>2015-06-04T17:25:20Z</time>
      </trkpt>
      <trkpt lat="49.11508" lon="-1.3443">
        <ele>77.53026</ele>
        <time>2015-06-04T17:25:25Z</time>
      </trkpt>
      <trkpt lat="49.11507" lon="-1.3443">
        <ele>76.79584</ele>
        <time>2015-06-04T17:25:30Z</time>
      </trkpt>
      <trkpt lat="49.11506" lon="-1.34434">
        <ele>76.79584</ele>
        <time>2015-06-04T17:25:35Z</time>
      </trkpt>
      <trkpt lat="49.11506" lon="-1.34435">
        <ele>76.79584</ele>
        <time>2015-06-04T17:25:40Z</time>
      </trkpt>
      <trkpt lat="49.11507" lon="-1.34433">
        <ele>76.79584</ele>
        <time>2015-06-04T17:25:45Z</time>
      </trkpt>
      <trkpt lat="49.11507" lon="-1.34436">
        <ele>76.79584</ele>
        <time>2015-06-04T17:25:50Z</time>
      </trkpt>
      <trkpt lat="49.11508" lon="-1.34443">
        <ele>76.033554</ele>
        <time>2015-06-04T17:25:55Z</time>
      </trkpt>
      <trkpt lat="49.11511" lon="-1.34446">
        <ele>76.033554</ele>
        <time>2015-06-04T17:26:00Z</time>
      </trkpt>
      <trkpt lat="49.11514" lon="-1.34446">
        <ele>76.033554</ele>
        <time>2015-06-04T17:26:05Z</time>
      </trkpt>
      <trkpt lat="49.11517" lon="-1.34447">
        <ele>75.49168</ele>
        <time>2015-06-04T17:26:10Z</time>
      </trkpt>
      <trkpt lat="49.11521" lon="-1.34445">
        <ele>75.49168</ele>
        <time>2015-06-04T17:26:15Z</time>
      </trkpt>
      <trkpt lat="49.11527" lon="-1.34442">
        <ele>75.096954</ele>
        <time>2015-06-04T17:26:20Z</time>
      </trkpt>
      <trkpt lat="49.11532" lon="-1.34441">
        <ele>75.096954</ele>
        <time>2015-06-04T17:26:25Z</time>
      </trkpt>
      <trkpt lat="49.11538" lon="-1.34439">
        <ele>74.82431</ele>
        <time>2015-06-04T17:26:30Z</time>
      </trkpt>
      <trkpt lat="49.11546" lon="-1.34437">
        <ele>74.82431</ele>
        <time>2015-06-04T17:26:35Z</time>
      </trkpt>
      <trkpt lat="49.11548" lon="-1.34436">
        <ele>74.60687</ele>
        <time>2015-06-04T17:26:40Z</time>
      </trkpt>
      <trkpt lat="49.11547" lon="-1.34438">
        <ele>74.60687</ele>
        <time>2015-06-04T17:26:45Z</time>
      </trkpt>
      <trkpt lat="49.11548" lon="-1.34439">
        <ele>74.60687</ele>
        <time>2015-06-04T17:26:50Z</time>
      </trkpt>
      <trkpt lat="49.11549" lon="-1.34439">
        <ele>74.60687</ele>
        <time>2015-06-04T17:26:55Z</time>
      </trkpt>
      <trkpt lat="49.11549" lon="-1.34438">
        <ele>74.60687</ele>
        <time>2015-06-04T17:27:00Z</time>
      </trkpt>
      <trkpt lat="49.1155" lon="-1.34439">
        <ele>74.60687</ele>
        <time>2015-06-04T17:27:05Z</time>
      </trkpt>
      <trkpt lat="49.1155" lon="-1.34443">
        <ele>74.60687</ele>
        <time>2015-06-04T17:27:10Z</time>
      </trkpt>
      <trkpt lat="49.11555" lon="-1.3445">
        <ele>74.69958</ele>
        <time>2015-06-04T17:27:15Z</time>
      </trkpt>
      <trkpt lat="49.11557" lon="-1.34454">
        <ele>74.69958</ele>
        <time>2015-06-04T17:27:20Z</time>
      </trkpt>
      <trkpt lat="49.11559" lon="-1.34461">
        <ele>74.69958</ele>
        <time>2015-06-04T17:27:25Z</time>
      </trkpt>
      <trkpt lat="49.11562" lon="-1.34468">
        <ele>74.804504</ele>
        <time>2015-06-04T17:27:30Z</time>
      </trkpt>
      <trkpt lat="49.11565" lon="-1.34471">
        <ele>74.804504</ele>
        <time>2015-06-04T17:27:35Z</time>
      </trkpt>
      <trkpt lat="49.11569" lon="-1.34478">
        <ele>74.9338</ele>
        <time>2015-06-04T17:27:40Z</time>
      </trkpt>
      <trkpt lat="49.11571" lon="-1.34484">
        <ele>74.9338</ele>
        <time>2015-06-04T17:27:45Z</time>
      </trkpt>
      <trkpt lat="49.11576" lon="-1.34491">
        <ele>75.18509</ele>
        <time>2015-06-04T17:27:50Z</time>
      </trkpt>
      <trkpt lat="49.11579" lon="-1.34497">
        <ele>75.18509</ele>
        <time>2015-06-04T17:27:55Z</time>
      </trkpt>
      <trkpt lat="49.11582" lon="-1.34502">
        <ele>75.59084</ele>
        <time>2015-06-04T17:28:00Z</time>
      </trkpt>
      <trkpt lat="49.11585" lon="-1.34508">
        <ele>75.59084</ele>
        <time>2015-06-04T17:28:05Z</time>
      </trkpt>
      <trkpt lat="49.11589" lon="-1.34514">
        <ele>76.16629</ele>
        <time>2015-06-04T17:28:10Z</time>
      </trkpt>
      <trkpt lat="49.11591" lon="-1.34519">
        <ele>76.16629</ele>
        <time>2015-06-04T17:28:15Z</time>
      </trkpt>
      <trkpt lat="49.11597" lon="-1.34524">
        <ele>76.96831</ele>
        <time>2015-06-04T17:28:20Z</time>
      </trkpt>
      <trkpt lat="49.11602" lon="-1.3453">
        <ele>76.96831</ele>
        <time>2015-06-04T17:28:25Z</time>
      </trkpt>
      <trkpt lat="49.11607" lon="-1.34533">
        <ele>78.03456</ele>
        <time>2015-06-04T17:28:30Z</time>
      </trkpt>
      <trkpt lat="49.11613" lon="-1.34532">
        <ele>78.03456</ele>
        <time>2015-06-04T17:28:35Z</time>
      </trkpt>
      <trkpt lat="49.1162" lon="-1.34527">
        <ele>79.111015</ele>
        <time>2015-06-04T17:28:40Z</time>
      </trkpt>
      <trkpt lat="49.11624" lon="-1.34524">
        <ele>79.111015</ele>
        <time>2015-06-04T17:28:45Z</time>
      </trkpt>
      <trkpt lat="49.1163" lon="-1.34518">
        <ele>80.17845</ele>
        <time>2015-06-04T17:28:50Z</time>
      </trkpt>
      <trkpt lat="49.11635" lon="-1.34514">
        <ele>80.17845</ele>
        <time>2015-06-04T17:28:55Z</time>
      </trkpt>
      <trkpt lat="49.11641" lon="-1.34511">
        <ele>81.20473</ele>
        <time>2015-06-04T17:29:00Z</time>
      </trkpt>
      <trkpt lat="49.11646" lon="-1.34506">
        <ele>81.20473</ele>
        <time>2015-06-04T17:29:05Z</time>
      </trkpt>
      <trkpt lat="49.11651" lon="-1.34503">
        <ele>82.18905</ele>
        <time>2015-06-04T17:29:10Z</time>
      </trkpt>
      <trkpt lat="49.11653" lon="-1.34502">
        <ele>82.18905</ele>
        <time>2015-06-04T17:29:15Z</time>
      </trkpt>
      <trkpt lat="49.11657" lon="-1.34497">
        <ele>82.18905</ele>
        <time>2015-06-04T17:29:20Z</time>
      </trkpt>
      <trkpt lat="49.11663" lon="-1.34494">
        <ele>83.11645</ele>
        <time>2015-06-04T17:29:25Z</time>
      </trkpt>
      <trkpt lat="49.11669" lon="-1.3449">
        <ele>83.11645</ele>
        <time>2015-06-04T17:29:30Z</time>
      </trkpt>
      <trkpt lat="49.11674" lon="-1.34483">
        <ele>83.98768</ele>
        <time>2015-06-04T17:29:35Z</time>
      </trkpt>
      <trkpt lat="49.11679" lon="-1.34479">
        <ele>83.98768</ele>
        <time>2015-06-04T17:29:40Z</time>
      </trkpt>
      <trkpt lat="49.11684" lon="-1.34477">
        <ele>84.86131</ele>
        <time>2015-06-04T17:29:45Z</time>
      </trkpt>
      <trkpt lat="49.11691" lon="-1.34472">
        <ele>84.86131</ele>
        <time>2015-06-04T17:29:50Z</time>
      </trkpt>
      <trkpt lat="49.11696" lon="-1.34469">
        <ele>85.66201</ele>
        <time>2015-06-04T17:29:55Z</time>
      </trkpt>
      <trkpt lat="49.117" lon="-1.34465">
        <ele>85.66201</ele>
        <time>2015-06-04T17:30:00Z</time>
      </trkpt>
      <trkpt lat="49.11706" lon="-1.3446">
        <ele>86.40668</ele>
        <time>2015-06-04T17:30:05Z</time>
      </trkpt>
      <trkpt lat="49.11711" lon="-1.34457">
        <ele>86.40668</ele>
        <time>2015-06-04T17:30:10Z</time>
      </trkpt>
      <trkpt lat="49.11716" lon="-1.34453">
        <ele>87.11125</ele>
        <time>2015-06-04T17:30:15Z</time>
      </trkpt>
      <trkpt lat="49.11721" lon="-1.34451">
        <ele>87.11125</ele>
        <time>2015-06-04T17:30:20Z</time>
      </trkpt>
      <trkpt lat="49.11727" lon="-1.34447">
        <ele>87.76185</ele>
        <time>2015-06-04T17:30:25Z</time>
      </trkpt>
      <trkpt lat="49.11733" lon="-1.34442">
        <ele>87.76185</ele>
        <time>2015-06-04T17:30:30Z</time>
      </trkpt>
      <trkpt lat="49.11739" lon="-1.34438">
        <ele>88.36025</ele>
        <time>2015-06-04T17:30:35Z</time>
      </trkpt>
      <trkpt lat="49.11744" lon="-1.34436">
        <ele>88.36025</ele>
        <time>2015-06-04T17:30:40Z</time>
      </trkpt>
      <trkpt lat="49.1175" lon="-1.34432">
        <ele>88.92277</ele>
        <time>2015-06-04T17:30:45Z</time>
      </trkpt>
      <trkpt lat="49.11757" lon="-1.34429">
        <ele>88.92277</ele>
        <time>2015-06-04T17:30:50Z</time>
      </trkpt>
      <trkpt lat="49.11761" lon="-1.34423">
        <ele>89.407036</ele>
        <time>2015-06-04T17:30:55Z</time>
      </trkpt>
      <trkpt lat="49.11765" lon="-1.34418">
        <ele>89.407036</ele>
        <time>2015-06-04T17:31:00Z</time>
      </trkpt>
      <trkpt lat="49.1177" lon="-1.34414">
        <ele>89.86057</ele>
        <time>2015-06-04T17:31:05Z</time>
      </trkpt>
      <trkpt lat="49.11775" lon="-1.34411">
        <ele>89.86057</ele>
        <time>2015-06-04T17:31:10Z</time>
      </trkpt>
      <trkpt lat="49.11781" lon="-1.34407">
        <ele>90.313156</ele>
        <time>2015-06-04T17:31:15Z</time>
      </trkpt>
      <trkpt lat="49.11785" lon="-1.34405">
        <ele>90.313156</ele>
        <time>2015-06-04T17:31:20Z</time>
      </trkpt>
      <trkpt lat="49.11791" lon="-1.344">
        <ele>90.6916</ele>
        <time>2015-06-04T17:31:25Z</time>
      </trkpt>
      <trkpt lat="49.11796" lon="-1.34397">
        <ele>90.6916</ele>
        <time>2015-06-04T17:31:30Z</time>
      </trkpt>
      <trkpt lat="49.11802" lon="-1.34392">
        <ele>91.02923</ele>
        <time>2015-06-04T17:31:35Z</time>
      </trkpt>
      <trkpt lat="49.11805" lon="-1.34388">
        <ele>91.02923</ele>
        <time>2015-06-04T17:31:40Z</time>
      </trkpt>
      <trkpt lat="49.11811" lon="-1.34386">
        <ele>91.25625</ele>
        <time>2015-06-04T17:31:45Z</time>
      </trkpt>
      <trkpt lat="49.11817" lon="-1.34381">
        <ele>91.25625</ele>
        <time>2015-06-04T17:31:50Z</time>
      </trkpt>
      <trkpt lat="49.11822" lon="-1.3438">
        <ele>91.40924</ele>
        <time>2015-06-04T17:31:55Z</time>
      </trkpt>
      <trkpt lat="49.11828" lon="-1.34377">
        <ele>91.40924</ele>
        <time>2015-06-04T17:32:00Z</time>
      </trkpt>
      <trkpt lat="49.11832" lon="-1.34373">
        <ele>91.507965</ele>
        <time>2015-06-04T17:32:05Z</time>
      </trkpt>
      <trkpt lat="49.11837" lon="-1.34369">
        <ele>91.507965</ele>
        <time>2015-06-04T17:32:10Z</time>
      </trkpt>
      <trkpt lat="49.11841" lon="-1.34365">
        <ele>91.70063</ele>
        <time>2015-06-04T17:32:15Z</time>
      </trkpt>
      <trkpt lat="49.11848" lon="-1.34362">
        <ele>91.70063</ele>
        <time>2015-06-04T17:32:20Z</time>
      </trkpt>
      <trkpt lat="49.11854" lon="-1.34358">
        <ele>91.98026</ele>
        <time>2015-06-04T17:32:25Z</time>
      </trkpt>
      <trkpt lat="49.11861" lon="-1.34356">
        <ele>91.98026</ele>
        <time>2015-06-04T17:32:30Z</time>
      </trkpt>
      <trkpt lat="49.11866" lon="-1.34355">
        <ele>92.3546</ele>
        <time>2015-06-04T17:32:35Z</time>
      </trkpt>
      <trkpt lat="49.11873" lon="-1.34353">
        <ele>92.3546</ele>
        <time>2015-06-04T17:32:40Z</time>
      </trkpt>
      <trkpt lat="49.11879" lon="-1.34347">
        <ele>92.77296</ele>
        <time>2015-06-04T17:32:45Z</time>
      </trkpt>
      <trkpt lat="49.11884" lon="-1.34342">
        <ele>92.77296</ele>
        <time>2015-06-04T17:32:50Z</time>
      </trkpt>
      <trkpt lat="49.1189" lon="-1.34338">
        <ele>93.15948</ele>
        <time>2015-06-04T17:32:55Z</time>
      </trkpt>
      <trkpt lat="49.11895" lon="-1.34333">
        <ele>93.15948</ele>
        <time>2015-06-04T17:33:00Z</time>
      </trkpt>
      <trkpt lat="49.11899" lon="-1.34329">
        <ele>93.472824</ele>
        <time>2015-06-04T17:33:05Z</time>
      </trkpt>
      <trkpt lat="49.11904" lon="-1.34323">
        <ele>93.472824</ele>
        <time>2015-06-04T17:33:10Z</time>
      </trkpt>
      <trkpt lat="49.1191" lon="-1.3432">
        <ele>93.61732</ele>
        <time>2015-06-04T17:33:15Z</time>
      </trkpt>
      <trkpt lat="49.11915" lon="-1.34319">
        <ele>93.61732</ele>
        <time>2015-06-04T17:33:20Z</time>
      </trkpt>
      <trkpt lat="49.11921" lon="-1.34314">
        <ele>93.663315</ele>
        <time>2015-06-04T17:33:25Z</time>
      </trkpt>
      <trkpt lat="49.11925" lon="-1.34309">
        <ele>93.663315</ele>
        <time>2015-06-04T17:33:30Z</time>
      </trkpt>
      <trkpt lat="49.1193" lon="-1.34304">
        <ele>93.66193</ele>
        <time>2015-06-04T17:33:35Z</time>
      </trkpt>
      <trkpt lat="49.11934" lon="-1.34302">
        <ele>93.66193</ele>
        <time>2015-06-04T17:33:40Z</time>
      </trkpt>
      <trkpt lat="49.1194" lon="-1.34298">
        <ele>93.58861</ele>
        <time>2015-06-04T17:33:45Z</time>
      </trkpt>
      <trkpt lat="49.11946" lon="-1.34293">
        <ele>93.58861</ele>
        <time>2015-06-04T17:33:50Z</time>
      </trkpt>
      <trkpt lat="49.11952" lon="-1.34293">
        <ele>93.52172</ele>
        <time>2015-06-04T17:33:55Z</time>
      </trkpt>
      <trkpt lat="49.11958" lon="-1.34291">
        <ele>93.52172</ele>
        <time>2015-06-04T17:34:00Z</time>
      </trkpt>
      <trkpt lat="49.11963" lon="-1.34288">
        <ele>93.43301</ele>
        <time>2015-06-04T17:34:05Z</time>
      </trkpt>
      <trkpt lat="49.11969" lon="-1.34286">
        <ele>93.43301</ele>
        <time>2015-06-04T17:34:10Z</time>
      </trkpt>
      <trkpt lat="49.11974" lon="-1.34283">
        <ele>93.31076</ele>
        <time>2015-06-04T17:34:15Z</time>
      </trkpt>
      <trkpt lat="49.1198" lon="-1.34279">
        <ele>93.31076</ele>
        <time>2015-06-04T17:34:20Z</time>
      </trkpt>
      <trkpt lat="49.11987" lon="-1.34275">
        <ele>93.057785</ele>
        <time>2015-06-04T17:34:25Z</time>
      </trkpt>
      <trkpt lat="49.11991" lon="-1.3427">
        <ele>93.057785</ele>
        <time>2015-06-04T17:34:30Z</time>
      </trkpt>
      <trkpt lat="49.11995" lon="-1.34266">
        <ele>92.7285</ele>
        <time>2015-06-04T17:34:35Z</time>
      </trkpt>
      <trkpt lat="49.11999" lon="-1.34264">
        <ele>92.7285</ele>
        <time>2015-06-04T17:34:40Z</time>
      </trkpt>
      <trkpt lat="49.12005" lon="-1.34259">
        <ele>92.47443</ele>
        <time>2015-06-04T17:34:45Z</time>
      </trkpt>
      <trkpt lat="49.12009" lon="-1.34253">
        <ele>92.47443</ele>
        <time>2015-06-04T17:34:50Z</time>
      </trkpt>
      <trkpt lat="49.12014" lon="-1.34247">
        <ele>92.32044</ele>
        <time>2015-06-04T17:34:55Z</time>
      </trkpt>
      <trkpt lat="49.1202" lon="-1.34241">
        <ele>92.32044</ele>
        <time>2015-06-04T17:35:00Z</time>
      </trkpt>
      <trkpt lat="49.12022" lon="-1.34238">
        <ele>92.23169</ele>
        <time>2015-06-04T17:35:05Z</time>
      </trkpt>
      <trkpt lat="49.12026" lon="-1.34233">
        <ele>92.23169</ele>
        <time>2015-06-04T17:35:10Z</time>
      </trkpt>
      <trkpt lat="49.12031" lon="-1.34227">
        <ele>92.16123</ele>
        <time>2015-06-04T17:35:15Z</time>
      </trkpt>
      <trkpt lat="49.12035" lon="-1.34224">
        <ele>92.16123</ele>
        <time>2015-06-04T17:35:20Z</time>
      </trkpt>
      <trkpt lat="49.1204" lon="-1.34219">
        <ele>92.079956</ele>
        <time>2015-06-04T17:35:25Z</time>
      </trkpt>
      <trkpt lat="49.12045" lon="-1.34215">
        <ele>92.079956</ele>
        <time>2015-06-04T17:35:30Z</time>
      </trkpt>
      <trkpt lat="49.12052" lon="-1.34208">
        <ele>91.98971</ele>
        <time>2015-06-04T17:35:35Z</time>
      </trkpt>
      <trkpt lat="49.12057" lon="-1.34206">
        <ele>91.98971</ele>
        <time>2015-06-04T17:35:40Z</time>
      </trkpt>
      <trkpt lat="49.12061" lon="-1.34202">
        <ele>92.02192</ele>
        <time>2015-06-04T17:35:45Z</time>
      </trkpt>
      <trkpt lat="49.12065" lon="-1.34199">
        <ele>92.02192</ele>
        <time>2015-06-04T17:35:50Z</time>
      </trkpt>
      <trkpt lat="49.12071" lon="-1.34195">
        <ele>92.09622</ele>
        <time>2015-06-04T17:35:55Z</time>
      </trkpt>
      <trkpt lat="49.12076" lon="-1.34191">
        <ele>92.09622</ele>
        <time>2015-06-04T17:36:00Z</time>
      </trkpt>
      <trkpt lat="49.12082" lon="-1.34188">
        <ele>92.23892</ele>
        <time>2015-06-04T17:36:05Z</time>
      </trkpt>
      <trkpt lat="49.12087" lon="-1.34185">
        <ele>92.23892</ele>
        <time>2015-06-04T17:36:10Z</time>
      </trkpt>
      <trkpt lat="49.12092" lon="-1.34183">
        <ele>92.459755</ele>
        <time>2015-06-04T17:36:15Z</time>
      </trkpt>
      <trkpt lat="49.12098" lon="-1.34178">
        <ele>92.459755</ele>
        <time>2015-06-04T17:36:20Z</time>
      </trkpt>
      <trkpt lat="49.12104" lon="-1.34176">
        <ele>92.637794</ele>
        <time>2015-06-04T17:36:25Z</time>
      </trkpt>
      <trkpt lat="49.12109" lon="-1.34175">
        <ele>92.637794</ele>
        <time>2015-06-04T17:36:30Z</time>
      </trkpt>
      <trkpt lat="49.12115" lon="-1.3417">
        <ele>92.81964</ele>
        <time>2015-06-04T17:36:35Z</time>
      </trkpt>
      <trkpt lat="49.1212" lon="-1.34167">
        <ele>92.81964</ele>
        <time>2015-06-04T17:36:40Z</time>
      </trkpt>
      <trkpt lat="49.12125" lon="-1.34164">
        <ele>93.09167</ele>
        <time>2015-06-04T17:36:45Z</time>
      </trkpt>
      <trkpt lat="49.12132" lon="-1.34161">
        <ele>93.09167</ele>
        <time>2015-06-04T17:36:50Z</time>
      </trkpt>
      <trkpt lat="49.12136" lon="-1.34155">
        <ele>93.418335</ele>
        <time>2015-06-04T17:36:55Z</time>
      </trkpt>
      <trkpt lat="49.12141" lon="-1.34151">
        <ele>93.418335</ele>
        <time>2015-06-04T17:37:00Z</time>
      </trkpt>
      <trkpt lat="49.12148" lon="-1.34149">
        <ele>93.881836</ele>
        <time>2015-06-04T17:37:05Z</time>
      </trkpt>
      <trkpt lat="49.12154" lon="-1.34148">
        <ele>93.881836</ele>
        <time>2015-06-04T17:37:10Z</time>
      </trkpt>
      <trkpt lat="49.12156" lon="-1.34147">
        <ele>93.881836</ele>
        <time>2015-06-04T17:37:15Z</time>
      </trkpt>
      <trkpt lat="49.12156" lon="-1.34144">
        <ele>94.44266</ele>
        <time>2015-06-04T17:37:20Z</time>
      </trkpt>
      <trkpt lat="49.12155" lon="-1.34138">
        <ele>94.44266</ele>
        <time>2015-06-04T17:37:25Z</time>
      </trkpt>
      <trkpt lat="49.12156" lon="-1.34137">
        <ele>94.44266</ele>
        <time>2015-06-04T17:37:30Z</time>
      </trkpt>
      <trkpt lat="49.12159" lon="-1.34135">
        <ele>94.44266</ele>
        <time>2015-06-04T17:37:35Z</time>
      </trkpt>
      <trkpt lat="49.12158" lon="-1.34133">
        <ele>94.90537</ele>
        <time>2015-06-04T17:37:40Z</time>
      </trkpt>
      <trkpt lat="49.12155" lon="-1.34131">
        <ele>94.90537</ele>
        <time>2015-06-04T17:37:45Z</time>
      </trkpt>
      <trkpt lat="49.12155" lon="-1.34132">
        <ele>94.90537</ele>
        <time>2015-06-04T17:37:50Z</time>
      </trkpt>
      <trkpt lat="49.12155" lon="-1.34134">
        <ele>94.90537</ele>
        <time>2015-06-04T17:37:55Z</time>
      </trkpt>
      <trkpt lat="49.12156" lon="-1.34135">
        <ele>94.90537</ele>
        <time>2015-06-04T17:38:00Z</time>
      </trkpt>
      <trkpt lat="49.12154" lon="-1.34136">
        <ele>94.90537</ele>
        <time>2015-06-04T17:38:05Z</time>
      </trkpt>
      <trkpt lat="49.12153" lon="-1.34139">
        <ele>95.29092</ele>
        <time>2015-06-04T17:38:10Z</time>
      </trkpt>
      <trkpt lat="49.12152" lon="-1.34142">
        <ele>95.29092</ele>
        <time>2015-06-04T17:38:15Z</time>
      </trkpt>
      <trkpt lat="49.12152" lon="-1.34141">
        <ele>95.29092</ele>
        <time>2015-06-04T17:38:20Z</time>
      </trkpt>
      <trkpt lat="49.12152" lon="-1.3414">
        <ele>95.29092</ele>
        <time>2015-06-04T17:38:25Z</time>
      </trkpt>
      <trkpt lat="49.1215" lon="-1.3414">
        <ele>95.29092</ele>
        <time>2015-06-04T17:38:30Z</time>
      </trkpt>
      <trkpt lat="49.1215" lon="-1.3414">
        <ele>95.29092</ele>
        <time>2015-06-04T17:38:35Z</time>
      </trkpt>
      <trkpt lat="49.12151" lon="-1.3414">
        <ele>95.29092</ele>
        <time>2015-06-04T17:38:40Z</time>
      </trkpt>
      <trkpt lat="49.12152" lon="-1.34138">
        <ele>95.29092</ele>
        <time>2015-06-04T17:38:45Z</time>
      </trkpt>
      <trkpt lat="49.12155" lon="-1.34139">
        <ele>95.33071</ele>
        <time>2015-06-04T17:38:50Z</time>
      </trkpt>
      <trkpt lat="49.12159" lon="-1.34137">
        <ele>95.33071</ele>
        <time>2015-06-04T17:38:55Z</time>
      </trkpt>
      <trkpt lat="49.12164" lon="-1.34137">
        <ele>95.15152</ele>
        <time>2015-06-04T17:39:00Z</time>
      </trkpt>
      <trkpt lat="49.12166" lon="-1.34138">
        <ele>95.15152</ele>
        <time>2015-06-04T17:39:05Z</time>
      </trkpt>
      <trkpt lat="49.12171" lon="-1.34138">
        <ele>95.15152</ele>
        <time>2015-06-04T17:39:10Z</time>
      </trkpt>
      <trkpt lat="49.12177" lon="-1.34137">
        <ele>94.97232</ele>
        <time>2015-06-04T17:39:15Z</time>
      </trkpt>
      <trkpt lat="49.12182" lon="-1.34137">
        <ele>94.97232</ele>
        <time>2015-06-04T17:39:20Z</time>
      </trkpt>
      <trkpt lat="49.12185" lon="-1.34135">
        <ele>94.97232</ele>
        <time>2015-06-04T17:39:25Z</time>
      </trkpt>
      <trkpt lat="49.12186" lon="-1.3413">
        <ele>94.65011</ele>
        <time>2015-06-04T17:39:30Z</time>
      </trkpt>
      <trkpt lat="49.12187" lon="-1.34128">
        <ele>94.65011</ele>
        <time>2015-06-04T17:39:35Z</time>
      </trkpt>
      <trkpt lat="49.12189" lon="-1.34124">
        <ele>94.65011</ele>
        <time>2015-06-04T17:39:40Z</time>
      </trkpt>
      <trkpt lat="49.1219" lon="-1.34124">
        <ele>94.65011</ele>
        <time>2015-06-04T17:39:45Z</time>
      </trkpt>
      <trkpt lat="49.12191" lon="-1.34124">
        <ele>94.65011</ele>
        <time>2015-06-04T17:39:50Z</time>
      </trkpt>
      <trkpt lat="49.12192" lon="-1.34124">
        <ele>94.65011</ele>
        <time>2015-06-04T17:39:55Z</time>
      </trkpt>
      <trkpt lat="49.12193" lon="-1.34124">
        <ele>94.65011</ele>
        <time>2015-06-04T17:40:00Z</time>
      </trkpt>
      <trkpt lat="49.12192" lon="-1.34124">
        <ele>94.65011</ele>
        <time>2015-06-04T17:40:05Z</time>
      </trkpt>
      <trkpt lat="49.12192" lon="-1.34126">
        <ele>93.87984</ele>
        <time>2015-06-04T17:40:10Z</time>
      </trkpt>
      <trkpt lat="49.12191" lon="-1.34127">
        <ele>93.87984</ele>
        <time>2015-06-04T17:40:15Z</time>
      </trkpt>
      <trkpt lat="49.12192" lon="-1.34129">
        <ele>93.87984</ele>
        <time>2015-06-04T17:40:20Z</time>
      </trkpt>
      <trkpt lat="49.12193" lon="-1.34132">
        <ele>93.87984</ele>
        <time>2015-06-04T17:40:25Z</time>
      </trkpt>
      <trkpt lat="49.12192" lon="-1.34133">
        <ele>93.87984</ele>
        <time>2015-06-04T17:40:30Z</time>
      </trkpt>
      <trkpt lat="49.1219" lon="-1.34133">
        <ele>93.87984</ele>
        <time>2015-06-04T17:40:35Z</time>
      </trkpt>
      <trkpt lat="49.12189" lon="-1.34133">
        <ele>93.345665</ele>
        <time>2015-06-04T17:40:40Z</time>
      </trkpt>
      <trkpt lat="49.12187" lon="-1.34131">
        <ele>93.345665</ele>
        <time>2015-06-04T17:40:45Z</time>
      </trkpt>
      <trkpt lat="49.12186" lon="-1.34129">
        <ele>93.345665</ele>
        <time>2015-06-04T17:40:50Z</time>
      </trkpt>
      <trkpt lat="49.12186" lon="-1.34128">
        <ele>93.345665</ele>
        <time>2015-06-04T17:40:55Z</time>
      </trkpt>
      <trkpt lat="49.12187" lon="-1.34127">
        <ele>93.345665</ele>
        <time>2015-06-04T17:41:00Z</time>
      </trkpt>
      <trkpt lat="49.12188" lon="-1.34126">
        <ele>93.345665</ele>
        <time>2015-06-04T17:41:05Z</time>
      </trkpt>
      <trkpt lat="49.12189" lon="-1.34127">
        <ele>93.345665</ele>
        <time>2015-06-04T17:41:10Z</time>
      </trkpt>
      <trkpt lat="49.1219" lon="-1.3413">
        <ele>92.84497</ele>
        <time>2015-06-04T17:41:15Z</time>
      </trkpt>
      <trkpt lat="49.12191" lon="-1.34131">
        <ele>92.84497</ele>
        <time>2015-06-04T17:41:20Z</time>
      </trkpt>
      <trkpt lat="49.12194" lon="-1.34126">
        <ele>92.84497</ele>
        <time>2015-06-04T17:41:25Z</time>
      </trkpt>
      <trkpt lat="49.12195" lon="-1.34121">
        <ele>92.31958</ele>
        <time>2015-06-04T17:41:30Z</time>
      </trkpt>
      <trkpt lat="49.12198" lon="-1.34113">
        <ele>92.31958</ele>
        <time>2015-06-04T17:41:35Z</time>
      </trkpt>
      <trkpt lat="49.122" lon="-1.34102">
        <ele>91.80212</ele>
        <time>2015-06-04T17:41:40Z</time>
      </trkpt>
      <trkpt lat="49.12203" lon="-1.34093">
        <ele>91.80212</ele>
        <time>2015-06-04T17:41:45Z</time>
      </trkpt>
      <trkpt lat="49.12205" lon="-1.34085">
        <ele>91.2795</ele>
        <time>2015-06-04T17:41:50Z</time>
      </trkpt>
      <trkpt lat="49.12207" lon="-1.34077">
        <ele>91.2795</ele>
        <time>2015-06-04T17:41:55Z</time>
      </trkpt>
      <trkpt lat="49.12207" lon="-1.34071">
        <ele>90.62434</ele>
        <time>2015-06-04T17:42:00Z</time>
      </trkpt>
      <trkpt lat="49.12206" lon="-1.34061">
        <ele>90.62434</ele>
        <time>2015-06-04T17:42:05Z</time>
      </trkpt>
      <trkpt lat="49.12205" lon="-1.34053">
        <ele>89.935036</ele>
        <time>2015-06-04T17:42:10Z</time>
      </trkpt>
      <trkpt lat="49.12204" lon="-1.34044">
        <ele>89.935036</ele>
        <time>2015-06-04T17:42:15Z</time>
      </trkpt>
      <trkpt lat="49.12202" lon="-1.34038">
        <ele>89.34611</ele>
        <time>2015-06-04T17:42:20Z</time>
      </trkpt>
      <trkpt lat="49.12199" lon="-1.3403">
        <ele>89.34611</ele>
        <time>2015-06-04T17:42:25Z</time>
      </trkpt>
      <trkpt lat="49.12195" lon="-1.34019">
        <ele>88.86655</ele>
        <time>2015-06-04T17:42:30Z</time>
      </trkpt>
      <trkpt lat="49.12191" lon="-1.34013">
        <ele>88.86655</ele>
        <time>2015-06-04T17:42:35Z</time>
      </trkpt>
      <trkpt lat="49.12188" lon="-1.34003">
        <ele>88.54757</ele>
        <time>2015-06-04T17:42:40Z</time>
      </trkpt>
      <trkpt lat="49.12188" lon="-1.33996">
        <ele>88.54757</ele>
        <time>2015-06-04T17:42:45Z</time>
      </trkpt>
      <trkpt lat="49.12189" lon="-1.33988">
        <ele>88.292015</ele>
        <time>2015-06-04T17:42:50Z</time>
      </trkpt>
      <trkpt lat="49.12195" lon="-1.33982">
        <ele>88.292015</ele>
        <time>2015-06-04T17:42:55Z</time>
      </trkpt>
      <trkpt lat="49.12199" lon="-1.33979">
        <ele>88.10759</ele>
        <time>2015-06-04T17:43:00Z</time>
      </trkpt>
      <trkpt lat="49.12202" lon="-1.33975">
        <ele>87.923164</ele>
        <time>2015-06-04T17:43:05Z</time>
      </trkpt>
      <trkpt lat="49.12209" lon="-1.33972">
        <ele>87.923164</ele>
        <time>2015-06-04T17:43:10Z</time>
      </trkpt>
      <trkpt lat="49.12212" lon="-1.33969">
        <ele>87.34962</ele>
        <time>2015-06-04T17:43:15Z</time>
      </trkpt>
      <trkpt lat="49.12218" lon="-1.33964">
        <ele>87.34962</ele>
        <time>2015-06-04T17:43:20Z</time>
      </trkpt>
      <trkpt lat="49.12222" lon="-1.33961">
        <ele>86.7466</ele>
        <time>2015-06-04T17:43:25Z</time>
      </trkpt>
      <trkpt lat="49.12226" lon="-1.33957">
        <ele>86.7466</ele>
        <time>2015-06-04T17:43:30Z</time>
      </trkpt>
      <trkpt lat="49.12229" lon="-1.33957">
        <ele>86.7466</ele>
        <time>2015-06-04T17:43:35Z</time>
      </trkpt>
      <trkpt lat="49.12232" lon="-1.33953">
        <ele>86.27649</ele>
        <time>2015-06-04T17:43:40Z</time>
      </trkpt>
      <trkpt lat="49.12234" lon="-1.33948">
        <ele>86.27649</ele>
        <time>2015-06-04T17:43:45Z</time>
      </trkpt>
      <trkpt lat="49.12238" lon="-1.33944">
        <ele>86.27649</ele>
        <time>2015-06-04T17:43:50Z</time>
      </trkpt>
      <trkpt lat="49.12244" lon="-1.3394">
        <ele>85.88759</ele>
        <time>2015-06-04T17:43:55Z</time>
      </trkpt>
      <trkpt lat="49.12247" lon="-1.33937">
        <ele>85.88759</ele>
        <time>2015-06-04T17:44:00Z</time>
      </trkpt>
      <trkpt lat="49.12251" lon="-1.33934">
        <ele>85.88759</ele>
        <time>2015-06-04T17:44:05Z</time>
      </trkpt>
      <trkpt lat="49.12259" lon="-1.33929">
        <ele>85.44522</ele>
        <time>2015-06-04T17:44:10Z</time>
      </trkpt>
      <trkpt lat="49.12265" lon="-1.33924">
        <ele>85.44522</ele>
        <time>2015-06-04T17:44:15Z</time>
      </trkpt>
      <trkpt lat="49.12271" lon="-1.33918">
        <ele>85.14176</ele>
        <time>2015-06-04T17:44:20Z</time>
      </trkpt>
      <trkpt lat="49.12275" lon="-1.3391">
        <ele>85.14176</ele>
        <time>2015-06-04T17:44:25Z</time>
      </trkpt>
      <trkpt lat="49.1228" lon="-1.33904">
        <ele>85.03973</ele>
        <time>2015-06-04T17:44:30Z</time>
      </trkpt>
      <trkpt lat="49.12283" lon="-1.33896">
        <ele>85.03973</ele>
        <time>2015-06-04T17:44:35Z</time>
      </trkpt>
      <trkpt lat="49.12287" lon="-1.33888">
        <ele>85.13879</ele>
        <time>2015-06-04T17:44:40Z</time>
      </trkpt>
      <trkpt lat="49.1229" lon="-1.3388">
        <ele>85.13879</ele>
        <time>2015-06-04T17:44:45Z</time>
      </trkpt>
      <trkpt lat="49.12293" lon="-1.33872">
        <ele>85.38037</ele>
        <time>2015-06-04T17:44:50Z</time>
      </trkpt>
      <trkpt lat="49.12298" lon="-1.33864">
        <ele>85.38037</ele>
        <time>2015-06-04T17:44:55Z</time>
      </trkpt>
      <trkpt lat="49.12305" lon="-1.33859">
        <ele>85.709785</ele>
        <time>2015-06-04T17:45:00Z</time>
      </trkpt>
      <trkpt lat="49.1231" lon="-1.33854">
        <ele>85.709785</ele>
        <time>2015-06-04T17:45:05Z</time>
      </trkpt>
      <trkpt lat="49.12315" lon="-1.33842">
        <ele>85.960785</ele>
        <time>2015-06-04T17:45:10Z</time>
      </trkpt>
      <trkpt lat="49.12318" lon="-1.33836">
        <ele>85.960785</ele>
        <time>2015-06-04T17:45:15Z</time>
      </trkpt>
      <trkpt lat="49.12324" lon="-1.3383">
        <ele>86.0804</ele>
        <time>2015-06-04T17:45:20Z</time>
      </trkpt>
      <trkpt lat="49.1233" lon="-1.33823">
        <ele>86.0804</ele>
        <time>2015-06-04T17:45:25Z</time>
      </trkpt>
      <trkpt lat="49.12333" lon="-1.33815">
        <ele>86.135185</ele>
        <time>2015-06-04T17:45:30Z</time>
      </trkpt>
      <trkpt lat="49.12336" lon="-1.33808">
        <ele>86.135185</ele>
        <time>2015-06-04T17:45:35Z</time>
      </trkpt>
      <trkpt lat="49.12341" lon="-1.33799">
        <ele>86.11493</ele>
        <time>2015-06-04T17:45:40Z</time>
      </trkpt>
      <trkpt lat="49.12345" lon="-1.33794">
        <ele>86.11493</ele>
        <time>2015-06-04T17:45:45Z</time>
      </trkpt>
      <trkpt lat="49.12346" lon="-1.33784">
        <ele>86.08241</ele>
        <time>2015-06-04T17:45:50Z</time>
      </trkpt>
      <trkpt lat="49.12348" lon="-1.33776">
        <ele>86.08241</ele>
        <time>2015-06-04T17:45:55Z</time>
      </trkpt>
      <trkpt lat="49.12352" lon="-1.33766">
        <ele>85.98052</ele>
        <time>2015-06-04T17:46:00Z</time>
      </trkpt>
      <trkpt lat="49.12354" lon="-1.33756">
        <ele>85.98052</ele>
        <time>2015-06-04T17:46:05Z</time>
      </trkpt>
      <trkpt lat="49.12356" lon="-1.33748">
        <ele>85.84302</ele>
        <time>2015-06-04T17:46:10Z</time>
      </trkpt>
      <trkpt lat="49.1236" lon="-1.3374">
        <ele>85.84302</ele>
        <time>2015-06-04T17:46:15Z</time>
      </trkpt>
      <trkpt lat="49.12363" lon="-1.33731">
        <ele>85.701256</ele>
        <time>2015-06-04T17:46:20Z</time>
      </trkpt>
      <trkpt lat="49.12365" lon="-1.33722">
        <ele>85.701256</ele>
        <time>2015-06-04T17:46:25Z</time>
      </trkpt>
      <trkpt lat="49.12367" lon="-1.33714">
        <ele>85.54105</ele>
        <time>2015-06-04T17:46:30Z</time>
      </trkpt>
      <trkpt lat="49.1237" lon="-1.33705">
        <ele>85.54105</ele>
        <time>2015-06-04T17:46:35Z</time>
      </trkpt>
      <trkpt lat="49.12373" lon="-1.33699">
        <ele>85.43578</ele>
        <time>2015-06-04T17:46:40Z</time>
      </trkpt>
      <trkpt lat="49.12376" lon="-1.3369">
        <ele>85.43578</ele>
        <time>2015-06-04T17:46:45Z</time>
      </trkpt>
      <trkpt lat="49.12378" lon="-1.33683">
        <ele>85.25153</ele>
        <time>2015-06-04T17:46:50Z</time>
      </trkpt>
      <trkpt lat="49.12381" lon="-1.33674">
        <ele>85.25153</ele>
        <time>2015-06-04T17:46:55Z</time>
      </trkpt>
      <trkpt lat="49.12383" lon="-1.33663">
        <ele>84.96529</ele>
        <time>2015-06-04T17:47:00Z</time>
      </trkpt>
      <trkpt lat="49.12386" lon="-1.33658">
        <ele>84.96529</ele>
        <time>2015-06-04T17:47:05Z</time>
      </trkpt>
      <trkpt lat="49.12389" lon="-1.33647">
        <ele>84.46956</ele>
        <time>2015-06-04T17:47:10Z</time>
      </trkpt>
      <trkpt lat="49.12391" lon="-1.33635">
        <ele>84.46956</ele>
        <time>2015-06-04T17:47:15Z</time>
      </trkpt>
      <trkpt lat="49.12393" lon="-1.33626">
        <ele>83.69415</ele>
        <time>2015-06-04T17:47:20Z</time>
      </trkpt>
      <trkpt lat="49.12396" lon="-1.33618">
        <ele>83.69415</ele>
        <time>2015-06-04T17:47:25Z</time>
      </trkpt>
      <trkpt lat="49.12398" lon="-1.33611">
        <ele>82.71891</ele>
        <time>2015-06-04T17:47:30Z</time>
      </trkpt>
      <trkpt lat="49.12401" lon="-1.33604">
        <ele>82.71891</ele>
        <time>2015-06-04T17:47:35Z</time>
      </trkpt>
      <trkpt lat="49.12406" lon="-1.33594">
        <ele>81.64719</ele>
        <time>2015-06-04T17:47:40Z</time>
      </trkpt>
      <trkpt lat="49.1241" lon="-1.33585">
        <ele>81.64719</ele>
        <time>2015-06-04T17:47:45Z</time>
      </trkpt>
      <trkpt lat="49.12414" lon="-1.33577">
        <ele>80.60381</ele>
        <time>2015-06-04T17:47:50Z</time>
      </trkpt>
      <trkpt lat="49.12418" lon="-1.33568">
        <ele>80.60381</ele>
        <time>2015-06-04T17:47:55Z</time>
      </trkpt>
      <trkpt lat="49.1242" lon="-1.33559">
        <ele>79.60347</ele>
        <time>2015-06-04T17:48:00Z</time>
      </trkpt>
      <trkpt lat="49.12423" lon="-1.33552">
        <ele>79.60347</ele>
        <time>2015-06-04T17:48:05Z</time>
      </trkpt>
      <trkpt lat="49.12425" lon="-1.33546">
        <ele>78.55873</ele>
        <time>2015-06-04T17:48:10Z</time>
      </trkpt>
      <trkpt lat="49.1243" lon="-1.33538">
        <ele>78.55873</ele>
        <time>2015-06-04T17:48:15Z</time>
      </trkpt>
      <trkpt lat="49.12435" lon="-1.3354">
        <ele>77.446335</ele>
        <time>2015-06-04T17:48:20Z</time>
      </trkpt>
      <trkpt lat="49.12439" lon="-1.33544">
        <ele>77.446335</ele>
        <time>2015-06-04T17:48:25Z</time>
      </trkpt>
      <trkpt lat="49.12441" lon="-1.33552">
        <ele>76.34575</ele>
        <time>2015-06-04T17:48:30Z</time>
      </trkpt>
      <trkpt lat="49.12442" lon="-1.33556">
        <ele>76.34575</ele>
        <time>2015-06-04T17:48:35Z</time>
      </trkpt>
      <trkpt lat="49.12442" lon="-1.33559">
        <ele>76.34575</ele>
        <time>2015-06-04T17:48:40Z</time>
      </trkpt>
      <trkpt lat="49.12445" lon="-1.33564">
        <ele>75.316124</ele>
        <time>2015-06-04T17:48:45Z</time>
      </trkpt>
      <trkpt lat="49.12448" lon="-1.33569">
        <ele>75.316124</ele>
        <time>2015-06-04T17:48:50Z</time>
      </trkpt>
      <trkpt lat="49.12451" lon="-1.33577">
        <ele>74.33995</ele>
        <time>2015-06-04T17:48:55Z</time>
      </trkpt>
      <trkpt lat="49.12455" lon="-1.33584">
        <ele>74.33995</ele>
        <time>2015-06-04T17:49:00Z</time>
      </trkpt>
      <trkpt lat="49.12458" lon="-1.33589">
        <ele>73.4873</ele>
        <time>2015-06-04T17:49:05Z</time>
      </trkpt>
      <trkpt lat="49.12462" lon="-1.33591">
        <ele>73.4873</ele>
        <time>2015-06-04T17:49:10Z</time>
      </trkpt>
      <trkpt lat="49.12465" lon="-1.33596">
        <ele>73.4873</ele>
        <time>2015-06-04T17:49:15Z</time>
      </trkpt>
      <trkpt lat="49.12468" lon="-1.336">
        <ele>72.664154</ele>
        <time>2015-06-04T17:49:20Z</time>
      </trkpt>
      <trkpt lat="49.12469" lon="-1.33603">
        <ele>72.664154</ele>
        <time>2015-06-04T17:49:25Z</time>
      </trkpt>
      <trkpt lat="49.1247" lon="-1.33607">
        <ele>72.664154</ele>
        <time>2015-06-04T17:49:30Z</time>
      </trkpt>
      <trkpt lat="49.12469" lon="-1.33611">
        <ele>72.664154</ele>
        <time>2015-06-04T17:49:35Z</time>
      </trkpt>
      <trkpt lat="49.1247" lon="-1.33614">
        <ele>72.10031</ele>
        <time>2015-06-04T17:49:40Z</time>
      </trkpt>
      <trkpt lat="49.12477" lon="-1.33622">
        <ele>72.10031</ele>
        <time>2015-06-04T17:49:45Z</time>
      </trkpt>
      <trkpt lat="49.12483" lon="-1.33629">
        <ele>71.835</ele>
        <time>2015-06-04T17:49:50Z</time>
      </trkpt>
      <trkpt lat="49.12486" lon="-1.33633">
        <ele>71.835</ele>
        <time>2015-06-04T17:49:55Z</time>
      </trkpt>
      <trkpt lat="49.12488" lon="-1.33643">
        <ele>71.99012</ele>
        <time>2015-06-04T17:50:00Z</time>
      </trkpt>
      <trkpt lat="49.1249" lon="-1.33647">
        <ele>71.99012</ele>
        <time>2015-06-04T17:50:05Z</time>
      </trkpt>
      <trkpt lat="49.12491" lon="-1.33648">
        <ele>71.99012</ele>
        <time>2015-06-04T17:50:10Z</time>
      </trkpt>
      <trkpt lat="49.12492" lon="-1.33649">
        <ele>71.99012</ele>
        <time>2015-06-04T17:50:15Z</time>
      </trkpt>
      <trkpt lat="49.12491" lon="-1.33651">
        <ele>71.99012</ele>
        <time>2015-06-04T17:50:20Z</time>
      </trkpt>
      <trkpt lat="49.12494" lon="-1.3365">
        <ele>72.547714</ele>
        <time>2015-06-04T17:50:25Z</time>
      </trkpt>
      <trkpt lat="49.12497" lon="-1.33649">
        <ele>72.547714</ele>
        <time>2015-06-04T17:50:30Z</time>
      </trkpt>
      <trkpt lat="49.125" lon="-1.33649">
        <ele>72.547714</ele>
        <time>2015-06-04T17:50:35Z</time>
      </trkpt>
      <trkpt lat="49.12502" lon="-1.33646">
        <ele>72.547714</ele>
        <time>2015-06-04T17:50:40Z</time>
      </trkpt>
      <trkpt lat="49.12506" lon="-1.33643">
        <ele>73.23057</ele>
        <time>2015-06-04T17:50:45Z</time>
      </trkpt>
      <trkpt lat="49.12509" lon="-1.33636">
        <ele>73.23057</ele>
        <time>2015-06-04T17:50:50Z</time>
      </trkpt>
      <trkpt lat="49.12512" lon="-1.33631">
        <ele>73.79588</ele>
        <time>2015-06-04T17:50:55Z</time>
      </trkpt>
      <trkpt lat="49.12519" lon="-1.33627">
        <ele>73.79588</ele>
        <time>2015-06-04T17:51:00Z</time>
      </trkpt>
      <trkpt lat="49.12524" lon="-1.33621">
        <ele>74.22073</ele>
        <time>2015-06-04T17:51:05Z</time>
      </trkpt>
      <trkpt lat="49.12528" lon="-1.33617">
        <ele>74.22073</ele>
        <time>2015-06-04T17:51:10Z</time>
      </trkpt>
      <trkpt lat="49.12531" lon="-1.33614">
        <ele>74.22073</ele>
        <time>2015-06-04T17:51:15Z</time>
      </trkpt>
      <trkpt lat="49.12535" lon="-1.33609">
        <ele>74.585175</ele>
        <time>2015-06-04T17:51:20Z</time>
      </trkpt>
      <trkpt lat="49.12538" lon="-1.33606">
        <ele>74.585175</ele>
        <time>2015-06-04T17:51:25Z</time>
      </trkpt>
      <trkpt lat="49.1254" lon="-1.336">
        <ele>74.585175</ele>
        <time>2015-06-04T17:51:30Z</time>
      </trkpt>
      <trkpt lat="49.12544" lon="-1.33593">
        <ele>74.992355</ele>
        <time>2015-06-04T17:51:35Z</time>
      </trkpt>
      <trkpt lat="49.12549" lon="-1.33586">
        <ele>74.992355</ele>
        <time>2015-06-04T17:51:40Z</time>
      </trkpt>
      <trkpt lat="49.12553" lon="-1.33583">
        <ele>75.56656</ele>
        <time>2015-06-04T17:51:45Z</time>
      </trkpt>
      <trkpt lat="49.12555" lon="-1.33583">
        <ele>75.56656</ele>
        <time>2015-06-04T17:51:50Z</time>
      </trkpt>
      <trkpt lat="49.1256" lon="-1.33578">
        <ele>75.56656</ele>
        <time>2015-06-04T17:51:55Z</time>
      </trkpt>
      <trkpt lat="49.12564" lon="-1.33571">
        <ele>76.11985</ele>
        <time>2015-06-04T17:52:00Z</time>
      </trkpt>
      <trkpt lat="49.12566" lon="-1.33568">
        <ele>76.11985</ele>
        <time>2015-06-04T17:52:05Z</time>
      </trkpt>
      <trkpt lat="49.1257" lon="-1.33562">
        <ele>76.11985</ele>
        <time>2015-06-04T17:52:10Z</time>
      </trkpt>
      <trkpt lat="49.12576" lon="-1.33555">
        <ele>76.80965</ele>
        <time>2015-06-04T17:52:15Z</time>
      </trkpt>
      <trkpt lat="49.12583" lon="-1.33549">
        <ele>76.80965</ele>
        <time>2015-06-04T17:52:20Z</time>
      </trkpt>
      <trkpt lat="49.12587" lon="-1.33545">
        <ele>77.536446</ele>
        <time>2015-06-04T17:52:25Z</time>
      </trkpt>
      <trkpt lat="49.1259" lon="-1.33548">
        <ele>77.536446</ele>
        <time>2015-06-04T17:52:30Z</time>
      </trkpt>
      <trkpt lat="49.12594" lon="-1.33551">
        <ele>77.536446</ele>
        <time>2015-06-04T17:52:35Z</time>
      </trkpt>
      <trkpt lat="49.12598" lon="-1.33554">
        <ele>78.06388</ele>
        <time>2015-06-04T17:52:40Z</time>
      </trkpt>
      <trkpt lat="49.12602" lon="-1.3356">
        <ele>78.06388</ele>
        <time>2015-06-04T17:52:45Z</time>
      </trkpt>
      <trkpt lat="49.12605" lon="-1.33566">
        <ele>78.60587</ele>
        <time>2015-06-04T17:52:50Z</time>
      </trkpt>
      <trkpt lat="49.12607" lon="-1.33571">
        <ele>78.60587</ele>
        <time>2015-06-04T17:52:55Z</time>
      </trkpt>
      <trkpt lat="49.12611" lon="-1.33577">
        <ele>79.18771</ele>
        <time>2015-06-04T17:53:00Z</time>
      </trkpt>
      <trkpt lat="49.12613" lon="-1.33583">
        <ele>79.18771</ele>
        <time>2015-06-04T17:53:05Z</time>
      </trkpt>
      <trkpt lat="49.12615" lon="-1.33587">
        <ele>79.18771</ele>
        <time>2015-06-04T17:53:10Z</time>
      </trkpt>
      <trkpt lat="49.12619" lon="-1.33594">
        <ele>79.703064</ele>
        <time>2015-06-04T17:53:15Z</time>
      </trkpt>
      <trkpt lat="49.12623" lon="-1.33598">
        <ele>79.703064</ele>
        <time>2015-06-04T17:53:20Z</time>
      </trkpt>
      <trkpt lat="49.12625" lon="-1.33603">
        <ele>79.703064</ele>
        <time>2015-06-04T17:53:25Z</time>
      </trkpt>
      <trkpt lat="49.12626" lon="-1.33606">
        <ele>80.3995</ele>
        <time>2015-06-04T17:53:30Z</time>
      </trkpt>
      <trkpt lat="49.12628" lon="-1.33612">
        <ele>80.3995</ele>
        <time>2015-06-04T17:53:35Z</time>
      </trkpt>
      <trkpt lat="49.12631" lon="-1.33614">
        <ele>80.3995</ele>
        <time>2015-06-04T17:53:40Z</time>
      </trkpt>
      <trkpt lat="49.12633" lon="-1.33617">
        <ele>80.98717</ele>
        <time>2015-06-04T17:53:45Z</time>
      </trkpt>
      <trkpt lat="49.12635" lon="-1.33623">
        <ele>80.98717</ele>
        <time>2015-06-04T17:53:50Z</time>
      </trkpt>
      <trkpt lat="49.12638" lon="-1.33629">
        <ele>81.65903</ele>
        <time>2015-06-04T17:53:55Z</time>
      </trkpt>
      <trkpt lat="49.12641" lon="-1.33636">
        <ele>81.65903</ele>
        <time>2015-06-04T17:54:00Z</time>
      </trkpt>
      <trkpt lat="49.12644" lon="-1.33642">
        <ele>82.42075</ele>
        <time>2015-06-04T17:54:05Z</time>
      </trkpt>
      <trkpt lat="49.12647" lon="-1.33648">
        <ele>82.42075</ele>
        <time>2015-06-04T17:54:10Z</time>
      </trkpt>
      <trkpt lat="49.12649" lon="-1.33651">
        <ele>82.42075</ele>
        <time>2015-06-04T17:54:15Z</time>
      </trkpt>
      <trkpt lat="49.1265" lon="-1.33655">
        <ele>83.11889</ele>
        <time>2015-06-04T17:54:20Z</time>
      </trkpt>
      <trkpt lat="49.12652" lon="-1.33661">
        <ele>83.11889</ele>
        <time>2015-06-04T17:54:25Z</time>
      </trkpt>
      <trkpt lat="49.12656" lon="-1.33662">
        <ele>83.11889</ele>
        <time>2015-06-04T17:54:30Z</time>
      </trkpt>
      <trkpt lat="49.1266" lon="-1.33665">
        <ele>83.957375</ele>
        <time>2015-06-04T17:54:35Z</time>
      </trkpt>
      <trkpt lat="49.12663" lon="-1.3367">
        <ele>83.957375</ele>
        <time>2015-06-04T17:54:40Z</time>
      </trkpt>
      <trkpt lat="49.12665" lon="-1.33674">
        <ele>83.957375</ele>
        <time>2015-06-04T17:54:45Z</time>
      </trkpt>
      <trkpt lat="49.12669" lon="-1.33683">
        <ele>84.96633</ele>
        <time>2015-06-04T17:54:50Z</time>
      </trkpt>
      <trkpt lat="49.12673" lon="-1.33691">
        <ele>84.96633</ele>
        <time>2015-06-04T17:54:55Z</time>
      </trkpt>
      <trkpt lat="49.12675" lon="-1.33695">
        <ele>86.13001</ele>
        <time>2015-06-04T17:55:00Z</time>
      </trkpt>
      <trkpt lat="49.12679" lon="-1.33699">
        <ele>86.13001</ele>
        <time>2015-06-04T17:55:05Z</time>
      </trkpt>
      <trkpt lat="49.12682" lon="-1.33703">
        <ele>86.13001</ele>
        <time>2015-06-04T17:55:10Z</time>
      </trkpt>
      <trkpt lat="49.12685" lon="-1.33709">
        <ele>87.39026</ele>
        <time>2015-06-04T17:55:15Z</time>
      </trkpt>
      <trkpt lat="49.12685" lon="-1.33717">
        <ele>87.39026</ele>
        <time>2015-06-04T17:55:20Z</time>
      </trkpt>
      <trkpt lat="49.12684" lon="-1.33724">
        <ele>88.69298</ele>
        <time>2015-06-04T17:55:25Z</time>
      </trkpt>
      <trkpt lat="49.12681" lon="-1.3373">
        <ele>88.69298</ele>
        <time>2015-06-04T17:55:30Z</time>
      </trkpt>
      <trkpt lat="49.12678" lon="-1.33738">
        <ele>90.10332</ele>
        <time>2015-06-04T17:55:35Z</time>
      </trkpt>
      <trkpt lat="49.12675" lon="-1.33744">
        <ele>90.10332</ele>
        <time>2015-06-04T17:55:40Z</time>
      </trkpt>
      <trkpt lat="49.12671" lon="-1.33752">
        <ele>91.6238</ele>
        <time>2015-06-04T17:55:45Z</time>
      </trkpt>
      <trkpt lat="49.12668" lon="-1.33756">
        <ele>91.6238</ele>
        <time>2015-06-04T17:55:50Z</time>
      </trkpt>
      <trkpt lat="49.12664" lon="-1.33764">
        <ele>93.04037</ele>
        <time>2015-06-04T17:55:55Z</time>
      </trkpt>
      <trkpt lat="49.12661" lon="-1.33769">
        <ele>93.04037</ele>
        <time>2015-06-04T17:56:00Z</time>
      </trkpt>
      <trkpt lat="49.12657" lon="-1.33776">
        <ele>94.385666</ele>
        <time>2015-06-04T17:56:05Z</time>
      </trkpt>
      <trkpt lat="49.12654" lon="-1.33781">
        <ele>94.385666</ele>
        <time>2015-06-04T17:56:10Z</time>
      </trkpt>
      <trkpt lat="49.12651" lon="-1.33788">
        <ele>95.70465</ele>
        <time>2015-06-04T17:56:15Z</time>
      </trkpt>
      <trkpt lat="49.12651" lon="-1.33787">
        <ele>95.70465</ele>
        <time>2015-06-04T17:56:20Z</time>
      </trkpt>
      <trkpt lat="49.12652" lon="-1.33787">
        <ele>95.70465</ele>
        <time>2015-06-04T17:56:25Z</time>
      </trkpt>
      <trkpt lat="49.12652" lon="-1.33784">
        <ele>95.70465</ele>
        <time>2015-06-04T17:56:30Z</time>
      </trkpt>
      <trkpt lat="49.12652" lon="-1.33784">
        <ele>95.70465</ele>
        <time>2015-06-04T17:56:35Z</time>
      </trkpt>
      <trkpt lat="49.1265" lon="-1.33789">
        <ele>95.70465</ele>
        <time>2015-06-04T17:56:40Z</time>
      </trkpt>
      <trkpt lat="49.12645" lon="-1.33799">
        <ele>97.06799</ele>
        <time>2015-06-04T17:56:45Z</time>
      </trkpt>
      <trkpt lat="49.12641" lon="-1.33805">
        <ele>97.06799</ele>
        <time>2015-06-04T17:56:50Z</time>
      </trkpt>
      <trkpt lat="49.12637" lon="-1.33812">
        <ele>98.224106</ele>
        <time>2015-06-04T17:56:55Z</time>
      </trkpt>
      <trkpt lat="49.12632" lon="-1.33819">
        <ele>98.224106</ele>
        <time>2015-06-04T17:57:00Z</time>
      </trkpt>
      <trkpt lat="49.12629" lon="-1.33825">
        <ele>99.12793</ele>
        <time>2015-06-04T17:57:05Z</time>
      </trkpt>
      <trkpt lat="49.12626" lon="-1.33831">
        <ele>99.12793</ele>
        <time>2015-06-04T17:57:10Z</time>
      </trkpt>
      <trkpt lat="49.12624" lon="-1.33838">
        <ele>99.983505</ele>
        <time>2015-06-04T17:57:15Z</time>
      </trkpt>
      <trkpt lat="49.12621" lon="-1.33844">
        <ele>99.983505</ele>
        <time>2015-06-04T17:57:20Z</time>
      </trkpt>
      <trkpt lat="49.12615" lon="-1.33853">
        <ele>100.80722</ele>
        <time>2015-06-04T17:57:25Z</time>
      </trkpt>
      <trkpt lat="49.12612" lon="-1.3386">
        <ele>100.80722</ele>
        <time>2015-06-04T17:57:30Z</time>
      </trkpt>
      <trkpt lat="49.12608" lon="-1.33866">
        <ele>101.60001</ele>
        <time>2015-06-04T17:57:35Z</time>
      </trkpt>
      <trkpt lat="49.12605" lon="-1.33872">
        <ele>101.60001</ele>
        <time>2015-06-04T17:57:40Z</time>
      </trkpt>
      <trkpt lat="49.12601" lon="-1.33879">
        <ele>102.37738</ele>
        <time>2015-06-04T17:57:45Z</time>
      </trkpt>
      <trkpt lat="49.12596" lon="-1.33885">
        <ele>102.37738</ele>
        <time>2015-06-04T17:57:50Z</time>
      </trkpt>
      <trkpt lat="49.12592" lon="-1.33889">
        <ele>103.09615</ele>
        <time>2015-06-04T17:57:55Z</time>
      </trkpt>
      <trkpt lat="49.12588" lon="-1.33897">
        <ele>103.09615</ele>
        <time>2015-06-04T17:58:00Z</time>
      </trkpt>
      <trkpt lat="49.12585" lon="-1.33904">
        <ele>103.774254</ele>
        <time>2015-06-04T17:58:05Z</time>
      </trkpt>
      <trkpt lat="49.12579" lon="-1.33911">
        <ele>103.774254</ele>
        <time>2015-06-04T17:58:10Z</time>
      </trkpt>
      <trkpt lat="49.12575" lon="-1.33916">
        <ele>104.37083</ele>
        <time>2015-06-04T17:58:15Z</time>
      </trkpt>
      <trkpt lat="49.1257" lon="-1.33923">
        <ele>104.37083</ele>
        <time>2015-06-04T17:58:20Z</time>
      </trkpt>
      <trkpt lat="49.12567" lon="-1.33928">
        <ele>104.87718</ele>
        <time>2015-06-04T17:58:25Z</time>
      </trkpt>
      <trkpt lat="49.12562" lon="-1.33935">
        <ele>104.87718</ele>
        <time>2015-06-04T17:58:30Z</time>
      </trkpt>
      <trkpt lat="49.12559" lon="-1.33941">
        <ele>105.3288</ele>
        <time>2015-06-04T17:58:35Z</time>
      </trkpt>
      <trkpt lat="49.12555" lon="-1.33946">
        <ele>105.3288</ele>
        <time>2015-06-04T17:58:40Z</time>
      </trkpt>
      <trkpt lat="49.12551" lon="-1.33953">
        <ele>105.859665</ele>
        <time>2015-06-04T17:58:45Z</time>
      </trkpt>
      <trkpt lat="49.12547" lon="-1.33957">
        <ele>105.859665</ele>
        <time>2015-06-04T17:58:50Z</time>
      </trkpt>
      <trkpt lat="49.12544" lon="-1.33962">
        <ele>106.39203</ele>
        <time>2015-06-04T17:58:55Z</time>
      </trkpt>
      <trkpt lat="49.1254" lon="-1.33966">
        <ele>106.39203</ele>
        <time>2015-06-04T17:59:00Z</time>
      </trkpt>
      <trkpt lat="49.12536" lon="-1.33971">
        <ele>106.96918</ele>
        <time>2015-06-04T17:59:05Z</time>
      </trkpt>
      <trkpt lat="49.12533" lon="-1.33975">
        <ele>106.96918</ele>
        <time>2015-06-04T17:59:10Z</time>
      </trkpt>
      <trkpt lat="49.12532" lon="-1.33974">
        <ele>106.96918</ele>
        <time>2015-06-04T17:59:15Z</time>
      </trkpt>
      <trkpt lat="49.12533" lon="-1.33975">
        <ele>106.96918</ele>
        <time>2015-06-04T17:59:20Z</time>
      </trkpt>
      <trkpt lat="49.12533" lon="-1.33976">
        <ele>106.96918</ele>
        <time>2015-06-04T17:59:25Z</time>
      </trkpt>
      <trkpt lat="49.12534" lon="-1.33976">
        <ele>106.96918</ele>
        <time>2015-06-04T17:59:30Z</time>
      </trkpt>
      <trkpt lat="49.12535" lon="-1.33977">
        <ele>107.45822</ele>
        <time>2015-06-04T17:59:35Z</time>
      </trkpt>
      <trkpt lat="49.12534" lon="-1.33978">
        <ele>107.45822</ele>
        <time>2015-06-04T17:59:40Z</time>
      </trkpt>
      <trkpt lat="49.12534" lon="-1.33978">
        <ele>107.45822</ele>
        <time>2015-06-04T17:59:45Z</time>
      </trkpt>
      <trkpt lat="49.12535" lon="-1.33977">
        <ele>107.45822</ele>
        <time>2015-06-04T17:59:50Z</time>
      </trkpt>
      <trkpt lat="49.12533" lon="-1.33978">
        <ele>107.45822</ele>
        <time>2015-06-04T17:59:55Z</time>
      </trkpt>
      <trkpt lat="49.12533" lon="-1.33983">
        <ele>107.45822</ele>
        <time>2015-06-04T18:00:00Z</time>
      </trkpt>
      <trkpt lat="49.12533" lon="-1.33988">
        <ele>107.9525</ele>
        <time>2015-06-04T18:00:05Z</time>
      </trkpt>
      <trkpt lat="49.12532" lon="-1.33996">
        <ele>107.9525</ele>
        <time>2015-06-04T18:00:10Z</time>
      </trkpt>
      <trkpt lat="49.12532" lon="-1.34006">
        <ele>108.53852</ele>
        <time>2015-06-04T18:00:15Z</time>
      </trkpt>
      <trkpt lat="49.12535" lon="-1.34011">
        <ele>108.53852</ele>
        <time>2015-06-04T18:00:20Z</time>
      </trkpt>
      <trkpt lat="49.12537" lon="-1.34018">
        <ele>109.06565</ele>
        <time>2015-06-04T18:00:25Z</time>
      </trkpt>
      <trkpt lat="49.12539" lon="-1.34024">
        <ele>109.06565</ele>
        <time>2015-06-04T18:00:30Z</time>
      </trkpt>
      <trkpt lat="49.12541" lon="-1.3403">
        <ele>109.466576</ele>
        <time>2015-06-04T18:00:35Z</time>
      </trkpt>
      <trkpt lat="49.12543" lon="-1.34038">
        <ele>109.466576</ele>
        <time>2015-06-04T18:00:40Z</time>
      </trkpt>
      <trkpt lat="49.12543" lon="-1.34044">
        <ele>109.736946</ele>
        <time>2015-06-04T18:00:45Z</time>
      </trkpt>
      <trkpt lat="49.12543" lon="-1.34052">
        <ele>109.736946</ele>
        <time>2015-06-04T18:00:50Z</time>
      </trkpt>
      <trkpt lat="49.12544" lon="-1.34062">
        <ele>109.98844</ele>
        <time>2015-06-04T18:00:55Z</time>
      </trkpt>
      <trkpt lat="49.12544" lon="-1.3407">
        <ele>109.98844</ele>
        <time>2015-06-04T18:01:00Z</time>
      </trkpt>
      <trkpt lat="49.12546" lon="-1.3408">
        <ele>110.23812</ele>
        <time>2015-06-04T18:01:05Z</time>
      </trkpt>
      <trkpt lat="49.12547" lon="-1.34084">
        <ele>110.23812</ele>
        <time>2015-06-04T18:01:10Z</time>
      </trkpt>
      <trkpt lat="49.12547" lon="-1.34093">
        <ele>110.23812</ele>
        <time>2015-06-04T18:01:15Z</time>
      </trkpt>
      <trkpt lat="49.12548" lon="-1.341">
        <ele>110.487404</ele>
        <time>2015-06-04T18:01:20Z</time>
      </trkpt>
      <trkpt lat="49.12549" lon="-1.34106">
        <ele>110.487404</ele>
        <time>2015-06-04T18:01:25Z</time>
      </trkpt>
      <trkpt lat="49.12549" lon="-1.34114">
        <ele>110.68</ele>
        <time>2015-06-04T18:01:30Z</time>
      </trkpt>
      <trkpt lat="49.1255" lon="-1.34122">
        <ele>110.68</ele>
        <time>2015-06-04T18:01:35Z</time>
      </trkpt>
      <trkpt lat="49.12551" lon="-1.34129">
        <ele>110.90799</ele>
        <time>2015-06-04T18:01:40Z</time>
      </trkpt>
      <trkpt lat="49.12551" lon="-1.34136">
        <ele>110.90799</ele>
        <time>2015-06-04T18:01:45Z</time>
      </trkpt>
      <trkpt lat="49.12551" lon="-1.34144">
        <ele>111.17016</ele>
        <time>2015-06-04T18:01:50Z</time>
      </trkpt>
      <trkpt lat="49.1255" lon="-1.34153">
        <ele>111.17016</ele>
        <time>2015-06-04T18:01:55Z</time>
      </trkpt>
      <trkpt lat="49.12551" lon="-1.3416">
        <ele>111.49409</ele>
        <time>2015-06-04T18:02:00Z</time>
      </trkpt>
      <trkpt lat="49.12549" lon="-1.3417">
        <ele>111.49409</ele>
        <time>2015-06-04T18:02:05Z</time>
      </trkpt>
      <trkpt lat="49.12551" lon="-1.34181">
        <ele>111.84753</ele>
        <time>2015-06-04T18:02:10Z</time>
      </trkpt>
      <trkpt lat="49.12552" lon="-1.3419">
        <ele>111.84753</ele>
        <time>2015-06-04T18:02:15Z</time>
      </trkpt>
      <trkpt lat="49.12555" lon="-1.34197">
        <ele>112.186066</ele>
        <time>2015-06-04T18:02:20Z</time>
      </trkpt>
      <trkpt lat="49.12558" lon="-1.34206">
        <ele>112.186066</ele>
        <time>2015-06-04T18:02:25Z</time>
      </trkpt>
      <trkpt lat="49.1256" lon="-1.34213">
        <ele>112.51184</ele>
        <time>2015-06-04T18:02:30Z</time>
      </trkpt>
      <trkpt lat="49.12563" lon="-1.34219">
        <ele>112.51184</ele>
        <time>2015-06-04T18:02:35Z</time>
      </trkpt>
      <trkpt lat="49.12567" lon="-1.34228">
        <ele>112.69715</ele>
        <time>2015-06-04T18:02:40Z</time>
      </trkpt>
      <trkpt lat="49.1257" lon="-1.34235">
        <ele>112.69715</ele>
        <time>2015-06-04T18:02:45Z</time>
      </trkpt>
      <trkpt lat="49.12574" lon="-1.34242">
        <ele>112.739334</ele>
        <time>2015-06-04T18:02:50Z</time>
      </trkpt>
      <trkpt lat="49.12577" lon="-1.34253">
        <ele>112.739334</ele>
        <time>2015-06-04T18:02:55Z</time>
      </trkpt>
      <trkpt lat="49.12578" lon="-1.3426">
        <ele>112.65072</ele>
        <time>2015-06-04T18:03:00Z</time>
      </trkpt>
      <trkpt lat="49.12581" lon="-1.34267">
        <ele>112.65072</ele>
        <time>2015-06-04T18:03:05Z</time>
      </trkpt>
      <trkpt lat="49.12583" lon="-1.34274">
        <ele>112.47191</ele>
        <time>2015-06-04T18:03:10Z</time>
      </trkpt>
      <trkpt lat="49.12585" lon="-1.3428">
        <ele>112.47191</ele>
        <time>2015-06-04T18:03:15Z</time>
      </trkpt>
      <trkpt lat="49.12586" lon="-1.34285">
        <ele>112.47191</ele>
        <time>2015-06-04T18:03:20Z</time>
      </trkpt>
      <trkpt lat="49.12593" lon="-1.34295">
        <ele>112.09661</ele>
        <time>2015-06-04T18:03:25Z</time>
      </trkpt>
      <trkpt lat="49.12594" lon="-1.34301">
        <ele>112.09661</ele>
        <time>2015-06-04T18:03:30Z</time>
      </trkpt>
      <trkpt lat="49.12595" lon="-1.3431">
        <ele>111.398056</ele>
        <time>2015-06-04T18:03:35Z</time>
      </trkpt>
      <trkpt lat="49.12596" lon="-1.34317">
        <ele>111.398056</ele>
        <time>2015-06-04T18:03:40Z</time>
      </trkpt>
      <trkpt lat="49.12598" lon="-1.34324">
        <ele>110.331696</ele>
        <time>2015-06-04T18:03:45Z</time>
      </trkpt>
      <trkpt lat="49.12601" lon="-1.34331">
        <ele>110.331696</ele>
        <time>2015-06-04T18:03:50Z</time>
      </trkpt>
      <trkpt lat="49.12602" lon="-1.34341">
        <ele>109.04459</ele>
        <time>2015-06-04T18:03:55Z</time>
      </trkpt>
      <trkpt lat="49.12603" lon="-1.3435">
        <ele>109.04459</ele>
        <time>2015-06-04T18:04:00Z</time>
      </trkpt>
      <trkpt lat="49.12602" lon="-1.34359">
        <ele>107.54386</ele>
        <time>2015-06-04T18:04:05Z</time>
      </trkpt>
      <trkpt lat="49.12603" lon="-1.34366">
        <ele>107.54386</ele>
        <time>2015-06-04T18:04:10Z</time>
      </trkpt>
      <trkpt lat="49.12603" lon="-1.34374">
        <ele>105.82221</ele>
        <time>2015-06-04T18:04:15Z</time>
      </trkpt>
      <trkpt lat="49.12604" lon="-1.34381">
        <ele>105.82221</ele>
        <time>2015-06-04T18:04:20Z</time>
      </trkpt>
      <trkpt lat="49.12606" lon="-1.34387">
        <ele>103.94547</ele>
        <time>2015-06-04T18:04:25Z</time>
      </trkpt>
      <trkpt lat="49.12609" lon="-1.34396">
        <ele>103.94547</ele>
        <time>2015-06-04T18:04:30Z</time>
      </trkpt>
      <trkpt lat="49.12611" lon="-1.34404">
        <ele>101.91734</ele>
        <time>2015-06-04T18:04:35Z</time>
      </trkpt>
      <trkpt lat="49.12612" lon="-1.34411">
        <ele>101.91734</ele>
        <time>2015-06-04T18:04:40Z</time>
      </trkpt>
      <trkpt lat="49.12614" lon="-1.34416">
        <ele>101.91734</ele>
        <time>2015-06-04T18:04:45Z</time>
      </trkpt>
      <trkpt lat="49.12615" lon="-1.34423">
        <ele>99.71274</ele>
        <time>2015-06-04T18:04:50Z</time>
      </trkpt>
      <trkpt lat="49.12616" lon="-1.3443">
        <ele>99.71274</ele>
        <time>2015-06-04T18:04:55Z</time>
      </trkpt>
      <trkpt lat="49.12616" lon="-1.34431">
        <ele>99.71274</ele>
        <time>2015-06-04T18:05:00Z</time>
      </trkpt>
      <trkpt lat="49.12617" lon="-1.34433">
        <ele>99.71274</ele>
        <time>2015-06-04T18:05:05Z</time>
      </trkpt>
      <trkpt lat="49.12617" lon="-1.34439">
        <ele>97.64024</ele>
        <time>2015-06-04T18:05:10Z</time>
      </trkpt>
      <trkpt lat="49.12616" lon="-1.34446">
        <ele>97.64024</ele>
        <time>2015-06-04T18:05:15Z</time>
      </trkpt>
      <trkpt lat="49.12615" lon="-1.34452">
        <ele>97.64024</ele>
        <time>2015-06-04T18:05:20Z</time>
      </trkpt>
      <trkpt lat="49.12613" lon="-1.34459">
        <ele>95.95646</ele>
        <time>2015-06-04T18:05:25Z</time>
      </trkpt>
      <trkpt lat="49.12612" lon="-1.34467">
        <ele>95.95646</ele>
        <time>2015-06-04T18:05:30Z</time>
      </trkpt>
      <trkpt lat="49.12611" lon="-1.34476">
        <ele>94.53762</ele>
        <time>2015-06-04T18:05:35Z</time>
      </trkpt>
      <trkpt lat="49.12611" lon="-1.34484">
        <ele>94.53762</ele>
        <time>2015-06-04T18:05:40Z</time>
      </trkpt>
      <trkpt lat="49.12611" lon="-1.34491">
        <ele>93.15287</ele>
        <time>2015-06-04T18:05:45Z</time>
      </trkpt>
      <trkpt lat="49.12611" lon="-1.345">
        <ele>93.15287</ele>
        <time>2015-06-04T18:05:50Z</time>
      </trkpt>
      <trkpt lat="49.12612" lon="-1.34507">
        <ele>91.789825</ele>
        <time>2015-06-04T18:05:55Z</time>
      </trkpt>
      <trkpt lat="49.12611" lon="-1.34514">
        <ele>91.789825</ele>
        <time>2015-06-04T18:06:00Z</time>
      </trkpt>
      <trkpt lat="49.12611" lon="-1.34519">
        <ele>91.789825</ele>
        <time>2015-06-04T18:06:05Z</time>
      </trkpt>
      <trkpt lat="49.1261" lon="-1.34527">
        <ele>90.49442</ele>
        <time>2015-06-04T18:06:10Z</time>
      </trkpt>
      <trkpt lat="49.1261" lon="-1.34533">
        <ele>90.49442</ele>
        <time>2015-06-04T18:06:15Z</time>
      </trkpt>
      <trkpt lat="49.12609" lon="-1.34539">
        <ele>90.49442</ele>
        <time>2015-06-04T18:06:20Z</time>
      </trkpt>
      <trkpt lat="49.12608" lon="-1.34548">
        <ele>89.29449</ele>
        <time>2015-06-04T18:06:25Z</time>
      </trkpt>
      <trkpt lat="49.12606" lon="-1.34555">
        <ele>89.29449</ele>
        <time>2015-06-04T18:06:30Z</time>
      </trkpt>
      <trkpt lat="49.12607" lon="-1.34562">
        <ele>88.22978</ele>
        <time>2015-06-04T18:06:35Z</time>
      </trkpt>
      <trkpt lat="49.12607" lon="-1.34567">
        <ele>88.22978</ele>
        <time>2015-06-04T18:06:40Z</time>
      </trkpt>
      <trkpt lat="49.12606" lon="-1.34569">
        <ele>88.22978</ele>
        <time>2015-06-04T18:06:45Z</time>
      </trkpt>
      <trkpt lat="49.12607" lon="-1.34569">
        <ele>88.22978</ele>
        <time>2015-06-04T18:06:50Z</time>
      </trkpt>
      <trkpt lat="49.12605" lon="-1.34568">
        <ele>88.22978</ele>
        <time>2015-06-04T18:06:55Z</time>
      </trkpt>
      <trkpt lat="49.12604" lon="-1.34567">
        <ele>88.22978</ele>
        <time>2015-06-04T18:07:00Z</time>
      </trkpt>
      <trkpt lat="49.12601" lon="-1.34567">
        <ele>86.86103</ele>
        <time>2015-06-04T18:07:05Z</time>
      </trkpt>
      <trkpt lat="49.126" lon="-1.34567">
        <ele>86.86103</ele>
        <time>2015-06-04T18:07:10Z</time>
      </trkpt>
      <trkpt lat="49.126" lon="-1.34566">
        <ele>86.86103</ele>
        <time>2015-06-04T18:07:15Z</time>
      </trkpt>
      <trkpt lat="49.126" lon="-1.34567">
        <ele>86.86103</ele>
        <time>2015-06-04T18:07:20Z</time>
      </trkpt>
      <trkpt lat="49.12604" lon="-1.34571">
        <ele>86.86103</ele>
        <time>2015-06-04T18:07:25Z</time>
      </trkpt>
      <trkpt lat="49.12608" lon="-1.34574">
        <ele>85.531334</ele>
        <time>2015-06-04T18:07:30Z</time>
      </trkpt>
      <trkpt lat="49.12609" lon="-1.34575">
        <ele>85.531334</ele>
        <time>2015-06-04T18:07:35Z</time>
      </trkpt>
      <trkpt lat="49.12611" lon="-1.34576">
        <ele>85.531334</ele>
        <time>2015-06-04T18:07:40Z</time>
      </trkpt>
      <trkpt lat="49.12614" lon="-1.34574">
        <ele>85.531334</ele>
        <time>2015-06-04T18:07:45Z</time>
      </trkpt>
      <trkpt lat="49.12618" lon="-1.3457">
        <ele>84.1692</ele>
        <time>2015-06-04T18:07:50Z</time>
      </trkpt>
      <trkpt lat="49.12624" lon="-1.34569">
        <ele>84.1692</ele>
        <time>2015-06-04T18:07:55Z</time>
      </trkpt>
      <trkpt lat="49.12627" lon="-1.34569">
        <ele>83.0542</ele>
        <time>2015-06-04T18:08:00Z</time>
      </trkpt>
      <trkpt lat="49.12631" lon="-1.34571">
        <ele>83.0542</ele>
        <time>2015-06-04T18:08:05Z</time>
      </trkpt>
      <trkpt lat="49.12636" lon="-1.34575">
        <ele>82.12749</ele>
        <time>2015-06-04T18:08:10Z</time>
      </trkpt>
      <trkpt lat="49.12642" lon="-1.3458">
        <ele>82.12749</ele>
        <time>2015-06-04T18:08:15Z</time>
      </trkpt>
      <trkpt lat="49.12646" lon="-1.34586">
        <ele>81.44915</ele>
        <time>2015-06-04T18:08:20Z</time>
      </trkpt>
      <trkpt lat="49.1265" lon="-1.3459">
        <ele>81.44915</ele>
        <time>2015-06-04T18:08:25Z</time>
      </trkpt>
      <trkpt lat="49.12653" lon="-1.34593">
        <ele>81.44915</ele>
        <time>2015-06-04T18:08:30Z</time>
      </trkpt>
      <trkpt lat="49.12655" lon="-1.34595">
        <ele>80.98757</ele>
        <time>2015-06-04T18:08:35Z</time>
      </trkpt>
      <trkpt lat="49.12655" lon="-1.34595">
        <ele>80.98757</ele>
        <time>2015-06-04T18:08:40Z</time>
      </trkpt>
      <trkpt lat="49.12654" lon="-1.34597">
        <ele>80.98757</ele>
        <time>2015-06-04T18:08:45Z</time>
      </trkpt>
      <trkpt lat="49.12655" lon="-1.346">
        <ele>80.98757</ele>
        <time>2015-06-04T18:08:50Z</time>
      </trkpt>
      <trkpt lat="49.12659" lon="-1.34605">
        <ele>80.74153</ele>
        <time>2015-06-04T18:08:55Z</time>
      </trkpt>
      <trkpt lat="49.12662" lon="-1.3461">
        <ele>80.74153</ele>
        <time>2015-06-04T18:09:00Z</time>
      </trkpt>
      <trkpt lat="49.12666" lon="-1.34616">
        <ele>80.75239</ele>
        <time>2015-06-04T18:09:05Z</time>
      </trkpt>
      <trkpt lat="49.12671" lon="-1.3462">
        <ele>80.75239</ele>
        <time>2015-06-04T18:09:10Z</time>
      </trkpt>
      <trkpt lat="49.12675" lon="-1.34626">
        <ele>80.94237</ele>
        <time>2015-06-04T18:09:15Z</time>
      </trkpt>
      <trkpt lat="49.12679" lon="-1.34632">
        <ele>80.94237</ele>
        <time>2015-06-04T18:09:20Z</time>
      </trkpt>
      <trkpt lat="49.12684" lon="-1.34637">
        <ele>81.32527</ele>
        <time>2015-06-04T18:09:25Z</time>
      </trkpt>
      <trkpt lat="49.12688" lon="-1.34642">
        <ele>81.32527</ele>
        <time>2015-06-04T18:09:30Z</time>
      </trkpt>
      <trkpt lat="49.12692" lon="-1.34649">
        <ele>81.84118</ele>
        <time>2015-06-04T18:09:35Z</time>
      </trkpt>
      <trkpt lat="49.12696" lon="-1.34657">
        <ele>81.84118</ele>
        <time>2015-06-04T18:09:40Z</time>
      </trkpt>
      <trkpt lat="49.127" lon="-1.34664">
        <ele>82.50621</ele>
        <time>2015-06-04T18:09:45Z</time>
      </trkpt>
      <trkpt lat="49.12705" lon="-1.3467">
        <ele>82.50621</ele>
        <time>2015-06-04T18:09:50Z</time>
      </trkpt>
      <trkpt lat="49.12709" lon="-1.34676">
        <ele>83.32039</ele>
        <time>2015-06-04T18:09:55Z</time>
      </trkpt>
      <trkpt lat="49.12713" lon="-1.34682">
        <ele>83.32039</ele>
        <time>2015-06-04T18:10:00Z</time>
      </trkpt>
      <trkpt lat="49.12718" lon="-1.34689">
        <ele>84.21124</ele>
        <time>2015-06-04T18:10:05Z</time>
      </trkpt>
      <trkpt lat="49.12722" lon="-1.34695">
        <ele>84.21124</ele>
        <time>2015-06-04T18:10:10Z</time>
      </trkpt>
      <trkpt lat="49.12727" lon="-1.34701">
        <ele>85.169014</ele>
        <time>2015-06-04T18:10:15Z</time>
      </trkpt>
      <trkpt lat="49.1273" lon="-1.34704">
        <ele>85.169014</ele>
        <time>2015-06-04T18:10:20Z</time>
      </trkpt>
      <trkpt lat="49.12734" lon="-1.34711">
        <ele>86.19886</ele>
        <time>2015-06-04T18:10:25Z</time>
      </trkpt>
      <trkpt lat="49.12736" lon="-1.34718">
        <ele>86.19886</ele>
        <time>2015-06-04T18:10:30Z</time>
      </trkpt>
      <trkpt lat="49.12739" lon="-1.34725">
        <ele>87.23332</ele>
        <time>2015-06-04T18:10:35Z</time>
      </trkpt>
      <trkpt lat="49.12743" lon="-1.34733">
        <ele>87.23332</ele>
        <time>2015-06-04T18:10:40Z</time>
      </trkpt>
      <trkpt lat="49.12746" lon="-1.3474">
        <ele>88.38281</ele>
        <time>2015-06-04T18:10:45Z</time>
      </trkpt>
      <trkpt lat="49.1275" lon="-1.34746">
        <ele>88.38281</ele>
        <time>2015-06-04T18:10:50Z</time>
      </trkpt>
      <trkpt lat="49.12754" lon="-1.34754">
        <ele>89.60524</ele>
        <time>2015-06-04T18:10:55Z</time>
      </trkpt>
      <trkpt lat="49.12756" lon="-1.34763">
        <ele>89.60524</ele>
        <time>2015-06-04T18:11:00Z</time>
      </trkpt>
      <trkpt lat="49.12757" lon="-1.34769">
        <ele>90.73172</ele>
        <time>2015-06-04T18:11:05Z</time>
      </trkpt>
      <trkpt lat="49.12759" lon="-1.34769">
        <ele>90.73172</ele>
        <time>2015-06-04T18:11:10Z</time>
      </trkpt>
      <trkpt lat="49.12756" lon="-1.34775">
        <ele>90.73172</ele>
        <time>2015-06-04T18:11:15Z</time>
      </trkpt>
      <trkpt lat="49.12758" lon="-1.34775">
        <ele>90.73172</ele>
        <time>2015-06-04T18:11:20Z</time>
      </trkpt>
      <trkpt lat="49.12758" lon="-1.34774">
        <ele>90.73172</ele>
        <time>2015-06-04T18:11:25Z</time>
      </trkpt>
      <trkpt lat="49.12757" lon="-1.34774">
        <ele>90.73172</ele>
        <time>2015-06-04T18:11:30Z</time>
      </trkpt>
      <trkpt lat="49.12757" lon="-1.34774">
        <ele>90.73172</ele>
        <time>2015-06-04T18:11:35Z</time>
      </trkpt>
      <trkpt lat="49.12756" lon="-1.34775">
        <ele>91.865524</ele>
        <time>2015-06-04T18:11:40Z</time>
      </trkpt>
      <trkpt lat="49.12757" lon="-1.34775">
        <ele>91.865524</ele>
        <time>2015-06-04T18:11:45Z</time>
      </trkpt>
      <trkpt lat="49.12758" lon="-1.34775">
        <ele>91.865524</ele>
        <time>2015-06-04T18:11:50Z</time>
      </trkpt>
      <trkpt lat="49.12758" lon="-1.34773">
        <ele>91.865524</ele>
        <time>2015-06-04T18:11:55Z</time>
      </trkpt>
      <trkpt lat="49.12758" lon="-1.34774">
        <ele>91.865524</ele>
        <time>2015-06-04T18:12:00Z</time>
      </trkpt>
      <trkpt lat="49.12757" lon="-1.3477">
        <ele>91.865524</ele>
        <time>2015-06-04T18:12:05Z</time>
      </trkpt>
      <trkpt lat="49.12763" lon="-1.34769">
        <ele>92.90059</ele>
        <time>2015-06-04T18:12:10Z</time>
      </trkpt>
      <trkpt lat="49.1277" lon="-1.34771">
        <ele>92.90059</ele>
        <time>2015-06-04T18:12:15Z</time>
      </trkpt>
      <trkpt lat="49.12777" lon="-1.34776">
        <ele>93.85431</ele>
        <time>2015-06-04T18:12:20Z</time>
      </trkpt>
      <trkpt lat="49.12784" lon="-1.3478">
        <ele>93.85431</ele>
        <time>2015-06-04T18:12:25Z</time>
      </trkpt>
      <trkpt lat="49.12789" lon="-1.34783">
        <ele>94.71425</ele>
        <time>2015-06-04T18:12:30Z</time>
      </trkpt>
      <trkpt lat="49.12793" lon="-1.34786">
        <ele>94.71425</ele>
        <time>2015-06-04T18:12:35Z</time>
      </trkpt>
      <trkpt lat="49.12798" lon="-1.3479">
        <ele>95.598976</ele>
        <time>2015-06-04T18:12:40Z</time>
      </trkpt>
      <trkpt lat="49.12803" lon="-1.34795">
        <ele>95.598976</ele>
        <time>2015-06-04T18:12:45Z</time>
      </trkpt>
      <trkpt lat="49.12809" lon="-1.348">
        <ele>96.488625</ele>
        <time>2015-06-04T18:12:50Z</time>
      </trkpt>
      <trkpt lat="49.12815" lon="-1.34803">
        <ele>96.488625</ele>
        <time>2015-06-04T18:12:55Z</time>
      </trkpt>
      <trkpt lat="49.12821" lon="-1.34809">
        <ele>97.393715</ele>
        <time>2015-06-04T18:13:00Z</time>
      </trkpt>
      <trkpt lat="49.12824" lon="-1.34812">
        <ele>97.393715</ele>
        <time>2015-06-04T18:13:05Z</time>
      </trkpt>
      <trkpt lat="49.12828" lon="-1.34818">
        <ele>98.30964</ele>
        <time>2015-06-04T18:13:10Z</time>
      </trkpt>
      <trkpt lat="49.12833" lon="-1.34822">
        <ele>98.30964</ele>
        <time>2015-06-04T18:13:15Z</time>
      </trkpt>
      <trkpt lat="49.12838" lon="-1.34826">
        <ele>99.11689</ele>
        <time>2015-06-04T18:13:20Z</time>
      </trkpt>
      <trkpt lat="49.12842" lon="-1.34832">
        <ele>99.11689</ele>
        <time>2015-06-04T18:13:25Z</time>
      </trkpt>
      <trkpt lat="49.12847" lon="-1.34838">
        <ele>99.806046</ele>
        <time>2015-06-04T18:13:30Z</time>
      </trkpt>
      <trkpt lat="49.12854" lon="-1.34844">
        <ele>99.806046</ele>
        <time>2015-06-04T18:13:35Z</time>
      </trkpt>
      <trkpt lat="49.12859" lon="-1.3485">
        <ele>100.383194</ele>
        <time>2015-06-04T18:13:40Z</time>
      </trkpt>
      <trkpt lat="49.12864" lon="-1.34855">
        <ele>100.383194</ele>
        <time>2015-06-04T18:13:45Z</time>
      </trkpt>
      <trkpt lat="49.1287" lon="-1.34861">
        <ele>100.86883</ele>
        <time>2015-06-04T18:13:50Z</time>
      </trkpt>
      <trkpt lat="49.12871" lon="-1.34864">
        <ele>100.86883</ele>
        <time>2015-06-04T18:13:55Z</time>
      </trkpt>
      <trkpt lat="49.12876" lon="-1.34871">
        <ele>100.86883</ele>
        <time>2015-06-04T18:14:00Z</time>
      </trkpt>
      <trkpt lat="49.12881" lon="-1.34876">
        <ele>101.138176</ele>
        <time>2015-06-04T18:14:05Z</time>
      </trkpt>
      <trkpt lat="49.12885" lon="-1.34883">
        <ele>101.138176</ele>
        <time>2015-06-04T18:14:10Z</time>
      </trkpt>
      <trkpt lat="49.1289" lon="-1.34888">
        <ele>101.24926</ele>
        <time>2015-06-04T18:14:15Z</time>
      </trkpt>
      <trkpt lat="49.12894" lon="-1.34896">
        <ele>101.24926</ele>
        <time>2015-06-04T18:14:20Z</time>
      </trkpt>
      <trkpt lat="49.129" lon="-1.34904">
        <ele>101.16992</ele>
        <time>2015-06-04T18:14:25Z</time>
      </trkpt>
      <trkpt lat="49.12904" lon="-1.3491">
        <ele>101.16992</ele>
        <time>2015-06-04T18:14:30Z</time>
      </trkpt>
      <trkpt lat="49.12907" lon="-1.34917">
        <ele>100.943054</ele>
        <time>2015-06-04T18:14:35Z</time>
      </trkpt>
      <trkpt lat="49.12913" lon="-1.34924">
        <ele>100.943054</ele>
        <time>2015-06-04T18:14:40Z</time>
      </trkpt>
      <trkpt lat="49.12916" lon="-1.34929">
        <ele>100.66651</ele>
        <time>2015-06-04T18:14:45Z</time>
      </trkpt>
      <trkpt lat="49.12921" lon="-1.34937">
        <ele>100.66651</ele>
        <time>2015-06-04T18:14:50Z</time>
      </trkpt>
      <trkpt lat="49.12925" lon="-1.34943">
        <ele>100.330315</ele>
        <time>2015-06-04T18:14:55Z</time>
      </trkpt>
      <trkpt lat="49.12929" lon="-1.34949">
        <ele>100.330315</ele>
        <time>2015-06-04T18:15:00Z</time>
      </trkpt>
      <trkpt lat="49.12932" lon="-1.34953">
        <ele>99.92546</ele>
        <time>2015-06-04T18:15:05Z</time>
      </trkpt>
      <trkpt lat="49.12936" lon="-1.34958">
        <ele>99.92546</ele>
        <time>2015-06-04T18:15:10Z</time>
      </trkpt>
      <trkpt lat="49.1294" lon="-1.34965">
        <ele>99.41501</ele>
        <time>2015-06-04T18:15:15Z</time>
      </trkpt>
      <trkpt lat="49.12947" lon="-1.34972">
        <ele>99.41501</ele>
        <time>2015-06-04T18:15:20Z</time>
      </trkpt>
      <trkpt lat="49.12951" lon="-1.34979">
        <ele>98.92363</ele>
        <time>2015-06-04T18:15:25Z</time>
      </trkpt>
      <trkpt lat="49.12955" lon="-1.34983">
        <ele>98.92363</ele>
        <time>2015-06-04T18:15:30Z</time>
      </trkpt>
      <trkpt lat="49.12961" lon="-1.34981">
        <ele>98.5668</ele>
        <time>2015-06-04T18:15:35Z</time>
      </trkpt>
      <trkpt lat="49.12967" lon="-1.3498">
        <ele>98.5668</ele>
        <time>2015-06-04T18:15:40Z</time>
      </trkpt>
      <trkpt lat="49.12972" lon="-1.34981">
        <ele>98.24944</ele>
        <time>2015-06-04T18:15:45Z</time>
      </trkpt>
      <trkpt lat="49.12979" lon="-1.34981">
        <ele>98.24944</ele>
        <time>2015-06-04T18:15:50Z</time>
      </trkpt>
      <trkpt lat="49.12984" lon="-1.34981">
        <ele>97.86894</ele>
        <time>2015-06-04T18:15:55Z</time>
      </trkpt>
      <trkpt lat="49.1299" lon="-1.34981">
        <ele>97.86894</ele>
        <time>2015-06-04T18:16:00Z</time>
      </trkpt>
      <trkpt lat="49.12995" lon="-1.34982">
        <ele>97.38808</ele>
        <time>2015-06-04T18:16:05Z</time>
      </trkpt>
      <trkpt lat="49.13002" lon="-1.34982">
        <ele>97.38808</ele>
        <time>2015-06-04T18:16:10Z</time>
      </trkpt>
      <trkpt lat="49.13006" lon="-1.3498">
        <ele>96.96001</ele>
        <time>2015-06-04T18:16:15Z</time>
      </trkpt>
      <trkpt lat="49.13011" lon="-1.34981">
        <ele>96.96001</ele>
        <time>2015-06-04T18:16:20Z</time>
      </trkpt>
      <trkpt lat="49.13016" lon="-1.34982">
        <ele>96.55356</ele>
        <time>2015-06-04T18:16:25Z</time>
      </trkpt>
      <trkpt lat="49.1302" lon="-1.34982">
        <ele>96.55356</ele>
        <time>2015-06-04T18:16:30Z</time>
      </trkpt>
      <trkpt lat="49.13027" lon="-1.34983">
        <ele>96.12539</ele>
        <time>2015-06-04T18:16:35Z</time>
      </trkpt>
      <trkpt lat="49.13034" lon="-1.34984">
        <ele>96.12539</ele>
        <time>2015-06-04T18:16:40Z</time>
      </trkpt>
      <trkpt lat="49.13042" lon="-1.34985">
        <ele>95.70745</ele>
        <time>2015-06-04T18:16:45Z</time>
      </trkpt>
      <trkpt lat="49.13046" lon="-1.34986">
        <ele>95.70745</ele>
        <time>2015-06-04T18:16:50Z</time>
      </trkpt>
      <trkpt lat="49.13052" lon="-1.34987">
        <ele>95.28609</ele>
        <time>2015-06-04T18:16:55Z</time>
      </trkpt>
      <trkpt lat="49.13058" lon="-1.34987">
        <ele>95.28609</ele>
        <time>2015-06-04T18:17:00Z</time>
      </trkpt>
      <trkpt lat="49.13063" lon="-1.34992">
        <ele>94.834236</ele>
        <time>2015-06-04T18:17:05Z</time>
      </trkpt>
      <trkpt lat="49.13067" lon="-1.34995">
        <ele>94.834236</ele>
        <time>2015-06-04T18:17:10Z</time>
      </trkpt>
      <trkpt lat="49.13074" lon="-1.34992">
        <ele>94.42775</ele>
        <time>2015-06-04T18:17:15Z</time>
      </trkpt>
      <trkpt lat="49.1308" lon="-1.34991">
        <ele>94.42775</ele>
        <time>2015-06-04T18:17:20Z</time>
      </trkpt>
      <trkpt lat="49.13084" lon="-1.34991">
        <ele>94.021515</ele>
        <time>2015-06-04T18:17:25Z</time>
      </trkpt>
      <trkpt lat="49.13089" lon="-1.34992">
        <ele>94.021515</ele>
        <time>2015-06-04T18:17:30Z</time>
      </trkpt>
      <trkpt lat="49.13094" lon="-1.34992">
        <ele>93.44398</ele>
        <time>2015-06-04T18:17:35Z</time>
      </trkpt>
      <trkpt lat="49.131" lon="-1.34996">
        <ele>93.44398</ele>
        <time>2015-06-04T18:17:40Z</time>
      </trkpt>
      <trkpt lat="49.13106" lon="-1.34998">
        <ele>92.94018</ele>
        <time>2015-06-04T18:17:45Z</time>
      </trkpt>
      <trkpt lat="49.1311" lon="-1.34998">
        <ele>92.94018</ele>
        <time>2015-06-04T18:17:50Z</time>
      </trkpt>
      <trkpt lat="49.13115" lon="-1.34999">
        <ele>92.53514</ele>
        <time>2015-06-04T18:17:55Z</time>
      </trkpt>
      <trkpt lat="49.1312" lon="-1.34999">
        <ele>92.53514</ele>
        <time>2015-06-04T18:18:00Z</time>
      </trkpt>
      <trkpt lat="49.13126" lon="-1.34999">
        <ele>92.13649</ele>
        <time>2015-06-04T18:18:05Z</time>
      </trkpt>
      <trkpt lat="49.13132" lon="-1.34999">
        <ele>92.13649</ele>
        <time>2015-06-04T18:18:10Z</time>
      </trkpt>
      <trkpt lat="49.13138" lon="-1.34999">
        <ele>91.78826</ele>
        <time>2015-06-04T18:18:15Z</time>
      </trkpt>
      <trkpt lat="49.13142" lon="-1.34999">
        <ele>91.78826</ele>
        <time>2015-06-04T18:18:20Z</time>
      </trkpt>
      <trkpt lat="49.13149" lon="-1.34999">
        <ele>91.430214</ele>
        <time>2015-06-04T18:18:25Z</time>
      </trkpt>
      <trkpt lat="49.13154" lon="-1.34999">
        <ele>91.430214</ele>
        <time>2015-06-04T18:18:30Z</time>
      </trkpt>
      <trkpt lat="49.13157" lon="-1.34998">
        <ele>91.430214</ele>
        <time>2015-06-04T18:18:35Z</time>
      </trkpt>
      <trkpt lat="49.13165" lon="-1.35001">
        <ele>90.92006</ele>
        <time>2015-06-04T18:18:40Z</time>
      </trkpt>
      <trkpt lat="49.13168" lon="-1.35002">
        <ele>90.92006</ele>
        <time>2015-06-04T18:18:45Z</time>
      </trkpt>
      <trkpt lat="49.13174" lon="-1.35002">
        <ele>90.92006</ele>
        <time>2015-06-04T18:18:50Z</time>
      </trkpt>
      <trkpt lat="49.13178" lon="-1.35003">
        <ele>90.14076</ele>
        <time>2015-06-04T18:18:55Z</time>
      </trkpt>
      <trkpt lat="49.13184" lon="-1.3501">
        <ele>90.14076</ele>
        <time>2015-06-04T18:19:00Z</time>
      </trkpt>
      <trkpt lat="49.13189" lon="-1.35011">
        <ele>89.28723</ele>
        <time>2015-06-04T18:19:05Z</time>
      </trkpt>
      <trkpt lat="49.13193" lon="-1.35012">
        <ele>89.28723</ele>
        <time>2015-06-04T18:19:10Z</time>
      </trkpt>
      <trkpt lat="49.132" lon="-1.3501">
        <ele>88.43936</ele>
        <time>2015-06-04T18:19:15Z</time>
      </trkpt>
      <trkpt lat="49.13208" lon="-1.35011">
        <ele>88.43936</ele>
        <time>2015-06-04T18:19:20Z</time>
      </trkpt>
      <trkpt lat="49.13214" lon="-1.35015">
        <ele>87.64228</ele>
        <time>2015-06-04T18:19:25Z</time>
      </trkpt>
      <trkpt lat="49.13218" lon="-1.35017">
        <ele>87.64228</ele>
        <time>2015-06-04T18:19:30Z</time>
      </trkpt>
      <trkpt lat="49.13224" lon="-1.35021">
        <ele>86.89438</ele>
        <time>2015-06-04T18:19:35Z</time>
      </trkpt>
      <trkpt lat="49.1323" lon="-1.35026">
        <ele>86.89438</ele>
        <time>2015-06-04T18:19:40Z</time>
      </trkpt>
      <trkpt lat="49.13233" lon="-1.35032">
        <ele>86.28045</ele>
        <time>2015-06-04T18:19:45Z</time>
      </trkpt>
      <trkpt lat="49.13235" lon="-1.35034">
        <ele>86.28045</ele>
        <time>2015-06-04T18:19:50Z</time>
      </trkpt>
      <trkpt lat="49.13238" lon="-1.35037">
        <ele>86.28045</ele>
        <time>2015-06-04T18:19:55Z</time>
      </trkpt>
      <trkpt lat="49.1324" lon="-1.3504">
        <ele>86.28045</ele>
        <time>2015-06-04T18:20:00Z</time>
      </trkpt>
      <trkpt lat="49.13245" lon="-1.35045">
        <ele>85.67688</ele>
        <time>2015-06-04T18:20:05Z</time>
      </trkpt>
      <trkpt lat="49.13252" lon="-1.35046">
        <ele>85.67688</ele>
        <time>2015-06-04T18:20:10Z</time>
      </trkpt>
      <trkpt lat="49.13257" lon="-1.35044">
        <ele>85.09874</ele>
        <time>2015-06-04T18:20:15Z</time>
      </trkpt>
      <trkpt lat="49.1326" lon="-1.35046">
        <ele>85.09874</ele>
        <time>2015-06-04T18:20:20Z</time>
      </trkpt>
      <trkpt lat="49.13267" lon="-1.35049">
        <ele>84.55988</ele>
        <time>2015-06-04T18:20:25Z</time>
      </trkpt>
      <trkpt lat="49.13275" lon="-1.3505">
        <ele>84.55988</ele>
        <time>2015-06-04T18:20:30Z</time>
      </trkpt>
      <trkpt lat="49.13282" lon="-1.35051">
        <ele>84.000916</ele>
        <time>2015-06-04T18:20:35Z</time>
      </trkpt>
      <trkpt lat="49.13288" lon="-1.35049">
        <ele>84.000916</ele>
        <time>2015-06-04T18:20:40Z</time>
      </trkpt>
      <trkpt lat="49.13291" lon="-1.35049">
        <ele>84.000916</ele>
        <time>2015-06-04T18:20:45Z</time>
      </trkpt>
      <trkpt lat="49.13296" lon="-1.35051">
        <ele>83.53975</ele>
        <time>2015-06-04T18:20:50Z</time>
      </trkpt>
      <trkpt lat="49.13301" lon="-1.35049">
        <ele>83.53975</ele>
        <time>2015-06-04T18:20:55Z</time>
      </trkpt>
      <trkpt lat="49.13305" lon="-1.3505">
        <ele>83.28531</ele>
        <time>2015-06-04T18:21:00Z</time>
      </trkpt>
      <trkpt lat="49.13311" lon="-1.35052">
        <ele>83.28531</ele>
        <time>2015-06-04T18:21:05Z</time>
      </trkpt>
      <trkpt lat="49.13315" lon="-1.35052">
        <ele>83.04966</ele>
        <time>2015-06-04T18:21:10Z</time>
      </trkpt>
      <trkpt lat="49.13316" lon="-1.35053">
        <ele>83.04966</ele>
        <time>2015-06-04T18:21:15Z</time>
      </trkpt>
      <trkpt lat="49.13319" lon="-1.35053">
        <ele>83.04966</ele>
        <time>2015-06-04T18:21:20Z</time>
      </trkpt>
      <trkpt lat="49.13324" lon="-1.35054">
        <ele>83.04966</ele>
        <time>2015-06-04T18:21:25Z</time>
      </trkpt>
      <trkpt lat="49.13328" lon="-1.35056">
        <ele>82.60093</ele>
        <time>2015-06-04T18:21:30Z</time>
      </trkpt>
      <trkpt lat="49.13334" lon="-1.35058">
        <ele>82.60093</ele>
        <time>2015-06-04T18:21:35Z</time>
      </trkpt>
      <trkpt lat="49.13337" lon="-1.3506">
        <ele>82.60093</ele>
        <time>2015-06-04T18:21:40Z</time>
      </trkpt>
      <trkpt lat="49.13339" lon="-1.35061">
        <ele>81.95542</ele>
        <time>2015-06-04T18:21:45Z</time>
      </trkpt>
      <trkpt lat="49.13344" lon="-1.35063">
        <ele>81.95542</ele>
        <time>2015-06-04T18:21:50Z</time>
      </trkpt>
      <trkpt lat="49.13349" lon="-1.35064">
        <ele>81.31608</ele>
        <time>2015-06-04T18:21:55Z</time>
      </trkpt>
      <trkpt lat="49.1335" lon="-1.35064">
        <ele>81.31608</ele>
        <time>2015-06-04T18:22:00Z</time>
      </trkpt>
      <trkpt lat="49.13351" lon="-1.35062">
        <ele>81.31608</ele>
        <time>2015-06-04T18:22:05Z</time>
      </trkpt>
      <trkpt lat="49.1335" lon="-1.35062">
        <ele>81.31608</ele>
        <time>2015-06-04T18:22:10Z</time>
      </trkpt>
      <trkpt lat="49.1335" lon="-1.35062">
        <ele>81.31608</ele>
        <time>2015-06-04T18:22:15Z</time>
      </trkpt>
      <trkpt lat="49.13349" lon="-1.35062">
        <ele>81.31608</ele>
        <time>2015-06-04T18:22:20Z</time>
      </trkpt>
      <trkpt lat="49.1335" lon="-1.35064">
        <ele>81.31608</ele>
        <time>2015-06-04T18:22:25Z</time>
      </trkpt>
      <trkpt lat="49.1335" lon="-1.35067">
        <ele>80.33767</ele>
        <time>2015-06-04T18:22:30Z</time>
      </trkpt>
      <trkpt lat="49.13349" lon="-1.35066">
        <ele>80.33767</ele>
        <time>2015-06-04T18:22:35Z</time>
      </trkpt>
      <trkpt lat="49.1335" lon="-1.35065">
        <ele>80.33767</ele>
        <time>2015-06-04T18:22:40Z</time>
      </trkpt>
      <trkpt lat="49.1335" lon="-1.35064">
        <ele>80.33767</ele>
        <time>2015-06-04T18:22:45Z</time>
      </trkpt>
      <trkpt lat="49.1335" lon="-1.35064">
        <ele>80.33767</ele>
        <time>2015-06-04T18:22:50Z</time>
      </trkpt>
      <trkpt lat="49.13349" lon="-1.35064">
        <ele>80.33767</ele>
        <time>2015-06-04T18:22:55Z</time>
      </trkpt>
      <trkpt lat="49.13348" lon="-1.35062">
        <ele>80.33767</ele>
        <time>2015-06-04T18:23:00Z</time>
      </trkpt>
      <trkpt lat="49.1335" lon="-1.35062">
        <ele>80.33767</ele>
        <time>2015-06-04T18:23:05Z</time>
      </trkpt>
      <trkpt lat="49.1335" lon="-1.35061">
        <ele>80.33767</ele>
        <time>2015-06-04T18:23:10Z</time>
      </trkpt>
      <trkpt lat="49.1335" lon="-1.35061">
        <ele>80.33767</ele>
        <time>2015-06-04T18:23:15Z</time>
      </trkpt>
    </trkseg>
  </trk>
</gpx>